<?xml version="1.0" encoding="UTF-8" standalone="no" ?>
<gpx xmlns="http://www.topografix.com/GPX/1/1" xmlns:xsi="http://www.w3.org/2001/XMLSchema-instance" xsi:schemaLocation="http://www.topografix.com/GPX/1/1 http://www.topografix.com/GPX/1/1/gpx.xsd" version="1.1" creator="VisuGPX - https://www.visugpx.com">
  <metadata>
    <name>petite balade en apres midi</name>
    <desc><![CDATA[petite balade un peu boueuse ]]></desc>
  </metadata>
  <trk>
    <name><![CDATA[marche arriere dans une cote  ca fait une belle gamelle de plus !!]]></name>
    <trkseg>
      <trkpt lat="47.35766" lon="-1.94157">
        <ele>51</ele>
        <time>2015-12-05T12:47:38Z</time>
      </trkpt>
      <trkpt lat="47.35764" lon="-1.94152">
        <ele>51</ele>
        <time>2015-12-05T12:47:40Z</time>
      </trkpt>
      <trkpt lat="47.35766" lon="-1.94147">
        <ele>51</ele>
        <time>2015-12-05T12:47:41Z</time>
      </trkpt>
      <trkpt lat="47.35769" lon="-1.94144">
        <ele>51</ele>
        <time>2015-12-05T12:47:42Z</time>
      </trkpt>
      <trkpt lat="47.35772" lon="-1.94141">
        <ele>52</ele>
        <time>2015-12-05T12:47:43Z</time>
      </trkpt>
      <trkpt lat="47.35775" lon="-1.94138">
        <ele>52</ele>
        <time>2015-12-05T12:47:44Z</time>
      </trkpt>
      <trkpt lat="47.35778" lon="-1.94136">
        <ele>52</ele>
        <time>2015-12-05T12:47:45Z</time>
      </trkpt>
      <trkpt lat="47.35781" lon="-1.94134">
        <ele>52</ele>
        <time>2015-12-05T12:47:46Z</time>
      </trkpt>
      <trkpt lat="47.35784" lon="-1.94133">
        <ele>52</ele>
        <time>2015-12-05T12:47:47Z</time>
      </trkpt>
      <trkpt lat="47.35786" lon="-1.9413">
        <ele>52</ele>
        <time>2015-12-05T12:47:48Z</time>
      </trkpt>
      <trkpt lat="47.35789" lon="-1.94128">
        <ele>52</ele>
        <time>2015-12-05T12:47:49Z</time>
      </trkpt>
      <trkpt lat="47.35791" lon="-1.94125">
        <ele>52</ele>
        <time>2015-12-05T12:47:50Z</time>
      </trkpt>
      <trkpt lat="47.35793" lon="-1.94121">
        <ele>53</ele>
        <time>2015-12-05T12:47:51Z</time>
      </trkpt>
      <trkpt lat="47.35795" lon="-1.94118">
        <ele>53</ele>
        <time>2015-12-05T12:47:52Z</time>
      </trkpt>
      <trkpt lat="47.35796" lon="-1.94109">
        <ele>53</ele>
        <time>2015-12-05T12:47:54Z</time>
      </trkpt>
      <trkpt lat="47.35796" lon="-1.94105">
        <ele>53</ele>
        <time>2015-12-05T12:47:55Z</time>
      </trkpt>
      <trkpt lat="47.35795" lon="-1.94101">
        <ele>53</ele>
        <time>2015-12-05T12:47:56Z</time>
      </trkpt>
      <trkpt lat="47.35793" lon="-1.94093">
        <ele>53</ele>
        <time>2015-12-05T12:47:58Z</time>
      </trkpt>
      <trkpt lat="47.3579" lon="-1.94088">
        <ele>53</ele>
        <time>2015-12-05T12:47:59Z</time>
      </trkpt>
      <trkpt lat="47.35788" lon="-1.94082">
        <ele>54</ele>
        <time>2015-12-05T12:48:00Z</time>
      </trkpt>
      <trkpt lat="47.35786" lon="-1.94078">
        <ele>54</ele>
        <time>2015-12-05T12:48:01Z</time>
      </trkpt>
      <trkpt lat="47.35784" lon="-1.94073">
        <ele>54</ele>
        <time>2015-12-05T12:48:02Z</time>
      </trkpt>
      <trkpt lat="47.35783" lon="-1.94068">
        <ele>54</ele>
        <time>2015-12-05T12:48:03Z</time>
      </trkpt>
      <trkpt lat="47.35781" lon="-1.94063">
        <ele>54</ele>
        <time>2015-12-05T12:48:04Z</time>
      </trkpt>
      <trkpt lat="47.35779" lon="-1.94058">
        <ele>54</ele>
        <time>2015-12-05T12:48:05Z</time>
      </trkpt>
      <trkpt lat="47.35778" lon="-1.94054">
        <ele>54</ele>
        <time>2015-12-05T12:48:06Z</time>
      </trkpt>
      <trkpt lat="47.35776" lon="-1.94049">
        <ele>54</ele>
        <time>2015-12-05T12:48:07Z</time>
      </trkpt>
      <trkpt lat="47.35774" lon="-1.94045">
        <ele>54</ele>
        <time>2015-12-05T12:48:08Z</time>
      </trkpt>
      <trkpt lat="47.35772" lon="-1.94041">
        <ele>54</ele>
        <time>2015-12-05T12:48:09Z</time>
      </trkpt>
      <trkpt lat="47.3577" lon="-1.94036">
        <ele>54</ele>
        <time>2015-12-05T12:48:10Z</time>
      </trkpt>
      <trkpt lat="47.35769" lon="-1.94032">
        <ele>54</ele>
        <time>2015-12-05T12:48:11Z</time>
      </trkpt>
      <trkpt lat="47.35767" lon="-1.94027">
        <ele>54</ele>
        <time>2015-12-05T12:48:12Z</time>
      </trkpt>
      <trkpt lat="47.35765" lon="-1.94023">
        <ele>54</ele>
        <time>2015-12-05T12:48:13Z</time>
      </trkpt>
      <trkpt lat="47.35763" lon="-1.94018">
        <ele>54</ele>
        <time>2015-12-05T12:48:14Z</time>
      </trkpt>
      <trkpt lat="47.35761" lon="-1.94014">
        <ele>54</ele>
        <time>2015-12-05T12:48:15Z</time>
      </trkpt>
      <trkpt lat="47.35759" lon="-1.94009">
        <ele>54</ele>
        <time>2015-12-05T12:48:16Z</time>
      </trkpt>
      <trkpt lat="47.35757" lon="-1.94005">
        <ele>54</ele>
        <time>2015-12-05T12:48:17Z</time>
      </trkpt>
      <trkpt lat="47.35755" lon="-1.94">
        <ele>54</ele>
        <time>2015-12-05T12:48:18Z</time>
      </trkpt>
      <trkpt lat="47.35754" lon="-1.93995">
        <ele>55</ele>
        <time>2015-12-05T12:48:19Z</time>
      </trkpt>
      <trkpt lat="47.35752" lon="-1.9399">
        <ele>55</ele>
        <time>2015-12-05T12:48:20Z</time>
      </trkpt>
      <trkpt lat="47.35751" lon="-1.93984">
        <ele>55</ele>
        <time>2015-12-05T12:48:21Z</time>
      </trkpt>
      <trkpt lat="47.35751" lon="-1.93978">
        <ele>56</ele>
        <time>2015-12-05T12:48:22Z</time>
      </trkpt>
      <trkpt lat="47.35751" lon="-1.93973">
        <ele>56</ele>
        <time>2015-12-05T12:48:23Z</time>
      </trkpt>
      <trkpt lat="47.35751" lon="-1.93968">
        <ele>56</ele>
        <time>2015-12-05T12:48:24Z</time>
      </trkpt>
      <trkpt lat="47.35753" lon="-1.93964">
        <ele>56</ele>
        <time>2015-12-05T12:48:25Z</time>
      </trkpt>
      <trkpt lat="47.35755" lon="-1.93959">
        <ele>56</ele>
        <time>2015-12-05T12:48:26Z</time>
      </trkpt>
      <trkpt lat="47.35756" lon="-1.93954">
        <ele>56</ele>
        <time>2015-12-05T12:48:27Z</time>
      </trkpt>
      <trkpt lat="47.35759" lon="-1.93952">
        <ele>56</ele>
        <time>2015-12-05T12:48:28Z</time>
      </trkpt>
      <trkpt lat="47.35762" lon="-1.93948">
        <ele>57</ele>
        <time>2015-12-05T12:48:29Z</time>
      </trkpt>
      <trkpt lat="47.35764" lon="-1.93945">
        <ele>57</ele>
        <time>2015-12-05T12:48:30Z</time>
      </trkpt>
      <trkpt lat="47.35769" lon="-1.93946">
        <ele>57</ele>
        <time>2015-12-05T12:48:31Z</time>
      </trkpt>
      <trkpt lat="47.35773" lon="-1.93945">
        <ele>57</ele>
        <time>2015-12-05T12:48:32Z</time>
      </trkpt>
      <trkpt lat="47.35776" lon="-1.93945">
        <ele>57</ele>
        <time>2015-12-05T12:48:33Z</time>
      </trkpt>
      <trkpt lat="47.35779" lon="-1.93944">
        <ele>57</ele>
        <time>2015-12-05T12:48:34Z</time>
      </trkpt>
      <trkpt lat="47.35783" lon="-1.93942">
        <ele>57</ele>
        <time>2015-12-05T12:48:35Z</time>
      </trkpt>
      <trkpt lat="47.35786" lon="-1.93941">
        <ele>57</ele>
        <time>2015-12-05T12:48:36Z</time>
      </trkpt>
      <trkpt lat="47.35789" lon="-1.93939">
        <ele>57</ele>
        <time>2015-12-05T12:48:37Z</time>
      </trkpt>
      <trkpt lat="47.35792" lon="-1.93938">
        <ele>57</ele>
        <time>2015-12-05T12:48:38Z</time>
      </trkpt>
      <trkpt lat="47.35795" lon="-1.93937">
        <ele>57</ele>
        <time>2015-12-05T12:48:39Z</time>
      </trkpt>
      <trkpt lat="47.35799" lon="-1.93936">
        <ele>57</ele>
        <time>2015-12-05T12:48:40Z</time>
      </trkpt>
      <trkpt lat="47.35801" lon="-1.93935">
        <ele>57</ele>
        <time>2015-12-05T12:48:41Z</time>
      </trkpt>
      <trkpt lat="47.35804" lon="-1.93934">
        <ele>57</ele>
        <time>2015-12-05T12:48:42Z</time>
      </trkpt>
      <trkpt lat="47.35808" lon="-1.93933">
        <ele>57</ele>
        <time>2015-12-05T12:48:43Z</time>
      </trkpt>
      <trkpt lat="47.35811" lon="-1.93931">
        <ele>58</ele>
        <time>2015-12-05T12:48:44Z</time>
      </trkpt>
      <trkpt lat="47.35814" lon="-1.9393">
        <ele>58</ele>
        <time>2015-12-05T12:48:45Z</time>
      </trkpt>
      <trkpt lat="47.35817" lon="-1.93928">
        <ele>58</ele>
        <time>2015-12-05T12:48:46Z</time>
      </trkpt>
      <trkpt lat="47.35819" lon="-1.93927">
        <ele>58</ele>
        <time>2015-12-05T12:48:47Z</time>
      </trkpt>
      <trkpt lat="47.35823" lon="-1.93925">
        <ele>58</ele>
        <time>2015-12-05T12:48:48Z</time>
      </trkpt>
      <trkpt lat="47.35826" lon="-1.93924">
        <ele>58</ele>
        <time>2015-12-05T12:48:49Z</time>
      </trkpt>
      <trkpt lat="47.35828" lon="-1.93922">
        <ele>58</ele>
        <time>2015-12-05T12:48:50Z</time>
      </trkpt>
      <trkpt lat="47.35831" lon="-1.93921">
        <ele>59</ele>
        <time>2015-12-05T12:48:51Z</time>
      </trkpt>
      <trkpt lat="47.35834" lon="-1.93919">
        <ele>59</ele>
        <time>2015-12-05T12:48:52Z</time>
      </trkpt>
      <trkpt lat="47.35837" lon="-1.93918">
        <ele>59</ele>
        <time>2015-12-05T12:48:53Z</time>
      </trkpt>
      <trkpt lat="47.3584" lon="-1.93916">
        <ele>59</ele>
        <time>2015-12-05T12:48:54Z</time>
      </trkpt>
      <trkpt lat="47.35843" lon="-1.93915">
        <ele>59</ele>
        <time>2015-12-05T12:48:55Z</time>
      </trkpt>
      <trkpt lat="47.35845" lon="-1.93913">
        <ele>59</ele>
        <time>2015-12-05T12:48:56Z</time>
      </trkpt>
      <trkpt lat="47.35843" lon="-1.9391">
        <ele>59</ele>
        <time>2015-12-05T12:49:00Z</time>
      </trkpt>
      <trkpt lat="47.35843" lon="-1.93906">
        <ele>59</ele>
        <time>2015-12-05T12:49:05Z</time>
      </trkpt>
      <trkpt lat="47.35843" lon="-1.939">
        <ele>59</ele>
        <time>2015-12-05T12:49:07Z</time>
      </trkpt>
      <trkpt lat="47.35842" lon="-1.93893">
        <ele>59</ele>
        <time>2015-12-05T12:49:09Z</time>
      </trkpt>
      <trkpt lat="47.3584" lon="-1.93884">
        <ele>59</ele>
        <time>2015-12-05T12:49:11Z</time>
      </trkpt>
      <trkpt lat="47.35839" lon="-1.9388">
        <ele>59</ele>
        <time>2015-12-05T12:49:12Z</time>
      </trkpt>
      <trkpt lat="47.35838" lon="-1.93875">
        <ele>59</ele>
        <time>2015-12-05T12:49:13Z</time>
      </trkpt>
      <trkpt lat="47.35836" lon="-1.93871">
        <ele>59</ele>
        <time>2015-12-05T12:49:14Z</time>
      </trkpt>
      <trkpt lat="47.35835" lon="-1.93868">
        <ele>59</ele>
        <time>2015-12-05T12:49:15Z</time>
      </trkpt>
      <trkpt lat="47.35834" lon="-1.93862">
        <ele>59</ele>
        <time>2015-12-05T12:49:16Z</time>
      </trkpt>
      <trkpt lat="47.35834" lon="-1.93857">
        <ele>59</ele>
        <time>2015-12-05T12:49:17Z</time>
      </trkpt>
      <trkpt lat="47.35833" lon="-1.93852">
        <ele>59</ele>
        <time>2015-12-05T12:49:18Z</time>
      </trkpt>
      <trkpt lat="47.35832" lon="-1.93847">
        <ele>59</ele>
        <time>2015-12-05T12:49:19Z</time>
      </trkpt>
      <trkpt lat="47.35831" lon="-1.93842">
        <ele>59</ele>
        <time>2015-12-05T12:49:20Z</time>
      </trkpt>
      <trkpt lat="47.35831" lon="-1.93837">
        <ele>59</ele>
        <time>2015-12-05T12:49:21Z</time>
      </trkpt>
      <trkpt lat="47.3583" lon="-1.93833">
        <ele>59</ele>
        <time>2015-12-05T12:49:22Z</time>
      </trkpt>
      <trkpt lat="47.35829" lon="-1.93827">
        <ele>59</ele>
        <time>2015-12-05T12:49:23Z</time>
      </trkpt>
      <trkpt lat="47.35828" lon="-1.93822">
        <ele>59</ele>
        <time>2015-12-05T12:49:24Z</time>
      </trkpt>
      <trkpt lat="47.35828" lon="-1.93817">
        <ele>59</ele>
        <time>2015-12-05T12:49:25Z</time>
      </trkpt>
      <trkpt lat="47.35827" lon="-1.93813">
        <ele>59</ele>
        <time>2015-12-05T12:49:26Z</time>
      </trkpt>
      <trkpt lat="47.35826" lon="-1.93806">
        <ele>59</ele>
        <time>2015-12-05T12:49:27Z</time>
      </trkpt>
      <trkpt lat="47.35825" lon="-1.93801">
        <ele>59</ele>
        <time>2015-12-05T12:49:28Z</time>
      </trkpt>
      <trkpt lat="47.35824" lon="-1.93796">
        <ele>59</ele>
        <time>2015-12-05T12:49:29Z</time>
      </trkpt>
      <trkpt lat="47.35823" lon="-1.93791">
        <ele>59</ele>
        <time>2015-12-05T12:49:30Z</time>
      </trkpt>
      <trkpt lat="47.35822" lon="-1.93785">
        <ele>59</ele>
        <time>2015-12-05T12:49:31Z</time>
      </trkpt>
      <trkpt lat="47.35821" lon="-1.93781">
        <ele>59</ele>
        <time>2015-12-05T12:49:32Z</time>
      </trkpt>
      <trkpt lat="47.3582" lon="-1.93776">
        <ele>59</ele>
        <time>2015-12-05T12:49:33Z</time>
      </trkpt>
      <trkpt lat="47.35819" lon="-1.9377">
        <ele>59</ele>
        <time>2015-12-05T12:49:34Z</time>
      </trkpt>
      <trkpt lat="47.35818" lon="-1.93765">
        <ele>59</ele>
        <time>2015-12-05T12:49:35Z</time>
      </trkpt>
      <trkpt lat="47.35817" lon="-1.9376">
        <ele>59</ele>
        <time>2015-12-05T12:49:36Z</time>
      </trkpt>
      <trkpt lat="47.35816" lon="-1.93755">
        <ele>59</ele>
        <time>2015-12-05T12:49:37Z</time>
      </trkpt>
      <trkpt lat="47.35815" lon="-1.93749">
        <ele>60</ele>
        <time>2015-12-05T12:49:38Z</time>
      </trkpt>
      <trkpt lat="47.35814" lon="-1.93744">
        <ele>60</ele>
        <time>2015-12-05T12:49:39Z</time>
      </trkpt>
      <trkpt lat="47.35814" lon="-1.93739">
        <ele>60</ele>
        <time>2015-12-05T12:49:40Z</time>
      </trkpt>
      <trkpt lat="47.35813" lon="-1.93734">
        <ele>60</ele>
        <time>2015-12-05T12:49:41Z</time>
      </trkpt>
      <trkpt lat="47.35812" lon="-1.93729">
        <ele>60</ele>
        <time>2015-12-05T12:49:42Z</time>
      </trkpt>
      <trkpt lat="47.35812" lon="-1.93724">
        <ele>60</ele>
        <time>2015-12-05T12:49:43Z</time>
      </trkpt>
      <trkpt lat="47.35811" lon="-1.93719">
        <ele>60</ele>
        <time>2015-12-05T12:49:44Z</time>
      </trkpt>
      <trkpt lat="47.35811" lon="-1.93714">
        <ele>60</ele>
        <time>2015-12-05T12:49:45Z</time>
      </trkpt>
      <trkpt lat="47.3581" lon="-1.9371">
        <ele>60</ele>
        <time>2015-12-05T12:49:46Z</time>
      </trkpt>
      <trkpt lat="47.3581" lon="-1.93705">
        <ele>59</ele>
        <time>2015-12-05T12:49:47Z</time>
      </trkpt>
      <trkpt lat="47.3581" lon="-1.937">
        <ele>59</ele>
        <time>2015-12-05T12:49:48Z</time>
      </trkpt>
      <trkpt lat="47.35815" lon="-1.93702">
        <ele>59</ele>
        <time>2015-12-05T12:49:49Z</time>
      </trkpt>
      <trkpt lat="47.35818" lon="-1.93706">
        <ele>59</ele>
        <time>2015-12-05T12:49:51Z</time>
      </trkpt>
      <trkpt lat="47.35821" lon="-1.93707">
        <ele>59</ele>
        <time>2015-12-05T12:49:53Z</time>
      </trkpt>
      <trkpt lat="47.35823" lon="-1.93705">
        <ele>59</ele>
        <time>2015-12-05T12:50:05Z</time>
      </trkpt>
      <trkpt lat="47.35821" lon="-1.93701">
        <ele>59</ele>
        <time>2015-12-05T12:50:13Z</time>
      </trkpt>
      <trkpt lat="47.35819" lon="-1.93703">
        <ele>59</ele>
        <time>2015-12-05T12:50:18Z</time>
      </trkpt>
      <trkpt lat="47.35821" lon="-1.93704">
        <ele>59</ele>
        <time>2015-12-05T12:50:27Z</time>
      </trkpt>
      <trkpt lat="47.35824" lon="-1.937">
        <ele>59</ele>
        <time>2015-12-05T12:52:25Z</time>
      </trkpt>
      <trkpt lat="47.35822" lon="-1.93703">
        <ele>59</ele>
        <time>2015-12-05T12:52:31Z</time>
      </trkpt>
      <trkpt lat="47.35819" lon="-1.93704">
        <ele>59</ele>
        <time>2015-12-05T12:52:35Z</time>
      </trkpt>
      <trkpt lat="47.35821" lon="-1.93707">
        <ele>59</ele>
        <time>2015-12-05T12:52:42Z</time>
      </trkpt>
      <trkpt lat="47.35816" lon="-1.93709">
        <ele>60</ele>
        <time>2015-12-05T12:54:53Z</time>
      </trkpt>
      <trkpt lat="47.35813" lon="-1.93707">
        <ele>59</ele>
        <time>2015-12-05T12:54:59Z</time>
      </trkpt>
      <trkpt lat="47.35809" lon="-1.93695">
        <ele>59</ele>
        <time>2015-12-05T12:55:25Z</time>
      </trkpt>
      <trkpt lat="47.35808" lon="-1.93688">
        <ele>59</ele>
        <time>2015-12-05T12:55:27Z</time>
      </trkpt>
      <trkpt lat="47.35808" lon="-1.9368">
        <ele>59</ele>
        <time>2015-12-05T12:55:28Z</time>
      </trkpt>
      <trkpt lat="47.35809" lon="-1.93675">
        <ele>59</ele>
        <time>2015-12-05T12:55:29Z</time>
      </trkpt>
      <trkpt lat="47.35812" lon="-1.93671">
        <ele>59</ele>
        <time>2015-12-05T12:55:30Z</time>
      </trkpt>
      <trkpt lat="47.35813" lon="-1.93667">
        <ele>59</ele>
        <time>2015-12-05T12:55:31Z</time>
      </trkpt>
      <trkpt lat="47.35823" lon="-1.93662">
        <ele>59</ele>
        <time>2015-12-05T12:55:32Z</time>
      </trkpt>
      <trkpt lat="47.35829" lon="-1.9366">
        <ele>59</ele>
        <time>2015-12-05T12:55:33Z</time>
      </trkpt>
      <trkpt lat="47.35833" lon="-1.93658">
        <ele>59</ele>
        <time>2015-12-05T12:55:34Z</time>
      </trkpt>
      <trkpt lat="47.35842" lon="-1.93659">
        <ele>58</ele>
        <time>2015-12-05T12:55:35Z</time>
      </trkpt>
      <trkpt lat="47.35848" lon="-1.93658">
        <ele>58</ele>
        <time>2015-12-05T12:55:36Z</time>
      </trkpt>
      <trkpt lat="47.35853" lon="-1.93657">
        <ele>58</ele>
        <time>2015-12-05T12:55:37Z</time>
      </trkpt>
      <trkpt lat="47.35859" lon="-1.93653">
        <ele>57</ele>
        <time>2015-12-05T12:55:38Z</time>
      </trkpt>
      <trkpt lat="47.35866" lon="-1.93651">
        <ele>57</ele>
        <time>2015-12-05T12:55:39Z</time>
      </trkpt>
      <trkpt lat="47.35877" lon="-1.93649">
        <ele>57</ele>
        <time>2015-12-05T12:55:41Z</time>
      </trkpt>
      <trkpt lat="47.35883" lon="-1.93648">
        <ele>57</ele>
        <time>2015-12-05T12:55:42Z</time>
      </trkpt>
      <trkpt lat="47.35889" lon="-1.93647">
        <ele>56</ele>
        <time>2015-12-05T12:55:43Z</time>
      </trkpt>
      <trkpt lat="47.35896" lon="-1.93655">
        <ele>56</ele>
        <time>2015-12-05T12:55:44Z</time>
      </trkpt>
      <trkpt lat="47.35901" lon="-1.93657">
        <ele>56</ele>
        <time>2015-12-05T12:55:45Z</time>
      </trkpt>
      <trkpt lat="47.35906" lon="-1.93656">
        <ele>56</ele>
        <time>2015-12-05T12:55:46Z</time>
      </trkpt>
      <trkpt lat="47.3591" lon="-1.93654">
        <ele>56</ele>
        <time>2015-12-05T12:55:47Z</time>
      </trkpt>
      <trkpt lat="47.35916" lon="-1.93653">
        <ele>56</ele>
        <time>2015-12-05T12:55:48Z</time>
      </trkpt>
      <trkpt lat="47.35922" lon="-1.93651">
        <ele>55</ele>
        <time>2015-12-05T12:55:49Z</time>
      </trkpt>
      <trkpt lat="47.35928" lon="-1.93651">
        <ele>55</ele>
        <time>2015-12-05T12:55:50Z</time>
      </trkpt>
      <trkpt lat="47.35934" lon="-1.93649">
        <ele>54</ele>
        <time>2015-12-05T12:55:51Z</time>
      </trkpt>
      <trkpt lat="47.3594" lon="-1.93647">
        <ele>54</ele>
        <time>2015-12-05T12:55:52Z</time>
      </trkpt>
      <trkpt lat="47.35946" lon="-1.93646">
        <ele>54</ele>
        <time>2015-12-05T12:55:53Z</time>
      </trkpt>
      <trkpt lat="47.35952" lon="-1.93645">
        <ele>54</ele>
        <time>2015-12-05T12:55:54Z</time>
      </trkpt>
      <trkpt lat="47.35958" lon="-1.93643">
        <ele>54</ele>
        <time>2015-12-05T12:55:55Z</time>
      </trkpt>
      <trkpt lat="47.35964" lon="-1.93643">
        <ele>54</ele>
        <time>2015-12-05T12:55:56Z</time>
      </trkpt>
      <trkpt lat="47.35971" lon="-1.93642">
        <ele>54</ele>
        <time>2015-12-05T12:55:57Z</time>
      </trkpt>
      <trkpt lat="47.35977" lon="-1.93642">
        <ele>54</ele>
        <time>2015-12-05T12:55:58Z</time>
      </trkpt>
      <trkpt lat="47.35983" lon="-1.9364">
        <ele>54</ele>
        <time>2015-12-05T12:55:59Z</time>
      </trkpt>
      <trkpt lat="47.35989" lon="-1.93638">
        <ele>54</ele>
        <time>2015-12-05T12:56:00Z</time>
      </trkpt>
      <trkpt lat="47.35992" lon="-1.93639">
        <ele>54</ele>
        <time>2015-12-05T12:56:01Z</time>
      </trkpt>
      <trkpt lat="47.35996" lon="-1.93639">
        <ele>54</ele>
        <time>2015-12-05T12:56:02Z</time>
      </trkpt>
      <trkpt lat="47.35996" lon="-1.93631">
        <ele>54</ele>
        <time>2015-12-05T12:56:03Z</time>
      </trkpt>
      <trkpt lat="47.35999" lon="-1.93625">
        <ele>54</ele>
        <time>2015-12-05T12:56:04Z</time>
      </trkpt>
      <trkpt lat="47.36001" lon="-1.93619">
        <ele>54</ele>
        <time>2015-12-05T12:56:05Z</time>
      </trkpt>
      <trkpt lat="47.36003" lon="-1.93614">
        <ele>54</ele>
        <time>2015-12-05T12:56:06Z</time>
      </trkpt>
      <trkpt lat="47.36001" lon="-1.93605">
        <ele>53</ele>
        <time>2015-12-05T12:56:07Z</time>
      </trkpt>
      <trkpt lat="47.36003" lon="-1.93597">
        <ele>53</ele>
        <time>2015-12-05T12:56:08Z</time>
      </trkpt>
      <trkpt lat="47.36003" lon="-1.93589">
        <ele>53</ele>
        <time>2015-12-05T12:56:09Z</time>
      </trkpt>
      <trkpt lat="47.36003" lon="-1.93581">
        <ele>52</ele>
        <time>2015-12-05T12:56:10Z</time>
      </trkpt>
      <trkpt lat="47.36003" lon="-1.93573">
        <ele>52</ele>
        <time>2015-12-05T12:56:11Z</time>
      </trkpt>
      <trkpt lat="47.36003" lon="-1.93566">
        <ele>53</ele>
        <time>2015-12-05T12:56:12Z</time>
      </trkpt>
      <trkpt lat="47.36003" lon="-1.9356">
        <ele>53</ele>
        <time>2015-12-05T12:56:13Z</time>
      </trkpt>
      <trkpt lat="47.36003" lon="-1.93554">
        <ele>53</ele>
        <time>2015-12-05T12:56:14Z</time>
      </trkpt>
      <trkpt lat="47.36001" lon="-1.93542">
        <ele>53</ele>
        <time>2015-12-05T12:56:15Z</time>
      </trkpt>
      <trkpt lat="47.36002" lon="-1.9353">
        <ele>53</ele>
        <time>2015-12-05T12:56:16Z</time>
      </trkpt>
      <trkpt lat="47.36003" lon="-1.93523">
        <ele>53</ele>
        <time>2015-12-05T12:56:17Z</time>
      </trkpt>
      <trkpt lat="47.36003" lon="-1.93517">
        <ele>53</ele>
        <time>2015-12-05T12:56:18Z</time>
      </trkpt>
      <trkpt lat="47.36003" lon="-1.93509">
        <ele>52</ele>
        <time>2015-12-05T12:56:19Z</time>
      </trkpt>
      <trkpt lat="47.36009" lon="-1.93513">
        <ele>53</ele>
        <time>2015-12-05T12:56:20Z</time>
      </trkpt>
      <trkpt lat="47.36014" lon="-1.9351">
        <ele>53</ele>
        <time>2015-12-05T12:56:21Z</time>
      </trkpt>
      <trkpt lat="47.36018" lon="-1.93508">
        <ele>53</ele>
        <time>2015-12-05T12:56:22Z</time>
      </trkpt>
      <trkpt lat="47.36022" lon="-1.93507">
        <ele>53</ele>
        <time>2015-12-05T12:56:23Z</time>
      </trkpt>
      <trkpt lat="47.36025" lon="-1.93505">
        <ele>53</ele>
        <time>2015-12-05T12:56:24Z</time>
      </trkpt>
      <trkpt lat="47.36029" lon="-1.93505">
        <ele>53</ele>
        <time>2015-12-05T12:56:25Z</time>
      </trkpt>
      <trkpt lat="47.36033" lon="-1.93502">
        <ele>53</ele>
        <time>2015-12-05T12:56:26Z</time>
      </trkpt>
      <trkpt lat="47.36038" lon="-1.93501">
        <ele>53</ele>
        <time>2015-12-05T12:56:27Z</time>
      </trkpt>
      <trkpt lat="47.36043" lon="-1.93502">
        <ele>54</ele>
        <time>2015-12-05T12:56:28Z</time>
      </trkpt>
      <trkpt lat="47.36046" lon="-1.93501">
        <ele>54</ele>
        <time>2015-12-05T12:56:29Z</time>
      </trkpt>
      <trkpt lat="47.3605" lon="-1.935">
        <ele>54</ele>
        <time>2015-12-05T12:56:30Z</time>
      </trkpt>
      <trkpt lat="47.36054" lon="-1.935">
        <ele>54</ele>
        <time>2015-12-05T12:56:31Z</time>
      </trkpt>
      <trkpt lat="47.36058" lon="-1.93498">
        <ele>54</ele>
        <time>2015-12-05T12:56:32Z</time>
      </trkpt>
      <trkpt lat="47.36062" lon="-1.93498">
        <ele>54</ele>
        <time>2015-12-05T12:56:33Z</time>
      </trkpt>
      <trkpt lat="47.36066" lon="-1.93497">
        <ele>54</ele>
        <time>2015-12-05T12:56:34Z</time>
      </trkpt>
      <trkpt lat="47.3607" lon="-1.93495">
        <ele>54</ele>
        <time>2015-12-05T12:56:35Z</time>
      </trkpt>
      <trkpt lat="47.36073" lon="-1.93494">
        <ele>54</ele>
        <time>2015-12-05T12:56:36Z</time>
      </trkpt>
      <trkpt lat="47.36081" lon="-1.93491">
        <ele>54</ele>
        <time>2015-12-05T12:56:38Z</time>
      </trkpt>
      <trkpt lat="47.36085" lon="-1.9349">
        <ele>55</ele>
        <time>2015-12-05T12:56:39Z</time>
      </trkpt>
      <trkpt lat="47.36088" lon="-1.93489">
        <ele>55</ele>
        <time>2015-12-05T12:56:40Z</time>
      </trkpt>
      <trkpt lat="47.36092" lon="-1.93488">
        <ele>55</ele>
        <time>2015-12-05T12:56:41Z</time>
      </trkpt>
      <trkpt lat="47.36096" lon="-1.93487">
        <ele>55</ele>
        <time>2015-12-05T12:56:42Z</time>
      </trkpt>
      <trkpt lat="47.36099" lon="-1.93487">
        <ele>55</ele>
        <time>2015-12-05T12:56:43Z</time>
      </trkpt>
      <trkpt lat="47.36103" lon="-1.93486">
        <ele>55</ele>
        <time>2015-12-05T12:56:44Z</time>
      </trkpt>
      <trkpt lat="47.36106" lon="-1.93485">
        <ele>55</ele>
        <time>2015-12-05T12:56:45Z</time>
      </trkpt>
      <trkpt lat="47.3611" lon="-1.93487">
        <ele>55</ele>
        <time>2015-12-05T12:56:46Z</time>
      </trkpt>
      <trkpt lat="47.36113" lon="-1.93487">
        <ele>55</ele>
        <time>2015-12-05T12:56:47Z</time>
      </trkpt>
      <trkpt lat="47.36116" lon="-1.93487">
        <ele>56</ele>
        <time>2015-12-05T12:56:48Z</time>
      </trkpt>
      <trkpt lat="47.36121" lon="-1.93489">
        <ele>56</ele>
        <time>2015-12-05T12:56:49Z</time>
      </trkpt>
      <trkpt lat="47.36125" lon="-1.93489">
        <ele>56</ele>
        <time>2015-12-05T12:56:50Z</time>
      </trkpt>
      <trkpt lat="47.36129" lon="-1.93488">
        <ele>56</ele>
        <time>2015-12-05T12:56:51Z</time>
      </trkpt>
      <trkpt lat="47.36133" lon="-1.93487">
        <ele>56</ele>
        <time>2015-12-05T12:56:52Z</time>
      </trkpt>
      <trkpt lat="47.36136" lon="-1.93479">
        <ele>56</ele>
        <time>2015-12-05T12:56:53Z</time>
      </trkpt>
      <trkpt lat="47.36137" lon="-1.93473">
        <ele>56</ele>
        <time>2015-12-05T12:56:54Z</time>
      </trkpt>
      <trkpt lat="47.36138" lon="-1.93465">
        <ele>56</ele>
        <time>2015-12-05T12:56:55Z</time>
      </trkpt>
      <trkpt lat="47.3614" lon="-1.93459">
        <ele>56</ele>
        <time>2015-12-05T12:56:56Z</time>
      </trkpt>
      <trkpt lat="47.36141" lon="-1.93454">
        <ele>56</ele>
        <time>2015-12-05T12:56:57Z</time>
      </trkpt>
      <trkpt lat="47.36145" lon="-1.9345">
        <ele>56</ele>
        <time>2015-12-05T12:56:58Z</time>
      </trkpt>
      <trkpt lat="47.36149" lon="-1.93448">
        <ele>56</ele>
        <time>2015-12-05T12:56:59Z</time>
      </trkpt>
      <trkpt lat="47.36152" lon="-1.93445">
        <ele>56</ele>
        <time>2015-12-05T12:57:00Z</time>
      </trkpt>
      <trkpt lat="47.36155" lon="-1.9344">
        <ele>56</ele>
        <time>2015-12-05T12:57:01Z</time>
      </trkpt>
      <trkpt lat="47.36157" lon="-1.93436">
        <ele>56</ele>
        <time>2015-12-05T12:57:02Z</time>
      </trkpt>
      <trkpt lat="47.36159" lon="-1.93431">
        <ele>56</ele>
        <time>2015-12-05T12:57:03Z</time>
      </trkpt>
      <trkpt lat="47.36161" lon="-1.93426">
        <ele>56</ele>
        <time>2015-12-05T12:57:04Z</time>
      </trkpt>
      <trkpt lat="47.36163" lon="-1.9342">
        <ele>56</ele>
        <time>2015-12-05T12:57:05Z</time>
      </trkpt>
      <trkpt lat="47.36164" lon="-1.93412">
        <ele>56</ele>
        <time>2015-12-05T12:57:06Z</time>
      </trkpt>
      <trkpt lat="47.36166" lon="-1.93405">
        <ele>55</ele>
        <time>2015-12-05T12:57:07Z</time>
      </trkpt>
      <trkpt lat="47.36168" lon="-1.93398">
        <ele>57</ele>
        <time>2015-12-05T12:57:08Z</time>
      </trkpt>
      <trkpt lat="47.36169" lon="-1.93391">
        <ele>57</ele>
        <time>2015-12-05T12:57:09Z</time>
      </trkpt>
      <trkpt lat="47.36171" lon="-1.93385">
        <ele>57</ele>
        <time>2015-12-05T12:57:10Z</time>
      </trkpt>
      <trkpt lat="47.36173" lon="-1.93377">
        <ele>57</ele>
        <time>2015-12-05T12:57:11Z</time>
      </trkpt>
      <trkpt lat="47.36175" lon="-1.93369">
        <ele>57</ele>
        <time>2015-12-05T12:57:12Z</time>
      </trkpt>
      <trkpt lat="47.36177" lon="-1.93362">
        <ele>56</ele>
        <time>2015-12-05T12:57:13Z</time>
      </trkpt>
      <trkpt lat="47.36179" lon="-1.93354">
        <ele>56</ele>
        <time>2015-12-05T12:57:14Z</time>
      </trkpt>
      <trkpt lat="47.3618" lon="-1.93348">
        <ele>56</ele>
        <time>2015-12-05T12:57:15Z</time>
      </trkpt>
      <trkpt lat="47.36181" lon="-1.93339">
        <ele>56</ele>
        <time>2015-12-05T12:57:16Z</time>
      </trkpt>
      <trkpt lat="47.36183" lon="-1.93329">
        <ele>55</ele>
        <time>2015-12-05T12:57:17Z</time>
      </trkpt>
      <trkpt lat="47.36186" lon="-1.9332">
        <ele>55</ele>
        <time>2015-12-05T12:57:18Z</time>
      </trkpt>
      <trkpt lat="47.36187" lon="-1.93311">
        <ele>56</ele>
        <time>2015-12-05T12:57:19Z</time>
      </trkpt>
      <trkpt lat="47.36182" lon="-1.93308">
        <ele>55</ele>
        <time>2015-12-05T12:57:20Z</time>
      </trkpt>
      <trkpt lat="47.36184" lon="-1.93298">
        <ele>56</ele>
        <time>2015-12-05T12:57:21Z</time>
      </trkpt>
      <trkpt lat="47.36185" lon="-1.9329">
        <ele>56</ele>
        <time>2015-12-05T12:57:22Z</time>
      </trkpt>
      <trkpt lat="47.36186" lon="-1.93282">
        <ele>55</ele>
        <time>2015-12-05T12:57:23Z</time>
      </trkpt>
      <trkpt lat="47.36186" lon="-1.93277">
        <ele>55</ele>
        <time>2015-12-05T12:57:24Z</time>
      </trkpt>
      <trkpt lat="47.36187" lon="-1.93269">
        <ele>55</ele>
        <time>2015-12-05T12:57:25Z</time>
      </trkpt>
      <trkpt lat="47.36188" lon="-1.93261">
        <ele>55</ele>
        <time>2015-12-05T12:57:26Z</time>
      </trkpt>
      <trkpt lat="47.36193" lon="-1.93252">
        <ele>55</ele>
        <time>2015-12-05T12:57:27Z</time>
      </trkpt>
      <trkpt lat="47.36197" lon="-1.93242">
        <ele>55</ele>
        <time>2015-12-05T12:57:28Z</time>
      </trkpt>
      <trkpt lat="47.36199" lon="-1.93233">
        <ele>55</ele>
        <time>2015-12-05T12:57:29Z</time>
      </trkpt>
      <trkpt lat="47.36201" lon="-1.93223">
        <ele>55</ele>
        <time>2015-12-05T12:57:30Z</time>
      </trkpt>
      <trkpt lat="47.36203" lon="-1.93212">
        <ele>55</ele>
        <time>2015-12-05T12:57:31Z</time>
      </trkpt>
      <trkpt lat="47.36206" lon="-1.932">
        <ele>55</ele>
        <time>2015-12-05T12:57:32Z</time>
      </trkpt>
      <trkpt lat="47.36207" lon="-1.93191">
        <ele>55</ele>
        <time>2015-12-05T12:57:33Z</time>
      </trkpt>
      <trkpt lat="47.36207" lon="-1.93181">
        <ele>55</ele>
        <time>2015-12-05T12:57:34Z</time>
      </trkpt>
      <trkpt lat="47.36207" lon="-1.9317">
        <ele>55</ele>
        <time>2015-12-05T12:57:35Z</time>
      </trkpt>
      <trkpt lat="47.36203" lon="-1.93167">
        <ele>55</ele>
        <time>2015-12-05T12:57:36Z</time>
      </trkpt>
      <trkpt lat="47.362" lon="-1.93155">
        <ele>56</ele>
        <time>2015-12-05T12:57:37Z</time>
      </trkpt>
      <trkpt lat="47.36197" lon="-1.93147">
        <ele>56</ele>
        <time>2015-12-05T12:57:38Z</time>
      </trkpt>
      <trkpt lat="47.36196" lon="-1.93139">
        <ele>56</ele>
        <time>2015-12-05T12:57:39Z</time>
      </trkpt>
      <trkpt lat="47.36196" lon="-1.93114">
        <ele>56</ele>
        <time>2015-12-05T12:57:42Z</time>
      </trkpt>
      <trkpt lat="47.36194" lon="-1.93105">
        <ele>56</ele>
        <time>2015-12-05T12:57:43Z</time>
      </trkpt>
      <trkpt lat="47.36194" lon="-1.93097">
        <ele>56</ele>
        <time>2015-12-05T12:57:44Z</time>
      </trkpt>
      <trkpt lat="47.36193" lon="-1.93091">
        <ele>56</ele>
        <time>2015-12-05T12:57:45Z</time>
      </trkpt>
      <trkpt lat="47.36191" lon="-1.93086">
        <ele>56</ele>
        <time>2015-12-05T12:57:46Z</time>
      </trkpt>
      <trkpt lat="47.36188" lon="-1.93082">
        <ele>57</ele>
        <time>2015-12-05T12:57:47Z</time>
      </trkpt>
      <trkpt lat="47.36187" lon="-1.93076">
        <ele>57</ele>
        <time>2015-12-05T12:57:48Z</time>
      </trkpt>
      <trkpt lat="47.36186" lon="-1.93069">
        <ele>57</ele>
        <time>2015-12-05T12:57:49Z</time>
      </trkpt>
      <trkpt lat="47.36188" lon="-1.93064">
        <ele>57</ele>
        <time>2015-12-05T12:57:50Z</time>
      </trkpt>
      <trkpt lat="47.36188" lon="-1.93056">
        <ele>58</ele>
        <time>2015-12-05T12:57:51Z</time>
      </trkpt>
      <trkpt lat="47.36187" lon="-1.93048">
        <ele>58</ele>
        <time>2015-12-05T12:57:52Z</time>
      </trkpt>
      <trkpt lat="47.36188" lon="-1.93041">
        <ele>58</ele>
        <time>2015-12-05T12:57:53Z</time>
      </trkpt>
      <trkpt lat="47.36187" lon="-1.93033">
        <ele>58</ele>
        <time>2015-12-05T12:57:54Z</time>
      </trkpt>
      <trkpt lat="47.36186" lon="-1.93025">
        <ele>58</ele>
        <time>2015-12-05T12:57:55Z</time>
      </trkpt>
      <trkpt lat="47.36185" lon="-1.93017">
        <ele>58</ele>
        <time>2015-12-05T12:57:56Z</time>
      </trkpt>
      <trkpt lat="47.36183" lon="-1.93008">
        <ele>58</ele>
        <time>2015-12-05T12:57:57Z</time>
      </trkpt>
      <trkpt lat="47.36183" lon="-1.93001">
        <ele>58</ele>
        <time>2015-12-05T12:57:58Z</time>
      </trkpt>
      <trkpt lat="47.36182" lon="-1.92993">
        <ele>59</ele>
        <time>2015-12-05T12:57:59Z</time>
      </trkpt>
      <trkpt lat="47.36183" lon="-1.92985">
        <ele>59</ele>
        <time>2015-12-05T12:58:00Z</time>
      </trkpt>
      <trkpt lat="47.36182" lon="-1.92979">
        <ele>59</ele>
        <time>2015-12-05T12:58:01Z</time>
      </trkpt>
      <trkpt lat="47.36181" lon="-1.92971">
        <ele>59</ele>
        <time>2015-12-05T12:58:02Z</time>
      </trkpt>
      <trkpt lat="47.3618" lon="-1.92964">
        <ele>59</ele>
        <time>2015-12-05T12:58:03Z</time>
      </trkpt>
      <trkpt lat="47.3618" lon="-1.92955">
        <ele>59</ele>
        <time>2015-12-05T12:58:05Z</time>
      </trkpt>
      <trkpt lat="47.36178" lon="-1.92952">
        <ele>59</ele>
        <time>2015-12-05T12:58:06Z</time>
      </trkpt>
      <trkpt lat="47.36177" lon="-1.92944">
        <ele>59</ele>
        <time>2015-12-05T12:58:07Z</time>
      </trkpt>
      <trkpt lat="47.36176" lon="-1.92938">
        <ele>59</ele>
        <time>2015-12-05T12:58:08Z</time>
      </trkpt>
      <trkpt lat="47.36175" lon="-1.92933">
        <ele>59</ele>
        <time>2015-12-05T12:58:09Z</time>
      </trkpt>
      <trkpt lat="47.36179" lon="-1.92929">
        <ele>59</ele>
        <time>2015-12-05T12:58:10Z</time>
      </trkpt>
      <trkpt lat="47.36181" lon="-1.92914">
        <ele>60</ele>
        <time>2015-12-05T12:58:11Z</time>
      </trkpt>
      <trkpt lat="47.36184" lon="-1.92904">
        <ele>60</ele>
        <time>2015-12-05T12:58:12Z</time>
      </trkpt>
      <trkpt lat="47.36184" lon="-1.92895">
        <ele>60</ele>
        <time>2015-12-05T12:58:13Z</time>
      </trkpt>
      <trkpt lat="47.36184" lon="-1.92885">
        <ele>60</ele>
        <time>2015-12-05T12:58:14Z</time>
      </trkpt>
      <trkpt lat="47.36184" lon="-1.92878">
        <ele>60</ele>
        <time>2015-12-05T12:58:15Z</time>
      </trkpt>
      <trkpt lat="47.36184" lon="-1.92872">
        <ele>61</ele>
        <time>2015-12-05T12:58:16Z</time>
      </trkpt>
      <trkpt lat="47.36183" lon="-1.92868">
        <ele>61</ele>
        <time>2015-12-05T12:58:17Z</time>
      </trkpt>
      <trkpt lat="47.36182" lon="-1.92858">
        <ele>60</ele>
        <time>2015-12-05T12:58:18Z</time>
      </trkpt>
      <trkpt lat="47.3618" lon="-1.9285">
        <ele>60</ele>
        <time>2015-12-05T12:58:19Z</time>
      </trkpt>
      <trkpt lat="47.36181" lon="-1.92844">
        <ele>60</ele>
        <time>2015-12-05T12:58:20Z</time>
      </trkpt>
      <trkpt lat="47.3618" lon="-1.92837">
        <ele>60</ele>
        <time>2015-12-05T12:58:21Z</time>
      </trkpt>
      <trkpt lat="47.3618" lon="-1.92831">
        <ele>60</ele>
        <time>2015-12-05T12:58:22Z</time>
      </trkpt>
      <trkpt lat="47.3618" lon="-1.92825">
        <ele>60</ele>
        <time>2015-12-05T12:58:23Z</time>
      </trkpt>
      <trkpt lat="47.3618" lon="-1.92818">
        <ele>60</ele>
        <time>2015-12-05T12:58:24Z</time>
      </trkpt>
      <trkpt lat="47.3618" lon="-1.92811">
        <ele>61</ele>
        <time>2015-12-05T12:58:25Z</time>
      </trkpt>
      <trkpt lat="47.36179" lon="-1.92805">
        <ele>61</ele>
        <time>2015-12-05T12:58:26Z</time>
      </trkpt>
      <trkpt lat="47.36179" lon="-1.92795">
        <ele>61</ele>
        <time>2015-12-05T12:58:27Z</time>
      </trkpt>
      <trkpt lat="47.36179" lon="-1.92789">
        <ele>61</ele>
        <time>2015-12-05T12:58:28Z</time>
      </trkpt>
      <trkpt lat="47.36179" lon="-1.92782">
        <ele>61</ele>
        <time>2015-12-05T12:58:29Z</time>
      </trkpt>
      <trkpt lat="47.36177" lon="-1.92774">
        <ele>61</ele>
        <time>2015-12-05T12:58:30Z</time>
      </trkpt>
      <trkpt lat="47.36176" lon="-1.92767">
        <ele>61</ele>
        <time>2015-12-05T12:58:31Z</time>
      </trkpt>
      <trkpt lat="47.36176" lon="-1.9276">
        <ele>61</ele>
        <time>2015-12-05T12:58:32Z</time>
      </trkpt>
      <trkpt lat="47.36176" lon="-1.92754">
        <ele>60</ele>
        <time>2015-12-05T12:58:33Z</time>
      </trkpt>
      <trkpt lat="47.36177" lon="-1.92746">
        <ele>61</ele>
        <time>2015-12-05T12:58:34Z</time>
      </trkpt>
      <trkpt lat="47.36177" lon="-1.92738">
        <ele>61</ele>
        <time>2015-12-05T12:58:35Z</time>
      </trkpt>
      <trkpt lat="47.36177" lon="-1.92733">
        <ele>61</ele>
        <time>2015-12-05T12:58:36Z</time>
      </trkpt>
      <trkpt lat="47.36177" lon="-1.92726">
        <ele>62</ele>
        <time>2015-12-05T12:58:37Z</time>
      </trkpt>
      <trkpt lat="47.36177" lon="-1.9272">
        <ele>62</ele>
        <time>2015-12-05T12:58:38Z</time>
      </trkpt>
      <trkpt lat="47.36178" lon="-1.92714">
        <ele>62</ele>
        <time>2015-12-05T12:58:39Z</time>
      </trkpt>
      <trkpt lat="47.36178" lon="-1.92707">
        <ele>62</ele>
        <time>2015-12-05T12:58:40Z</time>
      </trkpt>
      <trkpt lat="47.36178" lon="-1.927">
        <ele>62</ele>
        <time>2015-12-05T12:58:41Z</time>
      </trkpt>
      <trkpt lat="47.36178" lon="-1.92694">
        <ele>62</ele>
        <time>2015-12-05T12:58:42Z</time>
      </trkpt>
      <trkpt lat="47.36178" lon="-1.92683">
        <ele>62</ele>
        <time>2015-12-05T12:58:43Z</time>
      </trkpt>
      <trkpt lat="47.36177" lon="-1.92678">
        <ele>62</ele>
        <time>2015-12-05T12:58:44Z</time>
      </trkpt>
      <trkpt lat="47.36176" lon="-1.92671">
        <ele>62</ele>
        <time>2015-12-05T12:58:45Z</time>
      </trkpt>
      <trkpt lat="47.36175" lon="-1.92665">
        <ele>63</ele>
        <time>2015-12-05T12:58:46Z</time>
      </trkpt>
      <trkpt lat="47.36176" lon="-1.92659">
        <ele>63</ele>
        <time>2015-12-05T12:58:47Z</time>
      </trkpt>
      <trkpt lat="47.36176" lon="-1.92652">
        <ele>64</ele>
        <time>2015-12-05T12:58:48Z</time>
      </trkpt>
      <trkpt lat="47.36177" lon="-1.92645">
        <ele>64</ele>
        <time>2015-12-05T12:58:49Z</time>
      </trkpt>
      <trkpt lat="47.36178" lon="-1.9264">
        <ele>64</ele>
        <time>2015-12-05T12:58:50Z</time>
      </trkpt>
      <trkpt lat="47.36179" lon="-1.92633">
        <ele>64</ele>
        <time>2015-12-05T12:58:51Z</time>
      </trkpt>
      <trkpt lat="47.3618" lon="-1.92628">
        <ele>65</ele>
        <time>2015-12-05T12:58:52Z</time>
      </trkpt>
      <trkpt lat="47.3618" lon="-1.92623">
        <ele>65</ele>
        <time>2015-12-05T12:58:53Z</time>
      </trkpt>
      <trkpt lat="47.36181" lon="-1.92618">
        <ele>65</ele>
        <time>2015-12-05T12:58:54Z</time>
      </trkpt>
      <trkpt lat="47.3618" lon="-1.92613">
        <ele>65</ele>
        <time>2015-12-05T12:58:55Z</time>
      </trkpt>
      <trkpt lat="47.36181" lon="-1.926">
        <ele>65</ele>
        <time>2015-12-05T12:58:57Z</time>
      </trkpt>
      <trkpt lat="47.36185" lon="-1.92596">
        <ele>65</ele>
        <time>2015-12-05T12:58:58Z</time>
      </trkpt>
      <trkpt lat="47.36186" lon="-1.92591">
        <ele>65</ele>
        <time>2015-12-05T12:58:59Z</time>
      </trkpt>
      <trkpt lat="47.36186" lon="-1.92584">
        <ele>65</ele>
        <time>2015-12-05T12:59:00Z</time>
      </trkpt>
      <trkpt lat="47.36187" lon="-1.92578">
        <ele>66</ele>
        <time>2015-12-05T12:59:01Z</time>
      </trkpt>
      <trkpt lat="47.36187" lon="-1.92572">
        <ele>66</ele>
        <time>2015-12-05T12:59:02Z</time>
      </trkpt>
      <trkpt lat="47.36188" lon="-1.92565">
        <ele>66</ele>
        <time>2015-12-05T12:59:03Z</time>
      </trkpt>
      <trkpt lat="47.36188" lon="-1.92558">
        <ele>66</ele>
        <time>2015-12-05T12:59:04Z</time>
      </trkpt>
      <trkpt lat="47.36188" lon="-1.92553">
        <ele>66</ele>
        <time>2015-12-05T12:59:05Z</time>
      </trkpt>
      <trkpt lat="47.3619" lon="-1.92547">
        <ele>66</ele>
        <time>2015-12-05T12:59:06Z</time>
      </trkpt>
      <trkpt lat="47.3619" lon="-1.92541">
        <ele>66</ele>
        <time>2015-12-05T12:59:07Z</time>
      </trkpt>
      <trkpt lat="47.3619" lon="-1.92536">
        <ele>66</ele>
        <time>2015-12-05T12:59:08Z</time>
      </trkpt>
      <trkpt lat="47.36193" lon="-1.92534">
        <ele>66</ele>
        <time>2015-12-05T12:59:09Z</time>
      </trkpt>
      <trkpt lat="47.36196" lon="-1.9253">
        <ele>66</ele>
        <time>2015-12-05T12:59:11Z</time>
      </trkpt>
      <trkpt lat="47.36196" lon="-1.92535">
        <ele>66</ele>
        <time>2015-12-05T12:59:12Z</time>
      </trkpt>
      <trkpt lat="47.36199" lon="-1.92536">
        <ele>66</ele>
        <time>2015-12-05T12:59:15Z</time>
      </trkpt>
      <trkpt lat="47.36202" lon="-1.92535">
        <ele>66</ele>
        <time>2015-12-05T12:59:17Z</time>
      </trkpt>
      <trkpt lat="47.36206" lon="-1.92534">
        <ele>66</ele>
        <time>2015-12-05T12:59:18Z</time>
      </trkpt>
      <trkpt lat="47.36209" lon="-1.92533">
        <ele>66</ele>
        <time>2015-12-05T12:59:19Z</time>
      </trkpt>
      <trkpt lat="47.36212" lon="-1.92533">
        <ele>67</ele>
        <time>2015-12-05T12:59:20Z</time>
      </trkpt>
      <trkpt lat="47.36217" lon="-1.92533">
        <ele>67</ele>
        <time>2015-12-05T12:59:21Z</time>
      </trkpt>
      <trkpt lat="47.3622" lon="-1.92536">
        <ele>67</ele>
        <time>2015-12-05T12:59:22Z</time>
      </trkpt>
      <trkpt lat="47.36224" lon="-1.92537">
        <ele>67</ele>
        <time>2015-12-05T12:59:23Z</time>
      </trkpt>
      <trkpt lat="47.36227" lon="-1.92533">
        <ele>67</ele>
        <time>2015-12-05T12:59:24Z</time>
      </trkpt>
      <trkpt lat="47.36231" lon="-1.92536">
        <ele>67</ele>
        <time>2015-12-05T12:59:25Z</time>
      </trkpt>
      <trkpt lat="47.36235" lon="-1.92536">
        <ele>67</ele>
        <time>2015-12-05T12:59:26Z</time>
      </trkpt>
      <trkpt lat="47.36239" lon="-1.92536">
        <ele>67</ele>
        <time>2015-12-05T12:59:27Z</time>
      </trkpt>
      <trkpt lat="47.36242" lon="-1.9254">
        <ele>67</ele>
        <time>2015-12-05T12:59:28Z</time>
      </trkpt>
      <trkpt lat="47.36246" lon="-1.92542">
        <ele>67</ele>
        <time>2015-12-05T12:59:29Z</time>
      </trkpt>
      <trkpt lat="47.36249" lon="-1.92546">
        <ele>67</ele>
        <time>2015-12-05T12:59:30Z</time>
      </trkpt>
      <trkpt lat="47.36252" lon="-1.9255">
        <ele>68</ele>
        <time>2015-12-05T12:59:31Z</time>
      </trkpt>
      <trkpt lat="47.36255" lon="-1.92555">
        <ele>68</ele>
        <time>2015-12-05T12:59:32Z</time>
      </trkpt>
      <trkpt lat="47.36254" lon="-1.92563">
        <ele>68</ele>
        <time>2015-12-05T12:59:33Z</time>
      </trkpt>
      <trkpt lat="47.36256" lon="-1.9257">
        <ele>68</ele>
        <time>2015-12-05T12:59:34Z</time>
      </trkpt>
      <trkpt lat="47.36258" lon="-1.92577">
        <ele>69</ele>
        <time>2015-12-05T12:59:35Z</time>
      </trkpt>
      <trkpt lat="47.36263" lon="-1.92571">
        <ele>68</ele>
        <time>2015-12-05T12:59:36Z</time>
      </trkpt>
      <trkpt lat="47.36266" lon="-1.92573">
        <ele>68</ele>
        <time>2015-12-05T12:59:37Z</time>
      </trkpt>
      <trkpt lat="47.3627" lon="-1.92571">
        <ele>68</ele>
        <time>2015-12-05T12:59:38Z</time>
      </trkpt>
      <trkpt lat="47.36276" lon="-1.92571">
        <ele>68</ele>
        <time>2015-12-05T12:59:39Z</time>
      </trkpt>
      <trkpt lat="47.3628" lon="-1.92571">
        <ele>68</ele>
        <time>2015-12-05T12:59:40Z</time>
      </trkpt>
      <trkpt lat="47.36284" lon="-1.92568">
        <ele>68</ele>
        <time>2015-12-05T12:59:41Z</time>
      </trkpt>
      <trkpt lat="47.36288" lon="-1.92567">
        <ele>68</ele>
        <time>2015-12-05T12:59:42Z</time>
      </trkpt>
      <trkpt lat="47.36293" lon="-1.92566">
        <ele>68</ele>
        <time>2015-12-05T12:59:43Z</time>
      </trkpt>
      <trkpt lat="47.36297" lon="-1.92565">
        <ele>68</ele>
        <time>2015-12-05T12:59:44Z</time>
      </trkpt>
      <trkpt lat="47.36302" lon="-1.92564">
        <ele>68</ele>
        <time>2015-12-05T12:59:45Z</time>
      </trkpt>
      <trkpt lat="47.36306" lon="-1.92561">
        <ele>68</ele>
        <time>2015-12-05T12:59:46Z</time>
      </trkpt>
      <trkpt lat="47.3631" lon="-1.92559">
        <ele>68</ele>
        <time>2015-12-05T12:59:47Z</time>
      </trkpt>
      <trkpt lat="47.36313" lon="-1.92558">
        <ele>68</ele>
        <time>2015-12-05T12:59:48Z</time>
      </trkpt>
      <trkpt lat="47.36316" lon="-1.92561">
        <ele>68</ele>
        <time>2015-12-05T12:59:49Z</time>
      </trkpt>
      <trkpt lat="47.36321" lon="-1.9256">
        <ele>68</ele>
        <time>2015-12-05T12:59:50Z</time>
      </trkpt>
      <trkpt lat="47.36324" lon="-1.92558">
        <ele>68</ele>
        <time>2015-12-05T12:59:51Z</time>
      </trkpt>
      <trkpt lat="47.36327" lon="-1.92559">
        <ele>68</ele>
        <time>2015-12-05T12:59:52Z</time>
      </trkpt>
      <trkpt lat="47.36331" lon="-1.92557">
        <ele>68</ele>
        <time>2015-12-05T12:59:53Z</time>
      </trkpt>
      <trkpt lat="47.36335" lon="-1.92556">
        <ele>68</ele>
        <time>2015-12-05T12:59:54Z</time>
      </trkpt>
      <trkpt lat="47.36339" lon="-1.92554">
        <ele>68</ele>
        <time>2015-12-05T12:59:55Z</time>
      </trkpt>
      <trkpt lat="47.36342" lon="-1.92551">
        <ele>68</ele>
        <time>2015-12-05T12:59:56Z</time>
      </trkpt>
      <trkpt lat="47.36348" lon="-1.92551">
        <ele>68</ele>
        <time>2015-12-05T12:59:57Z</time>
      </trkpt>
      <trkpt lat="47.36353" lon="-1.92551">
        <ele>68</ele>
        <time>2015-12-05T12:59:58Z</time>
      </trkpt>
      <trkpt lat="47.36357" lon="-1.92549">
        <ele>68</ele>
        <time>2015-12-05T12:59:59Z</time>
      </trkpt>
      <trkpt lat="47.36361" lon="-1.92549">
        <ele>68</ele>
        <time>2015-12-05T13:00:00Z</time>
      </trkpt>
      <trkpt lat="47.36366" lon="-1.92545">
        <ele>68</ele>
        <time>2015-12-05T13:00:01Z</time>
      </trkpt>
      <trkpt lat="47.36371" lon="-1.92544">
        <ele>68</ele>
        <time>2015-12-05T13:00:02Z</time>
      </trkpt>
      <trkpt lat="47.36375" lon="-1.92543">
        <ele>68</ele>
        <time>2015-12-05T13:00:03Z</time>
      </trkpt>
      <trkpt lat="47.36379" lon="-1.92541">
        <ele>69</ele>
        <time>2015-12-05T13:00:04Z</time>
      </trkpt>
      <trkpt lat="47.36383" lon="-1.92538">
        <ele>69</ele>
        <time>2015-12-05T13:00:05Z</time>
      </trkpt>
      <trkpt lat="47.36387" lon="-1.92536">
        <ele>69</ele>
        <time>2015-12-05T13:00:06Z</time>
      </trkpt>
      <trkpt lat="47.36398" lon="-1.92531">
        <ele>69</ele>
        <time>2015-12-05T13:00:09Z</time>
      </trkpt>
      <trkpt lat="47.36402" lon="-1.92531">
        <ele>69</ele>
        <time>2015-12-05T13:00:10Z</time>
      </trkpt>
      <trkpt lat="47.36406" lon="-1.92528">
        <ele>69</ele>
        <time>2015-12-05T13:00:11Z</time>
      </trkpt>
      <trkpt lat="47.3641" lon="-1.92525">
        <ele>69</ele>
        <time>2015-12-05T13:00:12Z</time>
      </trkpt>
      <trkpt lat="47.36415" lon="-1.9252">
        <ele>69</ele>
        <time>2015-12-05T13:00:13Z</time>
      </trkpt>
      <trkpt lat="47.3642" lon="-1.92517">
        <ele>70</ele>
        <time>2015-12-05T13:00:14Z</time>
      </trkpt>
      <trkpt lat="47.36423" lon="-1.92517">
        <ele>70</ele>
        <time>2015-12-05T13:00:15Z</time>
      </trkpt>
      <trkpt lat="47.36427" lon="-1.92515">
        <ele>70</ele>
        <time>2015-12-05T13:00:16Z</time>
      </trkpt>
      <trkpt lat="47.36431" lon="-1.92513">
        <ele>71</ele>
        <time>2015-12-05T13:00:17Z</time>
      </trkpt>
      <trkpt lat="47.36434" lon="-1.92512">
        <ele>71</ele>
        <time>2015-12-05T13:00:18Z</time>
      </trkpt>
      <trkpt lat="47.36438" lon="-1.92511">
        <ele>71</ele>
        <time>2015-12-05T13:00:19Z</time>
      </trkpt>
      <trkpt lat="47.36439" lon="-1.92504">
        <ele>71</ele>
        <time>2015-12-05T13:00:21Z</time>
      </trkpt>
      <trkpt lat="47.36447" lon="-1.92502">
        <ele>71</ele>
        <time>2015-12-05T13:00:22Z</time>
      </trkpt>
      <trkpt lat="47.3645" lon="-1.92499">
        <ele>71</ele>
        <time>2015-12-05T13:00:23Z</time>
      </trkpt>
      <trkpt lat="47.36454" lon="-1.92495">
        <ele>71</ele>
        <time>2015-12-05T13:00:24Z</time>
      </trkpt>
      <trkpt lat="47.36458" lon="-1.92492">
        <ele>71</ele>
        <time>2015-12-05T13:00:25Z</time>
      </trkpt>
      <trkpt lat="47.36463" lon="-1.92489">
        <ele>71</ele>
        <time>2015-12-05T13:00:26Z</time>
      </trkpt>
      <trkpt lat="47.36467" lon="-1.92486">
        <ele>71</ele>
        <time>2015-12-05T13:00:27Z</time>
      </trkpt>
      <trkpt lat="47.36471" lon="-1.92483">
        <ele>71</ele>
        <time>2015-12-05T13:00:28Z</time>
      </trkpt>
      <trkpt lat="47.36475" lon="-1.9248">
        <ele>71</ele>
        <time>2015-12-05T13:00:29Z</time>
      </trkpt>
      <trkpt lat="47.36479" lon="-1.92477">
        <ele>72</ele>
        <time>2015-12-05T13:00:30Z</time>
      </trkpt>
      <trkpt lat="47.36483" lon="-1.92474">
        <ele>72</ele>
        <time>2015-12-05T13:00:31Z</time>
      </trkpt>
      <trkpt lat="47.36487" lon="-1.92472">
        <ele>72</ele>
        <time>2015-12-05T13:00:32Z</time>
      </trkpt>
      <trkpt lat="47.36492" lon="-1.92469">
        <ele>72</ele>
        <time>2015-12-05T13:00:33Z</time>
      </trkpt>
      <trkpt lat="47.36495" lon="-1.92466">
        <ele>71</ele>
        <time>2015-12-05T13:00:34Z</time>
      </trkpt>
      <trkpt lat="47.36499" lon="-1.92463">
        <ele>71</ele>
        <time>2015-12-05T13:00:35Z</time>
      </trkpt>
      <trkpt lat="47.36503" lon="-1.9246">
        <ele>73</ele>
        <time>2015-12-05T13:00:36Z</time>
      </trkpt>
      <trkpt lat="47.36507" lon="-1.92456">
        <ele>73</ele>
        <time>2015-12-05T13:00:37Z</time>
      </trkpt>
      <trkpt lat="47.36511" lon="-1.92454">
        <ele>73</ele>
        <time>2015-12-05T13:00:38Z</time>
      </trkpt>
      <trkpt lat="47.36515" lon="-1.92451">
        <ele>73</ele>
        <time>2015-12-05T13:00:39Z</time>
      </trkpt>
      <trkpt lat="47.3652" lon="-1.92448">
        <ele>73</ele>
        <time>2015-12-05T13:00:40Z</time>
      </trkpt>
      <trkpt lat="47.36524" lon="-1.92446">
        <ele>73</ele>
        <time>2015-12-05T13:00:41Z</time>
      </trkpt>
      <trkpt lat="47.36529" lon="-1.92444">
        <ele>73</ele>
        <time>2015-12-05T13:00:42Z</time>
      </trkpt>
      <trkpt lat="47.36533" lon="-1.92442">
        <ele>73</ele>
        <time>2015-12-05T13:00:43Z</time>
      </trkpt>
      <trkpt lat="47.36537" lon="-1.92441">
        <ele>73</ele>
        <time>2015-12-05T13:00:44Z</time>
      </trkpt>
      <trkpt lat="47.36542" lon="-1.92439">
        <ele>74</ele>
        <time>2015-12-05T13:00:45Z</time>
      </trkpt>
      <trkpt lat="47.36546" lon="-1.92436">
        <ele>74</ele>
        <time>2015-12-05T13:00:46Z</time>
      </trkpt>
      <trkpt lat="47.36551" lon="-1.92436">
        <ele>74</ele>
        <time>2015-12-05T13:00:47Z</time>
      </trkpt>
      <trkpt lat="47.36556" lon="-1.92437">
        <ele>74</ele>
        <time>2015-12-05T13:00:48Z</time>
      </trkpt>
      <trkpt lat="47.36559" lon="-1.92435">
        <ele>74</ele>
        <time>2015-12-05T13:00:49Z</time>
      </trkpt>
      <trkpt lat="47.36564" lon="-1.92435">
        <ele>74</ele>
        <time>2015-12-05T13:00:50Z</time>
      </trkpt>
      <trkpt lat="47.36567" lon="-1.92434">
        <ele>74</ele>
        <time>2015-12-05T13:00:51Z</time>
      </trkpt>
      <trkpt lat="47.36571" lon="-1.92435">
        <ele>74</ele>
        <time>2015-12-05T13:00:52Z</time>
      </trkpt>
      <trkpt lat="47.36575" lon="-1.92435">
        <ele>74</ele>
        <time>2015-12-05T13:00:53Z</time>
      </trkpt>
      <trkpt lat="47.36578" lon="-1.92436">
        <ele>74</ele>
        <time>2015-12-05T13:00:54Z</time>
      </trkpt>
      <trkpt lat="47.36579" lon="-1.92443">
        <ele>74</ele>
        <time>2015-12-05T13:00:55Z</time>
      </trkpt>
      <trkpt lat="47.36579" lon="-1.9245">
        <ele>74</ele>
        <time>2015-12-05T13:00:56Z</time>
      </trkpt>
      <trkpt lat="47.36579" lon="-1.92455">
        <ele>74</ele>
        <time>2015-12-05T13:00:57Z</time>
      </trkpt>
      <trkpt lat="47.36579" lon="-1.92461">
        <ele>74</ele>
        <time>2015-12-05T13:00:58Z</time>
      </trkpt>
      <trkpt lat="47.36579" lon="-1.92467">
        <ele>74</ele>
        <time>2015-12-05T13:00:59Z</time>
      </trkpt>
      <trkpt lat="47.3658" lon="-1.92479">
        <ele>75</ele>
        <time>2015-12-05T13:01:01Z</time>
      </trkpt>
      <trkpt lat="47.3658" lon="-1.92484">
        <ele>75</ele>
        <time>2015-12-05T13:01:02Z</time>
      </trkpt>
      <trkpt lat="47.3658" lon="-1.92491">
        <ele>75</ele>
        <time>2015-12-05T13:01:03Z</time>
      </trkpt>
      <trkpt lat="47.3658" lon="-1.92499">
        <ele>76</ele>
        <time>2015-12-05T13:01:04Z</time>
      </trkpt>
      <trkpt lat="47.3658" lon="-1.9251">
        <ele>75</ele>
        <time>2015-12-05T13:01:06Z</time>
      </trkpt>
      <trkpt lat="47.36581" lon="-1.92516">
        <ele>75</ele>
        <time>2015-12-05T13:01:07Z</time>
      </trkpt>
      <trkpt lat="47.36583" lon="-1.9252">
        <ele>75</ele>
        <time>2015-12-05T13:01:08Z</time>
      </trkpt>
      <trkpt lat="47.36586" lon="-1.92524">
        <ele>76</ele>
        <time>2015-12-05T13:01:09Z</time>
      </trkpt>
      <trkpt lat="47.3659" lon="-1.92525">
        <ele>76</ele>
        <time>2015-12-05T13:01:10Z</time>
      </trkpt>
      <trkpt lat="47.36595" lon="-1.92524">
        <ele>76</ele>
        <time>2015-12-05T13:01:11Z</time>
      </trkpt>
      <trkpt lat="47.36599" lon="-1.92524">
        <ele>77</ele>
        <time>2015-12-05T13:01:12Z</time>
      </trkpt>
      <trkpt lat="47.36603" lon="-1.92524">
        <ele>77</ele>
        <time>2015-12-05T13:01:13Z</time>
      </trkpt>
      <trkpt lat="47.36607" lon="-1.92523">
        <ele>77</ele>
        <time>2015-12-05T13:01:14Z</time>
      </trkpt>
      <trkpt lat="47.36611" lon="-1.92523">
        <ele>77</ele>
        <time>2015-12-05T13:01:15Z</time>
      </trkpt>
      <trkpt lat="47.36615" lon="-1.92523">
        <ele>77</ele>
        <time>2015-12-05T13:01:16Z</time>
      </trkpt>
      <trkpt lat="47.3662" lon="-1.92522">
        <ele>77</ele>
        <time>2015-12-05T13:01:17Z</time>
      </trkpt>
      <trkpt lat="47.36624" lon="-1.92522">
        <ele>77</ele>
        <time>2015-12-05T13:01:18Z</time>
      </trkpt>
      <trkpt lat="47.36628" lon="-1.9252">
        <ele>77</ele>
        <time>2015-12-05T13:01:19Z</time>
      </trkpt>
      <trkpt lat="47.36632" lon="-1.92517">
        <ele>77</ele>
        <time>2015-12-05T13:01:20Z</time>
      </trkpt>
      <trkpt lat="47.36636" lon="-1.92515">
        <ele>77</ele>
        <time>2015-12-05T13:01:21Z</time>
      </trkpt>
      <trkpt lat="47.36639" lon="-1.92513">
        <ele>77</ele>
        <time>2015-12-05T13:01:22Z</time>
      </trkpt>
      <trkpt lat="47.36643" lon="-1.9251">
        <ele>77</ele>
        <time>2015-12-05T13:01:23Z</time>
      </trkpt>
      <trkpt lat="47.36646" lon="-1.92506">
        <ele>77</ele>
        <time>2015-12-05T13:01:24Z</time>
      </trkpt>
      <trkpt lat="47.3665" lon="-1.92503">
        <ele>78</ele>
        <time>2015-12-05T13:01:25Z</time>
      </trkpt>
      <trkpt lat="47.36653" lon="-1.925">
        <ele>78</ele>
        <time>2015-12-05T13:01:26Z</time>
      </trkpt>
      <trkpt lat="47.36657" lon="-1.92495">
        <ele>77</ele>
        <time>2015-12-05T13:01:27Z</time>
      </trkpt>
      <trkpt lat="47.3666" lon="-1.92491">
        <ele>77</ele>
        <time>2015-12-05T13:01:28Z</time>
      </trkpt>
      <trkpt lat="47.36664" lon="-1.92488">
        <ele>77</ele>
        <time>2015-12-05T13:01:29Z</time>
      </trkpt>
      <trkpt lat="47.36667" lon="-1.92484">
        <ele>78</ele>
        <time>2015-12-05T13:01:30Z</time>
      </trkpt>
      <trkpt lat="47.36671" lon="-1.92481">
        <ele>78</ele>
        <time>2015-12-05T13:01:31Z</time>
      </trkpt>
      <trkpt lat="47.36676" lon="-1.92477">
        <ele>78</ele>
        <time>2015-12-05T13:01:32Z</time>
      </trkpt>
      <trkpt lat="47.3668" lon="-1.92475">
        <ele>78</ele>
        <time>2015-12-05T13:01:33Z</time>
      </trkpt>
      <trkpt lat="47.36684" lon="-1.92472">
        <ele>78</ele>
        <time>2015-12-05T13:01:34Z</time>
      </trkpt>
      <trkpt lat="47.36688" lon="-1.9247">
        <ele>78</ele>
        <time>2015-12-05T13:01:35Z</time>
      </trkpt>
      <trkpt lat="47.36692" lon="-1.92468">
        <ele>78</ele>
        <time>2015-12-05T13:01:36Z</time>
      </trkpt>
      <trkpt lat="47.36696" lon="-1.92465">
        <ele>78</ele>
        <time>2015-12-05T13:01:37Z</time>
      </trkpt>
      <trkpt lat="47.367" lon="-1.92463">
        <ele>78</ele>
        <time>2015-12-05T13:01:38Z</time>
      </trkpt>
      <trkpt lat="47.36703" lon="-1.9246">
        <ele>78</ele>
        <time>2015-12-05T13:01:39Z</time>
      </trkpt>
      <trkpt lat="47.36708" lon="-1.92458">
        <ele>78</ele>
        <time>2015-12-05T13:01:40Z</time>
      </trkpt>
      <trkpt lat="47.36714" lon="-1.92455">
        <ele>78</ele>
        <time>2015-12-05T13:01:41Z</time>
      </trkpt>
      <trkpt lat="47.36717" lon="-1.92456">
        <ele>78</ele>
        <time>2015-12-05T13:01:42Z</time>
      </trkpt>
      <trkpt lat="47.36721" lon="-1.92456">
        <ele>78</ele>
        <time>2015-12-05T13:01:43Z</time>
      </trkpt>
      <trkpt lat="47.36726" lon="-1.92456">
        <ele>78</ele>
        <time>2015-12-05T13:01:44Z</time>
      </trkpt>
      <trkpt lat="47.36729" lon="-1.92458">
        <ele>78</ele>
        <time>2015-12-05T13:01:45Z</time>
      </trkpt>
      <trkpt lat="47.36734" lon="-1.92458">
        <ele>78</ele>
        <time>2015-12-05T13:01:46Z</time>
      </trkpt>
      <trkpt lat="47.36739" lon="-1.92458">
        <ele>78</ele>
        <time>2015-12-05T13:01:47Z</time>
      </trkpt>
      <trkpt lat="47.36744" lon="-1.92453">
        <ele>78</ele>
        <time>2015-12-05T13:01:48Z</time>
      </trkpt>
      <trkpt lat="47.3675" lon="-1.92451">
        <ele>78</ele>
        <time>2015-12-05T13:01:49Z</time>
      </trkpt>
      <trkpt lat="47.36759" lon="-1.92454">
        <ele>78</ele>
        <time>2015-12-05T13:01:51Z</time>
      </trkpt>
      <trkpt lat="47.36765" lon="-1.92454">
        <ele>78</ele>
        <time>2015-12-05T13:01:52Z</time>
      </trkpt>
      <trkpt lat="47.36769" lon="-1.92454">
        <ele>78</ele>
        <time>2015-12-05T13:01:53Z</time>
      </trkpt>
      <trkpt lat="47.36775" lon="-1.92456">
        <ele>78</ele>
        <time>2015-12-05T13:01:54Z</time>
      </trkpt>
      <trkpt lat="47.3678" lon="-1.92456">
        <ele>78</ele>
        <time>2015-12-05T13:01:55Z</time>
      </trkpt>
      <trkpt lat="47.36785" lon="-1.92455">
        <ele>78</ele>
        <time>2015-12-05T13:01:56Z</time>
      </trkpt>
      <trkpt lat="47.3679" lon="-1.92455">
        <ele>78</ele>
        <time>2015-12-05T13:01:57Z</time>
      </trkpt>
      <trkpt lat="47.36794" lon="-1.92455">
        <ele>78</ele>
        <time>2015-12-05T13:01:58Z</time>
      </trkpt>
      <trkpt lat="47.36799" lon="-1.92455">
        <ele>78</ele>
        <time>2015-12-05T13:01:59Z</time>
      </trkpt>
      <trkpt lat="47.36804" lon="-1.92454">
        <ele>78</ele>
        <time>2015-12-05T13:02:00Z</time>
      </trkpt>
      <trkpt lat="47.3681" lon="-1.92457">
        <ele>78</ele>
        <time>2015-12-05T13:02:01Z</time>
      </trkpt>
      <trkpt lat="47.36815" lon="-1.92456">
        <ele>78</ele>
        <time>2015-12-05T13:02:02Z</time>
      </trkpt>
      <trkpt lat="47.36821" lon="-1.92455">
        <ele>78</ele>
        <time>2015-12-05T13:02:03Z</time>
      </trkpt>
      <trkpt lat="47.36825" lon="-1.92455">
        <ele>78</ele>
        <time>2015-12-05T13:02:04Z</time>
      </trkpt>
      <trkpt lat="47.3683" lon="-1.92455">
        <ele>78</ele>
        <time>2015-12-05T13:02:05Z</time>
      </trkpt>
      <trkpt lat="47.36835" lon="-1.92455">
        <ele>79</ele>
        <time>2015-12-05T13:02:06Z</time>
      </trkpt>
      <trkpt lat="47.36841" lon="-1.92455">
        <ele>79</ele>
        <time>2015-12-05T13:02:07Z</time>
      </trkpt>
      <trkpt lat="47.36846" lon="-1.92455">
        <ele>79</ele>
        <time>2015-12-05T13:02:08Z</time>
      </trkpt>
      <trkpt lat="47.36851" lon="-1.92455">
        <ele>79</ele>
        <time>2015-12-05T13:02:09Z</time>
      </trkpt>
      <trkpt lat="47.36856" lon="-1.92455">
        <ele>79</ele>
        <time>2015-12-05T13:02:10Z</time>
      </trkpt>
      <trkpt lat="47.36861" lon="-1.92454">
        <ele>79</ele>
        <time>2015-12-05T13:02:11Z</time>
      </trkpt>
      <trkpt lat="47.36867" lon="-1.92455">
        <ele>79</ele>
        <time>2015-12-05T13:02:12Z</time>
      </trkpt>
      <trkpt lat="47.36872" lon="-1.92455">
        <ele>79</ele>
        <time>2015-12-05T13:02:13Z</time>
      </trkpt>
      <trkpt lat="47.36876" lon="-1.92455">
        <ele>80</ele>
        <time>2015-12-05T13:02:14Z</time>
      </trkpt>
      <trkpt lat="47.36883" lon="-1.92453">
        <ele>80</ele>
        <time>2015-12-05T13:02:15Z</time>
      </trkpt>
      <trkpt lat="47.36887" lon="-1.92453">
        <ele>80</ele>
        <time>2015-12-05T13:02:16Z</time>
      </trkpt>
      <trkpt lat="47.3689" lon="-1.92453">
        <ele>80</ele>
        <time>2015-12-05T13:02:17Z</time>
      </trkpt>
      <trkpt lat="47.36894" lon="-1.9245">
        <ele>80</ele>
        <time>2015-12-05T13:02:18Z</time>
      </trkpt>
      <trkpt lat="47.36898" lon="-1.92447">
        <ele>80</ele>
        <time>2015-12-05T13:02:19Z</time>
      </trkpt>
      <trkpt lat="47.36895" lon="-1.92437">
        <ele>80</ele>
        <time>2015-12-05T13:02:20Z</time>
      </trkpt>
      <trkpt lat="47.36896" lon="-1.9243">
        <ele>80</ele>
        <time>2015-12-05T13:02:21Z</time>
      </trkpt>
      <trkpt lat="47.36896" lon="-1.92419">
        <ele>80</ele>
        <time>2015-12-05T13:02:22Z</time>
      </trkpt>
      <trkpt lat="47.36895" lon="-1.92411">
        <ele>80</ele>
        <time>2015-12-05T13:02:23Z</time>
      </trkpt>
      <trkpt lat="47.36895" lon="-1.92403">
        <ele>80</ele>
        <time>2015-12-05T13:02:24Z</time>
      </trkpt>
      <trkpt lat="47.36894" lon="-1.92395">
        <ele>80</ele>
        <time>2015-12-05T13:02:25Z</time>
      </trkpt>
      <trkpt lat="47.36893" lon="-1.92387">
        <ele>80</ele>
        <time>2015-12-05T13:02:26Z</time>
      </trkpt>
      <trkpt lat="47.36893" lon="-1.92371">
        <ele>80</ele>
        <time>2015-12-05T13:02:28Z</time>
      </trkpt>
      <trkpt lat="47.36892" lon="-1.92363">
        <ele>80</ele>
        <time>2015-12-05T13:02:29Z</time>
      </trkpt>
      <trkpt lat="47.36893" lon="-1.92358">
        <ele>80</ele>
        <time>2015-12-05T13:02:30Z</time>
      </trkpt>
      <trkpt lat="47.36893" lon="-1.9235">
        <ele>80</ele>
        <time>2015-12-05T13:02:31Z</time>
      </trkpt>
      <trkpt lat="47.36892" lon="-1.92341">
        <ele>80</ele>
        <time>2015-12-05T13:02:32Z</time>
      </trkpt>
      <trkpt lat="47.36891" lon="-1.92333">
        <ele>80</ele>
        <time>2015-12-05T13:02:33Z</time>
      </trkpt>
      <trkpt lat="47.3689" lon="-1.92326">
        <ele>80</ele>
        <time>2015-12-05T13:02:34Z</time>
      </trkpt>
      <trkpt lat="47.36889" lon="-1.92318">
        <ele>80</ele>
        <time>2015-12-05T13:02:35Z</time>
      </trkpt>
      <trkpt lat="47.36887" lon="-1.92309">
        <ele>80</ele>
        <time>2015-12-05T13:02:36Z</time>
      </trkpt>
      <trkpt lat="47.36886" lon="-1.92301">
        <ele>80</ele>
        <time>2015-12-05T13:02:37Z</time>
      </trkpt>
      <trkpt lat="47.36886" lon="-1.92291">
        <ele>80</ele>
        <time>2015-12-05T13:02:38Z</time>
      </trkpt>
      <trkpt lat="47.36884" lon="-1.92283">
        <ele>80</ele>
        <time>2015-12-05T13:02:39Z</time>
      </trkpt>
      <trkpt lat="47.36883" lon="-1.92276">
        <ele>80</ele>
        <time>2015-12-05T13:02:40Z</time>
      </trkpt>
      <trkpt lat="47.36881" lon="-1.92269">
        <ele>80</ele>
        <time>2015-12-05T13:02:42Z</time>
      </trkpt>
      <trkpt lat="47.36881" lon="-1.92262">
        <ele>80</ele>
        <time>2015-12-05T13:02:43Z</time>
      </trkpt>
      <trkpt lat="47.36879" lon="-1.92256">
        <ele>79</ele>
        <time>2015-12-05T13:02:45Z</time>
      </trkpt>
      <trkpt lat="47.36878" lon="-1.92247">
        <ele>79</ele>
        <time>2015-12-05T13:02:46Z</time>
      </trkpt>
      <trkpt lat="47.36876" lon="-1.92239">
        <ele>79</ele>
        <time>2015-12-05T13:02:47Z</time>
      </trkpt>
      <trkpt lat="47.36876" lon="-1.9222">
        <ele>79</ele>
        <time>2015-12-05T13:02:48Z</time>
      </trkpt>
      <trkpt lat="47.36875" lon="-1.92209">
        <ele>79</ele>
        <time>2015-12-05T13:02:49Z</time>
      </trkpt>
      <trkpt lat="47.36875" lon="-1.92196">
        <ele>79</ele>
        <time>2015-12-05T13:02:50Z</time>
      </trkpt>
      <trkpt lat="47.36876" lon="-1.92182">
        <ele>79</ele>
        <time>2015-12-05T13:02:51Z</time>
      </trkpt>
      <trkpt lat="47.36876" lon="-1.92172">
        <ele>79</ele>
        <time>2015-12-05T13:02:52Z</time>
      </trkpt>
      <trkpt lat="47.36877" lon="-1.92159">
        <ele>79</ele>
        <time>2015-12-05T13:02:53Z</time>
      </trkpt>
      <trkpt lat="47.36876" lon="-1.92152">
        <ele>79</ele>
        <time>2015-12-05T13:02:54Z</time>
      </trkpt>
      <trkpt lat="47.36875" lon="-1.92141">
        <ele>79</ele>
        <time>2015-12-05T13:02:55Z</time>
      </trkpt>
      <trkpt lat="47.36875" lon="-1.92128">
        <ele>79</ele>
        <time>2015-12-05T13:02:56Z</time>
      </trkpt>
      <trkpt lat="47.36875" lon="-1.92118">
        <ele>79</ele>
        <time>2015-12-05T13:02:57Z</time>
      </trkpt>
      <trkpt lat="47.36874" lon="-1.92106">
        <ele>79</ele>
        <time>2015-12-05T13:02:58Z</time>
      </trkpt>
      <trkpt lat="47.36874" lon="-1.92096">
        <ele>79</ele>
        <time>2015-12-05T13:02:59Z</time>
      </trkpt>
      <trkpt lat="47.36874" lon="-1.92085">
        <ele>79</ele>
        <time>2015-12-05T13:03:00Z</time>
      </trkpt>
      <trkpt lat="47.36876" lon="-1.92074">
        <ele>79</ele>
        <time>2015-12-05T13:03:01Z</time>
      </trkpt>
      <trkpt lat="47.36877" lon="-1.92064">
        <ele>79</ele>
        <time>2015-12-05T13:03:02Z</time>
      </trkpt>
      <trkpt lat="47.36878" lon="-1.92054">
        <ele>79</ele>
        <time>2015-12-05T13:03:03Z</time>
      </trkpt>
      <trkpt lat="47.36878" lon="-1.92043">
        <ele>79</ele>
        <time>2015-12-05T13:03:04Z</time>
      </trkpt>
      <trkpt lat="47.36879" lon="-1.92034">
        <ele>79</ele>
        <time>2015-12-05T13:03:05Z</time>
      </trkpt>
      <trkpt lat="47.3688" lon="-1.92024">
        <ele>79</ele>
        <time>2015-12-05T13:03:06Z</time>
      </trkpt>
      <trkpt lat="47.36882" lon="-1.92016">
        <ele>79</ele>
        <time>2015-12-05T13:03:07Z</time>
      </trkpt>
      <trkpt lat="47.36882" lon="-1.92008">
        <ele>80</ele>
        <time>2015-12-05T13:03:08Z</time>
      </trkpt>
      <trkpt lat="47.36881" lon="-1.92002">
        <ele>79</ele>
        <time>2015-12-05T13:03:09Z</time>
      </trkpt>
      <trkpt lat="47.36882" lon="-1.91995">
        <ele>80</ele>
        <time>2015-12-05T13:03:10Z</time>
      </trkpt>
      <trkpt lat="47.36882" lon="-1.91987">
        <ele>80</ele>
        <time>2015-12-05T13:03:11Z</time>
      </trkpt>
      <trkpt lat="47.36884" lon="-1.91979">
        <ele>80</ele>
        <time>2015-12-05T13:03:12Z</time>
      </trkpt>
      <trkpt lat="47.36884" lon="-1.91973">
        <ele>80</ele>
        <time>2015-12-05T13:03:13Z</time>
      </trkpt>
      <trkpt lat="47.36884" lon="-1.91967">
        <ele>80</ele>
        <time>2015-12-05T13:03:14Z</time>
      </trkpt>
      <trkpt lat="47.36886" lon="-1.91955">
        <ele>80</ele>
        <time>2015-12-05T13:03:15Z</time>
      </trkpt>
      <trkpt lat="47.36885" lon="-1.91945">
        <ele>80</ele>
        <time>2015-12-05T13:03:16Z</time>
      </trkpt>
      <trkpt lat="47.36885" lon="-1.91938">
        <ele>80</ele>
        <time>2015-12-05T13:03:17Z</time>
      </trkpt>
      <trkpt lat="47.36886" lon="-1.91929">
        <ele>80</ele>
        <time>2015-12-05T13:03:18Z</time>
      </trkpt>
      <trkpt lat="47.36885" lon="-1.9192">
        <ele>80</ele>
        <time>2015-12-05T13:03:19Z</time>
      </trkpt>
      <trkpt lat="47.36893" lon="-1.9191">
        <ele>81</ele>
        <time>2015-12-05T13:03:20Z</time>
      </trkpt>
      <trkpt lat="47.36895" lon="-1.91904">
        <ele>81</ele>
        <time>2015-12-05T13:03:21Z</time>
      </trkpt>
      <trkpt lat="47.36897" lon="-1.91896">
        <ele>81</ele>
        <time>2015-12-05T13:03:22Z</time>
      </trkpt>
      <trkpt lat="47.36899" lon="-1.91885">
        <ele>81</ele>
        <time>2015-12-05T13:03:23Z</time>
      </trkpt>
      <trkpt lat="47.36898" lon="-1.91881">
        <ele>81</ele>
        <time>2015-12-05T13:03:24Z</time>
      </trkpt>
      <trkpt lat="47.36899" lon="-1.91873">
        <ele>81</ele>
        <time>2015-12-05T13:03:25Z</time>
      </trkpt>
      <trkpt lat="47.369" lon="-1.91864">
        <ele>81</ele>
        <time>2015-12-05T13:03:26Z</time>
      </trkpt>
      <trkpt lat="47.36901" lon="-1.91857">
        <ele>82</ele>
        <time>2015-12-05T13:03:27Z</time>
      </trkpt>
      <trkpt lat="47.36902" lon="-1.9185">
        <ele>82</ele>
        <time>2015-12-05T13:03:28Z</time>
      </trkpt>
      <trkpt lat="47.36902" lon="-1.91843">
        <ele>82</ele>
        <time>2015-12-05T13:03:29Z</time>
      </trkpt>
      <trkpt lat="47.36902" lon="-1.91836">
        <ele>82</ele>
        <time>2015-12-05T13:03:30Z</time>
      </trkpt>
      <trkpt lat="47.36906" lon="-1.9183">
        <ele>82</ele>
        <time>2015-12-05T13:03:31Z</time>
      </trkpt>
      <trkpt lat="47.36907" lon="-1.91822">
        <ele>82</ele>
        <time>2015-12-05T13:03:32Z</time>
      </trkpt>
      <trkpt lat="47.36906" lon="-1.91814">
        <ele>82</ele>
        <time>2015-12-05T13:03:33Z</time>
      </trkpt>
      <trkpt lat="47.36907" lon="-1.91806">
        <ele>82</ele>
        <time>2015-12-05T13:03:34Z</time>
      </trkpt>
      <trkpt lat="47.36907" lon="-1.91797">
        <ele>82</ele>
        <time>2015-12-05T13:03:35Z</time>
      </trkpt>
      <trkpt lat="47.36907" lon="-1.9179">
        <ele>81</ele>
        <time>2015-12-05T13:03:36Z</time>
      </trkpt>
      <trkpt lat="47.36907" lon="-1.91783">
        <ele>81</ele>
        <time>2015-12-05T13:03:37Z</time>
      </trkpt>
      <trkpt lat="47.36908" lon="-1.91775">
        <ele>81</ele>
        <time>2015-12-05T13:03:38Z</time>
      </trkpt>
      <trkpt lat="47.36909" lon="-1.91765">
        <ele>81</ele>
        <time>2015-12-05T13:03:39Z</time>
      </trkpt>
      <trkpt lat="47.3691" lon="-1.91757">
        <ele>81</ele>
        <time>2015-12-05T13:03:40Z</time>
      </trkpt>
      <trkpt lat="47.36912" lon="-1.91748">
        <ele>81</ele>
        <time>2015-12-05T13:03:41Z</time>
      </trkpt>
      <trkpt lat="47.36914" lon="-1.91741">
        <ele>81</ele>
        <time>2015-12-05T13:03:42Z</time>
      </trkpt>
      <trkpt lat="47.36915" lon="-1.91732">
        <ele>81</ele>
        <time>2015-12-05T13:03:43Z</time>
      </trkpt>
      <trkpt lat="47.36914" lon="-1.91724">
        <ele>81</ele>
        <time>2015-12-05T13:03:44Z</time>
      </trkpt>
      <trkpt lat="47.36914" lon="-1.91716">
        <ele>80</ele>
        <time>2015-12-05T13:03:45Z</time>
      </trkpt>
      <trkpt lat="47.36913" lon="-1.91707">
        <ele>80</ele>
        <time>2015-12-05T13:03:46Z</time>
      </trkpt>
      <trkpt lat="47.36914" lon="-1.91698">
        <ele>80</ele>
        <time>2015-12-05T13:03:47Z</time>
      </trkpt>
      <trkpt lat="47.36915" lon="-1.91691">
        <ele>80</ele>
        <time>2015-12-05T13:03:48Z</time>
      </trkpt>
      <trkpt lat="47.36915" lon="-1.91681">
        <ele>80</ele>
        <time>2015-12-05T13:03:49Z</time>
      </trkpt>
      <trkpt lat="47.36915" lon="-1.91673">
        <ele>79</ele>
        <time>2015-12-05T13:03:50Z</time>
      </trkpt>
      <trkpt lat="47.36915" lon="-1.91664">
        <ele>79</ele>
        <time>2015-12-05T13:03:51Z</time>
      </trkpt>
      <trkpt lat="47.36916" lon="-1.91655">
        <ele>79</ele>
        <time>2015-12-05T13:03:52Z</time>
      </trkpt>
      <trkpt lat="47.36916" lon="-1.91647">
        <ele>80</ele>
        <time>2015-12-05T13:03:53Z</time>
      </trkpt>
      <trkpt lat="47.36916" lon="-1.91637">
        <ele>80</ele>
        <time>2015-12-05T13:03:54Z</time>
      </trkpt>
      <trkpt lat="47.36915" lon="-1.91627">
        <ele>80</ele>
        <time>2015-12-05T13:03:55Z</time>
      </trkpt>
      <trkpt lat="47.36914" lon="-1.91619">
        <ele>80</ele>
        <time>2015-12-05T13:03:56Z</time>
      </trkpt>
      <trkpt lat="47.36913" lon="-1.91609">
        <ele>80</ele>
        <time>2015-12-05T13:03:57Z</time>
      </trkpt>
      <trkpt lat="47.36912" lon="-1.916">
        <ele>80</ele>
        <time>2015-12-05T13:03:58Z</time>
      </trkpt>
      <trkpt lat="47.36911" lon="-1.9159">
        <ele>80</ele>
        <time>2015-12-05T13:03:59Z</time>
      </trkpt>
      <trkpt lat="47.36907" lon="-1.91571">
        <ele>80</ele>
        <time>2015-12-05T13:04:01Z</time>
      </trkpt>
      <trkpt lat="47.36905" lon="-1.91562">
        <ele>79</ele>
        <time>2015-12-05T13:04:02Z</time>
      </trkpt>
      <trkpt lat="47.36904" lon="-1.91553">
        <ele>79</ele>
        <time>2015-12-05T13:04:03Z</time>
      </trkpt>
      <trkpt lat="47.36902" lon="-1.91542">
        <ele>79</ele>
        <time>2015-12-05T13:04:04Z</time>
      </trkpt>
      <trkpt lat="47.369" lon="-1.91531">
        <ele>79</ele>
        <time>2015-12-05T13:04:05Z</time>
      </trkpt>
      <trkpt lat="47.36899" lon="-1.91521">
        <ele>79</ele>
        <time>2015-12-05T13:04:06Z</time>
      </trkpt>
      <trkpt lat="47.36897" lon="-1.9151">
        <ele>79</ele>
        <time>2015-12-05T13:04:07Z</time>
      </trkpt>
      <trkpt lat="47.36895" lon="-1.91498">
        <ele>78</ele>
        <time>2015-12-05T13:04:08Z</time>
      </trkpt>
      <trkpt lat="47.36893" lon="-1.91489">
        <ele>78</ele>
        <time>2015-12-05T13:04:09Z</time>
      </trkpt>
      <trkpt lat="47.36891" lon="-1.91478">
        <ele>78</ele>
        <time>2015-12-05T13:04:10Z</time>
      </trkpt>
      <trkpt lat="47.36889" lon="-1.91468">
        <ele>78</ele>
        <time>2015-12-05T13:04:11Z</time>
      </trkpt>
      <trkpt lat="47.36887" lon="-1.91457">
        <ele>78</ele>
        <time>2015-12-05T13:04:12Z</time>
      </trkpt>
      <trkpt lat="47.36884" lon="-1.91447">
        <ele>78</ele>
        <time>2015-12-05T13:04:13Z</time>
      </trkpt>
      <trkpt lat="47.36882" lon="-1.91437">
        <ele>78</ele>
        <time>2015-12-05T13:04:14Z</time>
      </trkpt>
      <trkpt lat="47.3688" lon="-1.91427">
        <ele>78</ele>
        <time>2015-12-05T13:04:15Z</time>
      </trkpt>
      <trkpt lat="47.36876" lon="-1.91421">
        <ele>77</ele>
        <time>2015-12-05T13:04:16Z</time>
      </trkpt>
      <trkpt lat="47.36875" lon="-1.91411">
        <ele>77</ele>
        <time>2015-12-05T13:04:17Z</time>
      </trkpt>
      <trkpt lat="47.36873" lon="-1.914">
        <ele>77</ele>
        <time>2015-12-05T13:04:18Z</time>
      </trkpt>
      <trkpt lat="47.3687" lon="-1.91393">
        <ele>77</ele>
        <time>2015-12-05T13:04:19Z</time>
      </trkpt>
      <trkpt lat="47.36868" lon="-1.91384">
        <ele>76</ele>
        <time>2015-12-05T13:04:20Z</time>
      </trkpt>
      <trkpt lat="47.36863" lon="-1.91372">
        <ele>76</ele>
        <time>2015-12-05T13:04:21Z</time>
      </trkpt>
      <trkpt lat="47.36861" lon="-1.91362">
        <ele>76</ele>
        <time>2015-12-05T13:04:22Z</time>
      </trkpt>
      <trkpt lat="47.36859" lon="-1.91352">
        <ele>76</ele>
        <time>2015-12-05T13:04:23Z</time>
      </trkpt>
      <trkpt lat="47.36857" lon="-1.91341">
        <ele>76</ele>
        <time>2015-12-05T13:04:24Z</time>
      </trkpt>
      <trkpt lat="47.36855" lon="-1.91332">
        <ele>76</ele>
        <time>2015-12-05T13:04:25Z</time>
      </trkpt>
      <trkpt lat="47.36851" lon="-1.91323">
        <ele>76</ele>
        <time>2015-12-05T13:04:26Z</time>
      </trkpt>
      <trkpt lat="47.36846" lon="-1.91305">
        <ele>77</ele>
        <time>2015-12-05T13:04:28Z</time>
      </trkpt>
      <trkpt lat="47.36842" lon="-1.91297">
        <ele>77</ele>
        <time>2015-12-05T13:04:29Z</time>
      </trkpt>
      <trkpt lat="47.36839" lon="-1.91289">
        <ele>77</ele>
        <time>2015-12-05T13:04:30Z</time>
      </trkpt>
      <trkpt lat="47.36834" lon="-1.91281">
        <ele>77</ele>
        <time>2015-12-05T13:04:31Z</time>
      </trkpt>
      <trkpt lat="47.3683" lon="-1.91273">
        <ele>77</ele>
        <time>2015-12-05T13:04:32Z</time>
      </trkpt>
      <trkpt lat="47.36826" lon="-1.91266">
        <ele>77</ele>
        <time>2015-12-05T13:04:33Z</time>
      </trkpt>
      <trkpt lat="47.36823" lon="-1.91258">
        <ele>77</ele>
        <time>2015-12-05T13:04:34Z</time>
      </trkpt>
      <trkpt lat="47.36819" lon="-1.9125">
        <ele>77</ele>
        <time>2015-12-05T13:04:35Z</time>
      </trkpt>
      <trkpt lat="47.36815" lon="-1.91243">
        <ele>79</ele>
        <time>2015-12-05T13:04:36Z</time>
      </trkpt>
      <trkpt lat="47.3681" lon="-1.91237">
        <ele>80</ele>
        <time>2015-12-05T13:04:37Z</time>
      </trkpt>
      <trkpt lat="47.36806" lon="-1.9123">
        <ele>80</ele>
        <time>2015-12-05T13:04:38Z</time>
      </trkpt>
      <trkpt lat="47.36803" lon="-1.91224">
        <ele>80</ele>
        <time>2015-12-05T13:04:39Z</time>
      </trkpt>
      <trkpt lat="47.368" lon="-1.91216">
        <ele>80</ele>
        <time>2015-12-05T13:04:40Z</time>
      </trkpt>
      <trkpt lat="47.36799" lon="-1.9121">
        <ele>80</ele>
        <time>2015-12-05T13:04:41Z</time>
      </trkpt>
      <trkpt lat="47.36796" lon="-1.91202">
        <ele>81</ele>
        <time>2015-12-05T13:04:42Z</time>
      </trkpt>
      <trkpt lat="47.36795" lon="-1.91197">
        <ele>81</ele>
        <time>2015-12-05T13:04:43Z</time>
      </trkpt>
      <trkpt lat="47.36793" lon="-1.9119">
        <ele>81</ele>
        <time>2015-12-05T13:04:44Z</time>
      </trkpt>
      <trkpt lat="47.36792" lon="-1.91181">
        <ele>81</ele>
        <time>2015-12-05T13:04:45Z</time>
      </trkpt>
      <trkpt lat="47.36788" lon="-1.91176">
        <ele>81</ele>
        <time>2015-12-05T13:04:46Z</time>
      </trkpt>
      <trkpt lat="47.36785" lon="-1.91168">
        <ele>81</ele>
        <time>2015-12-05T13:04:47Z</time>
      </trkpt>
      <trkpt lat="47.36784" lon="-1.9116">
        <ele>82</ele>
        <time>2015-12-05T13:04:48Z</time>
      </trkpt>
      <trkpt lat="47.36783" lon="-1.91154">
        <ele>82</ele>
        <time>2015-12-05T13:04:49Z</time>
      </trkpt>
      <trkpt lat="47.36783" lon="-1.9115">
        <ele>82</ele>
        <time>2015-12-05T13:04:50Z</time>
      </trkpt>
      <trkpt lat="47.3678" lon="-1.91146">
        <ele>82</ele>
        <time>2015-12-05T13:04:51Z</time>
      </trkpt>
      <trkpt lat="47.36779" lon="-1.91139">
        <ele>82</ele>
        <time>2015-12-05T13:04:52Z</time>
      </trkpt>
      <trkpt lat="47.36777" lon="-1.91131">
        <ele>82</ele>
        <time>2015-12-05T13:04:53Z</time>
      </trkpt>
      <trkpt lat="47.36775" lon="-1.91124">
        <ele>82</ele>
        <time>2015-12-05T13:04:54Z</time>
      </trkpt>
      <trkpt lat="47.36773" lon="-1.91117">
        <ele>82</ele>
        <time>2015-12-05T13:04:55Z</time>
      </trkpt>
      <trkpt lat="47.36771" lon="-1.9111">
        <ele>82</ele>
        <time>2015-12-05T13:04:56Z</time>
      </trkpt>
      <trkpt lat="47.36769" lon="-1.91103">
        <ele>82</ele>
        <time>2015-12-05T13:04:57Z</time>
      </trkpt>
      <trkpt lat="47.36764" lon="-1.91097">
        <ele>82</ele>
        <time>2015-12-05T13:04:58Z</time>
      </trkpt>
      <trkpt lat="47.36763" lon="-1.91089">
        <ele>82</ele>
        <time>2015-12-05T13:04:59Z</time>
      </trkpt>
      <trkpt lat="47.3676" lon="-1.91082">
        <ele>82</ele>
        <time>2015-12-05T13:05:00Z</time>
      </trkpt>
      <trkpt lat="47.36758" lon="-1.91072">
        <ele>82</ele>
        <time>2015-12-05T13:05:01Z</time>
      </trkpt>
      <trkpt lat="47.36756" lon="-1.91066">
        <ele>82</ele>
        <time>2015-12-05T13:05:02Z</time>
      </trkpt>
      <trkpt lat="47.36753" lon="-1.9106">
        <ele>82</ele>
        <time>2015-12-05T13:05:03Z</time>
      </trkpt>
      <trkpt lat="47.36748" lon="-1.91054">
        <ele>82</ele>
        <time>2015-12-05T13:05:04Z</time>
      </trkpt>
      <trkpt lat="47.36745" lon="-1.91047">
        <ele>82</ele>
        <time>2015-12-05T13:05:05Z</time>
      </trkpt>
      <trkpt lat="47.36742" lon="-1.91041">
        <ele>82</ele>
        <time>2015-12-05T13:05:06Z</time>
      </trkpt>
      <trkpt lat="47.36739" lon="-1.91036">
        <ele>82</ele>
        <time>2015-12-05T13:05:07Z</time>
      </trkpt>
      <trkpt lat="47.36735" lon="-1.91032">
        <ele>82</ele>
        <time>2015-12-05T13:05:08Z</time>
      </trkpt>
      <trkpt lat="47.36731" lon="-1.91028">
        <ele>82</ele>
        <time>2015-12-05T13:05:09Z</time>
      </trkpt>
      <trkpt lat="47.36728" lon="-1.9102">
        <ele>82</ele>
        <time>2015-12-05T13:05:10Z</time>
      </trkpt>
      <trkpt lat="47.36724" lon="-1.91015">
        <ele>82</ele>
        <time>2015-12-05T13:05:11Z</time>
      </trkpt>
      <trkpt lat="47.36721" lon="-1.9101">
        <ele>82</ele>
        <time>2015-12-05T13:05:12Z</time>
      </trkpt>
      <trkpt lat="47.36714" lon="-1.91006">
        <ele>82</ele>
        <time>2015-12-05T13:05:13Z</time>
      </trkpt>
      <trkpt lat="47.36712" lon="-1.91003">
        <ele>82</ele>
        <time>2015-12-05T13:05:14Z</time>
      </trkpt>
      <trkpt lat="47.36707" lon="-1.91">
        <ele>82</ele>
        <time>2015-12-05T13:05:15Z</time>
      </trkpt>
      <trkpt lat="47.36703" lon="-1.90996">
        <ele>82</ele>
        <time>2015-12-05T13:05:16Z</time>
      </trkpt>
      <trkpt lat="47.36699" lon="-1.90999">
        <ele>82</ele>
        <time>2015-12-05T13:05:17Z</time>
      </trkpt>
      <trkpt lat="47.36694" lon="-1.90999">
        <ele>82</ele>
        <time>2015-12-05T13:05:18Z</time>
      </trkpt>
      <trkpt lat="47.36689" lon="-1.90998">
        <ele>82</ele>
        <time>2015-12-05T13:05:19Z</time>
      </trkpt>
      <trkpt lat="47.36684" lon="-1.90998">
        <ele>82</ele>
        <time>2015-12-05T13:05:20Z</time>
      </trkpt>
      <trkpt lat="47.36678" lon="-1.90997">
        <ele>81</ele>
        <time>2015-12-05T13:05:21Z</time>
      </trkpt>
      <trkpt lat="47.36674" lon="-1.90999">
        <ele>81</ele>
        <time>2015-12-05T13:05:22Z</time>
      </trkpt>
      <trkpt lat="47.36667" lon="-1.91">
        <ele>81</ele>
        <time>2015-12-05T13:05:23Z</time>
      </trkpt>
      <trkpt lat="47.36662" lon="-1.90998">
        <ele>81</ele>
        <time>2015-12-05T13:05:24Z</time>
      </trkpt>
      <trkpt lat="47.36657" lon="-1.90998">
        <ele>81</ele>
        <time>2015-12-05T13:05:25Z</time>
      </trkpt>
      <trkpt lat="47.36652" lon="-1.90998">
        <ele>81</ele>
        <time>2015-12-05T13:05:26Z</time>
      </trkpt>
      <trkpt lat="47.36647" lon="-1.90998">
        <ele>81</ele>
        <time>2015-12-05T13:05:27Z</time>
      </trkpt>
      <trkpt lat="47.36643" lon="-1.91004">
        <ele>80</ele>
        <time>2015-12-05T13:05:28Z</time>
      </trkpt>
      <trkpt lat="47.36639" lon="-1.91009">
        <ele>80</ele>
        <time>2015-12-05T13:05:29Z</time>
      </trkpt>
      <trkpt lat="47.36634" lon="-1.91012">
        <ele>80</ele>
        <time>2015-12-05T13:05:30Z</time>
      </trkpt>
      <trkpt lat="47.3663" lon="-1.91014">
        <ele>79</ele>
        <time>2015-12-05T13:05:31Z</time>
      </trkpt>
      <trkpt lat="47.36625" lon="-1.91017">
        <ele>79</ele>
        <time>2015-12-05T13:05:32Z</time>
      </trkpt>
      <trkpt lat="47.36621" lon="-1.91017">
        <ele>79</ele>
        <time>2015-12-05T13:05:33Z</time>
      </trkpt>
      <trkpt lat="47.36616" lon="-1.91012">
        <ele>79</ele>
        <time>2015-12-05T13:05:34Z</time>
      </trkpt>
      <trkpt lat="47.36612" lon="-1.91008">
        <ele>79</ele>
        <time>2015-12-05T13:05:35Z</time>
      </trkpt>
      <trkpt lat="47.36608" lon="-1.91005">
        <ele>79</ele>
        <time>2015-12-05T13:05:36Z</time>
      </trkpt>
      <trkpt lat="47.36607" lon="-1.90995">
        <ele>80</ele>
        <time>2015-12-05T13:05:37Z</time>
      </trkpt>
      <trkpt lat="47.36605" lon="-1.90988">
        <ele>80</ele>
        <time>2015-12-05T13:05:38Z</time>
      </trkpt>
      <trkpt lat="47.36603" lon="-1.90982">
        <ele>80</ele>
        <time>2015-12-05T13:05:39Z</time>
      </trkpt>
      <trkpt lat="47.36601" lon="-1.90972">
        <ele>80</ele>
        <time>2015-12-05T13:05:40Z</time>
      </trkpt>
      <trkpt lat="47.36599" lon="-1.90962">
        <ele>80</ele>
        <time>2015-12-05T13:05:41Z</time>
      </trkpt>
      <trkpt lat="47.36597" lon="-1.90955">
        <ele>80</ele>
        <time>2015-12-05T13:05:42Z</time>
      </trkpt>
      <trkpt lat="47.36594" lon="-1.90947">
        <ele>80</ele>
        <time>2015-12-05T13:05:43Z</time>
      </trkpt>
      <trkpt lat="47.3659" lon="-1.90944">
        <ele>80</ele>
        <time>2015-12-05T13:05:44Z</time>
      </trkpt>
      <trkpt lat="47.36587" lon="-1.90937">
        <ele>80</ele>
        <time>2015-12-05T13:05:45Z</time>
      </trkpt>
      <trkpt lat="47.36584" lon="-1.90927">
        <ele>80</ele>
        <time>2015-12-05T13:05:46Z</time>
      </trkpt>
      <trkpt lat="47.36581" lon="-1.90919">
        <ele>80</ele>
        <time>2015-12-05T13:05:47Z</time>
      </trkpt>
      <trkpt lat="47.36577" lon="-1.90912">
        <ele>79</ele>
        <time>2015-12-05T13:05:48Z</time>
      </trkpt>
      <trkpt lat="47.36574" lon="-1.90904">
        <ele>79</ele>
        <time>2015-12-05T13:05:49Z</time>
      </trkpt>
      <trkpt lat="47.36571" lon="-1.90897">
        <ele>78</ele>
        <time>2015-12-05T13:05:50Z</time>
      </trkpt>
      <trkpt lat="47.36572" lon="-1.9089">
        <ele>78</ele>
        <time>2015-12-05T13:05:51Z</time>
      </trkpt>
      <trkpt lat="47.36571" lon="-1.9088">
        <ele>78</ele>
        <time>2015-12-05T13:05:52Z</time>
      </trkpt>
      <trkpt lat="47.36569" lon="-1.90872">
        <ele>78</ele>
        <time>2015-12-05T13:05:53Z</time>
      </trkpt>
      <trkpt lat="47.36568" lon="-1.90863">
        <ele>78</ele>
        <time>2015-12-05T13:05:54Z</time>
      </trkpt>
      <trkpt lat="47.36569" lon="-1.90855">
        <ele>79</ele>
        <time>2015-12-05T13:05:55Z</time>
      </trkpt>
      <trkpt lat="47.36569" lon="-1.90846">
        <ele>79</ele>
        <time>2015-12-05T13:05:56Z</time>
      </trkpt>
      <trkpt lat="47.36569" lon="-1.90836">
        <ele>80</ele>
        <time>2015-12-05T13:05:57Z</time>
      </trkpt>
      <trkpt lat="47.36572" lon="-1.90826">
        <ele>80</ele>
        <time>2015-12-05T13:05:58Z</time>
      </trkpt>
      <trkpt lat="47.36573" lon="-1.90816">
        <ele>79</ele>
        <time>2015-12-05T13:05:59Z</time>
      </trkpt>
      <trkpt lat="47.36574" lon="-1.90805">
        <ele>78</ele>
        <time>2015-12-05T13:06:00Z</time>
      </trkpt>
      <trkpt lat="47.36571" lon="-1.90798">
        <ele>78</ele>
        <time>2015-12-05T13:06:01Z</time>
      </trkpt>
      <trkpt lat="47.36571" lon="-1.90785">
        <ele>77</ele>
        <time>2015-12-05T13:06:02Z</time>
      </trkpt>
      <trkpt lat="47.36566" lon="-1.90774">
        <ele>77</ele>
        <time>2015-12-05T13:06:03Z</time>
      </trkpt>
      <trkpt lat="47.36561" lon="-1.90765">
        <ele>77</ele>
        <time>2015-12-05T13:06:04Z</time>
      </trkpt>
      <trkpt lat="47.36555" lon="-1.90756">
        <ele>77</ele>
        <time>2015-12-05T13:06:05Z</time>
      </trkpt>
      <trkpt lat="47.3655" lon="-1.90748">
        <ele>75</ele>
        <time>2015-12-05T13:06:06Z</time>
      </trkpt>
      <trkpt lat="47.36545" lon="-1.90738">
        <ele>74</ele>
        <time>2015-12-05T13:06:07Z</time>
      </trkpt>
      <trkpt lat="47.3654" lon="-1.90728">
        <ele>74</ele>
        <time>2015-12-05T13:06:08Z</time>
      </trkpt>
      <trkpt lat="47.36535" lon="-1.90719">
        <ele>73</ele>
        <time>2015-12-05T13:06:09Z</time>
      </trkpt>
      <trkpt lat="47.3653" lon="-1.90706">
        <ele>73</ele>
        <time>2015-12-05T13:06:10Z</time>
      </trkpt>
      <trkpt lat="47.36526" lon="-1.90696">
        <ele>73</ele>
        <time>2015-12-05T13:06:11Z</time>
      </trkpt>
      <trkpt lat="47.36521" lon="-1.90685">
        <ele>72</ele>
        <time>2015-12-05T13:06:12Z</time>
      </trkpt>
      <trkpt lat="47.36514" lon="-1.90674">
        <ele>71</ele>
        <time>2015-12-05T13:06:13Z</time>
      </trkpt>
      <trkpt lat="47.36509" lon="-1.90664">
        <ele>69</ele>
        <time>2015-12-05T13:06:14Z</time>
      </trkpt>
      <trkpt lat="47.36503" lon="-1.90654">
        <ele>69</ele>
        <time>2015-12-05T13:06:15Z</time>
      </trkpt>
      <trkpt lat="47.36498" lon="-1.90645">
        <ele>67</ele>
        <time>2015-12-05T13:06:16Z</time>
      </trkpt>
      <trkpt lat="47.36492" lon="-1.90636">
        <ele>66</ele>
        <time>2015-12-05T13:06:17Z</time>
      </trkpt>
      <trkpt lat="47.36486" lon="-1.90627">
        <ele>66</ele>
        <time>2015-12-05T13:06:18Z</time>
      </trkpt>
      <trkpt lat="47.3648" lon="-1.90617">
        <ele>66</ele>
        <time>2015-12-05T13:06:19Z</time>
      </trkpt>
      <trkpt lat="47.36474" lon="-1.90607">
        <ele>66</ele>
        <time>2015-12-05T13:06:20Z</time>
      </trkpt>
      <trkpt lat="47.36469" lon="-1.90599">
        <ele>66</ele>
        <time>2015-12-05T13:06:21Z</time>
      </trkpt>
      <trkpt lat="47.36464" lon="-1.9059">
        <ele>66</ele>
        <time>2015-12-05T13:06:22Z</time>
      </trkpt>
      <trkpt lat="47.36459" lon="-1.90581">
        <ele>67</ele>
        <time>2015-12-05T13:06:23Z</time>
      </trkpt>
      <trkpt lat="47.36451" lon="-1.90572">
        <ele>66</ele>
        <time>2015-12-05T13:06:24Z</time>
      </trkpt>
      <trkpt lat="47.36445" lon="-1.90564">
        <ele>66</ele>
        <time>2015-12-05T13:06:25Z</time>
      </trkpt>
      <trkpt lat="47.36439" lon="-1.90555">
        <ele>67</ele>
        <time>2015-12-05T13:06:26Z</time>
      </trkpt>
      <trkpt lat="47.36434" lon="-1.90547">
        <ele>67</ele>
        <time>2015-12-05T13:06:27Z</time>
      </trkpt>
      <trkpt lat="47.36428" lon="-1.90536">
        <ele>67</ele>
        <time>2015-12-05T13:06:28Z</time>
      </trkpt>
      <trkpt lat="47.36416" lon="-1.90519">
        <ele>66</ele>
        <time>2015-12-05T13:06:30Z</time>
      </trkpt>
      <trkpt lat="47.36414" lon="-1.90511">
        <ele>66</ele>
        <time>2015-12-05T13:06:31Z</time>
      </trkpt>
      <trkpt lat="47.36409" lon="-1.90501">
        <ele>67</ele>
        <time>2015-12-05T13:06:32Z</time>
      </trkpt>
      <trkpt lat="47.36403" lon="-1.90492">
        <ele>67</ele>
        <time>2015-12-05T13:06:33Z</time>
      </trkpt>
      <trkpt lat="47.36397" lon="-1.90486">
        <ele>67</ele>
        <time>2015-12-05T13:06:34Z</time>
      </trkpt>
      <trkpt lat="47.36391" lon="-1.90477">
        <ele>67</ele>
        <time>2015-12-05T13:06:35Z</time>
      </trkpt>
      <trkpt lat="47.36386" lon="-1.90469">
        <ele>67</ele>
        <time>2015-12-05T13:06:36Z</time>
      </trkpt>
      <trkpt lat="47.36381" lon="-1.9046">
        <ele>68</ele>
        <time>2015-12-05T13:06:37Z</time>
      </trkpt>
      <trkpt lat="47.36376" lon="-1.90455">
        <ele>68</ele>
        <time>2015-12-05T13:06:38Z</time>
      </trkpt>
      <trkpt lat="47.36371" lon="-1.90447">
        <ele>68</ele>
        <time>2015-12-05T13:06:39Z</time>
      </trkpt>
      <trkpt lat="47.36366" lon="-1.90439">
        <ele>68</ele>
        <time>2015-12-05T13:06:40Z</time>
      </trkpt>
      <trkpt lat="47.36361" lon="-1.90431">
        <ele>68</ele>
        <time>2015-12-05T13:06:41Z</time>
      </trkpt>
      <trkpt lat="47.36356" lon="-1.90423">
        <ele>68</ele>
        <time>2015-12-05T13:06:42Z</time>
      </trkpt>
      <trkpt lat="47.36351" lon="-1.90416">
        <ele>68</ele>
        <time>2015-12-05T13:06:43Z</time>
      </trkpt>
      <trkpt lat="47.36348" lon="-1.9041">
        <ele>68</ele>
        <time>2015-12-05T13:06:44Z</time>
      </trkpt>
      <trkpt lat="47.36344" lon="-1.90402">
        <ele>68</ele>
        <time>2015-12-05T13:06:45Z</time>
      </trkpt>
      <trkpt lat="47.36339" lon="-1.90396">
        <ele>69</ele>
        <time>2015-12-05T13:06:46Z</time>
      </trkpt>
      <trkpt lat="47.36335" lon="-1.90387">
        <ele>69</ele>
        <time>2015-12-05T13:06:47Z</time>
      </trkpt>
      <trkpt lat="47.36331" lon="-1.90381">
        <ele>70</ele>
        <time>2015-12-05T13:06:48Z</time>
      </trkpt>
      <trkpt lat="47.36327" lon="-1.90374">
        <ele>70</ele>
        <time>2015-12-05T13:06:49Z</time>
      </trkpt>
      <trkpt lat="47.36322" lon="-1.90367">
        <ele>70</ele>
        <time>2015-12-05T13:06:50Z</time>
      </trkpt>
      <trkpt lat="47.36319" lon="-1.90362">
        <ele>70</ele>
        <time>2015-12-05T13:06:51Z</time>
      </trkpt>
      <trkpt lat="47.36315" lon="-1.90356">
        <ele>70</ele>
        <time>2015-12-05T13:06:52Z</time>
      </trkpt>
      <trkpt lat="47.36311" lon="-1.90349">
        <ele>70</ele>
        <time>2015-12-05T13:06:53Z</time>
      </trkpt>
      <trkpt lat="47.36305" lon="-1.90342">
        <ele>70</ele>
        <time>2015-12-05T13:06:54Z</time>
      </trkpt>
      <trkpt lat="47.36301" lon="-1.90336">
        <ele>70</ele>
        <time>2015-12-05T13:06:55Z</time>
      </trkpt>
      <trkpt lat="47.36296" lon="-1.90331">
        <ele>70</ele>
        <time>2015-12-05T13:06:56Z</time>
      </trkpt>
      <trkpt lat="47.3629" lon="-1.90322">
        <ele>70</ele>
        <time>2015-12-05T13:06:57Z</time>
      </trkpt>
      <trkpt lat="47.36285" lon="-1.90315">
        <ele>70</ele>
        <time>2015-12-05T13:06:58Z</time>
      </trkpt>
      <trkpt lat="47.36281" lon="-1.90309">
        <ele>70</ele>
        <time>2015-12-05T13:06:59Z</time>
      </trkpt>
      <trkpt lat="47.36277" lon="-1.90303">
        <ele>70</ele>
        <time>2015-12-05T13:07:00Z</time>
      </trkpt>
      <trkpt lat="47.36273" lon="-1.90294">
        <ele>70</ele>
        <time>2015-12-05T13:07:01Z</time>
      </trkpt>
      <trkpt lat="47.36269" lon="-1.90288">
        <ele>70</ele>
        <time>2015-12-05T13:07:02Z</time>
      </trkpt>
      <trkpt lat="47.36265" lon="-1.90282">
        <ele>70</ele>
        <time>2015-12-05T13:07:03Z</time>
      </trkpt>
      <trkpt lat="47.36264" lon="-1.90274">
        <ele>70</ele>
        <time>2015-12-05T13:07:04Z</time>
      </trkpt>
      <trkpt lat="47.36261" lon="-1.90268">
        <ele>70</ele>
        <time>2015-12-05T13:07:05Z</time>
      </trkpt>
      <trkpt lat="47.36257" lon="-1.90262">
        <ele>70</ele>
        <time>2015-12-05T13:07:06Z</time>
      </trkpt>
      <trkpt lat="47.36253" lon="-1.90257">
        <ele>70</ele>
        <time>2015-12-05T13:07:07Z</time>
      </trkpt>
      <trkpt lat="47.36249" lon="-1.90251">
        <ele>70</ele>
        <time>2015-12-05T13:07:08Z</time>
      </trkpt>
      <trkpt lat="47.36245" lon="-1.90245">
        <ele>71</ele>
        <time>2015-12-05T13:07:09Z</time>
      </trkpt>
      <trkpt lat="47.36242" lon="-1.9024">
        <ele>71</ele>
        <time>2015-12-05T13:07:10Z</time>
      </trkpt>
      <trkpt lat="47.36237" lon="-1.90229">
        <ele>72</ele>
        <time>2015-12-05T13:07:11Z</time>
      </trkpt>
      <trkpt lat="47.36234" lon="-1.90225">
        <ele>72</ele>
        <time>2015-12-05T13:07:12Z</time>
      </trkpt>
      <trkpt lat="47.3623" lon="-1.9022">
        <ele>72</ele>
        <time>2015-12-05T13:07:13Z</time>
      </trkpt>
      <trkpt lat="47.36227" lon="-1.90214">
        <ele>72</ele>
        <time>2015-12-05T13:07:14Z</time>
      </trkpt>
      <trkpt lat="47.36223" lon="-1.90209">
        <ele>72</ele>
        <time>2015-12-05T13:07:15Z</time>
      </trkpt>
      <trkpt lat="47.3622" lon="-1.90203">
        <ele>72</ele>
        <time>2015-12-05T13:07:16Z</time>
      </trkpt>
      <trkpt lat="47.36216" lon="-1.90202">
        <ele>73</ele>
        <time>2015-12-05T13:07:17Z</time>
      </trkpt>
      <trkpt lat="47.36212" lon="-1.90197">
        <ele>73</ele>
        <time>2015-12-05T13:07:18Z</time>
      </trkpt>
      <trkpt lat="47.36208" lon="-1.90192">
        <ele>73</ele>
        <time>2015-12-05T13:07:19Z</time>
      </trkpt>
      <trkpt lat="47.36203" lon="-1.9019">
        <ele>73</ele>
        <time>2015-12-05T13:07:20Z</time>
      </trkpt>
      <trkpt lat="47.36199" lon="-1.90187">
        <ele>73</ele>
        <time>2015-12-05T13:07:21Z</time>
      </trkpt>
      <trkpt lat="47.36194" lon="-1.90184">
        <ele>74</ele>
        <time>2015-12-05T13:07:22Z</time>
      </trkpt>
      <trkpt lat="47.36189" lon="-1.9018">
        <ele>74</ele>
        <time>2015-12-05T13:07:23Z</time>
      </trkpt>
      <trkpt lat="47.36185" lon="-1.90178">
        <ele>74</ele>
        <time>2015-12-05T13:07:24Z</time>
      </trkpt>
      <trkpt lat="47.3618" lon="-1.90177">
        <ele>74</ele>
        <time>2015-12-05T13:07:25Z</time>
      </trkpt>
      <trkpt lat="47.36175" lon="-1.90175">
        <ele>75</ele>
        <time>2015-12-05T13:07:26Z</time>
      </trkpt>
      <trkpt lat="47.3617" lon="-1.90174">
        <ele>75</ele>
        <time>2015-12-05T13:07:27Z</time>
      </trkpt>
      <trkpt lat="47.36167" lon="-1.90169">
        <ele>76</ele>
        <time>2015-12-05T13:07:28Z</time>
      </trkpt>
      <trkpt lat="47.36164" lon="-1.90167">
        <ele>76</ele>
        <time>2015-12-05T13:07:29Z</time>
      </trkpt>
      <trkpt lat="47.3616" lon="-1.90165">
        <ele>77</ele>
        <time>2015-12-05T13:07:30Z</time>
      </trkpt>
      <trkpt lat="47.36161" lon="-1.90171">
        <ele>76</ele>
        <time>2015-12-05T13:07:31Z</time>
      </trkpt>
      <trkpt lat="47.36158" lon="-1.9017">
        <ele>76</ele>
        <time>2015-12-05T13:07:32Z</time>
      </trkpt>
      <trkpt lat="47.36155" lon="-1.9017">
        <ele>77</ele>
        <time>2015-12-05T13:07:33Z</time>
      </trkpt>
      <trkpt lat="47.36152" lon="-1.90169">
        <ele>77</ele>
        <time>2015-12-05T13:07:34Z</time>
      </trkpt>
      <trkpt lat="47.36148" lon="-1.90165">
        <ele>77</ele>
        <time>2015-12-05T13:07:35Z</time>
      </trkpt>
      <trkpt lat="47.36144" lon="-1.90164">
        <ele>77</ele>
        <time>2015-12-05T13:07:36Z</time>
      </trkpt>
      <trkpt lat="47.36141" lon="-1.90164">
        <ele>77</ele>
        <time>2015-12-05T13:07:37Z</time>
      </trkpt>
      <trkpt lat="47.36135" lon="-1.90167">
        <ele>77</ele>
        <time>2015-12-05T13:07:38Z</time>
      </trkpt>
      <trkpt lat="47.36132" lon="-1.90165">
        <ele>78</ele>
        <time>2015-12-05T13:07:40Z</time>
      </trkpt>
      <trkpt lat="47.36129" lon="-1.90163">
        <ele>78</ele>
        <time>2015-12-05T13:07:41Z</time>
      </trkpt>
      <trkpt lat="47.3612" lon="-1.90162">
        <ele>78</ele>
        <time>2015-12-05T13:07:43Z</time>
      </trkpt>
      <trkpt lat="47.36117" lon="-1.90159">
        <ele>78</ele>
        <time>2015-12-05T13:07:45Z</time>
      </trkpt>
      <trkpt lat="47.36113" lon="-1.90157">
        <ele>78</ele>
        <time>2015-12-05T13:07:46Z</time>
      </trkpt>
      <trkpt lat="47.36108" lon="-1.90157">
        <ele>79</ele>
        <time>2015-12-05T13:07:48Z</time>
      </trkpt>
      <trkpt lat="47.36106" lon="-1.90161">
        <ele>79</ele>
        <time>2015-12-05T13:07:49Z</time>
      </trkpt>
      <trkpt lat="47.36103" lon="-1.90164">
        <ele>79</ele>
        <time>2015-12-05T13:07:52Z</time>
      </trkpt>
      <trkpt lat="47.361" lon="-1.90162">
        <ele>79</ele>
        <time>2015-12-05T13:07:54Z</time>
      </trkpt>
      <trkpt lat="47.361" lon="-1.90168">
        <ele>79</ele>
        <time>2015-12-05T13:07:55Z</time>
      </trkpt>
      <trkpt lat="47.36102" lon="-1.90172">
        <ele>79</ele>
        <time>2015-12-05T13:07:56Z</time>
      </trkpt>
      <trkpt lat="47.36102" lon="-1.90179">
        <ele>78</ele>
        <time>2015-12-05T13:07:57Z</time>
      </trkpt>
      <trkpt lat="47.36104" lon="-1.90183">
        <ele>78</ele>
        <time>2015-12-05T13:07:58Z</time>
      </trkpt>
      <trkpt lat="47.36105" lon="-1.90189">
        <ele>78</ele>
        <time>2015-12-05T13:07:59Z</time>
      </trkpt>
      <trkpt lat="47.36106" lon="-1.90194">
        <ele>78</ele>
        <time>2015-12-05T13:08:00Z</time>
      </trkpt>
      <trkpt lat="47.36108" lon="-1.902">
        <ele>78</ele>
        <time>2015-12-05T13:08:01Z</time>
      </trkpt>
      <trkpt lat="47.36109" lon="-1.90207">
        <ele>78</ele>
        <time>2015-12-05T13:08:02Z</time>
      </trkpt>
      <trkpt lat="47.36112" lon="-1.90212">
        <ele>78</ele>
        <time>2015-12-05T13:08:03Z</time>
      </trkpt>
      <trkpt lat="47.36115" lon="-1.90218">
        <ele>77</ele>
        <time>2015-12-05T13:08:04Z</time>
      </trkpt>
      <trkpt lat="47.36116" lon="-1.90226">
        <ele>77</ele>
        <time>2015-12-05T13:08:05Z</time>
      </trkpt>
      <trkpt lat="47.36118" lon="-1.90234">
        <ele>77</ele>
        <time>2015-12-05T13:08:06Z</time>
      </trkpt>
      <trkpt lat="47.36119" lon="-1.90239">
        <ele>77</ele>
        <time>2015-12-05T13:08:07Z</time>
      </trkpt>
      <trkpt lat="47.36121" lon="-1.90247">
        <ele>77</ele>
        <time>2015-12-05T13:08:08Z</time>
      </trkpt>
      <trkpt lat="47.36123" lon="-1.90253">
        <ele>76</ele>
        <time>2015-12-05T13:08:09Z</time>
      </trkpt>
      <trkpt lat="47.36123" lon="-1.9026">
        <ele>76</ele>
        <time>2015-12-05T13:08:10Z</time>
      </trkpt>
      <trkpt lat="47.36123" lon="-1.90265">
        <ele>76</ele>
        <time>2015-12-05T13:08:11Z</time>
      </trkpt>
      <trkpt lat="47.36124" lon="-1.9027">
        <ele>76</ele>
        <time>2015-12-05T13:08:12Z</time>
      </trkpt>
      <trkpt lat="47.36126" lon="-1.90285">
        <ele>76</ele>
        <time>2015-12-05T13:08:13Z</time>
      </trkpt>
      <trkpt lat="47.36126" lon="-1.90296">
        <ele>76</ele>
        <time>2015-12-05T13:08:14Z</time>
      </trkpt>
      <trkpt lat="47.36125" lon="-1.90303">
        <ele>76</ele>
        <time>2015-12-05T13:08:15Z</time>
      </trkpt>
      <trkpt lat="47.36126" lon="-1.9031">
        <ele>76</ele>
        <time>2015-12-05T13:08:16Z</time>
      </trkpt>
      <trkpt lat="47.36127" lon="-1.90316">
        <ele>76</ele>
        <time>2015-12-05T13:08:17Z</time>
      </trkpt>
      <trkpt lat="47.36126" lon="-1.90323">
        <ele>76</ele>
        <time>2015-12-05T13:08:18Z</time>
      </trkpt>
      <trkpt lat="47.36128" lon="-1.9033">
        <ele>75</ele>
        <time>2015-12-05T13:08:19Z</time>
      </trkpt>
      <trkpt lat="47.3613" lon="-1.90341">
        <ele>75</ele>
        <time>2015-12-05T13:08:20Z</time>
      </trkpt>
      <trkpt lat="47.36131" lon="-1.90351">
        <ele>75</ele>
        <time>2015-12-05T13:08:21Z</time>
      </trkpt>
      <trkpt lat="47.36134" lon="-1.90358">
        <ele>75</ele>
        <time>2015-12-05T13:08:22Z</time>
      </trkpt>
      <trkpt lat="47.36135" lon="-1.90368">
        <ele>75</ele>
        <time>2015-12-05T13:08:23Z</time>
      </trkpt>
      <trkpt lat="47.36136" lon="-1.90377">
        <ele>74</ele>
        <time>2015-12-05T13:08:24Z</time>
      </trkpt>
      <trkpt lat="47.36138" lon="-1.90386">
        <ele>74</ele>
        <time>2015-12-05T13:08:25Z</time>
      </trkpt>
      <trkpt lat="47.3614" lon="-1.90395">
        <ele>74</ele>
        <time>2015-12-05T13:08:26Z</time>
      </trkpt>
      <trkpt lat="47.36142" lon="-1.90404">
        <ele>74</ele>
        <time>2015-12-05T13:08:27Z</time>
      </trkpt>
      <trkpt lat="47.36143" lon="-1.90411">
        <ele>74</ele>
        <time>2015-12-05T13:08:28Z</time>
      </trkpt>
      <trkpt lat="47.36144" lon="-1.9042">
        <ele>74</ele>
        <time>2015-12-05T13:08:29Z</time>
      </trkpt>
      <trkpt lat="47.36148" lon="-1.90421">
        <ele>74</ele>
        <time>2015-12-05T13:08:30Z</time>
      </trkpt>
      <trkpt lat="47.3615" lon="-1.90427">
        <ele>74</ele>
        <time>2015-12-05T13:08:31Z</time>
      </trkpt>
      <trkpt lat="47.36151" lon="-1.90437">
        <ele>74</ele>
        <time>2015-12-05T13:08:32Z</time>
      </trkpt>
      <trkpt lat="47.36152" lon="-1.90448">
        <ele>74</ele>
        <time>2015-12-05T13:08:33Z</time>
      </trkpt>
      <trkpt lat="47.36155" lon="-1.90464">
        <ele>74</ele>
        <time>2015-12-05T13:08:35Z</time>
      </trkpt>
      <trkpt lat="47.36163" lon="-1.90474">
        <ele>74</ele>
        <time>2015-12-05T13:08:36Z</time>
      </trkpt>
      <trkpt lat="47.36162" lon="-1.90484">
        <ele>74</ele>
        <time>2015-12-05T13:08:37Z</time>
      </trkpt>
      <trkpt lat="47.3616" lon="-1.90492">
        <ele>74</ele>
        <time>2015-12-05T13:08:38Z</time>
      </trkpt>
      <trkpt lat="47.3616" lon="-1.905">
        <ele>74</ele>
        <time>2015-12-05T13:08:39Z</time>
      </trkpt>
      <trkpt lat="47.36163" lon="-1.90508">
        <ele>74</ele>
        <time>2015-12-05T13:08:40Z</time>
      </trkpt>
      <trkpt lat="47.36164" lon="-1.90516">
        <ele>74</ele>
        <time>2015-12-05T13:08:41Z</time>
      </trkpt>
      <trkpt lat="47.36166" lon="-1.90527">
        <ele>74</ele>
        <time>2015-12-05T13:08:43Z</time>
      </trkpt>
      <trkpt lat="47.36167" lon="-1.90532">
        <ele>74</ele>
        <time>2015-12-05T13:08:44Z</time>
      </trkpt>
      <trkpt lat="47.36168" lon="-1.90539">
        <ele>74</ele>
        <time>2015-12-05T13:08:45Z</time>
      </trkpt>
      <trkpt lat="47.36168" lon="-1.90557">
        <ele>75</ele>
        <time>2015-12-05T13:08:46Z</time>
      </trkpt>
      <trkpt lat="47.36171" lon="-1.90564">
        <ele>75</ele>
        <time>2015-12-05T13:08:47Z</time>
      </trkpt>
      <trkpt lat="47.3617" lon="-1.90572">
        <ele>75</ele>
        <time>2015-12-05T13:08:48Z</time>
      </trkpt>
      <trkpt lat="47.3617" lon="-1.9058">
        <ele>75</ele>
        <time>2015-12-05T13:08:49Z</time>
      </trkpt>
      <trkpt lat="47.36171" lon="-1.90587">
        <ele>75</ele>
        <time>2015-12-05T13:08:50Z</time>
      </trkpt>
      <trkpt lat="47.36176" lon="-1.90601">
        <ele>75</ele>
        <time>2015-12-05T13:08:52Z</time>
      </trkpt>
      <trkpt lat="47.36178" lon="-1.9061">
        <ele>75</ele>
        <time>2015-12-05T13:08:53Z</time>
      </trkpt>
      <trkpt lat="47.36181" lon="-1.90617">
        <ele>75</ele>
        <time>2015-12-05T13:08:54Z</time>
      </trkpt>
      <trkpt lat="47.36182" lon="-1.90626">
        <ele>75</ele>
        <time>2015-12-05T13:08:55Z</time>
      </trkpt>
      <trkpt lat="47.36185" lon="-1.90635">
        <ele>75</ele>
        <time>2015-12-05T13:08:56Z</time>
      </trkpt>
      <trkpt lat="47.36185" lon="-1.90643">
        <ele>75</ele>
        <time>2015-12-05T13:08:57Z</time>
      </trkpt>
      <trkpt lat="47.36185" lon="-1.90651">
        <ele>75</ele>
        <time>2015-12-05T13:08:58Z</time>
      </trkpt>
      <trkpt lat="47.36186" lon="-1.90656">
        <ele>75</ele>
        <time>2015-12-05T13:08:59Z</time>
      </trkpt>
      <trkpt lat="47.36189" lon="-1.90664">
        <ele>75</ele>
        <time>2015-12-05T13:09:00Z</time>
      </trkpt>
      <trkpt lat="47.36187" lon="-1.90669">
        <ele>74</ele>
        <time>2015-12-05T13:09:01Z</time>
      </trkpt>
      <trkpt lat="47.36187" lon="-1.90674">
        <ele>74</ele>
        <time>2015-12-05T13:09:02Z</time>
      </trkpt>
      <trkpt lat="47.36194" lon="-1.90685">
        <ele>74</ele>
        <time>2015-12-05T13:09:03Z</time>
      </trkpt>
      <trkpt lat="47.36196" lon="-1.90695">
        <ele>73</ele>
        <time>2015-12-05T13:09:04Z</time>
      </trkpt>
      <trkpt lat="47.36197" lon="-1.90702">
        <ele>73</ele>
        <time>2015-12-05T13:09:05Z</time>
      </trkpt>
      <trkpt lat="47.36199" lon="-1.90709">
        <ele>73</ele>
        <time>2015-12-05T13:09:06Z</time>
      </trkpt>
      <trkpt lat="47.362" lon="-1.90716">
        <ele>73</ele>
        <time>2015-12-05T13:09:07Z</time>
      </trkpt>
      <trkpt lat="47.36196" lon="-1.90722">
        <ele>73</ele>
        <time>2015-12-05T13:09:08Z</time>
      </trkpt>
      <trkpt lat="47.36197" lon="-1.90729">
        <ele>73</ele>
        <time>2015-12-05T13:09:09Z</time>
      </trkpt>
      <trkpt lat="47.36198" lon="-1.90736">
        <ele>73</ele>
        <time>2015-12-05T13:09:10Z</time>
      </trkpt>
      <trkpt lat="47.36204" lon="-1.90752">
        <ele>70</ele>
        <time>2015-12-05T13:09:11Z</time>
      </trkpt>
      <trkpt lat="47.36206" lon="-1.90759">
        <ele>70</ele>
        <time>2015-12-05T13:09:12Z</time>
      </trkpt>
      <trkpt lat="47.36207" lon="-1.90763">
        <ele>70</ele>
        <time>2015-12-05T13:09:13Z</time>
      </trkpt>
      <trkpt lat="47.36209" lon="-1.90769">
        <ele>70</ele>
        <time>2015-12-05T13:09:14Z</time>
      </trkpt>
      <trkpt lat="47.3621" lon="-1.90774">
        <ele>70</ele>
        <time>2015-12-05T13:09:15Z</time>
      </trkpt>
      <trkpt lat="47.36212" lon="-1.9078">
        <ele>70</ele>
        <time>2015-12-05T13:09:16Z</time>
      </trkpt>
      <trkpt lat="47.36212" lon="-1.90785">
        <ele>70</ele>
        <time>2015-12-05T13:09:17Z</time>
      </trkpt>
      <trkpt lat="47.36213" lon="-1.90793">
        <ele>70</ele>
        <time>2015-12-05T13:09:18Z</time>
      </trkpt>
      <trkpt lat="47.36214" lon="-1.90798">
        <ele>70</ele>
        <time>2015-12-05T13:09:19Z</time>
      </trkpt>
      <trkpt lat="47.36217" lon="-1.90804">
        <ele>70</ele>
        <time>2015-12-05T13:09:20Z</time>
      </trkpt>
      <trkpt lat="47.36217" lon="-1.90808">
        <ele>69</ele>
        <time>2015-12-05T13:09:22Z</time>
      </trkpt>
      <trkpt lat="47.36219" lon="-1.90806">
        <ele>70</ele>
        <time>2015-12-05T13:09:27Z</time>
      </trkpt>
      <trkpt lat="47.36223" lon="-1.90803">
        <ele>70</ele>
        <time>2015-12-05T13:09:29Z</time>
      </trkpt>
      <trkpt lat="47.36226" lon="-1.908">
        <ele>70</ele>
        <time>2015-12-05T13:09:31Z</time>
      </trkpt>
      <trkpt lat="47.36228" lon="-1.90793">
        <ele>70</ele>
        <time>2015-12-05T13:09:32Z</time>
      </trkpt>
      <trkpt lat="47.36229" lon="-1.90788">
        <ele>70</ele>
        <time>2015-12-05T13:09:34Z</time>
      </trkpt>
      <trkpt lat="47.36228" lon="-1.90783">
        <ele>70</ele>
        <time>2015-12-05T13:09:36Z</time>
      </trkpt>
      <trkpt lat="47.36226" lon="-1.90778">
        <ele>70</ele>
        <time>2015-12-05T13:09:38Z</time>
      </trkpt>
      <trkpt lat="47.36226" lon="-1.90772">
        <ele>70</ele>
        <time>2015-12-05T13:09:40Z</time>
      </trkpt>
      <trkpt lat="47.36225" lon="-1.90764">
        <ele>70</ele>
        <time>2015-12-05T13:09:42Z</time>
      </trkpt>
      <trkpt lat="47.36224" lon="-1.90761">
        <ele>70</ele>
        <time>2015-12-05T13:09:43Z</time>
      </trkpt>
      <trkpt lat="47.36223" lon="-1.90757">
        <ele>70</ele>
        <time>2015-12-05T13:09:44Z</time>
      </trkpt>
      <trkpt lat="47.36221" lon="-1.9075">
        <ele>70</ele>
        <time>2015-12-05T13:09:46Z</time>
      </trkpt>
      <trkpt lat="47.36217" lon="-1.90745">
        <ele>72</ele>
        <time>2015-12-05T13:09:48Z</time>
      </trkpt>
      <trkpt lat="47.36216" lon="-1.90741">
        <ele>72</ele>
        <time>2015-12-05T13:09:49Z</time>
      </trkpt>
      <trkpt lat="47.36214" lon="-1.90737">
        <ele>72</ele>
        <time>2015-12-05T13:09:50Z</time>
      </trkpt>
      <trkpt lat="47.36215" lon="-1.90733">
        <ele>73</ele>
        <time>2015-12-05T13:09:51Z</time>
      </trkpt>
      <trkpt lat="47.36216" lon="-1.90726">
        <ele>73</ele>
        <time>2015-12-05T13:09:53Z</time>
      </trkpt>
      <trkpt lat="47.36216" lon="-1.90718">
        <ele>73</ele>
        <time>2015-12-05T13:09:55Z</time>
      </trkpt>
      <trkpt lat="47.36215" lon="-1.90714">
        <ele>73</ele>
        <time>2015-12-05T13:09:56Z</time>
      </trkpt>
      <trkpt lat="47.36215" lon="-1.90706">
        <ele>73</ele>
        <time>2015-12-05T13:09:58Z</time>
      </trkpt>
      <trkpt lat="47.36214" lon="-1.90701">
        <ele>73</ele>
        <time>2015-12-05T13:09:59Z</time>
      </trkpt>
      <trkpt lat="47.36215" lon="-1.90697">
        <ele>73</ele>
        <time>2015-12-05T13:10:00Z</time>
      </trkpt>
      <trkpt lat="47.36215" lon="-1.90693">
        <ele>73</ele>
        <time>2015-12-05T13:10:01Z</time>
      </trkpt>
      <trkpt lat="47.36216" lon="-1.90689">
        <ele>73</ele>
        <time>2015-12-05T13:10:02Z</time>
      </trkpt>
      <trkpt lat="47.36216" lon="-1.90683">
        <ele>73</ele>
        <time>2015-12-05T13:10:04Z</time>
      </trkpt>
      <trkpt lat="47.36215" lon="-1.90677">
        <ele>73</ele>
        <time>2015-12-05T13:10:06Z</time>
      </trkpt>
      <trkpt lat="47.36214" lon="-1.9067">
        <ele>74</ele>
        <time>2015-12-05T13:10:08Z</time>
      </trkpt>
      <trkpt lat="47.36212" lon="-1.90664">
        <ele>75</ele>
        <time>2015-12-05T13:10:10Z</time>
      </trkpt>
      <trkpt lat="47.36211" lon="-1.90656">
        <ele>75</ele>
        <time>2015-12-05T13:10:12Z</time>
      </trkpt>
      <trkpt lat="47.3621" lon="-1.90652">
        <ele>75</ele>
        <time>2015-12-05T13:10:13Z</time>
      </trkpt>
      <trkpt lat="47.36207" lon="-1.90646">
        <ele>75</ele>
        <time>2015-12-05T13:10:15Z</time>
      </trkpt>
      <trkpt lat="47.36205" lon="-1.90643">
        <ele>75</ele>
        <time>2015-12-05T13:10:16Z</time>
      </trkpt>
      <trkpt lat="47.36202" lon="-1.9064">
        <ele>75</ele>
        <time>2015-12-05T13:10:17Z</time>
      </trkpt>
      <trkpt lat="47.36199" lon="-1.90635">
        <ele>75</ele>
        <time>2015-12-05T13:10:19Z</time>
      </trkpt>
      <trkpt lat="47.36197" lon="-1.90629">
        <ele>75</ele>
        <time>2015-12-05T13:10:21Z</time>
      </trkpt>
      <trkpt lat="47.36196" lon="-1.90624">
        <ele>75</ele>
        <time>2015-12-05T13:10:23Z</time>
      </trkpt>
      <trkpt lat="47.36195" lon="-1.90618">
        <ele>75</ele>
        <time>2015-12-05T13:10:25Z</time>
      </trkpt>
      <trkpt lat="47.36193" lon="-1.90614">
        <ele>75</ele>
        <time>2015-12-05T13:10:27Z</time>
      </trkpt>
      <trkpt lat="47.36191" lon="-1.90608">
        <ele>75</ele>
        <time>2015-12-05T13:10:29Z</time>
      </trkpt>
      <trkpt lat="47.36192" lon="-1.90602">
        <ele>75</ele>
        <time>2015-12-05T13:10:31Z</time>
      </trkpt>
      <trkpt lat="47.36195" lon="-1.90603">
        <ele>75</ele>
        <time>2015-12-05T13:10:34Z</time>
      </trkpt>
      <trkpt lat="47.36199" lon="-1.90605">
        <ele>75</ele>
        <time>2015-12-05T13:10:37Z</time>
      </trkpt>
      <trkpt lat="47.36202" lon="-1.90601">
        <ele>75</ele>
        <time>2015-12-05T13:10:39Z</time>
      </trkpt>
      <trkpt lat="47.36203" lon="-1.90594">
        <ele>75</ele>
        <time>2015-12-05T13:10:41Z</time>
      </trkpt>
      <trkpt lat="47.36204" lon="-1.90589">
        <ele>75</ele>
        <time>2015-12-05T13:10:44Z</time>
      </trkpt>
      <trkpt lat="47.36206" lon="-1.90587">
        <ele>75</ele>
        <time>2015-12-05T13:10:46Z</time>
      </trkpt>
      <trkpt lat="47.3621" lon="-1.90586">
        <ele>75</ele>
        <time>2015-12-05T13:10:48Z</time>
      </trkpt>
      <trkpt lat="47.36212" lon="-1.90586">
        <ele>75</ele>
        <time>2015-12-05T13:10:49Z</time>
      </trkpt>
      <trkpt lat="47.36215" lon="-1.90584">
        <ele>75</ele>
        <time>2015-12-05T13:10:50Z</time>
      </trkpt>
      <trkpt lat="47.36219" lon="-1.9058">
        <ele>75</ele>
        <time>2015-12-05T13:10:52Z</time>
      </trkpt>
      <trkpt lat="47.3622" lon="-1.90574">
        <ele>75</ele>
        <time>2015-12-05T13:10:54Z</time>
      </trkpt>
      <trkpt lat="47.36223" lon="-1.9057">
        <ele>75</ele>
        <time>2015-12-05T13:10:56Z</time>
      </trkpt>
      <trkpt lat="47.36226" lon="-1.90568">
        <ele>75</ele>
        <time>2015-12-05T13:10:58Z</time>
      </trkpt>
      <trkpt lat="47.36229" lon="-1.90565">
        <ele>75</ele>
        <time>2015-12-05T13:11:01Z</time>
      </trkpt>
      <trkpt lat="47.36233" lon="-1.90561">
        <ele>75</ele>
        <time>2015-12-05T13:11:03Z</time>
      </trkpt>
      <trkpt lat="47.36237" lon="-1.90555">
        <ele>75</ele>
        <time>2015-12-05T13:11:05Z</time>
      </trkpt>
      <trkpt lat="47.36239" lon="-1.90552">
        <ele>75</ele>
        <time>2015-12-05T13:11:06Z</time>
      </trkpt>
      <trkpt lat="47.36242" lon="-1.90543">
        <ele>75</ele>
        <time>2015-12-05T13:11:07Z</time>
      </trkpt>
      <trkpt lat="47.36244" lon="-1.90539">
        <ele>74</ele>
        <time>2015-12-05T13:11:08Z</time>
      </trkpt>
      <trkpt lat="47.36248" lon="-1.90535">
        <ele>74</ele>
        <time>2015-12-05T13:11:09Z</time>
      </trkpt>
      <trkpt lat="47.36251" lon="-1.90533">
        <ele>72</ele>
        <time>2015-12-05T13:11:10Z</time>
      </trkpt>
      <trkpt lat="47.36254" lon="-1.9053">
        <ele>72</ele>
        <time>2015-12-05T13:11:11Z</time>
      </trkpt>
      <trkpt lat="47.36256" lon="-1.90528">
        <ele>72</ele>
        <time>2015-12-05T13:11:12Z</time>
      </trkpt>
      <trkpt lat="47.3626" lon="-1.90525">
        <ele>72</ele>
        <time>2015-12-05T13:11:14Z</time>
      </trkpt>
      <trkpt lat="47.36264" lon="-1.90521">
        <ele>71</ele>
        <time>2015-12-05T13:11:16Z</time>
      </trkpt>
      <trkpt lat="47.36268" lon="-1.90521">
        <ele>71</ele>
        <time>2015-12-05T13:11:18Z</time>
      </trkpt>
      <trkpt lat="47.3627" lon="-1.90518">
        <ele>71</ele>
        <time>2015-12-05T13:11:23Z</time>
      </trkpt>
      <trkpt lat="47.36275" lon="-1.90521">
        <ele>71</ele>
        <time>2015-12-05T13:11:35Z</time>
      </trkpt>
      <trkpt lat="47.36277" lon="-1.90525">
        <ele>71</ele>
        <time>2015-12-05T13:11:37Z</time>
      </trkpt>
      <trkpt lat="47.36277" lon="-1.90529">
        <ele>71</ele>
        <time>2015-12-05T13:11:38Z</time>
      </trkpt>
      <trkpt lat="47.36279" lon="-1.90536">
        <ele>70</ele>
        <time>2015-12-05T13:11:40Z</time>
      </trkpt>
      <trkpt lat="47.36282" lon="-1.90541">
        <ele>70</ele>
        <time>2015-12-05T13:11:42Z</time>
      </trkpt>
      <trkpt lat="47.36286" lon="-1.90544">
        <ele>70</ele>
        <time>2015-12-05T13:11:44Z</time>
      </trkpt>
      <trkpt lat="47.36286" lon="-1.90548">
        <ele>70</ele>
        <time>2015-12-05T13:11:45Z</time>
      </trkpt>
      <trkpt lat="47.36286" lon="-1.90555">
        <ele>70</ele>
        <time>2015-12-05T13:11:47Z</time>
      </trkpt>
      <trkpt lat="47.36286" lon="-1.90561">
        <ele>70</ele>
        <time>2015-12-05T13:11:49Z</time>
      </trkpt>
      <trkpt lat="47.36289" lon="-1.90563">
        <ele>70</ele>
        <time>2015-12-05T13:11:52Z</time>
      </trkpt>
      <trkpt lat="47.36292" lon="-1.90562">
        <ele>70</ele>
        <time>2015-12-05T13:11:58Z</time>
      </trkpt>
      <trkpt lat="47.36292" lon="-1.90557">
        <ele>70</ele>
        <time>2015-12-05T13:12:01Z</time>
      </trkpt>
      <trkpt lat="47.36289" lon="-1.90555">
        <ele>70</ele>
        <time>2015-12-05T13:12:04Z</time>
      </trkpt>
      <trkpt lat="47.36286" lon="-1.90551">
        <ele>70</ele>
        <time>2015-12-05T13:12:06Z</time>
      </trkpt>
      <trkpt lat="47.36284" lon="-1.90548">
        <ele>70</ele>
        <time>2015-12-05T13:12:08Z</time>
      </trkpt>
      <trkpt lat="47.36283" lon="-1.90542">
        <ele>70</ele>
        <time>2015-12-05T13:12:10Z</time>
      </trkpt>
      <trkpt lat="47.36282" lon="-1.90536">
        <ele>70</ele>
        <time>2015-12-05T13:12:12Z</time>
      </trkpt>
      <trkpt lat="47.36281" lon="-1.9053">
        <ele>70</ele>
        <time>2015-12-05T13:12:14Z</time>
      </trkpt>
      <trkpt lat="47.3628" lon="-1.90525">
        <ele>71</ele>
        <time>2015-12-05T13:12:16Z</time>
      </trkpt>
      <trkpt lat="47.36278" lon="-1.90518">
        <ele>71</ele>
        <time>2015-12-05T13:12:18Z</time>
      </trkpt>
      <trkpt lat="47.36277" lon="-1.90512">
        <ele>71</ele>
        <time>2015-12-05T13:12:20Z</time>
      </trkpt>
      <trkpt lat="47.36276" lon="-1.90508">
        <ele>71</ele>
        <time>2015-12-05T13:12:22Z</time>
      </trkpt>
      <trkpt lat="47.36272" lon="-1.90504">
        <ele>71</ele>
        <time>2015-12-05T13:12:24Z</time>
      </trkpt>
      <trkpt lat="47.3627" lon="-1.90499">
        <ele>72</ele>
        <time>2015-12-05T13:12:26Z</time>
      </trkpt>
      <trkpt lat="47.36267" lon="-1.90495">
        <ele>72</ele>
        <time>2015-12-05T13:12:28Z</time>
      </trkpt>
      <trkpt lat="47.36264" lon="-1.9049">
        <ele>72</ele>
        <time>2015-12-05T13:12:30Z</time>
      </trkpt>
      <trkpt lat="47.36262" lon="-1.90483">
        <ele>72</ele>
        <time>2015-12-05T13:12:32Z</time>
      </trkpt>
      <trkpt lat="47.36262" lon="-1.90476">
        <ele>72</ele>
        <time>2015-12-05T13:12:34Z</time>
      </trkpt>
      <trkpt lat="47.36262" lon="-1.90471">
        <ele>72</ele>
        <time>2015-12-05T13:12:36Z</time>
      </trkpt>
      <trkpt lat="47.36263" lon="-1.90466">
        <ele>72</ele>
        <time>2015-12-05T13:12:38Z</time>
      </trkpt>
      <trkpt lat="47.36262" lon="-1.90461">
        <ele>72</ele>
        <time>2015-12-05T13:12:40Z</time>
      </trkpt>
      <trkpt lat="47.36258" lon="-1.90456">
        <ele>72</ele>
        <time>2015-12-05T13:12:43Z</time>
      </trkpt>
      <trkpt lat="47.36258" lon="-1.90451">
        <ele>72</ele>
        <time>2015-12-05T13:12:44Z</time>
      </trkpt>
      <trkpt lat="47.36257" lon="-1.90445">
        <ele>72</ele>
        <time>2015-12-05T13:12:45Z</time>
      </trkpt>
      <trkpt lat="47.36256" lon="-1.90438">
        <ele>72</ele>
        <time>2015-12-05T13:12:47Z</time>
      </trkpt>
      <trkpt lat="47.36256" lon="-1.90433">
        <ele>72</ele>
        <time>2015-12-05T13:12:48Z</time>
      </trkpt>
      <trkpt lat="47.36256" lon="-1.90429">
        <ele>73</ele>
        <time>2015-12-05T13:12:49Z</time>
      </trkpt>
      <trkpt lat="47.36255" lon="-1.90424">
        <ele>73</ele>
        <time>2015-12-05T13:12:50Z</time>
      </trkpt>
      <trkpt lat="47.36255" lon="-1.9042">
        <ele>73</ele>
        <time>2015-12-05T13:12:51Z</time>
      </trkpt>
      <trkpt lat="47.36254" lon="-1.90414">
        <ele>73</ele>
        <time>2015-12-05T13:12:52Z</time>
      </trkpt>
      <trkpt lat="47.36254" lon="-1.90408">
        <ele>73</ele>
        <time>2015-12-05T13:12:53Z</time>
      </trkpt>
      <trkpt lat="47.36254" lon="-1.90402">
        <ele>73</ele>
        <time>2015-12-05T13:12:54Z</time>
      </trkpt>
      <trkpt lat="47.36256" lon="-1.90398">
        <ele>72</ele>
        <time>2015-12-05T13:12:55Z</time>
      </trkpt>
      <trkpt lat="47.36259" lon="-1.90395">
        <ele>72</ele>
        <time>2015-12-05T13:12:56Z</time>
      </trkpt>
      <trkpt lat="47.36263" lon="-1.90391">
        <ele>72</ele>
        <time>2015-12-05T13:12:58Z</time>
      </trkpt>
      <trkpt lat="47.36267" lon="-1.90389">
        <ele>72</ele>
        <time>2015-12-05T13:13:00Z</time>
      </trkpt>
      <trkpt lat="47.3627" lon="-1.90387">
        <ele>72</ele>
        <time>2015-12-05T13:13:01Z</time>
      </trkpt>
      <trkpt lat="47.36274" lon="-1.90383">
        <ele>71</ele>
        <time>2015-12-05T13:13:03Z</time>
      </trkpt>
      <trkpt lat="47.36276" lon="-1.90379">
        <ele>71</ele>
        <time>2015-12-05T13:13:04Z</time>
      </trkpt>
      <trkpt lat="47.36277" lon="-1.90374">
        <ele>71</ele>
        <time>2015-12-05T13:13:05Z</time>
      </trkpt>
      <trkpt lat="47.3628" lon="-1.90369">
        <ele>71</ele>
        <time>2015-12-05T13:13:07Z</time>
      </trkpt>
      <trkpt lat="47.36283" lon="-1.90366">
        <ele>71</ele>
        <time>2015-12-05T13:13:08Z</time>
      </trkpt>
      <trkpt lat="47.36286" lon="-1.90365">
        <ele>71</ele>
        <time>2015-12-05T13:13:09Z</time>
      </trkpt>
      <trkpt lat="47.3629" lon="-1.90364">
        <ele>71</ele>
        <time>2015-12-05T13:13:10Z</time>
      </trkpt>
      <trkpt lat="47.36294" lon="-1.90365">
        <ele>71</ele>
        <time>2015-12-05T13:13:12Z</time>
      </trkpt>
      <trkpt lat="47.36295" lon="-1.90371">
        <ele>71</ele>
        <time>2015-12-05T13:13:14Z</time>
      </trkpt>
      <trkpt lat="47.36297" lon="-1.90379">
        <ele>71</ele>
        <time>2015-12-05T13:13:16Z</time>
      </trkpt>
      <trkpt lat="47.36298" lon="-1.90385">
        <ele>71</ele>
        <time>2015-12-05T13:13:18Z</time>
      </trkpt>
      <trkpt lat="47.36299" lon="-1.90397">
        <ele>71</ele>
        <time>2015-12-05T13:13:20Z</time>
      </trkpt>
      <trkpt lat="47.36299" lon="-1.90402">
        <ele>70</ele>
        <time>2015-12-05T13:13:21Z</time>
      </trkpt>
      <trkpt lat="47.36299" lon="-1.90408">
        <ele>70</ele>
        <time>2015-12-05T13:13:22Z</time>
      </trkpt>
      <trkpt lat="47.36299" lon="-1.90413">
        <ele>70</ele>
        <time>2015-12-05T13:13:23Z</time>
      </trkpt>
      <trkpt lat="47.363" lon="-1.90417">
        <ele>70</ele>
        <time>2015-12-05T13:13:24Z</time>
      </trkpt>
      <trkpt lat="47.363" lon="-1.90421">
        <ele>70</ele>
        <time>2015-12-05T13:13:25Z</time>
      </trkpt>
      <trkpt lat="47.363" lon="-1.90429">
        <ele>70</ele>
        <time>2015-12-05T13:13:27Z</time>
      </trkpt>
      <trkpt lat="47.36299" lon="-1.90434">
        <ele>70</ele>
        <time>2015-12-05T13:13:28Z</time>
      </trkpt>
      <trkpt lat="47.36298" lon="-1.90439">
        <ele>70</ele>
        <time>2015-12-05T13:13:30Z</time>
      </trkpt>
      <trkpt lat="47.36298" lon="-1.90446">
        <ele>70</ele>
        <time>2015-12-05T13:13:32Z</time>
      </trkpt>
      <trkpt lat="47.36297" lon="-1.90453">
        <ele>70</ele>
        <time>2015-12-05T13:13:34Z</time>
      </trkpt>
      <trkpt lat="47.36297" lon="-1.9046">
        <ele>70</ele>
        <time>2015-12-05T13:13:36Z</time>
      </trkpt>
      <trkpt lat="47.36298" lon="-1.90468">
        <ele>70</ele>
        <time>2015-12-05T13:13:38Z</time>
      </trkpt>
      <trkpt lat="47.363" lon="-1.90473">
        <ele>70</ele>
        <time>2015-12-05T13:13:39Z</time>
      </trkpt>
      <trkpt lat="47.36302" lon="-1.90476">
        <ele>70</ele>
        <time>2015-12-05T13:13:40Z</time>
      </trkpt>
      <trkpt lat="47.36305" lon="-1.90479">
        <ele>70</ele>
        <time>2015-12-05T13:13:41Z</time>
      </trkpt>
      <trkpt lat="47.36307" lon="-1.90482">
        <ele>69</ele>
        <time>2015-12-05T13:13:42Z</time>
      </trkpt>
      <trkpt lat="47.36309" lon="-1.90486">
        <ele>69</ele>
        <time>2015-12-05T13:13:43Z</time>
      </trkpt>
      <trkpt lat="47.36311" lon="-1.9049">
        <ele>69</ele>
        <time>2015-12-05T13:13:44Z</time>
      </trkpt>
      <trkpt lat="47.36314" lon="-1.90496">
        <ele>69</ele>
        <time>2015-12-05T13:13:46Z</time>
      </trkpt>
      <trkpt lat="47.36314" lon="-1.90503">
        <ele>68</ele>
        <time>2015-12-05T13:13:48Z</time>
      </trkpt>
      <trkpt lat="47.36315" lon="-1.90509">
        <ele>68</ele>
        <time>2015-12-05T13:13:50Z</time>
      </trkpt>
      <trkpt lat="47.36314" lon="-1.90515">
        <ele>68</ele>
        <time>2015-12-05T13:13:52Z</time>
      </trkpt>
      <trkpt lat="47.36314" lon="-1.90519">
        <ele>68</ele>
        <time>2015-12-05T13:13:53Z</time>
      </trkpt>
      <trkpt lat="47.36314" lon="-1.90523">
        <ele>69</ele>
        <time>2015-12-05T13:13:54Z</time>
      </trkpt>
      <trkpt lat="47.36315" lon="-1.90529">
        <ele>69</ele>
        <time>2015-12-05T13:13:55Z</time>
      </trkpt>
      <trkpt lat="47.36314" lon="-1.90533">
        <ele>69</ele>
        <time>2015-12-05T13:13:56Z</time>
      </trkpt>
      <trkpt lat="47.36314" lon="-1.90538">
        <ele>69</ele>
        <time>2015-12-05T13:13:57Z</time>
      </trkpt>
      <trkpt lat="47.36313" lon="-1.90542">
        <ele>69</ele>
        <time>2015-12-05T13:13:58Z</time>
      </trkpt>
      <trkpt lat="47.36312" lon="-1.90546">
        <ele>69</ele>
        <time>2015-12-05T13:13:59Z</time>
      </trkpt>
      <trkpt lat="47.36311" lon="-1.9055">
        <ele>69</ele>
        <time>2015-12-05T13:14:00Z</time>
      </trkpt>
      <trkpt lat="47.36309" lon="-1.90557">
        <ele>69</ele>
        <time>2015-12-05T13:14:02Z</time>
      </trkpt>
      <trkpt lat="47.36308" lon="-1.90563">
        <ele>68</ele>
        <time>2015-12-05T13:14:04Z</time>
      </trkpt>
      <trkpt lat="47.36307" lon="-1.9057">
        <ele>68</ele>
        <time>2015-12-05T13:14:06Z</time>
      </trkpt>
      <trkpt lat="47.36305" lon="-1.90576">
        <ele>68</ele>
        <time>2015-12-05T13:14:08Z</time>
      </trkpt>
      <trkpt lat="47.36304" lon="-1.9058">
        <ele>68</ele>
        <time>2015-12-05T13:14:09Z</time>
      </trkpt>
      <trkpt lat="47.36303" lon="-1.90584">
        <ele>68</ele>
        <time>2015-12-05T13:14:10Z</time>
      </trkpt>
      <trkpt lat="47.36302" lon="-1.90588">
        <ele>68</ele>
        <time>2015-12-05T13:14:11Z</time>
      </trkpt>
      <trkpt lat="47.36301" lon="-1.90592">
        <ele>68</ele>
        <time>2015-12-05T13:14:12Z</time>
      </trkpt>
      <trkpt lat="47.36299" lon="-1.90598">
        <ele>68</ele>
        <time>2015-12-05T13:14:14Z</time>
      </trkpt>
      <trkpt lat="47.36297" lon="-1.90603">
        <ele>69</ele>
        <time>2015-12-05T13:14:16Z</time>
      </trkpt>
      <trkpt lat="47.36296" lon="-1.90607">
        <ele>69</ele>
        <time>2015-12-05T13:14:19Z</time>
      </trkpt>
      <trkpt lat="47.36294" lon="-1.90609">
        <ele>69</ele>
        <time>2015-12-05T13:14:24Z</time>
      </trkpt>
      <trkpt lat="47.3629" lon="-1.90607">
        <ele>69</ele>
        <time>2015-12-05T13:14:32Z</time>
      </trkpt>
      <trkpt lat="47.36288" lon="-1.90606">
        <ele>69</ele>
        <time>2015-12-05T13:14:35Z</time>
      </trkpt>
      <trkpt lat="47.36285" lon="-1.90602">
        <ele>70</ele>
        <time>2015-12-05T13:14:37Z</time>
      </trkpt>
      <trkpt lat="47.36281" lon="-1.90597">
        <ele>70</ele>
        <time>2015-12-05T13:14:39Z</time>
      </trkpt>
      <trkpt lat="47.36277" lon="-1.90594">
        <ele>70</ele>
        <time>2015-12-05T13:14:41Z</time>
      </trkpt>
      <trkpt lat="47.36274" lon="-1.9059">
        <ele>71</ele>
        <time>2015-12-05T13:14:43Z</time>
      </trkpt>
      <trkpt lat="47.36272" lon="-1.90594">
        <ele>71</ele>
        <time>2015-12-05T13:14:48Z</time>
      </trkpt>
      <trkpt lat="47.36274" lon="-1.90598">
        <ele>71</ele>
        <time>2015-12-05T13:14:51Z</time>
      </trkpt>
      <trkpt lat="47.36277" lon="-1.90601">
        <ele>70</ele>
        <time>2015-12-05T13:14:54Z</time>
      </trkpt>
      <trkpt lat="47.36281" lon="-1.9061">
        <ele>70</ele>
        <time>2015-12-05T13:14:56Z</time>
      </trkpt>
      <trkpt lat="47.36284" lon="-1.90615">
        <ele>69</ele>
        <time>2015-12-05T13:14:57Z</time>
      </trkpt>
      <trkpt lat="47.36286" lon="-1.90619">
        <ele>69</ele>
        <time>2015-12-05T13:14:58Z</time>
      </trkpt>
      <trkpt lat="47.36288" lon="-1.90623">
        <ele>69</ele>
        <time>2015-12-05T13:14:59Z</time>
      </trkpt>
      <trkpt lat="47.36291" lon="-1.90629">
        <ele>69</ele>
        <time>2015-12-05T13:15:01Z</time>
      </trkpt>
      <trkpt lat="47.36292" lon="-1.90637">
        <ele>69</ele>
        <time>2015-12-05T13:15:03Z</time>
      </trkpt>
      <trkpt lat="47.36292" lon="-1.90645">
        <ele>69</ele>
        <time>2015-12-05T13:15:05Z</time>
      </trkpt>
      <trkpt lat="47.36291" lon="-1.90652">
        <ele>69</ele>
        <time>2015-12-05T13:15:07Z</time>
      </trkpt>
      <trkpt lat="47.36291" lon="-1.90661">
        <ele>69</ele>
        <time>2015-12-05T13:15:09Z</time>
      </trkpt>
      <trkpt lat="47.36291" lon="-1.90665">
        <ele>69</ele>
        <time>2015-12-05T13:15:10Z</time>
      </trkpt>
      <trkpt lat="47.3629" lon="-1.90671">
        <ele>67</ele>
        <time>2015-12-05T13:15:11Z</time>
      </trkpt>
      <trkpt lat="47.3629" lon="-1.90676">
        <ele>67</ele>
        <time>2015-12-05T13:15:12Z</time>
      </trkpt>
      <trkpt lat="47.36288" lon="-1.90684">
        <ele>67</ele>
        <time>2015-12-05T13:15:14Z</time>
      </trkpt>
      <trkpt lat="47.36289" lon="-1.90692">
        <ele>67</ele>
        <time>2015-12-05T13:15:16Z</time>
      </trkpt>
      <trkpt lat="47.36288" lon="-1.90696">
        <ele>67</ele>
        <time>2015-12-05T13:15:17Z</time>
      </trkpt>
      <trkpt lat="47.36288" lon="-1.907">
        <ele>67</ele>
        <time>2015-12-05T13:15:18Z</time>
      </trkpt>
      <trkpt lat="47.36286" lon="-1.90708">
        <ele>67</ele>
        <time>2015-12-05T13:15:20Z</time>
      </trkpt>
      <trkpt lat="47.36285" lon="-1.90711">
        <ele>67</ele>
        <time>2015-12-05T13:15:21Z</time>
      </trkpt>
      <trkpt lat="47.36284" lon="-1.90716">
        <ele>67</ele>
        <time>2015-12-05T13:15:22Z</time>
      </trkpt>
      <trkpt lat="47.36285" lon="-1.90721">
        <ele>67</ele>
        <time>2015-12-05T13:15:23Z</time>
      </trkpt>
      <trkpt lat="47.36284" lon="-1.90725">
        <ele>67</ele>
        <time>2015-12-05T13:15:24Z</time>
      </trkpt>
      <trkpt lat="47.36283" lon="-1.9073">
        <ele>67</ele>
        <time>2015-12-05T13:15:25Z</time>
      </trkpt>
      <trkpt lat="47.36281" lon="-1.90735">
        <ele>67</ele>
        <time>2015-12-05T13:15:26Z</time>
      </trkpt>
      <trkpt lat="47.36279" lon="-1.9074">
        <ele>68</ele>
        <time>2015-12-05T13:15:27Z</time>
      </trkpt>
      <trkpt lat="47.36276" lon="-1.90745">
        <ele>68</ele>
        <time>2015-12-05T13:15:28Z</time>
      </trkpt>
      <trkpt lat="47.36273" lon="-1.90749">
        <ele>68</ele>
        <time>2015-12-05T13:15:29Z</time>
      </trkpt>
      <trkpt lat="47.3627" lon="-1.90753">
        <ele>68</ele>
        <time>2015-12-05T13:15:30Z</time>
      </trkpt>
      <trkpt lat="47.36267" lon="-1.90757">
        <ele>68</ele>
        <time>2015-12-05T13:15:31Z</time>
      </trkpt>
      <trkpt lat="47.36265" lon="-1.9076">
        <ele>68</ele>
        <time>2015-12-05T13:15:32Z</time>
      </trkpt>
      <trkpt lat="47.36262" lon="-1.90763">
        <ele>68</ele>
        <time>2015-12-05T13:15:34Z</time>
      </trkpt>
      <trkpt lat="47.3626" lon="-1.90768">
        <ele>68</ele>
        <time>2015-12-05T13:15:36Z</time>
      </trkpt>
      <trkpt lat="47.36258" lon="-1.90772">
        <ele>68</ele>
        <time>2015-12-05T13:15:38Z</time>
      </trkpt>
      <trkpt lat="47.36256" lon="-1.90774">
        <ele>68</ele>
        <time>2015-12-05T13:15:41Z</time>
      </trkpt>
      <trkpt lat="47.36253" lon="-1.90771">
        <ele>68</ele>
        <time>2015-12-05T13:15:47Z</time>
      </trkpt>
      <trkpt lat="47.36251" lon="-1.90766">
        <ele>68</ele>
        <time>2015-12-05T13:15:50Z</time>
      </trkpt>
      <trkpt lat="47.36249" lon="-1.90762">
        <ele>71</ele>
        <time>2015-12-05T13:15:53Z</time>
      </trkpt>
      <trkpt lat="47.36247" lon="-1.90759">
        <ele>71</ele>
        <time>2015-12-05T13:15:55Z</time>
      </trkpt>
      <trkpt lat="47.36245" lon="-1.90757">
        <ele>71</ele>
        <time>2015-12-05T13:15:56Z</time>
      </trkpt>
      <trkpt lat="47.36241" lon="-1.90753">
        <ele>71</ele>
        <time>2015-12-05T13:15:58Z</time>
      </trkpt>
      <trkpt lat="47.36239" lon="-1.90748">
        <ele>72</ele>
        <time>2015-12-05T13:16:00Z</time>
      </trkpt>
      <trkpt lat="47.36243" lon="-1.90744">
        <ele>72</ele>
        <time>2015-12-05T13:16:02Z</time>
      </trkpt>
      <trkpt lat="47.36247" lon="-1.9074">
        <ele>72</ele>
        <time>2015-12-05T13:16:04Z</time>
      </trkpt>
      <trkpt lat="47.36251" lon="-1.90735">
        <ele>69</ele>
        <time>2015-12-05T13:16:06Z</time>
      </trkpt>
      <trkpt lat="47.36254" lon="-1.9073">
        <ele>69</ele>
        <time>2015-12-05T13:16:08Z</time>
      </trkpt>
      <trkpt lat="47.36256" lon="-1.90726">
        <ele>69</ele>
        <time>2015-12-05T13:16:10Z</time>
      </trkpt>
      <trkpt lat="47.36255" lon="-1.90721">
        <ele>69</ele>
        <time>2015-12-05T13:16:12Z</time>
      </trkpt>
      <trkpt lat="47.36252" lon="-1.90721">
        <ele>69</ele>
        <time>2015-12-05T13:16:15Z</time>
      </trkpt>
      <trkpt lat="47.36249" lon="-1.90718">
        <ele>73</ele>
        <time>2015-12-05T13:16:18Z</time>
      </trkpt>
      <trkpt lat="47.36247" lon="-1.90714">
        <ele>73</ele>
        <time>2015-12-05T13:16:21Z</time>
      </trkpt>
      <trkpt lat="47.36248" lon="-1.9071">
        <ele>73</ele>
        <time>2015-12-05T13:16:22Z</time>
      </trkpt>
      <trkpt lat="47.36247" lon="-1.90704">
        <ele>73</ele>
        <time>2015-12-05T13:16:25Z</time>
      </trkpt>
      <trkpt lat="47.36245" lon="-1.90699">
        <ele>73</ele>
        <time>2015-12-05T13:16:27Z</time>
      </trkpt>
      <trkpt lat="47.36243" lon="-1.90692">
        <ele>73</ele>
        <time>2015-12-05T13:16:29Z</time>
      </trkpt>
      <trkpt lat="47.36241" lon="-1.90688">
        <ele>73</ele>
        <time>2015-12-05T13:16:31Z</time>
      </trkpt>
      <trkpt lat="47.36238" lon="-1.90688">
        <ele>73</ele>
        <time>2015-12-05T13:16:34Z</time>
      </trkpt>
      <trkpt lat="47.36236" lon="-1.90684">
        <ele>73</ele>
        <time>2015-12-05T13:16:36Z</time>
      </trkpt>
      <trkpt lat="47.36237" lon="-1.90679">
        <ele>73</ele>
        <time>2015-12-05T13:16:38Z</time>
      </trkpt>
      <trkpt lat="47.36239" lon="-1.90675">
        <ele>74</ele>
        <time>2015-12-05T13:16:40Z</time>
      </trkpt>
      <trkpt lat="47.3624" lon="-1.9067">
        <ele>74</ele>
        <time>2015-12-05T13:16:42Z</time>
      </trkpt>
      <trkpt lat="47.36237" lon="-1.90666">
        <ele>74</ele>
        <time>2015-12-05T13:16:45Z</time>
      </trkpt>
      <trkpt lat="47.36235" lon="-1.90663">
        <ele>74</ele>
        <time>2015-12-05T13:16:48Z</time>
      </trkpt>
      <trkpt lat="47.36232" lon="-1.9066">
        <ele>74</ele>
        <time>2015-12-05T13:16:51Z</time>
      </trkpt>
      <trkpt lat="47.36232" lon="-1.90653">
        <ele>74</ele>
        <time>2015-12-05T13:16:54Z</time>
      </trkpt>
      <trkpt lat="47.36234" lon="-1.90648">
        <ele>74</ele>
        <time>2015-12-05T13:16:57Z</time>
      </trkpt>
      <trkpt lat="47.36237" lon="-1.90644">
        <ele>75</ele>
        <time>2015-12-05T13:16:59Z</time>
      </trkpt>
      <trkpt lat="47.3624" lon="-1.90641">
        <ele>75</ele>
        <time>2015-12-05T13:17:01Z</time>
      </trkpt>
      <trkpt lat="47.36241" lon="-1.90633">
        <ele>75</ele>
        <time>2015-12-05T13:17:03Z</time>
      </trkpt>
      <trkpt lat="47.36242" lon="-1.90626">
        <ele>75</ele>
        <time>2015-12-05T13:17:05Z</time>
      </trkpt>
      <trkpt lat="47.3624" lon="-1.90622">
        <ele>75</ele>
        <time>2015-12-05T13:17:07Z</time>
      </trkpt>
      <trkpt lat="47.36238" lon="-1.90617">
        <ele>75</ele>
        <time>2015-12-05T13:17:09Z</time>
      </trkpt>
      <trkpt lat="47.36239" lon="-1.90613">
        <ele>75</ele>
        <time>2015-12-05T13:17:11Z</time>
      </trkpt>
      <trkpt lat="47.3624" lon="-1.90608">
        <ele>75</ele>
        <time>2015-12-05T13:17:13Z</time>
      </trkpt>
      <trkpt lat="47.36238" lon="-1.90607">
        <ele>75</ele>
        <time>2015-12-05T13:17:17Z</time>
      </trkpt>
      <trkpt lat="47.36237" lon="-1.90611">
        <ele>75</ele>
        <time>2015-12-05T13:17:20Z</time>
      </trkpt>
      <trkpt lat="47.36235" lon="-1.90615">
        <ele>75</ele>
        <time>2015-12-05T13:17:23Z</time>
      </trkpt>
      <trkpt lat="47.36232" lon="-1.90612">
        <ele>75</ele>
        <time>2015-12-05T13:17:26Z</time>
      </trkpt>
      <trkpt lat="47.36232" lon="-1.90608">
        <ele>75</ele>
        <time>2015-12-05T13:17:28Z</time>
      </trkpt>
      <trkpt lat="47.36234" lon="-1.90604">
        <ele>75</ele>
        <time>2015-12-05T13:17:31Z</time>
      </trkpt>
      <trkpt lat="47.36232" lon="-1.90601">
        <ele>75</ele>
        <time>2015-12-05T13:17:34Z</time>
      </trkpt>
      <trkpt lat="47.36229" lon="-1.90599">
        <ele>75</ele>
        <time>2015-12-05T13:17:37Z</time>
      </trkpt>
      <trkpt lat="47.36231" lon="-1.90595">
        <ele>75</ele>
        <time>2015-12-05T13:17:39Z</time>
      </trkpt>
      <trkpt lat="47.36231" lon="-1.90591">
        <ele>75</ele>
        <time>2015-12-05T13:17:41Z</time>
      </trkpt>
      <trkpt lat="47.36231" lon="-1.90586">
        <ele>75</ele>
        <time>2015-12-05T13:17:43Z</time>
      </trkpt>
      <trkpt lat="47.3623" lon="-1.90581">
        <ele>75</ele>
        <time>2015-12-05T13:17:46Z</time>
      </trkpt>
      <trkpt lat="47.36227" lon="-1.90577">
        <ele>75</ele>
        <time>2015-12-05T13:17:49Z</time>
      </trkpt>
      <trkpt lat="47.36225" lon="-1.90579">
        <ele>75</ele>
        <time>2015-12-05T13:17:53Z</time>
      </trkpt>
      <trkpt lat="47.36221" lon="-1.90578">
        <ele>75</ele>
        <time>2015-12-05T13:17:56Z</time>
      </trkpt>
      <trkpt lat="47.36218" lon="-1.90576">
        <ele>75</ele>
        <time>2015-12-05T13:18:08Z</time>
      </trkpt>
      <trkpt lat="47.36215" lon="-1.90576">
        <ele>75</ele>
        <time>2015-12-05T13:18:11Z</time>
      </trkpt>
      <trkpt lat="47.36213" lon="-1.9058">
        <ele>75</ele>
        <time>2015-12-05T13:18:15Z</time>
      </trkpt>
      <trkpt lat="47.36211" lon="-1.90585">
        <ele>75</ele>
        <time>2015-12-05T13:18:18Z</time>
      </trkpt>
      <trkpt lat="47.36208" lon="-1.90585">
        <ele>75</ele>
        <time>2015-12-05T13:18:20Z</time>
      </trkpt>
      <trkpt lat="47.36205" lon="-1.90583">
        <ele>75</ele>
        <time>2015-12-05T13:18:22Z</time>
      </trkpt>
      <trkpt lat="47.36201" lon="-1.90583">
        <ele>75</ele>
        <time>2015-12-05T13:18:24Z</time>
      </trkpt>
      <trkpt lat="47.36199" lon="-1.90588">
        <ele>75</ele>
        <time>2015-12-05T13:18:27Z</time>
      </trkpt>
      <trkpt lat="47.36196" lon="-1.90588">
        <ele>75</ele>
        <time>2015-12-05T13:18:30Z</time>
      </trkpt>
      <trkpt lat="47.36196" lon="-1.90596">
        <ele>75</ele>
        <time>2015-12-05T13:18:40Z</time>
      </trkpt>
      <trkpt lat="47.36199" lon="-1.90602">
        <ele>75</ele>
        <time>2015-12-05T13:18:42Z</time>
      </trkpt>
      <trkpt lat="47.36203" lon="-1.90607">
        <ele>75</ele>
        <time>2015-12-05T13:18:44Z</time>
      </trkpt>
      <trkpt lat="47.36204" lon="-1.90611">
        <ele>75</ele>
        <time>2015-12-05T13:18:45Z</time>
      </trkpt>
      <trkpt lat="47.36205" lon="-1.90615">
        <ele>75</ele>
        <time>2015-12-05T13:18:46Z</time>
      </trkpt>
      <trkpt lat="47.36207" lon="-1.90624">
        <ele>75</ele>
        <time>2015-12-05T13:18:48Z</time>
      </trkpt>
      <trkpt lat="47.36207" lon="-1.9063">
        <ele>75</ele>
        <time>2015-12-05T13:18:50Z</time>
      </trkpt>
      <trkpt lat="47.3621" lon="-1.90642">
        <ele>75</ele>
        <time>2015-12-05T13:18:52Z</time>
      </trkpt>
      <trkpt lat="47.36212" lon="-1.90648">
        <ele>75</ele>
        <time>2015-12-05T13:18:53Z</time>
      </trkpt>
      <trkpt lat="47.36215" lon="-1.90654">
        <ele>75</ele>
        <time>2015-12-05T13:18:54Z</time>
      </trkpt>
      <trkpt lat="47.36217" lon="-1.90658">
        <ele>75</ele>
        <time>2015-12-05T13:18:55Z</time>
      </trkpt>
      <trkpt lat="47.3622" lon="-1.90662">
        <ele>75</ele>
        <time>2015-12-05T13:18:56Z</time>
      </trkpt>
      <trkpt lat="47.36223" lon="-1.90668">
        <ele>74</ele>
        <time>2015-12-05T13:18:58Z</time>
      </trkpt>
      <trkpt lat="47.36223" lon="-1.90674">
        <ele>73</ele>
        <time>2015-12-05T13:18:59Z</time>
      </trkpt>
      <trkpt lat="47.36224" lon="-1.90678">
        <ele>73</ele>
        <time>2015-12-05T13:19:00Z</time>
      </trkpt>
      <trkpt lat="47.36225" lon="-1.90683">
        <ele>73</ele>
        <time>2015-12-05T13:19:01Z</time>
      </trkpt>
      <trkpt lat="47.36225" lon="-1.90687">
        <ele>73</ele>
        <time>2015-12-05T13:19:02Z</time>
      </trkpt>
      <trkpt lat="47.36226" lon="-1.90692">
        <ele>73</ele>
        <time>2015-12-05T13:19:03Z</time>
      </trkpt>
      <trkpt lat="47.36227" lon="-1.90696">
        <ele>73</ele>
        <time>2015-12-05T13:19:04Z</time>
      </trkpt>
      <trkpt lat="47.36226" lon="-1.90703">
        <ele>73</ele>
        <time>2015-12-05T13:19:06Z</time>
      </trkpt>
      <trkpt lat="47.36225" lon="-1.90708">
        <ele>73</ele>
        <time>2015-12-05T13:19:08Z</time>
      </trkpt>
      <trkpt lat="47.36226" lon="-1.90714">
        <ele>73</ele>
        <time>2015-12-05T13:19:10Z</time>
      </trkpt>
      <trkpt lat="47.36227" lon="-1.90719">
        <ele>73</ele>
        <time>2015-12-05T13:19:12Z</time>
      </trkpt>
      <trkpt lat="47.36229" lon="-1.90725">
        <ele>73</ele>
        <time>2015-12-05T13:19:13Z</time>
      </trkpt>
      <trkpt lat="47.36229" lon="-1.90729">
        <ele>72</ele>
        <time>2015-12-05T13:19:14Z</time>
      </trkpt>
      <trkpt lat="47.36228" lon="-1.90735">
        <ele>72</ele>
        <time>2015-12-05T13:19:15Z</time>
      </trkpt>
      <trkpt lat="47.36227" lon="-1.90742">
        <ele>72</ele>
        <time>2015-12-05T13:19:17Z</time>
      </trkpt>
      <trkpt lat="47.36226" lon="-1.9075">
        <ele>70</ele>
        <time>2015-12-05T13:19:18Z</time>
      </trkpt>
      <trkpt lat="47.36225" lon="-1.90756">
        <ele>70</ele>
        <time>2015-12-05T13:19:20Z</time>
      </trkpt>
      <trkpt lat="47.36227" lon="-1.90766">
        <ele>70</ele>
        <time>2015-12-05T13:19:21Z</time>
      </trkpt>
      <trkpt lat="47.36227" lon="-1.90773">
        <ele>70</ele>
        <time>2015-12-05T13:19:23Z</time>
      </trkpt>
      <trkpt lat="47.36227" lon="-1.90782">
        <ele>70</ele>
        <time>2015-12-05T13:19:24Z</time>
      </trkpt>
      <trkpt lat="47.36226" lon="-1.90787">
        <ele>70</ele>
        <time>2015-12-05T13:19:25Z</time>
      </trkpt>
      <trkpt lat="47.36225" lon="-1.90791">
        <ele>70</ele>
        <time>2015-12-05T13:19:26Z</time>
      </trkpt>
      <trkpt lat="47.36224" lon="-1.90796">
        <ele>70</ele>
        <time>2015-12-05T13:19:27Z</time>
      </trkpt>
      <trkpt lat="47.36223" lon="-1.908">
        <ele>70</ele>
        <time>2015-12-05T13:19:28Z</time>
      </trkpt>
      <trkpt lat="47.36219" lon="-1.90804">
        <ele>70</ele>
        <time>2015-12-05T13:19:30Z</time>
      </trkpt>
      <trkpt lat="47.36215" lon="-1.90804">
        <ele>70</ele>
        <time>2015-12-05T13:19:32Z</time>
      </trkpt>
      <trkpt lat="47.36212" lon="-1.90803">
        <ele>70</ele>
        <time>2015-12-05T13:19:34Z</time>
      </trkpt>
      <trkpt lat="47.3621" lon="-1.90798">
        <ele>70</ele>
        <time>2015-12-05T13:19:36Z</time>
      </trkpt>
      <trkpt lat="47.36208" lon="-1.90793">
        <ele>70</ele>
        <time>2015-12-05T13:19:38Z</time>
      </trkpt>
      <trkpt lat="47.36206" lon="-1.90787">
        <ele>70</ele>
        <time>2015-12-05T13:19:40Z</time>
      </trkpt>
      <trkpt lat="47.36204" lon="-1.90784">
        <ele>70</ele>
        <time>2015-12-05T13:19:41Z</time>
      </trkpt>
      <trkpt lat="47.36203" lon="-1.90779">
        <ele>70</ele>
        <time>2015-12-05T13:19:42Z</time>
      </trkpt>
      <trkpt lat="47.36201" lon="-1.90775">
        <ele>70</ele>
        <time>2015-12-05T13:19:43Z</time>
      </trkpt>
      <trkpt lat="47.362" lon="-1.90771">
        <ele>70</ele>
        <time>2015-12-05T13:19:44Z</time>
      </trkpt>
      <trkpt lat="47.36197" lon="-1.90765">
        <ele>70</ele>
        <time>2015-12-05T13:19:46Z</time>
      </trkpt>
      <trkpt lat="47.36196" lon="-1.90757">
        <ele>71</ele>
        <time>2015-12-05T13:19:47Z</time>
      </trkpt>
      <trkpt lat="47.36195" lon="-1.90752">
        <ele>71</ele>
        <time>2015-12-05T13:19:48Z</time>
      </trkpt>
      <trkpt lat="47.36194" lon="-1.90746">
        <ele>73</ele>
        <time>2015-12-05T13:19:49Z</time>
      </trkpt>
      <trkpt lat="47.36193" lon="-1.90741">
        <ele>73</ele>
        <time>2015-12-05T13:19:50Z</time>
      </trkpt>
      <trkpt lat="47.36191" lon="-1.90737">
        <ele>73</ele>
        <time>2015-12-05T13:19:51Z</time>
      </trkpt>
      <trkpt lat="47.3619" lon="-1.90734">
        <ele>73</ele>
        <time>2015-12-05T13:19:52Z</time>
      </trkpt>
      <trkpt lat="47.3619" lon="-1.90729">
        <ele>73</ele>
        <time>2015-12-05T13:19:53Z</time>
      </trkpt>
      <trkpt lat="47.36189" lon="-1.90724">
        <ele>73</ele>
        <time>2015-12-05T13:19:54Z</time>
      </trkpt>
      <trkpt lat="47.36188" lon="-1.90719">
        <ele>73</ele>
        <time>2015-12-05T13:19:55Z</time>
      </trkpt>
      <trkpt lat="47.36187" lon="-1.90716">
        <ele>73</ele>
        <time>2015-12-05T13:19:56Z</time>
      </trkpt>
      <trkpt lat="47.36185" lon="-1.90706">
        <ele>73</ele>
        <time>2015-12-05T13:19:57Z</time>
      </trkpt>
      <trkpt lat="47.36185" lon="-1.90699">
        <ele>73</ele>
        <time>2015-12-05T13:19:58Z</time>
      </trkpt>
      <trkpt lat="47.36185" lon="-1.9069">
        <ele>74</ele>
        <time>2015-12-05T13:19:59Z</time>
      </trkpt>
      <trkpt lat="47.36184" lon="-1.90683">
        <ele>74</ele>
        <time>2015-12-05T13:20:00Z</time>
      </trkpt>
      <trkpt lat="47.36183" lon="-1.90675">
        <ele>74</ele>
        <time>2015-12-05T13:20:01Z</time>
      </trkpt>
      <trkpt lat="47.36183" lon="-1.90669">
        <ele>74</ele>
        <time>2015-12-05T13:20:02Z</time>
      </trkpt>
      <trkpt lat="47.36182" lon="-1.90664">
        <ele>75</ele>
        <time>2015-12-05T13:20:03Z</time>
      </trkpt>
      <trkpt lat="47.36181" lon="-1.9066">
        <ele>75</ele>
        <time>2015-12-05T13:20:04Z</time>
      </trkpt>
      <trkpt lat="47.36182" lon="-1.90655">
        <ele>75</ele>
        <time>2015-12-05T13:20:05Z</time>
      </trkpt>
      <trkpt lat="47.36181" lon="-1.90647">
        <ele>75</ele>
        <time>2015-12-05T13:20:07Z</time>
      </trkpt>
      <trkpt lat="47.3618" lon="-1.90643">
        <ele>75</ele>
        <time>2015-12-05T13:20:08Z</time>
      </trkpt>
      <trkpt lat="47.36178" lon="-1.90637">
        <ele>75</ele>
        <time>2015-12-05T13:20:10Z</time>
      </trkpt>
      <trkpt lat="47.36177" lon="-1.90632">
        <ele>75</ele>
        <time>2015-12-05T13:20:11Z</time>
      </trkpt>
      <trkpt lat="47.36175" lon="-1.90625">
        <ele>75</ele>
        <time>2015-12-05T13:20:13Z</time>
      </trkpt>
      <trkpt lat="47.36172" lon="-1.90618">
        <ele>75</ele>
        <time>2015-12-05T13:20:15Z</time>
      </trkpt>
      <trkpt lat="47.36171" lon="-1.90614">
        <ele>75</ele>
        <time>2015-12-05T13:20:16Z</time>
      </trkpt>
      <trkpt lat="47.3617" lon="-1.9061">
        <ele>75</ele>
        <time>2015-12-05T13:20:17Z</time>
      </trkpt>
      <trkpt lat="47.3617" lon="-1.90605">
        <ele>75</ele>
        <time>2015-12-05T13:20:18Z</time>
      </trkpt>
      <trkpt lat="47.36169" lon="-1.906">
        <ele>75</ele>
        <time>2015-12-05T13:20:19Z</time>
      </trkpt>
      <trkpt lat="47.36169" lon="-1.90595">
        <ele>75</ele>
        <time>2015-12-05T13:20:20Z</time>
      </trkpt>
      <trkpt lat="47.36166" lon="-1.90589">
        <ele>74</ele>
        <time>2015-12-05T13:20:22Z</time>
      </trkpt>
      <trkpt lat="47.36162" lon="-1.9059">
        <ele>74</ele>
        <time>2015-12-05T13:20:25Z</time>
      </trkpt>
      <trkpt lat="47.36158" lon="-1.90589">
        <ele>74</ele>
        <time>2015-12-05T13:20:27Z</time>
      </trkpt>
      <trkpt lat="47.36152" lon="-1.9059">
        <ele>74</ele>
        <time>2015-12-05T13:20:29Z</time>
      </trkpt>
      <trkpt lat="47.36149" lon="-1.90592">
        <ele>74</ele>
        <time>2015-12-05T13:20:30Z</time>
      </trkpt>
      <trkpt lat="47.36146" lon="-1.90594">
        <ele>73</ele>
        <time>2015-12-05T13:20:31Z</time>
      </trkpt>
      <trkpt lat="47.36142" lon="-1.90596">
        <ele>73</ele>
        <time>2015-12-05T13:20:32Z</time>
      </trkpt>
      <trkpt lat="47.36139" lon="-1.90596">
        <ele>73</ele>
        <time>2015-12-05T13:20:33Z</time>
      </trkpt>
      <trkpt lat="47.36136" lon="-1.90596">
        <ele>73</ele>
        <time>2015-12-05T13:20:34Z</time>
      </trkpt>
      <trkpt lat="47.36133" lon="-1.90594">
        <ele>73</ele>
        <time>2015-12-05T13:20:35Z</time>
      </trkpt>
      <trkpt lat="47.36129" lon="-1.90589">
        <ele>73</ele>
        <time>2015-12-05T13:20:37Z</time>
      </trkpt>
      <trkpt lat="47.36125" lon="-1.90585">
        <ele>73</ele>
        <time>2015-12-05T13:20:39Z</time>
      </trkpt>
      <trkpt lat="47.36121" lon="-1.90581">
        <ele>73</ele>
        <time>2015-12-05T13:20:41Z</time>
      </trkpt>
      <trkpt lat="47.36116" lon="-1.90579">
        <ele>73</ele>
        <time>2015-12-05T13:20:43Z</time>
      </trkpt>
      <trkpt lat="47.36112" lon="-1.90577">
        <ele>73</ele>
        <time>2015-12-05T13:20:45Z</time>
      </trkpt>
      <trkpt lat="47.36106" lon="-1.90573">
        <ele>72</ele>
        <time>2015-12-05T13:20:47Z</time>
      </trkpt>
      <trkpt lat="47.36104" lon="-1.90567">
        <ele>72</ele>
        <time>2015-12-05T13:20:49Z</time>
      </trkpt>
      <trkpt lat="47.36103" lon="-1.90561">
        <ele>72</ele>
        <time>2015-12-05T13:20:51Z</time>
      </trkpt>
      <trkpt lat="47.36105" lon="-1.90558">
        <ele>73</ele>
        <time>2015-12-05T13:20:53Z</time>
      </trkpt>
      <trkpt lat="47.36107" lon="-1.90554">
        <ele>73</ele>
        <time>2015-12-05T13:20:55Z</time>
      </trkpt>
      <trkpt lat="47.36107" lon="-1.90547">
        <ele>73</ele>
        <time>2015-12-05T13:20:58Z</time>
      </trkpt>
      <trkpt lat="47.36105" lon="-1.90544">
        <ele>73</ele>
        <time>2015-12-05T13:20:59Z</time>
      </trkpt>
      <trkpt lat="47.36101" lon="-1.90536">
        <ele>73</ele>
        <time>2015-12-05T13:21:01Z</time>
      </trkpt>
      <trkpt lat="47.36099" lon="-1.90533">
        <ele>73</ele>
        <time>2015-12-05T13:21:02Z</time>
      </trkpt>
      <trkpt lat="47.36097" lon="-1.90531">
        <ele>73</ele>
        <time>2015-12-05T13:21:03Z</time>
      </trkpt>
      <trkpt lat="47.36093" lon="-1.90528">
        <ele>73</ele>
        <time>2015-12-05T13:21:05Z</time>
      </trkpt>
      <trkpt lat="47.36091" lon="-1.90526">
        <ele>73</ele>
        <time>2015-12-05T13:21:06Z</time>
      </trkpt>
      <trkpt lat="47.36087" lon="-1.90521">
        <ele>72</ele>
        <time>2015-12-05T13:21:08Z</time>
      </trkpt>
      <trkpt lat="47.36084" lon="-1.90518">
        <ele>72</ele>
        <time>2015-12-05T13:21:10Z</time>
      </trkpt>
      <trkpt lat="47.36081" lon="-1.90515">
        <ele>72</ele>
        <time>2015-12-05T13:21:12Z</time>
      </trkpt>
      <trkpt lat="47.36084" lon="-1.9051">
        <ele>72</ele>
        <time>2015-12-05T13:21:15Z</time>
      </trkpt>
      <trkpt lat="47.36086" lon="-1.90505">
        <ele>72</ele>
        <time>2015-12-05T13:21:17Z</time>
      </trkpt>
      <trkpt lat="47.36088" lon="-1.90501">
        <ele>72</ele>
        <time>2015-12-05T13:21:18Z</time>
      </trkpt>
      <trkpt lat="47.36089" lon="-1.90496">
        <ele>72</ele>
        <time>2015-12-05T13:21:20Z</time>
      </trkpt>
      <trkpt lat="47.36088" lon="-1.90488">
        <ele>73</ele>
        <time>2015-12-05T13:21:22Z</time>
      </trkpt>
      <trkpt lat="47.36087" lon="-1.90484">
        <ele>73</ele>
        <time>2015-12-05T13:21:23Z</time>
      </trkpt>
      <trkpt lat="47.36084" lon="-1.90479">
        <ele>73</ele>
        <time>2015-12-05T13:21:25Z</time>
      </trkpt>
      <trkpt lat="47.36079" lon="-1.90478">
        <ele>72</ele>
        <time>2015-12-05T13:21:27Z</time>
      </trkpt>
      <trkpt lat="47.36075" lon="-1.90479">
        <ele>72</ele>
        <time>2015-12-05T13:21:29Z</time>
      </trkpt>
      <trkpt lat="47.36071" lon="-1.90478">
        <ele>72</ele>
        <time>2015-12-05T13:21:31Z</time>
      </trkpt>
      <trkpt lat="47.36066" lon="-1.90475">
        <ele>71</ele>
        <time>2015-12-05T13:21:33Z</time>
      </trkpt>
      <trkpt lat="47.36062" lon="-1.90471">
        <ele>71</ele>
        <time>2015-12-05T13:21:35Z</time>
      </trkpt>
      <trkpt lat="47.36058" lon="-1.90471">
        <ele>71</ele>
        <time>2015-12-05T13:21:37Z</time>
      </trkpt>
      <trkpt lat="47.36057" lon="-1.90474">
        <ele>71</ele>
        <time>2015-12-05T13:21:39Z</time>
      </trkpt>
      <trkpt lat="47.36056" lon="-1.90479">
        <ele>71</ele>
        <time>2015-12-05T13:21:42Z</time>
      </trkpt>
      <trkpt lat="47.36056" lon="-1.90484">
        <ele>71</ele>
        <time>2015-12-05T13:21:44Z</time>
      </trkpt>
      <trkpt lat="47.36055" lon="-1.9049">
        <ele>71</ele>
        <time>2015-12-05T13:21:46Z</time>
      </trkpt>
      <trkpt lat="47.36056" lon="-1.90495">
        <ele>71</ele>
        <time>2015-12-05T13:21:48Z</time>
      </trkpt>
      <trkpt lat="47.36058" lon="-1.90499">
        <ele>71</ele>
        <time>2015-12-05T13:21:50Z</time>
      </trkpt>
      <trkpt lat="47.36062" lon="-1.905">
        <ele>71</ele>
        <time>2015-12-05T13:21:52Z</time>
      </trkpt>
      <trkpt lat="47.36064" lon="-1.90505">
        <ele>72</ele>
        <time>2015-12-05T13:21:54Z</time>
      </trkpt>
      <trkpt lat="47.36066" lon="-1.90508">
        <ele>72</ele>
        <time>2015-12-05T13:21:56Z</time>
      </trkpt>
      <trkpt lat="47.36068" lon="-1.90513">
        <ele>72</ele>
        <time>2015-12-05T13:21:58Z</time>
      </trkpt>
      <trkpt lat="47.36071" lon="-1.90518">
        <ele>72</ele>
        <time>2015-12-05T13:22:01Z</time>
      </trkpt>
      <trkpt lat="47.36073" lon="-1.90524">
        <ele>72</ele>
        <time>2015-12-05T13:22:03Z</time>
      </trkpt>
      <trkpt lat="47.36074" lon="-1.90528">
        <ele>72</ele>
        <time>2015-12-05T13:22:04Z</time>
      </trkpt>
      <trkpt lat="47.36076" lon="-1.90534">
        <ele>72</ele>
        <time>2015-12-05T13:22:05Z</time>
      </trkpt>
      <trkpt lat="47.36079" lon="-1.90537">
        <ele>72</ele>
        <time>2015-12-05T13:22:06Z</time>
      </trkpt>
      <trkpt lat="47.36081" lon="-1.9054">
        <ele>72</ele>
        <time>2015-12-05T13:22:07Z</time>
      </trkpt>
      <trkpt lat="47.36084" lon="-1.90544">
        <ele>72</ele>
        <time>2015-12-05T13:22:09Z</time>
      </trkpt>
      <trkpt lat="47.36088" lon="-1.90547">
        <ele>72</ele>
        <time>2015-12-05T13:22:11Z</time>
      </trkpt>
      <trkpt lat="47.36088" lon="-1.90552">
        <ele>72</ele>
        <time>2015-12-05T13:22:13Z</time>
      </trkpt>
      <trkpt lat="47.36087" lon="-1.90557">
        <ele>72</ele>
        <time>2015-12-05T13:22:15Z</time>
      </trkpt>
      <trkpt lat="47.36086" lon="-1.90562">
        <ele>72</ele>
        <time>2015-12-05T13:22:17Z</time>
      </trkpt>
      <trkpt lat="47.36083" lon="-1.90567">
        <ele>71</ele>
        <time>2015-12-05T13:22:19Z</time>
      </trkpt>
      <trkpt lat="47.36082" lon="-1.90572">
        <ele>71</ele>
        <time>2015-12-05T13:22:21Z</time>
      </trkpt>
      <trkpt lat="47.36084" lon="-1.90581">
        <ele>71</ele>
        <time>2015-12-05T13:22:23Z</time>
      </trkpt>
      <trkpt lat="47.36086" lon="-1.90585">
        <ele>71</ele>
        <time>2015-12-05T13:22:29Z</time>
      </trkpt>
      <trkpt lat="47.36088" lon="-1.90588">
        <ele>71</ele>
        <time>2015-12-05T13:22:31Z</time>
      </trkpt>
      <trkpt lat="47.36089" lon="-1.90592">
        <ele>71</ele>
        <time>2015-12-05T13:22:33Z</time>
      </trkpt>
      <trkpt lat="47.36091" lon="-1.90596">
        <ele>72</ele>
        <time>2015-12-05T13:22:34Z</time>
      </trkpt>
      <trkpt lat="47.36092" lon="-1.906">
        <ele>72</ele>
        <time>2015-12-05T13:22:35Z</time>
      </trkpt>
      <trkpt lat="47.36095" lon="-1.90605">
        <ele>72</ele>
        <time>2015-12-05T13:22:36Z</time>
      </trkpt>
      <trkpt lat="47.36095" lon="-1.90613">
        <ele>72</ele>
        <time>2015-12-05T13:22:38Z</time>
      </trkpt>
      <trkpt lat="47.36095" lon="-1.90621">
        <ele>72</ele>
        <time>2015-12-05T13:22:40Z</time>
      </trkpt>
      <trkpt lat="47.36095" lon="-1.90625">
        <ele>72</ele>
        <time>2015-12-05T13:22:41Z</time>
      </trkpt>
      <trkpt lat="47.36095" lon="-1.9063">
        <ele>72</ele>
        <time>2015-12-05T13:22:42Z</time>
      </trkpt>
      <trkpt lat="47.36096" lon="-1.90634">
        <ele>72</ele>
        <time>2015-12-05T13:22:43Z</time>
      </trkpt>
      <trkpt lat="47.36098" lon="-1.90642">
        <ele>71</ele>
        <time>2015-12-05T13:22:45Z</time>
      </trkpt>
      <trkpt lat="47.36099" lon="-1.90648">
        <ele>71</ele>
        <time>2015-12-05T13:22:47Z</time>
      </trkpt>
      <trkpt lat="47.36102" lon="-1.90651">
        <ele>71</ele>
        <time>2015-12-05T13:22:49Z</time>
      </trkpt>
      <trkpt lat="47.36103" lon="-1.90655">
        <ele>71</ele>
        <time>2015-12-05T13:22:50Z</time>
      </trkpt>
      <trkpt lat="47.36105" lon="-1.90661">
        <ele>71</ele>
        <time>2015-12-05T13:22:52Z</time>
      </trkpt>
      <trkpt lat="47.36107" lon="-1.90665">
        <ele>71</ele>
        <time>2015-12-05T13:22:54Z</time>
      </trkpt>
      <trkpt lat="47.36109" lon="-1.9067">
        <ele>70</ele>
        <time>2015-12-05T13:22:56Z</time>
      </trkpt>
      <trkpt lat="47.3611" lon="-1.90675">
        <ele>70</ele>
        <time>2015-12-05T13:22:58Z</time>
      </trkpt>
      <trkpt lat="47.36106" lon="-1.9068">
        <ele>70</ele>
        <time>2015-12-05T13:23:03Z</time>
      </trkpt>
      <trkpt lat="47.36107" lon="-1.90685">
        <ele>70</ele>
        <time>2015-12-05T13:23:06Z</time>
      </trkpt>
      <trkpt lat="47.36118" lon="-1.90704">
        <ele>70</ele>
        <time>2015-12-05T13:25:56Z</time>
      </trkpt>
      <trkpt lat="47.36118" lon="-1.90709">
        <ele>70</ele>
        <time>2015-12-05T13:25:58Z</time>
      </trkpt>
      <trkpt lat="47.36121" lon="-1.90717">
        <ele>70</ele>
        <time>2015-12-05T13:26:01Z</time>
      </trkpt>
      <trkpt lat="47.36124" lon="-1.90721">
        <ele>70</ele>
        <time>2015-12-05T13:26:03Z</time>
      </trkpt>
      <trkpt lat="47.36125" lon="-1.90726">
        <ele>70</ele>
        <time>2015-12-05T13:26:05Z</time>
      </trkpt>
      <trkpt lat="47.36128" lon="-1.90732">
        <ele>70</ele>
        <time>2015-12-05T13:26:07Z</time>
      </trkpt>
      <trkpt lat="47.3613" lon="-1.90738">
        <ele>70</ele>
        <time>2015-12-05T13:26:09Z</time>
      </trkpt>
      <trkpt lat="47.36132" lon="-1.90744">
        <ele>70</ele>
        <time>2015-12-05T13:26:11Z</time>
      </trkpt>
      <trkpt lat="47.36133" lon="-1.90749">
        <ele>70</ele>
        <time>2015-12-05T13:26:13Z</time>
      </trkpt>
      <trkpt lat="47.36135" lon="-1.90754">
        <ele>69</ele>
        <time>2015-12-05T13:26:16Z</time>
      </trkpt>
      <trkpt lat="47.36138" lon="-1.90756">
        <ele>69</ele>
        <time>2015-12-05T13:26:19Z</time>
      </trkpt>
      <trkpt lat="47.36141" lon="-1.90759">
        <ele>69</ele>
        <time>2015-12-05T13:26:28Z</time>
      </trkpt>
      <trkpt lat="47.36143" lon="-1.90762">
        <ele>69</ele>
        <time>2015-12-05T13:26:32Z</time>
      </trkpt>
      <trkpt lat="47.36147" lon="-1.90765">
        <ele>69</ele>
        <time>2015-12-05T13:26:39Z</time>
      </trkpt>
      <trkpt lat="47.3615" lon="-1.90771">
        <ele>69</ele>
        <time>2015-12-05T13:26:42Z</time>
      </trkpt>
      <trkpt lat="47.36151" lon="-1.90775">
        <ele>69</ele>
        <time>2015-12-05T13:26:43Z</time>
      </trkpt>
      <trkpt lat="47.36152" lon="-1.90781">
        <ele>69</ele>
        <time>2015-12-05T13:26:45Z</time>
      </trkpt>
      <trkpt lat="47.36154" lon="-1.90786">
        <ele>69</ele>
        <time>2015-12-05T13:26:47Z</time>
      </trkpt>
      <trkpt lat="47.36158" lon="-1.90789">
        <ele>69</ele>
        <time>2015-12-05T13:26:49Z</time>
      </trkpt>
      <trkpt lat="47.36161" lon="-1.90792">
        <ele>69</ele>
        <time>2015-12-05T13:26:51Z</time>
      </trkpt>
      <trkpt lat="47.36164" lon="-1.90794">
        <ele>69</ele>
        <time>2015-12-05T13:26:53Z</time>
      </trkpt>
      <trkpt lat="47.36167" lon="-1.90798">
        <ele>69</ele>
        <time>2015-12-05T13:26:55Z</time>
      </trkpt>
      <trkpt lat="47.36169" lon="-1.90805">
        <ele>69</ele>
        <time>2015-12-05T13:26:57Z</time>
      </trkpt>
      <trkpt lat="47.3617" lon="-1.9081">
        <ele>69</ele>
        <time>2015-12-05T13:26:59Z</time>
      </trkpt>
      <trkpt lat="47.3617" lon="-1.90815">
        <ele>69</ele>
        <time>2015-12-05T13:27:00Z</time>
      </trkpt>
      <trkpt lat="47.36172" lon="-1.90824">
        <ele>68</ele>
        <time>2015-12-05T13:27:02Z</time>
      </trkpt>
      <trkpt lat="47.36174" lon="-1.90829">
        <ele>68</ele>
        <time>2015-12-05T13:27:03Z</time>
      </trkpt>
      <trkpt lat="47.36178" lon="-1.90833">
        <ele>68</ele>
        <time>2015-12-05T13:27:04Z</time>
      </trkpt>
      <trkpt lat="47.36182" lon="-1.90835">
        <ele>66</ele>
        <time>2015-12-05T13:27:05Z</time>
      </trkpt>
      <trkpt lat="47.36186" lon="-1.90836">
        <ele>66</ele>
        <time>2015-12-05T13:27:06Z</time>
      </trkpt>
      <trkpt lat="47.3619" lon="-1.90837">
        <ele>66</ele>
        <time>2015-12-05T13:27:07Z</time>
      </trkpt>
      <trkpt lat="47.36194" lon="-1.90835">
        <ele>66</ele>
        <time>2015-12-05T13:27:09Z</time>
      </trkpt>
      <trkpt lat="47.36195" lon="-1.9083">
        <ele>69</ele>
        <time>2015-12-05T13:27:12Z</time>
      </trkpt>
      <trkpt lat="47.36195" lon="-1.90826">
        <ele>69</ele>
        <time>2015-12-05T13:27:15Z</time>
      </trkpt>
      <trkpt lat="47.36192" lon="-1.90822">
        <ele>69</ele>
        <time>2015-12-05T13:27:18Z</time>
      </trkpt>
      <trkpt lat="47.36189" lon="-1.90823">
        <ele>69</ele>
        <time>2015-12-05T13:27:20Z</time>
      </trkpt>
      <trkpt lat="47.36186" lon="-1.90817">
        <ele>69</ele>
        <time>2015-12-05T13:27:23Z</time>
      </trkpt>
      <trkpt lat="47.36185" lon="-1.90809">
        <ele>69</ele>
        <time>2015-12-05T13:27:25Z</time>
      </trkpt>
      <trkpt lat="47.36184" lon="-1.90805">
        <ele>69</ele>
        <time>2015-12-05T13:27:26Z</time>
      </trkpt>
      <trkpt lat="47.36184" lon="-1.90801">
        <ele>69</ele>
        <time>2015-12-05T13:27:27Z</time>
      </trkpt>
      <trkpt lat="47.36182" lon="-1.90797">
        <ele>69</ele>
        <time>2015-12-05T13:27:28Z</time>
      </trkpt>
      <trkpt lat="47.36181" lon="-1.90793">
        <ele>70</ele>
        <time>2015-12-05T13:27:30Z</time>
      </trkpt>
      <trkpt lat="47.3618" lon="-1.90786">
        <ele>70</ele>
        <time>2015-12-05T13:27:31Z</time>
      </trkpt>
      <trkpt lat="47.3618" lon="-1.90782">
        <ele>70</ele>
        <time>2015-12-05T13:27:32Z</time>
      </trkpt>
      <trkpt lat="47.36179" lon="-1.90777">
        <ele>70</ele>
        <time>2015-12-05T13:27:33Z</time>
      </trkpt>
      <trkpt lat="47.36179" lon="-1.90773">
        <ele>70</ele>
        <time>2015-12-05T13:27:34Z</time>
      </trkpt>
      <trkpt lat="47.36175" lon="-1.90768">
        <ele>71</ele>
        <time>2015-12-05T13:27:36Z</time>
      </trkpt>
      <trkpt lat="47.36173" lon="-1.90763">
        <ele>71</ele>
        <time>2015-12-05T13:27:38Z</time>
      </trkpt>
      <trkpt lat="47.36172" lon="-1.90757">
        <ele>71</ele>
        <time>2015-12-05T13:27:40Z</time>
      </trkpt>
      <trkpt lat="47.36172" lon="-1.90751">
        <ele>72</ele>
        <time>2015-12-05T13:27:42Z</time>
      </trkpt>
      <trkpt lat="47.36171" lon="-1.90747">
        <ele>72</ele>
        <time>2015-12-05T13:27:44Z</time>
      </trkpt>
      <trkpt lat="47.36169" lon="-1.90741">
        <ele>72</ele>
        <time>2015-12-05T13:27:47Z</time>
      </trkpt>
      <trkpt lat="47.36168" lon="-1.90735">
        <ele>72</ele>
        <time>2015-12-05T13:27:49Z</time>
      </trkpt>
      <trkpt lat="47.36168" lon="-1.9073">
        <ele>73</ele>
        <time>2015-12-05T13:27:51Z</time>
      </trkpt>
      <trkpt lat="47.36168" lon="-1.90724">
        <ele>73</ele>
        <time>2015-12-05T13:27:53Z</time>
      </trkpt>
      <trkpt lat="47.36168" lon="-1.90719">
        <ele>73</ele>
        <time>2015-12-05T13:27:55Z</time>
      </trkpt>
      <trkpt lat="47.36168" lon="-1.90713">
        <ele>73</ele>
        <time>2015-12-05T13:27:57Z</time>
      </trkpt>
      <trkpt lat="47.36167" lon="-1.90708">
        <ele>73</ele>
        <time>2015-12-05T13:27:59Z</time>
      </trkpt>
      <trkpt lat="47.36166" lon="-1.90701">
        <ele>72</ele>
        <time>2015-12-05T13:28:01Z</time>
      </trkpt>
      <trkpt lat="47.36166" lon="-1.90697">
        <ele>72</ele>
        <time>2015-12-05T13:28:02Z</time>
      </trkpt>
      <trkpt lat="47.36166" lon="-1.9069">
        <ele>72</ele>
        <time>2015-12-05T13:28:04Z</time>
      </trkpt>
      <trkpt lat="47.36167" lon="-1.90684">
        <ele>74</ele>
        <time>2015-12-05T13:28:06Z</time>
      </trkpt>
      <trkpt lat="47.36167" lon="-1.90678">
        <ele>74</ele>
        <time>2015-12-05T13:28:07Z</time>
      </trkpt>
      <trkpt lat="47.36166" lon="-1.90674">
        <ele>74</ele>
        <time>2015-12-05T13:28:08Z</time>
      </trkpt>
      <trkpt lat="47.36165" lon="-1.90671">
        <ele>74</ele>
        <time>2015-12-05T13:28:10Z</time>
      </trkpt>
      <trkpt lat="47.36164" lon="-1.90665">
        <ele>75</ele>
        <time>2015-12-05T13:28:11Z</time>
      </trkpt>
      <trkpt lat="47.36162" lon="-1.90663">
        <ele>74</ele>
        <time>2015-12-05T13:28:13Z</time>
      </trkpt>
      <trkpt lat="47.3616" lon="-1.90667">
        <ele>74</ele>
        <time>2015-12-05T13:28:17Z</time>
      </trkpt>
      <trkpt lat="47.3616" lon="-1.90672">
        <ele>74</ele>
        <time>2015-12-05T13:28:20Z</time>
      </trkpt>
      <trkpt lat="47.36156" lon="-1.90669">
        <ele>73</ele>
        <time>2015-12-05T13:28:21Z</time>
      </trkpt>
      <trkpt lat="47.36153" lon="-1.90666">
        <ele>74</ele>
        <time>2015-12-05T13:28:23Z</time>
      </trkpt>
      <trkpt lat="47.3615" lon="-1.90665">
        <ele>74</ele>
        <time>2015-12-05T13:28:24Z</time>
      </trkpt>
      <trkpt lat="47.36147" lon="-1.90664">
        <ele>73</ele>
        <time>2015-12-05T13:28:25Z</time>
      </trkpt>
      <trkpt lat="47.36142" lon="-1.90662">
        <ele>73</ele>
        <time>2015-12-05T13:28:27Z</time>
      </trkpt>
      <trkpt lat="47.3614" lon="-1.90658">
        <ele>73</ele>
        <time>2015-12-05T13:28:29Z</time>
      </trkpt>
      <trkpt lat="47.36138" lon="-1.90654">
        <ele>73</ele>
        <time>2015-12-05T13:28:32Z</time>
      </trkpt>
      <trkpt lat="47.36136" lon="-1.90651">
        <ele>73</ele>
        <time>2015-12-05T13:28:36Z</time>
      </trkpt>
      <trkpt lat="47.36136" lon="-1.90646">
        <ele>73</ele>
        <time>2015-12-05T13:28:39Z</time>
      </trkpt>
      <trkpt lat="47.36137" lon="-1.90641">
        <ele>73</ele>
        <time>2015-12-05T13:28:41Z</time>
      </trkpt>
      <trkpt lat="47.36139" lon="-1.90637">
        <ele>73</ele>
        <time>2015-12-05T13:28:43Z</time>
      </trkpt>
      <trkpt lat="47.36142" lon="-1.90633">
        <ele>73</ele>
        <time>2015-12-05T13:28:46Z</time>
      </trkpt>
      <trkpt lat="47.36145" lon="-1.90632">
        <ele>73</ele>
        <time>2015-12-05T13:28:47Z</time>
      </trkpt>
      <trkpt lat="47.36148" lon="-1.9063">
        <ele>73</ele>
        <time>2015-12-05T13:28:48Z</time>
      </trkpt>
      <trkpt lat="47.36154" lon="-1.9063">
        <ele>73</ele>
        <time>2015-12-05T13:28:51Z</time>
      </trkpt>
      <trkpt lat="47.36157" lon="-1.90628">
        <ele>73</ele>
        <time>2015-12-05T13:28:53Z</time>
      </trkpt>
      <trkpt lat="47.36161" lon="-1.90623">
        <ele>73</ele>
        <time>2015-12-05T13:28:55Z</time>
      </trkpt>
      <trkpt lat="47.3616" lon="-1.90616">
        <ele>73</ele>
        <time>2015-12-05T13:28:58Z</time>
      </trkpt>
      <trkpt lat="47.36158" lon="-1.90609">
        <ele>74</ele>
        <time>2015-12-05T13:29:01Z</time>
      </trkpt>
      <trkpt lat="47.3616" lon="-1.90604">
        <ele>74</ele>
        <time>2015-12-05T13:29:03Z</time>
      </trkpt>
      <trkpt lat="47.36163" lon="-1.90603">
        <ele>74</ele>
        <time>2015-12-05T13:29:05Z</time>
      </trkpt>
      <trkpt lat="47.36167" lon="-1.906">
        <ele>75</ele>
        <time>2015-12-05T13:29:07Z</time>
      </trkpt>
      <trkpt lat="47.36169" lon="-1.90597">
        <ele>75</ele>
        <time>2015-12-05T13:29:09Z</time>
      </trkpt>
      <trkpt lat="47.36168" lon="-1.90593">
        <ele>75</ele>
        <time>2015-12-05T13:29:11Z</time>
      </trkpt>
      <trkpt lat="47.36167" lon="-1.90589">
        <ele>75</ele>
        <time>2015-12-05T13:29:13Z</time>
      </trkpt>
      <trkpt lat="47.36166" lon="-1.90584">
        <ele>75</ele>
        <time>2015-12-05T13:29:15Z</time>
      </trkpt>
      <trkpt lat="47.36165" lon="-1.90578">
        <ele>75</ele>
        <time>2015-12-05T13:29:17Z</time>
      </trkpt>
      <trkpt lat="47.36166" lon="-1.90572">
        <ele>74</ele>
        <time>2015-12-05T13:29:19Z</time>
      </trkpt>
      <trkpt lat="47.36166" lon="-1.90566">
        <ele>74</ele>
        <time>2015-12-05T13:29:21Z</time>
      </trkpt>
      <trkpt lat="47.36162" lon="-1.90564">
        <ele>74</ele>
        <time>2015-12-05T13:29:23Z</time>
      </trkpt>
      <trkpt lat="47.36159" lon="-1.90565">
        <ele>74</ele>
        <time>2015-12-05T13:29:25Z</time>
      </trkpt>
      <trkpt lat="47.36155" lon="-1.90564">
        <ele>74</ele>
        <time>2015-12-05T13:29:27Z</time>
      </trkpt>
      <trkpt lat="47.36152" lon="-1.90562">
        <ele>74</ele>
        <time>2015-12-05T13:29:29Z</time>
      </trkpt>
      <trkpt lat="47.36148" lon="-1.90559">
        <ele>74</ele>
        <time>2015-12-05T13:29:30Z</time>
      </trkpt>
      <trkpt lat="47.36143" lon="-1.90556">
        <ele>73</ele>
        <time>2015-12-05T13:29:31Z</time>
      </trkpt>
      <trkpt lat="47.3614" lon="-1.90553">
        <ele>73</ele>
        <time>2015-12-05T13:29:33Z</time>
      </trkpt>
      <trkpt lat="47.36135" lon="-1.90554">
        <ele>73</ele>
        <time>2015-12-05T13:29:34Z</time>
      </trkpt>
      <trkpt lat="47.36132" lon="-1.90555">
        <ele>73</ele>
        <time>2015-12-05T13:29:35Z</time>
      </trkpt>
      <trkpt lat="47.36129" lon="-1.90554">
        <ele>73</ele>
        <time>2015-12-05T13:29:36Z</time>
      </trkpt>
      <trkpt lat="47.36126" lon="-1.90551">
        <ele>73</ele>
        <time>2015-12-05T13:29:38Z</time>
      </trkpt>
      <trkpt lat="47.36125" lon="-1.90547">
        <ele>73</ele>
        <time>2015-12-05T13:29:39Z</time>
      </trkpt>
      <trkpt lat="47.36122" lon="-1.90541">
        <ele>73</ele>
        <time>2015-12-05T13:29:41Z</time>
      </trkpt>
      <trkpt lat="47.36119" lon="-1.90537">
        <ele>73</ele>
        <time>2015-12-05T13:29:43Z</time>
      </trkpt>
      <trkpt lat="47.36115" lon="-1.90533">
        <ele>73</ele>
        <time>2015-12-05T13:29:45Z</time>
      </trkpt>
      <trkpt lat="47.36113" lon="-1.90527">
        <ele>73</ele>
        <time>2015-12-05T13:29:47Z</time>
      </trkpt>
      <trkpt lat="47.36112" lon="-1.90521">
        <ele>73</ele>
        <time>2015-12-05T13:29:49Z</time>
      </trkpt>
      <trkpt lat="47.3611" lon="-1.90515">
        <ele>73</ele>
        <time>2015-12-05T13:29:51Z</time>
      </trkpt>
      <trkpt lat="47.36108" lon="-1.90511">
        <ele>73</ele>
        <time>2015-12-05T13:29:52Z</time>
      </trkpt>
      <trkpt lat="47.36106" lon="-1.90504">
        <ele>73</ele>
        <time>2015-12-05T13:29:54Z</time>
      </trkpt>
      <trkpt lat="47.36105" lon="-1.905">
        <ele>73</ele>
        <time>2015-12-05T13:29:55Z</time>
      </trkpt>
      <trkpt lat="47.36104" lon="-1.90496">
        <ele>73</ele>
        <time>2015-12-05T13:29:56Z</time>
      </trkpt>
      <trkpt lat="47.36104" lon="-1.90491">
        <ele>73</ele>
        <time>2015-12-05T13:29:57Z</time>
      </trkpt>
      <trkpt lat="47.36102" lon="-1.90485">
        <ele>73</ele>
        <time>2015-12-05T13:29:59Z</time>
      </trkpt>
      <trkpt lat="47.36101" lon="-1.90477">
        <ele>73</ele>
        <time>2015-12-05T13:30:01Z</time>
      </trkpt>
      <trkpt lat="47.36099" lon="-1.90472">
        <ele>73</ele>
        <time>2015-12-05T13:30:03Z</time>
      </trkpt>
      <trkpt lat="47.36098" lon="-1.90465">
        <ele>73</ele>
        <time>2015-12-05T13:30:05Z</time>
      </trkpt>
      <trkpt lat="47.36096" lon="-1.9046">
        <ele>73</ele>
        <time>2015-12-05T13:30:07Z</time>
      </trkpt>
      <trkpt lat="47.36094" lon="-1.90455">
        <ele>73</ele>
        <time>2015-12-05T13:30:09Z</time>
      </trkpt>
      <trkpt lat="47.36091" lon="-1.90454">
        <ele>73</ele>
        <time>2015-12-05T13:30:11Z</time>
      </trkpt>
      <trkpt lat="47.36088" lon="-1.90453">
        <ele>73</ele>
        <time>2015-12-05T13:30:13Z</time>
      </trkpt>
      <trkpt lat="47.36084" lon="-1.90451">
        <ele>73</ele>
        <time>2015-12-05T13:30:15Z</time>
      </trkpt>
      <trkpt lat="47.3608" lon="-1.90452">
        <ele>72</ele>
        <time>2015-12-05T13:30:18Z</time>
      </trkpt>
      <trkpt lat="47.36077" lon="-1.90454">
        <ele>72</ele>
        <time>2015-12-05T13:30:20Z</time>
      </trkpt>
      <trkpt lat="47.36073" lon="-1.90457">
        <ele>72</ele>
        <time>2015-12-05T13:30:23Z</time>
      </trkpt>
      <trkpt lat="47.36068" lon="-1.90457">
        <ele>72</ele>
        <time>2015-12-05T13:30:25Z</time>
      </trkpt>
      <trkpt lat="47.36063" lon="-1.90459">
        <ele>71</ele>
        <time>2015-12-05T13:30:27Z</time>
      </trkpt>
      <trkpt lat="47.36057" lon="-1.90461">
        <ele>71</ele>
        <time>2015-12-05T13:30:29Z</time>
      </trkpt>
      <trkpt lat="47.36051" lon="-1.90463">
        <ele>71</ele>
        <time>2015-12-05T13:30:32Z</time>
      </trkpt>
      <trkpt lat="47.36049" lon="-1.90466">
        <ele>71</ele>
        <time>2015-12-05T13:30:34Z</time>
      </trkpt>
      <trkpt lat="47.36047" lon="-1.9047">
        <ele>71</ele>
        <time>2015-12-05T13:30:41Z</time>
      </trkpt>
      <trkpt lat="47.36045" lon="-1.90474">
        <ele>71</ele>
        <time>2015-12-05T13:30:44Z</time>
      </trkpt>
      <trkpt lat="47.36047" lon="-1.90477">
        <ele>71</ele>
        <time>2015-12-05T13:30:47Z</time>
      </trkpt>
      <trkpt lat="47.36049" lon="-1.90481">
        <ele>71</ele>
        <time>2015-12-05T13:30:50Z</time>
      </trkpt>
      <trkpt lat="47.3605" lon="-1.90485">
        <ele>71</ele>
        <time>2015-12-05T13:30:53Z</time>
      </trkpt>
      <trkpt lat="47.36053" lon="-1.90488">
        <ele>71</ele>
        <time>2015-12-05T13:30:56Z</time>
      </trkpt>
      <trkpt lat="47.36055" lon="-1.90491">
        <ele>71</ele>
        <time>2015-12-05T13:30:58Z</time>
      </trkpt>
      <trkpt lat="47.36055" lon="-1.90495">
        <ele>71</ele>
        <time>2015-12-05T13:31:03Z</time>
      </trkpt>
      <trkpt lat="47.36056" lon="-1.905">
        <ele>71</ele>
        <time>2015-12-05T13:31:09Z</time>
      </trkpt>
      <trkpt lat="47.36058" lon="-1.90503">
        <ele>72</ele>
        <time>2015-12-05T13:31:23Z</time>
      </trkpt>
      <trkpt lat="47.3606" lon="-1.90509">
        <ele>72</ele>
        <time>2015-12-05T13:31:27Z</time>
      </trkpt>
      <trkpt lat="47.36061" lon="-1.90513">
        <ele>72</ele>
        <time>2015-12-05T13:31:30Z</time>
      </trkpt>
      <trkpt lat="47.36065" lon="-1.9052">
        <ele>72</ele>
        <time>2015-12-05T13:31:35Z</time>
      </trkpt>
      <trkpt lat="47.36066" lon="-1.90524">
        <ele>72</ele>
        <time>2015-12-05T13:31:37Z</time>
      </trkpt>
      <trkpt lat="47.36069" lon="-1.90531">
        <ele>72</ele>
        <time>2015-12-05T13:31:39Z</time>
      </trkpt>
      <trkpt lat="47.36072" lon="-1.90533">
        <ele>72</ele>
        <time>2015-12-05T13:31:41Z</time>
      </trkpt>
      <trkpt lat="47.36073" lon="-1.90537">
        <ele>72</ele>
        <time>2015-12-05T13:31:43Z</time>
      </trkpt>
      <trkpt lat="47.36075" lon="-1.90544">
        <ele>72</ele>
        <time>2015-12-05T13:31:45Z</time>
      </trkpt>
      <trkpt lat="47.36076" lon="-1.90548">
        <ele>72</ele>
        <time>2015-12-05T13:31:46Z</time>
      </trkpt>
      <trkpt lat="47.36078" lon="-1.90554">
        <ele>72</ele>
        <time>2015-12-05T13:31:47Z</time>
      </trkpt>
      <trkpt lat="47.36079" lon="-1.9056">
        <ele>72</ele>
        <time>2015-12-05T13:31:48Z</time>
      </trkpt>
      <trkpt lat="47.36081" lon="-1.90567">
        <ele>71</ele>
        <time>2015-12-05T13:31:49Z</time>
      </trkpt>
      <trkpt lat="47.36083" lon="-1.90573">
        <ele>71</ele>
        <time>2015-12-05T13:31:50Z</time>
      </trkpt>
      <trkpt lat="47.36084" lon="-1.90579">
        <ele>71</ele>
        <time>2015-12-05T13:31:51Z</time>
      </trkpt>
      <trkpt lat="47.36086" lon="-1.90585">
        <ele>71</ele>
        <time>2015-12-05T13:31:52Z</time>
      </trkpt>
      <trkpt lat="47.36088" lon="-1.90591">
        <ele>71</ele>
        <time>2015-12-05T13:31:53Z</time>
      </trkpt>
      <trkpt lat="47.3609" lon="-1.90598">
        <ele>72</ele>
        <time>2015-12-05T13:31:54Z</time>
      </trkpt>
      <trkpt lat="47.36092" lon="-1.90604">
        <ele>72</ele>
        <time>2015-12-05T13:31:55Z</time>
      </trkpt>
      <trkpt lat="47.36094" lon="-1.90611">
        <ele>72</ele>
        <time>2015-12-05T13:31:56Z</time>
      </trkpt>
      <trkpt lat="47.36096" lon="-1.90617">
        <ele>72</ele>
        <time>2015-12-05T13:31:57Z</time>
      </trkpt>
      <trkpt lat="47.36097" lon="-1.90624">
        <ele>72</ele>
        <time>2015-12-05T13:31:58Z</time>
      </trkpt>
      <trkpt lat="47.36098" lon="-1.90629">
        <ele>72</ele>
        <time>2015-12-05T13:31:59Z</time>
      </trkpt>
      <trkpt lat="47.361" lon="-1.90633">
        <ele>72</ele>
        <time>2015-12-05T13:32:00Z</time>
      </trkpt>
      <trkpt lat="47.36103" lon="-1.90637">
        <ele>72</ele>
        <time>2015-12-05T13:32:02Z</time>
      </trkpt>
      <trkpt lat="47.36103" lon="-1.90643">
        <ele>72</ele>
        <time>2015-12-05T13:32:05Z</time>
      </trkpt>
      <trkpt lat="47.36101" lon="-1.9065">
        <ele>71</ele>
        <time>2015-12-05T13:32:11Z</time>
      </trkpt>
      <trkpt lat="47.36103" lon="-1.90657">
        <ele>71</ele>
        <time>2015-12-05T13:32:34Z</time>
      </trkpt>
      <trkpt lat="47.36106" lon="-1.90663">
        <ele>71</ele>
        <time>2015-12-05T13:32:38Z</time>
      </trkpt>
      <trkpt lat="47.36111" lon="-1.90669">
        <ele>70</ele>
        <time>2015-12-05T13:32:42Z</time>
      </trkpt>
      <trkpt lat="47.36113" lon="-1.90673">
        <ele>70</ele>
        <time>2015-12-05T13:32:43Z</time>
      </trkpt>
      <trkpt lat="47.36114" lon="-1.90678">
        <ele>70</ele>
        <time>2015-12-05T13:32:45Z</time>
      </trkpt>
      <trkpt lat="47.36115" lon="-1.90685">
        <ele>70</ele>
        <time>2015-12-05T13:32:47Z</time>
      </trkpt>
      <trkpt lat="47.36116" lon="-1.90691">
        <ele>70</ele>
        <time>2015-12-05T13:32:49Z</time>
      </trkpt>
      <trkpt lat="47.36116" lon="-1.90696">
        <ele>70</ele>
        <time>2015-12-05T13:32:51Z</time>
      </trkpt>
      <trkpt lat="47.36118" lon="-1.90703">
        <ele>70</ele>
        <time>2015-12-05T13:32:53Z</time>
      </trkpt>
      <trkpt lat="47.36119" lon="-1.90708">
        <ele>70</ele>
        <time>2015-12-05T13:32:55Z</time>
      </trkpt>
      <trkpt lat="47.36122" lon="-1.90721">
        <ele>70</ele>
        <time>2015-12-05T13:32:57Z</time>
      </trkpt>
      <trkpt lat="47.36123" lon="-1.90729">
        <ele>70</ele>
        <time>2015-12-05T13:32:59Z</time>
      </trkpt>
      <trkpt lat="47.36123" lon="-1.90734">
        <ele>70</ele>
        <time>2015-12-05T13:33:00Z</time>
      </trkpt>
      <trkpt lat="47.36123" lon="-1.90738">
        <ele>70</ele>
        <time>2015-12-05T13:33:01Z</time>
      </trkpt>
      <trkpt lat="47.36124" lon="-1.90746">
        <ele>70</ele>
        <time>2015-12-05T13:33:03Z</time>
      </trkpt>
      <trkpt lat="47.36124" lon="-1.9075">
        <ele>70</ele>
        <time>2015-12-05T13:33:05Z</time>
      </trkpt>
      <trkpt lat="47.36126" lon="-1.90754">
        <ele>69</ele>
        <time>2015-12-05T13:33:06Z</time>
      </trkpt>
      <trkpt lat="47.36127" lon="-1.90761">
        <ele>69</ele>
        <time>2015-12-05T13:33:08Z</time>
      </trkpt>
      <trkpt lat="47.36129" lon="-1.90764">
        <ele>69</ele>
        <time>2015-12-05T13:33:11Z</time>
      </trkpt>
      <trkpt lat="47.3613" lon="-1.90768">
        <ele>69</ele>
        <time>2015-12-05T13:33:12Z</time>
      </trkpt>
      <trkpt lat="47.36131" lon="-1.90772">
        <ele>69</ele>
        <time>2015-12-05T13:33:14Z</time>
      </trkpt>
      <trkpt lat="47.36132" lon="-1.90777">
        <ele>69</ele>
        <time>2015-12-05T13:33:15Z</time>
      </trkpt>
      <trkpt lat="47.36134" lon="-1.90784">
        <ele>69</ele>
        <time>2015-12-05T13:33:17Z</time>
      </trkpt>
      <trkpt lat="47.36137" lon="-1.90791">
        <ele>68</ele>
        <time>2015-12-05T13:33:19Z</time>
      </trkpt>
      <trkpt lat="47.3614" lon="-1.90799">
        <ele>68</ele>
        <time>2015-12-05T13:33:22Z</time>
      </trkpt>
      <trkpt lat="47.36143" lon="-1.90806">
        <ele>68</ele>
        <time>2015-12-05T13:33:25Z</time>
      </trkpt>
      <trkpt lat="47.36146" lon="-1.90812">
        <ele>68</ele>
        <time>2015-12-05T13:33:27Z</time>
      </trkpt>
      <trkpt lat="47.36148" lon="-1.90815">
        <ele>68</ele>
        <time>2015-12-05T13:33:28Z</time>
      </trkpt>
      <trkpt lat="47.36151" lon="-1.90821">
        <ele>68</ele>
        <time>2015-12-05T13:33:30Z</time>
      </trkpt>
      <trkpt lat="47.36153" lon="-1.90826">
        <ele>68</ele>
        <time>2015-12-05T13:33:32Z</time>
      </trkpt>
      <trkpt lat="47.36155" lon="-1.9083">
        <ele>68</ele>
        <time>2015-12-05T13:33:34Z</time>
      </trkpt>
      <trkpt lat="47.36159" lon="-1.90836">
        <ele>67</ele>
        <time>2015-12-05T13:33:37Z</time>
      </trkpt>
      <trkpt lat="47.36162" lon="-1.9084">
        <ele>67</ele>
        <time>2015-12-05T13:33:39Z</time>
      </trkpt>
      <trkpt lat="47.36166" lon="-1.9084">
        <ele>67</ele>
        <time>2015-12-05T13:33:42Z</time>
      </trkpt>
      <trkpt lat="47.3617" lon="-1.9084">
        <ele>67</ele>
        <time>2015-12-05T13:33:44Z</time>
      </trkpt>
      <trkpt lat="47.36173" lon="-1.90839">
        <ele>67</ele>
        <time>2015-12-05T13:33:46Z</time>
      </trkpt>
      <trkpt lat="47.36177" lon="-1.90839">
        <ele>66</ele>
        <time>2015-12-05T13:33:49Z</time>
      </trkpt>
      <trkpt lat="47.3618" lon="-1.90841">
        <ele>66</ele>
        <time>2015-12-05T13:33:52Z</time>
      </trkpt>
      <trkpt lat="47.36184" lon="-1.90843">
        <ele>66</ele>
        <time>2015-12-05T13:33:55Z</time>
      </trkpt>
      <trkpt lat="47.36186" lon="-1.90847">
        <ele>66</ele>
        <time>2015-12-05T13:33:58Z</time>
      </trkpt>
      <trkpt lat="47.36183" lon="-1.90851">
        <ele>66</ele>
        <time>2015-12-05T13:34:02Z</time>
      </trkpt>
      <trkpt lat="47.36181" lon="-1.90847">
        <ele>66</ele>
        <time>2015-12-05T13:34:07Z</time>
      </trkpt>
      <trkpt lat="47.36182" lon="-1.90843">
        <ele>66</ele>
        <time>2015-12-05T13:36:40Z</time>
      </trkpt>
      <trkpt lat="47.36182" lon="-1.90848">
        <ele>66</ele>
        <time>2015-12-05T13:36:43Z</time>
      </trkpt>
      <trkpt lat="47.3618" lon="-1.90853">
        <ele>66</ele>
        <time>2015-12-05T13:36:45Z</time>
      </trkpt>
      <trkpt lat="47.3618" lon="-1.90857">
        <ele>66</ele>
        <time>2015-12-05T13:36:47Z</time>
      </trkpt>
      <trkpt lat="47.36178" lon="-1.90863">
        <ele>66</ele>
        <time>2015-12-05T13:36:48Z</time>
      </trkpt>
      <trkpt lat="47.36175" lon="-1.90867">
        <ele>66</ele>
        <time>2015-12-05T13:36:50Z</time>
      </trkpt>
      <trkpt lat="47.36171" lon="-1.90867">
        <ele>65</ele>
        <time>2015-12-05T13:36:52Z</time>
      </trkpt>
      <trkpt lat="47.36167" lon="-1.90863">
        <ele>66</ele>
        <time>2015-12-05T13:36:54Z</time>
      </trkpt>
      <trkpt lat="47.36165" lon="-1.90857">
        <ele>66</ele>
        <time>2015-12-05T13:36:56Z</time>
      </trkpt>
      <trkpt lat="47.36164" lon="-1.90851">
        <ele>66</ele>
        <time>2015-12-05T13:36:58Z</time>
      </trkpt>
      <trkpt lat="47.3616" lon="-1.90844">
        <ele>67</ele>
        <time>2015-12-05T13:37:00Z</time>
      </trkpt>
      <trkpt lat="47.36159" lon="-1.90841">
        <ele>67</ele>
        <time>2015-12-05T13:37:01Z</time>
      </trkpt>
      <trkpt lat="47.36155" lon="-1.90836">
        <ele>67</ele>
        <time>2015-12-05T13:37:03Z</time>
      </trkpt>
      <trkpt lat="47.36152" lon="-1.90831">
        <ele>68</ele>
        <time>2015-12-05T13:37:04Z</time>
      </trkpt>
      <trkpt lat="47.3615" lon="-1.90827">
        <ele>68</ele>
        <time>2015-12-05T13:37:05Z</time>
      </trkpt>
      <trkpt lat="47.36149" lon="-1.90821">
        <ele>68</ele>
        <time>2015-12-05T13:37:06Z</time>
      </trkpt>
      <trkpt lat="47.36147" lon="-1.90818">
        <ele>68</ele>
        <time>2015-12-05T13:37:07Z</time>
      </trkpt>
      <trkpt lat="47.36146" lon="-1.90812">
        <ele>68</ele>
        <time>2015-12-05T13:37:08Z</time>
      </trkpt>
      <trkpt lat="47.36145" lon="-1.90807">
        <ele>68</ele>
        <time>2015-12-05T13:37:09Z</time>
      </trkpt>
      <trkpt lat="47.36144" lon="-1.90802">
        <ele>68</ele>
        <time>2015-12-05T13:37:10Z</time>
      </trkpt>
      <trkpt lat="47.36142" lon="-1.90798">
        <ele>68</ele>
        <time>2015-12-05T13:37:11Z</time>
      </trkpt>
      <trkpt lat="47.36141" lon="-1.90793">
        <ele>68</ele>
        <time>2015-12-05T13:37:12Z</time>
      </trkpt>
      <trkpt lat="47.36139" lon="-1.90788">
        <ele>69</ele>
        <time>2015-12-05T13:37:13Z</time>
      </trkpt>
      <trkpt lat="47.36138" lon="-1.90782">
        <ele>69</ele>
        <time>2015-12-05T13:37:14Z</time>
      </trkpt>
      <trkpt lat="47.36137" lon="-1.90776">
        <ele>69</ele>
        <time>2015-12-05T13:37:15Z</time>
      </trkpt>
      <trkpt lat="47.36135" lon="-1.90771">
        <ele>69</ele>
        <time>2015-12-05T13:37:16Z</time>
      </trkpt>
      <trkpt lat="47.36134" lon="-1.90767">
        <ele>69</ele>
        <time>2015-12-05T13:37:17Z</time>
      </trkpt>
      <trkpt lat="47.36132" lon="-1.90759">
        <ele>69</ele>
        <time>2015-12-05T13:37:19Z</time>
      </trkpt>
      <trkpt lat="47.3613" lon="-1.90754">
        <ele>69</ele>
        <time>2015-12-05T13:37:21Z</time>
      </trkpt>
      <trkpt lat="47.36128" lon="-1.90748">
        <ele>70</ele>
        <time>2015-12-05T13:37:23Z</time>
      </trkpt>
      <trkpt lat="47.36125" lon="-1.90741">
        <ele>70</ele>
        <time>2015-12-05T13:37:25Z</time>
      </trkpt>
      <trkpt lat="47.36124" lon="-1.90736">
        <ele>70</ele>
        <time>2015-12-05T13:37:26Z</time>
      </trkpt>
      <trkpt lat="47.36123" lon="-1.90731">
        <ele>70</ele>
        <time>2015-12-05T13:37:27Z</time>
      </trkpt>
      <trkpt lat="47.3612" lon="-1.9072">
        <ele>70</ele>
        <time>2015-12-05T13:37:29Z</time>
      </trkpt>
      <trkpt lat="47.36119" lon="-1.90715">
        <ele>70</ele>
        <time>2015-12-05T13:37:30Z</time>
      </trkpt>
      <trkpt lat="47.36117" lon="-1.90709">
        <ele>70</ele>
        <time>2015-12-05T13:37:31Z</time>
      </trkpt>
      <trkpt lat="47.36115" lon="-1.90703">
        <ele>70</ele>
        <time>2015-12-05T13:37:32Z</time>
      </trkpt>
      <trkpt lat="47.36112" lon="-1.90698">
        <ele>70</ele>
        <time>2015-12-05T13:37:33Z</time>
      </trkpt>
      <trkpt lat="47.3611" lon="-1.90694">
        <ele>70</ele>
        <time>2015-12-05T13:37:34Z</time>
      </trkpt>
      <trkpt lat="47.36107" lon="-1.9069">
        <ele>70</ele>
        <time>2015-12-05T13:37:35Z</time>
      </trkpt>
      <trkpt lat="47.36106" lon="-1.90684">
        <ele>70</ele>
        <time>2015-12-05T13:37:36Z</time>
      </trkpt>
      <trkpt lat="47.36104" lon="-1.9068">
        <ele>70</ele>
        <time>2015-12-05T13:37:37Z</time>
      </trkpt>
      <trkpt lat="47.36102" lon="-1.90675">
        <ele>70</ele>
        <time>2015-12-05T13:37:38Z</time>
      </trkpt>
      <trkpt lat="47.361" lon="-1.9067">
        <ele>70</ele>
        <time>2015-12-05T13:37:39Z</time>
      </trkpt>
      <trkpt lat="47.36098" lon="-1.90667">
        <ele>70</ele>
        <time>2015-12-05T13:37:40Z</time>
      </trkpt>
      <trkpt lat="47.36096" lon="-1.90663">
        <ele>71</ele>
        <time>2015-12-05T13:37:41Z</time>
      </trkpt>
      <trkpt lat="47.36095" lon="-1.90659">
        <ele>71</ele>
        <time>2015-12-05T13:37:43Z</time>
      </trkpt>
      <trkpt lat="47.36092" lon="-1.90658">
        <ele>70</ele>
        <time>2015-12-05T13:37:45Z</time>
      </trkpt>
      <trkpt lat="47.36087" lon="-1.90658">
        <ele>70</ele>
        <time>2015-12-05T13:37:47Z</time>
      </trkpt>
      <trkpt lat="47.36083" lon="-1.90657">
        <ele>70</ele>
        <time>2015-12-05T13:37:49Z</time>
      </trkpt>
      <trkpt lat="47.3608" lon="-1.90657">
        <ele>70</ele>
        <time>2015-12-05T13:37:50Z</time>
      </trkpt>
      <trkpt lat="47.36077" lon="-1.90657">
        <ele>70</ele>
        <time>2015-12-05T13:37:51Z</time>
      </trkpt>
      <trkpt lat="47.36073" lon="-1.90657">
        <ele>70</ele>
        <time>2015-12-05T13:37:52Z</time>
      </trkpt>
      <trkpt lat="47.36069" lon="-1.90658">
        <ele>71</ele>
        <time>2015-12-05T13:37:53Z</time>
      </trkpt>
      <trkpt lat="47.36064" lon="-1.90659">
        <ele>71</ele>
        <time>2015-12-05T13:37:55Z</time>
      </trkpt>
      <trkpt lat="47.36061" lon="-1.9066">
        <ele>71</ele>
        <time>2015-12-05T13:37:56Z</time>
      </trkpt>
      <trkpt lat="47.36057" lon="-1.9066">
        <ele>71</ele>
        <time>2015-12-05T13:37:58Z</time>
      </trkpt>
      <trkpt lat="47.36054" lon="-1.9066">
        <ele>71</ele>
        <time>2015-12-05T13:38:00Z</time>
      </trkpt>
      <trkpt lat="47.36049" lon="-1.9066">
        <ele>72</ele>
        <time>2015-12-05T13:38:02Z</time>
      </trkpt>
      <trkpt lat="47.36044" lon="-1.9066">
        <ele>72</ele>
        <time>2015-12-05T13:38:04Z</time>
      </trkpt>
      <trkpt lat="47.36042" lon="-1.9066">
        <ele>72</ele>
        <time>2015-12-05T13:38:05Z</time>
      </trkpt>
      <trkpt lat="47.36034" lon="-1.9066">
        <ele>72</ele>
        <time>2015-12-05T13:38:08Z</time>
      </trkpt>
      <trkpt lat="47.36029" lon="-1.90659">
        <ele>72</ele>
        <time>2015-12-05T13:38:10Z</time>
      </trkpt>
      <trkpt lat="47.36024" lon="-1.9066">
        <ele>73</ele>
        <time>2015-12-05T13:38:12Z</time>
      </trkpt>
      <trkpt lat="47.3602" lon="-1.90661">
        <ele>73</ele>
        <time>2015-12-05T13:38:14Z</time>
      </trkpt>
      <trkpt lat="47.36015" lon="-1.90662">
        <ele>73</ele>
        <time>2015-12-05T13:38:16Z</time>
      </trkpt>
      <trkpt lat="47.36011" lon="-1.90664">
        <ele>73</ele>
        <time>2015-12-05T13:38:18Z</time>
      </trkpt>
      <trkpt lat="47.36007" lon="-1.90666">
        <ele>73</ele>
        <time>2015-12-05T13:38:20Z</time>
      </trkpt>
      <trkpt lat="47.36004" lon="-1.90666">
        <ele>74</ele>
        <time>2015-12-05T13:38:22Z</time>
      </trkpt>
      <trkpt lat="47.36002" lon="-1.90669">
        <ele>74</ele>
        <time>2015-12-05T13:38:23Z</time>
      </trkpt>
      <trkpt lat="47.35998" lon="-1.90672">
        <ele>74</ele>
        <time>2015-12-05T13:38:25Z</time>
      </trkpt>
      <trkpt lat="47.35995" lon="-1.90672">
        <ele>74</ele>
        <time>2015-12-05T13:38:26Z</time>
      </trkpt>
      <trkpt lat="47.35991" lon="-1.90668">
        <ele>74</ele>
        <time>2015-12-05T13:38:28Z</time>
      </trkpt>
      <trkpt lat="47.35989" lon="-1.9066">
        <ele>75</ele>
        <time>2015-12-05T13:38:30Z</time>
      </trkpt>
      <trkpt lat="47.35988" lon="-1.90656">
        <ele>75</ele>
        <time>2015-12-05T13:38:31Z</time>
      </trkpt>
      <trkpt lat="47.35987" lon="-1.90653">
        <ele>75</ele>
        <time>2015-12-05T13:38:32Z</time>
      </trkpt>
      <trkpt lat="47.35985" lon="-1.90646">
        <ele>75</ele>
        <time>2015-12-05T13:38:34Z</time>
      </trkpt>
      <trkpt lat="47.35983" lon="-1.9064">
        <ele>75</ele>
        <time>2015-12-05T13:38:36Z</time>
      </trkpt>
      <trkpt lat="47.35981" lon="-1.90634">
        <ele>75</ele>
        <time>2015-12-05T13:38:38Z</time>
      </trkpt>
      <trkpt lat="47.35979" lon="-1.90625">
        <ele>75</ele>
        <time>2015-12-05T13:38:40Z</time>
      </trkpt>
      <trkpt lat="47.35978" lon="-1.9062">
        <ele>75</ele>
        <time>2015-12-05T13:38:41Z</time>
      </trkpt>
      <trkpt lat="47.35977" lon="-1.90614">
        <ele>75</ele>
        <time>2015-12-05T13:38:42Z</time>
      </trkpt>
      <trkpt lat="47.35977" lon="-1.90608">
        <ele>75</ele>
        <time>2015-12-05T13:38:43Z</time>
      </trkpt>
      <trkpt lat="47.35975" lon="-1.90602">
        <ele>75</ele>
        <time>2015-12-05T13:38:44Z</time>
      </trkpt>
      <trkpt lat="47.35974" lon="-1.90596">
        <ele>75</ele>
        <time>2015-12-05T13:38:45Z</time>
      </trkpt>
      <trkpt lat="47.35973" lon="-1.9059">
        <ele>75</ele>
        <time>2015-12-05T13:38:46Z</time>
      </trkpt>
      <trkpt lat="47.35972" lon="-1.90583">
        <ele>74</ele>
        <time>2015-12-05T13:38:47Z</time>
      </trkpt>
      <trkpt lat="47.35971" lon="-1.90577">
        <ele>74</ele>
        <time>2015-12-05T13:38:48Z</time>
      </trkpt>
      <trkpt lat="47.35969" lon="-1.90571">
        <ele>74</ele>
        <time>2015-12-05T13:38:49Z</time>
      </trkpt>
      <trkpt lat="47.35968" lon="-1.90566">
        <ele>74</ele>
        <time>2015-12-05T13:38:50Z</time>
      </trkpt>
      <trkpt lat="47.35966" lon="-1.90561">
        <ele>74</ele>
        <time>2015-12-05T13:38:51Z</time>
      </trkpt>
      <trkpt lat="47.35965" lon="-1.90557">
        <ele>74</ele>
        <time>2015-12-05T13:38:52Z</time>
      </trkpt>
      <trkpt lat="47.35963" lon="-1.90554">
        <ele>74</ele>
        <time>2015-12-05T13:38:53Z</time>
      </trkpt>
      <trkpt lat="47.35959" lon="-1.90551">
        <ele>74</ele>
        <time>2015-12-05T13:38:55Z</time>
      </trkpt>
      <trkpt lat="47.35954" lon="-1.90552">
        <ele>74</ele>
        <time>2015-12-05T13:38:57Z</time>
      </trkpt>
      <trkpt lat="47.35949" lon="-1.90555">
        <ele>74</ele>
        <time>2015-12-05T13:38:59Z</time>
      </trkpt>
      <trkpt lat="47.35945" lon="-1.90556">
        <ele>74</ele>
        <time>2015-12-05T13:39:00Z</time>
      </trkpt>
      <trkpt lat="47.35942" lon="-1.90558">
        <ele>74</ele>
        <time>2015-12-05T13:39:02Z</time>
      </trkpt>
      <trkpt lat="47.35935" lon="-1.90557">
        <ele>75</ele>
        <time>2015-12-05T13:39:03Z</time>
      </trkpt>
      <trkpt lat="47.35929" lon="-1.90555">
        <ele>75</ele>
        <time>2015-12-05T13:39:04Z</time>
      </trkpt>
      <trkpt lat="47.35924" lon="-1.90552">
        <ele>75</ele>
        <time>2015-12-05T13:39:06Z</time>
      </trkpt>
      <trkpt lat="47.35919" lon="-1.90548">
        <ele>75</ele>
        <time>2015-12-05T13:39:07Z</time>
      </trkpt>
      <trkpt lat="47.35915" lon="-1.90545">
        <ele>76</ele>
        <time>2015-12-05T13:39:08Z</time>
      </trkpt>
      <trkpt lat="47.35912" lon="-1.90541">
        <ele>76</ele>
        <time>2015-12-05T13:39:09Z</time>
      </trkpt>
      <trkpt lat="47.35909" lon="-1.90538">
        <ele>76</ele>
        <time>2015-12-05T13:39:10Z</time>
      </trkpt>
      <trkpt lat="47.35906" lon="-1.90535">
        <ele>76</ele>
        <time>2015-12-05T13:39:11Z</time>
      </trkpt>
      <trkpt lat="47.35902" lon="-1.90532">
        <ele>76</ele>
        <time>2015-12-05T13:39:12Z</time>
      </trkpt>
      <trkpt lat="47.35899" lon="-1.9053">
        <ele>76</ele>
        <time>2015-12-05T13:39:13Z</time>
      </trkpt>
      <trkpt lat="47.35896" lon="-1.90528">
        <ele>76</ele>
        <time>2015-12-05T13:39:14Z</time>
      </trkpt>
      <trkpt lat="47.35893" lon="-1.90527">
        <ele>76</ele>
        <time>2015-12-05T13:39:15Z</time>
      </trkpt>
      <trkpt lat="47.35889" lon="-1.90528">
        <ele>76</ele>
        <time>2015-12-05T13:39:16Z</time>
      </trkpt>
      <trkpt lat="47.35886" lon="-1.90529">
        <ele>76</ele>
        <time>2015-12-05T13:39:17Z</time>
      </trkpt>
      <trkpt lat="47.35884" lon="-1.90532">
        <ele>76</ele>
        <time>2015-12-05T13:39:18Z</time>
      </trkpt>
      <trkpt lat="47.35881" lon="-1.90534">
        <ele>77</ele>
        <time>2015-12-05T13:39:19Z</time>
      </trkpt>
      <trkpt lat="47.35879" lon="-1.90538">
        <ele>77</ele>
        <time>2015-12-05T13:39:20Z</time>
      </trkpt>
      <trkpt lat="47.35878" lon="-1.90541">
        <ele>77</ele>
        <time>2015-12-05T13:39:21Z</time>
      </trkpt>
      <trkpt lat="47.35876" lon="-1.90544">
        <ele>77</ele>
        <time>2015-12-05T13:39:22Z</time>
      </trkpt>
      <trkpt lat="47.35874" lon="-1.90548">
        <ele>77</ele>
        <time>2015-12-05T13:39:23Z</time>
      </trkpt>
      <trkpt lat="47.35872" lon="-1.90554">
        <ele>77</ele>
        <time>2015-12-05T13:39:25Z</time>
      </trkpt>
      <trkpt lat="47.35868" lon="-1.9056">
        <ele>77</ele>
        <time>2015-12-05T13:39:27Z</time>
      </trkpt>
      <trkpt lat="47.35864" lon="-1.90566">
        <ele>77</ele>
        <time>2015-12-05T13:39:29Z</time>
      </trkpt>
      <trkpt lat="47.35862" lon="-1.90569">
        <ele>77</ele>
        <time>2015-12-05T13:39:30Z</time>
      </trkpt>
      <trkpt lat="47.35858" lon="-1.90574">
        <ele>78</ele>
        <time>2015-12-05T13:39:32Z</time>
      </trkpt>
      <trkpt lat="47.35856" lon="-1.90577">
        <ele>78</ele>
        <time>2015-12-05T13:39:33Z</time>
      </trkpt>
      <trkpt lat="47.35852" lon="-1.90582">
        <ele>78</ele>
        <time>2015-12-05T13:39:35Z</time>
      </trkpt>
      <trkpt lat="47.35848" lon="-1.90585">
        <ele>79</ele>
        <time>2015-12-05T13:39:37Z</time>
      </trkpt>
      <trkpt lat="47.35844" lon="-1.90587">
        <ele>79</ele>
        <time>2015-12-05T13:39:38Z</time>
      </trkpt>
      <trkpt lat="47.35841" lon="-1.90591">
        <ele>79</ele>
        <time>2015-12-05T13:39:40Z</time>
      </trkpt>
      <trkpt lat="47.3584" lon="-1.90596">
        <ele>79</ele>
        <time>2015-12-05T13:39:42Z</time>
      </trkpt>
      <trkpt lat="47.35838" lon="-1.90601">
        <ele>78</ele>
        <time>2015-12-05T13:39:44Z</time>
      </trkpt>
      <trkpt lat="47.35834" lon="-1.90607">
        <ele>78</ele>
        <time>2015-12-05T13:39:46Z</time>
      </trkpt>
      <trkpt lat="47.35831" lon="-1.90612">
        <ele>79</ele>
        <time>2015-12-05T13:39:48Z</time>
      </trkpt>
      <trkpt lat="47.35828" lon="-1.90619">
        <ele>79</ele>
        <time>2015-12-05T13:39:50Z</time>
      </trkpt>
      <trkpt lat="47.35826" lon="-1.90623">
        <ele>79</ele>
        <time>2015-12-05T13:39:51Z</time>
      </trkpt>
      <trkpt lat="47.35823" lon="-1.90628">
        <ele>78</ele>
        <time>2015-12-05T13:39:53Z</time>
      </trkpt>
      <trkpt lat="47.3582" lon="-1.90634">
        <ele>78</ele>
        <time>2015-12-05T13:39:54Z</time>
      </trkpt>
      <trkpt lat="47.35818" lon="-1.90637">
        <ele>78</ele>
        <time>2015-12-05T13:39:55Z</time>
      </trkpt>
      <trkpt lat="47.35816" lon="-1.90642">
        <ele>78</ele>
        <time>2015-12-05T13:39:57Z</time>
      </trkpt>
      <trkpt lat="47.35814" lon="-1.90646">
        <ele>78</ele>
        <time>2015-12-05T13:39:58Z</time>
      </trkpt>
      <trkpt lat="47.35813" lon="-1.9065">
        <ele>78</ele>
        <time>2015-12-05T13:39:59Z</time>
      </trkpt>
      <trkpt lat="47.35811" lon="-1.90653">
        <ele>78</ele>
        <time>2015-12-05T13:40:00Z</time>
      </trkpt>
      <trkpt lat="47.35808" lon="-1.90655">
        <ele>78</ele>
        <time>2015-12-05T13:40:01Z</time>
      </trkpt>
      <trkpt lat="47.35806" lon="-1.90658">
        <ele>78</ele>
        <time>2015-12-05T13:40:02Z</time>
      </trkpt>
      <trkpt lat="47.35802" lon="-1.9066">
        <ele>78</ele>
        <time>2015-12-05T13:40:03Z</time>
      </trkpt>
      <trkpt lat="47.35798" lon="-1.90662">
        <ele>78</ele>
        <time>2015-12-05T13:40:04Z</time>
      </trkpt>
      <trkpt lat="47.35793" lon="-1.90662">
        <ele>78</ele>
        <time>2015-12-05T13:40:05Z</time>
      </trkpt>
      <trkpt lat="47.35788" lon="-1.90661">
        <ele>78</ele>
        <time>2015-12-05T13:40:06Z</time>
      </trkpt>
      <trkpt lat="47.35784" lon="-1.90659">
        <ele>78</ele>
        <time>2015-12-05T13:40:07Z</time>
      </trkpt>
      <trkpt lat="47.35779" lon="-1.90656">
        <ele>78</ele>
        <time>2015-12-05T13:40:08Z</time>
      </trkpt>
      <trkpt lat="47.35775" lon="-1.90652">
        <ele>78</ele>
        <time>2015-12-05T13:40:09Z</time>
      </trkpt>
      <trkpt lat="47.35771" lon="-1.90649">
        <ele>78</ele>
        <time>2015-12-05T13:40:10Z</time>
      </trkpt>
      <trkpt lat="47.35767" lon="-1.90646">
        <ele>78</ele>
        <time>2015-12-05T13:40:11Z</time>
      </trkpt>
      <trkpt lat="47.35764" lon="-1.90643">
        <ele>78</ele>
        <time>2015-12-05T13:40:12Z</time>
      </trkpt>
      <trkpt lat="47.35761" lon="-1.90641">
        <ele>78</ele>
        <time>2015-12-05T13:40:13Z</time>
      </trkpt>
      <trkpt lat="47.35756" lon="-1.90638">
        <ele>78</ele>
        <time>2015-12-05T13:40:14Z</time>
      </trkpt>
      <trkpt lat="47.35752" lon="-1.90636">
        <ele>78</ele>
        <time>2015-12-05T13:40:15Z</time>
      </trkpt>
      <trkpt lat="47.35746" lon="-1.90631">
        <ele>78</ele>
        <time>2015-12-05T13:40:16Z</time>
      </trkpt>
      <trkpt lat="47.35743" lon="-1.90628">
        <ele>78</ele>
        <time>2015-12-05T13:40:17Z</time>
      </trkpt>
      <trkpt lat="47.3574" lon="-1.90626">
        <ele>78</ele>
        <time>2015-12-05T13:40:18Z</time>
      </trkpt>
      <trkpt lat="47.35736" lon="-1.90623">
        <ele>78</ele>
        <time>2015-12-05T13:40:19Z</time>
      </trkpt>
      <trkpt lat="47.35733" lon="-1.90619">
        <ele>78</ele>
        <time>2015-12-05T13:40:20Z</time>
      </trkpt>
      <trkpt lat="47.35729" lon="-1.90615">
        <ele>79</ele>
        <time>2015-12-05T13:40:21Z</time>
      </trkpt>
      <trkpt lat="47.35726" lon="-1.90612">
        <ele>79</ele>
        <time>2015-12-05T13:40:22Z</time>
      </trkpt>
      <trkpt lat="47.35723" lon="-1.90609">
        <ele>79</ele>
        <time>2015-12-05T13:40:23Z</time>
      </trkpt>
      <trkpt lat="47.35719" lon="-1.90606">
        <ele>79</ele>
        <time>2015-12-05T13:40:24Z</time>
      </trkpt>
      <trkpt lat="47.35717" lon="-1.90604">
        <ele>79</ele>
        <time>2015-12-05T13:40:25Z</time>
      </trkpt>
      <trkpt lat="47.35714" lon="-1.90601">
        <ele>79</ele>
        <time>2015-12-05T13:40:26Z</time>
      </trkpt>
      <trkpt lat="47.35709" lon="-1.90598">
        <ele>79</ele>
        <time>2015-12-05T13:40:28Z</time>
      </trkpt>
      <trkpt lat="47.35706" lon="-1.90597">
        <ele>79</ele>
        <time>2015-12-05T13:40:29Z</time>
      </trkpt>
      <trkpt lat="47.35704" lon="-1.906">
        <ele>79</ele>
        <time>2015-12-05T13:40:30Z</time>
      </trkpt>
      <trkpt lat="47.35701" lon="-1.90601">
        <ele>79</ele>
        <time>2015-12-05T13:40:31Z</time>
      </trkpt>
      <trkpt lat="47.35698" lon="-1.90603">
        <ele>79</ele>
        <time>2015-12-05T13:40:32Z</time>
      </trkpt>
      <trkpt lat="47.35696" lon="-1.90605">
        <ele>78</ele>
        <time>2015-12-05T13:40:33Z</time>
      </trkpt>
      <trkpt lat="47.35691" lon="-1.90609">
        <ele>78</ele>
        <time>2015-12-05T13:40:35Z</time>
      </trkpt>
      <trkpt lat="47.35686" lon="-1.90609">
        <ele>78</ele>
        <time>2015-12-05T13:40:36Z</time>
      </trkpt>
      <trkpt lat="47.35683" lon="-1.90609">
        <ele>78</ele>
        <time>2015-12-05T13:40:37Z</time>
      </trkpt>
      <trkpt lat="47.3568" lon="-1.90608">
        <ele>78</ele>
        <time>2015-12-05T13:40:38Z</time>
      </trkpt>
      <trkpt lat="47.35677" lon="-1.90608">
        <ele>78</ele>
        <time>2015-12-05T13:40:39Z</time>
      </trkpt>
      <trkpt lat="47.35673" lon="-1.90603">
        <ele>79</ele>
        <time>2015-12-05T13:40:40Z</time>
      </trkpt>
      <trkpt lat="47.3567" lon="-1.90599">
        <ele>79</ele>
        <time>2015-12-05T13:40:41Z</time>
      </trkpt>
      <trkpt lat="47.35668" lon="-1.90596">
        <ele>79</ele>
        <time>2015-12-05T13:40:42Z</time>
      </trkpt>
      <trkpt lat="47.35666" lon="-1.90593">
        <ele>78</ele>
        <time>2015-12-05T13:40:43Z</time>
      </trkpt>
      <trkpt lat="47.35663" lon="-1.90586">
        <ele>79</ele>
        <time>2015-12-05T13:40:44Z</time>
      </trkpt>
      <trkpt lat="47.3566" lon="-1.90579">
        <ele>79</ele>
        <time>2015-12-05T13:40:45Z</time>
      </trkpt>
      <trkpt lat="47.35658" lon="-1.90573">
        <ele>79</ele>
        <time>2015-12-05T13:40:46Z</time>
      </trkpt>
      <trkpt lat="47.35656" lon="-1.90566">
        <ele>79</ele>
        <time>2015-12-05T13:40:47Z</time>
      </trkpt>
      <trkpt lat="47.35654" lon="-1.9056">
        <ele>79</ele>
        <time>2015-12-05T13:40:48Z</time>
      </trkpt>
      <trkpt lat="47.35652" lon="-1.90555">
        <ele>79</ele>
        <time>2015-12-05T13:40:49Z</time>
      </trkpt>
      <trkpt lat="47.35649" lon="-1.9055">
        <ele>79</ele>
        <time>2015-12-05T13:40:50Z</time>
      </trkpt>
      <trkpt lat="47.35648" lon="-1.90545">
        <ele>79</ele>
        <time>2015-12-05T13:40:51Z</time>
      </trkpt>
      <trkpt lat="47.35646" lon="-1.9054">
        <ele>79</ele>
        <time>2015-12-05T13:40:52Z</time>
      </trkpt>
      <trkpt lat="47.35644" lon="-1.90535">
        <ele>79</ele>
        <time>2015-12-05T13:40:53Z</time>
      </trkpt>
      <trkpt lat="47.35643" lon="-1.90531">
        <ele>79</ele>
        <time>2015-12-05T13:40:54Z</time>
      </trkpt>
      <trkpt lat="47.35643" lon="-1.90523">
        <ele>79</ele>
        <time>2015-12-05T13:40:55Z</time>
      </trkpt>
      <trkpt lat="47.35642" lon="-1.90518">
        <ele>79</ele>
        <time>2015-12-05T13:40:56Z</time>
      </trkpt>
      <trkpt lat="47.35641" lon="-1.90513">
        <ele>79</ele>
        <time>2015-12-05T13:40:57Z</time>
      </trkpt>
      <trkpt lat="47.3564" lon="-1.90506">
        <ele>79</ele>
        <time>2015-12-05T13:40:58Z</time>
      </trkpt>
      <trkpt lat="47.35638" lon="-1.905">
        <ele>80</ele>
        <time>2015-12-05T13:40:59Z</time>
      </trkpt>
      <trkpt lat="47.35635" lon="-1.90495">
        <ele>80</ele>
        <time>2015-12-05T13:41:00Z</time>
      </trkpt>
      <trkpt lat="47.35633" lon="-1.9049">
        <ele>80</ele>
        <time>2015-12-05T13:41:01Z</time>
      </trkpt>
      <trkpt lat="47.35631" lon="-1.90486">
        <ele>80</ele>
        <time>2015-12-05T13:41:02Z</time>
      </trkpt>
      <trkpt lat="47.35628" lon="-1.90479">
        <ele>80</ele>
        <time>2015-12-05T13:41:03Z</time>
      </trkpt>
      <trkpt lat="47.35626" lon="-1.90473">
        <ele>80</ele>
        <time>2015-12-05T13:41:04Z</time>
      </trkpt>
      <trkpt lat="47.35625" lon="-1.90459">
        <ele>80</ele>
        <time>2015-12-05T13:41:05Z</time>
      </trkpt>
      <trkpt lat="47.35622" lon="-1.90456">
        <ele>80</ele>
        <time>2015-12-05T13:41:06Z</time>
      </trkpt>
      <trkpt lat="47.3562" lon="-1.90452">
        <ele>80</ele>
        <time>2015-12-05T13:41:07Z</time>
      </trkpt>
      <trkpt lat="47.35617" lon="-1.90448">
        <ele>80</ele>
        <time>2015-12-05T13:41:08Z</time>
      </trkpt>
      <trkpt lat="47.35616" lon="-1.90437">
        <ele>80</ele>
        <time>2015-12-05T13:41:09Z</time>
      </trkpt>
      <trkpt lat="47.35614" lon="-1.90431">
        <ele>80</ele>
        <time>2015-12-05T13:41:10Z</time>
      </trkpt>
      <trkpt lat="47.35613" lon="-1.90425">
        <ele>80</ele>
        <time>2015-12-05T13:41:11Z</time>
      </trkpt>
      <trkpt lat="47.35609" lon="-1.90417">
        <ele>80</ele>
        <time>2015-12-05T13:41:12Z</time>
      </trkpt>
      <trkpt lat="47.35607" lon="-1.90411">
        <ele>80</ele>
        <time>2015-12-05T13:41:13Z</time>
      </trkpt>
      <trkpt lat="47.35605" lon="-1.90404">
        <ele>80</ele>
        <time>2015-12-05T13:41:14Z</time>
      </trkpt>
      <trkpt lat="47.35603" lon="-1.90397">
        <ele>80</ele>
        <time>2015-12-05T13:41:15Z</time>
      </trkpt>
      <trkpt lat="47.35603" lon="-1.90391">
        <ele>80</ele>
        <time>2015-12-05T13:41:16Z</time>
      </trkpt>
      <trkpt lat="47.35601" lon="-1.90385">
        <ele>80</ele>
        <time>2015-12-05T13:41:17Z</time>
      </trkpt>
      <trkpt lat="47.35598" lon="-1.90378">
        <ele>80</ele>
        <time>2015-12-05T13:41:18Z</time>
      </trkpt>
      <trkpt lat="47.35597" lon="-1.90371">
        <ele>80</ele>
        <time>2015-12-05T13:41:19Z</time>
      </trkpt>
      <trkpt lat="47.35595" lon="-1.90364">
        <ele>80</ele>
        <time>2015-12-05T13:41:20Z</time>
      </trkpt>
      <trkpt lat="47.35594" lon="-1.90358">
        <ele>80</ele>
        <time>2015-12-05T13:41:21Z</time>
      </trkpt>
      <trkpt lat="47.35591" lon="-1.90352">
        <ele>80</ele>
        <time>2015-12-05T13:41:22Z</time>
      </trkpt>
      <trkpt lat="47.3559" lon="-1.90343">
        <ele>80</ele>
        <time>2015-12-05T13:41:23Z</time>
      </trkpt>
      <trkpt lat="47.35588" lon="-1.90338">
        <ele>80</ele>
        <time>2015-12-05T13:41:24Z</time>
      </trkpt>
      <trkpt lat="47.35586" lon="-1.90334">
        <ele>80</ele>
        <time>2015-12-05T13:41:25Z</time>
      </trkpt>
      <trkpt lat="47.35585" lon="-1.90329">
        <ele>80</ele>
        <time>2015-12-05T13:41:26Z</time>
      </trkpt>
      <trkpt lat="47.35584" lon="-1.90325">
        <ele>81</ele>
        <time>2015-12-05T13:41:27Z</time>
      </trkpt>
      <trkpt lat="47.35582" lon="-1.90321">
        <ele>80</ele>
        <time>2015-12-05T13:41:28Z</time>
      </trkpt>
      <trkpt lat="47.35581" lon="-1.90312">
        <ele>80</ele>
        <time>2015-12-05T13:41:30Z</time>
      </trkpt>
      <trkpt lat="47.35578" lon="-1.90308">
        <ele>81</ele>
        <time>2015-12-05T13:41:32Z</time>
      </trkpt>
      <trkpt lat="47.35574" lon="-1.90306">
        <ele>81</ele>
        <time>2015-12-05T13:41:34Z</time>
      </trkpt>
      <trkpt lat="47.35573" lon="-1.90302">
        <ele>81</ele>
        <time>2015-12-05T13:41:35Z</time>
      </trkpt>
      <trkpt lat="47.35572" lon="-1.90296">
        <ele>81</ele>
        <time>2015-12-05T13:41:36Z</time>
      </trkpt>
      <trkpt lat="47.3557" lon="-1.90291">
        <ele>81</ele>
        <time>2015-12-05T13:41:38Z</time>
      </trkpt>
      <trkpt lat="47.35576" lon="-1.90249">
        <ele>83</ele>
        <time>2015-12-05T13:41:40Z</time>
      </trkpt>
      <trkpt lat="47.35576" lon="-1.90244">
        <ele>83</ele>
        <time>2015-12-05T13:41:41Z</time>
      </trkpt>
      <trkpt lat="47.35576" lon="-1.90236">
        <ele>83</ele>
        <time>2015-12-05T13:41:42Z</time>
      </trkpt>
      <trkpt lat="47.35575" lon="-1.90228">
        <ele>83</ele>
        <time>2015-12-05T13:41:43Z</time>
      </trkpt>
      <trkpt lat="47.35571" lon="-1.90218">
        <ele>83</ele>
        <time>2015-12-05T13:41:44Z</time>
      </trkpt>
      <trkpt lat="47.3557" lon="-1.90213">
        <ele>83</ele>
        <time>2015-12-05T13:41:45Z</time>
      </trkpt>
      <trkpt lat="47.35568" lon="-1.90207">
        <ele>83</ele>
        <time>2015-12-05T13:41:46Z</time>
      </trkpt>
      <trkpt lat="47.35569" lon="-1.90199">
        <ele>83</ele>
        <time>2015-12-05T13:41:47Z</time>
      </trkpt>
      <trkpt lat="47.35567" lon="-1.9019">
        <ele>83</ele>
        <time>2015-12-05T13:41:48Z</time>
      </trkpt>
      <trkpt lat="47.35566" lon="-1.90184">
        <ele>83</ele>
        <time>2015-12-05T13:41:49Z</time>
      </trkpt>
      <trkpt lat="47.35565" lon="-1.90178">
        <ele>83</ele>
        <time>2015-12-05T13:41:50Z</time>
      </trkpt>
      <trkpt lat="47.35567" lon="-1.90167">
        <ele>83</ele>
        <time>2015-12-05T13:41:51Z</time>
      </trkpt>
      <trkpt lat="47.35567" lon="-1.9016">
        <ele>84</ele>
        <time>2015-12-05T13:41:52Z</time>
      </trkpt>
      <trkpt lat="47.35567" lon="-1.90154">
        <ele>83</ele>
        <time>2015-12-05T13:41:53Z</time>
      </trkpt>
      <trkpt lat="47.35562" lon="-1.9015">
        <ele>83</ele>
        <time>2015-12-05T13:41:54Z</time>
      </trkpt>
      <trkpt lat="47.35563" lon="-1.90141">
        <ele>83</ele>
        <time>2015-12-05T13:41:55Z</time>
      </trkpt>
      <trkpt lat="47.35564" lon="-1.90132">
        <ele>83</ele>
        <time>2015-12-05T13:41:56Z</time>
      </trkpt>
      <trkpt lat="47.35563" lon="-1.90126">
        <ele>83</ele>
        <time>2015-12-05T13:41:57Z</time>
      </trkpt>
      <trkpt lat="47.35563" lon="-1.90119">
        <ele>83</ele>
        <time>2015-12-05T13:41:58Z</time>
      </trkpt>
      <trkpt lat="47.35561" lon="-1.90114">
        <ele>83</ele>
        <time>2015-12-05T13:41:59Z</time>
      </trkpt>
      <trkpt lat="47.3556" lon="-1.90106">
        <ele>83</ele>
        <time>2015-12-05T13:42:00Z</time>
      </trkpt>
      <trkpt lat="47.3556" lon="-1.901">
        <ele>83</ele>
        <time>2015-12-05T13:42:01Z</time>
      </trkpt>
      <trkpt lat="47.35559" lon="-1.90095">
        <ele>83</ele>
        <time>2015-12-05T13:42:02Z</time>
      </trkpt>
      <trkpt lat="47.35559" lon="-1.90087">
        <ele>83</ele>
        <time>2015-12-05T13:42:03Z</time>
      </trkpt>
      <trkpt lat="47.35559" lon="-1.90081">
        <ele>84</ele>
        <time>2015-12-05T13:42:04Z</time>
      </trkpt>
      <trkpt lat="47.35558" lon="-1.90073">
        <ele>84</ele>
        <time>2015-12-05T13:42:05Z</time>
      </trkpt>
      <trkpt lat="47.35559" lon="-1.90064">
        <ele>84</ele>
        <time>2015-12-05T13:42:06Z</time>
      </trkpt>
      <trkpt lat="47.35557" lon="-1.90059">
        <ele>84</ele>
        <time>2015-12-05T13:42:07Z</time>
      </trkpt>
      <trkpt lat="47.35557" lon="-1.90052">
        <ele>84</ele>
        <time>2015-12-05T13:42:08Z</time>
      </trkpt>
      <trkpt lat="47.35557" lon="-1.90045">
        <ele>84</ele>
        <time>2015-12-05T13:42:09Z</time>
      </trkpt>
      <trkpt lat="47.35557" lon="-1.9004">
        <ele>84</ele>
        <time>2015-12-05T13:42:10Z</time>
      </trkpt>
      <trkpt lat="47.35557" lon="-1.90033">
        <ele>84</ele>
        <time>2015-12-05T13:42:11Z</time>
      </trkpt>
      <trkpt lat="47.35557" lon="-1.90025">
        <ele>84</ele>
        <time>2015-12-05T13:42:12Z</time>
      </trkpt>
      <trkpt lat="47.35556" lon="-1.90018">
        <ele>84</ele>
        <time>2015-12-05T13:42:13Z</time>
      </trkpt>
      <trkpt lat="47.35558" lon="-1.90011">
        <ele>84</ele>
        <time>2015-12-05T13:42:14Z</time>
      </trkpt>
      <trkpt lat="47.35559" lon="-1.90005">
        <ele>84</ele>
        <time>2015-12-05T13:42:15Z</time>
      </trkpt>
      <trkpt lat="47.35559" lon="-1.89999">
        <ele>85</ele>
        <time>2015-12-05T13:42:16Z</time>
      </trkpt>
      <trkpt lat="47.35558" lon="-1.89994">
        <ele>85</ele>
        <time>2015-12-05T13:42:17Z</time>
      </trkpt>
      <trkpt lat="47.35559" lon="-1.89988">
        <ele>85</ele>
        <time>2015-12-05T13:42:18Z</time>
      </trkpt>
      <trkpt lat="47.35558" lon="-1.89982">
        <ele>85</ele>
        <time>2015-12-05T13:42:19Z</time>
      </trkpt>
      <trkpt lat="47.35558" lon="-1.89976">
        <ele>85</ele>
        <time>2015-12-05T13:42:20Z</time>
      </trkpt>
      <trkpt lat="47.35558" lon="-1.89968">
        <ele>85</ele>
        <time>2015-12-05T13:42:21Z</time>
      </trkpt>
      <trkpt lat="47.35557" lon="-1.89963">
        <ele>85</ele>
        <time>2015-12-05T13:42:22Z</time>
      </trkpt>
      <trkpt lat="47.35557" lon="-1.89957">
        <ele>85</ele>
        <time>2015-12-05T13:42:23Z</time>
      </trkpt>
      <trkpt lat="47.35557" lon="-1.89951">
        <ele>85</ele>
        <time>2015-12-05T13:42:24Z</time>
      </trkpt>
      <trkpt lat="47.35556" lon="-1.89944">
        <ele>85</ele>
        <time>2015-12-05T13:42:25Z</time>
      </trkpt>
      <trkpt lat="47.35556" lon="-1.89939">
        <ele>85</ele>
        <time>2015-12-05T13:42:26Z</time>
      </trkpt>
      <trkpt lat="47.35555" lon="-1.89932">
        <ele>85</ele>
        <time>2015-12-05T13:42:27Z</time>
      </trkpt>
      <trkpt lat="47.35555" lon="-1.89926">
        <ele>85</ele>
        <time>2015-12-05T13:42:28Z</time>
      </trkpt>
      <trkpt lat="47.35554" lon="-1.89921">
        <ele>85</ele>
        <time>2015-12-05T13:42:29Z</time>
      </trkpt>
      <trkpt lat="47.35553" lon="-1.89914">
        <ele>85</ele>
        <time>2015-12-05T13:42:31Z</time>
      </trkpt>
      <trkpt lat="47.3555" lon="-1.89905">
        <ele>85</ele>
        <time>2015-12-05T13:42:32Z</time>
      </trkpt>
      <trkpt lat="47.35549" lon="-1.89901">
        <ele>85</ele>
        <time>2015-12-05T13:42:33Z</time>
      </trkpt>
      <trkpt lat="47.35548" lon="-1.89897">
        <ele>85</ele>
        <time>2015-12-05T13:42:34Z</time>
      </trkpt>
      <trkpt lat="47.35544" lon="-1.89888">
        <ele>85</ele>
        <time>2015-12-05T13:42:35Z</time>
      </trkpt>
      <trkpt lat="47.35545" lon="-1.8988">
        <ele>85</ele>
        <time>2015-12-05T13:42:36Z</time>
      </trkpt>
      <trkpt lat="47.35545" lon="-1.89874">
        <ele>85</ele>
        <time>2015-12-05T13:42:37Z</time>
      </trkpt>
      <trkpt lat="47.35543" lon="-1.89868">
        <ele>85</ele>
        <time>2015-12-05T13:42:38Z</time>
      </trkpt>
      <trkpt lat="47.35538" lon="-1.89862">
        <ele>85</ele>
        <time>2015-12-05T13:42:39Z</time>
      </trkpt>
      <trkpt lat="47.35537" lon="-1.89858">
        <ele>85</ele>
        <time>2015-12-05T13:42:40Z</time>
      </trkpt>
      <trkpt lat="47.35535" lon="-1.89853">
        <ele>85</ele>
        <time>2015-12-05T13:42:41Z</time>
      </trkpt>
      <trkpt lat="47.35535" lon="-1.8984">
        <ele>85</ele>
        <time>2015-12-05T13:42:42Z</time>
      </trkpt>
      <trkpt lat="47.35533" lon="-1.89832">
        <ele>86</ele>
        <time>2015-12-05T13:42:43Z</time>
      </trkpt>
      <trkpt lat="47.35532" lon="-1.89825">
        <ele>86</ele>
        <time>2015-12-05T13:42:44Z</time>
      </trkpt>
      <trkpt lat="47.35531" lon="-1.89818">
        <ele>86</ele>
        <time>2015-12-05T13:42:45Z</time>
      </trkpt>
      <trkpt lat="47.3553" lon="-1.89813">
        <ele>86</ele>
        <time>2015-12-05T13:42:46Z</time>
      </trkpt>
      <trkpt lat="47.35526" lon="-1.89809">
        <ele>86</ele>
        <time>2015-12-05T13:42:47Z</time>
      </trkpt>
      <trkpt lat="47.35523" lon="-1.89802">
        <ele>86</ele>
        <time>2015-12-05T13:42:48Z</time>
      </trkpt>
      <trkpt lat="47.35522" lon="-1.89795">
        <ele>86</ele>
        <time>2015-12-05T13:42:49Z</time>
      </trkpt>
      <trkpt lat="47.3552" lon="-1.89789">
        <ele>86</ele>
        <time>2015-12-05T13:42:50Z</time>
      </trkpt>
      <trkpt lat="47.35519" lon="-1.89783">
        <ele>86</ele>
        <time>2015-12-05T13:42:51Z</time>
      </trkpt>
      <trkpt lat="47.35517" lon="-1.89777">
        <ele>86</ele>
        <time>2015-12-05T13:42:52Z</time>
      </trkpt>
      <trkpt lat="47.35515" lon="-1.89768">
        <ele>86</ele>
        <time>2015-12-05T13:42:53Z</time>
      </trkpt>
      <trkpt lat="47.35512" lon="-1.89766">
        <ele>86</ele>
        <time>2015-12-05T13:42:54Z</time>
      </trkpt>
      <trkpt lat="47.35509" lon="-1.8976">
        <ele>86</ele>
        <time>2015-12-05T13:42:56Z</time>
      </trkpt>
      <trkpt lat="47.35505" lon="-1.8975">
        <ele>86</ele>
        <time>2015-12-05T13:42:58Z</time>
      </trkpt>
      <trkpt lat="47.35503" lon="-1.89738">
        <ele>86</ele>
        <time>2015-12-05T13:42:59Z</time>
      </trkpt>
      <trkpt lat="47.35502" lon="-1.89731">
        <ele>86</ele>
        <time>2015-12-05T13:43:00Z</time>
      </trkpt>
      <trkpt lat="47.35504" lon="-1.89725">
        <ele>86</ele>
        <time>2015-12-05T13:43:01Z</time>
      </trkpt>
      <trkpt lat="47.35502" lon="-1.89723">
        <ele>86</ele>
        <time>2015-12-05T13:43:02Z</time>
      </trkpt>
      <trkpt lat="47.355" lon="-1.89716">
        <ele>86</ele>
        <time>2015-12-05T13:43:03Z</time>
      </trkpt>
      <trkpt lat="47.35496" lon="-1.8971">
        <ele>86</ele>
        <time>2015-12-05T13:43:05Z</time>
      </trkpt>
      <trkpt lat="47.35492" lon="-1.897">
        <ele>86</ele>
        <time>2015-12-05T13:43:06Z</time>
      </trkpt>
      <trkpt lat="47.35491" lon="-1.89693">
        <ele>86</ele>
        <time>2015-12-05T13:43:07Z</time>
      </trkpt>
      <trkpt lat="47.35489" lon="-1.89688">
        <ele>86</ele>
        <time>2015-12-05T13:43:08Z</time>
      </trkpt>
      <trkpt lat="47.35487" lon="-1.89681">
        <ele>86</ele>
        <time>2015-12-05T13:43:09Z</time>
      </trkpt>
      <trkpt lat="47.35487" lon="-1.89675">
        <ele>86</ele>
        <time>2015-12-05T13:43:10Z</time>
      </trkpt>
      <trkpt lat="47.35486" lon="-1.8967">
        <ele>86</ele>
        <time>2015-12-05T13:43:11Z</time>
      </trkpt>
      <trkpt lat="47.35486" lon="-1.89664">
        <ele>86</ele>
        <time>2015-12-05T13:43:12Z</time>
      </trkpt>
      <trkpt lat="47.35481" lon="-1.8965">
        <ele>86</ele>
        <time>2015-12-05T13:43:13Z</time>
      </trkpt>
      <trkpt lat="47.35481" lon="-1.89642">
        <ele>86</ele>
        <time>2015-12-05T13:43:14Z</time>
      </trkpt>
      <trkpt lat="47.3548" lon="-1.89632">
        <ele>86</ele>
        <time>2015-12-05T13:43:15Z</time>
      </trkpt>
      <trkpt lat="47.35478" lon="-1.89626">
        <ele>86</ele>
        <time>2015-12-05T13:43:16Z</time>
      </trkpt>
      <trkpt lat="47.35476" lon="-1.8962">
        <ele>86</ele>
        <time>2015-12-05T13:43:17Z</time>
      </trkpt>
      <trkpt lat="47.35474" lon="-1.89615">
        <ele>86</ele>
        <time>2015-12-05T13:43:18Z</time>
      </trkpt>
      <trkpt lat="47.35473" lon="-1.8961">
        <ele>86</ele>
        <time>2015-12-05T13:43:19Z</time>
      </trkpt>
      <trkpt lat="47.35472" lon="-1.89601">
        <ele>86</ele>
        <time>2015-12-05T13:43:20Z</time>
      </trkpt>
      <trkpt lat="47.35471" lon="-1.89595">
        <ele>86</ele>
        <time>2015-12-05T13:43:21Z</time>
      </trkpt>
      <trkpt lat="47.35469" lon="-1.89586">
        <ele>86</ele>
        <time>2015-12-05T13:43:22Z</time>
      </trkpt>
      <trkpt lat="47.35467" lon="-1.89582">
        <ele>86</ele>
        <time>2015-12-05T13:43:23Z</time>
      </trkpt>
      <trkpt lat="47.35466" lon="-1.89577">
        <ele>86</ele>
        <time>2015-12-05T13:43:24Z</time>
      </trkpt>
      <trkpt lat="47.35465" lon="-1.89573">
        <ele>86</ele>
        <time>2015-12-05T13:43:25Z</time>
      </trkpt>
      <trkpt lat="47.35474" lon="-1.8957">
        <ele>86</ele>
        <time>2015-12-05T13:43:26Z</time>
      </trkpt>
      <trkpt lat="47.35476" lon="-1.8956">
        <ele>86</ele>
        <time>2015-12-05T13:43:27Z</time>
      </trkpt>
      <trkpt lat="47.35476" lon="-1.89552">
        <ele>86</ele>
        <time>2015-12-05T13:43:28Z</time>
      </trkpt>
      <trkpt lat="47.35478" lon="-1.89546">
        <ele>87</ele>
        <time>2015-12-05T13:43:29Z</time>
      </trkpt>
      <trkpt lat="47.35478" lon="-1.89539">
        <ele>87</ele>
        <time>2015-12-05T13:43:30Z</time>
      </trkpt>
      <trkpt lat="47.35476" lon="-1.8953">
        <ele>87</ele>
        <time>2015-12-05T13:43:32Z</time>
      </trkpt>
      <trkpt lat="47.35476" lon="-1.89525">
        <ele>87</ele>
        <time>2015-12-05T13:43:33Z</time>
      </trkpt>
      <trkpt lat="47.35474" lon="-1.89508">
        <ele>87</ele>
        <time>2015-12-05T13:43:34Z</time>
      </trkpt>
      <trkpt lat="47.35472" lon="-1.89503">
        <ele>87</ele>
        <time>2015-12-05T13:43:35Z</time>
      </trkpt>
      <trkpt lat="47.35469" lon="-1.89496">
        <ele>87</ele>
        <time>2015-12-05T13:43:36Z</time>
      </trkpt>
      <trkpt lat="47.35467" lon="-1.89494">
        <ele>87</ele>
        <time>2015-12-05T13:43:37Z</time>
      </trkpt>
      <trkpt lat="47.35464" lon="-1.89492">
        <ele>87</ele>
        <time>2015-12-05T13:43:38Z</time>
      </trkpt>
      <trkpt lat="47.35461" lon="-1.89489">
        <ele>87</ele>
        <time>2015-12-05T13:43:39Z</time>
      </trkpt>
      <trkpt lat="47.35463" lon="-1.89479">
        <ele>87</ele>
        <time>2015-12-05T13:43:40Z</time>
      </trkpt>
      <trkpt lat="47.35463" lon="-1.89473">
        <ele>87</ele>
        <time>2015-12-05T13:43:41Z</time>
      </trkpt>
      <trkpt lat="47.35463" lon="-1.89468">
        <ele>87</ele>
        <time>2015-12-05T13:43:42Z</time>
      </trkpt>
      <trkpt lat="47.35466" lon="-1.89457">
        <ele>87</ele>
        <time>2015-12-05T13:43:43Z</time>
      </trkpt>
      <trkpt lat="47.35466" lon="-1.8945">
        <ele>87</ele>
        <time>2015-12-05T13:43:44Z</time>
      </trkpt>
      <trkpt lat="47.35466" lon="-1.89444">
        <ele>87</ele>
        <time>2015-12-05T13:43:45Z</time>
      </trkpt>
      <trkpt lat="47.35467" lon="-1.89429">
        <ele>87</ele>
        <time>2015-12-05T13:43:47Z</time>
      </trkpt>
      <trkpt lat="47.35464" lon="-1.89424">
        <ele>87</ele>
        <time>2015-12-05T13:43:48Z</time>
      </trkpt>
      <trkpt lat="47.35464" lon="-1.89418">
        <ele>87</ele>
        <time>2015-12-05T13:43:49Z</time>
      </trkpt>
      <trkpt lat="47.35463" lon="-1.89413">
        <ele>87</ele>
        <time>2015-12-05T13:43:50Z</time>
      </trkpt>
      <trkpt lat="47.35463" lon="-1.89407">
        <ele>87</ele>
        <time>2015-12-05T13:43:51Z</time>
      </trkpt>
      <trkpt lat="47.35463" lon="-1.89397">
        <ele>87</ele>
        <time>2015-12-05T13:43:52Z</time>
      </trkpt>
      <trkpt lat="47.35462" lon="-1.89392">
        <ele>87</ele>
        <time>2015-12-05T13:43:53Z</time>
      </trkpt>
      <trkpt lat="47.35461" lon="-1.89387">
        <ele>87</ele>
        <time>2015-12-05T13:43:54Z</time>
      </trkpt>
      <trkpt lat="47.35462" lon="-1.89376">
        <ele>87</ele>
        <time>2015-12-05T13:43:55Z</time>
      </trkpt>
      <trkpt lat="47.35461" lon="-1.89369">
        <ele>87</ele>
        <time>2015-12-05T13:43:56Z</time>
      </trkpt>
      <trkpt lat="47.3546" lon="-1.89362">
        <ele>87</ele>
        <time>2015-12-05T13:43:57Z</time>
      </trkpt>
      <trkpt lat="47.35459" lon="-1.89356">
        <ele>87</ele>
        <time>2015-12-05T13:43:58Z</time>
      </trkpt>
      <trkpt lat="47.35459" lon="-1.89351">
        <ele>87</ele>
        <time>2015-12-05T13:43:59Z</time>
      </trkpt>
      <trkpt lat="47.35457" lon="-1.89346">
        <ele>87</ele>
        <time>2015-12-05T13:44:00Z</time>
      </trkpt>
      <trkpt lat="47.35456" lon="-1.89341">
        <ele>87</ele>
        <time>2015-12-05T13:44:01Z</time>
      </trkpt>
      <trkpt lat="47.35456" lon="-1.89336">
        <ele>87</ele>
        <time>2015-12-05T13:44:02Z</time>
      </trkpt>
      <trkpt lat="47.35452" lon="-1.89332">
        <ele>87</ele>
        <time>2015-12-05T13:44:03Z</time>
      </trkpt>
      <trkpt lat="47.35451" lon="-1.89327">
        <ele>87</ele>
        <time>2015-12-05T13:44:04Z</time>
      </trkpt>
      <trkpt lat="47.3545" lon="-1.89322">
        <ele>87</ele>
        <time>2015-12-05T13:44:05Z</time>
      </trkpt>
      <trkpt lat="47.35446" lon="-1.89316">
        <ele>87</ele>
        <time>2015-12-05T13:44:06Z</time>
      </trkpt>
      <trkpt lat="47.35444" lon="-1.8931">
        <ele>87</ele>
        <time>2015-12-05T13:44:07Z</time>
      </trkpt>
      <trkpt lat="47.35441" lon="-1.89306">
        <ele>87</ele>
        <time>2015-12-05T13:44:08Z</time>
      </trkpt>
      <trkpt lat="47.35439" lon="-1.89303">
        <ele>87</ele>
        <time>2015-12-05T13:44:09Z</time>
      </trkpt>
      <trkpt lat="47.35436" lon="-1.89307">
        <ele>87</ele>
        <time>2015-12-05T13:44:11Z</time>
      </trkpt>
      <trkpt lat="47.35431" lon="-1.8931">
        <ele>87</ele>
        <time>2015-12-05T13:44:13Z</time>
      </trkpt>
      <trkpt lat="47.35426" lon="-1.89312">
        <ele>87</ele>
        <time>2015-12-05T13:44:14Z</time>
      </trkpt>
      <trkpt lat="47.35423" lon="-1.89314">
        <ele>87</ele>
        <time>2015-12-05T13:44:15Z</time>
      </trkpt>
      <trkpt lat="47.3542" lon="-1.89317">
        <ele>87</ele>
        <time>2015-12-05T13:44:16Z</time>
      </trkpt>
      <trkpt lat="47.35416" lon="-1.89319">
        <ele>87</ele>
        <time>2015-12-05T13:44:17Z</time>
      </trkpt>
      <trkpt lat="47.35413" lon="-1.89321">
        <ele>87</ele>
        <time>2015-12-05T13:44:18Z</time>
      </trkpt>
      <trkpt lat="47.35409" lon="-1.89323">
        <ele>87</ele>
        <time>2015-12-05T13:44:19Z</time>
      </trkpt>
      <trkpt lat="47.35404" lon="-1.89329">
        <ele>87</ele>
        <time>2015-12-05T13:44:21Z</time>
      </trkpt>
      <trkpt lat="47.354" lon="-1.89331">
        <ele>87</ele>
        <time>2015-12-05T13:44:22Z</time>
      </trkpt>
      <trkpt lat="47.35397" lon="-1.89334">
        <ele>87</ele>
        <time>2015-12-05T13:44:23Z</time>
      </trkpt>
      <trkpt lat="47.35389" lon="-1.89342">
        <ele>87</ele>
        <time>2015-12-05T13:44:24Z</time>
      </trkpt>
      <trkpt lat="47.35386" lon="-1.89345">
        <ele>87</ele>
        <time>2015-12-05T13:44:25Z</time>
      </trkpt>
      <trkpt lat="47.35381" lon="-1.8935">
        <ele>87</ele>
        <time>2015-12-05T13:44:26Z</time>
      </trkpt>
      <trkpt lat="47.35376" lon="-1.89354">
        <ele>87</ele>
        <time>2015-12-05T13:44:27Z</time>
      </trkpt>
      <trkpt lat="47.35373" lon="-1.89357">
        <ele>87</ele>
        <time>2015-12-05T13:44:28Z</time>
      </trkpt>
      <trkpt lat="47.35369" lon="-1.89362">
        <ele>86</ele>
        <time>2015-12-05T13:44:29Z</time>
      </trkpt>
      <trkpt lat="47.35365" lon="-1.89365">
        <ele>86</ele>
        <time>2015-12-05T13:44:30Z</time>
      </trkpt>
      <trkpt lat="47.35362" lon="-1.89369">
        <ele>86</ele>
        <time>2015-12-05T13:44:31Z</time>
      </trkpt>
      <trkpt lat="47.35358" lon="-1.89372">
        <ele>86</ele>
        <time>2015-12-05T13:44:32Z</time>
      </trkpt>
      <trkpt lat="47.35353" lon="-1.89377">
        <ele>86</ele>
        <time>2015-12-05T13:44:33Z</time>
      </trkpt>
      <trkpt lat="47.35348" lon="-1.89381">
        <ele>86</ele>
        <time>2015-12-05T13:44:34Z</time>
      </trkpt>
      <trkpt lat="47.35344" lon="-1.89385">
        <ele>86</ele>
        <time>2015-12-05T13:44:35Z</time>
      </trkpt>
      <trkpt lat="47.3534" lon="-1.8939">
        <ele>86</ele>
        <time>2015-12-05T13:44:36Z</time>
      </trkpt>
      <trkpt lat="47.35336" lon="-1.89395">
        <ele>86</ele>
        <time>2015-12-05T13:44:37Z</time>
      </trkpt>
      <trkpt lat="47.35332" lon="-1.89398">
        <ele>86</ele>
        <time>2015-12-05T13:44:38Z</time>
      </trkpt>
      <trkpt lat="47.35327" lon="-1.89403">
        <ele>85</ele>
        <time>2015-12-05T13:44:39Z</time>
      </trkpt>
      <trkpt lat="47.35322" lon="-1.89408">
        <ele>85</ele>
        <time>2015-12-05T13:44:40Z</time>
      </trkpt>
      <trkpt lat="47.35318" lon="-1.89412">
        <ele>86</ele>
        <time>2015-12-05T13:44:41Z</time>
      </trkpt>
      <trkpt lat="47.35313" lon="-1.89417">
        <ele>86</ele>
        <time>2015-12-05T13:44:42Z</time>
      </trkpt>
      <trkpt lat="47.35308" lon="-1.89421">
        <ele>86</ele>
        <time>2015-12-05T13:44:43Z</time>
      </trkpt>
      <trkpt lat="47.35305" lon="-1.89425">
        <ele>86</ele>
        <time>2015-12-05T13:44:44Z</time>
      </trkpt>
      <trkpt lat="47.35301" lon="-1.89429">
        <ele>86</ele>
        <time>2015-12-05T13:44:45Z</time>
      </trkpt>
      <trkpt lat="47.35296" lon="-1.89433">
        <ele>86</ele>
        <time>2015-12-05T13:44:46Z</time>
      </trkpt>
      <trkpt lat="47.35291" lon="-1.89437">
        <ele>86</ele>
        <time>2015-12-05T13:44:47Z</time>
      </trkpt>
      <trkpt lat="47.35287" lon="-1.89442">
        <ele>86</ele>
        <time>2015-12-05T13:44:48Z</time>
      </trkpt>
      <trkpt lat="47.35282" lon="-1.89447">
        <ele>86</ele>
        <time>2015-12-05T13:44:49Z</time>
      </trkpt>
      <trkpt lat="47.35276" lon="-1.89451">
        <ele>86</ele>
        <time>2015-12-05T13:44:50Z</time>
      </trkpt>
      <trkpt lat="47.3527" lon="-1.89454">
        <ele>86</ele>
        <time>2015-12-05T13:44:51Z</time>
      </trkpt>
      <trkpt lat="47.35266" lon="-1.89459">
        <ele>86</ele>
        <time>2015-12-05T13:44:52Z</time>
      </trkpt>
      <trkpt lat="47.35261" lon="-1.89463">
        <ele>86</ele>
        <time>2015-12-05T13:44:53Z</time>
      </trkpt>
      <trkpt lat="47.35256" lon="-1.89468">
        <ele>86</ele>
        <time>2015-12-05T13:44:54Z</time>
      </trkpt>
      <trkpt lat="47.35249" lon="-1.89471">
        <ele>86</ele>
        <time>2015-12-05T13:44:55Z</time>
      </trkpt>
      <trkpt lat="47.35245" lon="-1.89477">
        <ele>86</ele>
        <time>2015-12-05T13:44:56Z</time>
      </trkpt>
      <trkpt lat="47.35241" lon="-1.89482">
        <ele>86</ele>
        <time>2015-12-05T13:44:57Z</time>
      </trkpt>
      <trkpt lat="47.35237" lon="-1.89487">
        <ele>86</ele>
        <time>2015-12-05T13:44:58Z</time>
      </trkpt>
      <trkpt lat="47.35232" lon="-1.89492">
        <ele>86</ele>
        <time>2015-12-05T13:44:59Z</time>
      </trkpt>
      <trkpt lat="47.35229" lon="-1.89496">
        <ele>86</ele>
        <time>2015-12-05T13:45:00Z</time>
      </trkpt>
      <trkpt lat="47.35223" lon="-1.89501">
        <ele>85</ele>
        <time>2015-12-05T13:45:01Z</time>
      </trkpt>
      <trkpt lat="47.35218" lon="-1.89506">
        <ele>85</ele>
        <time>2015-12-05T13:45:02Z</time>
      </trkpt>
      <trkpt lat="47.35213" lon="-1.89512">
        <ele>85</ele>
        <time>2015-12-05T13:45:03Z</time>
      </trkpt>
      <trkpt lat="47.35212" lon="-1.89515">
        <ele>85</ele>
        <time>2015-12-05T13:45:04Z</time>
      </trkpt>
      <trkpt lat="47.3521" lon="-1.8952">
        <ele>85</ele>
        <time>2015-12-05T13:45:05Z</time>
      </trkpt>
      <trkpt lat="47.35205" lon="-1.89525">
        <ele>85</ele>
        <time>2015-12-05T13:45:06Z</time>
      </trkpt>
      <trkpt lat="47.35198" lon="-1.89529">
        <ele>85</ele>
        <time>2015-12-05T13:45:07Z</time>
      </trkpt>
      <trkpt lat="47.35193" lon="-1.89534">
        <ele>85</ele>
        <time>2015-12-05T13:45:08Z</time>
      </trkpt>
      <trkpt lat="47.35187" lon="-1.89538">
        <ele>84</ele>
        <time>2015-12-05T13:45:09Z</time>
      </trkpt>
      <trkpt lat="47.35182" lon="-1.89541">
        <ele>84</ele>
        <time>2015-12-05T13:45:10Z</time>
      </trkpt>
      <trkpt lat="47.3518" lon="-1.89545">
        <ele>84</ele>
        <time>2015-12-05T13:45:11Z</time>
      </trkpt>
      <trkpt lat="47.35175" lon="-1.8955">
        <ele>84</ele>
        <time>2015-12-05T13:45:12Z</time>
      </trkpt>
      <trkpt lat="47.35171" lon="-1.89555">
        <ele>84</ele>
        <time>2015-12-05T13:45:13Z</time>
      </trkpt>
      <trkpt lat="47.35166" lon="-1.89557">
        <ele>83</ele>
        <time>2015-12-05T13:45:14Z</time>
      </trkpt>
      <trkpt lat="47.35162" lon="-1.89561">
        <ele>83</ele>
        <time>2015-12-05T13:45:15Z</time>
      </trkpt>
      <trkpt lat="47.3516" lon="-1.89564">
        <ele>83</ele>
        <time>2015-12-05T13:45:16Z</time>
      </trkpt>
      <trkpt lat="47.35159" lon="-1.8957">
        <ele>83</ele>
        <time>2015-12-05T13:45:17Z</time>
      </trkpt>
      <trkpt lat="47.35157" lon="-1.89573">
        <ele>83</ele>
        <time>2015-12-05T13:45:18Z</time>
      </trkpt>
      <trkpt lat="47.35159" lon="-1.8958">
        <ele>83</ele>
        <time>2015-12-05T13:45:19Z</time>
      </trkpt>
      <trkpt lat="47.3516" lon="-1.89587">
        <ele>83</ele>
        <time>2015-12-05T13:45:20Z</time>
      </trkpt>
      <trkpt lat="47.35159" lon="-1.89592">
        <ele>83</ele>
        <time>2015-12-05T13:45:21Z</time>
      </trkpt>
      <trkpt lat="47.35158" lon="-1.89598">
        <ele>82</ele>
        <time>2015-12-05T13:45:22Z</time>
      </trkpt>
      <trkpt lat="47.35158" lon="-1.89602">
        <ele>82</ele>
        <time>2015-12-05T13:45:23Z</time>
      </trkpt>
      <trkpt lat="47.35158" lon="-1.89608">
        <ele>82</ele>
        <time>2015-12-05T13:45:24Z</time>
      </trkpt>
      <trkpt lat="47.35163" lon="-1.8962">
        <ele>82</ele>
        <time>2015-12-05T13:45:25Z</time>
      </trkpt>
      <trkpt lat="47.35166" lon="-1.89629">
        <ele>82</ele>
        <time>2015-12-05T13:45:26Z</time>
      </trkpt>
      <trkpt lat="47.35168" lon="-1.89638">
        <ele>82</ele>
        <time>2015-12-05T13:45:27Z</time>
      </trkpt>
      <trkpt lat="47.3517" lon="-1.89646">
        <ele>82</ele>
        <time>2015-12-05T13:45:28Z</time>
      </trkpt>
      <trkpt lat="47.35173" lon="-1.89654">
        <ele>82</ele>
        <time>2015-12-05T13:45:29Z</time>
      </trkpt>
      <trkpt lat="47.35173" lon="-1.89662">
        <ele>81</ele>
        <time>2015-12-05T13:45:30Z</time>
      </trkpt>
      <trkpt lat="47.35174" lon="-1.8967">
        <ele>81</ele>
        <time>2015-12-05T13:45:31Z</time>
      </trkpt>
      <trkpt lat="47.35175" lon="-1.89678">
        <ele>81</ele>
        <time>2015-12-05T13:45:32Z</time>
      </trkpt>
      <trkpt lat="47.35176" lon="-1.89686">
        <ele>81</ele>
        <time>2015-12-05T13:45:33Z</time>
      </trkpt>
      <trkpt lat="47.35174" lon="-1.89678">
        <ele>81</ele>
        <time>2015-12-05T13:45:34Z</time>
      </trkpt>
      <trkpt lat="47.35177" lon="-1.89682">
        <ele>81</ele>
        <time>2015-12-05T13:45:36Z</time>
      </trkpt>
      <trkpt lat="47.35156" lon="-1.89692">
        <ele>81</ele>
        <time>2015-12-05T13:45:40Z</time>
      </trkpt>
      <trkpt lat="47.35151" lon="-1.89693">
        <ele>81</ele>
        <time>2015-12-05T13:45:41Z</time>
      </trkpt>
      <trkpt lat="47.35145" lon="-1.89695">
        <ele>81</ele>
        <time>2015-12-05T13:45:42Z</time>
      </trkpt>
      <trkpt lat="47.3514" lon="-1.89694">
        <ele>81</ele>
        <time>2015-12-05T13:45:44Z</time>
      </trkpt>
      <trkpt lat="47.35133" lon="-1.89697">
        <ele>81</ele>
        <time>2015-12-05T13:45:45Z</time>
      </trkpt>
      <trkpt lat="47.35129" lon="-1.89697">
        <ele>81</ele>
        <time>2015-12-05T13:45:46Z</time>
      </trkpt>
      <trkpt lat="47.35122" lon="-1.89698">
        <ele>81</ele>
        <time>2015-12-05T13:45:47Z</time>
      </trkpt>
      <trkpt lat="47.35118" lon="-1.89698">
        <ele>81</ele>
        <time>2015-12-05T13:45:48Z</time>
      </trkpt>
      <trkpt lat="47.35111" lon="-1.89696">
        <ele>81</ele>
        <time>2015-12-05T13:45:49Z</time>
      </trkpt>
      <trkpt lat="47.35108" lon="-1.89696">
        <ele>81</ele>
        <time>2015-12-05T13:45:50Z</time>
      </trkpt>
      <trkpt lat="47.35103" lon="-1.89692">
        <ele>81</ele>
        <time>2015-12-05T13:45:52Z</time>
      </trkpt>
      <trkpt lat="47.35084" lon="-1.89699">
        <ele>81</ele>
        <time>2015-12-05T13:45:54Z</time>
      </trkpt>
      <trkpt lat="47.35078" lon="-1.89698">
        <ele>80</ele>
        <time>2015-12-05T13:45:55Z</time>
      </trkpt>
      <trkpt lat="47.35074" lon="-1.89697">
        <ele>80</ele>
        <time>2015-12-05T13:45:56Z</time>
      </trkpt>
      <trkpt lat="47.35071" lon="-1.89696">
        <ele>80</ele>
        <time>2015-12-05T13:45:57Z</time>
      </trkpt>
      <trkpt lat="47.35058" lon="-1.89698">
        <ele>80</ele>
        <time>2015-12-05T13:45:58Z</time>
      </trkpt>
      <trkpt lat="47.35052" lon="-1.89698">
        <ele>80</ele>
        <time>2015-12-05T13:45:59Z</time>
      </trkpt>
      <trkpt lat="47.35047" lon="-1.89698">
        <ele>80</ele>
        <time>2015-12-05T13:46:00Z</time>
      </trkpt>
      <trkpt lat="47.35043" lon="-1.89698">
        <ele>80</ele>
        <time>2015-12-05T13:46:01Z</time>
      </trkpt>
      <trkpt lat="47.35025" lon="-1.897">
        <ele>80</ele>
        <time>2015-12-05T13:46:04Z</time>
      </trkpt>
      <trkpt lat="47.35018" lon="-1.89701">
        <ele>80</ele>
        <time>2015-12-05T13:46:05Z</time>
      </trkpt>
      <trkpt lat="47.35013" lon="-1.897">
        <ele>80</ele>
        <time>2015-12-05T13:46:06Z</time>
      </trkpt>
      <trkpt lat="47.35008" lon="-1.89702">
        <ele>80</ele>
        <time>2015-12-05T13:46:07Z</time>
      </trkpt>
      <trkpt lat="47.35003" lon="-1.89702">
        <ele>80</ele>
        <time>2015-12-05T13:46:08Z</time>
      </trkpt>
      <trkpt lat="47.34999" lon="-1.89703">
        <ele>80</ele>
        <time>2015-12-05T13:46:09Z</time>
      </trkpt>
      <trkpt lat="47.35002" lon="-1.89706">
        <ele>80</ele>
        <time>2015-12-05T13:46:10Z</time>
      </trkpt>
      <trkpt lat="47.34991" lon="-1.89717">
        <ele>80</ele>
        <time>2015-12-05T13:46:12Z</time>
      </trkpt>
      <trkpt lat="47.34982" lon="-1.89725">
        <ele>80</ele>
        <time>2015-12-05T13:46:14Z</time>
      </trkpt>
      <trkpt lat="47.34973" lon="-1.89728">
        <ele>80</ele>
        <time>2015-12-05T13:46:15Z</time>
      </trkpt>
      <trkpt lat="47.34968" lon="-1.89733">
        <ele>80</ele>
        <time>2015-12-05T13:46:16Z</time>
      </trkpt>
      <trkpt lat="47.3496" lon="-1.89733">
        <ele>80</ele>
        <time>2015-12-05T13:46:17Z</time>
      </trkpt>
      <trkpt lat="47.34957" lon="-1.89737">
        <ele>80</ele>
        <time>2015-12-05T13:46:18Z</time>
      </trkpt>
      <trkpt lat="47.34951" lon="-1.89742">
        <ele>79</ele>
        <time>2015-12-05T13:46:19Z</time>
      </trkpt>
      <trkpt lat="47.34946" lon="-1.89744">
        <ele>79</ele>
        <time>2015-12-05T13:46:20Z</time>
      </trkpt>
      <trkpt lat="47.34941" lon="-1.89747">
        <ele>79</ele>
        <time>2015-12-05T13:46:21Z</time>
      </trkpt>
      <trkpt lat="47.34937" lon="-1.8975">
        <ele>79</ele>
        <time>2015-12-05T13:46:22Z</time>
      </trkpt>
      <trkpt lat="47.34935" lon="-1.89759">
        <ele>78</ele>
        <time>2015-12-05T13:46:23Z</time>
      </trkpt>
      <trkpt lat="47.3493" lon="-1.89764">
        <ele>78</ele>
        <time>2015-12-05T13:46:24Z</time>
      </trkpt>
      <trkpt lat="47.3493" lon="-1.89769">
        <ele>78</ele>
        <time>2015-12-05T13:46:26Z</time>
      </trkpt>
      <trkpt lat="47.34928" lon="-1.89774">
        <ele>77</ele>
        <time>2015-12-05T13:46:28Z</time>
      </trkpt>
      <trkpt lat="47.34908" lon="-1.89787">
        <ele>77</ele>
        <time>2015-12-05T13:46:30Z</time>
      </trkpt>
      <trkpt lat="47.34907" lon="-1.89792">
        <ele>77</ele>
        <time>2015-12-05T13:46:31Z</time>
      </trkpt>
      <trkpt lat="47.34907" lon="-1.89796">
        <ele>77</ele>
        <time>2015-12-05T13:46:32Z</time>
      </trkpt>
      <trkpt lat="47.34906" lon="-1.898">
        <ele>77</ele>
        <time>2015-12-05T13:46:33Z</time>
      </trkpt>
      <trkpt lat="47.34903" lon="-1.89801">
        <ele>77</ele>
        <time>2015-12-05T13:46:34Z</time>
      </trkpt>
      <trkpt lat="47.34898" lon="-1.89801">
        <ele>77</ele>
        <time>2015-12-05T13:46:35Z</time>
      </trkpt>
      <trkpt lat="47.34893" lon="-1.89802">
        <ele>77</ele>
        <time>2015-12-05T13:46:37Z</time>
      </trkpt>
      <trkpt lat="47.34892" lon="-1.89796">
        <ele>77</ele>
        <time>2015-12-05T13:46:39Z</time>
      </trkpt>
      <trkpt lat="47.34887" lon="-1.89791">
        <ele>77</ele>
        <time>2015-12-05T13:46:41Z</time>
      </trkpt>
      <trkpt lat="47.34886" lon="-1.89786">
        <ele>77</ele>
        <time>2015-12-05T13:46:42Z</time>
      </trkpt>
      <trkpt lat="47.34886" lon="-1.89782">
        <ele>77</ele>
        <time>2015-12-05T13:46:43Z</time>
      </trkpt>
      <trkpt lat="47.34886" lon="-1.89778">
        <ele>77</ele>
        <time>2015-12-05T13:46:44Z</time>
      </trkpt>
      <trkpt lat="47.34885" lon="-1.89772">
        <ele>77</ele>
        <time>2015-12-05T13:46:45Z</time>
      </trkpt>
      <trkpt lat="47.34884" lon="-1.89768">
        <ele>77</ele>
        <time>2015-12-05T13:46:46Z</time>
      </trkpt>
      <trkpt lat="47.34884" lon="-1.89763">
        <ele>77</ele>
        <time>2015-12-05T13:46:47Z</time>
      </trkpt>
      <trkpt lat="47.34884" lon="-1.89756">
        <ele>77</ele>
        <time>2015-12-05T13:46:48Z</time>
      </trkpt>
      <trkpt lat="47.34884" lon="-1.8975">
        <ele>78</ele>
        <time>2015-12-05T13:46:49Z</time>
      </trkpt>
      <trkpt lat="47.34884" lon="-1.89743">
        <ele>79</ele>
        <time>2015-12-05T13:46:50Z</time>
      </trkpt>
      <trkpt lat="47.34885" lon="-1.89739">
        <ele>79</ele>
        <time>2015-12-05T13:46:51Z</time>
      </trkpt>
      <trkpt lat="47.34885" lon="-1.89732">
        <ele>79</ele>
        <time>2015-12-05T13:46:52Z</time>
      </trkpt>
      <trkpt lat="47.34885" lon="-1.89726">
        <ele>79</ele>
        <time>2015-12-05T13:46:53Z</time>
      </trkpt>
      <trkpt lat="47.34884" lon="-1.89721">
        <ele>79</ele>
        <time>2015-12-05T13:46:54Z</time>
      </trkpt>
      <trkpt lat="47.34884" lon="-1.89716">
        <ele>79</ele>
        <time>2015-12-05T13:46:55Z</time>
      </trkpt>
      <trkpt lat="47.34884" lon="-1.8971">
        <ele>79</ele>
        <time>2015-12-05T13:46:56Z</time>
      </trkpt>
      <trkpt lat="47.34885" lon="-1.89705">
        <ele>79</ele>
        <time>2015-12-05T13:46:57Z</time>
      </trkpt>
      <trkpt lat="47.34885" lon="-1.89699">
        <ele>79</ele>
        <time>2015-12-05T13:46:58Z</time>
      </trkpt>
      <trkpt lat="47.34884" lon="-1.89694">
        <ele>79</ele>
        <time>2015-12-05T13:46:59Z</time>
      </trkpt>
      <trkpt lat="47.34884" lon="-1.89689">
        <ele>80</ele>
        <time>2015-12-05T13:47:00Z</time>
      </trkpt>
      <trkpt lat="47.34884" lon="-1.89684">
        <ele>80</ele>
        <time>2015-12-05T13:47:01Z</time>
      </trkpt>
      <trkpt lat="47.34884" lon="-1.8968">
        <ele>80</ele>
        <time>2015-12-05T13:47:02Z</time>
      </trkpt>
      <trkpt lat="47.34884" lon="-1.89675">
        <ele>80</ele>
        <time>2015-12-05T13:47:03Z</time>
      </trkpt>
      <trkpt lat="47.34882" lon="-1.89671">
        <ele>80</ele>
        <time>2015-12-05T13:47:07Z</time>
      </trkpt>
      <trkpt lat="47.34882" lon="-1.89677">
        <ele>80</ele>
        <time>2015-12-05T13:47:11Z</time>
      </trkpt>
      <trkpt lat="47.34881" lon="-1.89671">
        <ele>80</ele>
        <time>2015-12-05T13:47:18Z</time>
      </trkpt>
      <trkpt lat="47.34881" lon="-1.89666">
        <ele>80</ele>
        <time>2015-12-05T13:47:19Z</time>
      </trkpt>
      <trkpt lat="47.3488" lon="-1.89661">
        <ele>80</ele>
        <time>2015-12-05T13:47:20Z</time>
      </trkpt>
      <trkpt lat="47.3488" lon="-1.89655">
        <ele>80</ele>
        <time>2015-12-05T13:47:21Z</time>
      </trkpt>
      <trkpt lat="47.3488" lon="-1.8965">
        <ele>80</ele>
        <time>2015-12-05T13:47:22Z</time>
      </trkpt>
      <trkpt lat="47.34879" lon="-1.89646">
        <ele>80</ele>
        <time>2015-12-05T13:47:23Z</time>
      </trkpt>
      <trkpt lat="47.34879" lon="-1.89636">
        <ele>80</ele>
        <time>2015-12-05T13:47:24Z</time>
      </trkpt>
      <trkpt lat="47.34879" lon="-1.89628">
        <ele>80</ele>
        <time>2015-12-05T13:47:25Z</time>
      </trkpt>
      <trkpt lat="47.34879" lon="-1.8962">
        <ele>80</ele>
        <time>2015-12-05T13:47:26Z</time>
      </trkpt>
      <trkpt lat="47.34879" lon="-1.89614">
        <ele>80</ele>
        <time>2015-12-05T13:47:27Z</time>
      </trkpt>
      <trkpt lat="47.34879" lon="-1.89606">
        <ele>80</ele>
        <time>2015-12-05T13:47:28Z</time>
      </trkpt>
      <trkpt lat="47.34878" lon="-1.89595">
        <ele>80</ele>
        <time>2015-12-05T13:47:29Z</time>
      </trkpt>
      <trkpt lat="47.34878" lon="-1.89588">
        <ele>80</ele>
        <time>2015-12-05T13:47:30Z</time>
      </trkpt>
      <trkpt lat="47.34878" lon="-1.89582">
        <ele>80</ele>
        <time>2015-12-05T13:47:31Z</time>
      </trkpt>
      <trkpt lat="47.34877" lon="-1.89574">
        <ele>80</ele>
        <time>2015-12-05T13:47:32Z</time>
      </trkpt>
      <trkpt lat="47.34878" lon="-1.89566">
        <ele>80</ele>
        <time>2015-12-05T13:47:33Z</time>
      </trkpt>
      <trkpt lat="47.34877" lon="-1.8956">
        <ele>80</ele>
        <time>2015-12-05T13:47:34Z</time>
      </trkpt>
      <trkpt lat="47.34878" lon="-1.89552">
        <ele>80</ele>
        <time>2015-12-05T13:47:35Z</time>
      </trkpt>
      <trkpt lat="47.34878" lon="-1.89545">
        <ele>80</ele>
        <time>2015-12-05T13:47:36Z</time>
      </trkpt>
      <trkpt lat="47.34878" lon="-1.89538">
        <ele>80</ele>
        <time>2015-12-05T13:47:37Z</time>
      </trkpt>
      <trkpt lat="47.34873" lon="-1.89531">
        <ele>80</ele>
        <time>2015-12-05T13:47:38Z</time>
      </trkpt>
      <trkpt lat="47.34873" lon="-1.89525">
        <ele>80</ele>
        <time>2015-12-05T13:47:39Z</time>
      </trkpt>
      <trkpt lat="47.34873" lon="-1.89519">
        <ele>80</ele>
        <time>2015-12-05T13:47:40Z</time>
      </trkpt>
      <trkpt lat="47.34874" lon="-1.89511">
        <ele>80</ele>
        <time>2015-12-05T13:47:41Z</time>
      </trkpt>
      <trkpt lat="47.34875" lon="-1.89504">
        <ele>81</ele>
        <time>2015-12-05T13:47:42Z</time>
      </trkpt>
      <trkpt lat="47.34875" lon="-1.89496">
        <ele>81</ele>
        <time>2015-12-05T13:47:43Z</time>
      </trkpt>
      <trkpt lat="47.34876" lon="-1.89487">
        <ele>81</ele>
        <time>2015-12-05T13:47:44Z</time>
      </trkpt>
      <trkpt lat="47.34876" lon="-1.8948">
        <ele>81</ele>
        <time>2015-12-05T13:47:45Z</time>
      </trkpt>
      <trkpt lat="47.34876" lon="-1.89472">
        <ele>81</ele>
        <time>2015-12-05T13:47:46Z</time>
      </trkpt>
      <trkpt lat="47.34876" lon="-1.89465">
        <ele>81</ele>
        <time>2015-12-05T13:47:47Z</time>
      </trkpt>
      <trkpt lat="47.34874" lon="-1.89456">
        <ele>81</ele>
        <time>2015-12-05T13:47:48Z</time>
      </trkpt>
      <trkpt lat="47.34875" lon="-1.89446">
        <ele>81</ele>
        <time>2015-12-05T13:47:49Z</time>
      </trkpt>
      <trkpt lat="47.34875" lon="-1.89439">
        <ele>81</ele>
        <time>2015-12-05T13:47:50Z</time>
      </trkpt>
      <trkpt lat="47.34875" lon="-1.89431">
        <ele>81</ele>
        <time>2015-12-05T13:47:51Z</time>
      </trkpt>
      <trkpt lat="47.34876" lon="-1.89424">
        <ele>81</ele>
        <time>2015-12-05T13:47:52Z</time>
      </trkpt>
      <trkpt lat="47.34875" lon="-1.89417">
        <ele>81</ele>
        <time>2015-12-05T13:47:53Z</time>
      </trkpt>
      <trkpt lat="47.34875" lon="-1.89409">
        <ele>80</ele>
        <time>2015-12-05T13:47:54Z</time>
      </trkpt>
      <trkpt lat="47.34875" lon="-1.89402">
        <ele>80</ele>
        <time>2015-12-05T13:47:55Z</time>
      </trkpt>
      <trkpt lat="47.34876" lon="-1.89392">
        <ele>80</ele>
        <time>2015-12-05T13:47:56Z</time>
      </trkpt>
      <trkpt lat="47.34877" lon="-1.89384">
        <ele>80</ele>
        <time>2015-12-05T13:47:57Z</time>
      </trkpt>
      <trkpt lat="47.34876" lon="-1.89377">
        <ele>80</ele>
        <time>2015-12-05T13:47:58Z</time>
      </trkpt>
      <trkpt lat="47.34876" lon="-1.89369">
        <ele>80</ele>
        <time>2015-12-05T13:47:59Z</time>
      </trkpt>
      <trkpt lat="47.34876" lon="-1.89363">
        <ele>80</ele>
        <time>2015-12-05T13:48:00Z</time>
      </trkpt>
      <trkpt lat="47.34877" lon="-1.89357">
        <ele>80</ele>
        <time>2015-12-05T13:48:01Z</time>
      </trkpt>
      <trkpt lat="47.34876" lon="-1.89349">
        <ele>80</ele>
        <time>2015-12-05T13:48:02Z</time>
      </trkpt>
      <trkpt lat="47.34877" lon="-1.89344">
        <ele>80</ele>
        <time>2015-12-05T13:48:03Z</time>
      </trkpt>
      <trkpt lat="47.34877" lon="-1.89339">
        <ele>80</ele>
        <time>2015-12-05T13:48:04Z</time>
      </trkpt>
      <trkpt lat="47.34878" lon="-1.89333">
        <ele>80</ele>
        <time>2015-12-05T13:48:05Z</time>
      </trkpt>
      <trkpt lat="47.34874" lon="-1.89326">
        <ele>80</ele>
        <time>2015-12-05T13:48:07Z</time>
      </trkpt>
      <trkpt lat="47.34872" lon="-1.89322">
        <ele>80</ele>
        <time>2015-12-05T13:48:08Z</time>
      </trkpt>
      <trkpt lat="47.3487" lon="-1.89317">
        <ele>80</ele>
        <time>2015-12-05T13:48:09Z</time>
      </trkpt>
      <trkpt lat="47.34865" lon="-1.89326">
        <ele>80</ele>
        <time>2015-12-05T13:48:10Z</time>
      </trkpt>
      <trkpt lat="47.34863" lon="-1.89324">
        <ele>80</ele>
        <time>2015-12-05T13:48:11Z</time>
      </trkpt>
      <trkpt lat="47.34852" lon="-1.89327">
        <ele>80</ele>
        <time>2015-12-05T13:48:16Z</time>
      </trkpt>
      <trkpt lat="47.34848" lon="-1.89327">
        <ele>80</ele>
        <time>2015-12-05T13:48:17Z</time>
      </trkpt>
      <trkpt lat="47.34841" lon="-1.89323">
        <ele>80</ele>
        <time>2015-12-05T13:48:18Z</time>
      </trkpt>
      <trkpt lat="47.34839" lon="-1.89319">
        <ele>80</ele>
        <time>2015-12-05T13:48:19Z</time>
      </trkpt>
      <trkpt lat="47.34837" lon="-1.89315">
        <ele>80</ele>
        <time>2015-12-05T13:48:20Z</time>
      </trkpt>
      <trkpt lat="47.34836" lon="-1.8931">
        <ele>80</ele>
        <time>2015-12-05T13:48:21Z</time>
      </trkpt>
      <trkpt lat="47.34835" lon="-1.89304">
        <ele>80</ele>
        <time>2015-12-05T13:48:22Z</time>
      </trkpt>
      <trkpt lat="47.34835" lon="-1.893">
        <ele>80</ele>
        <time>2015-12-05T13:48:23Z</time>
      </trkpt>
      <trkpt lat="47.34834" lon="-1.89292">
        <ele>80</ele>
        <time>2015-12-05T13:48:24Z</time>
      </trkpt>
      <trkpt lat="47.34835" lon="-1.89288">
        <ele>80</ele>
        <time>2015-12-05T13:48:25Z</time>
      </trkpt>
      <trkpt lat="47.34836" lon="-1.89282">
        <ele>80</ele>
        <time>2015-12-05T13:48:26Z</time>
      </trkpt>
      <trkpt lat="47.34836" lon="-1.89276">
        <ele>80</ele>
        <time>2015-12-05T13:48:27Z</time>
      </trkpt>
      <trkpt lat="47.34834" lon="-1.89269">
        <ele>80</ele>
        <time>2015-12-05T13:48:28Z</time>
      </trkpt>
      <trkpt lat="47.34834" lon="-1.89259">
        <ele>80</ele>
        <time>2015-12-05T13:48:29Z</time>
      </trkpt>
      <trkpt lat="47.34832" lon="-1.89251">
        <ele>80</ele>
        <time>2015-12-05T13:48:30Z</time>
      </trkpt>
      <trkpt lat="47.34831" lon="-1.89244">
        <ele>80</ele>
        <time>2015-12-05T13:48:31Z</time>
      </trkpt>
      <trkpt lat="47.3483" lon="-1.89236">
        <ele>79</ele>
        <time>2015-12-05T13:48:32Z</time>
      </trkpt>
      <trkpt lat="47.34831" lon="-1.89229">
        <ele>79</ele>
        <time>2015-12-05T13:48:33Z</time>
      </trkpt>
      <trkpt lat="47.3483" lon="-1.89223">
        <ele>79</ele>
        <time>2015-12-05T13:48:34Z</time>
      </trkpt>
      <trkpt lat="47.34831" lon="-1.89217">
        <ele>79</ele>
        <time>2015-12-05T13:48:35Z</time>
      </trkpt>
      <trkpt lat="47.34831" lon="-1.89211">
        <ele>79</ele>
        <time>2015-12-05T13:48:36Z</time>
      </trkpt>
      <trkpt lat="47.34832" lon="-1.89205">
        <ele>79</ele>
        <time>2015-12-05T13:48:37Z</time>
      </trkpt>
      <trkpt lat="47.34832" lon="-1.89198">
        <ele>79</ele>
        <time>2015-12-05T13:48:38Z</time>
      </trkpt>
      <trkpt lat="47.34832" lon="-1.8919">
        <ele>79</ele>
        <time>2015-12-05T13:48:39Z</time>
      </trkpt>
      <trkpt lat="47.34832" lon="-1.89184">
        <ele>79</ele>
        <time>2015-12-05T13:48:40Z</time>
      </trkpt>
      <trkpt lat="47.34832" lon="-1.89177">
        <ele>79</ele>
        <time>2015-12-05T13:48:41Z</time>
      </trkpt>
      <trkpt lat="47.34832" lon="-1.8917">
        <ele>80</ele>
        <time>2015-12-05T13:48:42Z</time>
      </trkpt>
      <trkpt lat="47.34833" lon="-1.89162">
        <ele>80</ele>
        <time>2015-12-05T13:48:43Z</time>
      </trkpt>
      <trkpt lat="47.34832" lon="-1.89155">
        <ele>79</ele>
        <time>2015-12-05T13:48:44Z</time>
      </trkpt>
      <trkpt lat="47.3483" lon="-1.89147">
        <ele>79</ele>
        <time>2015-12-05T13:48:45Z</time>
      </trkpt>
      <trkpt lat="47.34831" lon="-1.89139">
        <ele>78</ele>
        <time>2015-12-05T13:48:46Z</time>
      </trkpt>
      <trkpt lat="47.34833" lon="-1.89131">
        <ele>78</ele>
        <time>2015-12-05T13:48:47Z</time>
      </trkpt>
      <trkpt lat="47.34834" lon="-1.89124">
        <ele>80</ele>
        <time>2015-12-05T13:48:48Z</time>
      </trkpt>
      <trkpt lat="47.34831" lon="-1.89117">
        <ele>78</ele>
        <time>2015-12-05T13:48:49Z</time>
      </trkpt>
      <trkpt lat="47.34831" lon="-1.89109">
        <ele>78</ele>
        <time>2015-12-05T13:48:50Z</time>
      </trkpt>
      <trkpt lat="47.34832" lon="-1.89102">
        <ele>78</ele>
        <time>2015-12-05T13:48:51Z</time>
      </trkpt>
      <trkpt lat="47.34832" lon="-1.89095">
        <ele>79</ele>
        <time>2015-12-05T13:48:52Z</time>
      </trkpt>
      <trkpt lat="47.34835" lon="-1.89089">
        <ele>79</ele>
        <time>2015-12-05T13:48:53Z</time>
      </trkpt>
      <trkpt lat="47.34835" lon="-1.89083">
        <ele>79</ele>
        <time>2015-12-05T13:48:54Z</time>
      </trkpt>
      <trkpt lat="47.34836" lon="-1.89076">
        <ele>79</ele>
        <time>2015-12-05T13:48:55Z</time>
      </trkpt>
      <trkpt lat="47.34835" lon="-1.89068">
        <ele>79</ele>
        <time>2015-12-05T13:48:57Z</time>
      </trkpt>
      <trkpt lat="47.34834" lon="-1.89063">
        <ele>79</ele>
        <time>2015-12-05T13:48:58Z</time>
      </trkpt>
      <trkpt lat="47.34832" lon="-1.89064">
        <ele>78</ele>
        <time>2015-12-05T13:48:59Z</time>
      </trkpt>
      <trkpt lat="47.34828" lon="-1.8906">
        <ele>78</ele>
        <time>2015-12-05T13:49:01Z</time>
      </trkpt>
      <trkpt lat="47.34826" lon="-1.8907">
        <ele>78</ele>
        <time>2015-12-05T13:49:02Z</time>
      </trkpt>
      <trkpt lat="47.34824" lon="-1.89071">
        <ele>78</ele>
        <time>2015-12-05T13:49:03Z</time>
      </trkpt>
      <trkpt lat="47.3482" lon="-1.89072">
        <ele>78</ele>
        <time>2015-12-05T13:49:04Z</time>
      </trkpt>
      <trkpt lat="47.34813" lon="-1.89071">
        <ele>78</ele>
        <time>2015-12-05T13:49:05Z</time>
      </trkpt>
      <trkpt lat="47.34806" lon="-1.89069">
        <ele>77</ele>
        <time>2015-12-05T13:49:06Z</time>
      </trkpt>
      <trkpt lat="47.34799" lon="-1.89067">
        <ele>77</ele>
        <time>2015-12-05T13:49:07Z</time>
      </trkpt>
      <trkpt lat="47.34795" lon="-1.89066">
        <ele>77</ele>
        <time>2015-12-05T13:49:08Z</time>
      </trkpt>
      <trkpt lat="47.34789" lon="-1.89066">
        <ele>77</ele>
        <time>2015-12-05T13:49:09Z</time>
      </trkpt>
      <trkpt lat="47.34783" lon="-1.89066">
        <ele>77</ele>
        <time>2015-12-05T13:49:10Z</time>
      </trkpt>
      <trkpt lat="47.34777" lon="-1.89068">
        <ele>77</ele>
        <time>2015-12-05T13:49:11Z</time>
      </trkpt>
      <trkpt lat="47.34771" lon="-1.89069">
        <ele>77</ele>
        <time>2015-12-05T13:49:12Z</time>
      </trkpt>
      <trkpt lat="47.34768" lon="-1.8907">
        <ele>76</ele>
        <time>2015-12-05T13:49:13Z</time>
      </trkpt>
      <trkpt lat="47.34763" lon="-1.89071">
        <ele>76</ele>
        <time>2015-12-05T13:49:14Z</time>
      </trkpt>
      <trkpt lat="47.34757" lon="-1.89071">
        <ele>76</ele>
        <time>2015-12-05T13:49:15Z</time>
      </trkpt>
      <trkpt lat="47.34752" lon="-1.89072">
        <ele>76</ele>
        <time>2015-12-05T13:49:16Z</time>
      </trkpt>
      <trkpt lat="47.34746" lon="-1.89073">
        <ele>75</ele>
        <time>2015-12-05T13:49:17Z</time>
      </trkpt>
      <trkpt lat="47.34742" lon="-1.89073">
        <ele>75</ele>
        <time>2015-12-05T13:49:18Z</time>
      </trkpt>
      <trkpt lat="47.34737" lon="-1.89074">
        <ele>75</ele>
        <time>2015-12-05T13:49:19Z</time>
      </trkpt>
      <trkpt lat="47.34732" lon="-1.89074">
        <ele>75</ele>
        <time>2015-12-05T13:49:20Z</time>
      </trkpt>
      <trkpt lat="47.34724" lon="-1.89076">
        <ele>75</ele>
        <time>2015-12-05T13:49:21Z</time>
      </trkpt>
      <trkpt lat="47.34719" lon="-1.89076">
        <ele>75</ele>
        <time>2015-12-05T13:49:22Z</time>
      </trkpt>
      <trkpt lat="47.34716" lon="-1.89075">
        <ele>75</ele>
        <time>2015-12-05T13:49:23Z</time>
      </trkpt>
      <trkpt lat="47.34711" lon="-1.89075">
        <ele>75</ele>
        <time>2015-12-05T13:49:24Z</time>
      </trkpt>
      <trkpt lat="47.34707" lon="-1.89073">
        <ele>75</ele>
        <time>2015-12-05T13:49:25Z</time>
      </trkpt>
      <trkpt lat="47.34703" lon="-1.89073">
        <ele>75</ele>
        <time>2015-12-05T13:49:26Z</time>
      </trkpt>
      <trkpt lat="47.34699" lon="-1.89072">
        <ele>75</ele>
        <time>2015-12-05T13:49:27Z</time>
      </trkpt>
      <trkpt lat="47.34694" lon="-1.89075">
        <ele>74</ele>
        <time>2015-12-05T13:49:28Z</time>
      </trkpt>
      <trkpt lat="47.34689" lon="-1.89078">
        <ele>74</ele>
        <time>2015-12-05T13:49:29Z</time>
      </trkpt>
      <trkpt lat="47.3468" lon="-1.89083">
        <ele>74</ele>
        <time>2015-12-05T13:49:33Z</time>
      </trkpt>
      <trkpt lat="47.34676" lon="-1.89084">
        <ele>74</ele>
        <time>2015-12-05T13:49:34Z</time>
      </trkpt>
      <trkpt lat="47.34673" lon="-1.89084">
        <ele>74</ele>
        <time>2015-12-05T13:49:35Z</time>
      </trkpt>
      <trkpt lat="47.34667" lon="-1.89081">
        <ele>74</ele>
        <time>2015-12-05T13:49:36Z</time>
      </trkpt>
      <trkpt lat="47.34665" lon="-1.89083">
        <ele>74</ele>
        <time>2015-12-05T13:49:37Z</time>
      </trkpt>
      <trkpt lat="47.34662" lon="-1.89086">
        <ele>74</ele>
        <time>2015-12-05T13:49:39Z</time>
      </trkpt>
      <trkpt lat="47.34652" lon="-1.89085">
        <ele>74</ele>
        <time>2015-12-05T13:49:41Z</time>
      </trkpt>
      <trkpt lat="47.3465" lon="-1.89085">
        <ele>74</ele>
        <time>2015-12-05T13:49:42Z</time>
      </trkpt>
      <trkpt lat="47.34633" lon="-1.89087">
        <ele>73</ele>
        <time>2015-12-05T13:49:47Z</time>
      </trkpt>
      <trkpt lat="47.34629" lon="-1.89087">
        <ele>73</ele>
        <time>2015-12-05T13:49:48Z</time>
      </trkpt>
      <trkpt lat="47.34624" lon="-1.89087">
        <ele>73</ele>
        <time>2015-12-05T13:49:50Z</time>
      </trkpt>
      <trkpt lat="47.34622" lon="-1.89087">
        <ele>73</ele>
        <time>2015-12-05T13:49:51Z</time>
      </trkpt>
      <trkpt lat="47.34614" lon="-1.89086">
        <ele>73</ele>
        <time>2015-12-05T13:49:52Z</time>
      </trkpt>
      <trkpt lat="47.34611" lon="-1.89086">
        <ele>73</ele>
        <time>2015-12-05T13:49:53Z</time>
      </trkpt>
      <trkpt lat="47.34606" lon="-1.89085">
        <ele>73</ele>
        <time>2015-12-05T13:49:54Z</time>
      </trkpt>
      <trkpt lat="47.346" lon="-1.89087">
        <ele>73</ele>
        <time>2015-12-05T13:49:55Z</time>
      </trkpt>
      <trkpt lat="47.34596" lon="-1.89086">
        <ele>73</ele>
        <time>2015-12-05T13:49:56Z</time>
      </trkpt>
      <trkpt lat="47.34592" lon="-1.89086">
        <ele>72</ele>
        <time>2015-12-05T13:49:57Z</time>
      </trkpt>
      <trkpt lat="47.34585" lon="-1.89086">
        <ele>72</ele>
        <time>2015-12-05T13:49:58Z</time>
      </trkpt>
      <trkpt lat="47.34579" lon="-1.89086">
        <ele>72</ele>
        <time>2015-12-05T13:49:59Z</time>
      </trkpt>
      <trkpt lat="47.34575" lon="-1.89085">
        <ele>72</ele>
        <time>2015-12-05T13:50:00Z</time>
      </trkpt>
      <trkpt lat="47.34571" lon="-1.89084">
        <ele>72</ele>
        <time>2015-12-05T13:50:01Z</time>
      </trkpt>
      <trkpt lat="47.34567" lon="-1.89088">
        <ele>72</ele>
        <time>2015-12-05T13:50:02Z</time>
      </trkpt>
      <trkpt lat="47.34561" lon="-1.8909">
        <ele>72</ele>
        <time>2015-12-05T13:50:03Z</time>
      </trkpt>
      <trkpt lat="47.34556" lon="-1.89091">
        <ele>71</ele>
        <time>2015-12-05T13:50:04Z</time>
      </trkpt>
      <trkpt lat="47.34552" lon="-1.89092">
        <ele>71</ele>
        <time>2015-12-05T13:50:05Z</time>
      </trkpt>
      <trkpt lat="47.34544" lon="-1.89093">
        <ele>71</ele>
        <time>2015-12-05T13:50:06Z</time>
      </trkpt>
      <trkpt lat="47.34538" lon="-1.89096">
        <ele>71</ele>
        <time>2015-12-05T13:50:07Z</time>
      </trkpt>
      <trkpt lat="47.34533" lon="-1.89097">
        <ele>71</ele>
        <time>2015-12-05T13:50:08Z</time>
      </trkpt>
      <trkpt lat="47.34528" lon="-1.89098">
        <ele>71</ele>
        <time>2015-12-05T13:50:09Z</time>
      </trkpt>
      <trkpt lat="47.34523" lon="-1.891">
        <ele>71</ele>
        <time>2015-12-05T13:50:10Z</time>
      </trkpt>
      <trkpt lat="47.34519" lon="-1.89101">
        <ele>71</ele>
        <time>2015-12-05T13:50:11Z</time>
      </trkpt>
      <trkpt lat="47.34514" lon="-1.89102">
        <ele>71</ele>
        <time>2015-12-05T13:50:12Z</time>
      </trkpt>
      <trkpt lat="47.34509" lon="-1.89104">
        <ele>71</ele>
        <time>2015-12-05T13:50:13Z</time>
      </trkpt>
      <trkpt lat="47.34504" lon="-1.89106">
        <ele>71</ele>
        <time>2015-12-05T13:50:14Z</time>
      </trkpt>
      <trkpt lat="47.34496" lon="-1.89109">
        <ele>69</ele>
        <time>2015-12-05T13:50:15Z</time>
      </trkpt>
      <trkpt lat="47.34489" lon="-1.89109">
        <ele>69</ele>
        <time>2015-12-05T13:50:17Z</time>
      </trkpt>
      <trkpt lat="47.34485" lon="-1.89112">
        <ele>69</ele>
        <time>2015-12-05T13:50:18Z</time>
      </trkpt>
      <trkpt lat="47.34481" lon="-1.89113">
        <ele>69</ele>
        <time>2015-12-05T13:50:19Z</time>
      </trkpt>
      <trkpt lat="47.34477" lon="-1.89114">
        <ele>69</ele>
        <time>2015-12-05T13:50:20Z</time>
      </trkpt>
      <trkpt lat="47.34468" lon="-1.89126">
        <ele>69</ele>
        <time>2015-12-05T13:50:21Z</time>
      </trkpt>
      <trkpt lat="47.34461" lon="-1.8913">
        <ele>69</ele>
        <time>2015-12-05T13:50:22Z</time>
      </trkpt>
      <trkpt lat="47.34456" lon="-1.89135">
        <ele>69</ele>
        <time>2015-12-05T13:50:23Z</time>
      </trkpt>
      <trkpt lat="47.34452" lon="-1.89142">
        <ele>69</ele>
        <time>2015-12-05T13:50:24Z</time>
      </trkpt>
      <trkpt lat="47.34448" lon="-1.89149">
        <ele>69</ele>
        <time>2015-12-05T13:50:25Z</time>
      </trkpt>
      <trkpt lat="47.34443" lon="-1.89157">
        <ele>69</ele>
        <time>2015-12-05T13:50:26Z</time>
      </trkpt>
      <trkpt lat="47.34439" lon="-1.89164">
        <ele>69</ele>
        <time>2015-12-05T13:50:27Z</time>
      </trkpt>
      <trkpt lat="47.34432" lon="-1.89168">
        <ele>68</ele>
        <time>2015-12-05T13:50:28Z</time>
      </trkpt>
      <trkpt lat="47.34427" lon="-1.89176">
        <ele>68</ele>
        <time>2015-12-05T13:50:29Z</time>
      </trkpt>
      <trkpt lat="47.34421" lon="-1.89183">
        <ele>68</ele>
        <time>2015-12-05T13:50:30Z</time>
      </trkpt>
      <trkpt lat="47.34415" lon="-1.89191">
        <ele>67</ele>
        <time>2015-12-05T13:50:31Z</time>
      </trkpt>
      <trkpt lat="47.34409" lon="-1.89198">
        <ele>66</ele>
        <time>2015-12-05T13:50:32Z</time>
      </trkpt>
      <trkpt lat="47.34403" lon="-1.89206">
        <ele>66</ele>
        <time>2015-12-05T13:50:33Z</time>
      </trkpt>
      <trkpt lat="47.34396" lon="-1.89214">
        <ele>66</ele>
        <time>2015-12-05T13:50:34Z</time>
      </trkpt>
      <trkpt lat="47.34389" lon="-1.89223">
        <ele>66</ele>
        <time>2015-12-05T13:50:35Z</time>
      </trkpt>
      <trkpt lat="47.34382" lon="-1.8923">
        <ele>66</ele>
        <time>2015-12-05T13:50:36Z</time>
      </trkpt>
      <trkpt lat="47.34375" lon="-1.89238">
        <ele>65</ele>
        <time>2015-12-05T13:50:37Z</time>
      </trkpt>
      <trkpt lat="47.34369" lon="-1.89247">
        <ele>65</ele>
        <time>2015-12-05T13:50:38Z</time>
      </trkpt>
      <trkpt lat="47.34363" lon="-1.89257">
        <ele>65</ele>
        <time>2015-12-05T13:50:39Z</time>
      </trkpt>
      <trkpt lat="47.34354" lon="-1.89264">
        <ele>64</ele>
        <time>2015-12-05T13:50:40Z</time>
      </trkpt>
      <trkpt lat="47.34346" lon="-1.89272">
        <ele>64</ele>
        <time>2015-12-05T13:50:41Z</time>
      </trkpt>
      <trkpt lat="47.34338" lon="-1.8928">
        <ele>64</ele>
        <time>2015-12-05T13:50:42Z</time>
      </trkpt>
      <trkpt lat="47.34335" lon="-1.89288">
        <ele>64</ele>
        <time>2015-12-05T13:50:43Z</time>
      </trkpt>
      <trkpt lat="47.3433" lon="-1.89295">
        <ele>63</ele>
        <time>2015-12-05T13:50:44Z</time>
      </trkpt>
      <trkpt lat="47.34324" lon="-1.89303">
        <ele>63</ele>
        <time>2015-12-05T13:50:45Z</time>
      </trkpt>
      <trkpt lat="47.34321" lon="-1.8931">
        <ele>63</ele>
        <time>2015-12-05T13:50:46Z</time>
      </trkpt>
      <trkpt lat="47.34315" lon="-1.89318">
        <ele>63</ele>
        <time>2015-12-05T13:50:47Z</time>
      </trkpt>
      <trkpt lat="47.34309" lon="-1.89327">
        <ele>63</ele>
        <time>2015-12-05T13:50:48Z</time>
      </trkpt>
      <trkpt lat="47.34304" lon="-1.89334">
        <ele>62</ele>
        <time>2015-12-05T13:50:49Z</time>
      </trkpt>
      <trkpt lat="47.34298" lon="-1.89342">
        <ele>62</ele>
        <time>2015-12-05T13:50:50Z</time>
      </trkpt>
      <trkpt lat="47.34293" lon="-1.89348">
        <ele>62</ele>
        <time>2015-12-05T13:50:51Z</time>
      </trkpt>
      <trkpt lat="47.34287" lon="-1.89355">
        <ele>62</ele>
        <time>2015-12-05T13:50:52Z</time>
      </trkpt>
      <trkpt lat="47.34282" lon="-1.89363">
        <ele>62</ele>
        <time>2015-12-05T13:50:53Z</time>
      </trkpt>
      <trkpt lat="47.34276" lon="-1.89369">
        <ele>62</ele>
        <time>2015-12-05T13:50:54Z</time>
      </trkpt>
      <trkpt lat="47.34271" lon="-1.89375">
        <ele>62</ele>
        <time>2015-12-05T13:50:55Z</time>
      </trkpt>
      <trkpt lat="47.34266" lon="-1.89382">
        <ele>62</ele>
        <time>2015-12-05T13:50:56Z</time>
      </trkpt>
      <trkpt lat="47.34261" lon="-1.89388">
        <ele>61</ele>
        <time>2015-12-05T13:50:57Z</time>
      </trkpt>
      <trkpt lat="47.34254" lon="-1.89394">
        <ele>61</ele>
        <time>2015-12-05T13:50:58Z</time>
      </trkpt>
      <trkpt lat="47.34249" lon="-1.89401">
        <ele>61</ele>
        <time>2015-12-05T13:50:59Z</time>
      </trkpt>
      <trkpt lat="47.34242" lon="-1.89407">
        <ele>60</ele>
        <time>2015-12-05T13:51:00Z</time>
      </trkpt>
      <trkpt lat="47.34239" lon="-1.89413">
        <ele>60</ele>
        <time>2015-12-05T13:51:01Z</time>
      </trkpt>
      <trkpt lat="47.34233" lon="-1.89419">
        <ele>61</ele>
        <time>2015-12-05T13:51:02Z</time>
      </trkpt>
      <trkpt lat="47.34227" lon="-1.89424">
        <ele>61</ele>
        <time>2015-12-05T13:51:03Z</time>
      </trkpt>
      <trkpt lat="47.3422" lon="-1.89431">
        <ele>61</ele>
        <time>2015-12-05T13:51:04Z</time>
      </trkpt>
      <trkpt lat="47.34215" lon="-1.89437">
        <ele>61</ele>
        <time>2015-12-05T13:51:05Z</time>
      </trkpt>
      <trkpt lat="47.34209" lon="-1.89444">
        <ele>61</ele>
        <time>2015-12-05T13:51:06Z</time>
      </trkpt>
      <trkpt lat="47.34202" lon="-1.8945">
        <ele>61</ele>
        <time>2015-12-05T13:51:07Z</time>
      </trkpt>
      <trkpt lat="47.34197" lon="-1.89455">
        <ele>61</ele>
        <time>2015-12-05T13:51:08Z</time>
      </trkpt>
      <trkpt lat="47.34191" lon="-1.89461">
        <ele>61</ele>
        <time>2015-12-05T13:51:09Z</time>
      </trkpt>
      <trkpt lat="47.34186" lon="-1.89466">
        <ele>61</ele>
        <time>2015-12-05T13:51:10Z</time>
      </trkpt>
      <trkpt lat="47.3418" lon="-1.89472">
        <ele>61</ele>
        <time>2015-12-05T13:51:11Z</time>
      </trkpt>
      <trkpt lat="47.34175" lon="-1.89478">
        <ele>62</ele>
        <time>2015-12-05T13:51:12Z</time>
      </trkpt>
      <trkpt lat="47.3417" lon="-1.89483">
        <ele>62</ele>
        <time>2015-12-05T13:51:13Z</time>
      </trkpt>
      <trkpt lat="47.34166" lon="-1.89488">
        <ele>62</ele>
        <time>2015-12-05T13:51:14Z</time>
      </trkpt>
      <trkpt lat="47.34161" lon="-1.89492">
        <ele>62</ele>
        <time>2015-12-05T13:51:15Z</time>
      </trkpt>
      <trkpt lat="47.34156" lon="-1.89497">
        <ele>62</ele>
        <time>2015-12-05T13:51:16Z</time>
      </trkpt>
      <trkpt lat="47.34151" lon="-1.89503">
        <ele>62</ele>
        <time>2015-12-05T13:51:17Z</time>
      </trkpt>
      <trkpt lat="47.34144" lon="-1.89507">
        <ele>62</ele>
        <time>2015-12-05T13:51:18Z</time>
      </trkpt>
      <trkpt lat="47.34138" lon="-1.89511">
        <ele>62</ele>
        <time>2015-12-05T13:51:19Z</time>
      </trkpt>
      <trkpt lat="47.34133" lon="-1.89516">
        <ele>63</ele>
        <time>2015-12-05T13:51:20Z</time>
      </trkpt>
      <trkpt lat="47.34129" lon="-1.8952">
        <ele>63</ele>
        <time>2015-12-05T13:51:21Z</time>
      </trkpt>
      <trkpt lat="47.34126" lon="-1.89523">
        <ele>63</ele>
        <time>2015-12-05T13:51:22Z</time>
      </trkpt>
      <trkpt lat="47.34123" lon="-1.89528">
        <ele>63</ele>
        <time>2015-12-05T13:51:23Z</time>
      </trkpt>
      <trkpt lat="47.3412" lon="-1.89531">
        <ele>63</ele>
        <time>2015-12-05T13:51:24Z</time>
      </trkpt>
      <trkpt lat="47.34117" lon="-1.89534">
        <ele>63</ele>
        <time>2015-12-05T13:51:25Z</time>
      </trkpt>
      <trkpt lat="47.34114" lon="-1.89539">
        <ele>63</ele>
        <time>2015-12-05T13:51:26Z</time>
      </trkpt>
      <trkpt lat="47.34111" lon="-1.89542">
        <ele>63</ele>
        <time>2015-12-05T13:51:27Z</time>
      </trkpt>
      <trkpt lat="47.34108" lon="-1.89546">
        <ele>63</ele>
        <time>2015-12-05T13:51:28Z</time>
      </trkpt>
      <trkpt lat="47.34105" lon="-1.89542">
        <ele>63</ele>
        <time>2015-12-05T13:51:29Z</time>
      </trkpt>
      <trkpt lat="47.34103" lon="-1.89546">
        <ele>63</ele>
        <time>2015-12-05T13:51:30Z</time>
      </trkpt>
      <trkpt lat="47.34101" lon="-1.89549">
        <ele>63</ele>
        <time>2015-12-05T13:51:31Z</time>
      </trkpt>
      <trkpt lat="47.34094" lon="-1.89549">
        <ele>63</ele>
        <time>2015-12-05T13:51:32Z</time>
      </trkpt>
      <trkpt lat="47.34091" lon="-1.89552">
        <ele>63</ele>
        <time>2015-12-05T13:51:33Z</time>
      </trkpt>
      <trkpt lat="47.34087" lon="-1.89554">
        <ele>63</ele>
        <time>2015-12-05T13:51:34Z</time>
      </trkpt>
      <trkpt lat="47.34084" lon="-1.89559">
        <ele>63</ele>
        <time>2015-12-05T13:51:36Z</time>
      </trkpt>
      <trkpt lat="47.34082" lon="-1.89563">
        <ele>62</ele>
        <time>2015-12-05T13:51:38Z</time>
      </trkpt>
      <trkpt lat="47.34086" lon="-1.89566">
        <ele>63</ele>
        <time>2015-12-05T13:51:40Z</time>
      </trkpt>
      <trkpt lat="47.34088" lon="-1.89573">
        <ele>63</ele>
        <time>2015-12-05T13:51:42Z</time>
      </trkpt>
      <trkpt lat="47.34086" lon="-1.89577">
        <ele>63</ele>
        <time>2015-12-05T13:52:00Z</time>
      </trkpt>
      <trkpt lat="47.34084" lon="-1.89581">
        <ele>63</ele>
        <time>2015-12-05T13:52:02Z</time>
      </trkpt>
      <trkpt lat="47.34081" lon="-1.89584">
        <ele>63</ele>
        <time>2015-12-05T13:52:03Z</time>
      </trkpt>
      <trkpt lat="47.34077" lon="-1.89587">
        <ele>63</ele>
        <time>2015-12-05T13:52:04Z</time>
      </trkpt>
      <trkpt lat="47.34073" lon="-1.89592">
        <ele>63</ele>
        <time>2015-12-05T13:52:05Z</time>
      </trkpt>
      <trkpt lat="47.34069" lon="-1.89596">
        <ele>62</ele>
        <time>2015-12-05T13:52:06Z</time>
      </trkpt>
      <trkpt lat="47.34066" lon="-1.896">
        <ele>62</ele>
        <time>2015-12-05T13:52:07Z</time>
      </trkpt>
      <trkpt lat="47.34055" lon="-1.89609">
        <ele>62</ele>
        <time>2015-12-05T13:52:08Z</time>
      </trkpt>
      <trkpt lat="47.3405" lon="-1.89613">
        <ele>62</ele>
        <time>2015-12-05T13:52:09Z</time>
      </trkpt>
      <trkpt lat="47.34044" lon="-1.89617">
        <ele>62</ele>
        <time>2015-12-05T13:52:10Z</time>
      </trkpt>
      <trkpt lat="47.3403" lon="-1.89619">
        <ele>62</ele>
        <time>2015-12-05T13:52:11Z</time>
      </trkpt>
      <trkpt lat="47.34022" lon="-1.89619">
        <ele>61</ele>
        <time>2015-12-05T13:52:12Z</time>
      </trkpt>
      <trkpt lat="47.34012" lon="-1.89618">
        <ele>61</ele>
        <time>2015-12-05T13:52:13Z</time>
      </trkpt>
      <trkpt lat="47.34005" lon="-1.89618">
        <ele>61</ele>
        <time>2015-12-05T13:52:14Z</time>
      </trkpt>
      <trkpt lat="47.33996" lon="-1.89615">
        <ele>59</ele>
        <time>2015-12-05T13:52:15Z</time>
      </trkpt>
      <trkpt lat="47.33989" lon="-1.89611">
        <ele>59</ele>
        <time>2015-12-05T13:52:16Z</time>
      </trkpt>
      <trkpt lat="47.33982" lon="-1.89611">
        <ele>58</ele>
        <time>2015-12-05T13:52:17Z</time>
      </trkpt>
      <trkpt lat="47.33976" lon="-1.8961">
        <ele>58</ele>
        <time>2015-12-05T13:52:18Z</time>
      </trkpt>
      <trkpt lat="47.3397" lon="-1.89611">
        <ele>58</ele>
        <time>2015-12-05T13:52:19Z</time>
      </trkpt>
      <trkpt lat="47.33966" lon="-1.89609">
        <ele>58</ele>
        <time>2015-12-05T13:52:20Z</time>
      </trkpt>
      <trkpt lat="47.33962" lon="-1.89609">
        <ele>58</ele>
        <time>2015-12-05T13:52:21Z</time>
      </trkpt>
      <trkpt lat="47.33957" lon="-1.89611">
        <ele>58</ele>
        <time>2015-12-05T13:52:22Z</time>
      </trkpt>
      <trkpt lat="47.33953" lon="-1.89614">
        <ele>58</ele>
        <time>2015-12-05T13:52:23Z</time>
      </trkpt>
      <trkpt lat="47.33949" lon="-1.89615">
        <ele>58</ele>
        <time>2015-12-05T13:52:24Z</time>
      </trkpt>
      <trkpt lat="47.33945" lon="-1.89616">
        <ele>58</ele>
        <time>2015-12-05T13:52:25Z</time>
      </trkpt>
      <trkpt lat="47.33938" lon="-1.89622">
        <ele>58</ele>
        <time>2015-12-05T13:52:26Z</time>
      </trkpt>
      <trkpt lat="47.33932" lon="-1.89625">
        <ele>57</ele>
        <time>2015-12-05T13:52:27Z</time>
      </trkpt>
      <trkpt lat="47.3393" lon="-1.89629">
        <ele>57</ele>
        <time>2015-12-05T13:52:28Z</time>
      </trkpt>
      <trkpt lat="47.33927" lon="-1.89634">
        <ele>57</ele>
        <time>2015-12-05T13:52:29Z</time>
      </trkpt>
      <trkpt lat="47.3392" lon="-1.89637">
        <ele>57</ele>
        <time>2015-12-05T13:52:30Z</time>
      </trkpt>
      <trkpt lat="47.33904" lon="-1.89639">
        <ele>55</ele>
        <time>2015-12-05T13:52:31Z</time>
      </trkpt>
      <trkpt lat="47.33895" lon="-1.8964">
        <ele>55</ele>
        <time>2015-12-05T13:52:32Z</time>
      </trkpt>
      <trkpt lat="47.33888" lon="-1.89643">
        <ele>54</ele>
        <time>2015-12-05T13:52:33Z</time>
      </trkpt>
      <trkpt lat="47.33882" lon="-1.89645">
        <ele>54</ele>
        <time>2015-12-05T13:52:34Z</time>
      </trkpt>
      <trkpt lat="47.33876" lon="-1.89644">
        <ele>54</ele>
        <time>2015-12-05T13:52:35Z</time>
      </trkpt>
      <trkpt lat="47.3387" lon="-1.89644">
        <ele>54</ele>
        <time>2015-12-05T13:52:36Z</time>
      </trkpt>
      <trkpt lat="47.33864" lon="-1.89643">
        <ele>54</ele>
        <time>2015-12-05T13:52:37Z</time>
      </trkpt>
      <trkpt lat="47.33858" lon="-1.89643">
        <ele>54</ele>
        <time>2015-12-05T13:52:38Z</time>
      </trkpt>
      <trkpt lat="47.33851" lon="-1.89642">
        <ele>53</ele>
        <time>2015-12-05T13:52:39Z</time>
      </trkpt>
      <trkpt lat="47.33843" lon="-1.89644">
        <ele>53</ele>
        <time>2015-12-05T13:52:40Z</time>
      </trkpt>
      <trkpt lat="47.33839" lon="-1.89648">
        <ele>53</ele>
        <time>2015-12-05T13:52:41Z</time>
      </trkpt>
      <trkpt lat="47.33835" lon="-1.89651">
        <ele>53</ele>
        <time>2015-12-05T13:52:42Z</time>
      </trkpt>
      <trkpt lat="47.33829" lon="-1.89655">
        <ele>52</ele>
        <time>2015-12-05T13:52:43Z</time>
      </trkpt>
      <trkpt lat="47.3383" lon="-1.8966">
        <ele>52</ele>
        <time>2015-12-05T13:52:44Z</time>
      </trkpt>
      <trkpt lat="47.33823" lon="-1.89665">
        <ele>52</ele>
        <time>2015-12-05T13:52:45Z</time>
      </trkpt>
      <trkpt lat="47.33819" lon="-1.89668">
        <ele>51</ele>
        <time>2015-12-05T13:52:46Z</time>
      </trkpt>
      <trkpt lat="47.33815" lon="-1.89675">
        <ele>51</ele>
        <time>2015-12-05T13:52:47Z</time>
      </trkpt>
      <trkpt lat="47.33808" lon="-1.89681">
        <ele>50</ele>
        <time>2015-12-05T13:52:48Z</time>
      </trkpt>
      <trkpt lat="47.33806" lon="-1.89687">
        <ele>50</ele>
        <time>2015-12-05T13:52:49Z</time>
      </trkpt>
      <trkpt lat="47.33801" lon="-1.89693">
        <ele>50</ele>
        <time>2015-12-05T13:52:50Z</time>
      </trkpt>
      <trkpt lat="47.33799" lon="-1.897">
        <ele>50</ele>
        <time>2015-12-05T13:52:51Z</time>
      </trkpt>
      <trkpt lat="47.33796" lon="-1.89707">
        <ele>49</ele>
        <time>2015-12-05T13:52:52Z</time>
      </trkpt>
      <trkpt lat="47.33792" lon="-1.8971">
        <ele>49</ele>
        <time>2015-12-05T13:52:53Z</time>
      </trkpt>
      <trkpt lat="47.33789" lon="-1.89712">
        <ele>49</ele>
        <time>2015-12-05T13:52:54Z</time>
      </trkpt>
      <trkpt lat="47.33783" lon="-1.89716">
        <ele>49</ele>
        <time>2015-12-05T13:52:55Z</time>
      </trkpt>
      <trkpt lat="47.33778" lon="-1.89722">
        <ele>49</ele>
        <time>2015-12-05T13:52:56Z</time>
      </trkpt>
      <trkpt lat="47.33774" lon="-1.89726">
        <ele>48</ele>
        <time>2015-12-05T13:52:57Z</time>
      </trkpt>
      <trkpt lat="47.33768" lon="-1.89731">
        <ele>48</ele>
        <time>2015-12-05T13:52:58Z</time>
      </trkpt>
      <trkpt lat="47.33762" lon="-1.89732">
        <ele>48</ele>
        <time>2015-12-05T13:52:59Z</time>
      </trkpt>
      <trkpt lat="47.33756" lon="-1.89733">
        <ele>47</ele>
        <time>2015-12-05T13:53:00Z</time>
      </trkpt>
      <trkpt lat="47.33749" lon="-1.89734">
        <ele>45</ele>
        <time>2015-12-05T13:53:01Z</time>
      </trkpt>
      <trkpt lat="47.33742" lon="-1.89735">
        <ele>45</ele>
        <time>2015-12-05T13:53:02Z</time>
      </trkpt>
      <trkpt lat="47.33735" lon="-1.89737">
        <ele>45</ele>
        <time>2015-12-05T13:53:03Z</time>
      </trkpt>
      <trkpt lat="47.33729" lon="-1.89737">
        <ele>45</ele>
        <time>2015-12-05T13:53:04Z</time>
      </trkpt>
      <trkpt lat="47.33724" lon="-1.89737">
        <ele>44</ele>
        <time>2015-12-05T13:53:05Z</time>
      </trkpt>
      <trkpt lat="47.33718" lon="-1.89737">
        <ele>44</ele>
        <time>2015-12-05T13:53:06Z</time>
      </trkpt>
      <trkpt lat="47.33718" lon="-1.89733">
        <ele>44</ele>
        <time>2015-12-05T13:53:07Z</time>
      </trkpt>
      <trkpt lat="47.33713" lon="-1.8973">
        <ele>44</ele>
        <time>2015-12-05T13:53:08Z</time>
      </trkpt>
      <trkpt lat="47.3371" lon="-1.89727">
        <ele>44</ele>
        <time>2015-12-05T13:53:09Z</time>
      </trkpt>
      <trkpt lat="47.33707" lon="-1.89725">
        <ele>44</ele>
        <time>2015-12-05T13:53:10Z</time>
      </trkpt>
      <trkpt lat="47.33701" lon="-1.89722">
        <ele>44</ele>
        <time>2015-12-05T13:53:27Z</time>
      </trkpt>
      <trkpt lat="47.33699" lon="-1.89719">
        <ele>44</ele>
        <time>2015-12-05T13:53:28Z</time>
      </trkpt>
      <trkpt lat="47.33696" lon="-1.89714">
        <ele>44</ele>
        <time>2015-12-05T13:53:30Z</time>
      </trkpt>
      <trkpt lat="47.33693" lon="-1.89711">
        <ele>44</ele>
        <time>2015-12-05T13:53:31Z</time>
      </trkpt>
      <trkpt lat="47.3369" lon="-1.89709">
        <ele>44</ele>
        <time>2015-12-05T13:53:32Z</time>
      </trkpt>
      <trkpt lat="47.33687" lon="-1.89704">
        <ele>44</ele>
        <time>2015-12-05T13:53:33Z</time>
      </trkpt>
      <trkpt lat="47.33684" lon="-1.897">
        <ele>44</ele>
        <time>2015-12-05T13:53:34Z</time>
      </trkpt>
      <trkpt lat="47.33682" lon="-1.89694">
        <ele>44</ele>
        <time>2015-12-05T13:53:35Z</time>
      </trkpt>
      <trkpt lat="47.3368" lon="-1.89688">
        <ele>44</ele>
        <time>2015-12-05T13:53:36Z</time>
      </trkpt>
      <trkpt lat="47.33678" lon="-1.89677">
        <ele>43</ele>
        <time>2015-12-05T13:53:37Z</time>
      </trkpt>
      <trkpt lat="47.33676" lon="-1.8967">
        <ele>43</ele>
        <time>2015-12-05T13:53:38Z</time>
      </trkpt>
      <trkpt lat="47.33674" lon="-1.89664">
        <ele>43</ele>
        <time>2015-12-05T13:53:39Z</time>
      </trkpt>
      <trkpt lat="47.33673" lon="-1.89658">
        <ele>44</ele>
        <time>2015-12-05T13:53:40Z</time>
      </trkpt>
      <trkpt lat="47.33672" lon="-1.89651">
        <ele>44</ele>
        <time>2015-12-05T13:53:41Z</time>
      </trkpt>
      <trkpt lat="47.33671" lon="-1.89644">
        <ele>45</ele>
        <time>2015-12-05T13:53:42Z</time>
      </trkpt>
      <trkpt lat="47.33669" lon="-1.89637">
        <ele>45</ele>
        <time>2015-12-05T13:53:43Z</time>
      </trkpt>
      <trkpt lat="47.33669" lon="-1.8963">
        <ele>45</ele>
        <time>2015-12-05T13:53:44Z</time>
      </trkpt>
      <trkpt lat="47.33667" lon="-1.89623">
        <ele>45</ele>
        <time>2015-12-05T13:53:45Z</time>
      </trkpt>
      <trkpt lat="47.33667" lon="-1.89614">
        <ele>40</ele>
        <time>2015-12-05T13:53:46Z</time>
      </trkpt>
      <trkpt lat="47.33667" lon="-1.89606">
        <ele>45</ele>
        <time>2015-12-05T13:53:47Z</time>
      </trkpt>
      <trkpt lat="47.33665" lon="-1.896">
        <ele>41</ele>
        <time>2015-12-05T13:53:48Z</time>
      </trkpt>
      <trkpt lat="47.33662" lon="-1.89594">
        <ele>41</ele>
        <time>2015-12-05T13:53:49Z</time>
      </trkpt>
      <trkpt lat="47.33658" lon="-1.89588">
        <ele>41</ele>
        <time>2015-12-05T13:53:50Z</time>
      </trkpt>
      <trkpt lat="47.33658" lon="-1.89578">
        <ele>41</ele>
        <time>2015-12-05T13:53:51Z</time>
      </trkpt>
      <trkpt lat="47.33656" lon="-1.89571">
        <ele>40</ele>
        <time>2015-12-05T13:53:52Z</time>
      </trkpt>
      <trkpt lat="47.33655" lon="-1.89565">
        <ele>40</ele>
        <time>2015-12-05T13:53:53Z</time>
      </trkpt>
      <trkpt lat="47.33653" lon="-1.89557">
        <ele>39</ele>
        <time>2015-12-05T13:53:54Z</time>
      </trkpt>
      <trkpt lat="47.33651" lon="-1.89553">
        <ele>39</ele>
        <time>2015-12-05T13:53:55Z</time>
      </trkpt>
      <trkpt lat="47.33649" lon="-1.89547">
        <ele>39</ele>
        <time>2015-12-05T13:53:56Z</time>
      </trkpt>
      <trkpt lat="47.33648" lon="-1.89541">
        <ele>38</ele>
        <time>2015-12-05T13:53:58Z</time>
      </trkpt>
      <trkpt lat="47.33645" lon="-1.89535">
        <ele>38</ele>
        <time>2015-12-05T13:54:00Z</time>
      </trkpt>
      <trkpt lat="47.33645" lon="-1.89531">
        <ele>38</ele>
        <time>2015-12-05T13:54:02Z</time>
      </trkpt>
      <trkpt lat="47.33646" lon="-1.89526">
        <ele>38</ele>
        <time>2015-12-05T13:54:05Z</time>
      </trkpt>
      <trkpt lat="47.33646" lon="-1.89521">
        <ele>38</ele>
        <time>2015-12-05T13:54:07Z</time>
      </trkpt>
      <trkpt lat="47.33646" lon="-1.89517">
        <ele>38</ele>
        <time>2015-12-05T13:54:10Z</time>
      </trkpt>
      <trkpt lat="47.33648" lon="-1.89507">
        <ele>39</ele>
        <time>2015-12-05T14:02:28Z</time>
      </trkpt>
      <trkpt lat="47.33652" lon="-1.89508">
        <ele>39</ele>
        <time>2015-12-05T14:02:40Z</time>
      </trkpt>
      <trkpt lat="47.33656" lon="-1.89506">
        <ele>40</ele>
        <time>2015-12-05T14:02:43Z</time>
      </trkpt>
      <trkpt lat="47.33658" lon="-1.89501">
        <ele>40</ele>
        <time>2015-12-05T14:02:46Z</time>
      </trkpt>
      <trkpt lat="47.33659" lon="-1.89495">
        <ele>40</ele>
        <time>2015-12-05T14:02:49Z</time>
      </trkpt>
      <trkpt lat="47.33663" lon="-1.8949">
        <ele>40</ele>
        <time>2015-12-05T14:02:52Z</time>
      </trkpt>
      <trkpt lat="47.33665" lon="-1.89487">
        <ele>39</ele>
        <time>2015-12-05T14:02:54Z</time>
      </trkpt>
      <trkpt lat="47.33667" lon="-1.89484">
        <ele>42</ele>
        <time>2015-12-05T14:03:02Z</time>
      </trkpt>
      <trkpt lat="47.33669" lon="-1.8948">
        <ele>42</ele>
        <time>2015-12-05T14:03:11Z</time>
      </trkpt>
      <trkpt lat="47.33671" lon="-1.89477">
        <ele>42</ele>
        <time>2015-12-05T14:03:17Z</time>
      </trkpt>
      <trkpt lat="47.33679" lon="-1.89464">
        <ele>42</ele>
        <time>2015-12-05T14:03:50Z</time>
      </trkpt>
      <trkpt lat="47.3368" lon="-1.89459">
        <ele>42</ele>
        <time>2015-12-05T14:03:54Z</time>
      </trkpt>
      <trkpt lat="47.3368" lon="-1.89454">
        <ele>42</ele>
        <time>2015-12-05T14:03:58Z</time>
      </trkpt>
      <trkpt lat="47.33681" lon="-1.89449">
        <ele>42</ele>
        <time>2015-12-05T14:04:01Z</time>
      </trkpt>
      <trkpt lat="47.33682" lon="-1.89444">
        <ele>42</ele>
        <time>2015-12-05T14:04:03Z</time>
      </trkpt>
      <trkpt lat="47.33684" lon="-1.89439">
        <ele>42</ele>
        <time>2015-12-05T14:04:05Z</time>
      </trkpt>
      <trkpt lat="47.33687" lon="-1.89434">
        <ele>42</ele>
        <time>2015-12-05T14:04:07Z</time>
      </trkpt>
      <trkpt lat="47.33691" lon="-1.89431">
        <ele>42</ele>
        <time>2015-12-05T14:04:09Z</time>
      </trkpt>
      <trkpt lat="47.33696" lon="-1.89429">
        <ele>42</ele>
        <time>2015-12-05T14:04:11Z</time>
      </trkpt>
      <trkpt lat="47.33699" lon="-1.89428">
        <ele>42</ele>
        <time>2015-12-05T14:04:13Z</time>
      </trkpt>
      <trkpt lat="47.33703" lon="-1.89428">
        <ele>43</ele>
        <time>2015-12-05T14:04:15Z</time>
      </trkpt>
      <trkpt lat="47.33705" lon="-1.89431">
        <ele>43</ele>
        <time>2015-12-05T14:04:17Z</time>
      </trkpt>
      <trkpt lat="47.33707" lon="-1.89435">
        <ele>43</ele>
        <time>2015-12-05T14:04:19Z</time>
      </trkpt>
      <trkpt lat="47.3371" lon="-1.89434">
        <ele>43</ele>
        <time>2015-12-05T14:04:23Z</time>
      </trkpt>
      <trkpt lat="47.33713" lon="-1.89432">
        <ele>43</ele>
        <time>2015-12-05T14:04:26Z</time>
      </trkpt>
      <trkpt lat="47.33715" lon="-1.89429">
        <ele>43</ele>
        <time>2015-12-05T14:04:28Z</time>
      </trkpt>
      <trkpt lat="47.33716" lon="-1.89425">
        <ele>43</ele>
        <time>2015-12-05T14:04:30Z</time>
      </trkpt>
      <trkpt lat="47.33717" lon="-1.89421">
        <ele>43</ele>
        <time>2015-12-05T14:04:32Z</time>
      </trkpt>
      <trkpt lat="47.33717" lon="-1.89415">
        <ele>45</ele>
        <time>2015-12-05T14:04:35Z</time>
      </trkpt>
      <trkpt lat="47.33718" lon="-1.89409">
        <ele>45</ele>
        <time>2015-12-05T14:04:39Z</time>
      </trkpt>
      <trkpt lat="47.33719" lon="-1.89405">
        <ele>45</ele>
        <time>2015-12-05T14:04:42Z</time>
      </trkpt>
      <trkpt lat="47.33721" lon="-1.894">
        <ele>45</ele>
        <time>2015-12-05T14:04:45Z</time>
      </trkpt>
      <trkpt lat="47.33723" lon="-1.89397">
        <ele>45</ele>
        <time>2015-12-05T14:04:47Z</time>
      </trkpt>
      <trkpt lat="47.33724" lon="-1.89393">
        <ele>45</ele>
        <time>2015-12-05T14:04:50Z</time>
      </trkpt>
      <trkpt lat="47.33725" lon="-1.89387">
        <ele>46</ele>
        <time>2015-12-05T14:04:52Z</time>
      </trkpt>
      <trkpt lat="47.33725" lon="-1.89382">
        <ele>46</ele>
        <time>2015-12-05T14:04:55Z</time>
      </trkpt>
      <trkpt lat="47.33727" lon="-1.89377">
        <ele>46</ele>
        <time>2015-12-05T14:04:57Z</time>
      </trkpt>
      <trkpt lat="47.33729" lon="-1.89374">
        <ele>46</ele>
        <time>2015-12-05T14:04:58Z</time>
      </trkpt>
      <trkpt lat="47.33732" lon="-1.89369">
        <ele>46</ele>
        <time>2015-12-05T14:05:01Z</time>
      </trkpt>
      <trkpt lat="47.33733" lon="-1.89365">
        <ele>47</ele>
        <time>2015-12-05T14:05:03Z</time>
      </trkpt>
      <trkpt lat="47.33734" lon="-1.89361">
        <ele>47</ele>
        <time>2015-12-05T14:05:05Z</time>
      </trkpt>
      <trkpt lat="47.33735" lon="-1.89356">
        <ele>47</ele>
        <time>2015-12-05T14:05:08Z</time>
      </trkpt>
      <trkpt lat="47.33736" lon="-1.89352">
        <ele>47</ele>
        <time>2015-12-05T14:05:11Z</time>
      </trkpt>
      <trkpt lat="47.33737" lon="-1.89347">
        <ele>48</ele>
        <time>2015-12-05T14:05:14Z</time>
      </trkpt>
      <trkpt lat="47.33737" lon="-1.89342">
        <ele>48</ele>
        <time>2015-12-05T14:05:17Z</time>
      </trkpt>
      <trkpt lat="47.33738" lon="-1.89338">
        <ele>48</ele>
        <time>2015-12-05T14:05:19Z</time>
      </trkpt>
      <trkpt lat="47.3374" lon="-1.89335">
        <ele>49</ele>
        <time>2015-12-05T14:05:22Z</time>
      </trkpt>
      <trkpt lat="47.33745" lon="-1.89333">
        <ele>50</ele>
        <time>2015-12-05T14:05:26Z</time>
      </trkpt>
      <trkpt lat="47.33749" lon="-1.89331">
        <ele>50</ele>
        <time>2015-12-05T14:05:29Z</time>
      </trkpt>
      <trkpt lat="47.33752" lon="-1.8933">
        <ele>51</ele>
        <time>2015-12-05T14:05:32Z</time>
      </trkpt>
      <trkpt lat="47.33755" lon="-1.89328">
        <ele>51</ele>
        <time>2015-12-05T14:05:34Z</time>
      </trkpt>
      <trkpt lat="47.33759" lon="-1.89327">
        <ele>52</ele>
        <time>2015-12-05T14:05:36Z</time>
      </trkpt>
      <trkpt lat="47.33763" lon="-1.89325">
        <ele>52</ele>
        <time>2015-12-05T14:05:38Z</time>
      </trkpt>
      <trkpt lat="47.33769" lon="-1.89322">
        <ele>52</ele>
        <time>2015-12-05T14:05:41Z</time>
      </trkpt>
      <trkpt lat="47.33774" lon="-1.89321">
        <ele>53</ele>
        <time>2015-12-05T14:05:43Z</time>
      </trkpt>
      <trkpt lat="47.33777" lon="-1.8932">
        <ele>53</ele>
        <time>2015-12-05T14:05:45Z</time>
      </trkpt>
      <trkpt lat="47.3378" lon="-1.89319">
        <ele>53</ele>
        <time>2015-12-05T14:05:47Z</time>
      </trkpt>
      <trkpt lat="47.33784" lon="-1.89319">
        <ele>53</ele>
        <time>2015-12-05T14:05:49Z</time>
      </trkpt>
      <trkpt lat="47.33787" lon="-1.89319">
        <ele>53</ele>
        <time>2015-12-05T14:05:51Z</time>
      </trkpt>
      <trkpt lat="47.3379" lon="-1.89317">
        <ele>54</ele>
        <time>2015-12-05T14:05:54Z</time>
      </trkpt>
      <trkpt lat="47.33793" lon="-1.89313">
        <ele>54</ele>
        <time>2015-12-05T14:05:57Z</time>
      </trkpt>
      <trkpt lat="47.33794" lon="-1.89309">
        <ele>54</ele>
        <time>2015-12-05T14:06:00Z</time>
      </trkpt>
      <trkpt lat="47.33793" lon="-1.89305">
        <ele>54</ele>
        <time>2015-12-05T14:06:03Z</time>
      </trkpt>
      <trkpt lat="47.33793" lon="-1.89301">
        <ele>54</ele>
        <time>2015-12-05T14:06:05Z</time>
      </trkpt>
      <trkpt lat="47.33794" lon="-1.89297">
        <ele>54</ele>
        <time>2015-12-05T14:06:08Z</time>
      </trkpt>
      <trkpt lat="47.33795" lon="-1.89303">
        <ele>54</ele>
        <time>2015-12-05T14:06:18Z</time>
      </trkpt>
      <trkpt lat="47.33796" lon="-1.89307">
        <ele>54</ele>
        <time>2015-12-05T14:06:21Z</time>
      </trkpt>
      <trkpt lat="47.33799" lon="-1.8931">
        <ele>54</ele>
        <time>2015-12-05T14:06:23Z</time>
      </trkpt>
      <trkpt lat="47.33802" lon="-1.89312">
        <ele>54</ele>
        <time>2015-12-05T14:06:25Z</time>
      </trkpt>
      <trkpt lat="47.33804" lon="-1.89316">
        <ele>54</ele>
        <time>2015-12-05T14:06:27Z</time>
      </trkpt>
      <trkpt lat="47.33807" lon="-1.89319">
        <ele>54</ele>
        <time>2015-12-05T14:06:29Z</time>
      </trkpt>
      <trkpt lat="47.3381" lon="-1.89323">
        <ele>55</ele>
        <time>2015-12-05T14:06:31Z</time>
      </trkpt>
      <trkpt lat="47.33813" lon="-1.89326">
        <ele>55</ele>
        <time>2015-12-05T14:06:33Z</time>
      </trkpt>
      <trkpt lat="47.33815" lon="-1.89329">
        <ele>55</ele>
        <time>2015-12-05T14:06:35Z</time>
      </trkpt>
      <trkpt lat="47.33818" lon="-1.89331">
        <ele>55</ele>
        <time>2015-12-05T14:06:37Z</time>
      </trkpt>
      <trkpt lat="47.33821" lon="-1.89329">
        <ele>55</ele>
        <time>2015-12-05T14:06:40Z</time>
      </trkpt>
      <trkpt lat="47.33824" lon="-1.89329">
        <ele>55</ele>
        <time>2015-12-05T14:06:43Z</time>
      </trkpt>
      <trkpt lat="47.33827" lon="-1.89329">
        <ele>55</ele>
        <time>2015-12-05T14:06:45Z</time>
      </trkpt>
      <trkpt lat="47.33829" lon="-1.89325">
        <ele>55</ele>
        <time>2015-12-05T14:06:47Z</time>
      </trkpt>
      <trkpt lat="47.33831" lon="-1.89317">
        <ele>55</ele>
        <time>2015-12-05T14:06:50Z</time>
      </trkpt>
      <trkpt lat="47.33833" lon="-1.89311">
        <ele>55</ele>
        <time>2015-12-05T14:06:52Z</time>
      </trkpt>
      <trkpt lat="47.33836" lon="-1.89304">
        <ele>56</ele>
        <time>2015-12-05T14:06:55Z</time>
      </trkpt>
      <trkpt lat="47.33839" lon="-1.89297">
        <ele>56</ele>
        <time>2015-12-05T14:06:58Z</time>
      </trkpt>
      <trkpt lat="47.33841" lon="-1.89294">
        <ele>56</ele>
        <time>2015-12-05T14:07:00Z</time>
      </trkpt>
      <trkpt lat="47.33844" lon="-1.89292">
        <ele>56</ele>
        <time>2015-12-05T14:07:03Z</time>
      </trkpt>
      <trkpt lat="47.33846" lon="-1.89286">
        <ele>56</ele>
        <time>2015-12-05T14:07:05Z</time>
      </trkpt>
      <trkpt lat="47.33848" lon="-1.89282">
        <ele>56</ele>
        <time>2015-12-05T14:07:07Z</time>
      </trkpt>
      <trkpt lat="47.33851" lon="-1.89278">
        <ele>56</ele>
        <time>2015-12-05T14:07:09Z</time>
      </trkpt>
      <trkpt lat="47.33854" lon="-1.89278">
        <ele>56</ele>
        <time>2015-12-05T14:07:11Z</time>
      </trkpt>
      <trkpt lat="47.33858" lon="-1.89277">
        <ele>56</ele>
        <time>2015-12-05T14:07:14Z</time>
      </trkpt>
      <trkpt lat="47.33861" lon="-1.89278">
        <ele>56</ele>
        <time>2015-12-05T14:07:17Z</time>
      </trkpt>
      <trkpt lat="47.33864" lon="-1.8928">
        <ele>56</ele>
        <time>2015-12-05T14:07:20Z</time>
      </trkpt>
      <trkpt lat="47.33866" lon="-1.89282">
        <ele>56</ele>
        <time>2015-12-05T14:07:28Z</time>
      </trkpt>
      <trkpt lat="47.33868" lon="-1.89285">
        <ele>56</ele>
        <time>2015-12-05T14:07:37Z</time>
      </trkpt>
      <trkpt lat="47.33868" lon="-1.89289">
        <ele>56</ele>
        <time>2015-12-05T14:07:39Z</time>
      </trkpt>
      <trkpt lat="47.33867" lon="-1.89297">
        <ele>56</ele>
        <time>2015-12-05T14:07:42Z</time>
      </trkpt>
      <trkpt lat="47.33865" lon="-1.89302">
        <ele>56</ele>
        <time>2015-12-05T14:07:44Z</time>
      </trkpt>
      <trkpt lat="47.33863" lon="-1.89304">
        <ele>56</ele>
        <time>2015-12-05T14:07:45Z</time>
      </trkpt>
      <trkpt lat="47.3386" lon="-1.89307">
        <ele>56</ele>
        <time>2015-12-05T14:07:46Z</time>
      </trkpt>
      <trkpt lat="47.33857" lon="-1.89309">
        <ele>56</ele>
        <time>2015-12-05T14:07:47Z</time>
      </trkpt>
      <trkpt lat="47.33855" lon="-1.89311">
        <ele>56</ele>
        <time>2015-12-05T14:07:48Z</time>
      </trkpt>
      <trkpt lat="47.33853" lon="-1.89315">
        <ele>56</ele>
        <time>2015-12-05T14:07:51Z</time>
      </trkpt>
      <trkpt lat="47.33858" lon="-1.89316">
        <ele>56</ele>
        <time>2015-12-05T14:07:54Z</time>
      </trkpt>
      <trkpt lat="47.3386" lon="-1.89314">
        <ele>56</ele>
        <time>2015-12-05T14:07:56Z</time>
      </trkpt>
      <trkpt lat="47.33863" lon="-1.89313">
        <ele>56</ele>
        <time>2015-12-05T14:07:59Z</time>
      </trkpt>
      <trkpt lat="47.33867" lon="-1.89313">
        <ele>55</ele>
        <time>2015-12-05T14:08:02Z</time>
      </trkpt>
      <trkpt lat="47.33871" lon="-1.89312">
        <ele>55</ele>
        <time>2015-12-05T14:08:05Z</time>
      </trkpt>
      <trkpt lat="47.33873" lon="-1.89311">
        <ele>55</ele>
        <time>2015-12-05T14:08:07Z</time>
      </trkpt>
      <trkpt lat="47.33876" lon="-1.8931">
        <ele>55</ele>
        <time>2015-12-05T14:08:09Z</time>
      </trkpt>
      <trkpt lat="47.33879" lon="-1.89309">
        <ele>55</ele>
        <time>2015-12-05T14:08:11Z</time>
      </trkpt>
      <trkpt lat="47.33882" lon="-1.89306">
        <ele>55</ele>
        <time>2015-12-05T14:08:13Z</time>
      </trkpt>
      <trkpt lat="47.33882" lon="-1.89301">
        <ele>55</ele>
        <time>2015-12-05T14:08:15Z</time>
      </trkpt>
      <trkpt lat="47.33882" lon="-1.89297">
        <ele>56</ele>
        <time>2015-12-05T14:08:17Z</time>
      </trkpt>
      <trkpt lat="47.33881" lon="-1.89292">
        <ele>56</ele>
        <time>2015-12-05T14:08:19Z</time>
      </trkpt>
      <trkpt lat="47.33879" lon="-1.89288">
        <ele>56</ele>
        <time>2015-12-05T14:08:21Z</time>
      </trkpt>
      <trkpt lat="47.33883" lon="-1.89287">
        <ele>56</ele>
        <time>2015-12-05T14:08:22Z</time>
      </trkpt>
      <trkpt lat="47.33885" lon="-1.89284">
        <ele>56</ele>
        <time>2015-12-05T14:08:24Z</time>
      </trkpt>
      <trkpt lat="47.33886" lon="-1.8928">
        <ele>56</ele>
        <time>2015-12-05T14:08:26Z</time>
      </trkpt>
      <trkpt lat="47.33885" lon="-1.89276">
        <ele>56</ele>
        <time>2015-12-05T14:08:28Z</time>
      </trkpt>
      <trkpt lat="47.33884" lon="-1.89271">
        <ele>56</ele>
        <time>2015-12-05T14:08:31Z</time>
      </trkpt>
      <trkpt lat="47.33883" lon="-1.89267">
        <ele>56</ele>
        <time>2015-12-05T14:08:33Z</time>
      </trkpt>
      <trkpt lat="47.33882" lon="-1.89262">
        <ele>56</ele>
        <time>2015-12-05T14:08:35Z</time>
      </trkpt>
      <trkpt lat="47.33882" lon="-1.89258">
        <ele>56</ele>
        <time>2015-12-05T14:08:37Z</time>
      </trkpt>
      <trkpt lat="47.33879" lon="-1.89254">
        <ele>56</ele>
        <time>2015-12-05T14:08:39Z</time>
      </trkpt>
      <trkpt lat="47.33874" lon="-1.89251">
        <ele>56</ele>
        <time>2015-12-05T14:08:42Z</time>
      </trkpt>
      <trkpt lat="47.33871" lon="-1.8925">
        <ele>59</ele>
        <time>2015-12-05T14:08:44Z</time>
      </trkpt>
      <trkpt lat="47.3387" lon="-1.89254">
        <ele>56</ele>
        <time>2015-12-05T14:08:49Z</time>
      </trkpt>
      <trkpt lat="47.33869" lon="-1.89243">
        <ele>59</ele>
        <time>2015-12-05T14:08:51Z</time>
      </trkpt>
      <trkpt lat="47.33868" lon="-1.89239">
        <ele>59</ele>
        <time>2015-12-05T14:08:52Z</time>
      </trkpt>
      <trkpt lat="47.33868" lon="-1.89235">
        <ele>59</ele>
        <time>2015-12-05T14:08:53Z</time>
      </trkpt>
      <trkpt lat="47.33868" lon="-1.89229">
        <ele>59</ele>
        <time>2015-12-05T14:08:56Z</time>
      </trkpt>
      <trkpt lat="47.33866" lon="-1.89224">
        <ele>59</ele>
        <time>2015-12-05T14:08:58Z</time>
      </trkpt>
      <trkpt lat="47.33863" lon="-1.89221">
        <ele>59</ele>
        <time>2015-12-05T14:09:00Z</time>
      </trkpt>
      <trkpt lat="47.33861" lon="-1.89218">
        <ele>59</ele>
        <time>2015-12-05T14:09:03Z</time>
      </trkpt>
      <trkpt lat="47.33863" lon="-1.89215">
        <ele>59</ele>
        <time>2015-12-05T14:09:06Z</time>
      </trkpt>
      <trkpt lat="47.33865" lon="-1.8921">
        <ele>59</ele>
        <time>2015-12-05T14:09:09Z</time>
      </trkpt>
      <trkpt lat="47.33868" lon="-1.89208">
        <ele>59</ele>
        <time>2015-12-05T14:09:12Z</time>
      </trkpt>
      <trkpt lat="47.33871" lon="-1.89209">
        <ele>59</ele>
        <time>2015-12-05T14:09:14Z</time>
      </trkpt>
      <trkpt lat="47.33875" lon="-1.8921">
        <ele>59</ele>
        <time>2015-12-05T14:09:16Z</time>
      </trkpt>
      <trkpt lat="47.33877" lon="-1.89205">
        <ele>59</ele>
        <time>2015-12-05T14:09:19Z</time>
      </trkpt>
      <trkpt lat="47.33879" lon="-1.89198">
        <ele>59</ele>
        <time>2015-12-05T14:09:22Z</time>
      </trkpt>
      <trkpt lat="47.33883" lon="-1.89185">
        <ele>60</ele>
        <time>2015-12-05T14:09:25Z</time>
      </trkpt>
      <trkpt lat="47.33886" lon="-1.89179">
        <ele>60</ele>
        <time>2015-12-05T14:09:26Z</time>
      </trkpt>
      <trkpt lat="47.33889" lon="-1.89172">
        <ele>60</ele>
        <time>2015-12-05T14:09:27Z</time>
      </trkpt>
      <trkpt lat="47.33893" lon="-1.89169">
        <ele>60</ele>
        <time>2015-12-05T14:09:29Z</time>
      </trkpt>
      <trkpt lat="47.33896" lon="-1.8916">
        <ele>60</ele>
        <time>2015-12-05T14:09:31Z</time>
      </trkpt>
      <trkpt lat="47.33897" lon="-1.89156">
        <ele>60</ele>
        <time>2015-12-05T14:09:32Z</time>
      </trkpt>
      <trkpt lat="47.339" lon="-1.89153">
        <ele>60</ele>
        <time>2015-12-05T14:09:34Z</time>
      </trkpt>
      <trkpt lat="47.33903" lon="-1.89155">
        <ele>60</ele>
        <time>2015-12-05T14:09:36Z</time>
      </trkpt>
      <trkpt lat="47.33905" lon="-1.89159">
        <ele>61</ele>
        <time>2015-12-05T14:09:38Z</time>
      </trkpt>
      <trkpt lat="47.33906" lon="-1.89164">
        <ele>61</ele>
        <time>2015-12-05T14:09:40Z</time>
      </trkpt>
      <trkpt lat="47.33909" lon="-1.89166">
        <ele>61</ele>
        <time>2015-12-05T14:09:42Z</time>
      </trkpt>
      <trkpt lat="47.33909" lon="-1.89171">
        <ele>60</ele>
        <time>2015-12-05T14:09:44Z</time>
      </trkpt>
      <trkpt lat="47.33905" lon="-1.89176">
        <ele>60</ele>
        <time>2015-12-05T14:09:46Z</time>
      </trkpt>
      <trkpt lat="47.33901" lon="-1.89182">
        <ele>60</ele>
        <time>2015-12-05T14:09:48Z</time>
      </trkpt>
      <trkpt lat="47.33898" lon="-1.89187">
        <ele>60</ele>
        <time>2015-12-05T14:09:50Z</time>
      </trkpt>
      <trkpt lat="47.33897" lon="-1.89192">
        <ele>60</ele>
        <time>2015-12-05T14:09:52Z</time>
      </trkpt>
      <trkpt lat="47.33897" lon="-1.89197">
        <ele>60</ele>
        <time>2015-12-05T14:09:54Z</time>
      </trkpt>
      <trkpt lat="47.33898" lon="-1.89202">
        <ele>59</ele>
        <time>2015-12-05T14:09:56Z</time>
      </trkpt>
      <trkpt lat="47.33896" lon="-1.89206">
        <ele>59</ele>
        <time>2015-12-05T14:09:57Z</time>
      </trkpt>
      <trkpt lat="47.33895" lon="-1.89211">
        <ele>59</ele>
        <time>2015-12-05T14:09:59Z</time>
      </trkpt>
      <trkpt lat="47.33892" lon="-1.89212">
        <ele>59</ele>
        <time>2015-12-05T14:10:00Z</time>
      </trkpt>
      <trkpt lat="47.33889" lon="-1.89215">
        <ele>59</ele>
        <time>2015-12-05T14:10:02Z</time>
      </trkpt>
      <trkpt lat="47.33888" lon="-1.89218">
        <ele>59</ele>
        <time>2015-12-05T14:10:04Z</time>
      </trkpt>
      <trkpt lat="47.33888" lon="-1.89224">
        <ele>59</ele>
        <time>2015-12-05T14:10:06Z</time>
      </trkpt>
      <trkpt lat="47.33887" lon="-1.89229">
        <ele>59</ele>
        <time>2015-12-05T14:10:08Z</time>
      </trkpt>
      <trkpt lat="47.33886" lon="-1.89233">
        <ele>59</ele>
        <time>2015-12-05T14:10:10Z</time>
      </trkpt>
      <trkpt lat="47.33888" lon="-1.89229">
        <ele>59</ele>
        <time>2015-12-05T14:10:13Z</time>
      </trkpt>
      <trkpt lat="47.33885" lon="-1.89231">
        <ele>59</ele>
        <time>2015-12-05T14:10:14Z</time>
      </trkpt>
      <trkpt lat="47.33886" lon="-1.89222">
        <ele>59</ele>
        <time>2015-12-05T14:10:40Z</time>
      </trkpt>
      <trkpt lat="47.33888" lon="-1.89216">
        <ele>59</ele>
        <time>2015-12-05T14:10:43Z</time>
      </trkpt>
      <trkpt lat="47.33891" lon="-1.89208">
        <ele>59</ele>
        <time>2015-12-05T14:10:46Z</time>
      </trkpt>
      <trkpt lat="47.33892" lon="-1.89203">
        <ele>59</ele>
        <time>2015-12-05T14:10:48Z</time>
      </trkpt>
      <trkpt lat="47.33899" lon="-1.89194">
        <ele>60</ele>
        <time>2015-12-05T14:10:50Z</time>
      </trkpt>
      <trkpt lat="47.33903" lon="-1.89187">
        <ele>60</ele>
        <time>2015-12-05T14:10:52Z</time>
      </trkpt>
      <trkpt lat="47.33905" lon="-1.89183">
        <ele>60</ele>
        <time>2015-12-05T14:10:53Z</time>
      </trkpt>
      <trkpt lat="47.33907" lon="-1.89179">
        <ele>60</ele>
        <time>2015-12-05T14:10:54Z</time>
      </trkpt>
      <trkpt lat="47.3391" lon="-1.89171">
        <ele>61</ele>
        <time>2015-12-05T14:10:56Z</time>
      </trkpt>
      <trkpt lat="47.33912" lon="-1.89167">
        <ele>61</ele>
        <time>2015-12-05T14:10:57Z</time>
      </trkpt>
      <trkpt lat="47.33913" lon="-1.89164">
        <ele>61</ele>
        <time>2015-12-05T14:10:58Z</time>
      </trkpt>
      <trkpt lat="47.33917" lon="-1.89163">
        <ele>61</ele>
        <time>2015-12-05T14:11:00Z</time>
      </trkpt>
      <trkpt lat="47.33919" lon="-1.89166">
        <ele>61</ele>
        <time>2015-12-05T14:11:02Z</time>
      </trkpt>
      <trkpt lat="47.33919" lon="-1.8917">
        <ele>61</ele>
        <time>2015-12-05T14:11:05Z</time>
      </trkpt>
      <trkpt lat="47.33917" lon="-1.89175">
        <ele>61</ele>
        <time>2015-12-05T14:11:10Z</time>
      </trkpt>
      <trkpt lat="47.33917" lon="-1.8918">
        <ele>60</ele>
        <time>2015-12-05T14:11:12Z</time>
      </trkpt>
      <trkpt lat="47.33919" lon="-1.89186">
        <ele>60</ele>
        <time>2015-12-05T14:11:14Z</time>
      </trkpt>
      <trkpt lat="47.3392" lon="-1.89194">
        <ele>60</ele>
        <time>2015-12-05T14:11:16Z</time>
      </trkpt>
      <trkpt lat="47.3392" lon="-1.89198">
        <ele>60</ele>
        <time>2015-12-05T14:11:17Z</time>
      </trkpt>
      <trkpt lat="47.3392" lon="-1.89202">
        <ele>60</ele>
        <time>2015-12-05T14:11:18Z</time>
      </trkpt>
      <trkpt lat="47.3392" lon="-1.89207">
        <ele>60</ele>
        <time>2015-12-05T14:11:19Z</time>
      </trkpt>
      <trkpt lat="47.33918" lon="-1.89211">
        <ele>60</ele>
        <time>2015-12-05T14:11:20Z</time>
      </trkpt>
      <trkpt lat="47.33917" lon="-1.89215">
        <ele>60</ele>
        <time>2015-12-05T14:11:21Z</time>
      </trkpt>
      <trkpt lat="47.33916" lon="-1.89219">
        <ele>59</ele>
        <time>2015-12-05T14:11:22Z</time>
      </trkpt>
      <trkpt lat="47.33915" lon="-1.89223">
        <ele>59</ele>
        <time>2015-12-05T14:11:23Z</time>
      </trkpt>
      <trkpt lat="47.33913" lon="-1.8923">
        <ele>59</ele>
        <time>2015-12-05T14:11:25Z</time>
      </trkpt>
      <trkpt lat="47.33912" lon="-1.89234">
        <ele>59</ele>
        <time>2015-12-05T14:11:26Z</time>
      </trkpt>
      <trkpt lat="47.33911" lon="-1.89238">
        <ele>59</ele>
        <time>2015-12-05T14:11:27Z</time>
      </trkpt>
      <trkpt lat="47.33911" lon="-1.89243">
        <ele>58</ele>
        <time>2015-12-05T14:11:29Z</time>
      </trkpt>
      <trkpt lat="47.33908" lon="-1.89249">
        <ele>58</ele>
        <time>2015-12-05T14:11:30Z</time>
      </trkpt>
      <trkpt lat="47.33908" lon="-1.89254">
        <ele>57</ele>
        <time>2015-12-05T14:11:32Z</time>
      </trkpt>
      <trkpt lat="47.33905" lon="-1.89259">
        <ele>57</ele>
        <time>2015-12-05T14:11:33Z</time>
      </trkpt>
      <trkpt lat="47.33906" lon="-1.89263">
        <ele>57</ele>
        <time>2015-12-05T14:11:35Z</time>
      </trkpt>
      <trkpt lat="47.33905" lon="-1.89268">
        <ele>57</ele>
        <time>2015-12-05T14:11:36Z</time>
      </trkpt>
      <trkpt lat="47.33906" lon="-1.89273">
        <ele>56</ele>
        <time>2015-12-05T14:11:38Z</time>
      </trkpt>
      <trkpt lat="47.33904" lon="-1.89279">
        <ele>56</ele>
        <time>2015-12-05T14:11:39Z</time>
      </trkpt>
      <trkpt lat="47.33903" lon="-1.89283">
        <ele>56</ele>
        <time>2015-12-05T14:11:40Z</time>
      </trkpt>
      <trkpt lat="47.33903" lon="-1.89288">
        <ele>56</ele>
        <time>2015-12-05T14:11:42Z</time>
      </trkpt>
      <trkpt lat="47.33902" lon="-1.89294">
        <ele>55</ele>
        <time>2015-12-05T14:11:43Z</time>
      </trkpt>
      <trkpt lat="47.339" lon="-1.89298">
        <ele>55</ele>
        <time>2015-12-05T14:11:44Z</time>
      </trkpt>
      <trkpt lat="47.339" lon="-1.89303">
        <ele>55</ele>
        <time>2015-12-05T14:11:45Z</time>
      </trkpt>
      <trkpt lat="47.33899" lon="-1.89308">
        <ele>55</ele>
        <time>2015-12-05T14:11:46Z</time>
      </trkpt>
      <trkpt lat="47.33899" lon="-1.89312">
        <ele>55</ele>
        <time>2015-12-05T14:11:47Z</time>
      </trkpt>
      <trkpt lat="47.33898" lon="-1.89317">
        <ele>54</ele>
        <time>2015-12-05T14:11:48Z</time>
      </trkpt>
      <trkpt lat="47.33896" lon="-1.89322">
        <ele>54</ele>
        <time>2015-12-05T14:11:49Z</time>
      </trkpt>
      <trkpt lat="47.33894" lon="-1.89326">
        <ele>54</ele>
        <time>2015-12-05T14:11:50Z</time>
      </trkpt>
      <trkpt lat="47.33892" lon="-1.89329">
        <ele>54</ele>
        <time>2015-12-05T14:11:51Z</time>
      </trkpt>
      <trkpt lat="47.3389" lon="-1.89332">
        <ele>54</ele>
        <time>2015-12-05T14:11:52Z</time>
      </trkpt>
      <trkpt lat="47.33888" lon="-1.89335">
        <ele>53</ele>
        <time>2015-12-05T14:11:53Z</time>
      </trkpt>
      <trkpt lat="47.33886" lon="-1.89339">
        <ele>53</ele>
        <time>2015-12-05T14:11:54Z</time>
      </trkpt>
      <trkpt lat="47.33883" lon="-1.89342">
        <ele>53</ele>
        <time>2015-12-05T14:11:56Z</time>
      </trkpt>
      <trkpt lat="47.3388" lon="-1.89343">
        <ele>53</ele>
        <time>2015-12-05T14:11:57Z</time>
      </trkpt>
      <trkpt lat="47.33876" lon="-1.89344">
        <ele>53</ele>
        <time>2015-12-05T14:11:59Z</time>
      </trkpt>
      <trkpt lat="47.33874" lon="-1.8934">
        <ele>53</ele>
        <time>2015-12-05T14:12:01Z</time>
      </trkpt>
      <trkpt lat="47.33872" lon="-1.89336">
        <ele>53</ele>
        <time>2015-12-05T14:12:03Z</time>
      </trkpt>
      <trkpt lat="47.33869" lon="-1.8934">
        <ele>53</ele>
        <time>2015-12-05T14:12:05Z</time>
      </trkpt>
      <trkpt lat="47.33866" lon="-1.89344">
        <ele>53</ele>
        <time>2015-12-05T14:12:07Z</time>
      </trkpt>
      <trkpt lat="47.33866" lon="-1.89348">
        <ele>53</ele>
        <time>2015-12-05T14:12:08Z</time>
      </trkpt>
      <trkpt lat="47.33864" lon="-1.89352">
        <ele>53</ele>
        <time>2015-12-05T14:12:10Z</time>
      </trkpt>
      <trkpt lat="47.3386" lon="-1.89356">
        <ele>53</ele>
        <time>2015-12-05T14:12:12Z</time>
      </trkpt>
      <trkpt lat="47.33858" lon="-1.89358">
        <ele>53</ele>
        <time>2015-12-05T14:12:14Z</time>
      </trkpt>
      <trkpt lat="47.33855" lon="-1.89361">
        <ele>53</ele>
        <time>2015-12-05T14:12:15Z</time>
      </trkpt>
      <trkpt lat="47.33852" lon="-1.89368">
        <ele>53</ele>
        <time>2015-12-05T14:12:17Z</time>
      </trkpt>
      <trkpt lat="47.3385" lon="-1.8937">
        <ele>53</ele>
        <time>2015-12-05T14:12:18Z</time>
      </trkpt>
      <trkpt lat="47.33849" lon="-1.89376">
        <ele>52</ele>
        <time>2015-12-05T14:12:20Z</time>
      </trkpt>
      <trkpt lat="47.33848" lon="-1.89382">
        <ele>52</ele>
        <time>2015-12-05T14:12:22Z</time>
      </trkpt>
      <trkpt lat="47.33848" lon="-1.89386">
        <ele>52</ele>
        <time>2015-12-05T14:12:24Z</time>
      </trkpt>
      <trkpt lat="47.33849" lon="-1.89382">
        <ele>52</ele>
        <time>2015-12-05T14:12:28Z</time>
      </trkpt>
      <trkpt lat="47.33852" lon="-1.89377">
        <ele>52</ele>
        <time>2015-12-05T14:12:30Z</time>
      </trkpt>
      <trkpt lat="47.33856" lon="-1.89375">
        <ele>52</ele>
        <time>2015-12-05T14:12:33Z</time>
      </trkpt>
      <trkpt lat="47.33859" lon="-1.89378">
        <ele>52</ele>
        <time>2015-12-05T14:12:36Z</time>
      </trkpt>
      <trkpt lat="47.33859" lon="-1.89385">
        <ele>52</ele>
        <time>2015-12-05T14:12:39Z</time>
      </trkpt>
      <trkpt lat="47.33859" lon="-1.89393">
        <ele>52</ele>
        <time>2015-12-05T14:12:42Z</time>
      </trkpt>
      <trkpt lat="47.33856" lon="-1.89404">
        <ele>52</ele>
        <time>2015-12-05T14:12:45Z</time>
      </trkpt>
      <trkpt lat="47.33852" lon="-1.89409">
        <ele>51</ele>
        <time>2015-12-05T14:12:47Z</time>
      </trkpt>
      <trkpt lat="47.3385" lon="-1.8941">
        <ele>51</ele>
        <time>2015-12-05T14:12:48Z</time>
      </trkpt>
      <trkpt lat="47.33844" lon="-1.8941">
        <ele>51</ele>
        <time>2015-12-05T14:12:50Z</time>
      </trkpt>
      <trkpt lat="47.33841" lon="-1.8941">
        <ele>51</ele>
        <time>2015-12-05T14:12:51Z</time>
      </trkpt>
      <trkpt lat="47.33839" lon="-1.89408">
        <ele>51</ele>
        <time>2015-12-05T14:12:53Z</time>
      </trkpt>
      <trkpt lat="47.33836" lon="-1.89404">
        <ele>51</ele>
        <time>2015-12-05T14:12:54Z</time>
      </trkpt>
      <trkpt lat="47.33833" lon="-1.89401">
        <ele>51</ele>
        <time>2015-12-05T14:12:55Z</time>
      </trkpt>
      <trkpt lat="47.33832" lon="-1.89397">
        <ele>51</ele>
        <time>2015-12-05T14:12:57Z</time>
      </trkpt>
      <trkpt lat="47.33828" lon="-1.89392">
        <ele>51</ele>
        <time>2015-12-05T14:12:58Z</time>
      </trkpt>
      <trkpt lat="47.33826" lon="-1.89388">
        <ele>51</ele>
        <time>2015-12-05T14:12:59Z</time>
      </trkpt>
      <trkpt lat="47.33824" lon="-1.89384">
        <ele>51</ele>
        <time>2015-12-05T14:13:01Z</time>
      </trkpt>
      <trkpt lat="47.33821" lon="-1.89382">
        <ele>51</ele>
        <time>2015-12-05T14:13:02Z</time>
      </trkpt>
      <trkpt lat="47.33816" lon="-1.89377">
        <ele>51</ele>
        <time>2015-12-05T14:13:04Z</time>
      </trkpt>
      <trkpt lat="47.33814" lon="-1.89376">
        <ele>51</ele>
        <time>2015-12-05T14:13:05Z</time>
      </trkpt>
      <trkpt lat="47.3381" lon="-1.89374">
        <ele>51</ele>
        <time>2015-12-05T14:13:06Z</time>
      </trkpt>
      <trkpt lat="47.33804" lon="-1.8937">
        <ele>51</ele>
        <time>2015-12-05T14:13:08Z</time>
      </trkpt>
      <trkpt lat="47.33801" lon="-1.89369">
        <ele>51</ele>
        <time>2015-12-05T14:13:09Z</time>
      </trkpt>
      <trkpt lat="47.33797" lon="-1.89368">
        <ele>51</ele>
        <time>2015-12-05T14:13:11Z</time>
      </trkpt>
      <trkpt lat="47.33793" lon="-1.89371">
        <ele>51</ele>
        <time>2015-12-05T14:13:12Z</time>
      </trkpt>
      <trkpt lat="47.33791" lon="-1.89375">
        <ele>50</ele>
        <time>2015-12-05T14:13:14Z</time>
      </trkpt>
      <trkpt lat="47.33791" lon="-1.89379">
        <ele>50</ele>
        <time>2015-12-05T14:13:18Z</time>
      </trkpt>
      <trkpt lat="47.33794" lon="-1.89382">
        <ele>50</ele>
        <time>2015-12-05T14:13:21Z</time>
      </trkpt>
      <trkpt lat="47.33797" lon="-1.89385">
        <ele>50</ele>
        <time>2015-12-05T14:13:23Z</time>
      </trkpt>
      <trkpt lat="47.338" lon="-1.8939">
        <ele>50</ele>
        <time>2015-12-05T14:13:25Z</time>
      </trkpt>
      <trkpt lat="47.33804" lon="-1.89397">
        <ele>50</ele>
        <time>2015-12-05T14:13:27Z</time>
      </trkpt>
      <trkpt lat="47.33806" lon="-1.894">
        <ele>50</ele>
        <time>2015-12-05T14:13:28Z</time>
      </trkpt>
      <trkpt lat="47.33808" lon="-1.89404">
        <ele>50</ele>
        <time>2015-12-05T14:13:30Z</time>
      </trkpt>
      <trkpt lat="47.33806" lon="-1.89408">
        <ele>50</ele>
        <time>2015-12-05T14:13:31Z</time>
      </trkpt>
      <trkpt lat="47.33803" lon="-1.8941">
        <ele>50</ele>
        <time>2015-12-05T14:13:33Z</time>
      </trkpt>
      <trkpt lat="47.33799" lon="-1.89411">
        <ele>50</ele>
        <time>2015-12-05T14:13:35Z</time>
      </trkpt>
      <trkpt lat="47.33796" lon="-1.89411">
        <ele>50</ele>
        <time>2015-12-05T14:13:37Z</time>
      </trkpt>
      <trkpt lat="47.33792" lon="-1.89409">
        <ele>50</ele>
        <time>2015-12-05T14:13:40Z</time>
      </trkpt>
      <trkpt lat="47.33789" lon="-1.89408">
        <ele>50</ele>
        <time>2015-12-05T14:13:43Z</time>
      </trkpt>
      <trkpt lat="47.33785" lon="-1.89405">
        <ele>49</ele>
        <time>2015-12-05T14:13:45Z</time>
      </trkpt>
      <trkpt lat="47.33782" lon="-1.894">
        <ele>49</ele>
        <time>2015-12-05T14:13:48Z</time>
      </trkpt>
      <trkpt lat="47.33782" lon="-1.89395">
        <ele>50</ele>
        <time>2015-12-05T14:13:50Z</time>
      </trkpt>
      <trkpt lat="47.33782" lon="-1.8939">
        <ele>50</ele>
        <time>2015-12-05T14:13:52Z</time>
      </trkpt>
      <trkpt lat="47.3378" lon="-1.89386">
        <ele>50</ele>
        <time>2015-12-05T14:13:53Z</time>
      </trkpt>
      <trkpt lat="47.3378" lon="-1.89382">
        <ele>50</ele>
        <time>2015-12-05T14:13:55Z</time>
      </trkpt>
      <trkpt lat="47.33775" lon="-1.89381">
        <ele>50</ele>
        <time>2015-12-05T14:13:56Z</time>
      </trkpt>
      <trkpt lat="47.33771" lon="-1.8938">
        <ele>50</ele>
        <time>2015-12-05T14:13:57Z</time>
      </trkpt>
      <trkpt lat="47.33766" lon="-1.89376">
        <ele>50</ele>
        <time>2015-12-05T14:13:59Z</time>
      </trkpt>
      <trkpt lat="47.33764" lon="-1.89372">
        <ele>50</ele>
        <time>2015-12-05T14:14:00Z</time>
      </trkpt>
      <trkpt lat="47.33762" lon="-1.89369">
        <ele>50</ele>
        <time>2015-12-05T14:14:01Z</time>
      </trkpt>
      <trkpt lat="47.33759" lon="-1.89365">
        <ele>50</ele>
        <time>2015-12-05T14:14:03Z</time>
      </trkpt>
      <trkpt lat="47.33759" lon="-1.8936">
        <ele>50</ele>
        <time>2015-12-05T14:14:04Z</time>
      </trkpt>
      <trkpt lat="47.33761" lon="-1.89356">
        <ele>50</ele>
        <time>2015-12-05T14:14:06Z</time>
      </trkpt>
      <trkpt lat="47.33764" lon="-1.89353">
        <ele>50</ele>
        <time>2015-12-05T14:14:08Z</time>
      </trkpt>
      <trkpt lat="47.33767" lon="-1.89351">
        <ele>50</ele>
        <time>2015-12-05T14:14:10Z</time>
      </trkpt>
      <trkpt lat="47.33769" lon="-1.89346">
        <ele>50</ele>
        <time>2015-12-05T14:14:12Z</time>
      </trkpt>
      <trkpt lat="47.33768" lon="-1.89339">
        <ele>50</ele>
        <time>2015-12-05T14:14:14Z</time>
      </trkpt>
      <trkpt lat="47.33767" lon="-1.89334">
        <ele>50</ele>
        <time>2015-12-05T14:14:16Z</time>
      </trkpt>
      <trkpt lat="47.33769" lon="-1.8933">
        <ele>52</ele>
        <time>2015-12-05T14:14:17Z</time>
      </trkpt>
      <trkpt lat="47.33772" lon="-1.89325">
        <ele>53</ele>
        <time>2015-12-05T14:14:19Z</time>
      </trkpt>
      <trkpt lat="47.33775" lon="-1.89323">
        <ele>53</ele>
        <time>2015-12-05T14:14:21Z</time>
      </trkpt>
      <trkpt lat="47.33777" lon="-1.8932">
        <ele>53</ele>
        <time>2015-12-05T14:14:23Z</time>
      </trkpt>
      <trkpt lat="47.3378" lon="-1.89318">
        <ele>53</ele>
        <time>2015-12-05T14:14:25Z</time>
      </trkpt>
      <trkpt lat="47.33783" lon="-1.89316">
        <ele>53</ele>
        <time>2015-12-05T14:14:27Z</time>
      </trkpt>
      <trkpt lat="47.33786" lon="-1.89319">
        <ele>53</ele>
        <time>2015-12-05T14:14:36Z</time>
      </trkpt>
      <trkpt lat="47.3379" lon="-1.89317">
        <ele>54</ele>
        <time>2015-12-05T14:18:32Z</time>
      </trkpt>
      <trkpt lat="47.33789" lon="-1.89309">
        <ele>54</ele>
        <time>2015-12-05T14:18:37Z</time>
      </trkpt>
      <trkpt lat="47.33789" lon="-1.89305">
        <ele>54</ele>
        <time>2015-12-05T14:18:40Z</time>
      </trkpt>
      <trkpt lat="47.33789" lon="-1.89298">
        <ele>54</ele>
        <time>2015-12-05T14:18:41Z</time>
      </trkpt>
      <trkpt lat="47.33791" lon="-1.89289">
        <ele>54</ele>
        <time>2015-12-05T14:18:44Z</time>
      </trkpt>
      <trkpt lat="47.33793" lon="-1.89285">
        <ele>54</ele>
        <time>2015-12-05T14:18:45Z</time>
      </trkpt>
      <trkpt lat="47.33796" lon="-1.89282">
        <ele>54</ele>
        <time>2015-12-05T14:18:46Z</time>
      </trkpt>
      <trkpt lat="47.33799" lon="-1.89279">
        <ele>54</ele>
        <time>2015-12-05T14:18:47Z</time>
      </trkpt>
      <trkpt lat="47.33802" lon="-1.89276">
        <ele>55</ele>
        <time>2015-12-05T14:18:49Z</time>
      </trkpt>
      <trkpt lat="47.33808" lon="-1.89272">
        <ele>55</ele>
        <time>2015-12-05T14:18:51Z</time>
      </trkpt>
      <trkpt lat="47.3381" lon="-1.8927">
        <ele>55</ele>
        <time>2015-12-05T14:18:52Z</time>
      </trkpt>
      <trkpt lat="47.33813" lon="-1.89268">
        <ele>55</ele>
        <time>2015-12-05T14:18:54Z</time>
      </trkpt>
      <trkpt lat="47.33817" lon="-1.89266">
        <ele>55</ele>
        <time>2015-12-05T14:18:55Z</time>
      </trkpt>
      <trkpt lat="47.33821" lon="-1.89264">
        <ele>55</ele>
        <time>2015-12-05T14:18:57Z</time>
      </trkpt>
      <trkpt lat="47.33825" lon="-1.8926">
        <ele>56</ele>
        <time>2015-12-05T14:18:59Z</time>
      </trkpt>
      <trkpt lat="47.33829" lon="-1.89258">
        <ele>56</ele>
        <time>2015-12-05T14:19:01Z</time>
      </trkpt>
      <trkpt lat="47.33833" lon="-1.89254">
        <ele>57</ele>
        <time>2015-12-05T14:19:03Z</time>
      </trkpt>
      <trkpt lat="47.33836" lon="-1.8925">
        <ele>57</ele>
        <time>2015-12-05T14:19:05Z</time>
      </trkpt>
      <trkpt lat="47.3384" lon="-1.89247">
        <ele>58</ele>
        <time>2015-12-05T14:19:07Z</time>
      </trkpt>
      <trkpt lat="47.33843" lon="-1.89246">
        <ele>58</ele>
        <time>2015-12-05T14:19:09Z</time>
      </trkpt>
      <trkpt lat="47.33846" lon="-1.89244">
        <ele>58</ele>
        <time>2015-12-05T14:19:11Z</time>
      </trkpt>
      <trkpt lat="47.33845" lon="-1.89239">
        <ele>58</ele>
        <time>2015-12-05T14:19:13Z</time>
      </trkpt>
      <trkpt lat="47.33846" lon="-1.89232">
        <ele>58</ele>
        <time>2015-12-05T14:19:15Z</time>
      </trkpt>
      <trkpt lat="47.33848" lon="-1.89226">
        <ele>59</ele>
        <time>2015-12-05T14:19:17Z</time>
      </trkpt>
      <trkpt lat="47.33849" lon="-1.89222">
        <ele>59</ele>
        <time>2015-12-05T14:19:19Z</time>
      </trkpt>
      <trkpt lat="47.3385" lon="-1.89215">
        <ele>59</ele>
        <time>2015-12-05T14:19:20Z</time>
      </trkpt>
      <trkpt lat="47.33854" lon="-1.89209">
        <ele>59</ele>
        <time>2015-12-05T14:19:22Z</time>
      </trkpt>
      <trkpt lat="47.33854" lon="-1.89203">
        <ele>59</ele>
        <time>2015-12-05T14:19:24Z</time>
      </trkpt>
      <trkpt lat="47.33854" lon="-1.89197">
        <ele>60</ele>
        <time>2015-12-05T14:19:26Z</time>
      </trkpt>
      <trkpt lat="47.33854" lon="-1.89193">
        <ele>60</ele>
        <time>2015-12-05T14:19:27Z</time>
      </trkpt>
      <trkpt lat="47.33855" lon="-1.89188">
        <ele>60</ele>
        <time>2015-12-05T14:19:28Z</time>
      </trkpt>
      <trkpt lat="47.33856" lon="-1.89184">
        <ele>60</ele>
        <time>2015-12-05T14:19:29Z</time>
      </trkpt>
      <trkpt lat="47.33858" lon="-1.89179">
        <ele>60</ele>
        <time>2015-12-05T14:19:30Z</time>
      </trkpt>
      <trkpt lat="47.3386" lon="-1.89174">
        <ele>60</ele>
        <time>2015-12-05T14:19:31Z</time>
      </trkpt>
      <trkpt lat="47.33861" lon="-1.89168">
        <ele>60</ele>
        <time>2015-12-05T14:19:32Z</time>
      </trkpt>
      <trkpt lat="47.33862" lon="-1.89162">
        <ele>60</ele>
        <time>2015-12-05T14:19:33Z</time>
      </trkpt>
      <trkpt lat="47.33862" lon="-1.89156">
        <ele>60</ele>
        <time>2015-12-05T14:19:34Z</time>
      </trkpt>
      <trkpt lat="47.33862" lon="-1.89151">
        <ele>60</ele>
        <time>2015-12-05T14:19:35Z</time>
      </trkpt>
      <trkpt lat="47.33862" lon="-1.89139">
        <ele>60</ele>
        <time>2015-12-05T14:19:37Z</time>
      </trkpt>
      <trkpt lat="47.33862" lon="-1.89132">
        <ele>60</ele>
        <time>2015-12-05T14:19:39Z</time>
      </trkpt>
      <trkpt lat="47.33863" lon="-1.89122">
        <ele>60</ele>
        <time>2015-12-05T14:19:40Z</time>
      </trkpt>
      <trkpt lat="47.33863" lon="-1.89118">
        <ele>60</ele>
        <time>2015-12-05T14:19:41Z</time>
      </trkpt>
      <trkpt lat="47.33864" lon="-1.89107">
        <ele>60</ele>
        <time>2015-12-05T14:19:43Z</time>
      </trkpt>
      <trkpt lat="47.33865" lon="-1.89102">
        <ele>60</ele>
        <time>2015-12-05T14:19:44Z</time>
      </trkpt>
      <trkpt lat="47.33863" lon="-1.89088">
        <ele>60</ele>
        <time>2015-12-05T14:19:46Z</time>
      </trkpt>
      <trkpt lat="47.33858" lon="-1.89082">
        <ele>59</ele>
        <time>2015-12-05T14:19:47Z</time>
      </trkpt>
      <trkpt lat="47.33854" lon="-1.89081">
        <ele>59</ele>
        <time>2015-12-05T14:19:48Z</time>
      </trkpt>
      <trkpt lat="47.33849" lon="-1.89083">
        <ele>59</ele>
        <time>2015-12-05T14:19:50Z</time>
      </trkpt>
      <trkpt lat="47.33845" lon="-1.89084">
        <ele>60</ele>
        <time>2015-12-05T14:19:51Z</time>
      </trkpt>
      <trkpt lat="47.33841" lon="-1.89087">
        <ele>60</ele>
        <time>2015-12-05T14:19:53Z</time>
      </trkpt>
      <trkpt lat="47.33836" lon="-1.89087">
        <ele>60</ele>
        <time>2015-12-05T14:19:54Z</time>
      </trkpt>
      <trkpt lat="47.33831" lon="-1.89089">
        <ele>59</ele>
        <time>2015-12-05T14:19:56Z</time>
      </trkpt>
      <trkpt lat="47.33801" lon="-1.89097">
        <ele>58</ele>
        <time>2015-12-05T14:19:58Z</time>
      </trkpt>
      <trkpt lat="47.33794" lon="-1.89099">
        <ele>57</ele>
        <time>2015-12-05T14:19:59Z</time>
      </trkpt>
      <trkpt lat="47.33788" lon="-1.891">
        <ele>57</ele>
        <time>2015-12-05T14:20:00Z</time>
      </trkpt>
      <trkpt lat="47.3378" lon="-1.89099">
        <ele>57</ele>
        <time>2015-12-05T14:20:01Z</time>
      </trkpt>
      <trkpt lat="47.33774" lon="-1.891">
        <ele>56</ele>
        <time>2015-12-05T14:20:02Z</time>
      </trkpt>
      <trkpt lat="47.33767" lon="-1.891">
        <ele>56</ele>
        <time>2015-12-05T14:20:03Z</time>
      </trkpt>
      <trkpt lat="47.33758" lon="-1.89102">
        <ele>56</ele>
        <time>2015-12-05T14:20:04Z</time>
      </trkpt>
      <trkpt lat="47.33751" lon="-1.89103">
        <ele>56</ele>
        <time>2015-12-05T14:20:05Z</time>
      </trkpt>
      <trkpt lat="47.33745" lon="-1.89104">
        <ele>54</ele>
        <time>2015-12-05T14:20:06Z</time>
      </trkpt>
      <trkpt lat="47.33737" lon="-1.89105">
        <ele>54</ele>
        <time>2015-12-05T14:20:07Z</time>
      </trkpt>
      <trkpt lat="47.3373" lon="-1.89107">
        <ele>54</ele>
        <time>2015-12-05T14:20:08Z</time>
      </trkpt>
      <trkpt lat="47.33723" lon="-1.89108">
        <ele>54</ele>
        <time>2015-12-05T14:20:09Z</time>
      </trkpt>
      <trkpt lat="47.33715" lon="-1.89112">
        <ele>54</ele>
        <time>2015-12-05T14:20:10Z</time>
      </trkpt>
      <trkpt lat="47.33708" lon="-1.89113">
        <ele>54</ele>
        <time>2015-12-05T14:20:11Z</time>
      </trkpt>
      <trkpt lat="47.337" lon="-1.89116">
        <ele>54</ele>
        <time>2015-12-05T14:20:12Z</time>
      </trkpt>
      <trkpt lat="47.33696" lon="-1.89118">
        <ele>54</ele>
        <time>2015-12-05T14:20:13Z</time>
      </trkpt>
      <trkpt lat="47.33692" lon="-1.89121">
        <ele>54</ele>
        <time>2015-12-05T14:20:14Z</time>
      </trkpt>
      <trkpt lat="47.33688" lon="-1.89124">
        <ele>54</ele>
        <time>2015-12-05T14:20:15Z</time>
      </trkpt>
      <trkpt lat="47.33676" lon="-1.89133">
        <ele>55</ele>
        <time>2015-12-05T14:20:16Z</time>
      </trkpt>
      <trkpt lat="47.33669" lon="-1.89136">
        <ele>55</ele>
        <time>2015-12-05T14:20:17Z</time>
      </trkpt>
      <trkpt lat="47.33663" lon="-1.89139">
        <ele>53</ele>
        <time>2015-12-05T14:20:18Z</time>
      </trkpt>
      <trkpt lat="47.33658" lon="-1.89143">
        <ele>53</ele>
        <time>2015-12-05T14:20:19Z</time>
      </trkpt>
      <trkpt lat="47.33652" lon="-1.89142">
        <ele>53</ele>
        <time>2015-12-05T14:20:20Z</time>
      </trkpt>
      <trkpt lat="47.33647" lon="-1.89147">
        <ele>53</ele>
        <time>2015-12-05T14:20:21Z</time>
      </trkpt>
      <trkpt lat="47.33642" lon="-1.89148">
        <ele>53</ele>
        <time>2015-12-05T14:20:22Z</time>
      </trkpt>
      <trkpt lat="47.33638" lon="-1.89151">
        <ele>52</ele>
        <time>2015-12-05T14:20:23Z</time>
      </trkpt>
      <trkpt lat="47.33634" lon="-1.89154">
        <ele>52</ele>
        <time>2015-12-05T14:20:24Z</time>
      </trkpt>
      <trkpt lat="47.3363" lon="-1.89156">
        <ele>52</ele>
        <time>2015-12-05T14:20:25Z</time>
      </trkpt>
      <trkpt lat="47.33626" lon="-1.89144">
        <ele>52</ele>
        <time>2015-12-05T14:20:26Z</time>
      </trkpt>
      <trkpt lat="47.33624" lon="-1.89139">
        <ele>52</ele>
        <time>2015-12-05T14:20:27Z</time>
      </trkpt>
      <trkpt lat="47.33621" lon="-1.89135">
        <ele>52</ele>
        <time>2015-12-05T14:20:28Z</time>
      </trkpt>
      <trkpt lat="47.33616" lon="-1.89138">
        <ele>52</ele>
        <time>2015-12-05T14:20:29Z</time>
      </trkpt>
      <trkpt lat="47.33613" lon="-1.89132">
        <ele>52</ele>
        <time>2015-12-05T14:20:31Z</time>
      </trkpt>
      <trkpt lat="47.33611" lon="-1.89128">
        <ele>52</ele>
        <time>2015-12-05T14:20:32Z</time>
      </trkpt>
      <trkpt lat="47.33607" lon="-1.89117">
        <ele>52</ele>
        <time>2015-12-05T14:20:34Z</time>
      </trkpt>
      <trkpt lat="47.33605" lon="-1.8911">
        <ele>52</ele>
        <time>2015-12-05T14:20:36Z</time>
      </trkpt>
      <trkpt lat="47.33606" lon="-1.89105">
        <ele>52</ele>
        <time>2015-12-05T14:20:39Z</time>
      </trkpt>
      <trkpt lat="47.33609" lon="-1.891">
        <ele>52</ele>
        <time>2015-12-05T14:20:41Z</time>
      </trkpt>
      <trkpt lat="47.33606" lon="-1.89086">
        <ele>52</ele>
        <time>2015-12-05T14:20:43Z</time>
      </trkpt>
      <trkpt lat="47.33605" lon="-1.89078">
        <ele>53</ele>
        <time>2015-12-05T14:20:45Z</time>
      </trkpt>
      <trkpt lat="47.33603" lon="-1.89074">
        <ele>53</ele>
        <time>2015-12-05T14:20:46Z</time>
      </trkpt>
      <trkpt lat="47.33603" lon="-1.89067">
        <ele>53</ele>
        <time>2015-12-05T14:20:47Z</time>
      </trkpt>
      <trkpt lat="47.33602" lon="-1.89062">
        <ele>53</ele>
        <time>2015-12-05T14:20:48Z</time>
      </trkpt>
      <trkpt lat="47.33602" lon="-1.89058">
        <ele>54</ele>
        <time>2015-12-05T14:20:49Z</time>
      </trkpt>
      <trkpt lat="47.33601" lon="-1.89053">
        <ele>54</ele>
        <time>2015-12-05T14:20:50Z</time>
      </trkpt>
      <trkpt lat="47.33599" lon="-1.89047">
        <ele>54</ele>
        <time>2015-12-05T14:20:51Z</time>
      </trkpt>
      <trkpt lat="47.33599" lon="-1.89042">
        <ele>54</ele>
        <time>2015-12-05T14:20:52Z</time>
      </trkpt>
      <trkpt lat="47.33598" lon="-1.89037">
        <ele>54</ele>
        <time>2015-12-05T14:20:53Z</time>
      </trkpt>
      <trkpt lat="47.33597" lon="-1.89033">
        <ele>55</ele>
        <time>2015-12-05T14:20:54Z</time>
      </trkpt>
      <trkpt lat="47.33597" lon="-1.89027">
        <ele>55</ele>
        <time>2015-12-05T14:20:56Z</time>
      </trkpt>
      <trkpt lat="47.33597" lon="-1.8902">
        <ele>55</ele>
        <time>2015-12-05T14:20:58Z</time>
      </trkpt>
      <trkpt lat="47.33596" lon="-1.89016">
        <ele>55</ele>
        <time>2015-12-05T14:20:59Z</time>
      </trkpt>
      <trkpt lat="47.33595" lon="-1.89012">
        <ele>55</ele>
        <time>2015-12-05T14:21:00Z</time>
      </trkpt>
      <trkpt lat="47.33595" lon="-1.89007">
        <ele>55</ele>
        <time>2015-12-05T14:21:01Z</time>
      </trkpt>
      <trkpt lat="47.33594" lon="-1.89003">
        <ele>55</ele>
        <time>2015-12-05T14:21:03Z</time>
      </trkpt>
      <trkpt lat="47.33591" lon="-1.88999">
        <ele>56</ele>
        <time>2015-12-05T14:21:06Z</time>
      </trkpt>
      <trkpt lat="47.33587" lon="-1.88997">
        <ele>56</ele>
        <time>2015-12-05T14:21:08Z</time>
      </trkpt>
      <trkpt lat="47.33583" lon="-1.88996">
        <ele>55</ele>
        <time>2015-12-05T14:21:10Z</time>
      </trkpt>
      <trkpt lat="47.33579" lon="-1.88993">
        <ele>54</ele>
        <time>2015-12-05T14:21:12Z</time>
      </trkpt>
      <trkpt lat="47.33575" lon="-1.88992">
        <ele>54</ele>
        <time>2015-12-05T14:21:14Z</time>
      </trkpt>
      <trkpt lat="47.33572" lon="-1.88994">
        <ele>53</ele>
        <time>2015-12-05T14:21:16Z</time>
      </trkpt>
      <trkpt lat="47.33569" lon="-1.88997">
        <ele>53</ele>
        <time>2015-12-05T14:21:18Z</time>
      </trkpt>
      <trkpt lat="47.33564" lon="-1.88999">
        <ele>53</ele>
        <time>2015-12-05T14:21:20Z</time>
      </trkpt>
      <trkpt lat="47.33556" lon="-1.89">
        <ele>51</ele>
        <time>2015-12-05T14:21:22Z</time>
      </trkpt>
      <trkpt lat="47.33553" lon="-1.89001">
        <ele>51</ele>
        <time>2015-12-05T14:21:23Z</time>
      </trkpt>
      <trkpt lat="47.3355" lon="-1.89002">
        <ele>51</ele>
        <time>2015-12-05T14:21:24Z</time>
      </trkpt>
      <trkpt lat="47.33547" lon="-1.89003">
        <ele>50</ele>
        <time>2015-12-05T14:21:25Z</time>
      </trkpt>
      <trkpt lat="47.33544" lon="-1.89003">
        <ele>50</ele>
        <time>2015-12-05T14:21:26Z</time>
      </trkpt>
      <trkpt lat="47.3354" lon="-1.89004">
        <ele>50</ele>
        <time>2015-12-05T14:21:28Z</time>
      </trkpt>
      <trkpt lat="47.33537" lon="-1.89003">
        <ele>49</ele>
        <time>2015-12-05T14:21:29Z</time>
      </trkpt>
      <trkpt lat="47.33533" lon="-1.89002">
        <ele>49</ele>
        <time>2015-12-05T14:21:30Z</time>
      </trkpt>
      <trkpt lat="47.33529" lon="-1.89002">
        <ele>48</ele>
        <time>2015-12-05T14:21:31Z</time>
      </trkpt>
      <trkpt lat="47.33525" lon="-1.89001">
        <ele>48</ele>
        <time>2015-12-05T14:21:32Z</time>
      </trkpt>
      <trkpt lat="47.33521" lon="-1.89001">
        <ele>48</ele>
        <time>2015-12-05T14:21:33Z</time>
      </trkpt>
      <trkpt lat="47.33517" lon="-1.89001">
        <ele>47</ele>
        <time>2015-12-05T14:21:35Z</time>
      </trkpt>
      <trkpt lat="47.33512" lon="-1.89001">
        <ele>47</ele>
        <time>2015-12-05T14:21:36Z</time>
      </trkpt>
      <trkpt lat="47.33509" lon="-1.89003">
        <ele>46</ele>
        <time>2015-12-05T14:21:37Z</time>
      </trkpt>
      <trkpt lat="47.33506" lon="-1.89007">
        <ele>46</ele>
        <time>2015-12-05T14:21:39Z</time>
      </trkpt>
      <trkpt lat="47.33507" lon="-1.89013">
        <ele>47</ele>
        <time>2015-12-05T14:21:41Z</time>
      </trkpt>
      <trkpt lat="47.3351" lon="-1.89012">
        <ele>47</ele>
        <time>2015-12-05T14:21:43Z</time>
      </trkpt>
      <trkpt lat="47.33513" lon="-1.89013">
        <ele>47</ele>
        <time>2015-12-05T14:21:45Z</time>
      </trkpt>
      <trkpt lat="47.33516" lon="-1.89014">
        <ele>48</ele>
        <time>2015-12-05T14:21:50Z</time>
      </trkpt>
      <trkpt lat="47.3352" lon="-1.89015">
        <ele>48</ele>
        <time>2015-12-05T14:21:54Z</time>
      </trkpt>
      <trkpt lat="47.33522" lon="-1.89016">
        <ele>48</ele>
        <time>2015-12-05T14:21:57Z</time>
      </trkpt>
      <trkpt lat="47.33526" lon="-1.89017">
        <ele>48</ele>
        <time>2015-12-05T14:22:00Z</time>
      </trkpt>
      <trkpt lat="47.33529" lon="-1.89016">
        <ele>49</ele>
        <time>2015-12-05T14:22:02Z</time>
      </trkpt>
      <trkpt lat="47.33533" lon="-1.89015">
        <ele>49</ele>
        <time>2015-12-05T14:22:04Z</time>
      </trkpt>
      <trkpt lat="47.33537" lon="-1.89013">
        <ele>49</ele>
        <time>2015-12-05T14:22:06Z</time>
      </trkpt>
      <trkpt lat="47.33539" lon="-1.89011">
        <ele>49</ele>
        <time>2015-12-05T14:22:08Z</time>
      </trkpt>
      <trkpt lat="47.33542" lon="-1.8901">
        <ele>50</ele>
        <time>2015-12-05T14:22:10Z</time>
      </trkpt>
      <trkpt lat="47.33547" lon="-1.89009">
        <ele>50</ele>
        <time>2015-12-05T14:22:12Z</time>
      </trkpt>
      <trkpt lat="47.33549" lon="-1.89008">
        <ele>50</ele>
        <time>2015-12-05T14:22:14Z</time>
      </trkpt>
      <trkpt lat="47.33553" lon="-1.89007">
        <ele>51</ele>
        <time>2015-12-05T14:22:16Z</time>
      </trkpt>
      <trkpt lat="47.33557" lon="-1.8901">
        <ele>51</ele>
        <time>2015-12-05T14:22:18Z</time>
      </trkpt>
      <trkpt lat="47.3356" lon="-1.89012">
        <ele>51</ele>
        <time>2015-12-05T14:22:20Z</time>
      </trkpt>
      <trkpt lat="47.33564" lon="-1.89012">
        <ele>52</ele>
        <time>2015-12-05T14:22:23Z</time>
      </trkpt>
      <trkpt lat="47.33567" lon="-1.89009">
        <ele>52</ele>
        <time>2015-12-05T14:22:25Z</time>
      </trkpt>
      <trkpt lat="47.33571" lon="-1.89007">
        <ele>53</ele>
        <time>2015-12-05T14:22:27Z</time>
      </trkpt>
      <trkpt lat="47.33568" lon="-1.8901">
        <ele>52</ele>
        <time>2015-12-05T14:22:39Z</time>
      </trkpt>
      <trkpt lat="47.33565" lon="-1.89012">
        <ele>52</ele>
        <time>2015-12-05T14:22:42Z</time>
      </trkpt>
      <trkpt lat="47.33562" lon="-1.89016">
        <ele>51</ele>
        <time>2015-12-05T14:22:45Z</time>
      </trkpt>
      <trkpt lat="47.3356" lon="-1.89021">
        <ele>51</ele>
        <time>2015-12-05T14:22:48Z</time>
      </trkpt>
      <trkpt lat="47.3356" lon="-1.89026">
        <ele>51</ele>
        <time>2015-12-05T14:22:50Z</time>
      </trkpt>
      <trkpt lat="47.33558" lon="-1.8903">
        <ele>50</ele>
        <time>2015-12-05T14:22:52Z</time>
      </trkpt>
      <trkpt lat="47.33559" lon="-1.89035">
        <ele>50</ele>
        <time>2015-12-05T14:22:54Z</time>
      </trkpt>
      <trkpt lat="47.33562" lon="-1.89039">
        <ele>50</ele>
        <time>2015-12-05T14:22:56Z</time>
      </trkpt>
      <trkpt lat="47.3356" lon="-1.89045">
        <ele>50</ele>
        <time>2015-12-05T14:22:58Z</time>
      </trkpt>
      <trkpt lat="47.33557" lon="-1.89045">
        <ele>50</ele>
        <time>2015-12-05T14:23:01Z</time>
      </trkpt>
      <trkpt lat="47.33554" lon="-1.89043">
        <ele>50</ele>
        <time>2015-12-05T14:23:04Z</time>
      </trkpt>
      <trkpt lat="47.33553" lon="-1.89039">
        <ele>50</ele>
        <time>2015-12-05T14:23:07Z</time>
      </trkpt>
      <trkpt lat="47.33551" lon="-1.89036">
        <ele>50</ele>
        <time>2015-12-05T14:23:10Z</time>
      </trkpt>
      <trkpt lat="47.33549" lon="-1.89039">
        <ele>50</ele>
        <time>2015-12-05T14:23:15Z</time>
      </trkpt>
      <trkpt lat="47.33546" lon="-1.89047">
        <ele>49</ele>
        <time>2015-12-05T14:23:17Z</time>
      </trkpt>
      <trkpt lat="47.33545" lon="-1.89052">
        <ele>49</ele>
        <time>2015-12-05T14:23:18Z</time>
      </trkpt>
      <trkpt lat="47.33545" lon="-1.89058">
        <ele>49</ele>
        <time>2015-12-05T14:23:19Z</time>
      </trkpt>
      <trkpt lat="47.33546" lon="-1.89064">
        <ele>49</ele>
        <time>2015-12-05T14:23:20Z</time>
      </trkpt>
      <trkpt lat="47.33547" lon="-1.89068">
        <ele>49</ele>
        <time>2015-12-05T14:23:21Z</time>
      </trkpt>
      <trkpt lat="47.33546" lon="-1.89072">
        <ele>49</ele>
        <time>2015-12-05T14:23:22Z</time>
      </trkpt>
      <trkpt lat="47.33542" lon="-1.89072">
        <ele>49</ele>
        <time>2015-12-05T14:23:23Z</time>
      </trkpt>
      <trkpt lat="47.3354" lon="-1.89071">
        <ele>49</ele>
        <time>2015-12-05T14:23:24Z</time>
      </trkpt>
      <trkpt lat="47.33535" lon="-1.89068">
        <ele>49</ele>
        <time>2015-12-05T14:23:26Z</time>
      </trkpt>
      <trkpt lat="47.33532" lon="-1.89064">
        <ele>48</ele>
        <time>2015-12-05T14:23:28Z</time>
      </trkpt>
      <trkpt lat="47.33529" lon="-1.8906">
        <ele>48</ele>
        <time>2015-12-05T14:23:30Z</time>
      </trkpt>
      <trkpt lat="47.33527" lon="-1.89057">
        <ele>48</ele>
        <time>2015-12-05T14:23:33Z</time>
      </trkpt>
      <trkpt lat="47.33527" lon="-1.89061">
        <ele>48</ele>
        <time>2015-12-05T14:23:46Z</time>
      </trkpt>
      <trkpt lat="47.33527" lon="-1.89066">
        <ele>48</ele>
        <time>2015-12-05T14:23:49Z</time>
      </trkpt>
      <trkpt lat="47.33528" lon="-1.89069">
        <ele>48</ele>
        <time>2015-12-05T14:23:51Z</time>
      </trkpt>
      <trkpt lat="47.3353" lon="-1.89075">
        <ele>48</ele>
        <time>2015-12-05T14:23:54Z</time>
      </trkpt>
      <trkpt lat="47.33531" lon="-1.89081">
        <ele>48</ele>
        <time>2015-12-05T14:23:56Z</time>
      </trkpt>
      <trkpt lat="47.33533" lon="-1.89085">
        <ele>46</ele>
        <time>2015-12-05T14:23:58Z</time>
      </trkpt>
      <trkpt lat="47.33535" lon="-1.8909">
        <ele>46</ele>
        <time>2015-12-05T14:24:00Z</time>
      </trkpt>
      <trkpt lat="47.33536" lon="-1.89093">
        <ele>46</ele>
        <time>2015-12-05T14:24:02Z</time>
      </trkpt>
      <trkpt lat="47.33539" lon="-1.89096">
        <ele>46</ele>
        <time>2015-12-05T14:24:04Z</time>
      </trkpt>
      <trkpt lat="47.33542" lon="-1.891">
        <ele>47</ele>
        <time>2015-12-05T14:24:06Z</time>
      </trkpt>
      <trkpt lat="47.33545" lon="-1.891">
        <ele>47</ele>
        <time>2015-12-05T14:24:08Z</time>
      </trkpt>
      <trkpt lat="47.33549" lon="-1.89098">
        <ele>47</ele>
        <time>2015-12-05T14:24:10Z</time>
      </trkpt>
      <trkpt lat="47.33552" lon="-1.89094">
        <ele>47</ele>
        <time>2015-12-05T14:24:12Z</time>
      </trkpt>
      <trkpt lat="47.33556" lon="-1.89092">
        <ele>48</ele>
        <time>2015-12-05T14:24:16Z</time>
      </trkpt>
      <trkpt lat="47.3356" lon="-1.89091">
        <ele>48</ele>
        <time>2015-12-05T14:24:19Z</time>
      </trkpt>
      <trkpt lat="47.33564" lon="-1.8909">
        <ele>48</ele>
        <time>2015-12-05T14:24:20Z</time>
      </trkpt>
      <trkpt lat="47.33567" lon="-1.89089">
        <ele>49</ele>
        <time>2015-12-05T14:24:21Z</time>
      </trkpt>
      <trkpt lat="47.3357" lon="-1.89089">
        <ele>49</ele>
        <time>2015-12-05T14:24:23Z</time>
      </trkpt>
      <trkpt lat="47.33573" lon="-1.89089">
        <ele>49</ele>
        <time>2015-12-05T14:24:24Z</time>
      </trkpt>
      <trkpt lat="47.33576" lon="-1.89089">
        <ele>49</ele>
        <time>2015-12-05T14:24:25Z</time>
      </trkpt>
      <trkpt lat="47.33582" lon="-1.89089">
        <ele>50</ele>
        <time>2015-12-05T14:24:27Z</time>
      </trkpt>
      <trkpt lat="47.33586" lon="-1.89087">
        <ele>51</ele>
        <time>2015-12-05T14:24:28Z</time>
      </trkpt>
      <trkpt lat="47.33589" lon="-1.89085">
        <ele>51</ele>
        <time>2015-12-05T14:24:29Z</time>
      </trkpt>
      <trkpt lat="47.33592" lon="-1.89084">
        <ele>51</ele>
        <time>2015-12-05T14:24:30Z</time>
      </trkpt>
      <trkpt lat="47.33595" lon="-1.89083">
        <ele>52</ele>
        <time>2015-12-05T14:24:31Z</time>
      </trkpt>
      <trkpt lat="47.33597" lon="-1.89081">
        <ele>52</ele>
        <time>2015-12-05T14:24:32Z</time>
      </trkpt>
      <trkpt lat="47.33599" lon="-1.89074">
        <ele>53</ele>
        <time>2015-12-05T14:24:34Z</time>
      </trkpt>
      <trkpt lat="47.33598" lon="-1.89068">
        <ele>53</ele>
        <time>2015-12-05T14:24:36Z</time>
      </trkpt>
      <trkpt lat="47.33598" lon="-1.89063">
        <ele>53</ele>
        <time>2015-12-05T14:24:38Z</time>
      </trkpt>
      <trkpt lat="47.33597" lon="-1.89057">
        <ele>54</ele>
        <time>2015-12-05T14:24:40Z</time>
      </trkpt>
      <trkpt lat="47.33596" lon="-1.89052">
        <ele>54</ele>
        <time>2015-12-05T14:24:42Z</time>
      </trkpt>
      <trkpt lat="47.33596" lon="-1.89048">
        <ele>54</ele>
        <time>2015-12-05T14:24:43Z</time>
      </trkpt>
      <trkpt lat="47.33595" lon="-1.89044">
        <ele>54</ele>
        <time>2015-12-05T14:24:44Z</time>
      </trkpt>
      <trkpt lat="47.33594" lon="-1.89039">
        <ele>54</ele>
        <time>2015-12-05T14:24:45Z</time>
      </trkpt>
      <trkpt lat="47.33593" lon="-1.89031">
        <ele>55</ele>
        <time>2015-12-05T14:24:47Z</time>
      </trkpt>
      <trkpt lat="47.33592" lon="-1.89027">
        <ele>55</ele>
        <time>2015-12-05T14:24:48Z</time>
      </trkpt>
      <trkpt lat="47.33592" lon="-1.8902">
        <ele>55</ele>
        <time>2015-12-05T14:24:50Z</time>
      </trkpt>
      <trkpt lat="47.33592" lon="-1.89013">
        <ele>55</ele>
        <time>2015-12-05T14:24:52Z</time>
      </trkpt>
      <trkpt lat="47.33592" lon="-1.89006">
        <ele>55</ele>
        <time>2015-12-05T14:24:54Z</time>
      </trkpt>
      <trkpt lat="47.33593" lon="-1.89">
        <ele>56</ele>
        <time>2015-12-05T14:24:56Z</time>
      </trkpt>
      <trkpt lat="47.33597" lon="-1.88996">
        <ele>56</ele>
        <time>2015-12-05T14:24:59Z</time>
      </trkpt>
      <trkpt lat="47.33601" lon="-1.88993">
        <ele>56</ele>
        <time>2015-12-05T14:25:01Z</time>
      </trkpt>
      <trkpt lat="47.33605" lon="-1.88988">
        <ele>56</ele>
        <time>2015-12-05T14:25:03Z</time>
      </trkpt>
      <trkpt lat="47.33608" lon="-1.88984">
        <ele>56</ele>
        <time>2015-12-05T14:25:04Z</time>
      </trkpt>
      <trkpt lat="47.33611" lon="-1.8898">
        <ele>56</ele>
        <time>2015-12-05T14:25:05Z</time>
      </trkpt>
      <trkpt lat="47.33614" lon="-1.88977">
        <ele>56</ele>
        <time>2015-12-05T14:25:06Z</time>
      </trkpt>
      <trkpt lat="47.33617" lon="-1.88975">
        <ele>56</ele>
        <time>2015-12-05T14:25:07Z</time>
      </trkpt>
      <trkpt lat="47.3362" lon="-1.88972">
        <ele>56</ele>
        <time>2015-12-05T14:25:08Z</time>
      </trkpt>
      <trkpt lat="47.33622" lon="-1.8897">
        <ele>56</ele>
        <time>2015-12-05T14:25:09Z</time>
      </trkpt>
      <trkpt lat="47.33625" lon="-1.88967">
        <ele>57</ele>
        <time>2015-12-05T14:25:10Z</time>
      </trkpt>
      <trkpt lat="47.33628" lon="-1.88965">
        <ele>57</ele>
        <time>2015-12-05T14:25:11Z</time>
      </trkpt>
      <trkpt lat="47.3363" lon="-1.88963">
        <ele>57</ele>
        <time>2015-12-05T14:25:12Z</time>
      </trkpt>
      <trkpt lat="47.33633" lon="-1.88961">
        <ele>57</ele>
        <time>2015-12-05T14:25:13Z</time>
      </trkpt>
      <trkpt lat="47.33636" lon="-1.8896">
        <ele>57</ele>
        <time>2015-12-05T14:25:14Z</time>
      </trkpt>
      <trkpt lat="47.33638" lon="-1.88958">
        <ele>57</ele>
        <time>2015-12-05T14:25:15Z</time>
      </trkpt>
      <trkpt lat="47.33642" lon="-1.88956">
        <ele>57</ele>
        <time>2015-12-05T14:25:16Z</time>
      </trkpt>
      <trkpt lat="47.33644" lon="-1.88954">
        <ele>57</ele>
        <time>2015-12-05T14:25:17Z</time>
      </trkpt>
      <trkpt lat="47.3365" lon="-1.88952">
        <ele>57</ele>
        <time>2015-12-05T14:25:19Z</time>
      </trkpt>
      <trkpt lat="47.33652" lon="-1.88951">
        <ele>57</ele>
        <time>2015-12-05T14:25:20Z</time>
      </trkpt>
      <trkpt lat="47.33658" lon="-1.8895">
        <ele>57</ele>
        <time>2015-12-05T14:25:22Z</time>
      </trkpt>
      <trkpt lat="47.3366" lon="-1.88949">
        <ele>57</ele>
        <time>2015-12-05T14:25:23Z</time>
      </trkpt>
      <trkpt lat="47.33663" lon="-1.88948">
        <ele>57</ele>
        <time>2015-12-05T14:25:24Z</time>
      </trkpt>
      <trkpt lat="47.33666" lon="-1.88946">
        <ele>57</ele>
        <time>2015-12-05T14:25:25Z</time>
      </trkpt>
      <trkpt lat="47.33671" lon="-1.88943">
        <ele>59</ele>
        <time>2015-12-05T14:25:27Z</time>
      </trkpt>
      <trkpt lat="47.33672" lon="-1.88937">
        <ele>59</ele>
        <time>2015-12-05T14:25:28Z</time>
      </trkpt>
      <trkpt lat="47.33673" lon="-1.88932">
        <ele>58</ele>
        <time>2015-12-05T14:25:29Z</time>
      </trkpt>
      <trkpt lat="47.33674" lon="-1.88928">
        <ele>58</ele>
        <time>2015-12-05T14:25:30Z</time>
      </trkpt>
      <trkpt lat="47.33675" lon="-1.88924">
        <ele>58</ele>
        <time>2015-12-05T14:25:31Z</time>
      </trkpt>
      <trkpt lat="47.33673" lon="-1.8892">
        <ele>58</ele>
        <time>2015-12-05T14:25:32Z</time>
      </trkpt>
      <trkpt lat="47.33672" lon="-1.88916">
        <ele>58</ele>
        <time>2015-12-05T14:25:33Z</time>
      </trkpt>
      <trkpt lat="47.33672" lon="-1.88906">
        <ele>59</ele>
        <time>2015-12-05T14:25:35Z</time>
      </trkpt>
      <trkpt lat="47.33673" lon="-1.88901">
        <ele>59</ele>
        <time>2015-12-05T14:25:36Z</time>
      </trkpt>
      <trkpt lat="47.33674" lon="-1.88897">
        <ele>59</ele>
        <time>2015-12-05T14:25:37Z</time>
      </trkpt>
      <trkpt lat="47.33675" lon="-1.8889">
        <ele>59</ele>
        <time>2015-12-05T14:25:38Z</time>
      </trkpt>
      <trkpt lat="47.33675" lon="-1.88885">
        <ele>59</ele>
        <time>2015-12-05T14:25:39Z</time>
      </trkpt>
      <trkpt lat="47.33676" lon="-1.88881">
        <ele>59</ele>
        <time>2015-12-05T14:25:40Z</time>
      </trkpt>
      <trkpt lat="47.33675" lon="-1.88873">
        <ele>59</ele>
        <time>2015-12-05T14:25:41Z</time>
      </trkpt>
      <trkpt lat="47.33676" lon="-1.88869">
        <ele>59</ele>
        <time>2015-12-05T14:25:42Z</time>
      </trkpt>
      <trkpt lat="47.33676" lon="-1.88864">
        <ele>59</ele>
        <time>2015-12-05T14:25:43Z</time>
      </trkpt>
      <trkpt lat="47.33675" lon="-1.88857">
        <ele>59</ele>
        <time>2015-12-05T14:25:44Z</time>
      </trkpt>
      <trkpt lat="47.33674" lon="-1.88851">
        <ele>59</ele>
        <time>2015-12-05T14:25:45Z</time>
      </trkpt>
      <trkpt lat="47.33674" lon="-1.88843">
        <ele>59</ele>
        <time>2015-12-05T14:25:46Z</time>
      </trkpt>
      <trkpt lat="47.33673" lon="-1.88835">
        <ele>58</ele>
        <time>2015-12-05T14:25:47Z</time>
      </trkpt>
      <trkpt lat="47.33672" lon="-1.88827">
        <ele>58</ele>
        <time>2015-12-05T14:25:48Z</time>
      </trkpt>
      <trkpt lat="47.33672" lon="-1.88819">
        <ele>59</ele>
        <time>2015-12-05T14:25:49Z</time>
      </trkpt>
      <trkpt lat="47.33671" lon="-1.88811">
        <ele>59</ele>
        <time>2015-12-05T14:25:50Z</time>
      </trkpt>
      <trkpt lat="47.33672" lon="-1.88803">
        <ele>59</ele>
        <time>2015-12-05T14:25:51Z</time>
      </trkpt>
      <trkpt lat="47.33672" lon="-1.88795">
        <ele>59</ele>
        <time>2015-12-05T14:25:52Z</time>
      </trkpt>
      <trkpt lat="47.33672" lon="-1.88789">
        <ele>59</ele>
        <time>2015-12-05T14:25:53Z</time>
      </trkpt>
      <trkpt lat="47.3367" lon="-1.88784">
        <ele>59</ele>
        <time>2015-12-05T14:25:54Z</time>
      </trkpt>
      <trkpt lat="47.33665" lon="-1.88782">
        <ele>58</ele>
        <time>2015-12-05T14:25:56Z</time>
      </trkpt>
      <trkpt lat="47.33659" lon="-1.88784">
        <ele>58</ele>
        <time>2015-12-05T14:25:58Z</time>
      </trkpt>
      <trkpt lat="47.3365" lon="-1.88787">
        <ele>57</ele>
        <time>2015-12-05T14:26:00Z</time>
      </trkpt>
      <trkpt lat="47.33645" lon="-1.88787">
        <ele>57</ele>
        <time>2015-12-05T14:26:01Z</time>
      </trkpt>
      <trkpt lat="47.33635" lon="-1.88782">
        <ele>57</ele>
        <time>2015-12-05T14:26:02Z</time>
      </trkpt>
      <trkpt lat="47.33629" lon="-1.88779">
        <ele>57</ele>
        <time>2015-12-05T14:26:03Z</time>
      </trkpt>
      <trkpt lat="47.33625" lon="-1.88776">
        <ele>57</ele>
        <time>2015-12-05T14:26:04Z</time>
      </trkpt>
      <trkpt lat="47.33619" lon="-1.88772">
        <ele>57</ele>
        <time>2015-12-05T14:26:05Z</time>
      </trkpt>
      <trkpt lat="47.33615" lon="-1.88766">
        <ele>56</ele>
        <time>2015-12-05T14:26:06Z</time>
      </trkpt>
      <trkpt lat="47.33611" lon="-1.88764">
        <ele>56</ele>
        <time>2015-12-05T14:26:07Z</time>
      </trkpt>
      <trkpt lat="47.33605" lon="-1.88767">
        <ele>56</ele>
        <time>2015-12-05T14:26:08Z</time>
      </trkpt>
      <trkpt lat="47.33599" lon="-1.88764">
        <ele>56</ele>
        <time>2015-12-05T14:26:09Z</time>
      </trkpt>
      <trkpt lat="47.33593" lon="-1.88764">
        <ele>56</ele>
        <time>2015-12-05T14:26:10Z</time>
      </trkpt>
      <trkpt lat="47.33588" lon="-1.88766">
        <ele>56</ele>
        <time>2015-12-05T14:26:11Z</time>
      </trkpt>
      <trkpt lat="47.33584" lon="-1.88766">
        <ele>56</ele>
        <time>2015-12-05T14:26:12Z</time>
      </trkpt>
      <trkpt lat="47.33579" lon="-1.88765">
        <ele>52</ele>
        <time>2015-12-05T14:26:13Z</time>
      </trkpt>
      <trkpt lat="47.33575" lon="-1.88765">
        <ele>52</ele>
        <time>2015-12-05T14:26:14Z</time>
      </trkpt>
      <trkpt lat="47.33572" lon="-1.88759">
        <ele>52</ele>
        <time>2015-12-05T14:26:15Z</time>
      </trkpt>
      <trkpt lat="47.33568" lon="-1.88757">
        <ele>52</ele>
        <time>2015-12-05T14:26:16Z</time>
      </trkpt>
      <trkpt lat="47.33565" lon="-1.88755">
        <ele>52</ele>
        <time>2015-12-05T14:26:17Z</time>
      </trkpt>
      <trkpt lat="47.33541" lon="-1.88752">
        <ele>50</ele>
        <time>2015-12-05T14:26:19Z</time>
      </trkpt>
      <trkpt lat="47.33537" lon="-1.88745">
        <ele>51</ele>
        <time>2015-12-05T14:26:20Z</time>
      </trkpt>
      <trkpt lat="47.33526" lon="-1.8874">
        <ele>50</ele>
        <time>2015-12-05T14:26:22Z</time>
      </trkpt>
      <trkpt lat="47.33522" lon="-1.88736">
        <ele>50</ele>
        <time>2015-12-05T14:26:23Z</time>
      </trkpt>
      <trkpt lat="47.33517" lon="-1.88733">
        <ele>49</ele>
        <time>2015-12-05T14:26:24Z</time>
      </trkpt>
      <trkpt lat="47.33512" lon="-1.88733">
        <ele>49</ele>
        <time>2015-12-05T14:26:25Z</time>
      </trkpt>
      <trkpt lat="47.33505" lon="-1.88725">
        <ele>49</ele>
        <time>2015-12-05T14:26:26Z</time>
      </trkpt>
      <trkpt lat="47.33503" lon="-1.88722">
        <ele>49</ele>
        <time>2015-12-05T14:26:27Z</time>
      </trkpt>
      <trkpt lat="47.33497" lon="-1.88719">
        <ele>48</ele>
        <time>2015-12-05T14:26:29Z</time>
      </trkpt>
      <trkpt lat="47.33494" lon="-1.8872">
        <ele>48</ele>
        <time>2015-12-05T14:26:30Z</time>
      </trkpt>
      <trkpt lat="47.33491" lon="-1.88721">
        <ele>48</ele>
        <time>2015-12-05T14:26:31Z</time>
      </trkpt>
      <trkpt lat="47.33489" lon="-1.88726">
        <ele>48</ele>
        <time>2015-12-05T14:26:32Z</time>
      </trkpt>
      <trkpt lat="47.33486" lon="-1.88731">
        <ele>47</ele>
        <time>2015-12-05T14:26:33Z</time>
      </trkpt>
      <trkpt lat="47.33483" lon="-1.88736">
        <ele>47</ele>
        <time>2015-12-05T14:26:34Z</time>
      </trkpt>
      <trkpt lat="47.3348" lon="-1.88741">
        <ele>47</ele>
        <time>2015-12-05T14:26:35Z</time>
      </trkpt>
      <trkpt lat="47.33476" lon="-1.88749">
        <ele>47</ele>
        <time>2015-12-05T14:26:37Z</time>
      </trkpt>
      <trkpt lat="47.33474" lon="-1.88754">
        <ele>46</ele>
        <time>2015-12-05T14:26:38Z</time>
      </trkpt>
      <trkpt lat="47.33472" lon="-1.8876">
        <ele>46</ele>
        <time>2015-12-05T14:26:40Z</time>
      </trkpt>
      <trkpt lat="47.33468" lon="-1.88761">
        <ele>46</ele>
        <time>2015-12-05T14:26:41Z</time>
      </trkpt>
      <trkpt lat="47.33465" lon="-1.88761">
        <ele>46</ele>
        <time>2015-12-05T14:26:42Z</time>
      </trkpt>
      <trkpt lat="47.33462" lon="-1.88761">
        <ele>46</ele>
        <time>2015-12-05T14:26:43Z</time>
      </trkpt>
      <trkpt lat="47.33458" lon="-1.88758">
        <ele>47</ele>
        <time>2015-12-05T14:26:45Z</time>
      </trkpt>
      <trkpt lat="47.33455" lon="-1.88754">
        <ele>47</ele>
        <time>2015-12-05T14:26:47Z</time>
      </trkpt>
      <trkpt lat="47.33453" lon="-1.8875">
        <ele>48</ele>
        <time>2015-12-05T14:26:49Z</time>
      </trkpt>
      <trkpt lat="47.3345" lon="-1.88745">
        <ele>48</ele>
        <time>2015-12-05T14:26:51Z</time>
      </trkpt>
      <trkpt lat="47.33448" lon="-1.88741">
        <ele>48</ele>
        <time>2015-12-05T14:26:53Z</time>
      </trkpt>
      <trkpt lat="47.33445" lon="-1.88739">
        <ele>48</ele>
        <time>2015-12-05T14:26:56Z</time>
      </trkpt>
      <trkpt lat="47.33443" lon="-1.88735">
        <ele>49</ele>
        <time>2015-12-05T14:27:00Z</time>
      </trkpt>
      <trkpt lat="47.33436" lon="-1.88729">
        <ele>49</ele>
        <time>2015-12-05T14:29:39Z</time>
      </trkpt>
      <trkpt lat="47.33432" lon="-1.88728">
        <ele>49</ele>
        <time>2015-12-05T14:29:43Z</time>
      </trkpt>
      <trkpt lat="47.3343" lon="-1.88726">
        <ele>49</ele>
        <time>2015-12-05T14:29:47Z</time>
      </trkpt>
      <trkpt lat="47.3343" lon="-1.88722">
        <ele>49</ele>
        <time>2015-12-05T14:29:55Z</time>
      </trkpt>
      <trkpt lat="47.33427" lon="-1.88721">
        <ele>49</ele>
        <time>2015-12-05T14:30:13Z</time>
      </trkpt>
      <trkpt lat="47.33424" lon="-1.88723">
        <ele>49</ele>
        <time>2015-12-05T14:30:17Z</time>
      </trkpt>
      <trkpt lat="47.33421" lon="-1.88725">
        <ele>49</ele>
        <time>2015-12-05T14:30:22Z</time>
      </trkpt>
      <trkpt lat="47.33419" lon="-1.88728">
        <ele>49</ele>
        <time>2015-12-05T14:30:25Z</time>
      </trkpt>
      <trkpt lat="47.33416" lon="-1.88731">
        <ele>50</ele>
        <time>2015-12-05T14:30:28Z</time>
      </trkpt>
      <trkpt lat="47.33413" lon="-1.88733">
        <ele>50</ele>
        <time>2015-12-05T14:30:30Z</time>
      </trkpt>
      <trkpt lat="47.3341" lon="-1.88734">
        <ele>50</ele>
        <time>2015-12-05T14:30:32Z</time>
      </trkpt>
      <trkpt lat="47.33407" lon="-1.88734">
        <ele>50</ele>
        <time>2015-12-05T14:30:34Z</time>
      </trkpt>
      <trkpt lat="47.33404" lon="-1.88732">
        <ele>50</ele>
        <time>2015-12-05T14:30:36Z</time>
      </trkpt>
      <trkpt lat="47.33402" lon="-1.88728">
        <ele>50</ele>
        <time>2015-12-05T14:30:39Z</time>
      </trkpt>
      <trkpt lat="47.334" lon="-1.88726">
        <ele>50</ele>
        <time>2015-12-05T14:30:41Z</time>
      </trkpt>
      <trkpt lat="47.33396" lon="-1.88722">
        <ele>50</ele>
        <time>2015-12-05T14:30:43Z</time>
      </trkpt>
      <trkpt lat="47.33394" lon="-1.88719">
        <ele>50</ele>
        <time>2015-12-05T14:30:44Z</time>
      </trkpt>
      <trkpt lat="47.33393" lon="-1.88713">
        <ele>51</ele>
        <time>2015-12-05T14:30:45Z</time>
      </trkpt>
      <trkpt lat="47.33391" lon="-1.88706">
        <ele>51</ele>
        <time>2015-12-05T14:30:47Z</time>
      </trkpt>
      <trkpt lat="47.33388" lon="-1.88701">
        <ele>51</ele>
        <time>2015-12-05T14:30:49Z</time>
      </trkpt>
      <trkpt lat="47.33386" lon="-1.88699">
        <ele>51</ele>
        <time>2015-12-05T14:30:50Z</time>
      </trkpt>
      <trkpt lat="47.33383" lon="-1.88696">
        <ele>51</ele>
        <time>2015-12-05T14:30:51Z</time>
      </trkpt>
      <trkpt lat="47.33381" lon="-1.88693">
        <ele>51</ele>
        <time>2015-12-05T14:30:52Z</time>
      </trkpt>
      <trkpt lat="47.33379" lon="-1.88688">
        <ele>51</ele>
        <time>2015-12-05T14:30:54Z</time>
      </trkpt>
      <trkpt lat="47.3338" lon="-1.88682">
        <ele>51</ele>
        <time>2015-12-05T14:30:56Z</time>
      </trkpt>
      <trkpt lat="47.33378" lon="-1.88679">
        <ele>51</ele>
        <time>2015-12-05T14:30:57Z</time>
      </trkpt>
      <trkpt lat="47.33376" lon="-1.88671">
        <ele>51</ele>
        <time>2015-12-05T14:30:59Z</time>
      </trkpt>
      <trkpt lat="47.33374" lon="-1.88667">
        <ele>51</ele>
        <time>2015-12-05T14:31:00Z</time>
      </trkpt>
      <trkpt lat="47.33372" lon="-1.88661">
        <ele>52</ele>
        <time>2015-12-05T14:31:01Z</time>
      </trkpt>
      <trkpt lat="47.3337" lon="-1.88656">
        <ele>53</ele>
        <time>2015-12-05T14:31:03Z</time>
      </trkpt>
      <trkpt lat="47.33366" lon="-1.88652">
        <ele>53</ele>
        <time>2015-12-05T14:31:04Z</time>
      </trkpt>
      <trkpt lat="47.33363" lon="-1.88648">
        <ele>53</ele>
        <time>2015-12-05T14:31:05Z</time>
      </trkpt>
      <trkpt lat="47.3336" lon="-1.88644">
        <ele>53</ele>
        <time>2015-12-05T14:31:06Z</time>
      </trkpt>
      <trkpt lat="47.33357" lon="-1.8864">
        <ele>53</ele>
        <time>2015-12-05T14:31:07Z</time>
      </trkpt>
      <trkpt lat="47.33354" lon="-1.88636">
        <ele>53</ele>
        <time>2015-12-05T14:31:09Z</time>
      </trkpt>
      <trkpt lat="47.33351" lon="-1.88628">
        <ele>53</ele>
        <time>2015-12-05T14:31:10Z</time>
      </trkpt>
      <trkpt lat="47.3335" lon="-1.88623">
        <ele>53</ele>
        <time>2015-12-05T14:31:11Z</time>
      </trkpt>
      <trkpt lat="47.33347" lon="-1.88618">
        <ele>53</ele>
        <time>2015-12-05T14:31:12Z</time>
      </trkpt>
      <trkpt lat="47.33345" lon="-1.88613">
        <ele>53</ele>
        <time>2015-12-05T14:31:13Z</time>
      </trkpt>
      <trkpt lat="47.33344" lon="-1.88607">
        <ele>53</ele>
        <time>2015-12-05T14:31:15Z</time>
      </trkpt>
      <trkpt lat="47.3334" lon="-1.886">
        <ele>53</ele>
        <time>2015-12-05T14:31:16Z</time>
      </trkpt>
      <trkpt lat="47.33337" lon="-1.88594">
        <ele>54</ele>
        <time>2015-12-05T14:31:17Z</time>
      </trkpt>
      <trkpt lat="47.33334" lon="-1.88589">
        <ele>54</ele>
        <time>2015-12-05T14:31:19Z</time>
      </trkpt>
      <trkpt lat="47.3333" lon="-1.88586">
        <ele>54</ele>
        <time>2015-12-05T14:31:20Z</time>
      </trkpt>
      <trkpt lat="47.33327" lon="-1.88581">
        <ele>54</ele>
        <time>2015-12-05T14:31:22Z</time>
      </trkpt>
      <trkpt lat="47.33324" lon="-1.88574">
        <ele>54</ele>
        <time>2015-12-05T14:31:23Z</time>
      </trkpt>
      <trkpt lat="47.33322" lon="-1.88569">
        <ele>54</ele>
        <time>2015-12-05T14:31:24Z</time>
      </trkpt>
      <trkpt lat="47.33322" lon="-1.88563">
        <ele>54</ele>
        <time>2015-12-05T14:31:25Z</time>
      </trkpt>
      <trkpt lat="47.33322" lon="-1.88558">
        <ele>54</ele>
        <time>2015-12-05T14:31:26Z</time>
      </trkpt>
      <trkpt lat="47.33322" lon="-1.88554">
        <ele>54</ele>
        <time>2015-12-05T14:31:27Z</time>
      </trkpt>
      <trkpt lat="47.3332" lon="-1.88551">
        <ele>54</ele>
        <time>2015-12-05T14:31:28Z</time>
      </trkpt>
      <trkpt lat="47.33316" lon="-1.88547">
        <ele>54</ele>
        <time>2015-12-05T14:31:30Z</time>
      </trkpt>
      <trkpt lat="47.33312" lon="-1.88543">
        <ele>54</ele>
        <time>2015-12-05T14:31:32Z</time>
      </trkpt>
      <trkpt lat="47.33309" lon="-1.88546">
        <ele>54</ele>
        <time>2015-12-05T14:31:33Z</time>
      </trkpt>
      <trkpt lat="47.33305" lon="-1.88548">
        <ele>54</ele>
        <time>2015-12-05T14:31:34Z</time>
      </trkpt>
      <trkpt lat="47.33301" lon="-1.88551">
        <ele>54</ele>
        <time>2015-12-05T14:31:36Z</time>
      </trkpt>
      <trkpt lat="47.33297" lon="-1.88555">
        <ele>54</ele>
        <time>2015-12-05T14:31:37Z</time>
      </trkpt>
      <trkpt lat="47.33293" lon="-1.88558">
        <ele>54</ele>
        <time>2015-12-05T14:31:39Z</time>
      </trkpt>
      <trkpt lat="47.33289" lon="-1.88559">
        <ele>54</ele>
        <time>2015-12-05T14:31:40Z</time>
      </trkpt>
      <trkpt lat="47.33285" lon="-1.88559">
        <ele>54</ele>
        <time>2015-12-05T14:31:41Z</time>
      </trkpt>
      <trkpt lat="47.3328" lon="-1.88557">
        <ele>54</ele>
        <time>2015-12-05T14:31:43Z</time>
      </trkpt>
      <trkpt lat="47.33277" lon="-1.88551">
        <ele>54</ele>
        <time>2015-12-05T14:31:44Z</time>
      </trkpt>
      <trkpt lat="47.33274" lon="-1.88546">
        <ele>54</ele>
        <time>2015-12-05T14:31:45Z</time>
      </trkpt>
      <trkpt lat="47.3327" lon="-1.88541">
        <ele>54</ele>
        <time>2015-12-05T14:31:47Z</time>
      </trkpt>
      <trkpt lat="47.33264" lon="-1.88543">
        <ele>54</ele>
        <time>2015-12-05T14:31:48Z</time>
      </trkpt>
      <trkpt lat="47.33261" lon="-1.88547">
        <ele>54</ele>
        <time>2015-12-05T14:31:49Z</time>
      </trkpt>
      <trkpt lat="47.33259" lon="-1.88552">
        <ele>54</ele>
        <time>2015-12-05T14:31:50Z</time>
      </trkpt>
      <trkpt lat="47.33258" lon="-1.88556">
        <ele>53</ele>
        <time>2015-12-05T14:31:51Z</time>
      </trkpt>
      <trkpt lat="47.33257" lon="-1.88559">
        <ele>53</ele>
        <time>2015-12-05T14:31:52Z</time>
      </trkpt>
      <trkpt lat="47.33253" lon="-1.88562">
        <ele>53</ele>
        <time>2015-12-05T14:31:54Z</time>
      </trkpt>
      <trkpt lat="47.33249" lon="-1.88558">
        <ele>51</ele>
        <time>2015-12-05T14:31:56Z</time>
      </trkpt>
      <trkpt lat="47.33247" lon="-1.88552">
        <ele>52</ele>
        <time>2015-12-05T14:31:57Z</time>
      </trkpt>
      <trkpt lat="47.33245" lon="-1.88547">
        <ele>52</ele>
        <time>2015-12-05T14:31:58Z</time>
      </trkpt>
      <trkpt lat="47.33243" lon="-1.88541">
        <ele>52</ele>
        <time>2015-12-05T14:32:00Z</time>
      </trkpt>
      <trkpt lat="47.3324" lon="-1.88535">
        <ele>52</ele>
        <time>2015-12-05T14:32:01Z</time>
      </trkpt>
      <trkpt lat="47.33237" lon="-1.88531">
        <ele>52</ele>
        <time>2015-12-05T14:32:02Z</time>
      </trkpt>
      <trkpt lat="47.33235" lon="-1.88526">
        <ele>52</ele>
        <time>2015-12-05T14:32:03Z</time>
      </trkpt>
      <trkpt lat="47.33233" lon="-1.88522">
        <ele>52</ele>
        <time>2015-12-05T14:32:04Z</time>
      </trkpt>
      <trkpt lat="47.3323" lon="-1.88518">
        <ele>52</ele>
        <time>2015-12-05T14:32:05Z</time>
      </trkpt>
      <trkpt lat="47.33227" lon="-1.88513">
        <ele>52</ele>
        <time>2015-12-05T14:32:06Z</time>
      </trkpt>
      <trkpt lat="47.33226" lon="-1.88508">
        <ele>52</ele>
        <time>2015-12-05T14:32:07Z</time>
      </trkpt>
      <trkpt lat="47.33225" lon="-1.88502">
        <ele>52</ele>
        <time>2015-12-05T14:32:08Z</time>
      </trkpt>
      <trkpt lat="47.33225" lon="-1.88497">
        <ele>55</ele>
        <time>2015-12-05T14:32:09Z</time>
      </trkpt>
      <trkpt lat="47.33226" lon="-1.88492">
        <ele>55</ele>
        <time>2015-12-05T14:32:10Z</time>
      </trkpt>
      <trkpt lat="47.33228" lon="-1.88488">
        <ele>55</ele>
        <time>2015-12-05T14:32:11Z</time>
      </trkpt>
      <trkpt lat="47.3323" lon="-1.88486">
        <ele>55</ele>
        <time>2015-12-05T14:32:12Z</time>
      </trkpt>
      <trkpt lat="47.33233" lon="-1.88483">
        <ele>55</ele>
        <time>2015-12-05T14:32:13Z</time>
      </trkpt>
      <trkpt lat="47.33235" lon="-1.88481">
        <ele>55</ele>
        <time>2015-12-05T14:32:14Z</time>
      </trkpt>
      <trkpt lat="47.33237" lon="-1.88478">
        <ele>55</ele>
        <time>2015-12-05T14:32:15Z</time>
      </trkpt>
      <trkpt lat="47.3324" lon="-1.88476">
        <ele>55</ele>
        <time>2015-12-05T14:32:16Z</time>
      </trkpt>
      <trkpt lat="47.33244" lon="-1.88471">
        <ele>55</ele>
        <time>2015-12-05T14:32:18Z</time>
      </trkpt>
      <trkpt lat="47.33246" lon="-1.88468">
        <ele>55</ele>
        <time>2015-12-05T14:32:19Z</time>
      </trkpt>
      <trkpt lat="47.33249" lon="-1.88465">
        <ele>56</ele>
        <time>2015-12-05T14:32:20Z</time>
      </trkpt>
      <trkpt lat="47.33251" lon="-1.88462">
        <ele>56</ele>
        <time>2015-12-05T14:32:21Z</time>
      </trkpt>
      <trkpt lat="47.33255" lon="-1.88456">
        <ele>57</ele>
        <time>2015-12-05T14:32:23Z</time>
      </trkpt>
      <trkpt lat="47.33258" lon="-1.88451">
        <ele>57</ele>
        <time>2015-12-05T14:32:25Z</time>
      </trkpt>
      <trkpt lat="47.3326" lon="-1.88448">
        <ele>57</ele>
        <time>2015-12-05T14:32:26Z</time>
      </trkpt>
      <trkpt lat="47.33263" lon="-1.88445">
        <ele>57</ele>
        <time>2015-12-05T14:32:27Z</time>
      </trkpt>
      <trkpt lat="47.33265" lon="-1.88442">
        <ele>57</ele>
        <time>2015-12-05T14:32:28Z</time>
      </trkpt>
      <trkpt lat="47.33267" lon="-1.88439">
        <ele>57</ele>
        <time>2015-12-05T14:32:29Z</time>
      </trkpt>
      <trkpt lat="47.33269" lon="-1.88437">
        <ele>57</ele>
        <time>2015-12-05T14:32:30Z</time>
      </trkpt>
      <trkpt lat="47.33272" lon="-1.88435">
        <ele>57</ele>
        <time>2015-12-05T14:32:31Z</time>
      </trkpt>
      <trkpt lat="47.33274" lon="-1.88432">
        <ele>57</ele>
        <time>2015-12-05T14:32:32Z</time>
      </trkpt>
      <trkpt lat="47.33278" lon="-1.88426">
        <ele>57</ele>
        <time>2015-12-05T14:32:34Z</time>
      </trkpt>
      <trkpt lat="47.33281" lon="-1.88423">
        <ele>57</ele>
        <time>2015-12-05T14:32:35Z</time>
      </trkpt>
      <trkpt lat="47.33283" lon="-1.88419">
        <ele>57</ele>
        <time>2015-12-05T14:32:36Z</time>
      </trkpt>
      <trkpt lat="47.33285" lon="-1.88414">
        <ele>59</ele>
        <time>2015-12-05T14:32:37Z</time>
      </trkpt>
      <trkpt lat="47.33287" lon="-1.8841">
        <ele>59</ele>
        <time>2015-12-05T14:32:38Z</time>
      </trkpt>
      <trkpt lat="47.33288" lon="-1.88406">
        <ele>59</ele>
        <time>2015-12-05T14:32:39Z</time>
      </trkpt>
      <trkpt lat="47.33289" lon="-1.88401">
        <ele>59</ele>
        <time>2015-12-05T14:32:40Z</time>
      </trkpt>
      <trkpt lat="47.33289" lon="-1.88397">
        <ele>59</ele>
        <time>2015-12-05T14:32:41Z</time>
      </trkpt>
      <trkpt lat="47.3329" lon="-1.88393">
        <ele>59</ele>
        <time>2015-12-05T14:32:42Z</time>
      </trkpt>
      <trkpt lat="47.33291" lon="-1.88388">
        <ele>59</ele>
        <time>2015-12-05T14:32:43Z</time>
      </trkpt>
      <trkpt lat="47.33291" lon="-1.88384">
        <ele>59</ele>
        <time>2015-12-05T14:32:44Z</time>
      </trkpt>
      <trkpt lat="47.33292" lon="-1.88379">
        <ele>59</ele>
        <time>2015-12-05T14:32:45Z</time>
      </trkpt>
      <trkpt lat="47.33292" lon="-1.88374">
        <ele>59</ele>
        <time>2015-12-05T14:32:46Z</time>
      </trkpt>
      <trkpt lat="47.33293" lon="-1.8837">
        <ele>59</ele>
        <time>2015-12-05T14:32:47Z</time>
      </trkpt>
      <trkpt lat="47.33294" lon="-1.88366">
        <ele>59</ele>
        <time>2015-12-05T14:32:48Z</time>
      </trkpt>
      <trkpt lat="47.33295" lon="-1.88362">
        <ele>59</ele>
        <time>2015-12-05T14:32:49Z</time>
      </trkpt>
      <trkpt lat="47.33297" lon="-1.88358">
        <ele>59</ele>
        <time>2015-12-05T14:32:50Z</time>
      </trkpt>
      <trkpt lat="47.33298" lon="-1.88354">
        <ele>59</ele>
        <time>2015-12-05T14:32:51Z</time>
      </trkpt>
      <trkpt lat="47.333" lon="-1.88351">
        <ele>59</ele>
        <time>2015-12-05T14:32:52Z</time>
      </trkpt>
      <trkpt lat="47.33303" lon="-1.88348">
        <ele>60</ele>
        <time>2015-12-05T14:32:53Z</time>
      </trkpt>
      <trkpt lat="47.33305" lon="-1.88345">
        <ele>60</ele>
        <time>2015-12-05T14:32:54Z</time>
      </trkpt>
      <trkpt lat="47.33306" lon="-1.88341">
        <ele>60</ele>
        <time>2015-12-05T14:32:55Z</time>
      </trkpt>
      <trkpt lat="47.33307" lon="-1.88337">
        <ele>60</ele>
        <time>2015-12-05T14:32:56Z</time>
      </trkpt>
      <trkpt lat="47.33308" lon="-1.88333">
        <ele>60</ele>
        <time>2015-12-05T14:32:57Z</time>
      </trkpt>
      <trkpt lat="47.33308" lon="-1.88324">
        <ele>60</ele>
        <time>2015-12-05T14:32:59Z</time>
      </trkpt>
      <trkpt lat="47.33307" lon="-1.8832">
        <ele>60</ele>
        <time>2015-12-05T14:33:00Z</time>
      </trkpt>
      <trkpt lat="47.33304" lon="-1.88318">
        <ele>60</ele>
        <time>2015-12-05T14:33:01Z</time>
      </trkpt>
      <trkpt lat="47.33301" lon="-1.88311">
        <ele>60</ele>
        <time>2015-12-05T14:33:03Z</time>
      </trkpt>
      <trkpt lat="47.33299" lon="-1.88306">
        <ele>60</ele>
        <time>2015-12-05T14:33:05Z</time>
      </trkpt>
      <trkpt lat="47.33297" lon="-1.88299">
        <ele>60</ele>
        <time>2015-12-05T14:33:07Z</time>
      </trkpt>
      <trkpt lat="47.33296" lon="-1.88295">
        <ele>60</ele>
        <time>2015-12-05T14:33:08Z</time>
      </trkpt>
      <trkpt lat="47.33295" lon="-1.8829">
        <ele>60</ele>
        <time>2015-12-05T14:33:09Z</time>
      </trkpt>
      <trkpt lat="47.33294" lon="-1.88285">
        <ele>60</ele>
        <time>2015-12-05T14:33:10Z</time>
      </trkpt>
      <trkpt lat="47.33293" lon="-1.88281">
        <ele>60</ele>
        <time>2015-12-05T14:33:11Z</time>
      </trkpt>
      <trkpt lat="47.33291" lon="-1.88277">
        <ele>60</ele>
        <time>2015-12-05T14:33:12Z</time>
      </trkpt>
      <trkpt lat="47.3329" lon="-1.88273">
        <ele>60</ele>
        <time>2015-12-05T14:33:13Z</time>
      </trkpt>
      <trkpt lat="47.33289" lon="-1.88269">
        <ele>60</ele>
        <time>2015-12-05T14:33:14Z</time>
      </trkpt>
      <trkpt lat="47.33288" lon="-1.88265">
        <ele>59</ele>
        <time>2015-12-05T14:33:15Z</time>
      </trkpt>
      <trkpt lat="47.33286" lon="-1.88259">
        <ele>59</ele>
        <time>2015-12-05T14:33:16Z</time>
      </trkpt>
      <trkpt lat="47.33284" lon="-1.88252">
        <ele>59</ele>
        <time>2015-12-05T14:33:17Z</time>
      </trkpt>
      <trkpt lat="47.33282" lon="-1.88245">
        <ele>59</ele>
        <time>2015-12-05T14:33:18Z</time>
      </trkpt>
      <trkpt lat="47.33281" lon="-1.88239">
        <ele>59</ele>
        <time>2015-12-05T14:33:19Z</time>
      </trkpt>
      <trkpt lat="47.33269" lon="-1.88215">
        <ele>59</ele>
        <time>2015-12-05T14:33:21Z</time>
      </trkpt>
      <trkpt lat="47.33267" lon="-1.88206">
        <ele>59</ele>
        <time>2015-12-05T14:33:22Z</time>
      </trkpt>
      <trkpt lat="47.3327" lon="-1.88193">
        <ele>58</ele>
        <time>2015-12-05T14:33:23Z</time>
      </trkpt>
      <trkpt lat="47.33271" lon="-1.88189">
        <ele>58</ele>
        <time>2015-12-05T14:33:24Z</time>
      </trkpt>
      <trkpt lat="47.33271" lon="-1.88184">
        <ele>58</ele>
        <time>2015-12-05T14:33:25Z</time>
      </trkpt>
      <trkpt lat="47.33272" lon="-1.88177">
        <ele>58</ele>
        <time>2015-12-05T14:33:26Z</time>
      </trkpt>
      <trkpt lat="47.33273" lon="-1.88172">
        <ele>58</ele>
        <time>2015-12-05T14:33:28Z</time>
      </trkpt>
      <trkpt lat="47.33276" lon="-1.88172">
        <ele>58</ele>
        <time>2015-12-05T14:33:29Z</time>
      </trkpt>
      <trkpt lat="47.33277" lon="-1.88168">
        <ele>58</ele>
        <time>2015-12-05T14:33:31Z</time>
      </trkpt>
      <trkpt lat="47.33276" lon="-1.88162">
        <ele>59</ele>
        <time>2015-12-05T14:33:33Z</time>
      </trkpt>
      <trkpt lat="47.33277" lon="-1.88157">
        <ele>59</ele>
        <time>2015-12-05T14:33:34Z</time>
      </trkpt>
      <trkpt lat="47.33277" lon="-1.8815">
        <ele>59</ele>
        <time>2015-12-05T14:33:36Z</time>
      </trkpt>
      <trkpt lat="47.33281" lon="-1.88149">
        <ele>59</ele>
        <time>2015-12-05T14:33:37Z</time>
      </trkpt>
      <trkpt lat="47.33279" lon="-1.88145">
        <ele>59</ele>
        <time>2015-12-05T14:33:38Z</time>
      </trkpt>
      <trkpt lat="47.33281" lon="-1.88138">
        <ele>59</ele>
        <time>2015-12-05T14:33:40Z</time>
      </trkpt>
      <trkpt lat="47.33284" lon="-1.88135">
        <ele>59</ele>
        <time>2015-12-05T14:33:41Z</time>
      </trkpt>
      <trkpt lat="47.33286" lon="-1.8813">
        <ele>59</ele>
        <time>2015-12-05T14:33:44Z</time>
      </trkpt>
      <trkpt lat="47.33289" lon="-1.88126">
        <ele>59</ele>
        <time>2015-12-05T14:33:46Z</time>
      </trkpt>
      <trkpt lat="47.33292" lon="-1.88122">
        <ele>60</ele>
        <time>2015-12-05T14:33:47Z</time>
      </trkpt>
      <trkpt lat="47.33295" lon="-1.88117">
        <ele>60</ele>
        <time>2015-12-05T14:33:49Z</time>
      </trkpt>
      <trkpt lat="47.33298" lon="-1.88114">
        <ele>60</ele>
        <time>2015-12-05T14:33:50Z</time>
      </trkpt>
      <trkpt lat="47.33299" lon="-1.8811">
        <ele>60</ele>
        <time>2015-12-05T14:33:51Z</time>
      </trkpt>
      <trkpt lat="47.33302" lon="-1.88103">
        <ele>60</ele>
        <time>2015-12-05T14:33:53Z</time>
      </trkpt>
      <trkpt lat="47.33303" lon="-1.88097">
        <ele>60</ele>
        <time>2015-12-05T14:33:54Z</time>
      </trkpt>
      <trkpt lat="47.33303" lon="-1.88093">
        <ele>60</ele>
        <time>2015-12-05T14:33:55Z</time>
      </trkpt>
      <trkpt lat="47.33304" lon="-1.88089">
        <ele>61</ele>
        <time>2015-12-05T14:33:56Z</time>
      </trkpt>
      <trkpt lat="47.33305" lon="-1.88085">
        <ele>61</ele>
        <time>2015-12-05T14:33:57Z</time>
      </trkpt>
      <trkpt lat="47.33308" lon="-1.88083">
        <ele>62</ele>
        <time>2015-12-05T14:33:59Z</time>
      </trkpt>
      <trkpt lat="47.33315" lon="-1.88081">
        <ele>62</ele>
        <time>2015-12-05T14:34:01Z</time>
      </trkpt>
      <trkpt lat="47.33317" lon="-1.88076">
        <ele>62</ele>
        <time>2015-12-05T14:34:02Z</time>
      </trkpt>
      <trkpt lat="47.3332" lon="-1.88074">
        <ele>62</ele>
        <time>2015-12-05T14:34:03Z</time>
      </trkpt>
      <trkpt lat="47.33325" lon="-1.88074">
        <ele>63</ele>
        <time>2015-12-05T14:34:05Z</time>
      </trkpt>
      <trkpt lat="47.3333" lon="-1.88073">
        <ele>63</ele>
        <time>2015-12-05T14:34:07Z</time>
      </trkpt>
      <trkpt lat="47.33334" lon="-1.88072">
        <ele>64</ele>
        <time>2015-12-05T14:34:08Z</time>
      </trkpt>
      <trkpt lat="47.33339" lon="-1.88075">
        <ele>64</ele>
        <time>2015-12-05T14:34:10Z</time>
      </trkpt>
      <trkpt lat="47.33345" lon="-1.88077">
        <ele>64</ele>
        <time>2015-12-05T14:34:12Z</time>
      </trkpt>
      <trkpt lat="47.33348" lon="-1.88075">
        <ele>64</ele>
        <time>2015-12-05T14:34:13Z</time>
      </trkpt>
      <trkpt lat="47.33353" lon="-1.88074">
        <ele>64</ele>
        <time>2015-12-05T14:34:15Z</time>
      </trkpt>
      <trkpt lat="47.33358" lon="-1.88074">
        <ele>64</ele>
        <time>2015-12-05T14:34:16Z</time>
      </trkpt>
      <trkpt lat="47.33362" lon="-1.88074">
        <ele>64</ele>
        <time>2015-12-05T14:34:17Z</time>
      </trkpt>
      <trkpt lat="47.33366" lon="-1.88074">
        <ele>64</ele>
        <time>2015-12-05T14:34:18Z</time>
      </trkpt>
      <trkpt lat="47.3337" lon="-1.88073">
        <ele>64</ele>
        <time>2015-12-05T14:34:19Z</time>
      </trkpt>
      <trkpt lat="47.33373" lon="-1.88072">
        <ele>65</ele>
        <time>2015-12-05T14:34:20Z</time>
      </trkpt>
      <trkpt lat="47.33377" lon="-1.88072">
        <ele>65</ele>
        <time>2015-12-05T14:34:21Z</time>
      </trkpt>
      <trkpt lat="47.3338" lon="-1.8807">
        <ele>65</ele>
        <time>2015-12-05T14:34:22Z</time>
      </trkpt>
      <trkpt lat="47.33384" lon="-1.8807">
        <ele>65</ele>
        <time>2015-12-05T14:34:23Z</time>
      </trkpt>
      <trkpt lat="47.33388" lon="-1.88069">
        <ele>65</ele>
        <time>2015-12-05T14:34:24Z</time>
      </trkpt>
      <trkpt lat="47.33391" lon="-1.88069">
        <ele>65</ele>
        <time>2015-12-05T14:34:25Z</time>
      </trkpt>
      <trkpt lat="47.33395" lon="-1.88069">
        <ele>64</ele>
        <time>2015-12-05T14:34:26Z</time>
      </trkpt>
      <trkpt lat="47.33398" lon="-1.88069">
        <ele>64</ele>
        <time>2015-12-05T14:34:27Z</time>
      </trkpt>
      <trkpt lat="47.33402" lon="-1.88068">
        <ele>64</ele>
        <time>2015-12-05T14:34:28Z</time>
      </trkpt>
      <trkpt lat="47.33405" lon="-1.88066">
        <ele>64</ele>
        <time>2015-12-05T14:34:29Z</time>
      </trkpt>
      <trkpt lat="47.33407" lon="-1.88064">
        <ele>64</ele>
        <time>2015-12-05T14:34:30Z</time>
      </trkpt>
      <trkpt lat="47.33411" lon="-1.88059">
        <ele>65</ele>
        <time>2015-12-05T14:34:32Z</time>
      </trkpt>
      <trkpt lat="47.33412" lon="-1.88053">
        <ele>65</ele>
        <time>2015-12-05T14:34:34Z</time>
      </trkpt>
      <trkpt lat="47.33415" lon="-1.88046">
        <ele>65</ele>
        <time>2015-12-05T14:34:36Z</time>
      </trkpt>
      <trkpt lat="47.33412" lon="-1.88042">
        <ele>65</ele>
        <time>2015-12-05T14:34:37Z</time>
      </trkpt>
      <trkpt lat="47.3341" lon="-1.88039">
        <ele>65</ele>
        <time>2015-12-05T14:34:38Z</time>
      </trkpt>
      <trkpt lat="47.33408" lon="-1.88036">
        <ele>65</ele>
        <time>2015-12-05T14:34:39Z</time>
      </trkpt>
      <trkpt lat="47.33407" lon="-1.88029">
        <ele>65</ele>
        <time>2015-12-05T14:34:41Z</time>
      </trkpt>
      <trkpt lat="47.33405" lon="-1.88025">
        <ele>65</ele>
        <time>2015-12-05T14:34:42Z</time>
      </trkpt>
      <trkpt lat="47.33403" lon="-1.88022">
        <ele>65</ele>
        <time>2015-12-05T14:34:43Z</time>
      </trkpt>
      <trkpt lat="47.33402" lon="-1.88018">
        <ele>65</ele>
        <time>2015-12-05T14:34:44Z</time>
      </trkpt>
      <trkpt lat="47.334" lon="-1.88014">
        <ele>65</ele>
        <time>2015-12-05T14:34:45Z</time>
      </trkpt>
      <trkpt lat="47.33399" lon="-1.8801">
        <ele>65</ele>
        <time>2015-12-05T14:34:46Z</time>
      </trkpt>
      <trkpt lat="47.33398" lon="-1.88002">
        <ele>65</ele>
        <time>2015-12-05T14:34:48Z</time>
      </trkpt>
      <trkpt lat="47.33396" lon="-1.87999">
        <ele>65</ele>
        <time>2015-12-05T14:34:49Z</time>
      </trkpt>
      <trkpt lat="47.33395" lon="-1.87991">
        <ele>65</ele>
        <time>2015-12-05T14:34:51Z</time>
      </trkpt>
      <trkpt lat="47.33394" lon="-1.87986">
        <ele>65</ele>
        <time>2015-12-05T14:34:52Z</time>
      </trkpt>
      <trkpt lat="47.33393" lon="-1.87981">
        <ele>65</ele>
        <time>2015-12-05T14:34:53Z</time>
      </trkpt>
      <trkpt lat="47.33393" lon="-1.87977">
        <ele>65</ele>
        <time>2015-12-05T14:34:54Z</time>
      </trkpt>
      <trkpt lat="47.33392" lon="-1.87972">
        <ele>65</ele>
        <time>2015-12-05T14:34:55Z</time>
      </trkpt>
      <trkpt lat="47.33391" lon="-1.87968">
        <ele>65</ele>
        <time>2015-12-05T14:34:56Z</time>
      </trkpt>
      <trkpt lat="47.33391" lon="-1.87964">
        <ele>65</ele>
        <time>2015-12-05T14:34:57Z</time>
      </trkpt>
      <trkpt lat="47.33392" lon="-1.87959">
        <ele>65</ele>
        <time>2015-12-05T14:34:58Z</time>
      </trkpt>
      <trkpt lat="47.33391" lon="-1.87955">
        <ele>65</ele>
        <time>2015-12-05T14:34:59Z</time>
      </trkpt>
      <trkpt lat="47.33391" lon="-1.87949">
        <ele>65</ele>
        <time>2015-12-05T14:35:00Z</time>
      </trkpt>
      <trkpt lat="47.3339" lon="-1.87942">
        <ele>65</ele>
        <time>2015-12-05T14:35:01Z</time>
      </trkpt>
      <trkpt lat="47.33389" lon="-1.87937">
        <ele>65</ele>
        <time>2015-12-05T14:35:02Z</time>
      </trkpt>
      <trkpt lat="47.33388" lon="-1.87931">
        <ele>65</ele>
        <time>2015-12-05T14:35:03Z</time>
      </trkpt>
      <trkpt lat="47.33388" lon="-1.87925">
        <ele>65</ele>
        <time>2015-12-05T14:35:04Z</time>
      </trkpt>
      <trkpt lat="47.33387" lon="-1.87918">
        <ele>65</ele>
        <time>2015-12-05T14:35:05Z</time>
      </trkpt>
      <trkpt lat="47.33386" lon="-1.87912">
        <ele>64</ele>
        <time>2015-12-05T14:35:06Z</time>
      </trkpt>
      <trkpt lat="47.33385" lon="-1.87906">
        <ele>64</ele>
        <time>2015-12-05T14:35:07Z</time>
      </trkpt>
      <trkpt lat="47.33384" lon="-1.87901">
        <ele>64</ele>
        <time>2015-12-05T14:35:08Z</time>
      </trkpt>
      <trkpt lat="47.33384" lon="-1.87894">
        <ele>63</ele>
        <time>2015-12-05T14:35:09Z</time>
      </trkpt>
      <trkpt lat="47.33384" lon="-1.8789">
        <ele>63</ele>
        <time>2015-12-05T14:35:10Z</time>
      </trkpt>
      <trkpt lat="47.33384" lon="-1.87884">
        <ele>63</ele>
        <time>2015-12-05T14:35:11Z</time>
      </trkpt>
      <trkpt lat="47.33384" lon="-1.87877">
        <ele>63</ele>
        <time>2015-12-05T14:35:12Z</time>
      </trkpt>
      <trkpt lat="47.33384" lon="-1.87871">
        <ele>63</ele>
        <time>2015-12-05T14:35:13Z</time>
      </trkpt>
      <trkpt lat="47.33386" lon="-1.87856">
        <ele>63</ele>
        <time>2015-12-05T14:35:14Z</time>
      </trkpt>
      <trkpt lat="47.33387" lon="-1.87847">
        <ele>63</ele>
        <time>2015-12-05T14:35:15Z</time>
      </trkpt>
      <trkpt lat="47.33387" lon="-1.87841">
        <ele>63</ele>
        <time>2015-12-05T14:35:16Z</time>
      </trkpt>
      <trkpt lat="47.33384" lon="-1.87836">
        <ele>63</ele>
        <time>2015-12-05T14:35:17Z</time>
      </trkpt>
      <trkpt lat="47.33384" lon="-1.87828">
        <ele>62</ele>
        <time>2015-12-05T14:35:18Z</time>
      </trkpt>
      <trkpt lat="47.33385" lon="-1.87816">
        <ele>62</ele>
        <time>2015-12-05T14:35:19Z</time>
      </trkpt>
      <trkpt lat="47.33387" lon="-1.87808">
        <ele>62</ele>
        <time>2015-12-05T14:35:20Z</time>
      </trkpt>
      <trkpt lat="47.33387" lon="-1.87803">
        <ele>62</ele>
        <time>2015-12-05T14:35:21Z</time>
      </trkpt>
      <trkpt lat="47.33388" lon="-1.87798">
        <ele>62</ele>
        <time>2015-12-05T14:35:22Z</time>
      </trkpt>
      <trkpt lat="47.33389" lon="-1.87793">
        <ele>62</ele>
        <time>2015-12-05T14:35:23Z</time>
      </trkpt>
      <trkpt lat="47.3339" lon="-1.87789">
        <ele>61</ele>
        <time>2015-12-05T14:35:24Z</time>
      </trkpt>
      <trkpt lat="47.33388" lon="-1.87792">
        <ele>62</ele>
        <time>2015-12-05T14:35:25Z</time>
      </trkpt>
      <trkpt lat="47.33386" lon="-1.87796">
        <ele>62</ele>
        <time>2015-12-05T14:35:29Z</time>
      </trkpt>
      <trkpt lat="47.33383" lon="-1.87794">
        <ele>62</ele>
        <time>2015-12-05T14:35:51Z</time>
      </trkpt>
      <trkpt lat="47.33382" lon="-1.87791">
        <ele>61</ele>
        <time>2015-12-05T14:35:52Z</time>
      </trkpt>
      <trkpt lat="47.33379" lon="-1.87785">
        <ele>61</ele>
        <time>2015-12-05T14:35:54Z</time>
      </trkpt>
      <trkpt lat="47.33377" lon="-1.8778">
        <ele>61</ele>
        <time>2015-12-05T14:35:56Z</time>
      </trkpt>
      <trkpt lat="47.33376" lon="-1.87776">
        <ele>61</ele>
        <time>2015-12-05T14:35:57Z</time>
      </trkpt>
      <trkpt lat="47.33374" lon="-1.87772">
        <ele>61</ele>
        <time>2015-12-05T14:35:58Z</time>
      </trkpt>
      <trkpt lat="47.33373" lon="-1.87768">
        <ele>61</ele>
        <time>2015-12-05T14:35:59Z</time>
      </trkpt>
      <trkpt lat="47.33371" lon="-1.87764">
        <ele>61</ele>
        <time>2015-12-05T14:36:00Z</time>
      </trkpt>
      <trkpt lat="47.33369" lon="-1.87761">
        <ele>61</ele>
        <time>2015-12-05T14:36:01Z</time>
      </trkpt>
      <trkpt lat="47.33367" lon="-1.87757">
        <ele>61</ele>
        <time>2015-12-05T14:36:02Z</time>
      </trkpt>
      <trkpt lat="47.33365" lon="-1.87752">
        <ele>61</ele>
        <time>2015-12-05T14:36:03Z</time>
      </trkpt>
      <trkpt lat="47.33363" lon="-1.87748">
        <ele>62</ele>
        <time>2015-12-05T14:36:04Z</time>
      </trkpt>
      <trkpt lat="47.3336" lon="-1.87745">
        <ele>62</ele>
        <time>2015-12-05T14:36:05Z</time>
      </trkpt>
      <trkpt lat="47.33358" lon="-1.87742">
        <ele>62</ele>
        <time>2015-12-05T14:36:06Z</time>
      </trkpt>
      <trkpt lat="47.33355" lon="-1.87739">
        <ele>62</ele>
        <time>2015-12-05T14:36:07Z</time>
      </trkpt>
      <trkpt lat="47.33352" lon="-1.87738">
        <ele>62</ele>
        <time>2015-12-05T14:36:08Z</time>
      </trkpt>
      <trkpt lat="47.33346" lon="-1.87735">
        <ele>62</ele>
        <time>2015-12-05T14:36:10Z</time>
      </trkpt>
      <trkpt lat="47.33343" lon="-1.87735">
        <ele>62</ele>
        <time>2015-12-05T14:36:12Z</time>
      </trkpt>
      <trkpt lat="47.33339" lon="-1.87735">
        <ele>62</ele>
        <time>2015-12-05T14:36:14Z</time>
      </trkpt>
      <trkpt lat="47.33334" lon="-1.87736">
        <ele>62</ele>
        <time>2015-12-05T14:36:16Z</time>
      </trkpt>
      <trkpt lat="47.33331" lon="-1.87737">
        <ele>62</ele>
        <time>2015-12-05T14:36:17Z</time>
      </trkpt>
      <trkpt lat="47.33327" lon="-1.87738">
        <ele>62</ele>
        <time>2015-12-05T14:36:18Z</time>
      </trkpt>
      <trkpt lat="47.33324" lon="-1.8774">
        <ele>63</ele>
        <time>2015-12-05T14:36:19Z</time>
      </trkpt>
      <trkpt lat="47.3332" lon="-1.87741">
        <ele>63</ele>
        <time>2015-12-05T14:36:20Z</time>
      </trkpt>
      <trkpt lat="47.33317" lon="-1.87742">
        <ele>63</ele>
        <time>2015-12-05T14:36:21Z</time>
      </trkpt>
      <trkpt lat="47.33314" lon="-1.87743">
        <ele>63</ele>
        <time>2015-12-05T14:36:22Z</time>
      </trkpt>
      <trkpt lat="47.3331" lon="-1.87743">
        <ele>63</ele>
        <time>2015-12-05T14:36:23Z</time>
      </trkpt>
      <trkpt lat="47.33307" lon="-1.87743">
        <ele>64</ele>
        <time>2015-12-05T14:36:24Z</time>
      </trkpt>
      <trkpt lat="47.33304" lon="-1.87742">
        <ele>64</ele>
        <time>2015-12-05T14:36:25Z</time>
      </trkpt>
      <trkpt lat="47.33301" lon="-1.87742">
        <ele>64</ele>
        <time>2015-12-05T14:36:26Z</time>
      </trkpt>
      <trkpt lat="47.33299" lon="-1.87741">
        <ele>64</ele>
        <time>2015-12-05T14:36:27Z</time>
      </trkpt>
      <trkpt lat="47.33294" lon="-1.87741">
        <ele>64</ele>
        <time>2015-12-05T14:36:29Z</time>
      </trkpt>
      <trkpt lat="47.33289" lon="-1.8774">
        <ele>65</ele>
        <time>2015-12-05T14:36:31Z</time>
      </trkpt>
      <trkpt lat="47.33285" lon="-1.8774">
        <ele>65</ele>
        <time>2015-12-05T14:36:32Z</time>
      </trkpt>
      <trkpt lat="47.3328" lon="-1.87741">
        <ele>65</ele>
        <time>2015-12-05T14:36:34Z</time>
      </trkpt>
      <trkpt lat="47.33277" lon="-1.87743">
        <ele>65</ele>
        <time>2015-12-05T14:36:35Z</time>
      </trkpt>
      <trkpt lat="47.33273" lon="-1.87744">
        <ele>66</ele>
        <time>2015-12-05T14:36:36Z</time>
      </trkpt>
      <trkpt lat="47.3327" lon="-1.87745">
        <ele>66</ele>
        <time>2015-12-05T14:36:37Z</time>
      </trkpt>
      <trkpt lat="47.33265" lon="-1.87745">
        <ele>66</ele>
        <time>2015-12-05T14:36:39Z</time>
      </trkpt>
      <trkpt lat="47.33261" lon="-1.87745">
        <ele>67</ele>
        <time>2015-12-05T14:36:41Z</time>
      </trkpt>
      <trkpt lat="47.33257" lon="-1.87744">
        <ele>67</ele>
        <time>2015-12-05T14:36:44Z</time>
      </trkpt>
      <trkpt lat="47.33254" lon="-1.87744">
        <ele>67</ele>
        <time>2015-12-05T14:36:47Z</time>
      </trkpt>
      <trkpt lat="47.33252" lon="-1.87749">
        <ele>68</ele>
        <time>2015-12-05T14:36:49Z</time>
      </trkpt>
      <trkpt lat="47.3325" lon="-1.87753">
        <ele>68</ele>
        <time>2015-12-05T14:36:51Z</time>
      </trkpt>
      <trkpt lat="47.33249" lon="-1.87757">
        <ele>68</ele>
        <time>2015-12-05T14:36:53Z</time>
      </trkpt>
      <trkpt lat="47.33246" lon="-1.87759">
        <ele>68</ele>
        <time>2015-12-05T14:36:55Z</time>
      </trkpt>
      <trkpt lat="47.33239" lon="-1.87762">
        <ele>68</ele>
        <time>2015-12-05T14:36:58Z</time>
      </trkpt>
      <trkpt lat="47.33235" lon="-1.87762">
        <ele>68</ele>
        <time>2015-12-05T14:36:59Z</time>
      </trkpt>
      <trkpt lat="47.3323" lon="-1.87761">
        <ele>68</ele>
        <time>2015-12-05T14:37:00Z</time>
      </trkpt>
      <trkpt lat="47.33225" lon="-1.87763">
        <ele>68</ele>
        <time>2015-12-05T14:37:02Z</time>
      </trkpt>
      <trkpt lat="47.33222" lon="-1.87763">
        <ele>68</ele>
        <time>2015-12-05T14:37:03Z</time>
      </trkpt>
      <trkpt lat="47.33219" lon="-1.87763">
        <ele>68</ele>
        <time>2015-12-05T14:37:04Z</time>
      </trkpt>
      <trkpt lat="47.33214" lon="-1.87764">
        <ele>68</ele>
        <time>2015-12-05T14:37:06Z</time>
      </trkpt>
      <trkpt lat="47.3321" lon="-1.87763">
        <ele>68</ele>
        <time>2015-12-05T14:37:07Z</time>
      </trkpt>
      <trkpt lat="47.33206" lon="-1.87763">
        <ele>68</ele>
        <time>2015-12-05T14:37:08Z</time>
      </trkpt>
      <trkpt lat="47.33202" lon="-1.87764">
        <ele>68</ele>
        <time>2015-12-05T14:37:10Z</time>
      </trkpt>
      <trkpt lat="47.33197" lon="-1.87764">
        <ele>68</ele>
        <time>2015-12-05T14:37:11Z</time>
      </trkpt>
      <trkpt lat="47.33193" lon="-1.87765">
        <ele>68</ele>
        <time>2015-12-05T14:37:13Z</time>
      </trkpt>
      <trkpt lat="47.33185" lon="-1.87762">
        <ele>68</ele>
        <time>2015-12-05T14:37:14Z</time>
      </trkpt>
      <trkpt lat="47.33179" lon="-1.87758">
        <ele>68</ele>
        <time>2015-12-05T14:37:15Z</time>
      </trkpt>
      <trkpt lat="47.33176" lon="-1.87757">
        <ele>68</ele>
        <time>2015-12-05T14:37:16Z</time>
      </trkpt>
      <trkpt lat="47.33153" lon="-1.87745">
        <ele>67</ele>
        <time>2015-12-05T14:37:18Z</time>
      </trkpt>
      <trkpt lat="47.33148" lon="-1.87738">
        <ele>67</ele>
        <time>2015-12-05T14:37:19Z</time>
      </trkpt>
      <trkpt lat="47.33144" lon="-1.87736">
        <ele>66</ele>
        <time>2015-12-05T14:37:20Z</time>
      </trkpt>
      <trkpt lat="47.33138" lon="-1.87735">
        <ele>66</ele>
        <time>2015-12-05T14:37:21Z</time>
      </trkpt>
      <trkpt lat="47.33134" lon="-1.87734">
        <ele>66</ele>
        <time>2015-12-05T14:37:22Z</time>
      </trkpt>
      <trkpt lat="47.3313" lon="-1.87733">
        <ele>66</ele>
        <time>2015-12-05T14:37:23Z</time>
      </trkpt>
      <trkpt lat="47.33126" lon="-1.87735">
        <ele>66</ele>
        <time>2015-12-05T14:37:24Z</time>
      </trkpt>
      <trkpt lat="47.33121" lon="-1.87737">
        <ele>66</ele>
        <time>2015-12-05T14:37:25Z</time>
      </trkpt>
      <trkpt lat="47.33118" lon="-1.87736">
        <ele>66</ele>
        <time>2015-12-05T14:37:26Z</time>
      </trkpt>
      <trkpt lat="47.33116" lon="-1.8773">
        <ele>66</ele>
        <time>2015-12-05T14:37:27Z</time>
      </trkpt>
      <trkpt lat="47.33113" lon="-1.87727">
        <ele>66</ele>
        <time>2015-12-05T14:37:28Z</time>
      </trkpt>
      <trkpt lat="47.3311" lon="-1.87725">
        <ele>66</ele>
        <time>2015-12-05T14:37:29Z</time>
      </trkpt>
      <trkpt lat="47.33106" lon="-1.87722">
        <ele>66</ele>
        <time>2015-12-05T14:37:30Z</time>
      </trkpt>
      <trkpt lat="47.33103" lon="-1.87718">
        <ele>66</ele>
        <time>2015-12-05T14:37:31Z</time>
      </trkpt>
      <trkpt lat="47.33103" lon="-1.87713">
        <ele>66</ele>
        <time>2015-12-05T14:37:32Z</time>
      </trkpt>
      <trkpt lat="47.33096" lon="-1.87702">
        <ele>65</ele>
        <time>2015-12-05T14:37:33Z</time>
      </trkpt>
      <trkpt lat="47.33092" lon="-1.87696">
        <ele>65</ele>
        <time>2015-12-05T14:37:34Z</time>
      </trkpt>
      <trkpt lat="47.33088" lon="-1.87689">
        <ele>65</ele>
        <time>2015-12-05T14:37:35Z</time>
      </trkpt>
      <trkpt lat="47.33084" lon="-1.87683">
        <ele>64</ele>
        <time>2015-12-05T14:37:36Z</time>
      </trkpt>
      <trkpt lat="47.3308" lon="-1.87676">
        <ele>63</ele>
        <time>2015-12-05T14:37:37Z</time>
      </trkpt>
      <trkpt lat="47.33075" lon="-1.87669">
        <ele>63</ele>
        <time>2015-12-05T14:37:38Z</time>
      </trkpt>
      <trkpt lat="47.33069" lon="-1.87664">
        <ele>62</ele>
        <time>2015-12-05T14:37:39Z</time>
      </trkpt>
      <trkpt lat="47.33064" lon="-1.87656">
        <ele>62</ele>
        <time>2015-12-05T14:37:40Z</time>
      </trkpt>
      <trkpt lat="47.33058" lon="-1.87645">
        <ele>62</ele>
        <time>2015-12-05T14:37:41Z</time>
      </trkpt>
      <trkpt lat="47.3305" lon="-1.87635">
        <ele>62</ele>
        <time>2015-12-05T14:37:42Z</time>
      </trkpt>
      <trkpt lat="47.33044" lon="-1.87628">
        <ele>62</ele>
        <time>2015-12-05T14:37:43Z</time>
      </trkpt>
      <trkpt lat="47.33039" lon="-1.8762">
        <ele>62</ele>
        <time>2015-12-05T14:37:44Z</time>
      </trkpt>
      <trkpt lat="47.33031" lon="-1.87616">
        <ele>62</ele>
        <time>2015-12-05T14:37:45Z</time>
      </trkpt>
      <trkpt lat="47.33024" lon="-1.87614">
        <ele>62</ele>
        <time>2015-12-05T14:37:46Z</time>
      </trkpt>
      <trkpt lat="47.33016" lon="-1.87616">
        <ele>62</ele>
        <time>2015-12-05T14:37:47Z</time>
      </trkpt>
      <trkpt lat="47.3301" lon="-1.87619">
        <ele>61</ele>
        <time>2015-12-05T14:37:48Z</time>
      </trkpt>
      <trkpt lat="47.33003" lon="-1.87624">
        <ele>61</ele>
        <time>2015-12-05T14:37:49Z</time>
      </trkpt>
      <trkpt lat="47.33" lon="-1.87626">
        <ele>61</ele>
        <time>2015-12-05T14:37:50Z</time>
      </trkpt>
      <trkpt lat="47.32995" lon="-1.87631">
        <ele>59</ele>
        <time>2015-12-05T14:37:51Z</time>
      </trkpt>
      <trkpt lat="47.32991" lon="-1.87635">
        <ele>59</ele>
        <time>2015-12-05T14:37:52Z</time>
      </trkpt>
      <trkpt lat="47.32987" lon="-1.87642">
        <ele>59</ele>
        <time>2015-12-05T14:37:53Z</time>
      </trkpt>
      <trkpt lat="47.32982" lon="-1.87647">
        <ele>59</ele>
        <time>2015-12-05T14:37:54Z</time>
      </trkpt>
      <trkpt lat="47.32976" lon="-1.87649">
        <ele>59</ele>
        <time>2015-12-05T14:37:55Z</time>
      </trkpt>
      <trkpt lat="47.32966" lon="-1.87654">
        <ele>59</ele>
        <time>2015-12-05T14:37:56Z</time>
      </trkpt>
      <trkpt lat="47.32958" lon="-1.87657">
        <ele>58</ele>
        <time>2015-12-05T14:37:57Z</time>
      </trkpt>
      <trkpt lat="47.32951" lon="-1.87653">
        <ele>58</ele>
        <time>2015-12-05T14:37:58Z</time>
      </trkpt>
      <trkpt lat="47.32944" lon="-1.87647">
        <ele>58</ele>
        <time>2015-12-05T14:37:59Z</time>
      </trkpt>
      <trkpt lat="47.32937" lon="-1.87643">
        <ele>58</ele>
        <time>2015-12-05T14:38:00Z</time>
      </trkpt>
      <trkpt lat="47.32931" lon="-1.87638">
        <ele>57</ele>
        <time>2015-12-05T14:38:01Z</time>
      </trkpt>
      <trkpt lat="47.32927" lon="-1.8763">
        <ele>58</ele>
        <time>2015-12-05T14:38:02Z</time>
      </trkpt>
      <trkpt lat="47.32918" lon="-1.87622">
        <ele>58</ele>
        <time>2015-12-05T14:38:03Z</time>
      </trkpt>
      <trkpt lat="47.32912" lon="-1.87616">
        <ele>54</ele>
        <time>2015-12-05T14:38:04Z</time>
      </trkpt>
      <trkpt lat="47.32905" lon="-1.87612">
        <ele>54</ele>
        <time>2015-12-05T14:38:05Z</time>
      </trkpt>
      <trkpt lat="47.32898" lon="-1.87612">
        <ele>54</ele>
        <time>2015-12-05T14:38:06Z</time>
      </trkpt>
      <trkpt lat="47.32891" lon="-1.87615">
        <ele>54</ele>
        <time>2015-12-05T14:38:07Z</time>
      </trkpt>
      <trkpt lat="47.32883" lon="-1.8762">
        <ele>53</ele>
        <time>2015-12-05T14:38:08Z</time>
      </trkpt>
      <trkpt lat="47.32877" lon="-1.87624">
        <ele>53</ele>
        <time>2015-12-05T14:38:09Z</time>
      </trkpt>
      <trkpt lat="47.32869" lon="-1.87627">
        <ele>52</ele>
        <time>2015-12-05T14:38:10Z</time>
      </trkpt>
      <trkpt lat="47.32856" lon="-1.87627">
        <ele>52</ele>
        <time>2015-12-05T14:38:12Z</time>
      </trkpt>
      <trkpt lat="47.32848" lon="-1.87624">
        <ele>52</ele>
        <time>2015-12-05T14:38:13Z</time>
      </trkpt>
      <trkpt lat="47.32841" lon="-1.87621">
        <ele>52</ele>
        <time>2015-12-05T14:38:14Z</time>
      </trkpt>
      <trkpt lat="47.32834" lon="-1.87618">
        <ele>52</ele>
        <time>2015-12-05T14:38:15Z</time>
      </trkpt>
      <trkpt lat="47.32832" lon="-1.8761">
        <ele>48</ele>
        <time>2015-12-05T14:38:16Z</time>
      </trkpt>
      <trkpt lat="47.32829" lon="-1.87602">
        <ele>49</ele>
        <time>2015-12-05T14:38:17Z</time>
      </trkpt>
      <trkpt lat="47.32825" lon="-1.87597">
        <ele>49</ele>
        <time>2015-12-05T14:38:18Z</time>
      </trkpt>
      <trkpt lat="47.32822" lon="-1.87592">
        <ele>49</ele>
        <time>2015-12-05T14:38:19Z</time>
      </trkpt>
      <trkpt lat="47.32819" lon="-1.87588">
        <ele>49</ele>
        <time>2015-12-05T14:38:20Z</time>
      </trkpt>
      <trkpt lat="47.32816" lon="-1.87582">
        <ele>51</ele>
        <time>2015-12-05T14:38:22Z</time>
      </trkpt>
      <trkpt lat="47.32815" lon="-1.87578">
        <ele>51</ele>
        <time>2015-12-05T14:38:23Z</time>
      </trkpt>
      <trkpt lat="47.32814" lon="-1.87572">
        <ele>51</ele>
        <time>2015-12-05T14:38:25Z</time>
      </trkpt>
      <trkpt lat="47.32812" lon="-1.87568">
        <ele>51</ele>
        <time>2015-12-05T14:38:27Z</time>
      </trkpt>
      <trkpt lat="47.32804" lon="-1.87566">
        <ele>51</ele>
        <time>2015-12-05T14:38:29Z</time>
      </trkpt>
      <trkpt lat="47.328" lon="-1.87565">
        <ele>50</ele>
        <time>2015-12-05T14:38:30Z</time>
      </trkpt>
      <trkpt lat="47.32797" lon="-1.87564">
        <ele>50</ele>
        <time>2015-12-05T14:38:31Z</time>
      </trkpt>
      <trkpt lat="47.32792" lon="-1.87562">
        <ele>50</ele>
        <time>2015-12-05T14:38:32Z</time>
      </trkpt>
      <trkpt lat="47.32789" lon="-1.87557">
        <ele>50</ele>
        <time>2015-12-05T14:38:33Z</time>
      </trkpt>
      <trkpt lat="47.32786" lon="-1.87555">
        <ele>50</ele>
        <time>2015-12-05T14:38:34Z</time>
      </trkpt>
      <trkpt lat="47.32786" lon="-1.87549">
        <ele>50</ele>
        <time>2015-12-05T14:38:35Z</time>
      </trkpt>
      <trkpt lat="47.32775" lon="-1.87539">
        <ele>50</ele>
        <time>2015-12-05T14:38:37Z</time>
      </trkpt>
      <trkpt lat="47.32771" lon="-1.87535">
        <ele>50</ele>
        <time>2015-12-05T14:38:38Z</time>
      </trkpt>
      <trkpt lat="47.32769" lon="-1.87531">
        <ele>51</ele>
        <time>2015-12-05T14:38:39Z</time>
      </trkpt>
      <trkpt lat="47.32761" lon="-1.87527">
        <ele>51</ele>
        <time>2015-12-05T14:38:40Z</time>
      </trkpt>
      <trkpt lat="47.32755" lon="-1.87515">
        <ele>51</ele>
        <time>2015-12-05T14:38:41Z</time>
      </trkpt>
      <trkpt lat="47.3275" lon="-1.87511">
        <ele>49</ele>
        <time>2015-12-05T14:38:42Z</time>
      </trkpt>
      <trkpt lat="47.32744" lon="-1.8751">
        <ele>49</ele>
        <time>2015-12-05T14:38:43Z</time>
      </trkpt>
      <trkpt lat="47.32739" lon="-1.87508">
        <ele>48</ele>
        <time>2015-12-05T14:38:44Z</time>
      </trkpt>
      <trkpt lat="47.32734" lon="-1.87505">
        <ele>48</ele>
        <time>2015-12-05T14:38:45Z</time>
      </trkpt>
      <trkpt lat="47.3273" lon="-1.87504">
        <ele>47</ele>
        <time>2015-12-05T14:38:46Z</time>
      </trkpt>
      <trkpt lat="47.32727" lon="-1.87501">
        <ele>47</ele>
        <time>2015-12-05T14:38:47Z</time>
      </trkpt>
      <trkpt lat="47.32722" lon="-1.87497">
        <ele>49</ele>
        <time>2015-12-05T14:38:48Z</time>
      </trkpt>
      <trkpt lat="47.32718" lon="-1.87494">
        <ele>49</ele>
        <time>2015-12-05T14:38:49Z</time>
      </trkpt>
      <trkpt lat="47.32715" lon="-1.87489">
        <ele>48</ele>
        <time>2015-12-05T14:38:50Z</time>
      </trkpt>
      <trkpt lat="47.32712" lon="-1.87487">
        <ele>48</ele>
        <time>2015-12-05T14:38:51Z</time>
      </trkpt>
      <trkpt lat="47.32709" lon="-1.87483">
        <ele>48</ele>
        <time>2015-12-05T14:38:52Z</time>
      </trkpt>
      <trkpt lat="47.32706" lon="-1.87482">
        <ele>48</ele>
        <time>2015-12-05T14:38:54Z</time>
      </trkpt>
      <trkpt lat="47.32704" lon="-1.87486">
        <ele>47</ele>
        <time>2015-12-05T14:38:55Z</time>
      </trkpt>
      <trkpt lat="47.32696" lon="-1.87486">
        <ele>47</ele>
        <time>2015-12-05T14:38:57Z</time>
      </trkpt>
      <trkpt lat="47.32669" lon="-1.8748">
        <ele>45</ele>
        <time>2015-12-05T14:38:59Z</time>
      </trkpt>
      <trkpt lat="47.32658" lon="-1.87475">
        <ele>39</ele>
        <time>2015-12-05T14:39:00Z</time>
      </trkpt>
      <trkpt lat="47.32647" lon="-1.8747">
        <ele>39</ele>
        <time>2015-12-05T14:39:01Z</time>
      </trkpt>
      <trkpt lat="47.32638" lon="-1.87467">
        <ele>38</ele>
        <time>2015-12-05T14:39:02Z</time>
      </trkpt>
      <trkpt lat="47.32629" lon="-1.87463">
        <ele>38</ele>
        <time>2015-12-05T14:39:03Z</time>
      </trkpt>
      <trkpt lat="47.3262" lon="-1.8746">
        <ele>37</ele>
        <time>2015-12-05T14:39:04Z</time>
      </trkpt>
      <trkpt lat="47.32608" lon="-1.87468">
        <ele>37</ele>
        <time>2015-12-05T14:39:05Z</time>
      </trkpt>
      <trkpt lat="47.32597" lon="-1.87472">
        <ele>36</ele>
        <time>2015-12-05T14:39:06Z</time>
      </trkpt>
      <trkpt lat="47.32586" lon="-1.87474">
        <ele>35</ele>
        <time>2015-12-05T14:39:07Z</time>
      </trkpt>
      <trkpt lat="47.32578" lon="-1.87477">
        <ele>30</ele>
        <time>2015-12-05T14:39:08Z</time>
      </trkpt>
      <trkpt lat="47.32569" lon="-1.87479">
        <ele>30</ele>
        <time>2015-12-05T14:39:09Z</time>
      </trkpt>
      <trkpt lat="47.32568" lon="-1.87484">
        <ele>30</ele>
        <time>2015-12-05T14:39:10Z</time>
      </trkpt>
      <trkpt lat="47.3256" lon="-1.87482">
        <ele>30</ele>
        <time>2015-12-05T14:39:12Z</time>
      </trkpt>
      <trkpt lat="47.32556" lon="-1.87478">
        <ele>30</ele>
        <time>2015-12-05T14:39:13Z</time>
      </trkpt>
      <trkpt lat="47.32553" lon="-1.87473">
        <ele>29</ele>
        <time>2015-12-05T14:39:14Z</time>
      </trkpt>
      <trkpt lat="47.32552" lon="-1.87469">
        <ele>29</ele>
        <time>2015-12-05T14:39:15Z</time>
      </trkpt>
      <trkpt lat="47.32549" lon="-1.87464">
        <ele>29</ele>
        <time>2015-12-05T14:39:16Z</time>
      </trkpt>
      <trkpt lat="47.32551" lon="-1.87456">
        <ele>29</ele>
        <time>2015-12-05T14:39:17Z</time>
      </trkpt>
      <trkpt lat="47.32547" lon="-1.87455">
        <ele>29</ele>
        <time>2015-12-05T14:39:18Z</time>
      </trkpt>
      <trkpt lat="47.32544" lon="-1.87455">
        <ele>29</ele>
        <time>2015-12-05T14:39:19Z</time>
      </trkpt>
      <trkpt lat="47.32541" lon="-1.87454">
        <ele>29</ele>
        <time>2015-12-05T14:39:20Z</time>
      </trkpt>
      <trkpt lat="47.32546" lon="-1.87423">
        <ele>29</ele>
        <time>2015-12-05T14:39:22Z</time>
      </trkpt>
      <trkpt lat="47.32545" lon="-1.87415">
        <ele>30</ele>
        <time>2015-12-05T14:39:23Z</time>
      </trkpt>
      <trkpt lat="47.32541" lon="-1.8741">
        <ele>30</ele>
        <time>2015-12-05T14:39:24Z</time>
      </trkpt>
      <trkpt lat="47.32536" lon="-1.87405">
        <ele>30</ele>
        <time>2015-12-05T14:39:25Z</time>
      </trkpt>
      <trkpt lat="47.32535" lon="-1.87401">
        <ele>30</ele>
        <time>2015-12-05T14:39:26Z</time>
      </trkpt>
      <trkpt lat="47.32532" lon="-1.87396">
        <ele>30</ele>
        <time>2015-12-05T14:39:27Z</time>
      </trkpt>
      <trkpt lat="47.32529" lon="-1.87389">
        <ele>30</ele>
        <time>2015-12-05T14:39:29Z</time>
      </trkpt>
      <trkpt lat="47.32525" lon="-1.87387">
        <ele>29</ele>
        <time>2015-12-05T14:39:31Z</time>
      </trkpt>
      <trkpt lat="47.32523" lon="-1.87385">
        <ele>29</ele>
        <time>2015-12-05T14:39:32Z</time>
      </trkpt>
      <trkpt lat="47.3252" lon="-1.87376">
        <ele>30</ele>
        <time>2015-12-05T14:39:33Z</time>
      </trkpt>
      <trkpt lat="47.32518" lon="-1.8737">
        <ele>30</ele>
        <time>2015-12-05T14:39:35Z</time>
      </trkpt>
      <trkpt lat="47.32516" lon="-1.87352">
        <ele>30</ele>
        <time>2015-12-05T14:39:36Z</time>
      </trkpt>
      <trkpt lat="47.32517" lon="-1.87346">
        <ele>30</ele>
        <time>2015-12-05T14:39:39Z</time>
      </trkpt>
      <trkpt lat="47.3252" lon="-1.87342">
        <ele>30</ele>
        <time>2015-12-05T14:39:43Z</time>
      </trkpt>
      <trkpt lat="47.32522" lon="-1.87337">
        <ele>30</ele>
        <time>2015-12-05T14:39:45Z</time>
      </trkpt>
      <trkpt lat="47.32526" lon="-1.87335">
        <ele>30</ele>
        <time>2015-12-05T14:39:48Z</time>
      </trkpt>
      <trkpt lat="47.32529" lon="-1.87331">
        <ele>32</ele>
        <time>2015-12-05T14:39:49Z</time>
      </trkpt>
      <trkpt lat="47.32533" lon="-1.87327">
        <ele>32</ele>
        <time>2015-12-05T14:39:50Z</time>
      </trkpt>
      <trkpt lat="47.32535" lon="-1.87323">
        <ele>33</ele>
        <time>2015-12-05T14:39:51Z</time>
      </trkpt>
      <trkpt lat="47.32539" lon="-1.87318">
        <ele>33</ele>
        <time>2015-12-05T14:39:52Z</time>
      </trkpt>
      <trkpt lat="47.32541" lon="-1.87315">
        <ele>33</ele>
        <time>2015-12-05T14:39:53Z</time>
      </trkpt>
      <trkpt lat="47.32546" lon="-1.87309">
        <ele>33</ele>
        <time>2015-12-05T14:39:55Z</time>
      </trkpt>
      <trkpt lat="47.32549" lon="-1.87305">
        <ele>33</ele>
        <time>2015-12-05T14:39:57Z</time>
      </trkpt>
      <trkpt lat="47.32552" lon="-1.873">
        <ele>34</ele>
        <time>2015-12-05T14:39:58Z</time>
      </trkpt>
      <trkpt lat="47.32554" lon="-1.87296">
        <ele>34</ele>
        <time>2015-12-05T14:39:59Z</time>
      </trkpt>
      <trkpt lat="47.32557" lon="-1.8729">
        <ele>34</ele>
        <time>2015-12-05T14:40:01Z</time>
      </trkpt>
      <trkpt lat="47.32561" lon="-1.87285">
        <ele>34</ele>
        <time>2015-12-05T14:40:02Z</time>
      </trkpt>
      <trkpt lat="47.32565" lon="-1.87279">
        <ele>35</ele>
        <time>2015-12-05T14:40:04Z</time>
      </trkpt>
      <trkpt lat="47.32568" lon="-1.87275">
        <ele>35</ele>
        <time>2015-12-05T14:40:05Z</time>
      </trkpt>
      <trkpt lat="47.32571" lon="-1.8727">
        <ele>35</ele>
        <time>2015-12-05T14:40:07Z</time>
      </trkpt>
      <trkpt lat="47.32575" lon="-1.87266">
        <ele>35</ele>
        <time>2015-12-05T14:40:09Z</time>
      </trkpt>
      <trkpt lat="47.32578" lon="-1.87263">
        <ele>36</ele>
        <time>2015-12-05T14:40:11Z</time>
      </trkpt>
      <trkpt lat="47.32581" lon="-1.8726">
        <ele>36</ele>
        <time>2015-12-05T14:40:13Z</time>
      </trkpt>
      <trkpt lat="47.32582" lon="-1.87253">
        <ele>37</ele>
        <time>2015-12-05T14:40:17Z</time>
      </trkpt>
      <trkpt lat="47.32584" lon="-1.87247">
        <ele>38</ele>
        <time>2015-12-05T14:40:19Z</time>
      </trkpt>
      <trkpt lat="47.32586" lon="-1.87243">
        <ele>38</ele>
        <time>2015-12-05T14:40:20Z</time>
      </trkpt>
      <trkpt lat="47.32588" lon="-1.87239">
        <ele>39</ele>
        <time>2015-12-05T14:40:21Z</time>
      </trkpt>
      <trkpt lat="47.3259" lon="-1.87233">
        <ele>40</ele>
        <time>2015-12-05T14:40:22Z</time>
      </trkpt>
      <trkpt lat="47.32593" lon="-1.87226">
        <ele>41</ele>
        <time>2015-12-05T14:40:23Z</time>
      </trkpt>
      <trkpt lat="47.32596" lon="-1.87219">
        <ele>42</ele>
        <time>2015-12-05T14:40:24Z</time>
      </trkpt>
      <trkpt lat="47.32599" lon="-1.87212">
        <ele>42</ele>
        <time>2015-12-05T14:40:25Z</time>
      </trkpt>
      <trkpt lat="47.32602" lon="-1.87205">
        <ele>43</ele>
        <time>2015-12-05T14:40:26Z</time>
      </trkpt>
      <trkpt lat="47.32606" lon="-1.87199">
        <ele>43</ele>
        <time>2015-12-05T14:40:27Z</time>
      </trkpt>
      <trkpt lat="47.32609" lon="-1.87192">
        <ele>43</ele>
        <time>2015-12-05T14:40:28Z</time>
      </trkpt>
      <trkpt lat="47.32613" lon="-1.87185">
        <ele>43</ele>
        <time>2015-12-05T14:40:29Z</time>
      </trkpt>
      <trkpt lat="47.32617" lon="-1.87178">
        <ele>43</ele>
        <time>2015-12-05T14:40:30Z</time>
      </trkpt>
      <trkpt lat="47.32621" lon="-1.87172">
        <ele>43</ele>
        <time>2015-12-05T14:40:31Z</time>
      </trkpt>
      <trkpt lat="47.32625" lon="-1.87164">
        <ele>46</ele>
        <time>2015-12-05T14:40:32Z</time>
      </trkpt>
      <trkpt lat="47.32629" lon="-1.87159">
        <ele>46</ele>
        <time>2015-12-05T14:40:33Z</time>
      </trkpt>
      <trkpt lat="47.32632" lon="-1.87152">
        <ele>46</ele>
        <time>2015-12-05T14:40:34Z</time>
      </trkpt>
      <trkpt lat="47.32635" lon="-1.87147">
        <ele>46</ele>
        <time>2015-12-05T14:40:35Z</time>
      </trkpt>
      <trkpt lat="47.32638" lon="-1.87142">
        <ele>46</ele>
        <time>2015-12-05T14:40:36Z</time>
      </trkpt>
      <trkpt lat="47.32641" lon="-1.87138">
        <ele>46</ele>
        <time>2015-12-05T14:40:37Z</time>
      </trkpt>
      <trkpt lat="47.32643" lon="-1.87134">
        <ele>46</ele>
        <time>2015-12-05T14:40:38Z</time>
      </trkpt>
      <trkpt lat="47.32645" lon="-1.8713">
        <ele>47</ele>
        <time>2015-12-05T14:40:39Z</time>
      </trkpt>
      <trkpt lat="47.32647" lon="-1.87126">
        <ele>47</ele>
        <time>2015-12-05T14:40:40Z</time>
      </trkpt>
      <trkpt lat="47.32649" lon="-1.87122">
        <ele>47</ele>
        <time>2015-12-05T14:40:41Z</time>
      </trkpt>
      <trkpt lat="47.32652" lon="-1.87118">
        <ele>47</ele>
        <time>2015-12-05T14:40:42Z</time>
      </trkpt>
      <trkpt lat="47.32654" lon="-1.87113">
        <ele>47</ele>
        <time>2015-12-05T14:40:43Z</time>
      </trkpt>
      <trkpt lat="47.32657" lon="-1.87109">
        <ele>47</ele>
        <time>2015-12-05T14:40:44Z</time>
      </trkpt>
      <trkpt lat="47.3266" lon="-1.87105">
        <ele>47</ele>
        <time>2015-12-05T14:40:45Z</time>
      </trkpt>
      <trkpt lat="47.32662" lon="-1.87101">
        <ele>47</ele>
        <time>2015-12-05T14:40:46Z</time>
      </trkpt>
      <trkpt lat="47.32665" lon="-1.87098">
        <ele>47</ele>
        <time>2015-12-05T14:40:47Z</time>
      </trkpt>
      <trkpt lat="47.32667" lon="-1.87096">
        <ele>47</ele>
        <time>2015-12-05T14:40:48Z</time>
      </trkpt>
      <trkpt lat="47.3267" lon="-1.87094">
        <ele>47</ele>
        <time>2015-12-05T14:40:50Z</time>
      </trkpt>
      <trkpt lat="47.32673" lon="-1.87092">
        <ele>47</ele>
        <time>2015-12-05T14:40:52Z</time>
      </trkpt>
      <trkpt lat="47.32675" lon="-1.87088">
        <ele>47</ele>
        <time>2015-12-05T14:40:54Z</time>
      </trkpt>
      <trkpt lat="47.32678" lon="-1.87087">
        <ele>47</ele>
        <time>2015-12-05T14:40:56Z</time>
      </trkpt>
      <trkpt lat="47.32682" lon="-1.87084">
        <ele>47</ele>
        <time>2015-12-05T14:40:58Z</time>
      </trkpt>
      <trkpt lat="47.32684" lon="-1.87082">
        <ele>48</ele>
        <time>2015-12-05T14:40:59Z</time>
      </trkpt>
      <trkpt lat="47.32687" lon="-1.87081">
        <ele>48</ele>
        <time>2015-12-05T14:41:00Z</time>
      </trkpt>
      <trkpt lat="47.32691" lon="-1.8708">
        <ele>48</ele>
        <time>2015-12-05T14:41:01Z</time>
      </trkpt>
      <trkpt lat="47.32693" lon="-1.8708">
        <ele>48</ele>
        <time>2015-12-05T14:41:02Z</time>
      </trkpt>
      <trkpt lat="47.32696" lon="-1.8708">
        <ele>48</ele>
        <time>2015-12-05T14:41:03Z</time>
      </trkpt>
      <trkpt lat="47.32699" lon="-1.8708">
        <ele>48</ele>
        <time>2015-12-05T14:41:04Z</time>
      </trkpt>
      <trkpt lat="47.32702" lon="-1.87078">
        <ele>48</ele>
        <time>2015-12-05T14:41:05Z</time>
      </trkpt>
      <trkpt lat="47.32705" lon="-1.87077">
        <ele>48</ele>
        <time>2015-12-05T14:41:06Z</time>
      </trkpt>
      <trkpt lat="47.32708" lon="-1.87075">
        <ele>48</ele>
        <time>2015-12-05T14:41:07Z</time>
      </trkpt>
      <trkpt lat="47.3271" lon="-1.87073">
        <ele>49</ele>
        <time>2015-12-05T14:41:08Z</time>
      </trkpt>
      <trkpt lat="47.32713" lon="-1.87071">
        <ele>49</ele>
        <time>2015-12-05T14:41:09Z</time>
      </trkpt>
      <trkpt lat="47.32717" lon="-1.87069">
        <ele>49</ele>
        <time>2015-12-05T14:41:11Z</time>
      </trkpt>
      <trkpt lat="47.32721" lon="-1.87067">
        <ele>49</ele>
        <time>2015-12-05T14:41:13Z</time>
      </trkpt>
      <trkpt lat="47.32726" lon="-1.87063">
        <ele>49</ele>
        <time>2015-12-05T14:41:15Z</time>
      </trkpt>
      <trkpt lat="47.32728" lon="-1.8706">
        <ele>49</ele>
        <time>2015-12-05T14:41:16Z</time>
      </trkpt>
      <trkpt lat="47.3273" lon="-1.87057">
        <ele>49</ele>
        <time>2015-12-05T14:41:17Z</time>
      </trkpt>
      <trkpt lat="47.32733" lon="-1.87053">
        <ele>49</ele>
        <time>2015-12-05T14:41:18Z</time>
      </trkpt>
      <trkpt lat="47.32736" lon="-1.87049">
        <ele>49</ele>
        <time>2015-12-05T14:41:19Z</time>
      </trkpt>
      <trkpt lat="47.3274" lon="-1.87045">
        <ele>49</ele>
        <time>2015-12-05T14:41:20Z</time>
      </trkpt>
      <trkpt lat="47.32743" lon="-1.87041">
        <ele>49</ele>
        <time>2015-12-05T14:41:21Z</time>
      </trkpt>
      <trkpt lat="47.32746" lon="-1.87037">
        <ele>49</ele>
        <time>2015-12-05T14:41:22Z</time>
      </trkpt>
      <trkpt lat="47.3275" lon="-1.87034">
        <ele>49</ele>
        <time>2015-12-05T14:41:23Z</time>
      </trkpt>
      <trkpt lat="47.32753" lon="-1.87031">
        <ele>51</ele>
        <time>2015-12-05T14:41:24Z</time>
      </trkpt>
      <trkpt lat="47.32756" lon="-1.87028">
        <ele>51</ele>
        <time>2015-12-05T14:41:25Z</time>
      </trkpt>
      <trkpt lat="47.32759" lon="-1.87025">
        <ele>51</ele>
        <time>2015-12-05T14:41:26Z</time>
      </trkpt>
      <trkpt lat="47.32762" lon="-1.87022">
        <ele>51</ele>
        <time>2015-12-05T14:41:27Z</time>
      </trkpt>
      <trkpt lat="47.32765" lon="-1.87019">
        <ele>51</ele>
        <time>2015-12-05T14:41:28Z</time>
      </trkpt>
      <trkpt lat="47.32767" lon="-1.87016">
        <ele>51</ele>
        <time>2015-12-05T14:41:29Z</time>
      </trkpt>
      <trkpt lat="47.32769" lon="-1.87014">
        <ele>51</ele>
        <time>2015-12-05T14:41:30Z</time>
      </trkpt>
      <trkpt lat="47.32772" lon="-1.87012">
        <ele>51</ele>
        <time>2015-12-05T14:41:31Z</time>
      </trkpt>
      <trkpt lat="47.32775" lon="-1.87008">
        <ele>51</ele>
        <time>2015-12-05T14:41:32Z</time>
      </trkpt>
      <trkpt lat="47.32777" lon="-1.87003">
        <ele>51</ele>
        <time>2015-12-05T14:41:33Z</time>
      </trkpt>
      <trkpt lat="47.32779" lon="-1.86999">
        <ele>52</ele>
        <time>2015-12-05T14:41:34Z</time>
      </trkpt>
      <trkpt lat="47.32782" lon="-1.86994">
        <ele>52</ele>
        <time>2015-12-05T14:41:35Z</time>
      </trkpt>
      <trkpt lat="47.32785" lon="-1.8699">
        <ele>52</ele>
        <time>2015-12-05T14:41:36Z</time>
      </trkpt>
      <trkpt lat="47.32787" lon="-1.86986">
        <ele>52</ele>
        <time>2015-12-05T14:41:37Z</time>
      </trkpt>
      <trkpt lat="47.3279" lon="-1.86983">
        <ele>52</ele>
        <time>2015-12-05T14:41:38Z</time>
      </trkpt>
      <trkpt lat="47.32793" lon="-1.86979">
        <ele>53</ele>
        <time>2015-12-05T14:41:39Z</time>
      </trkpt>
      <trkpt lat="47.32795" lon="-1.86975">
        <ele>53</ele>
        <time>2015-12-05T14:41:40Z</time>
      </trkpt>
      <trkpt lat="47.32797" lon="-1.86971">
        <ele>53</ele>
        <time>2015-12-05T14:41:41Z</time>
      </trkpt>
      <trkpt lat="47.32801" lon="-1.86966">
        <ele>53</ele>
        <time>2015-12-05T14:41:43Z</time>
      </trkpt>
      <trkpt lat="47.32803" lon="-1.86959">
        <ele>53</ele>
        <time>2015-12-05T14:41:45Z</time>
      </trkpt>
      <trkpt lat="47.32805" lon="-1.86952">
        <ele>53</ele>
        <time>2015-12-05T14:41:47Z</time>
      </trkpt>
      <trkpt lat="47.32807" lon="-1.86945">
        <ele>53</ele>
        <time>2015-12-05T14:41:49Z</time>
      </trkpt>
      <trkpt lat="47.3281" lon="-1.86939">
        <ele>53</ele>
        <time>2015-12-05T14:41:51Z</time>
      </trkpt>
      <trkpt lat="47.32812" lon="-1.86935">
        <ele>53</ele>
        <time>2015-12-05T14:41:52Z</time>
      </trkpt>
      <trkpt lat="47.32815" lon="-1.86928">
        <ele>53</ele>
        <time>2015-12-05T14:41:54Z</time>
      </trkpt>
      <trkpt lat="47.32817" lon="-1.86922">
        <ele>53</ele>
        <time>2015-12-05T14:41:56Z</time>
      </trkpt>
      <trkpt lat="47.3282" lon="-1.86918">
        <ele>53</ele>
        <time>2015-12-05T14:41:58Z</time>
      </trkpt>
      <trkpt lat="47.32822" lon="-1.86913">
        <ele>54</ele>
        <time>2015-12-05T14:42:00Z</time>
      </trkpt>
      <trkpt lat="47.32824" lon="-1.86909">
        <ele>54</ele>
        <time>2015-12-05T14:42:02Z</time>
      </trkpt>
      <trkpt lat="47.32827" lon="-1.86906">
        <ele>55</ele>
        <time>2015-12-05T14:42:04Z</time>
      </trkpt>
      <trkpt lat="47.32829" lon="-1.86902">
        <ele>55</ele>
        <time>2015-12-05T14:42:06Z</time>
      </trkpt>
      <trkpt lat="47.32832" lon="-1.86897">
        <ele>55</ele>
        <time>2015-12-05T14:42:08Z</time>
      </trkpt>
      <trkpt lat="47.32834" lon="-1.86893">
        <ele>54</ele>
        <time>2015-12-05T14:42:10Z</time>
      </trkpt>
      <trkpt lat="47.32837" lon="-1.86889">
        <ele>55</ele>
        <time>2015-12-05T14:42:12Z</time>
      </trkpt>
      <trkpt lat="47.3284" lon="-1.86885">
        <ele>55</ele>
        <time>2015-12-05T14:42:14Z</time>
      </trkpt>
      <trkpt lat="47.32844" lon="-1.86882">
        <ele>55</ele>
        <time>2015-12-05T14:42:16Z</time>
      </trkpt>
      <trkpt lat="47.32847" lon="-1.86879">
        <ele>55</ele>
        <time>2015-12-05T14:42:18Z</time>
      </trkpt>
      <trkpt lat="47.3285" lon="-1.86875">
        <ele>56</ele>
        <time>2015-12-05T14:42:20Z</time>
      </trkpt>
      <trkpt lat="47.32853" lon="-1.86871">
        <ele>56</ele>
        <time>2015-12-05T14:42:22Z</time>
      </trkpt>
      <trkpt lat="47.32857" lon="-1.86867">
        <ele>56</ele>
        <time>2015-12-05T14:42:24Z</time>
      </trkpt>
      <trkpt lat="47.32859" lon="-1.86864">
        <ele>56</ele>
        <time>2015-12-05T14:42:25Z</time>
      </trkpt>
      <trkpt lat="47.32864" lon="-1.8686">
        <ele>56</ele>
        <time>2015-12-05T14:42:27Z</time>
      </trkpt>
      <trkpt lat="47.32866" lon="-1.86857">
        <ele>56</ele>
        <time>2015-12-05T14:42:28Z</time>
      </trkpt>
      <trkpt lat="47.3287" lon="-1.86854">
        <ele>56</ele>
        <time>2015-12-05T14:42:30Z</time>
      </trkpt>
      <trkpt lat="47.32873" lon="-1.86851">
        <ele>56</ele>
        <time>2015-12-05T14:42:32Z</time>
      </trkpt>
      <trkpt lat="47.32877" lon="-1.8685">
        <ele>56</ele>
        <time>2015-12-05T14:42:34Z</time>
      </trkpt>
      <trkpt lat="47.3288" lon="-1.86849">
        <ele>56</ele>
        <time>2015-12-05T14:42:36Z</time>
      </trkpt>
      <trkpt lat="47.32883" lon="-1.86849">
        <ele>56</ele>
        <time>2015-12-05T14:42:38Z</time>
      </trkpt>
      <trkpt lat="47.32886" lon="-1.86847">
        <ele>56</ele>
        <time>2015-12-05T14:42:40Z</time>
      </trkpt>
      <trkpt lat="47.32889" lon="-1.86846">
        <ele>55</ele>
        <time>2015-12-05T14:42:42Z</time>
      </trkpt>
      <trkpt lat="47.32891" lon="-1.86842">
        <ele>55</ele>
        <time>2015-12-05T14:42:43Z</time>
      </trkpt>
      <trkpt lat="47.32894" lon="-1.86839">
        <ele>55</ele>
        <time>2015-12-05T14:42:45Z</time>
      </trkpt>
      <trkpt lat="47.32897" lon="-1.86835">
        <ele>55</ele>
        <time>2015-12-05T14:42:47Z</time>
      </trkpt>
      <trkpt lat="47.32901" lon="-1.86834">
        <ele>55</ele>
        <time>2015-12-05T14:42:49Z</time>
      </trkpt>
      <trkpt lat="47.32904" lon="-1.86834">
        <ele>55</ele>
        <time>2015-12-05T14:42:51Z</time>
      </trkpt>
      <trkpt lat="47.32909" lon="-1.8683">
        <ele>55</ele>
        <time>2015-12-05T14:42:53Z</time>
      </trkpt>
      <trkpt lat="47.32915" lon="-1.86823">
        <ele>56</ele>
        <time>2015-12-05T14:42:56Z</time>
      </trkpt>
      <trkpt lat="47.32917" lon="-1.86819">
        <ele>56</ele>
        <time>2015-12-05T14:42:57Z</time>
      </trkpt>
      <trkpt lat="47.3292" lon="-1.86816">
        <ele>56</ele>
        <time>2015-12-05T14:42:58Z</time>
      </trkpt>
      <trkpt lat="47.32922" lon="-1.86813">
        <ele>56</ele>
        <time>2015-12-05T14:42:59Z</time>
      </trkpt>
      <trkpt lat="47.32925" lon="-1.8681">
        <ele>56</ele>
        <time>2015-12-05T14:43:00Z</time>
      </trkpt>
      <trkpt lat="47.32926" lon="-1.86805">
        <ele>57</ele>
        <time>2015-12-05T14:43:01Z</time>
      </trkpt>
      <trkpt lat="47.32927" lon="-1.86801">
        <ele>57</ele>
        <time>2015-12-05T14:43:03Z</time>
      </trkpt>
      <trkpt lat="47.32929" lon="-1.86797">
        <ele>57</ele>
        <time>2015-12-05T14:43:04Z</time>
      </trkpt>
      <trkpt lat="47.3293" lon="-1.86793">
        <ele>57</ele>
        <time>2015-12-05T14:43:05Z</time>
      </trkpt>
      <trkpt lat="47.32931" lon="-1.86788">
        <ele>58</ele>
        <time>2015-12-05T14:43:07Z</time>
      </trkpt>
      <trkpt lat="47.32932" lon="-1.86784">
        <ele>58</ele>
        <time>2015-12-05T14:43:08Z</time>
      </trkpt>
      <trkpt lat="47.32933" lon="-1.8678">
        <ele>58</ele>
        <time>2015-12-05T14:43:09Z</time>
      </trkpt>
      <trkpt lat="47.32932" lon="-1.86774">
        <ele>58</ele>
        <time>2015-12-05T14:43:11Z</time>
      </trkpt>
      <trkpt lat="47.32931" lon="-1.86768">
        <ele>58</ele>
        <time>2015-12-05T14:43:13Z</time>
      </trkpt>
      <trkpt lat="47.32931" lon="-1.86763">
        <ele>58</ele>
        <time>2015-12-05T14:43:15Z</time>
      </trkpt>
      <trkpt lat="47.32931" lon="-1.86757">
        <ele>58</ele>
        <time>2015-12-05T14:43:17Z</time>
      </trkpt>
      <trkpt lat="47.32933" lon="-1.86751">
        <ele>58</ele>
        <time>2015-12-05T14:43:19Z</time>
      </trkpt>
      <trkpt lat="47.32931" lon="-1.86748">
        <ele>60</ele>
        <time>2015-12-05T14:43:21Z</time>
      </trkpt>
      <trkpt lat="47.32929" lon="-1.86743">
        <ele>60</ele>
        <time>2015-12-05T14:43:23Z</time>
      </trkpt>
      <trkpt lat="47.32927" lon="-1.86739">
        <ele>60</ele>
        <time>2015-12-05T14:43:25Z</time>
      </trkpt>
      <trkpt lat="47.32929" lon="-1.86732">
        <ele>60</ele>
        <time>2015-12-05T14:43:27Z</time>
      </trkpt>
      <trkpt lat="47.32928" lon="-1.86728">
        <ele>61</ele>
        <time>2015-12-05T14:43:29Z</time>
      </trkpt>
      <trkpt lat="47.32929" lon="-1.86724">
        <ele>61</ele>
        <time>2015-12-05T14:43:30Z</time>
      </trkpt>
      <trkpt lat="47.32928" lon="-1.8672">
        <ele>61</ele>
        <time>2015-12-05T14:43:32Z</time>
      </trkpt>
      <trkpt lat="47.32928" lon="-1.86715">
        <ele>61</ele>
        <time>2015-12-05T14:43:33Z</time>
      </trkpt>
      <trkpt lat="47.32927" lon="-1.86711">
        <ele>61</ele>
        <time>2015-12-05T14:43:35Z</time>
      </trkpt>
      <trkpt lat="47.32928" lon="-1.86705">
        <ele>61</ele>
        <time>2015-12-05T14:43:36Z</time>
      </trkpt>
      <trkpt lat="47.32927" lon="-1.867">
        <ele>62</ele>
        <time>2015-12-05T14:43:38Z</time>
      </trkpt>
      <trkpt lat="47.32928" lon="-1.86696">
        <ele>62</ele>
        <time>2015-12-05T14:43:39Z</time>
      </trkpt>
      <trkpt lat="47.32929" lon="-1.8669">
        <ele>62</ele>
        <time>2015-12-05T14:43:40Z</time>
      </trkpt>
      <trkpt lat="47.3293" lon="-1.86686">
        <ele>62</ele>
        <time>2015-12-05T14:43:41Z</time>
      </trkpt>
      <trkpt lat="47.3293" lon="-1.86682">
        <ele>62</ele>
        <time>2015-12-05T14:43:42Z</time>
      </trkpt>
      <trkpt lat="47.32931" lon="-1.86676">
        <ele>62</ele>
        <time>2015-12-05T14:43:44Z</time>
      </trkpt>
      <trkpt lat="47.32932" lon="-1.86669">
        <ele>62</ele>
        <time>2015-12-05T14:43:46Z</time>
      </trkpt>
      <trkpt lat="47.32933" lon="-1.86664">
        <ele>64</ele>
        <time>2015-12-05T14:43:48Z</time>
      </trkpt>
      <trkpt lat="47.32933" lon="-1.86659">
        <ele>64</ele>
        <time>2015-12-05T14:43:50Z</time>
      </trkpt>
      <trkpt lat="47.32934" lon="-1.86653">
        <ele>64</ele>
        <time>2015-12-05T14:43:52Z</time>
      </trkpt>
      <trkpt lat="47.32936" lon="-1.86649">
        <ele>65</ele>
        <time>2015-12-05T14:43:54Z</time>
      </trkpt>
      <trkpt lat="47.3294" lon="-1.86643">
        <ele>65</ele>
        <time>2015-12-05T14:43:56Z</time>
      </trkpt>
      <trkpt lat="47.32942" lon="-1.86639">
        <ele>65</ele>
        <time>2015-12-05T14:43:58Z</time>
      </trkpt>
      <trkpt lat="47.32944" lon="-1.86636">
        <ele>65</ele>
        <time>2015-12-05T14:43:59Z</time>
      </trkpt>
      <trkpt lat="47.32946" lon="-1.86632">
        <ele>65</ele>
        <time>2015-12-05T14:44:01Z</time>
      </trkpt>
      <trkpt lat="47.32947" lon="-1.86626">
        <ele>65</ele>
        <time>2015-12-05T14:44:02Z</time>
      </trkpt>
      <trkpt lat="47.32948" lon="-1.86621">
        <ele>65</ele>
        <time>2015-12-05T14:44:04Z</time>
      </trkpt>
      <trkpt lat="47.3295" lon="-1.86615">
        <ele>66</ele>
        <time>2015-12-05T14:44:05Z</time>
      </trkpt>
      <trkpt lat="47.32952" lon="-1.86611">
        <ele>66</ele>
        <time>2015-12-05T14:44:06Z</time>
      </trkpt>
      <trkpt lat="47.32953" lon="-1.86603">
        <ele>66</ele>
        <time>2015-12-05T14:44:08Z</time>
      </trkpt>
      <trkpt lat="47.32954" lon="-1.86598">
        <ele>66</ele>
        <time>2015-12-05T14:44:09Z</time>
      </trkpt>
      <trkpt lat="47.32956" lon="-1.86593">
        <ele>66</ele>
        <time>2015-12-05T14:44:11Z</time>
      </trkpt>
      <trkpt lat="47.32958" lon="-1.86588">
        <ele>66</ele>
        <time>2015-12-05T14:44:13Z</time>
      </trkpt>
      <trkpt lat="47.32961" lon="-1.86583">
        <ele>68</ele>
        <time>2015-12-05T14:44:15Z</time>
      </trkpt>
      <trkpt lat="47.32964" lon="-1.86579">
        <ele>68</ele>
        <time>2015-12-05T14:44:17Z</time>
      </trkpt>
      <trkpt lat="47.32966" lon="-1.86574">
        <ele>68</ele>
        <time>2015-12-05T14:44:20Z</time>
      </trkpt>
      <trkpt lat="47.32968" lon="-1.8657">
        <ele>68</ele>
        <time>2015-12-05T14:44:22Z</time>
      </trkpt>
      <trkpt lat="47.32972" lon="-1.86565">
        <ele>68</ele>
        <time>2015-12-05T14:44:24Z</time>
      </trkpt>
      <trkpt lat="47.32974" lon="-1.86559">
        <ele>68</ele>
        <time>2015-12-05T14:44:26Z</time>
      </trkpt>
      <trkpt lat="47.32977" lon="-1.86553">
        <ele>68</ele>
        <time>2015-12-05T14:44:28Z</time>
      </trkpt>
      <trkpt lat="47.32978" lon="-1.86548">
        <ele>68</ele>
        <time>2015-12-05T14:44:30Z</time>
      </trkpt>
      <trkpt lat="47.32975" lon="-1.86544">
        <ele>68</ele>
        <time>2015-12-05T14:44:32Z</time>
      </trkpt>
      <trkpt lat="47.32972" lon="-1.86543">
        <ele>68</ele>
        <time>2015-12-05T14:44:33Z</time>
      </trkpt>
      <trkpt lat="47.32969" lon="-1.86544">
        <ele>68</ele>
        <time>2015-12-05T14:44:34Z</time>
      </trkpt>
      <trkpt lat="47.32965" lon="-1.86545">
        <ele>68</ele>
        <time>2015-12-05T14:44:35Z</time>
      </trkpt>
      <trkpt lat="47.32962" lon="-1.86546">
        <ele>68</ele>
        <time>2015-12-05T14:44:36Z</time>
      </trkpt>
      <trkpt lat="47.32959" lon="-1.86547">
        <ele>68</ele>
        <time>2015-12-05T14:44:37Z</time>
      </trkpt>
      <trkpt lat="47.32955" lon="-1.86548">
        <ele>68</ele>
        <time>2015-12-05T14:44:38Z</time>
      </trkpt>
      <trkpt lat="47.32952" lon="-1.86549">
        <ele>68</ele>
        <time>2015-12-05T14:44:39Z</time>
      </trkpt>
      <trkpt lat="47.32949" lon="-1.86549">
        <ele>68</ele>
        <time>2015-12-05T14:44:40Z</time>
      </trkpt>
      <trkpt lat="47.32943" lon="-1.8655">
        <ele>68</ele>
        <time>2015-12-05T14:44:42Z</time>
      </trkpt>
      <trkpt lat="47.3294" lon="-1.86551">
        <ele>68</ele>
        <time>2015-12-05T14:44:43Z</time>
      </trkpt>
      <trkpt lat="47.32938" lon="-1.86551">
        <ele>67</ele>
        <time>2015-12-05T14:44:44Z</time>
      </trkpt>
      <trkpt lat="47.32934" lon="-1.86552">
        <ele>67</ele>
        <time>2015-12-05T14:44:45Z</time>
      </trkpt>
      <trkpt lat="47.32932" lon="-1.86552">
        <ele>67</ele>
        <time>2015-12-05T14:44:46Z</time>
      </trkpt>
      <trkpt lat="47.32929" lon="-1.8655">
        <ele>67</ele>
        <time>2015-12-05T14:44:47Z</time>
      </trkpt>
      <trkpt lat="47.32927" lon="-1.86547">
        <ele>67</ele>
        <time>2015-12-05T14:44:49Z</time>
      </trkpt>
      <trkpt lat="47.32929" lon="-1.86543">
        <ele>68</ele>
        <time>2015-12-05T14:44:53Z</time>
      </trkpt>
      <trkpt lat="47.32925" lon="-1.86535">
        <ele>68</ele>
        <time>2015-12-05T14:46:37Z</time>
      </trkpt>
      <trkpt lat="47.32924" lon="-1.86532">
        <ele>68</ele>
        <time>2015-12-05T14:46:40Z</time>
      </trkpt>
      <trkpt lat="47.32923" lon="-1.86528">
        <ele>68</ele>
        <time>2015-12-05T14:46:42Z</time>
      </trkpt>
      <trkpt lat="47.32922" lon="-1.86522">
        <ele>68</ele>
        <time>2015-12-05T14:46:44Z</time>
      </trkpt>
      <trkpt lat="47.3292" lon="-1.86511">
        <ele>68</ele>
        <time>2015-12-05T14:46:46Z</time>
      </trkpt>
      <trkpt lat="47.32919" lon="-1.86506">
        <ele>68</ele>
        <time>2015-12-05T14:46:47Z</time>
      </trkpt>
      <trkpt lat="47.32918" lon="-1.86502">
        <ele>68</ele>
        <time>2015-12-05T14:46:48Z</time>
      </trkpt>
      <trkpt lat="47.32917" lon="-1.86497">
        <ele>68</ele>
        <time>2015-12-05T14:46:49Z</time>
      </trkpt>
      <trkpt lat="47.32916" lon="-1.86493">
        <ele>68</ele>
        <time>2015-12-05T14:46:50Z</time>
      </trkpt>
      <trkpt lat="47.32915" lon="-1.86489">
        <ele>68</ele>
        <time>2015-12-05T14:46:51Z</time>
      </trkpt>
      <trkpt lat="47.32914" lon="-1.86481">
        <ele>68</ele>
        <time>2015-12-05T14:46:52Z</time>
      </trkpt>
      <trkpt lat="47.32913" lon="-1.86476">
        <ele>68</ele>
        <time>2015-12-05T14:46:53Z</time>
      </trkpt>
      <trkpt lat="47.32912" lon="-1.86471">
        <ele>68</ele>
        <time>2015-12-05T14:46:54Z</time>
      </trkpt>
      <trkpt lat="47.32911" lon="-1.86467">
        <ele>68</ele>
        <time>2015-12-05T14:46:55Z</time>
      </trkpt>
      <trkpt lat="47.32911" lon="-1.8646">
        <ele>68</ele>
        <time>2015-12-05T14:46:56Z</time>
      </trkpt>
      <trkpt lat="47.3291" lon="-1.86455">
        <ele>68</ele>
        <time>2015-12-05T14:46:57Z</time>
      </trkpt>
      <trkpt lat="47.32909" lon="-1.8645">
        <ele>68</ele>
        <time>2015-12-05T14:46:58Z</time>
      </trkpt>
      <trkpt lat="47.32908" lon="-1.86442">
        <ele>68</ele>
        <time>2015-12-05T14:46:59Z</time>
      </trkpt>
      <trkpt lat="47.32907" lon="-1.86437">
        <ele>68</ele>
        <time>2015-12-05T14:47:00Z</time>
      </trkpt>
      <trkpt lat="47.32906" lon="-1.86432">
        <ele>68</ele>
        <time>2015-12-05T14:47:01Z</time>
      </trkpt>
      <trkpt lat="47.32904" lon="-1.86426">
        <ele>68</ele>
        <time>2015-12-05T14:47:02Z</time>
      </trkpt>
      <trkpt lat="47.32903" lon="-1.86421">
        <ele>68</ele>
        <time>2015-12-05T14:47:03Z</time>
      </trkpt>
      <trkpt lat="47.32902" lon="-1.86416">
        <ele>68</ele>
        <time>2015-12-05T14:47:04Z</time>
      </trkpt>
      <trkpt lat="47.32901" lon="-1.86409">
        <ele>68</ele>
        <time>2015-12-05T14:47:05Z</time>
      </trkpt>
      <trkpt lat="47.32899" lon="-1.86404">
        <ele>68</ele>
        <time>2015-12-05T14:47:06Z</time>
      </trkpt>
      <trkpt lat="47.32898" lon="-1.86399">
        <ele>68</ele>
        <time>2015-12-05T14:47:07Z</time>
      </trkpt>
      <trkpt lat="47.32891" lon="-1.86374">
        <ele>67</ele>
        <time>2015-12-05T14:47:09Z</time>
      </trkpt>
      <trkpt lat="47.32889" lon="-1.86367">
        <ele>67</ele>
        <time>2015-12-05T14:47:10Z</time>
      </trkpt>
      <trkpt lat="47.32888" lon="-1.86361">
        <ele>67</ele>
        <time>2015-12-05T14:47:11Z</time>
      </trkpt>
      <trkpt lat="47.32887" lon="-1.86354">
        <ele>67</ele>
        <time>2015-12-05T14:47:12Z</time>
      </trkpt>
      <trkpt lat="47.32885" lon="-1.86348">
        <ele>67</ele>
        <time>2015-12-05T14:47:13Z</time>
      </trkpt>
      <trkpt lat="47.32885" lon="-1.86341">
        <ele>67</ele>
        <time>2015-12-05T14:47:14Z</time>
      </trkpt>
      <trkpt lat="47.32884" lon="-1.86329">
        <ele>67</ele>
        <time>2015-12-05T14:47:15Z</time>
      </trkpt>
      <trkpt lat="47.32882" lon="-1.86322">
        <ele>67</ele>
        <time>2015-12-05T14:47:16Z</time>
      </trkpt>
      <trkpt lat="47.32879" lon="-1.86314">
        <ele>66</ele>
        <time>2015-12-05T14:47:17Z</time>
      </trkpt>
      <trkpt lat="47.32878" lon="-1.86308">
        <ele>66</ele>
        <time>2015-12-05T14:47:18Z</time>
      </trkpt>
      <trkpt lat="47.32876" lon="-1.86301">
        <ele>66</ele>
        <time>2015-12-05T14:47:19Z</time>
      </trkpt>
      <trkpt lat="47.32874" lon="-1.86294">
        <ele>66</ele>
        <time>2015-12-05T14:47:20Z</time>
      </trkpt>
      <trkpt lat="47.32874" lon="-1.86286">
        <ele>66</ele>
        <time>2015-12-05T14:47:21Z</time>
      </trkpt>
      <trkpt lat="47.32872" lon="-1.86279">
        <ele>66</ele>
        <time>2015-12-05T14:47:22Z</time>
      </trkpt>
      <trkpt lat="47.32871" lon="-1.86272">
        <ele>66</ele>
        <time>2015-12-05T14:47:23Z</time>
      </trkpt>
      <trkpt lat="47.3287" lon="-1.86266">
        <ele>66</ele>
        <time>2015-12-05T14:47:24Z</time>
      </trkpt>
      <trkpt lat="47.32869" lon="-1.86259">
        <ele>66</ele>
        <time>2015-12-05T14:47:25Z</time>
      </trkpt>
      <trkpt lat="47.32868" lon="-1.86252">
        <ele>66</ele>
        <time>2015-12-05T14:47:26Z</time>
      </trkpt>
      <trkpt lat="47.32867" lon="-1.86247">
        <ele>66</ele>
        <time>2015-12-05T14:47:27Z</time>
      </trkpt>
      <trkpt lat="47.32865" lon="-1.86239">
        <ele>66</ele>
        <time>2015-12-05T14:47:28Z</time>
      </trkpt>
      <trkpt lat="47.32863" lon="-1.86233">
        <ele>66</ele>
        <time>2015-12-05T14:47:29Z</time>
      </trkpt>
      <trkpt lat="47.32863" lon="-1.86227">
        <ele>66</ele>
        <time>2015-12-05T14:47:30Z</time>
      </trkpt>
      <trkpt lat="47.32864" lon="-1.86221">
        <ele>66</ele>
        <time>2015-12-05T14:47:31Z</time>
      </trkpt>
      <trkpt lat="47.32867" lon="-1.86216">
        <ele>67</ele>
        <time>2015-12-05T14:47:32Z</time>
      </trkpt>
      <trkpt lat="47.32872" lon="-1.86214">
        <ele>67</ele>
        <time>2015-12-05T14:47:33Z</time>
      </trkpt>
      <trkpt lat="47.32876" lon="-1.86213">
        <ele>67</ele>
        <time>2015-12-05T14:47:34Z</time>
      </trkpt>
      <trkpt lat="47.3288" lon="-1.86211">
        <ele>67</ele>
        <time>2015-12-05T14:47:35Z</time>
      </trkpt>
      <trkpt lat="47.32885" lon="-1.8621">
        <ele>67</ele>
        <time>2015-12-05T14:47:36Z</time>
      </trkpt>
      <trkpt lat="47.32889" lon="-1.86209">
        <ele>67</ele>
        <time>2015-12-05T14:47:37Z</time>
      </trkpt>
      <trkpt lat="47.32894" lon="-1.86208">
        <ele>67</ele>
        <time>2015-12-05T14:47:38Z</time>
      </trkpt>
      <trkpt lat="47.32898" lon="-1.86206">
        <ele>67</ele>
        <time>2015-12-05T14:47:39Z</time>
      </trkpt>
      <trkpt lat="47.32902" lon="-1.86205">
        <ele>67</ele>
        <time>2015-12-05T14:47:40Z</time>
      </trkpt>
      <trkpt lat="47.32907" lon="-1.86204">
        <ele>67</ele>
        <time>2015-12-05T14:47:41Z</time>
      </trkpt>
      <trkpt lat="47.32911" lon="-1.86203">
        <ele>67</ele>
        <time>2015-12-05T14:47:42Z</time>
      </trkpt>
      <trkpt lat="47.32915" lon="-1.86201">
        <ele>68</ele>
        <time>2015-12-05T14:47:43Z</time>
      </trkpt>
      <trkpt lat="47.3292" lon="-1.862">
        <ele>70</ele>
        <time>2015-12-05T14:47:44Z</time>
      </trkpt>
      <trkpt lat="47.32924" lon="-1.86198">
        <ele>70</ele>
        <time>2015-12-05T14:47:45Z</time>
      </trkpt>
      <trkpt lat="47.3293" lon="-1.86194">
        <ele>70</ele>
        <time>2015-12-05T14:47:46Z</time>
      </trkpt>
      <trkpt lat="47.32934" lon="-1.86193">
        <ele>70</ele>
        <time>2015-12-05T14:47:47Z</time>
      </trkpt>
      <trkpt lat="47.32938" lon="-1.86191">
        <ele>70</ele>
        <time>2015-12-05T14:47:48Z</time>
      </trkpt>
      <trkpt lat="47.32939" lon="-1.86185">
        <ele>70</ele>
        <time>2015-12-05T14:47:49Z</time>
      </trkpt>
      <trkpt lat="47.32942" lon="-1.86181">
        <ele>70</ele>
        <time>2015-12-05T14:47:50Z</time>
      </trkpt>
      <trkpt lat="47.32945" lon="-1.86177">
        <ele>70</ele>
        <time>2015-12-05T14:47:51Z</time>
      </trkpt>
      <trkpt lat="47.32942" lon="-1.86168">
        <ele>70</ele>
        <time>2015-12-05T14:47:52Z</time>
      </trkpt>
      <trkpt lat="47.32942" lon="-1.86162">
        <ele>70</ele>
        <time>2015-12-05T14:47:53Z</time>
      </trkpt>
      <trkpt lat="47.32942" lon="-1.86156">
        <ele>70</ele>
        <time>2015-12-05T14:47:54Z</time>
      </trkpt>
      <trkpt lat="47.32939" lon="-1.8615">
        <ele>70</ele>
        <time>2015-12-05T14:47:55Z</time>
      </trkpt>
      <trkpt lat="47.32938" lon="-1.86143">
        <ele>70</ele>
        <time>2015-12-05T14:47:56Z</time>
      </trkpt>
      <trkpt lat="47.32937" lon="-1.86136">
        <ele>70</ele>
        <time>2015-12-05T14:47:57Z</time>
      </trkpt>
      <trkpt lat="47.32937" lon="-1.86131">
        <ele>70</ele>
        <time>2015-12-05T14:47:58Z</time>
      </trkpt>
      <trkpt lat="47.32937" lon="-1.86124">
        <ele>70</ele>
        <time>2015-12-05T14:47:59Z</time>
      </trkpt>
      <trkpt lat="47.32935" lon="-1.86114">
        <ele>70</ele>
        <time>2015-12-05T14:48:00Z</time>
      </trkpt>
      <trkpt lat="47.32934" lon="-1.86106">
        <ele>69</ele>
        <time>2015-12-05T14:48:01Z</time>
      </trkpt>
      <trkpt lat="47.32933" lon="-1.86098">
        <ele>69</ele>
        <time>2015-12-05T14:48:02Z</time>
      </trkpt>
      <trkpt lat="47.32932" lon="-1.8609">
        <ele>69</ele>
        <time>2015-12-05T14:48:03Z</time>
      </trkpt>
      <trkpt lat="47.3293" lon="-1.86081">
        <ele>69</ele>
        <time>2015-12-05T14:48:04Z</time>
      </trkpt>
      <trkpt lat="47.3293" lon="-1.8607">
        <ele>69</ele>
        <time>2015-12-05T14:48:05Z</time>
      </trkpt>
      <trkpt lat="47.32929" lon="-1.86064">
        <ele>69</ele>
        <time>2015-12-05T14:48:06Z</time>
      </trkpt>
      <trkpt lat="47.32928" lon="-1.86055">
        <ele>69</ele>
        <time>2015-12-05T14:48:07Z</time>
      </trkpt>
      <trkpt lat="47.32926" lon="-1.86048">
        <ele>69</ele>
        <time>2015-12-05T14:48:08Z</time>
      </trkpt>
      <trkpt lat="47.32925" lon="-1.8604">
        <ele>69</ele>
        <time>2015-12-05T14:48:09Z</time>
      </trkpt>
      <trkpt lat="47.32926" lon="-1.86034">
        <ele>69</ele>
        <time>2015-12-05T14:48:10Z</time>
      </trkpt>
      <trkpt lat="47.32925" lon="-1.86027">
        <ele>69</ele>
        <time>2015-12-05T14:48:11Z</time>
      </trkpt>
      <trkpt lat="47.32925" lon="-1.86021">
        <ele>69</ele>
        <time>2015-12-05T14:48:12Z</time>
      </trkpt>
      <trkpt lat="47.32923" lon="-1.86013">
        <ele>69</ele>
        <time>2015-12-05T14:48:13Z</time>
      </trkpt>
      <trkpt lat="47.32921" lon="-1.86005">
        <ele>69</ele>
        <time>2015-12-05T14:48:14Z</time>
      </trkpt>
      <trkpt lat="47.32919" lon="-1.85997">
        <ele>69</ele>
        <time>2015-12-05T14:48:15Z</time>
      </trkpt>
      <trkpt lat="47.32918" lon="-1.8599">
        <ele>70</ele>
        <time>2015-12-05T14:48:16Z</time>
      </trkpt>
      <trkpt lat="47.32916" lon="-1.85983">
        <ele>69</ele>
        <time>2015-12-05T14:48:17Z</time>
      </trkpt>
      <trkpt lat="47.32915" lon="-1.85975">
        <ele>69</ele>
        <time>2015-12-05T14:48:18Z</time>
      </trkpt>
      <trkpt lat="47.32914" lon="-1.85969">
        <ele>68</ele>
        <time>2015-12-05T14:48:19Z</time>
      </trkpt>
      <trkpt lat="47.32913" lon="-1.85962">
        <ele>69</ele>
        <time>2015-12-05T14:48:20Z</time>
      </trkpt>
      <trkpt lat="47.32911" lon="-1.85954">
        <ele>69</ele>
        <time>2015-12-05T14:48:21Z</time>
      </trkpt>
      <trkpt lat="47.3291" lon="-1.85949">
        <ele>69</ele>
        <time>2015-12-05T14:48:22Z</time>
      </trkpt>
      <trkpt lat="47.32909" lon="-1.85942">
        <ele>69</ele>
        <time>2015-12-05T14:48:23Z</time>
      </trkpt>
      <trkpt lat="47.32907" lon="-1.85935">
        <ele>69</ele>
        <time>2015-12-05T14:48:24Z</time>
      </trkpt>
      <trkpt lat="47.32905" lon="-1.8593">
        <ele>69</ele>
        <time>2015-12-05T14:48:25Z</time>
      </trkpt>
      <trkpt lat="47.32905" lon="-1.85923">
        <ele>69</ele>
        <time>2015-12-05T14:48:26Z</time>
      </trkpt>
      <trkpt lat="47.32907" lon="-1.85912">
        <ele>70</ele>
        <time>2015-12-05T14:48:27Z</time>
      </trkpt>
      <trkpt lat="47.3291" lon="-1.85909">
        <ele>70</ele>
        <time>2015-12-05T14:48:28Z</time>
      </trkpt>
      <trkpt lat="47.32915" lon="-1.85906">
        <ele>70</ele>
        <time>2015-12-05T14:48:29Z</time>
      </trkpt>
      <trkpt lat="47.3292" lon="-1.85907">
        <ele>71</ele>
        <time>2015-12-05T14:48:30Z</time>
      </trkpt>
      <trkpt lat="47.32928" lon="-1.85901">
        <ele>71</ele>
        <time>2015-12-05T14:48:32Z</time>
      </trkpt>
      <trkpt lat="47.3293" lon="-1.85895">
        <ele>71</ele>
        <time>2015-12-05T14:48:33Z</time>
      </trkpt>
      <trkpt lat="47.32931" lon="-1.85889">
        <ele>72</ele>
        <time>2015-12-05T14:48:34Z</time>
      </trkpt>
      <trkpt lat="47.32932" lon="-1.85883">
        <ele>72</ele>
        <time>2015-12-05T14:48:35Z</time>
      </trkpt>
      <trkpt lat="47.3293" lon="-1.85879">
        <ele>72</ele>
        <time>2015-12-05T14:48:36Z</time>
      </trkpt>
      <trkpt lat="47.3293" lon="-1.85869">
        <ele>72</ele>
        <time>2015-12-05T14:48:37Z</time>
      </trkpt>
      <trkpt lat="47.32928" lon="-1.85862">
        <ele>72</ele>
        <time>2015-12-05T14:48:38Z</time>
      </trkpt>
      <trkpt lat="47.32928" lon="-1.85856">
        <ele>72</ele>
        <time>2015-12-05T14:48:39Z</time>
      </trkpt>
      <trkpt lat="47.32926" lon="-1.85849">
        <ele>72</ele>
        <time>2015-12-05T14:48:40Z</time>
      </trkpt>
      <trkpt lat="47.32923" lon="-1.85843">
        <ele>72</ele>
        <time>2015-12-05T14:48:41Z</time>
      </trkpt>
      <trkpt lat="47.32922" lon="-1.85836">
        <ele>72</ele>
        <time>2015-12-05T14:48:42Z</time>
      </trkpt>
      <trkpt lat="47.32921" lon="-1.85831">
        <ele>72</ele>
        <time>2015-12-05T14:48:43Z</time>
      </trkpt>
      <trkpt lat="47.32918" lon="-1.85826">
        <ele>72</ele>
        <time>2015-12-05T14:48:44Z</time>
      </trkpt>
      <trkpt lat="47.32916" lon="-1.8582">
        <ele>72</ele>
        <time>2015-12-05T14:48:45Z</time>
      </trkpt>
      <trkpt lat="47.32914" lon="-1.85814">
        <ele>71</ele>
        <time>2015-12-05T14:48:46Z</time>
      </trkpt>
      <trkpt lat="47.32913" lon="-1.85809">
        <ele>71</ele>
        <time>2015-12-05T14:48:47Z</time>
      </trkpt>
      <trkpt lat="47.32911" lon="-1.85803">
        <ele>71</ele>
        <time>2015-12-05T14:48:48Z</time>
      </trkpt>
      <trkpt lat="47.3291" lon="-1.85797">
        <ele>71</ele>
        <time>2015-12-05T14:48:49Z</time>
      </trkpt>
      <trkpt lat="47.32908" lon="-1.85793">
        <ele>71</ele>
        <time>2015-12-05T14:48:50Z</time>
      </trkpt>
      <trkpt lat="47.32906" lon="-1.85788">
        <ele>71</ele>
        <time>2015-12-05T14:48:51Z</time>
      </trkpt>
      <trkpt lat="47.32905" lon="-1.85782">
        <ele>71</ele>
        <time>2015-12-05T14:48:52Z</time>
      </trkpt>
      <trkpt lat="47.32903" lon="-1.85777">
        <ele>71</ele>
        <time>2015-12-05T14:48:53Z</time>
      </trkpt>
      <trkpt lat="47.32902" lon="-1.85772">
        <ele>72</ele>
        <time>2015-12-05T14:48:54Z</time>
      </trkpt>
      <trkpt lat="47.329" lon="-1.85765">
        <ele>72</ele>
        <time>2015-12-05T14:48:55Z</time>
      </trkpt>
      <trkpt lat="47.32898" lon="-1.85759">
        <ele>72</ele>
        <time>2015-12-05T14:48:56Z</time>
      </trkpt>
      <trkpt lat="47.32896" lon="-1.85754">
        <ele>72</ele>
        <time>2015-12-05T14:48:57Z</time>
      </trkpt>
      <trkpt lat="47.32895" lon="-1.85748">
        <ele>72</ele>
        <time>2015-12-05T14:48:58Z</time>
      </trkpt>
      <trkpt lat="47.32893" lon="-1.85742">
        <ele>72</ele>
        <time>2015-12-05T14:48:59Z</time>
      </trkpt>
      <trkpt lat="47.32893" lon="-1.85737">
        <ele>72</ele>
        <time>2015-12-05T14:49:00Z</time>
      </trkpt>
      <trkpt lat="47.32891" lon="-1.8573">
        <ele>72</ele>
        <time>2015-12-05T14:49:01Z</time>
      </trkpt>
      <trkpt lat="47.32891" lon="-1.85723">
        <ele>72</ele>
        <time>2015-12-05T14:49:02Z</time>
      </trkpt>
      <trkpt lat="47.32888" lon="-1.8572">
        <ele>72</ele>
        <time>2015-12-05T14:49:03Z</time>
      </trkpt>
      <trkpt lat="47.32886" lon="-1.85715">
        <ele>71</ele>
        <time>2015-12-05T14:49:04Z</time>
      </trkpt>
      <trkpt lat="47.32884" lon="-1.85711">
        <ele>71</ele>
        <time>2015-12-05T14:49:05Z</time>
      </trkpt>
      <trkpt lat="47.32882" lon="-1.85707">
        <ele>71</ele>
        <time>2015-12-05T14:49:06Z</time>
      </trkpt>
      <trkpt lat="47.32884" lon="-1.85696">
        <ele>71</ele>
        <time>2015-12-05T14:49:07Z</time>
      </trkpt>
      <trkpt lat="47.32882" lon="-1.85688">
        <ele>71</ele>
        <time>2015-12-05T14:49:08Z</time>
      </trkpt>
      <trkpt lat="47.32881" lon="-1.85682">
        <ele>71</ele>
        <time>2015-12-05T14:49:09Z</time>
      </trkpt>
      <trkpt lat="47.32879" lon="-1.85676">
        <ele>71</ele>
        <time>2015-12-05T14:49:10Z</time>
      </trkpt>
      <trkpt lat="47.32877" lon="-1.8567">
        <ele>71</ele>
        <time>2015-12-05T14:49:11Z</time>
      </trkpt>
      <trkpt lat="47.32879" lon="-1.85653">
        <ele>71</ele>
        <time>2015-12-05T14:49:12Z</time>
      </trkpt>
      <trkpt lat="47.32878" lon="-1.85646">
        <ele>71</ele>
        <time>2015-12-05T14:49:13Z</time>
      </trkpt>
      <trkpt lat="47.32877" lon="-1.85637">
        <ele>71</ele>
        <time>2015-12-05T14:49:14Z</time>
      </trkpt>
      <trkpt lat="47.32879" lon="-1.85623">
        <ele>71</ele>
        <time>2015-12-05T14:49:15Z</time>
      </trkpt>
      <trkpt lat="47.32877" lon="-1.85616">
        <ele>71</ele>
        <time>2015-12-05T14:49:16Z</time>
      </trkpt>
      <trkpt lat="47.32874" lon="-1.85605">
        <ele>71</ele>
        <time>2015-12-05T14:49:17Z</time>
      </trkpt>
      <trkpt lat="47.32874" lon="-1.85597">
        <ele>71</ele>
        <time>2015-12-05T14:49:18Z</time>
      </trkpt>
      <trkpt lat="47.32873" lon="-1.85588">
        <ele>71</ele>
        <time>2015-12-05T14:49:19Z</time>
      </trkpt>
      <trkpt lat="47.32872" lon="-1.8558">
        <ele>71</ele>
        <time>2015-12-05T14:49:20Z</time>
      </trkpt>
      <trkpt lat="47.32872" lon="-1.85571">
        <ele>71</ele>
        <time>2015-12-05T14:49:21Z</time>
      </trkpt>
      <trkpt lat="47.32872" lon="-1.85562">
        <ele>71</ele>
        <time>2015-12-05T14:49:22Z</time>
      </trkpt>
      <trkpt lat="47.32872" lon="-1.85557">
        <ele>71</ele>
        <time>2015-12-05T14:49:23Z</time>
      </trkpt>
      <trkpt lat="47.32873" lon="-1.85548">
        <ele>71</ele>
        <time>2015-12-05T14:49:24Z</time>
      </trkpt>
      <trkpt lat="47.32875" lon="-1.85539">
        <ele>71</ele>
        <time>2015-12-05T14:49:25Z</time>
      </trkpt>
      <trkpt lat="47.32876" lon="-1.85531">
        <ele>71</ele>
        <time>2015-12-05T14:49:26Z</time>
      </trkpt>
      <trkpt lat="47.32876" lon="-1.85523">
        <ele>71</ele>
        <time>2015-12-05T14:49:27Z</time>
      </trkpt>
      <trkpt lat="47.32877" lon="-1.85514">
        <ele>71</ele>
        <time>2015-12-05T14:49:28Z</time>
      </trkpt>
      <trkpt lat="47.32877" lon="-1.85505">
        <ele>71</ele>
        <time>2015-12-05T14:49:29Z</time>
      </trkpt>
      <trkpt lat="47.32877" lon="-1.85497">
        <ele>71</ele>
        <time>2015-12-05T14:49:30Z</time>
      </trkpt>
      <trkpt lat="47.32877" lon="-1.85489">
        <ele>71</ele>
        <time>2015-12-05T14:49:31Z</time>
      </trkpt>
      <trkpt lat="47.3287" lon="-1.85487">
        <ele>71</ele>
        <time>2015-12-05T14:49:32Z</time>
      </trkpt>
      <trkpt lat="47.32866" lon="-1.85482">
        <ele>71</ele>
        <time>2015-12-05T14:49:33Z</time>
      </trkpt>
      <trkpt lat="47.3286" lon="-1.8548">
        <ele>71</ele>
        <time>2015-12-05T14:49:34Z</time>
      </trkpt>
      <trkpt lat="47.32855" lon="-1.85476">
        <ele>71</ele>
        <time>2015-12-05T14:49:35Z</time>
      </trkpt>
      <trkpt lat="47.32851" lon="-1.85473">
        <ele>71</ele>
        <time>2015-12-05T14:49:36Z</time>
      </trkpt>
      <trkpt lat="47.32851" lon="-1.85466">
        <ele>71</ele>
        <time>2015-12-05T14:49:37Z</time>
      </trkpt>
      <trkpt lat="47.32846" lon="-1.85463">
        <ele>71</ele>
        <time>2015-12-05T14:49:38Z</time>
      </trkpt>
      <trkpt lat="47.32843" lon="-1.8546">
        <ele>71</ele>
        <time>2015-12-05T14:49:39Z</time>
      </trkpt>
      <trkpt lat="47.32838" lon="-1.85457">
        <ele>71</ele>
        <time>2015-12-05T14:49:40Z</time>
      </trkpt>
      <trkpt lat="47.32835" lon="-1.85454">
        <ele>71</ele>
        <time>2015-12-05T14:49:41Z</time>
      </trkpt>
      <trkpt lat="47.3283" lon="-1.85452">
        <ele>70</ele>
        <time>2015-12-05T14:49:42Z</time>
      </trkpt>
      <trkpt lat="47.32826" lon="-1.8545">
        <ele>70</ele>
        <time>2015-12-05T14:49:43Z</time>
      </trkpt>
      <trkpt lat="47.32818" lon="-1.85455">
        <ele>70</ele>
        <time>2015-12-05T14:49:44Z</time>
      </trkpt>
      <trkpt lat="47.32814" lon="-1.85457">
        <ele>70</ele>
        <time>2015-12-05T14:49:45Z</time>
      </trkpt>
      <trkpt lat="47.3281" lon="-1.85458">
        <ele>70</ele>
        <time>2015-12-05T14:49:46Z</time>
      </trkpt>
      <trkpt lat="47.32806" lon="-1.85461">
        <ele>70</ele>
        <time>2015-12-05T14:49:47Z</time>
      </trkpt>
      <trkpt lat="47.32801" lon="-1.85464">
        <ele>70</ele>
        <time>2015-12-05T14:49:48Z</time>
      </trkpt>
      <trkpt lat="47.32796" lon="-1.85467">
        <ele>70</ele>
        <time>2015-12-05T14:49:49Z</time>
      </trkpt>
      <trkpt lat="47.32793" lon="-1.85468">
        <ele>70</ele>
        <time>2015-12-05T14:49:50Z</time>
      </trkpt>
      <trkpt lat="47.32788" lon="-1.85473">
        <ele>70</ele>
        <time>2015-12-05T14:49:51Z</time>
      </trkpt>
      <trkpt lat="47.32784" lon="-1.85479">
        <ele>70</ele>
        <time>2015-12-05T14:49:52Z</time>
      </trkpt>
      <trkpt lat="47.32779" lon="-1.85484">
        <ele>70</ele>
        <time>2015-12-05T14:49:53Z</time>
      </trkpt>
      <trkpt lat="47.32775" lon="-1.8549">
        <ele>70</ele>
        <time>2015-12-05T14:49:54Z</time>
      </trkpt>
      <trkpt lat="47.32765" lon="-1.85497">
        <ele>69</ele>
        <time>2015-12-05T14:49:55Z</time>
      </trkpt>
      <trkpt lat="47.32761" lon="-1.85503">
        <ele>69</ele>
        <time>2015-12-05T14:49:56Z</time>
      </trkpt>
      <trkpt lat="47.32757" lon="-1.85512">
        <ele>69</ele>
        <time>2015-12-05T14:49:57Z</time>
      </trkpt>
      <trkpt lat="47.32752" lon="-1.8552">
        <ele>69</ele>
        <time>2015-12-05T14:49:58Z</time>
      </trkpt>
      <trkpt lat="47.32747" lon="-1.85528">
        <ele>67</ele>
        <time>2015-12-05T14:49:59Z</time>
      </trkpt>
      <trkpt lat="47.32743" lon="-1.85537">
        <ele>67</ele>
        <time>2015-12-05T14:50:00Z</time>
      </trkpt>
      <trkpt lat="47.32738" lon="-1.85545">
        <ele>67</ele>
        <time>2015-12-05T14:50:01Z</time>
      </trkpt>
      <trkpt lat="47.32735" lon="-1.85555">
        <ele>66</ele>
        <time>2015-12-05T14:50:02Z</time>
      </trkpt>
      <trkpt lat="47.3273" lon="-1.85565">
        <ele>66</ele>
        <time>2015-12-05T14:50:03Z</time>
      </trkpt>
      <trkpt lat="47.32725" lon="-1.85573">
        <ele>66</ele>
        <time>2015-12-05T14:50:04Z</time>
      </trkpt>
      <trkpt lat="47.3272" lon="-1.85582">
        <ele>66</ele>
        <time>2015-12-05T14:50:05Z</time>
      </trkpt>
      <trkpt lat="47.32716" lon="-1.8559">
        <ele>65</ele>
        <time>2015-12-05T14:50:06Z</time>
      </trkpt>
      <trkpt lat="47.32712" lon="-1.85599">
        <ele>65</ele>
        <time>2015-12-05T14:50:07Z</time>
      </trkpt>
      <trkpt lat="47.32705" lon="-1.85607">
        <ele>65</ele>
        <time>2015-12-05T14:50:08Z</time>
      </trkpt>
      <trkpt lat="47.32699" lon="-1.85611">
        <ele>65</ele>
        <time>2015-12-05T14:50:09Z</time>
      </trkpt>
      <trkpt lat="47.32691" lon="-1.85614">
        <ele>65</ele>
        <time>2015-12-05T14:50:10Z</time>
      </trkpt>
      <trkpt lat="47.32685" lon="-1.85615">
        <ele>64</ele>
        <time>2015-12-05T14:50:11Z</time>
      </trkpt>
      <trkpt lat="47.32677" lon="-1.85617">
        <ele>64</ele>
        <time>2015-12-05T14:50:12Z</time>
      </trkpt>
      <trkpt lat="47.3267" lon="-1.85618">
        <ele>64</ele>
        <time>2015-12-05T14:50:13Z</time>
      </trkpt>
      <trkpt lat="47.32665" lon="-1.85623">
        <ele>64</ele>
        <time>2015-12-05T14:50:14Z</time>
      </trkpt>
      <trkpt lat="47.32658" lon="-1.85627">
        <ele>63</ele>
        <time>2015-12-05T14:50:15Z</time>
      </trkpt>
      <trkpt lat="47.32651" lon="-1.8563">
        <ele>63</ele>
        <time>2015-12-05T14:50:16Z</time>
      </trkpt>
      <trkpt lat="47.32645" lon="-1.85634">
        <ele>63</ele>
        <time>2015-12-05T14:50:17Z</time>
      </trkpt>
      <trkpt lat="47.32634" lon="-1.85633">
        <ele>63</ele>
        <time>2015-12-05T14:50:18Z</time>
      </trkpt>
      <trkpt lat="47.32627" lon="-1.8563">
        <ele>63</ele>
        <time>2015-12-05T14:50:19Z</time>
      </trkpt>
      <trkpt lat="47.3262" lon="-1.85629">
        <ele>63</ele>
        <time>2015-12-05T14:50:20Z</time>
      </trkpt>
      <trkpt lat="47.32612" lon="-1.85627">
        <ele>63</ele>
        <time>2015-12-05T14:50:21Z</time>
      </trkpt>
      <trkpt lat="47.3261" lon="-1.85612">
        <ele>64</ele>
        <time>2015-12-05T14:50:22Z</time>
      </trkpt>
      <trkpt lat="47.32604" lon="-1.85605">
        <ele>64</ele>
        <time>2015-12-05T14:50:23Z</time>
      </trkpt>
      <trkpt lat="47.326" lon="-1.85596">
        <ele>64</ele>
        <time>2015-12-05T14:50:24Z</time>
      </trkpt>
      <trkpt lat="47.32596" lon="-1.85589">
        <ele>64</ele>
        <time>2015-12-05T14:50:25Z</time>
      </trkpt>
      <trkpt lat="47.3259" lon="-1.85584">
        <ele>64</ele>
        <time>2015-12-05T14:50:26Z</time>
      </trkpt>
      <trkpt lat="47.32586" lon="-1.85578">
        <ele>64</ele>
        <time>2015-12-05T14:50:27Z</time>
      </trkpt>
      <trkpt lat="47.32581" lon="-1.85569">
        <ele>64</ele>
        <time>2015-12-05T14:50:28Z</time>
      </trkpt>
      <trkpt lat="47.32577" lon="-1.85562">
        <ele>65</ele>
        <time>2015-12-05T14:50:29Z</time>
      </trkpt>
      <trkpt lat="47.32573" lon="-1.85556">
        <ele>65</ele>
        <time>2015-12-05T14:50:30Z</time>
      </trkpt>
      <trkpt lat="47.32567" lon="-1.85551">
        <ele>65</ele>
        <time>2015-12-05T14:50:31Z</time>
      </trkpt>
      <trkpt lat="47.32563" lon="-1.85545">
        <ele>65</ele>
        <time>2015-12-05T14:50:32Z</time>
      </trkpt>
      <trkpt lat="47.32559" lon="-1.85539">
        <ele>65</ele>
        <time>2015-12-05T14:50:33Z</time>
      </trkpt>
      <trkpt lat="47.32556" lon="-1.85533">
        <ele>65</ele>
        <time>2015-12-05T14:50:34Z</time>
      </trkpt>
      <trkpt lat="47.32552" lon="-1.85527">
        <ele>65</ele>
        <time>2015-12-05T14:50:35Z</time>
      </trkpt>
      <trkpt lat="47.32549" lon="-1.85521">
        <ele>65</ele>
        <time>2015-12-05T14:50:36Z</time>
      </trkpt>
      <trkpt lat="47.32545" lon="-1.85512">
        <ele>65</ele>
        <time>2015-12-05T14:50:37Z</time>
      </trkpt>
      <trkpt lat="47.32542" lon="-1.85508">
        <ele>65</ele>
        <time>2015-12-05T14:50:38Z</time>
      </trkpt>
      <trkpt lat="47.32539" lon="-1.85502">
        <ele>65</ele>
        <time>2015-12-05T14:50:39Z</time>
      </trkpt>
      <trkpt lat="47.32535" lon="-1.85496">
        <ele>66</ele>
        <time>2015-12-05T14:50:40Z</time>
      </trkpt>
      <trkpt lat="47.32526" lon="-1.85491">
        <ele>66</ele>
        <time>2015-12-05T14:50:41Z</time>
      </trkpt>
      <trkpt lat="47.32522" lon="-1.85486">
        <ele>66</ele>
        <time>2015-12-05T14:50:42Z</time>
      </trkpt>
      <trkpt lat="47.32518" lon="-1.85481">
        <ele>66</ele>
        <time>2015-12-05T14:50:43Z</time>
      </trkpt>
      <trkpt lat="47.32513" lon="-1.85475">
        <ele>66</ele>
        <time>2015-12-05T14:50:44Z</time>
      </trkpt>
      <trkpt lat="47.3251" lon="-1.85472">
        <ele>66</ele>
        <time>2015-12-05T14:50:45Z</time>
      </trkpt>
      <trkpt lat="47.32506" lon="-1.85468">
        <ele>66</ele>
        <time>2015-12-05T14:50:46Z</time>
      </trkpt>
      <trkpt lat="47.32502" lon="-1.85464">
        <ele>66</ele>
        <time>2015-12-05T14:50:47Z</time>
      </trkpt>
      <trkpt lat="47.32498" lon="-1.85458">
        <ele>66</ele>
        <time>2015-12-05T14:50:48Z</time>
      </trkpt>
      <trkpt lat="47.32493" lon="-1.85456">
        <ele>66</ele>
        <time>2015-12-05T14:50:49Z</time>
      </trkpt>
      <trkpt lat="47.32489" lon="-1.85451">
        <ele>66</ele>
        <time>2015-12-05T14:50:50Z</time>
      </trkpt>
      <trkpt lat="47.32484" lon="-1.85447">
        <ele>66</ele>
        <time>2015-12-05T14:50:51Z</time>
      </trkpt>
      <trkpt lat="47.32481" lon="-1.85435">
        <ele>66</ele>
        <time>2015-12-05T14:50:52Z</time>
      </trkpt>
      <trkpt lat="47.32476" lon="-1.8543">
        <ele>66</ele>
        <time>2015-12-05T14:50:53Z</time>
      </trkpt>
      <trkpt lat="47.32473" lon="-1.85427">
        <ele>66</ele>
        <time>2015-12-05T14:50:54Z</time>
      </trkpt>
      <trkpt lat="47.32468" lon="-1.85423">
        <ele>66</ele>
        <time>2015-12-05T14:50:55Z</time>
      </trkpt>
      <trkpt lat="47.32466" lon="-1.85418">
        <ele>66</ele>
        <time>2015-12-05T14:50:56Z</time>
      </trkpt>
      <trkpt lat="47.32461" lon="-1.85414">
        <ele>65</ele>
        <time>2015-12-05T14:50:57Z</time>
      </trkpt>
      <trkpt lat="47.32456" lon="-1.85409">
        <ele>65</ele>
        <time>2015-12-05T14:50:58Z</time>
      </trkpt>
      <trkpt lat="47.3245" lon="-1.85409">
        <ele>65</ele>
        <time>2015-12-05T14:50:59Z</time>
      </trkpt>
      <trkpt lat="47.32446" lon="-1.85405">
        <ele>65</ele>
        <time>2015-12-05T14:51:00Z</time>
      </trkpt>
      <trkpt lat="47.32435" lon="-1.85395">
        <ele>65</ele>
        <time>2015-12-05T14:51:02Z</time>
      </trkpt>
      <trkpt lat="47.32429" lon="-1.85388">
        <ele>65</ele>
        <time>2015-12-05T14:51:03Z</time>
      </trkpt>
      <trkpt lat="47.32424" lon="-1.8538">
        <ele>64</ele>
        <time>2015-12-05T14:51:04Z</time>
      </trkpt>
      <trkpt lat="47.3242" lon="-1.85373">
        <ele>64</ele>
        <time>2015-12-05T14:51:05Z</time>
      </trkpt>
      <trkpt lat="47.32418" lon="-1.85364">
        <ele>64</ele>
        <time>2015-12-05T14:51:06Z</time>
      </trkpt>
      <trkpt lat="47.32415" lon="-1.85354">
        <ele>63</ele>
        <time>2015-12-05T14:51:07Z</time>
      </trkpt>
      <trkpt lat="47.32412" lon="-1.85346">
        <ele>63</ele>
        <time>2015-12-05T14:51:08Z</time>
      </trkpt>
      <trkpt lat="47.32411" lon="-1.85337">
        <ele>63</ele>
        <time>2015-12-05T14:51:09Z</time>
      </trkpt>
      <trkpt lat="47.32409" lon="-1.85328">
        <ele>62</ele>
        <time>2015-12-05T14:51:10Z</time>
      </trkpt>
      <trkpt lat="47.32408" lon="-1.85317">
        <ele>62</ele>
        <time>2015-12-05T14:51:11Z</time>
      </trkpt>
      <trkpt lat="47.32407" lon="-1.85306">
        <ele>61</ele>
        <time>2015-12-05T14:51:12Z</time>
      </trkpt>
      <trkpt lat="47.32408" lon="-1.85295">
        <ele>61</ele>
        <time>2015-12-05T14:51:13Z</time>
      </trkpt>
      <trkpt lat="47.32409" lon="-1.85286">
        <ele>61</ele>
        <time>2015-12-05T14:51:14Z</time>
      </trkpt>
      <trkpt lat="47.3241" lon="-1.85276">
        <ele>61</ele>
        <time>2015-12-05T14:51:15Z</time>
      </trkpt>
      <trkpt lat="47.32412" lon="-1.85264">
        <ele>61</ele>
        <time>2015-12-05T14:51:16Z</time>
      </trkpt>
      <trkpt lat="47.32413" lon="-1.85253">
        <ele>61</ele>
        <time>2015-12-05T14:51:17Z</time>
      </trkpt>
      <trkpt lat="47.32414" lon="-1.85243">
        <ele>60</ele>
        <time>2015-12-05T14:51:18Z</time>
      </trkpt>
      <trkpt lat="47.32415" lon="-1.85234">
        <ele>60</ele>
        <time>2015-12-05T14:51:19Z</time>
      </trkpt>
      <trkpt lat="47.32416" lon="-1.85224">
        <ele>60</ele>
        <time>2015-12-05T14:51:20Z</time>
      </trkpt>
      <trkpt lat="47.32417" lon="-1.85214">
        <ele>61</ele>
        <time>2015-12-05T14:51:21Z</time>
      </trkpt>
      <trkpt lat="47.3242" lon="-1.852">
        <ele>61</ele>
        <time>2015-12-05T14:51:22Z</time>
      </trkpt>
      <trkpt lat="47.32421" lon="-1.8519">
        <ele>61</ele>
        <time>2015-12-05T14:51:23Z</time>
      </trkpt>
      <trkpt lat="47.32422" lon="-1.85181">
        <ele>61</ele>
        <time>2015-12-05T14:51:24Z</time>
      </trkpt>
      <trkpt lat="47.32423" lon="-1.8517">
        <ele>60</ele>
        <time>2015-12-05T14:51:25Z</time>
      </trkpt>
      <trkpt lat="47.32425" lon="-1.85161">
        <ele>60</ele>
        <time>2015-12-05T14:51:26Z</time>
      </trkpt>
      <trkpt lat="47.32427" lon="-1.8515">
        <ele>60</ele>
        <time>2015-12-05T14:51:27Z</time>
      </trkpt>
      <trkpt lat="47.32429" lon="-1.8514">
        <ele>60</ele>
        <time>2015-12-05T14:51:28Z</time>
      </trkpt>
      <trkpt lat="47.3243" lon="-1.85133">
        <ele>60</ele>
        <time>2015-12-05T14:51:29Z</time>
      </trkpt>
      <trkpt lat="47.32431" lon="-1.85126">
        <ele>60</ele>
        <time>2015-12-05T14:51:30Z</time>
      </trkpt>
      <trkpt lat="47.32429" lon="-1.85122">
        <ele>59</ele>
        <time>2015-12-05T14:51:31Z</time>
      </trkpt>
      <trkpt lat="47.32428" lon="-1.85118">
        <ele>59</ele>
        <time>2015-12-05T14:51:32Z</time>
      </trkpt>
      <trkpt lat="47.32424" lon="-1.85115">
        <ele>59</ele>
        <time>2015-12-05T14:51:33Z</time>
      </trkpt>
      <trkpt lat="47.32421" lon="-1.85115">
        <ele>59</ele>
        <time>2015-12-05T14:51:34Z</time>
      </trkpt>
      <trkpt lat="47.32415" lon="-1.85116">
        <ele>57</ele>
        <time>2015-12-05T14:51:35Z</time>
      </trkpt>
      <trkpt lat="47.3241" lon="-1.8512">
        <ele>57</ele>
        <time>2015-12-05T14:51:36Z</time>
      </trkpt>
      <trkpt lat="47.32405" lon="-1.85124">
        <ele>57</ele>
        <time>2015-12-05T14:51:37Z</time>
      </trkpt>
      <trkpt lat="47.324" lon="-1.85129">
        <ele>57</ele>
        <time>2015-12-05T14:51:38Z</time>
      </trkpt>
      <trkpt lat="47.32395" lon="-1.85133">
        <ele>57</ele>
        <time>2015-12-05T14:51:39Z</time>
      </trkpt>
      <trkpt lat="47.32389" lon="-1.85133">
        <ele>56</ele>
        <time>2015-12-05T14:51:40Z</time>
      </trkpt>
      <trkpt lat="47.32383" lon="-1.8514">
        <ele>56</ele>
        <time>2015-12-05T14:51:41Z</time>
      </trkpt>
      <trkpt lat="47.32379" lon="-1.85143">
        <ele>56</ele>
        <time>2015-12-05T14:51:42Z</time>
      </trkpt>
      <trkpt lat="47.32373" lon="-1.85149">
        <ele>56</ele>
        <time>2015-12-05T14:51:43Z</time>
      </trkpt>
      <trkpt lat="47.32367" lon="-1.85155">
        <ele>56</ele>
        <time>2015-12-05T14:51:44Z</time>
      </trkpt>
      <trkpt lat="47.32363" lon="-1.85156">
        <ele>56</ele>
        <time>2015-12-05T14:51:45Z</time>
      </trkpt>
      <trkpt lat="47.32356" lon="-1.85161">
        <ele>56</ele>
        <time>2015-12-05T14:51:46Z</time>
      </trkpt>
      <trkpt lat="47.3235" lon="-1.85166">
        <ele>55</ele>
        <time>2015-12-05T14:51:47Z</time>
      </trkpt>
      <trkpt lat="47.32345" lon="-1.85169">
        <ele>56</ele>
        <time>2015-12-05T14:51:48Z</time>
      </trkpt>
      <trkpt lat="47.32339" lon="-1.85171">
        <ele>56</ele>
        <time>2015-12-05T14:51:49Z</time>
      </trkpt>
      <trkpt lat="47.32339" lon="-1.85177">
        <ele>56</ele>
        <time>2015-12-05T14:51:50Z</time>
      </trkpt>
      <trkpt lat="47.32339" lon="-1.85184">
        <ele>57</ele>
        <time>2015-12-05T14:51:51Z</time>
      </trkpt>
      <trkpt lat="47.32339" lon="-1.85189">
        <ele>57</ele>
        <time>2015-12-05T14:51:52Z</time>
      </trkpt>
      <trkpt lat="47.32339" lon="-1.85194">
        <ele>58</ele>
        <time>2015-12-05T14:51:53Z</time>
      </trkpt>
      <trkpt lat="47.3234" lon="-1.85199">
        <ele>58</ele>
        <time>2015-12-05T14:51:54Z</time>
      </trkpt>
      <trkpt lat="47.32342" lon="-1.85205">
        <ele>58</ele>
        <time>2015-12-05T14:51:55Z</time>
      </trkpt>
      <trkpt lat="47.32343" lon="-1.8521">
        <ele>58</ele>
        <time>2015-12-05T14:51:56Z</time>
      </trkpt>
      <trkpt lat="47.32342" lon="-1.85214">
        <ele>58</ele>
        <time>2015-12-05T14:51:57Z</time>
      </trkpt>
      <trkpt lat="47.32342" lon="-1.85219">
        <ele>58</ele>
        <time>2015-12-05T14:51:58Z</time>
      </trkpt>
      <trkpt lat="47.32343" lon="-1.85224">
        <ele>59</ele>
        <time>2015-12-05T14:51:59Z</time>
      </trkpt>
      <trkpt lat="47.32346" lon="-1.85229">
        <ele>59</ele>
        <time>2015-12-05T14:52:00Z</time>
      </trkpt>
      <trkpt lat="47.32346" lon="-1.85236">
        <ele>59</ele>
        <time>2015-12-05T14:52:02Z</time>
      </trkpt>
      <trkpt lat="47.32348" lon="-1.85241">
        <ele>59</ele>
        <time>2015-12-05T14:52:03Z</time>
      </trkpt>
      <trkpt lat="47.32347" lon="-1.85244">
        <ele>59</ele>
        <time>2015-12-05T14:52:04Z</time>
      </trkpt>
      <trkpt lat="47.32345" lon="-1.85248">
        <ele>59</ele>
        <time>2015-12-05T14:52:05Z</time>
      </trkpt>
      <trkpt lat="47.32342" lon="-1.8525">
        <ele>59</ele>
        <time>2015-12-05T14:52:06Z</time>
      </trkpt>
      <trkpt lat="47.32336" lon="-1.85249">
        <ele>59</ele>
        <time>2015-12-05T14:52:07Z</time>
      </trkpt>
      <trkpt lat="47.32331" lon="-1.85249">
        <ele>59</ele>
        <time>2015-12-05T14:52:08Z</time>
      </trkpt>
      <trkpt lat="47.32327" lon="-1.85248">
        <ele>58</ele>
        <time>2015-12-05T14:52:09Z</time>
      </trkpt>
      <trkpt lat="47.32322" lon="-1.85247">
        <ele>58</ele>
        <time>2015-12-05T14:52:10Z</time>
      </trkpt>
      <trkpt lat="47.32317" lon="-1.85247">
        <ele>57</ele>
        <time>2015-12-05T14:52:11Z</time>
      </trkpt>
      <trkpt lat="47.32312" lon="-1.85249">
        <ele>57</ele>
        <time>2015-12-05T14:52:12Z</time>
      </trkpt>
      <trkpt lat="47.32306" lon="-1.85253">
        <ele>59</ele>
        <time>2015-12-05T14:52:13Z</time>
      </trkpt>
      <trkpt lat="47.32302" lon="-1.85254">
        <ele>59</ele>
        <time>2015-12-05T14:52:14Z</time>
      </trkpt>
      <trkpt lat="47.32298" lon="-1.85255">
        <ele>59</ele>
        <time>2015-12-05T14:52:15Z</time>
      </trkpt>
      <trkpt lat="47.32293" lon="-1.85255">
        <ele>59</ele>
        <time>2015-12-05T14:52:16Z</time>
      </trkpt>
      <trkpt lat="47.3229" lon="-1.85259">
        <ele>59</ele>
        <time>2015-12-05T14:52:17Z</time>
      </trkpt>
      <trkpt lat="47.32288" lon="-1.85263">
        <ele>59</ele>
        <time>2015-12-05T14:52:18Z</time>
      </trkpt>
      <trkpt lat="47.32288" lon="-1.85267">
        <ele>59</ele>
        <time>2015-12-05T14:52:19Z</time>
      </trkpt>
      <trkpt lat="47.32291" lon="-1.85274">
        <ele>59</ele>
        <time>2015-12-05T14:52:21Z</time>
      </trkpt>
      <trkpt lat="47.32293" lon="-1.85278">
        <ele>59</ele>
        <time>2015-12-05T14:52:22Z</time>
      </trkpt>
      <trkpt lat="47.32295" lon="-1.85282">
        <ele>59</ele>
        <time>2015-12-05T14:52:23Z</time>
      </trkpt>
      <trkpt lat="47.32296" lon="-1.85287">
        <ele>59</ele>
        <time>2015-12-05T14:52:24Z</time>
      </trkpt>
      <trkpt lat="47.32298" lon="-1.85292">
        <ele>60</ele>
        <time>2015-12-05T14:52:25Z</time>
      </trkpt>
      <trkpt lat="47.32299" lon="-1.85297">
        <ele>60</ele>
        <time>2015-12-05T14:52:26Z</time>
      </trkpt>
      <trkpt lat="47.323" lon="-1.85302">
        <ele>60</ele>
        <time>2015-12-05T14:52:27Z</time>
      </trkpt>
      <trkpt lat="47.32301" lon="-1.85307">
        <ele>60</ele>
        <time>2015-12-05T14:52:28Z</time>
      </trkpt>
      <trkpt lat="47.32302" lon="-1.85313">
        <ele>60</ele>
        <time>2015-12-05T14:52:29Z</time>
      </trkpt>
      <trkpt lat="47.32303" lon="-1.85318">
        <ele>60</ele>
        <time>2015-12-05T14:52:30Z</time>
      </trkpt>
      <trkpt lat="47.32304" lon="-1.85323">
        <ele>60</ele>
        <time>2015-12-05T14:52:31Z</time>
      </trkpt>
      <trkpt lat="47.32304" lon="-1.85329">
        <ele>60</ele>
        <time>2015-12-05T14:52:32Z</time>
      </trkpt>
      <trkpt lat="47.32305" lon="-1.85334">
        <ele>61</ele>
        <time>2015-12-05T14:52:33Z</time>
      </trkpt>
      <trkpt lat="47.32305" lon="-1.85343">
        <ele>61</ele>
        <time>2015-12-05T14:52:35Z</time>
      </trkpt>
      <trkpt lat="47.32306" lon="-1.85349">
        <ele>61</ele>
        <time>2015-12-05T14:52:36Z</time>
      </trkpt>
      <trkpt lat="47.32306" lon="-1.85353">
        <ele>61</ele>
        <time>2015-12-05T14:52:37Z</time>
      </trkpt>
      <trkpt lat="47.32305" lon="-1.85357">
        <ele>61</ele>
        <time>2015-12-05T14:52:38Z</time>
      </trkpt>
      <trkpt lat="47.32303" lon="-1.85362">
        <ele>61</ele>
        <time>2015-12-05T14:52:39Z</time>
      </trkpt>
      <trkpt lat="47.32301" lon="-1.85367">
        <ele>61</ele>
        <time>2015-12-05T14:52:40Z</time>
      </trkpt>
      <trkpt lat="47.32296" lon="-1.85367">
        <ele>61</ele>
        <time>2015-12-05T14:52:41Z</time>
      </trkpt>
      <trkpt lat="47.32292" lon="-1.85368">
        <ele>61</ele>
        <time>2015-12-05T14:52:42Z</time>
      </trkpt>
      <trkpt lat="47.32287" lon="-1.85369">
        <ele>61</ele>
        <time>2015-12-05T14:52:43Z</time>
      </trkpt>
      <trkpt lat="47.32284" lon="-1.8537">
        <ele>61</ele>
        <time>2015-12-05T14:52:44Z</time>
      </trkpt>
      <trkpt lat="47.32279" lon="-1.85371">
        <ele>61</ele>
        <time>2015-12-05T14:52:45Z</time>
      </trkpt>
      <trkpt lat="47.32275" lon="-1.85372">
        <ele>61</ele>
        <time>2015-12-05T14:52:46Z</time>
      </trkpt>
      <trkpt lat="47.32271" lon="-1.85373">
        <ele>61</ele>
        <time>2015-12-05T14:52:47Z</time>
      </trkpt>
      <trkpt lat="47.32268" lon="-1.85374">
        <ele>61</ele>
        <time>2015-12-05T14:52:48Z</time>
      </trkpt>
      <trkpt lat="47.32258" lon="-1.85376">
        <ele>61</ele>
        <time>2015-12-05T14:52:49Z</time>
      </trkpt>
      <trkpt lat="47.32253" lon="-1.85377">
        <ele>61</ele>
        <time>2015-12-05T14:52:50Z</time>
      </trkpt>
      <trkpt lat="47.32248" lon="-1.85378">
        <ele>61</ele>
        <time>2015-12-05T14:52:51Z</time>
      </trkpt>
      <trkpt lat="47.32242" lon="-1.8538">
        <ele>61</ele>
        <time>2015-12-05T14:52:52Z</time>
      </trkpt>
      <trkpt lat="47.32236" lon="-1.85383">
        <ele>61</ele>
        <time>2015-12-05T14:52:53Z</time>
      </trkpt>
      <trkpt lat="47.32231" lon="-1.85385">
        <ele>61</ele>
        <time>2015-12-05T14:52:54Z</time>
      </trkpt>
      <trkpt lat="47.32226" lon="-1.85386">
        <ele>61</ele>
        <time>2015-12-05T14:52:55Z</time>
      </trkpt>
      <trkpt lat="47.3222" lon="-1.85387">
        <ele>61</ele>
        <time>2015-12-05T14:52:56Z</time>
      </trkpt>
      <trkpt lat="47.32216" lon="-1.85388">
        <ele>61</ele>
        <time>2015-12-05T14:52:57Z</time>
      </trkpt>
      <trkpt lat="47.32211" lon="-1.8539">
        <ele>61</ele>
        <time>2015-12-05T14:52:58Z</time>
      </trkpt>
      <trkpt lat="47.32207" lon="-1.85391">
        <ele>61</ele>
        <time>2015-12-05T14:52:59Z</time>
      </trkpt>
      <trkpt lat="47.32203" lon="-1.85392">
        <ele>61</ele>
        <time>2015-12-05T14:53:00Z</time>
      </trkpt>
      <trkpt lat="47.32199" lon="-1.85393">
        <ele>61</ele>
        <time>2015-12-05T14:53:01Z</time>
      </trkpt>
      <trkpt lat="47.32196" lon="-1.85393">
        <ele>61</ele>
        <time>2015-12-05T14:53:02Z</time>
      </trkpt>
      <trkpt lat="47.32192" lon="-1.85394">
        <ele>61</ele>
        <time>2015-12-05T14:53:03Z</time>
      </trkpt>
      <trkpt lat="47.32188" lon="-1.85395">
        <ele>61</ele>
        <time>2015-12-05T14:53:04Z</time>
      </trkpt>
      <trkpt lat="47.32192" lon="-1.85402">
        <ele>61</ele>
        <time>2015-12-05T14:53:05Z</time>
      </trkpt>
      <trkpt lat="47.32193" lon="-1.85408">
        <ele>61</ele>
        <time>2015-12-05T14:53:06Z</time>
      </trkpt>
      <trkpt lat="47.32196" lon="-1.8541">
        <ele>61</ele>
        <time>2015-12-05T14:53:07Z</time>
      </trkpt>
      <trkpt lat="47.32198" lon="-1.85415">
        <ele>62</ele>
        <time>2015-12-05T14:53:08Z</time>
      </trkpt>
      <trkpt lat="47.322" lon="-1.85419">
        <ele>63</ele>
        <time>2015-12-05T14:53:09Z</time>
      </trkpt>
      <trkpt lat="47.32201" lon="-1.85425">
        <ele>63</ele>
        <time>2015-12-05T14:53:10Z</time>
      </trkpt>
      <trkpt lat="47.32202" lon="-1.85432">
        <ele>63</ele>
        <time>2015-12-05T14:53:11Z</time>
      </trkpt>
      <trkpt lat="47.32204" lon="-1.85438">
        <ele>63</ele>
        <time>2015-12-05T14:53:12Z</time>
      </trkpt>
      <trkpt lat="47.32206" lon="-1.85443">
        <ele>63</ele>
        <time>2015-12-05T14:53:13Z</time>
      </trkpt>
      <trkpt lat="47.32209" lon="-1.85446">
        <ele>63</ele>
        <time>2015-12-05T14:53:14Z</time>
      </trkpt>
      <trkpt lat="47.32211" lon="-1.85452">
        <ele>63</ele>
        <time>2015-12-05T14:53:15Z</time>
      </trkpt>
      <trkpt lat="47.32209" lon="-1.85455">
        <ele>63</ele>
        <time>2015-12-05T14:53:16Z</time>
      </trkpt>
      <trkpt lat="47.3221" lon="-1.8546">
        <ele>63</ele>
        <time>2015-12-05T14:53:17Z</time>
      </trkpt>
      <trkpt lat="47.32209" lon="-1.85468">
        <ele>63</ele>
        <time>2015-12-05T14:53:19Z</time>
      </trkpt>
      <trkpt lat="47.32206" lon="-1.85472">
        <ele>63</ele>
        <time>2015-12-05T14:53:20Z</time>
      </trkpt>
      <trkpt lat="47.32201" lon="-1.85478">
        <ele>63</ele>
        <time>2015-12-05T14:53:21Z</time>
      </trkpt>
      <trkpt lat="47.32198" lon="-1.85482">
        <ele>63</ele>
        <time>2015-12-05T14:53:22Z</time>
      </trkpt>
      <trkpt lat="47.32194" lon="-1.85485">
        <ele>63</ele>
        <time>2015-12-05T14:53:23Z</time>
      </trkpt>
      <trkpt lat="47.3219" lon="-1.85487">
        <ele>64</ele>
        <time>2015-12-05T14:53:24Z</time>
      </trkpt>
      <trkpt lat="47.32186" lon="-1.85491">
        <ele>64</ele>
        <time>2015-12-05T14:53:25Z</time>
      </trkpt>
      <trkpt lat="47.32186" lon="-1.85496">
        <ele>64</ele>
        <time>2015-12-05T14:53:26Z</time>
      </trkpt>
      <trkpt lat="47.32181" lon="-1.85495">
        <ele>64</ele>
        <time>2015-12-05T14:53:27Z</time>
      </trkpt>
      <trkpt lat="47.32176" lon="-1.85497">
        <ele>64</ele>
        <time>2015-12-05T14:53:28Z</time>
      </trkpt>
      <trkpt lat="47.32171" lon="-1.85497">
        <ele>65</ele>
        <time>2015-12-05T14:53:30Z</time>
      </trkpt>
      <trkpt lat="47.32168" lon="-1.85498">
        <ele>65</ele>
        <time>2015-12-05T14:53:31Z</time>
      </trkpt>
      <trkpt lat="47.32164" lon="-1.85499">
        <ele>65</ele>
        <time>2015-12-05T14:53:32Z</time>
      </trkpt>
      <trkpt lat="47.32159" lon="-1.85502">
        <ele>64</ele>
        <time>2015-12-05T14:53:33Z</time>
      </trkpt>
      <trkpt lat="47.32151" lon="-1.85508">
        <ele>64</ele>
        <time>2015-12-05T14:53:34Z</time>
      </trkpt>
      <trkpt lat="47.32145" lon="-1.85511">
        <ele>63</ele>
        <time>2015-12-05T14:53:35Z</time>
      </trkpt>
      <trkpt lat="47.32138" lon="-1.85513">
        <ele>63</ele>
        <time>2015-12-05T14:53:36Z</time>
      </trkpt>
      <trkpt lat="47.32131" lon="-1.85516">
        <ele>63</ele>
        <time>2015-12-05T14:53:37Z</time>
      </trkpt>
      <trkpt lat="47.32123" lon="-1.85518">
        <ele>62</ele>
        <time>2015-12-05T14:53:38Z</time>
      </trkpt>
      <trkpt lat="47.32116" lon="-1.85523">
        <ele>62</ele>
        <time>2015-12-05T14:53:39Z</time>
      </trkpt>
      <trkpt lat="47.32109" lon="-1.85529">
        <ele>62</ele>
        <time>2015-12-05T14:53:40Z</time>
      </trkpt>
      <trkpt lat="47.32101" lon="-1.85536">
        <ele>62</ele>
        <time>2015-12-05T14:53:41Z</time>
      </trkpt>
      <trkpt lat="47.32095" lon="-1.85542">
        <ele>62</ele>
        <time>2015-12-05T14:53:42Z</time>
      </trkpt>
      <trkpt lat="47.32089" lon="-1.85548">
        <ele>62</ele>
        <time>2015-12-05T14:53:43Z</time>
      </trkpt>
      <trkpt lat="47.32083" lon="-1.85555">
        <ele>58</ele>
        <time>2015-12-05T14:53:44Z</time>
      </trkpt>
      <trkpt lat="47.32079" lon="-1.8556">
        <ele>58</ele>
        <time>2015-12-05T14:53:45Z</time>
      </trkpt>
      <trkpt lat="47.32073" lon="-1.85565">
        <ele>58</ele>
        <time>2015-12-05T14:53:46Z</time>
      </trkpt>
      <trkpt lat="47.32068" lon="-1.85568">
        <ele>58</ele>
        <time>2015-12-05T14:53:47Z</time>
      </trkpt>
      <trkpt lat="47.32063" lon="-1.8557">
        <ele>58</ele>
        <time>2015-12-05T14:53:48Z</time>
      </trkpt>
      <trkpt lat="47.32058" lon="-1.85574">
        <ele>58</ele>
        <time>2015-12-05T14:53:49Z</time>
      </trkpt>
      <trkpt lat="47.32053" lon="-1.85577">
        <ele>57</ele>
        <time>2015-12-05T14:53:50Z</time>
      </trkpt>
      <trkpt lat="47.3205" lon="-1.8558">
        <ele>57</ele>
        <time>2015-12-05T14:53:51Z</time>
      </trkpt>
      <trkpt lat="47.32046" lon="-1.85582">
        <ele>57</ele>
        <time>2015-12-05T14:53:52Z</time>
      </trkpt>
      <trkpt lat="47.32042" lon="-1.85585">
        <ele>58</ele>
        <time>2015-12-05T14:53:53Z</time>
      </trkpt>
      <trkpt lat="47.32038" lon="-1.85584">
        <ele>58</ele>
        <time>2015-12-05T14:53:54Z</time>
      </trkpt>
      <trkpt lat="47.32033" lon="-1.85587">
        <ele>58</ele>
        <time>2015-12-05T14:53:55Z</time>
      </trkpt>
      <trkpt lat="47.32028" lon="-1.85586">
        <ele>58</ele>
        <time>2015-12-05T14:53:56Z</time>
      </trkpt>
      <trkpt lat="47.32024" lon="-1.85586">
        <ele>57</ele>
        <time>2015-12-05T14:53:57Z</time>
      </trkpt>
      <trkpt lat="47.32025" lon="-1.85592">
        <ele>57</ele>
        <time>2015-12-05T14:53:59Z</time>
      </trkpt>
      <trkpt lat="47.32028" lon="-1.856">
        <ele>58</ele>
        <time>2015-12-05T14:54:02Z</time>
      </trkpt>
      <trkpt lat="47.3203" lon="-1.85604">
        <ele>58</ele>
        <time>2015-12-05T14:54:03Z</time>
      </trkpt>
      <trkpt lat="47.32031" lon="-1.8561">
        <ele>58</ele>
        <time>2015-12-05T14:54:04Z</time>
      </trkpt>
      <trkpt lat="47.32032" lon="-1.85614">
        <ele>58</ele>
        <time>2015-12-05T14:54:05Z</time>
      </trkpt>
      <trkpt lat="47.32033" lon="-1.85624">
        <ele>59</ele>
        <time>2015-12-05T14:54:07Z</time>
      </trkpt>
      <trkpt lat="47.32032" lon="-1.85632">
        <ele>59</ele>
        <time>2015-12-05T14:54:08Z</time>
      </trkpt>
      <trkpt lat="47.32032" lon="-1.85638">
        <ele>59</ele>
        <time>2015-12-05T14:54:09Z</time>
      </trkpt>
      <trkpt lat="47.32032" lon="-1.85645">
        <ele>59</ele>
        <time>2015-12-05T14:54:10Z</time>
      </trkpt>
      <trkpt lat="47.32031" lon="-1.85651">
        <ele>59</ele>
        <time>2015-12-05T14:54:11Z</time>
      </trkpt>
      <trkpt lat="47.32031" lon="-1.85657">
        <ele>59</ele>
        <time>2015-12-05T14:54:12Z</time>
      </trkpt>
      <trkpt lat="47.3203" lon="-1.85664">
        <ele>59</ele>
        <time>2015-12-05T14:54:13Z</time>
      </trkpt>
      <trkpt lat="47.32029" lon="-1.8567">
        <ele>61</ele>
        <time>2015-12-05T14:54:14Z</time>
      </trkpt>
      <trkpt lat="47.32028" lon="-1.85676">
        <ele>61</ele>
        <time>2015-12-05T14:54:15Z</time>
      </trkpt>
      <trkpt lat="47.32024" lon="-1.8568">
        <ele>61</ele>
        <time>2015-12-05T14:54:16Z</time>
      </trkpt>
      <trkpt lat="47.3202" lon="-1.85683">
        <ele>61</ele>
        <time>2015-12-05T14:54:17Z</time>
      </trkpt>
      <trkpt lat="47.32015" lon="-1.85686">
        <ele>60</ele>
        <time>2015-12-05T14:54:18Z</time>
      </trkpt>
      <trkpt lat="47.32009" lon="-1.85688">
        <ele>60</ele>
        <time>2015-12-05T14:54:19Z</time>
      </trkpt>
      <trkpt lat="47.32004" lon="-1.8569">
        <ele>60</ele>
        <time>2015-12-05T14:54:20Z</time>
      </trkpt>
      <trkpt lat="47.32002" lon="-1.85699">
        <ele>61</ele>
        <time>2015-12-05T14:54:21Z</time>
      </trkpt>
      <trkpt lat="47.32" lon="-1.85704">
        <ele>56</ele>
        <time>2015-12-05T14:54:22Z</time>
      </trkpt>
      <trkpt lat="47.31997" lon="-1.8571">
        <ele>56</ele>
        <time>2015-12-05T14:54:23Z</time>
      </trkpt>
      <trkpt lat="47.32003" lon="-1.85719">
        <ele>61</ele>
        <time>2015-12-05T14:54:24Z</time>
      </trkpt>
      <trkpt lat="47.32005" lon="-1.85726">
        <ele>61</ele>
        <time>2015-12-05T14:54:25Z</time>
      </trkpt>
      <trkpt lat="47.32007" lon="-1.85734">
        <ele>61</ele>
        <time>2015-12-05T14:54:26Z</time>
      </trkpt>
      <trkpt lat="47.32008" lon="-1.85741">
        <ele>61</ele>
        <time>2015-12-05T14:54:27Z</time>
      </trkpt>
      <trkpt lat="47.32008" lon="-1.85748">
        <ele>61</ele>
        <time>2015-12-05T14:54:28Z</time>
      </trkpt>
      <trkpt lat="47.32009" lon="-1.85757">
        <ele>61</ele>
        <time>2015-12-05T14:54:29Z</time>
      </trkpt>
      <trkpt lat="47.3201" lon="-1.85765">
        <ele>61</ele>
        <time>2015-12-05T14:54:30Z</time>
      </trkpt>
      <trkpt lat="47.32011" lon="-1.85773">
        <ele>61</ele>
        <time>2015-12-05T14:54:31Z</time>
      </trkpt>
      <trkpt lat="47.32012" lon="-1.85782">
        <ele>62</ele>
        <time>2015-12-05T14:54:32Z</time>
      </trkpt>
      <trkpt lat="47.32012" lon="-1.8579">
        <ele>62</ele>
        <time>2015-12-05T14:54:33Z</time>
      </trkpt>
      <trkpt lat="47.32013" lon="-1.85799">
        <ele>62</ele>
        <time>2015-12-05T14:54:34Z</time>
      </trkpt>
      <trkpt lat="47.32014" lon="-1.85807">
        <ele>62</ele>
        <time>2015-12-05T14:54:35Z</time>
      </trkpt>
      <trkpt lat="47.32015" lon="-1.85813">
        <ele>62</ele>
        <time>2015-12-05T14:54:36Z</time>
      </trkpt>
      <trkpt lat="47.32016" lon="-1.8582">
        <ele>62</ele>
        <time>2015-12-05T14:54:37Z</time>
      </trkpt>
      <trkpt lat="47.32017" lon="-1.85828">
        <ele>62</ele>
        <time>2015-12-05T14:54:38Z</time>
      </trkpt>
      <trkpt lat="47.32018" lon="-1.85835">
        <ele>62</ele>
        <time>2015-12-05T14:54:39Z</time>
      </trkpt>
      <trkpt lat="47.32018" lon="-1.85839">
        <ele>62</ele>
        <time>2015-12-05T14:54:40Z</time>
      </trkpt>
      <trkpt lat="47.32018" lon="-1.85846">
        <ele>62</ele>
        <time>2015-12-05T14:54:42Z</time>
      </trkpt>
      <trkpt lat="47.32018" lon="-1.8585">
        <ele>62</ele>
        <time>2015-12-05T14:54:43Z</time>
      </trkpt>
      <trkpt lat="47.3202" lon="-1.85853">
        <ele>62</ele>
        <time>2015-12-05T14:54:45Z</time>
      </trkpt>
      <trkpt lat="47.3202" lon="-1.85862">
        <ele>63</ele>
        <time>2015-12-05T14:54:47Z</time>
      </trkpt>
      <trkpt lat="47.32021" lon="-1.85869">
        <ele>63</ele>
        <time>2015-12-05T14:54:48Z</time>
      </trkpt>
      <trkpt lat="47.32021" lon="-1.85876">
        <ele>63</ele>
        <time>2015-12-05T14:54:50Z</time>
      </trkpt>
      <trkpt lat="47.32015" lon="-1.85877">
        <ele>63</ele>
        <time>2015-12-05T14:54:51Z</time>
      </trkpt>
      <trkpt lat="47.32012" lon="-1.8588">
        <ele>63</ele>
        <time>2015-12-05T14:54:52Z</time>
      </trkpt>
      <trkpt lat="47.32009" lon="-1.85882">
        <ele>62</ele>
        <time>2015-12-05T14:54:53Z</time>
      </trkpt>
      <trkpt lat="47.32003" lon="-1.85885">
        <ele>62</ele>
        <time>2015-12-05T14:54:54Z</time>
      </trkpt>
      <trkpt lat="47.31998" lon="-1.85887">
        <ele>58</ele>
        <time>2015-12-05T14:54:55Z</time>
      </trkpt>
      <trkpt lat="47.31993" lon="-1.85888">
        <ele>58</ele>
        <time>2015-12-05T14:54:56Z</time>
      </trkpt>
      <trkpt lat="47.31986" lon="-1.85888">
        <ele>57</ele>
        <time>2015-12-05T14:54:57Z</time>
      </trkpt>
      <trkpt lat="47.31981" lon="-1.85888">
        <ele>57</ele>
        <time>2015-12-05T14:54:58Z</time>
      </trkpt>
      <trkpt lat="47.31975" lon="-1.85889">
        <ele>57</ele>
        <time>2015-12-05T14:54:59Z</time>
      </trkpt>
      <trkpt lat="47.31977" lon="-1.85892">
        <ele>57</ele>
        <time>2015-12-05T14:55:00Z</time>
      </trkpt>
      <trkpt lat="47.31975" lon="-1.85896">
        <ele>57</ele>
        <time>2015-12-05T14:55:01Z</time>
      </trkpt>
      <trkpt lat="47.31973" lon="-1.85899">
        <ele>57</ele>
        <time>2015-12-05T14:55:02Z</time>
      </trkpt>
      <trkpt lat="47.31973" lon="-1.85907">
        <ele>57</ele>
        <time>2015-12-05T14:55:04Z</time>
      </trkpt>
      <trkpt lat="47.31973" lon="-1.85911">
        <ele>57</ele>
        <time>2015-12-05T14:55:05Z</time>
      </trkpt>
      <trkpt lat="47.31978" lon="-1.85913">
        <ele>58</ele>
        <time>2015-12-05T14:55:06Z</time>
      </trkpt>
      <trkpt lat="47.3198" lon="-1.85916">
        <ele>58</ele>
        <time>2015-12-05T14:55:07Z</time>
      </trkpt>
      <trkpt lat="47.31983" lon="-1.8592">
        <ele>57</ele>
        <time>2015-12-05T14:55:08Z</time>
      </trkpt>
      <trkpt lat="47.31986" lon="-1.85924">
        <ele>57</ele>
        <time>2015-12-05T14:55:09Z</time>
      </trkpt>
      <trkpt lat="47.31988" lon="-1.85927">
        <ele>57</ele>
        <time>2015-12-05T14:55:10Z</time>
      </trkpt>
      <trkpt lat="47.31992" lon="-1.85933">
        <ele>57</ele>
        <time>2015-12-05T14:55:11Z</time>
      </trkpt>
      <trkpt lat="47.31995" lon="-1.85939">
        <ele>57</ele>
        <time>2015-12-05T14:55:12Z</time>
      </trkpt>
      <trkpt lat="47.31997" lon="-1.85942">
        <ele>56</ele>
        <time>2015-12-05T14:55:13Z</time>
      </trkpt>
      <trkpt lat="47.32" lon="-1.85946">
        <ele>56</ele>
        <time>2015-12-05T14:55:14Z</time>
      </trkpt>
      <trkpt lat="47.32003" lon="-1.85948">
        <ele>62</ele>
        <time>2015-12-05T14:55:15Z</time>
      </trkpt>
      <trkpt lat="47.32006" lon="-1.8595">
        <ele>62</ele>
        <time>2015-12-05T14:55:16Z</time>
      </trkpt>
      <trkpt lat="47.32009" lon="-1.85951">
        <ele>62</ele>
        <time>2015-12-05T14:55:17Z</time>
      </trkpt>
      <trkpt lat="47.32014" lon="-1.85953">
        <ele>62</ele>
        <time>2015-12-05T14:55:18Z</time>
      </trkpt>
      <trkpt lat="47.32017" lon="-1.85954">
        <ele>62</ele>
        <time>2015-12-05T14:55:19Z</time>
      </trkpt>
      <trkpt lat="47.3202" lon="-1.85955">
        <ele>62</ele>
        <time>2015-12-05T14:55:20Z</time>
      </trkpt>
      <trkpt lat="47.32023" lon="-1.8596">
        <ele>62</ele>
        <time>2015-12-05T14:55:21Z</time>
      </trkpt>
      <trkpt lat="47.32026" lon="-1.85963">
        <ele>62</ele>
        <time>2015-12-05T14:55:22Z</time>
      </trkpt>
      <trkpt lat="47.32029" lon="-1.85965">
        <ele>62</ele>
        <time>2015-12-05T14:55:23Z</time>
      </trkpt>
      <trkpt lat="47.32028" lon="-1.85971">
        <ele>62</ele>
        <time>2015-12-05T14:55:24Z</time>
      </trkpt>
      <trkpt lat="47.3203" lon="-1.85979">
        <ele>62</ele>
        <time>2015-12-05T14:55:25Z</time>
      </trkpt>
      <trkpt lat="47.32032" lon="-1.85984">
        <ele>62</ele>
        <time>2015-12-05T14:55:26Z</time>
      </trkpt>
      <trkpt lat="47.32035" lon="-1.85987">
        <ele>62</ele>
        <time>2015-12-05T14:55:27Z</time>
      </trkpt>
      <trkpt lat="47.32038" lon="-1.85989">
        <ele>62</ele>
        <time>2015-12-05T14:55:28Z</time>
      </trkpt>
      <trkpt lat="47.32041" lon="-1.85989">
        <ele>62</ele>
        <time>2015-12-05T14:55:29Z</time>
      </trkpt>
      <trkpt lat="47.32045" lon="-1.85989">
        <ele>62</ele>
        <time>2015-12-05T14:55:30Z</time>
      </trkpt>
      <trkpt lat="47.32048" lon="-1.8599">
        <ele>63</ele>
        <time>2015-12-05T14:55:31Z</time>
      </trkpt>
      <trkpt lat="47.3205" lon="-1.8599">
        <ele>63</ele>
        <time>2015-12-05T14:55:32Z</time>
      </trkpt>
      <trkpt lat="47.32053" lon="-1.85989">
        <ele>63</ele>
        <time>2015-12-05T14:55:33Z</time>
      </trkpt>
      <trkpt lat="47.32057" lon="-1.85994">
        <ele>63</ele>
        <time>2015-12-05T14:55:34Z</time>
      </trkpt>
      <trkpt lat="47.32059" lon="-1.85997">
        <ele>63</ele>
        <time>2015-12-05T14:55:35Z</time>
      </trkpt>
      <trkpt lat="47.3206" lon="-1.86002">
        <ele>61</ele>
        <time>2015-12-05T14:55:36Z</time>
      </trkpt>
      <trkpt lat="47.32061" lon="-1.86007">
        <ele>61</ele>
        <time>2015-12-05T14:55:37Z</time>
      </trkpt>
      <trkpt lat="47.32061" lon="-1.86011">
        <ele>61</ele>
        <time>2015-12-05T14:55:38Z</time>
      </trkpt>
      <trkpt lat="47.32061" lon="-1.86016">
        <ele>61</ele>
        <time>2015-12-05T14:55:39Z</time>
      </trkpt>
      <trkpt lat="47.32063" lon="-1.86023">
        <ele>60</ele>
        <time>2015-12-05T14:55:40Z</time>
      </trkpt>
      <trkpt lat="47.32064" lon="-1.86029">
        <ele>60</ele>
        <time>2015-12-05T14:55:41Z</time>
      </trkpt>
      <trkpt lat="47.32065" lon="-1.86034">
        <ele>60</ele>
        <time>2015-12-05T14:55:42Z</time>
      </trkpt>
      <trkpt lat="47.32069" lon="-1.86044">
        <ele>60</ele>
        <time>2015-12-05T14:55:43Z</time>
      </trkpt>
      <trkpt lat="47.32072" lon="-1.86051">
        <ele>59</ele>
        <time>2015-12-05T14:55:44Z</time>
      </trkpt>
      <trkpt lat="47.32074" lon="-1.86057">
        <ele>59</ele>
        <time>2015-12-05T14:55:45Z</time>
      </trkpt>
      <trkpt lat="47.32078" lon="-1.86053">
        <ele>60</ele>
        <time>2015-12-05T14:55:46Z</time>
      </trkpt>
      <trkpt lat="47.3208" lon="-1.86057">
        <ele>59</ele>
        <time>2015-12-05T14:55:47Z</time>
      </trkpt>
      <trkpt lat="47.32083" lon="-1.86062">
        <ele>59</ele>
        <time>2015-12-05T14:55:48Z</time>
      </trkpt>
      <trkpt lat="47.32095" lon="-1.86099">
        <ele>57</ele>
        <time>2015-12-05T14:55:50Z</time>
      </trkpt>
      <trkpt lat="47.32102" lon="-1.8611">
        <ele>56</ele>
        <time>2015-12-05T14:55:51Z</time>
      </trkpt>
      <trkpt lat="47.32109" lon="-1.86118">
        <ele>55</ele>
        <time>2015-12-05T14:55:52Z</time>
      </trkpt>
      <trkpt lat="47.32122" lon="-1.86137">
        <ele>54</ele>
        <time>2015-12-05T14:55:54Z</time>
      </trkpt>
      <trkpt lat="47.32127" lon="-1.86144">
        <ele>54</ele>
        <time>2015-12-05T14:55:55Z</time>
      </trkpt>
      <trkpt lat="47.32132" lon="-1.86153">
        <ele>54</ele>
        <time>2015-12-05T14:55:56Z</time>
      </trkpt>
      <trkpt lat="47.32137" lon="-1.86163">
        <ele>54</ele>
        <time>2015-12-05T14:55:57Z</time>
      </trkpt>
      <trkpt lat="47.32139" lon="-1.86173">
        <ele>51</ele>
        <time>2015-12-05T14:55:58Z</time>
      </trkpt>
      <trkpt lat="47.32144" lon="-1.8618">
        <ele>51</ele>
        <time>2015-12-05T14:55:59Z</time>
      </trkpt>
      <trkpt lat="47.32147" lon="-1.86185">
        <ele>51</ele>
        <time>2015-12-05T14:56:00Z</time>
      </trkpt>
      <trkpt lat="47.3215" lon="-1.86191">
        <ele>51</ele>
        <time>2015-12-05T14:56:02Z</time>
      </trkpt>
      <trkpt lat="47.32152" lon="-1.86196">
        <ele>51</ele>
        <time>2015-12-05T14:56:04Z</time>
      </trkpt>
      <trkpt lat="47.32149" lon="-1.86197">
        <ele>50</ele>
        <time>2015-12-05T14:56:17Z</time>
      </trkpt>
      <trkpt lat="47.32145" lon="-1.86198">
        <ele>50</ele>
        <time>2015-12-05T14:57:37Z</time>
      </trkpt>
      <trkpt lat="47.32143" lon="-1.86198">
        <ele>50</ele>
        <time>2015-12-05T14:57:38Z</time>
      </trkpt>
      <trkpt lat="47.32139" lon="-1.86196">
        <ele>50</ele>
        <time>2015-12-05T14:57:39Z</time>
      </trkpt>
      <trkpt lat="47.32136" lon="-1.86195">
        <ele>50</ele>
        <time>2015-12-05T14:57:40Z</time>
      </trkpt>
      <trkpt lat="47.32131" lon="-1.86194">
        <ele>50</ele>
        <time>2015-12-05T14:57:41Z</time>
      </trkpt>
      <trkpt lat="47.32127" lon="-1.86192">
        <ele>50</ele>
        <time>2015-12-05T14:57:42Z</time>
      </trkpt>
      <trkpt lat="47.32122" lon="-1.86191">
        <ele>50</ele>
        <time>2015-12-05T14:57:43Z</time>
      </trkpt>
      <trkpt lat="47.32116" lon="-1.86189">
        <ele>49</ele>
        <time>2015-12-05T14:57:44Z</time>
      </trkpt>
      <trkpt lat="47.3211" lon="-1.86187">
        <ele>49</ele>
        <time>2015-12-05T14:57:45Z</time>
      </trkpt>
      <trkpt lat="47.32103" lon="-1.86185">
        <ele>49</ele>
        <time>2015-12-05T14:57:46Z</time>
      </trkpt>
      <trkpt lat="47.32098" lon="-1.86182">
        <ele>49</ele>
        <time>2015-12-05T14:57:47Z</time>
      </trkpt>
      <trkpt lat="47.32095" lon="-1.86181">
        <ele>49</ele>
        <time>2015-12-05T14:57:48Z</time>
      </trkpt>
      <trkpt lat="47.3209" lon="-1.86193">
        <ele>49</ele>
        <time>2015-12-05T14:57:50Z</time>
      </trkpt>
      <trkpt lat="47.32088" lon="-1.86202">
        <ele>48</ele>
        <time>2015-12-05T14:57:51Z</time>
      </trkpt>
      <trkpt lat="47.32086" lon="-1.86211">
        <ele>48</ele>
        <time>2015-12-05T14:57:52Z</time>
      </trkpt>
      <trkpt lat="47.32085" lon="-1.86226">
        <ele>47</ele>
        <time>2015-12-05T14:57:53Z</time>
      </trkpt>
      <trkpt lat="47.32085" lon="-1.86237">
        <ele>46</ele>
        <time>2015-12-05T14:57:54Z</time>
      </trkpt>
      <trkpt lat="47.32085" lon="-1.86248">
        <ele>44</ele>
        <time>2015-12-05T14:57:55Z</time>
      </trkpt>
      <trkpt lat="47.3208" lon="-1.86261">
        <ele>39</ele>
        <time>2015-12-05T14:57:56Z</time>
      </trkpt>
      <trkpt lat="47.32077" lon="-1.86276">
        <ele>37</ele>
        <time>2015-12-05T14:57:57Z</time>
      </trkpt>
      <trkpt lat="47.32076" lon="-1.86294">
        <ele>35</ele>
        <time>2015-12-05T14:57:58Z</time>
      </trkpt>
      <trkpt lat="47.32074" lon="-1.86311">
        <ele>35</ele>
        <time>2015-12-05T14:57:59Z</time>
      </trkpt>
      <trkpt lat="47.32073" lon="-1.86326">
        <ele>35</ele>
        <time>2015-12-05T14:58:00Z</time>
      </trkpt>
      <trkpt lat="47.32072" lon="-1.86341">
        <ele>32</ele>
        <time>2015-12-05T14:58:01Z</time>
      </trkpt>
      <trkpt lat="47.32074" lon="-1.86345">
        <ele>32</ele>
        <time>2015-12-05T14:58:02Z</time>
      </trkpt>
      <trkpt lat="47.32074" lon="-1.86355">
        <ele>30</ele>
        <time>2015-12-05T14:58:03Z</time>
      </trkpt>
      <trkpt lat="47.32073" lon="-1.86364">
        <ele>29</ele>
        <time>2015-12-05T14:58:04Z</time>
      </trkpt>
      <trkpt lat="47.32072" lon="-1.86373">
        <ele>28</ele>
        <time>2015-12-05T14:58:05Z</time>
      </trkpt>
      <trkpt lat="47.32073" lon="-1.86381">
        <ele>28</ele>
        <time>2015-12-05T14:58:06Z</time>
      </trkpt>
      <trkpt lat="47.32073" lon="-1.86389">
        <ele>27</ele>
        <time>2015-12-05T14:58:07Z</time>
      </trkpt>
      <trkpt lat="47.32073" lon="-1.86398">
        <ele>27</ele>
        <time>2015-12-05T14:58:08Z</time>
      </trkpt>
      <trkpt lat="47.3208" lon="-1.86403">
        <ele>27</ele>
        <time>2015-12-05T14:58:09Z</time>
      </trkpt>
      <trkpt lat="47.32082" lon="-1.86413">
        <ele>28</ele>
        <time>2015-12-05T14:58:10Z</time>
      </trkpt>
      <trkpt lat="47.32084" lon="-1.86421">
        <ele>28</ele>
        <time>2015-12-05T14:58:11Z</time>
      </trkpt>
      <trkpt lat="47.32087" lon="-1.86429">
        <ele>29</ele>
        <time>2015-12-05T14:58:12Z</time>
      </trkpt>
      <trkpt lat="47.32098" lon="-1.86428">
        <ele>30</ele>
        <time>2015-12-05T14:58:13Z</time>
      </trkpt>
      <trkpt lat="47.32103" lon="-1.86434">
        <ele>30</ele>
        <time>2015-12-05T14:58:14Z</time>
      </trkpt>
      <trkpt lat="47.32108" lon="-1.86445">
        <ele>30</ele>
        <time>2015-12-05T14:58:15Z</time>
      </trkpt>
      <trkpt lat="47.32111" lon="-1.86457">
        <ele>30</ele>
        <time>2015-12-05T14:58:16Z</time>
      </trkpt>
      <trkpt lat="47.32111" lon="-1.86467">
        <ele>30</ele>
        <time>2015-12-05T14:58:17Z</time>
      </trkpt>
      <trkpt lat="47.32111" lon="-1.86478">
        <ele>29</ele>
        <time>2015-12-05T14:58:18Z</time>
      </trkpt>
      <trkpt lat="47.3211" lon="-1.86485">
        <ele>29</ele>
        <time>2015-12-05T14:58:19Z</time>
      </trkpt>
      <trkpt lat="47.3211" lon="-1.86492">
        <ele>28</ele>
        <time>2015-12-05T14:58:20Z</time>
      </trkpt>
      <trkpt lat="47.32112" lon="-1.865">
        <ele>28</ele>
        <time>2015-12-05T14:58:21Z</time>
      </trkpt>
      <trkpt lat="47.32113" lon="-1.86507">
        <ele>26</ele>
        <time>2015-12-05T14:58:22Z</time>
      </trkpt>
      <trkpt lat="47.32117" lon="-1.86514">
        <ele>26</ele>
        <time>2015-12-05T14:58:23Z</time>
      </trkpt>
      <trkpt lat="47.3212" lon="-1.8652">
        <ele>26</ele>
        <time>2015-12-05T14:58:24Z</time>
      </trkpt>
      <trkpt lat="47.32123" lon="-1.86526">
        <ele>27</ele>
        <time>2015-12-05T14:58:25Z</time>
      </trkpt>
      <trkpt lat="47.32128" lon="-1.86527">
        <ele>27</ele>
        <time>2015-12-05T14:58:26Z</time>
      </trkpt>
      <trkpt lat="47.32133" lon="-1.86533">
        <ele>27</ele>
        <time>2015-12-05T14:58:27Z</time>
      </trkpt>
      <trkpt lat="47.32138" lon="-1.86539">
        <ele>27</ele>
        <time>2015-12-05T14:58:28Z</time>
      </trkpt>
      <trkpt lat="47.32142" lon="-1.86545">
        <ele>27</ele>
        <time>2015-12-05T14:58:29Z</time>
      </trkpt>
      <trkpt lat="47.32146" lon="-1.8655">
        <ele>27</ele>
        <time>2015-12-05T14:58:30Z</time>
      </trkpt>
      <trkpt lat="47.32145" lon="-1.8656">
        <ele>27</ele>
        <time>2015-12-05T14:58:31Z</time>
      </trkpt>
      <trkpt lat="47.32146" lon="-1.86568">
        <ele>27</ele>
        <time>2015-12-05T14:58:32Z</time>
      </trkpt>
      <trkpt lat="47.32147" lon="-1.86576">
        <ele>27</ele>
        <time>2015-12-05T14:58:33Z</time>
      </trkpt>
      <trkpt lat="47.32146" lon="-1.86582">
        <ele>27</ele>
        <time>2015-12-05T14:58:34Z</time>
      </trkpt>
      <trkpt lat="47.32147" lon="-1.86588">
        <ele>27</ele>
        <time>2015-12-05T14:58:35Z</time>
      </trkpt>
      <trkpt lat="47.32149" lon="-1.86594">
        <ele>27</ele>
        <time>2015-12-05T14:58:36Z</time>
      </trkpt>
      <trkpt lat="47.32151" lon="-1.866">
        <ele>27</ele>
        <time>2015-12-05T14:58:37Z</time>
      </trkpt>
      <trkpt lat="47.32153" lon="-1.86603">
        <ele>27</ele>
        <time>2015-12-05T14:58:38Z</time>
      </trkpt>
      <trkpt lat="47.32156" lon="-1.86606">
        <ele>27</ele>
        <time>2015-12-05T14:58:39Z</time>
      </trkpt>
      <trkpt lat="47.32159" lon="-1.86608">
        <ele>27</ele>
        <time>2015-12-05T14:58:40Z</time>
      </trkpt>
      <trkpt lat="47.32161" lon="-1.86611">
        <ele>27</ele>
        <time>2015-12-05T14:58:41Z</time>
      </trkpt>
      <trkpt lat="47.32164" lon="-1.86615">
        <ele>27</ele>
        <time>2015-12-05T14:58:42Z</time>
      </trkpt>
      <trkpt lat="47.32166" lon="-1.8662">
        <ele>27</ele>
        <time>2015-12-05T14:58:43Z</time>
      </trkpt>
      <trkpt lat="47.32168" lon="-1.86623">
        <ele>32</ele>
        <time>2015-12-05T14:58:44Z</time>
      </trkpt>
      <trkpt lat="47.3217" lon="-1.86627">
        <ele>32</ele>
        <time>2015-12-05T14:58:45Z</time>
      </trkpt>
      <trkpt lat="47.32173" lon="-1.86634">
        <ele>32</ele>
        <time>2015-12-05T14:58:47Z</time>
      </trkpt>
      <trkpt lat="47.32175" lon="-1.86638">
        <ele>32</ele>
        <time>2015-12-05T14:58:48Z</time>
      </trkpt>
      <trkpt lat="47.32178" lon="-1.86638">
        <ele>32</ele>
        <time>2015-12-05T14:58:49Z</time>
      </trkpt>
      <trkpt lat="47.3218" lon="-1.86641">
        <ele>32</ele>
        <time>2015-12-05T14:58:50Z</time>
      </trkpt>
      <trkpt lat="47.32182" lon="-1.86644">
        <ele>32</ele>
        <time>2015-12-05T14:58:51Z</time>
      </trkpt>
      <trkpt lat="47.32186" lon="-1.86649">
        <ele>32</ele>
        <time>2015-12-05T14:58:53Z</time>
      </trkpt>
      <trkpt lat="47.32189" lon="-1.86649">
        <ele>33</ele>
        <time>2015-12-05T14:58:54Z</time>
      </trkpt>
      <trkpt lat="47.32192" lon="-1.86648">
        <ele>33</ele>
        <time>2015-12-05T14:58:55Z</time>
      </trkpt>
      <trkpt lat="47.32195" lon="-1.86646">
        <ele>33</ele>
        <time>2015-12-05T14:58:56Z</time>
      </trkpt>
      <trkpt lat="47.32198" lon="-1.86644">
        <ele>33</ele>
        <time>2015-12-05T14:58:57Z</time>
      </trkpt>
      <trkpt lat="47.32201" lon="-1.86645">
        <ele>34</ele>
        <time>2015-12-05T14:58:58Z</time>
      </trkpt>
      <trkpt lat="47.32204" lon="-1.86644">
        <ele>34</ele>
        <time>2015-12-05T14:58:59Z</time>
      </trkpt>
      <trkpt lat="47.32207" lon="-1.86643">
        <ele>34</ele>
        <time>2015-12-05T14:59:00Z</time>
      </trkpt>
      <trkpt lat="47.32209" lon="-1.86646">
        <ele>34</ele>
        <time>2015-12-05T14:59:01Z</time>
      </trkpt>
      <trkpt lat="47.32213" lon="-1.86645">
        <ele>34</ele>
        <time>2015-12-05T14:59:04Z</time>
      </trkpt>
      <trkpt lat="47.32216" lon="-1.86646">
        <ele>35</ele>
        <time>2015-12-05T14:59:05Z</time>
      </trkpt>
      <trkpt lat="47.32221" lon="-1.86648">
        <ele>35</ele>
        <time>2015-12-05T14:59:07Z</time>
      </trkpt>
      <trkpt lat="47.32225" lon="-1.86655">
        <ele>35</ele>
        <time>2015-12-05T14:59:08Z</time>
      </trkpt>
      <trkpt lat="47.32229" lon="-1.86658">
        <ele>36</ele>
        <time>2015-12-05T14:59:10Z</time>
      </trkpt>
      <trkpt lat="47.32234" lon="-1.86661">
        <ele>36</ele>
        <time>2015-12-05T14:59:12Z</time>
      </trkpt>
      <trkpt lat="47.32238" lon="-1.86663">
        <ele>37</ele>
        <time>2015-12-05T14:59:14Z</time>
      </trkpt>
      <trkpt lat="47.32243" lon="-1.86666">
        <ele>37</ele>
        <time>2015-12-05T14:59:16Z</time>
      </trkpt>
      <trkpt lat="47.32244" lon="-1.8667">
        <ele>37</ele>
        <time>2015-12-05T14:59:17Z</time>
      </trkpt>
      <trkpt lat="47.32249" lon="-1.86672">
        <ele>37</ele>
        <time>2015-12-05T14:59:19Z</time>
      </trkpt>
      <trkpt lat="47.32252" lon="-1.86673">
        <ele>39</ele>
        <time>2015-12-05T14:59:20Z</time>
      </trkpt>
      <trkpt lat="47.32256" lon="-1.86675">
        <ele>39</ele>
        <time>2015-12-05T14:59:21Z</time>
      </trkpt>
      <trkpt lat="47.32259" lon="-1.86677">
        <ele>39</ele>
        <time>2015-12-05T14:59:22Z</time>
      </trkpt>
      <trkpt lat="47.32261" lon="-1.86677">
        <ele>40</ele>
        <time>2015-12-05T14:59:23Z</time>
      </trkpt>
      <trkpt lat="47.32267" lon="-1.8668">
        <ele>40</ele>
        <time>2015-12-05T14:59:25Z</time>
      </trkpt>
      <trkpt lat="47.32269" lon="-1.86681">
        <ele>40</ele>
        <time>2015-12-05T14:59:26Z</time>
      </trkpt>
      <trkpt lat="47.32272" lon="-1.86683">
        <ele>41</ele>
        <time>2015-12-05T14:59:27Z</time>
      </trkpt>
      <trkpt lat="47.32275" lon="-1.86685">
        <ele>41</ele>
        <time>2015-12-05T14:59:28Z</time>
      </trkpt>
      <trkpt lat="47.32279" lon="-1.86687">
        <ele>41</ele>
        <time>2015-12-05T14:59:30Z</time>
      </trkpt>
      <trkpt lat="47.32285" lon="-1.8669">
        <ele>42</ele>
        <time>2015-12-05T14:59:32Z</time>
      </trkpt>
      <trkpt lat="47.32287" lon="-1.86691">
        <ele>42</ele>
        <time>2015-12-05T14:59:33Z</time>
      </trkpt>
      <trkpt lat="47.32293" lon="-1.86692">
        <ele>42</ele>
        <time>2015-12-05T14:59:35Z</time>
      </trkpt>
      <trkpt lat="47.32295" lon="-1.86693">
        <ele>42</ele>
        <time>2015-12-05T14:59:36Z</time>
      </trkpt>
      <trkpt lat="47.323" lon="-1.86697">
        <ele>42</ele>
        <time>2015-12-05T14:59:38Z</time>
      </trkpt>
      <trkpt lat="47.32302" lon="-1.86699">
        <ele>43</ele>
        <time>2015-12-05T14:59:39Z</time>
      </trkpt>
      <trkpt lat="47.32307" lon="-1.86701">
        <ele>43</ele>
        <time>2015-12-05T14:59:41Z</time>
      </trkpt>
      <trkpt lat="47.3231" lon="-1.86703">
        <ele>43</ele>
        <time>2015-12-05T14:59:42Z</time>
      </trkpt>
      <trkpt lat="47.32313" lon="-1.86705">
        <ele>43</ele>
        <time>2015-12-05T14:59:43Z</time>
      </trkpt>
      <trkpt lat="47.32316" lon="-1.86707">
        <ele>43</ele>
        <time>2015-12-05T14:59:44Z</time>
      </trkpt>
      <trkpt lat="47.32319" lon="-1.86711">
        <ele>43</ele>
        <time>2015-12-05T14:59:45Z</time>
      </trkpt>
      <trkpt lat="47.32324" lon="-1.86714">
        <ele>43</ele>
        <time>2015-12-05T14:59:47Z</time>
      </trkpt>
      <trkpt lat="47.32327" lon="-1.86716">
        <ele>44</ele>
        <time>2015-12-05T14:59:48Z</time>
      </trkpt>
      <trkpt lat="47.3233" lon="-1.86717">
        <ele>44</ele>
        <time>2015-12-05T14:59:49Z</time>
      </trkpt>
      <trkpt lat="47.32333" lon="-1.86719">
        <ele>44</ele>
        <time>2015-12-05T14:59:50Z</time>
      </trkpt>
      <trkpt lat="47.32338" lon="-1.86722">
        <ele>49</ele>
        <time>2015-12-05T14:59:52Z</time>
      </trkpt>
      <trkpt lat="47.32341" lon="-1.86723">
        <ele>49</ele>
        <time>2015-12-05T14:59:53Z</time>
      </trkpt>
      <trkpt lat="47.32344" lon="-1.86723">
        <ele>49</ele>
        <time>2015-12-05T14:59:54Z</time>
      </trkpt>
      <trkpt lat="47.32349" lon="-1.86726">
        <ele>49</ele>
        <time>2015-12-05T14:59:56Z</time>
      </trkpt>
      <trkpt lat="47.32352" lon="-1.8673">
        <ele>49</ele>
        <time>2015-12-05T14:59:57Z</time>
      </trkpt>
      <trkpt lat="47.32355" lon="-1.86732">
        <ele>49</ele>
        <time>2015-12-05T14:59:58Z</time>
      </trkpt>
      <trkpt lat="47.32359" lon="-1.86731">
        <ele>49</ele>
        <time>2015-12-05T15:00:00Z</time>
      </trkpt>
      <trkpt lat="47.32363" lon="-1.86731">
        <ele>49</ele>
        <time>2015-12-05T15:00:02Z</time>
      </trkpt>
      <trkpt lat="47.32364" lon="-1.86738">
        <ele>49</ele>
        <time>2015-12-05T15:00:03Z</time>
      </trkpt>
      <trkpt lat="47.32366" lon="-1.86741">
        <ele>49</ele>
        <time>2015-12-05T15:00:04Z</time>
      </trkpt>
      <trkpt lat="47.32368" lon="-1.86745">
        <ele>49</ele>
        <time>2015-12-05T15:00:05Z</time>
      </trkpt>
      <trkpt lat="47.32367" lon="-1.86754">
        <ele>48</ele>
        <time>2015-12-05T15:00:06Z</time>
      </trkpt>
      <trkpt lat="47.32367" lon="-1.86761">
        <ele>48</ele>
        <time>2015-12-05T15:00:07Z</time>
      </trkpt>
      <trkpt lat="47.32369" lon="-1.86767">
        <ele>48</ele>
        <time>2015-12-05T15:00:08Z</time>
      </trkpt>
      <trkpt lat="47.3237" lon="-1.86773">
        <ele>48</ele>
        <time>2015-12-05T15:00:09Z</time>
      </trkpt>
      <trkpt lat="47.32372" lon="-1.86778">
        <ele>48</ele>
        <time>2015-12-05T15:00:10Z</time>
      </trkpt>
      <trkpt lat="47.32375" lon="-1.86784">
        <ele>48</ele>
        <time>2015-12-05T15:00:11Z</time>
      </trkpt>
      <trkpt lat="47.32374" lon="-1.8679">
        <ele>48</ele>
        <time>2015-12-05T15:00:12Z</time>
      </trkpt>
      <trkpt lat="47.32374" lon="-1.86797">
        <ele>48</ele>
        <time>2015-12-05T15:00:13Z</time>
      </trkpt>
      <trkpt lat="47.32375" lon="-1.86803">
        <ele>48</ele>
        <time>2015-12-05T15:00:14Z</time>
      </trkpt>
      <trkpt lat="47.32376" lon="-1.8681">
        <ele>48</ele>
        <time>2015-12-05T15:00:15Z</time>
      </trkpt>
      <trkpt lat="47.32377" lon="-1.86816">
        <ele>48</ele>
        <time>2015-12-05T15:00:16Z</time>
      </trkpt>
      <trkpt lat="47.32378" lon="-1.86822">
        <ele>48</ele>
        <time>2015-12-05T15:00:17Z</time>
      </trkpt>
      <trkpt lat="47.32379" lon="-1.86828">
        <ele>48</ele>
        <time>2015-12-05T15:00:18Z</time>
      </trkpt>
      <trkpt lat="47.3238" lon="-1.86834">
        <ele>46</ele>
        <time>2015-12-05T15:00:19Z</time>
      </trkpt>
      <trkpt lat="47.32382" lon="-1.8684">
        <ele>46</ele>
        <time>2015-12-05T15:00:20Z</time>
      </trkpt>
      <trkpt lat="47.32383" lon="-1.86844">
        <ele>46</ele>
        <time>2015-12-05T15:00:21Z</time>
      </trkpt>
      <trkpt lat="47.32383" lon="-1.86848">
        <ele>46</ele>
        <time>2015-12-05T15:00:22Z</time>
      </trkpt>
      <trkpt lat="47.32384" lon="-1.86854">
        <ele>46</ele>
        <time>2015-12-05T15:00:23Z</time>
      </trkpt>
      <trkpt lat="47.32385" lon="-1.8687">
        <ele>45</ele>
        <time>2015-12-05T15:00:24Z</time>
      </trkpt>
      <trkpt lat="47.32387" lon="-1.8688">
        <ele>45</ele>
        <time>2015-12-05T15:00:25Z</time>
      </trkpt>
      <trkpt lat="47.32387" lon="-1.86888">
        <ele>45</ele>
        <time>2015-12-05T15:00:26Z</time>
      </trkpt>
      <trkpt lat="47.32387" lon="-1.86895">
        <ele>45</ele>
        <time>2015-12-05T15:00:27Z</time>
      </trkpt>
      <trkpt lat="47.32383" lon="-1.8691">
        <ele>44</ele>
        <time>2015-12-05T15:00:28Z</time>
      </trkpt>
      <trkpt lat="47.32383" lon="-1.86919">
        <ele>42</ele>
        <time>2015-12-05T15:00:29Z</time>
      </trkpt>
      <trkpt lat="47.32383" lon="-1.86928">
        <ele>42</ele>
        <time>2015-12-05T15:00:30Z</time>
      </trkpt>
      <trkpt lat="47.32382" lon="-1.86938">
        <ele>41</ele>
        <time>2015-12-05T15:00:31Z</time>
      </trkpt>
      <trkpt lat="47.32384" lon="-1.86951">
        <ele>41</ele>
        <time>2015-12-05T15:00:32Z</time>
      </trkpt>
      <trkpt lat="47.32385" lon="-1.8696">
        <ele>41</ele>
        <time>2015-12-05T15:00:33Z</time>
      </trkpt>
      <trkpt lat="47.32385" lon="-1.8697">
        <ele>41</ele>
        <time>2015-12-05T15:00:34Z</time>
      </trkpt>
      <trkpt lat="47.32383" lon="-1.86975">
        <ele>41</ele>
        <time>2015-12-05T15:00:35Z</time>
      </trkpt>
      <trkpt lat="47.32385" lon="-1.86983">
        <ele>41</ele>
        <time>2015-12-05T15:00:36Z</time>
      </trkpt>
      <trkpt lat="47.32387" lon="-1.86992">
        <ele>41</ele>
        <time>2015-12-05T15:00:37Z</time>
      </trkpt>
      <trkpt lat="47.32392" lon="-1.87003">
        <ele>39</ele>
        <time>2015-12-05T15:00:38Z</time>
      </trkpt>
      <trkpt lat="47.32396" lon="-1.87013">
        <ele>40</ele>
        <time>2015-12-05T15:00:39Z</time>
      </trkpt>
      <trkpt lat="47.32398" lon="-1.87022">
        <ele>39</ele>
        <time>2015-12-05T15:00:40Z</time>
      </trkpt>
      <trkpt lat="47.32401" lon="-1.87031">
        <ele>39</ele>
        <time>2015-12-05T15:00:41Z</time>
      </trkpt>
      <trkpt lat="47.32403" lon="-1.87038">
        <ele>38</ele>
        <time>2015-12-05T15:00:43Z</time>
      </trkpt>
      <trkpt lat="47.32405" lon="-1.87047">
        <ele>38</ele>
        <time>2015-12-05T15:00:44Z</time>
      </trkpt>
      <trkpt lat="47.32407" lon="-1.87054">
        <ele>38</ele>
        <time>2015-12-05T15:00:45Z</time>
      </trkpt>
      <trkpt lat="47.32409" lon="-1.8706">
        <ele>38</ele>
        <time>2015-12-05T15:00:46Z</time>
      </trkpt>
      <trkpt lat="47.32412" lon="-1.87071">
        <ele>39</ele>
        <time>2015-12-05T15:00:47Z</time>
      </trkpt>
      <trkpt lat="47.32415" lon="-1.87079">
        <ele>39</ele>
        <time>2015-12-05T15:00:48Z</time>
      </trkpt>
      <trkpt lat="47.32417" lon="-1.87086">
        <ele>40</ele>
        <time>2015-12-05T15:00:49Z</time>
      </trkpt>
      <trkpt lat="47.32422" lon="-1.87095">
        <ele>41</ele>
        <time>2015-12-05T15:00:50Z</time>
      </trkpt>
      <trkpt lat="47.32428" lon="-1.87105">
        <ele>41</ele>
        <time>2015-12-05T15:00:51Z</time>
      </trkpt>
      <trkpt lat="47.32429" lon="-1.87112">
        <ele>41</ele>
        <time>2015-12-05T15:00:52Z</time>
      </trkpt>
      <trkpt lat="47.32431" lon="-1.87122">
        <ele>40</ele>
        <time>2015-12-05T15:00:53Z</time>
      </trkpt>
      <trkpt lat="47.32433" lon="-1.87132">
        <ele>40</ele>
        <time>2015-12-05T15:00:54Z</time>
      </trkpt>
      <trkpt lat="47.32435" lon="-1.87142">
        <ele>39</ele>
        <time>2015-12-05T15:00:55Z</time>
      </trkpt>
      <trkpt lat="47.3244" lon="-1.87141">
        <ele>40</ele>
        <time>2015-12-05T15:00:56Z</time>
      </trkpt>
      <trkpt lat="47.32442" lon="-1.87148">
        <ele>39</ele>
        <time>2015-12-05T15:00:57Z</time>
      </trkpt>
      <trkpt lat="47.32449" lon="-1.87158">
        <ele>40</ele>
        <time>2015-12-05T15:00:59Z</time>
      </trkpt>
      <trkpt lat="47.32453" lon="-1.87164">
        <ele>40</ele>
        <time>2015-12-05T15:01:00Z</time>
      </trkpt>
      <trkpt lat="47.32456" lon="-1.87171">
        <ele>36</ele>
        <time>2015-12-05T15:01:01Z</time>
      </trkpt>
      <trkpt lat="47.3246" lon="-1.87187">
        <ele>36</ele>
        <time>2015-12-05T15:01:02Z</time>
      </trkpt>
      <trkpt lat="47.32462" lon="-1.87196">
        <ele>36</ele>
        <time>2015-12-05T15:01:03Z</time>
      </trkpt>
      <trkpt lat="47.32464" lon="-1.87205">
        <ele>36</ele>
        <time>2015-12-05T15:01:04Z</time>
      </trkpt>
      <trkpt lat="47.32467" lon="-1.8721">
        <ele>35</ele>
        <time>2015-12-05T15:01:05Z</time>
      </trkpt>
      <trkpt lat="47.32469" lon="-1.87215">
        <ele>35</ele>
        <time>2015-12-05T15:01:06Z</time>
      </trkpt>
      <trkpt lat="47.32469" lon="-1.87232">
        <ele>35</ele>
        <time>2015-12-05T15:01:07Z</time>
      </trkpt>
      <trkpt lat="47.32472" lon="-1.87244">
        <ele>35</ele>
        <time>2015-12-05T15:01:08Z</time>
      </trkpt>
      <trkpt lat="47.32474" lon="-1.87253">
        <ele>31</ele>
        <time>2015-12-05T15:01:09Z</time>
      </trkpt>
      <trkpt lat="47.32476" lon="-1.87262">
        <ele>31</ele>
        <time>2015-12-05T15:01:10Z</time>
      </trkpt>
      <trkpt lat="47.32479" lon="-1.87274">
        <ele>31</ele>
        <time>2015-12-05T15:01:11Z</time>
      </trkpt>
      <trkpt lat="47.32483" lon="-1.87282">
        <ele>31</ele>
        <time>2015-12-05T15:01:12Z</time>
      </trkpt>
      <trkpt lat="47.32487" lon="-1.87288">
        <ele>30</ele>
        <time>2015-12-05T15:01:13Z</time>
      </trkpt>
      <trkpt lat="47.32492" lon="-1.87295">
        <ele>30</ele>
        <time>2015-12-05T15:01:14Z</time>
      </trkpt>
      <trkpt lat="47.32496" lon="-1.87304">
        <ele>30</ele>
        <time>2015-12-05T15:01:15Z</time>
      </trkpt>
      <trkpt lat="47.32499" lon="-1.87315">
        <ele>29</ele>
        <time>2015-12-05T15:01:16Z</time>
      </trkpt>
      <trkpt lat="47.32503" lon="-1.87327">
        <ele>30</ele>
        <time>2015-12-05T15:01:17Z</time>
      </trkpt>
      <trkpt lat="47.32507" lon="-1.87338">
        <ele>29</ele>
        <time>2015-12-05T15:01:18Z</time>
      </trkpt>
      <trkpt lat="47.32511" lon="-1.87348">
        <ele>30</ele>
        <time>2015-12-05T15:01:19Z</time>
      </trkpt>
      <trkpt lat="47.32516" lon="-1.8736">
        <ele>30</ele>
        <time>2015-12-05T15:01:20Z</time>
      </trkpt>
      <trkpt lat="47.3252" lon="-1.87368">
        <ele>30</ele>
        <time>2015-12-05T15:01:21Z</time>
      </trkpt>
      <trkpt lat="47.32526" lon="-1.87377">
        <ele>30</ele>
        <time>2015-12-05T15:01:22Z</time>
      </trkpt>
      <trkpt lat="47.32532" lon="-1.87384">
        <ele>30</ele>
        <time>2015-12-05T15:01:23Z</time>
      </trkpt>
      <trkpt lat="47.32537" lon="-1.87392">
        <ele>30</ele>
        <time>2015-12-05T15:01:24Z</time>
      </trkpt>
      <trkpt lat="47.32542" lon="-1.87397">
        <ele>30</ele>
        <time>2015-12-05T15:01:25Z</time>
      </trkpt>
      <trkpt lat="47.32545" lon="-1.87402">
        <ele>30</ele>
        <time>2015-12-05T15:01:26Z</time>
      </trkpt>
      <trkpt lat="47.32549" lon="-1.87408">
        <ele>30</ele>
        <time>2015-12-05T15:01:27Z</time>
      </trkpt>
      <trkpt lat="47.32544" lon="-1.87406">
        <ele>30</ele>
        <time>2015-12-05T15:01:28Z</time>
      </trkpt>
      <trkpt lat="47.32546" lon="-1.87419">
        <ele>29</ele>
        <time>2015-12-05T15:01:32Z</time>
      </trkpt>
      <trkpt lat="47.32549" lon="-1.87428">
        <ele>30</ele>
        <time>2015-12-05T15:01:33Z</time>
      </trkpt>
      <trkpt lat="47.32552" lon="-1.87435">
        <ele>30</ele>
        <time>2015-12-05T15:01:34Z</time>
      </trkpt>
      <trkpt lat="47.32553" lon="-1.87439">
        <ele>30</ele>
        <time>2015-12-05T15:01:35Z</time>
      </trkpt>
      <trkpt lat="47.3255" lon="-1.87443">
        <ele>29</ele>
        <time>2015-12-05T15:01:36Z</time>
      </trkpt>
      <trkpt lat="47.32552" lon="-1.87447">
        <ele>30</ele>
        <time>2015-12-05T15:01:37Z</time>
      </trkpt>
      <trkpt lat="47.32554" lon="-1.87453">
        <ele>30</ele>
        <time>2015-12-05T15:01:38Z</time>
      </trkpt>
      <trkpt lat="47.32555" lon="-1.87459">
        <ele>30</ele>
        <time>2015-12-05T15:01:39Z</time>
      </trkpt>
      <trkpt lat="47.32557" lon="-1.87464">
        <ele>30</ele>
        <time>2015-12-05T15:01:40Z</time>
      </trkpt>
      <trkpt lat="47.32559" lon="-1.87469">
        <ele>30</ele>
        <time>2015-12-05T15:01:41Z</time>
      </trkpt>
      <trkpt lat="47.32561" lon="-1.87473">
        <ele>30</ele>
        <time>2015-12-05T15:01:42Z</time>
      </trkpt>
      <trkpt lat="47.32563" lon="-1.87478">
        <ele>30</ele>
        <time>2015-12-05T15:01:43Z</time>
      </trkpt>
      <trkpt lat="47.32564" lon="-1.87483">
        <ele>30</ele>
        <time>2015-12-05T15:01:44Z</time>
      </trkpt>
      <trkpt lat="47.32565" lon="-1.87488">
        <ele>30</ele>
        <time>2015-12-05T15:01:45Z</time>
      </trkpt>
      <trkpt lat="47.32565" lon="-1.87492">
        <ele>30</ele>
        <time>2015-12-05T15:01:46Z</time>
      </trkpt>
      <trkpt lat="47.32566" lon="-1.87497">
        <ele>30</ele>
        <time>2015-12-05T15:01:47Z</time>
      </trkpt>
      <trkpt lat="47.32566" lon="-1.87501">
        <ele>30</ele>
        <time>2015-12-05T15:01:48Z</time>
      </trkpt>
      <trkpt lat="47.32567" lon="-1.87506">
        <ele>30</ele>
        <time>2015-12-05T15:01:49Z</time>
      </trkpt>
      <trkpt lat="47.32569" lon="-1.8751">
        <ele>30</ele>
        <time>2015-12-05T15:01:50Z</time>
      </trkpt>
      <trkpt lat="47.32571" lon="-1.87515">
        <ele>29</ele>
        <time>2015-12-05T15:01:51Z</time>
      </trkpt>
      <trkpt lat="47.32572" lon="-1.87519">
        <ele>29</ele>
        <time>2015-12-05T15:01:52Z</time>
      </trkpt>
      <trkpt lat="47.32574" lon="-1.87524">
        <ele>29</ele>
        <time>2015-12-05T15:01:53Z</time>
      </trkpt>
      <trkpt lat="47.32575" lon="-1.87528">
        <ele>29</ele>
        <time>2015-12-05T15:01:54Z</time>
      </trkpt>
      <trkpt lat="47.32576" lon="-1.87532">
        <ele>29</ele>
        <time>2015-12-05T15:01:55Z</time>
      </trkpt>
      <trkpt lat="47.32576" lon="-1.8754">
        <ele>28</ele>
        <time>2015-12-05T15:01:56Z</time>
      </trkpt>
      <trkpt lat="47.32577" lon="-1.87545">
        <ele>28</ele>
        <time>2015-12-05T15:01:57Z</time>
      </trkpt>
      <trkpt lat="47.32578" lon="-1.8755">
        <ele>28</ele>
        <time>2015-12-05T15:01:58Z</time>
      </trkpt>
      <trkpt lat="47.32578" lon="-1.87555">
        <ele>28</ele>
        <time>2015-12-05T15:01:59Z</time>
      </trkpt>
      <trkpt lat="47.3258" lon="-1.87562">
        <ele>28</ele>
        <time>2015-12-05T15:02:00Z</time>
      </trkpt>
      <trkpt lat="47.32582" lon="-1.87567">
        <ele>28</ele>
        <time>2015-12-05T15:02:01Z</time>
      </trkpt>
      <trkpt lat="47.32583" lon="-1.87571">
        <ele>28</ele>
        <time>2015-12-05T15:02:02Z</time>
      </trkpt>
      <trkpt lat="47.32585" lon="-1.87576">
        <ele>30</ele>
        <time>2015-12-05T15:02:03Z</time>
      </trkpt>
      <trkpt lat="47.32588" lon="-1.87581">
        <ele>30</ele>
        <time>2015-12-05T15:02:04Z</time>
      </trkpt>
      <trkpt lat="47.3259" lon="-1.87585">
        <ele>29</ele>
        <time>2015-12-05T15:02:05Z</time>
      </trkpt>
      <trkpt lat="47.32592" lon="-1.87589">
        <ele>30</ele>
        <time>2015-12-05T15:02:06Z</time>
      </trkpt>
      <trkpt lat="47.32594" lon="-1.87592">
        <ele>30</ele>
        <time>2015-12-05T15:02:07Z</time>
      </trkpt>
      <trkpt lat="47.32596" lon="-1.87595">
        <ele>30</ele>
        <time>2015-12-05T15:02:08Z</time>
      </trkpt>
      <trkpt lat="47.32598" lon="-1.876">
        <ele>30</ele>
        <time>2015-12-05T15:02:09Z</time>
      </trkpt>
      <trkpt lat="47.326" lon="-1.87603">
        <ele>30</ele>
        <time>2015-12-05T15:02:10Z</time>
      </trkpt>
      <trkpt lat="47.32602" lon="-1.87606">
        <ele>30</ele>
        <time>2015-12-05T15:02:11Z</time>
      </trkpt>
      <trkpt lat="47.32604" lon="-1.87611">
        <ele>30</ele>
        <time>2015-12-05T15:02:12Z</time>
      </trkpt>
      <trkpt lat="47.32605" lon="-1.87614">
        <ele>30</ele>
        <time>2015-12-05T15:02:13Z</time>
      </trkpt>
      <trkpt lat="47.32607" lon="-1.87618">
        <ele>30</ele>
        <time>2015-12-05T15:02:14Z</time>
      </trkpt>
      <trkpt lat="47.32609" lon="-1.87621">
        <ele>30</ele>
        <time>2015-12-05T15:02:15Z</time>
      </trkpt>
      <trkpt lat="47.32611" lon="-1.87627">
        <ele>30</ele>
        <time>2015-12-05T15:02:16Z</time>
      </trkpt>
      <trkpt lat="47.32614" lon="-1.87631">
        <ele>30</ele>
        <time>2015-12-05T15:02:17Z</time>
      </trkpt>
      <trkpt lat="47.32616" lon="-1.87636">
        <ele>30</ele>
        <time>2015-12-05T15:02:18Z</time>
      </trkpt>
      <trkpt lat="47.32618" lon="-1.87641">
        <ele>30</ele>
        <time>2015-12-05T15:02:19Z</time>
      </trkpt>
      <trkpt lat="47.32619" lon="-1.87644">
        <ele>30</ele>
        <time>2015-12-05T15:02:20Z</time>
      </trkpt>
      <trkpt lat="47.32622" lon="-1.87648">
        <ele>30</ele>
        <time>2015-12-05T15:02:21Z</time>
      </trkpt>
      <trkpt lat="47.32625" lon="-1.87652">
        <ele>30</ele>
        <time>2015-12-05T15:02:23Z</time>
      </trkpt>
      <trkpt lat="47.32627" lon="-1.87658">
        <ele>30</ele>
        <time>2015-12-05T15:02:24Z</time>
      </trkpt>
      <trkpt lat="47.3263" lon="-1.87663">
        <ele>30</ele>
        <time>2015-12-05T15:02:25Z</time>
      </trkpt>
      <trkpt lat="47.32634" lon="-1.87669">
        <ele>29</ele>
        <time>2015-12-05T15:02:26Z</time>
      </trkpt>
      <trkpt lat="47.32637" lon="-1.87675">
        <ele>29</ele>
        <time>2015-12-05T15:02:27Z</time>
      </trkpt>
      <trkpt lat="47.3264" lon="-1.8768">
        <ele>29</ele>
        <time>2015-12-05T15:02:28Z</time>
      </trkpt>
      <trkpt lat="47.32644" lon="-1.87686">
        <ele>29</ele>
        <time>2015-12-05T15:02:29Z</time>
      </trkpt>
      <trkpt lat="47.32647" lon="-1.87691">
        <ele>29</ele>
        <time>2015-12-05T15:02:30Z</time>
      </trkpt>
      <trkpt lat="47.3265" lon="-1.87696">
        <ele>29</ele>
        <time>2015-12-05T15:02:31Z</time>
      </trkpt>
      <trkpt lat="47.32653" lon="-1.877">
        <ele>29</ele>
        <time>2015-12-05T15:02:32Z</time>
      </trkpt>
      <trkpt lat="47.32656" lon="-1.87704">
        <ele>29</ele>
        <time>2015-12-05T15:02:33Z</time>
      </trkpt>
      <trkpt lat="47.32658" lon="-1.87709">
        <ele>29</ele>
        <time>2015-12-05T15:02:34Z</time>
      </trkpt>
      <trkpt lat="47.3266" lon="-1.87712">
        <ele>28</ele>
        <time>2015-12-05T15:02:35Z</time>
      </trkpt>
      <trkpt lat="47.32663" lon="-1.87715">
        <ele>28</ele>
        <time>2015-12-05T15:02:36Z</time>
      </trkpt>
      <trkpt lat="47.32665" lon="-1.87718">
        <ele>28</ele>
        <time>2015-12-05T15:02:37Z</time>
      </trkpt>
      <trkpt lat="47.32667" lon="-1.87726">
        <ele>32</ele>
        <time>2015-12-05T15:02:39Z</time>
      </trkpt>
      <trkpt lat="47.3267" lon="-1.8773">
        <ele>31</ele>
        <time>2015-12-05T15:02:40Z</time>
      </trkpt>
      <trkpt lat="47.32672" lon="-1.87734">
        <ele>31</ele>
        <time>2015-12-05T15:02:41Z</time>
      </trkpt>
      <trkpt lat="47.32675" lon="-1.87738">
        <ele>31</ele>
        <time>2015-12-05T15:02:42Z</time>
      </trkpt>
      <trkpt lat="47.32678" lon="-1.87743">
        <ele>31</ele>
        <time>2015-12-05T15:02:43Z</time>
      </trkpt>
      <trkpt lat="47.32682" lon="-1.87749">
        <ele>31</ele>
        <time>2015-12-05T15:02:44Z</time>
      </trkpt>
      <trkpt lat="47.32685" lon="-1.87756">
        <ele>30</ele>
        <time>2015-12-05T15:02:45Z</time>
      </trkpt>
      <trkpt lat="47.32688" lon="-1.87761">
        <ele>30</ele>
        <time>2015-12-05T15:02:46Z</time>
      </trkpt>
      <trkpt lat="47.32691" lon="-1.87767">
        <ele>30</ele>
        <time>2015-12-05T15:02:47Z</time>
      </trkpt>
      <trkpt lat="47.32695" lon="-1.87773">
        <ele>30</ele>
        <time>2015-12-05T15:02:48Z</time>
      </trkpt>
      <trkpt lat="47.32697" lon="-1.87777">
        <ele>30</ele>
        <time>2015-12-05T15:02:49Z</time>
      </trkpt>
      <trkpt lat="47.327" lon="-1.87782">
        <ele>30</ele>
        <time>2015-12-05T15:02:50Z</time>
      </trkpt>
      <trkpt lat="47.32703" lon="-1.87786">
        <ele>30</ele>
        <time>2015-12-05T15:02:51Z</time>
      </trkpt>
      <trkpt lat="47.32705" lon="-1.8779">
        <ele>30</ele>
        <time>2015-12-05T15:02:52Z</time>
      </trkpt>
      <trkpt lat="47.32707" lon="-1.87793">
        <ele>30</ele>
        <time>2015-12-05T15:02:53Z</time>
      </trkpt>
      <trkpt lat="47.3271" lon="-1.87796">
        <ele>30</ele>
        <time>2015-12-05T15:02:54Z</time>
      </trkpt>
      <trkpt lat="47.32713" lon="-1.878">
        <ele>30</ele>
        <time>2015-12-05T15:02:55Z</time>
      </trkpt>
      <trkpt lat="47.32718" lon="-1.87803">
        <ele>30</ele>
        <time>2015-12-05T15:02:57Z</time>
      </trkpt>
      <trkpt lat="47.32721" lon="-1.87806">
        <ele>30</ele>
        <time>2015-12-05T15:02:58Z</time>
      </trkpt>
      <trkpt lat="47.32723" lon="-1.87809">
        <ele>30</ele>
        <time>2015-12-05T15:02:59Z</time>
      </trkpt>
      <trkpt lat="47.32726" lon="-1.87813">
        <ele>30</ele>
        <time>2015-12-05T15:03:00Z</time>
      </trkpt>
      <trkpt lat="47.32729" lon="-1.87817">
        <ele>30</ele>
        <time>2015-12-05T15:03:01Z</time>
      </trkpt>
      <trkpt lat="47.32732" lon="-1.8782">
        <ele>31</ele>
        <time>2015-12-05T15:03:02Z</time>
      </trkpt>
      <trkpt lat="47.32735" lon="-1.87825">
        <ele>31</ele>
        <time>2015-12-05T15:03:03Z</time>
      </trkpt>
      <trkpt lat="47.32738" lon="-1.87828">
        <ele>31</ele>
        <time>2015-12-05T15:03:04Z</time>
      </trkpt>
      <trkpt lat="47.32741" lon="-1.87831">
        <ele>31</ele>
        <time>2015-12-05T15:03:05Z</time>
      </trkpt>
      <trkpt lat="47.32745" lon="-1.87834">
        <ele>30</ele>
        <time>2015-12-05T15:03:07Z</time>
      </trkpt>
      <trkpt lat="47.32748" lon="-1.87837">
        <ele>30</ele>
        <time>2015-12-05T15:03:08Z</time>
      </trkpt>
      <trkpt lat="47.32751" lon="-1.87839">
        <ele>32</ele>
        <time>2015-12-05T15:03:09Z</time>
      </trkpt>
      <trkpt lat="47.32754" lon="-1.8784">
        <ele>32</ele>
        <time>2015-12-05T15:03:10Z</time>
      </trkpt>
      <trkpt lat="47.32758" lon="-1.87842">
        <ele>33</ele>
        <time>2015-12-05T15:03:11Z</time>
      </trkpt>
      <trkpt lat="47.32762" lon="-1.87843">
        <ele>33</ele>
        <time>2015-12-05T15:03:12Z</time>
      </trkpt>
      <trkpt lat="47.32766" lon="-1.87846">
        <ele>34</ele>
        <time>2015-12-05T15:03:13Z</time>
      </trkpt>
      <trkpt lat="47.32768" lon="-1.8785">
        <ele>34</ele>
        <time>2015-12-05T15:03:14Z</time>
      </trkpt>
      <trkpt lat="47.32769" lon="-1.87855">
        <ele>34</ele>
        <time>2015-12-05T15:03:15Z</time>
      </trkpt>
      <trkpt lat="47.3277" lon="-1.87859">
        <ele>34</ele>
        <time>2015-12-05T15:03:16Z</time>
      </trkpt>
      <trkpt lat="47.32771" lon="-1.87863">
        <ele>34</ele>
        <time>2015-12-05T15:03:17Z</time>
      </trkpt>
      <trkpt lat="47.32772" lon="-1.87867">
        <ele>34</ele>
        <time>2015-12-05T15:03:19Z</time>
      </trkpt>
      <trkpt lat="47.32774" lon="-1.87874">
        <ele>34</ele>
        <time>2015-12-05T15:03:21Z</time>
      </trkpt>
      <trkpt lat="47.32775" lon="-1.87879">
        <ele>34</ele>
        <time>2015-12-05T15:03:22Z</time>
      </trkpt>
      <trkpt lat="47.32777" lon="-1.87885">
        <ele>34</ele>
        <time>2015-12-05T15:03:24Z</time>
      </trkpt>
      <trkpt lat="47.3278" lon="-1.87893">
        <ele>34</ele>
        <time>2015-12-05T15:03:25Z</time>
      </trkpt>
      <trkpt lat="47.32783" lon="-1.87898">
        <ele>34</ele>
        <time>2015-12-05T15:03:26Z</time>
      </trkpt>
      <trkpt lat="47.32786" lon="-1.87903">
        <ele>34</ele>
        <time>2015-12-05T15:03:27Z</time>
      </trkpt>
      <trkpt lat="47.32788" lon="-1.87909">
        <ele>35</ele>
        <time>2015-12-05T15:03:28Z</time>
      </trkpt>
      <trkpt lat="47.3279" lon="-1.87913">
        <ele>35</ele>
        <time>2015-12-05T15:03:29Z</time>
      </trkpt>
      <trkpt lat="47.32793" lon="-1.87914">
        <ele>35</ele>
        <time>2015-12-05T15:03:31Z</time>
      </trkpt>
      <trkpt lat="47.32794" lon="-1.8791">
        <ele>35</ele>
        <time>2015-12-05T15:03:33Z</time>
      </trkpt>
      <trkpt lat="47.32794" lon="-1.87904">
        <ele>35</ele>
        <time>2015-12-05T15:03:35Z</time>
      </trkpt>
      <trkpt lat="47.32793" lon="-1.879">
        <ele>35</ele>
        <time>2015-12-05T15:03:36Z</time>
      </trkpt>
      <trkpt lat="47.32792" lon="-1.87892">
        <ele>35</ele>
        <time>2015-12-05T15:03:38Z</time>
      </trkpt>
      <trkpt lat="47.32792" lon="-1.87888">
        <ele>35</ele>
        <time>2015-12-05T15:03:39Z</time>
      </trkpt>
      <trkpt lat="47.32792" lon="-1.8788">
        <ele>35</ele>
        <time>2015-12-05T15:03:41Z</time>
      </trkpt>
      <trkpt lat="47.32792" lon="-1.87875">
        <ele>36</ele>
        <time>2015-12-05T15:03:42Z</time>
      </trkpt>
      <trkpt lat="47.32792" lon="-1.8787">
        <ele>36</ele>
        <time>2015-12-05T15:03:43Z</time>
      </trkpt>
      <trkpt lat="47.32792" lon="-1.87864">
        <ele>36</ele>
        <time>2015-12-05T15:03:44Z</time>
      </trkpt>
      <trkpt lat="47.32792" lon="-1.87859">
        <ele>36</ele>
        <time>2015-12-05T15:03:45Z</time>
      </trkpt>
      <trkpt lat="47.32792" lon="-1.87854">
        <ele>36</ele>
        <time>2015-12-05T15:03:46Z</time>
      </trkpt>
      <trkpt lat="47.32791" lon="-1.87849">
        <ele>36</ele>
        <time>2015-12-05T15:03:47Z</time>
      </trkpt>
      <trkpt lat="47.32791" lon="-1.87844">
        <ele>36</ele>
        <time>2015-12-05T15:03:48Z</time>
      </trkpt>
      <trkpt lat="47.32791" lon="-1.87839">
        <ele>36</ele>
        <time>2015-12-05T15:03:49Z</time>
      </trkpt>
      <trkpt lat="47.3279" lon="-1.87834">
        <ele>36</ele>
        <time>2015-12-05T15:03:50Z</time>
      </trkpt>
      <trkpt lat="47.3279" lon="-1.87828">
        <ele>38</ele>
        <time>2015-12-05T15:03:51Z</time>
      </trkpt>
      <trkpt lat="47.3279" lon="-1.87823">
        <ele>37</ele>
        <time>2015-12-05T15:03:52Z</time>
      </trkpt>
      <trkpt lat="47.3279" lon="-1.87818">
        <ele>38</ele>
        <time>2015-12-05T15:03:53Z</time>
      </trkpt>
      <trkpt lat="47.32789" lon="-1.87813">
        <ele>38</ele>
        <time>2015-12-05T15:03:54Z</time>
      </trkpt>
      <trkpt lat="47.32789" lon="-1.87807">
        <ele>38</ele>
        <time>2015-12-05T15:03:55Z</time>
      </trkpt>
      <trkpt lat="47.32788" lon="-1.87802">
        <ele>38</ele>
        <time>2015-12-05T15:03:56Z</time>
      </trkpt>
      <trkpt lat="47.32788" lon="-1.87797">
        <ele>38</ele>
        <time>2015-12-05T15:03:57Z</time>
      </trkpt>
      <trkpt lat="47.32787" lon="-1.87792">
        <ele>38</ele>
        <time>2015-12-05T15:03:58Z</time>
      </trkpt>
      <trkpt lat="47.32786" lon="-1.87785">
        <ele>38</ele>
        <time>2015-12-05T15:03:59Z</time>
      </trkpt>
      <trkpt lat="47.32785" lon="-1.87779">
        <ele>38</ele>
        <time>2015-12-05T15:04:00Z</time>
      </trkpt>
      <trkpt lat="47.32784" lon="-1.87774">
        <ele>38</ele>
        <time>2015-12-05T15:04:01Z</time>
      </trkpt>
      <trkpt lat="47.32783" lon="-1.87768">
        <ele>38</ele>
        <time>2015-12-05T15:04:02Z</time>
      </trkpt>
      <trkpt lat="47.32782" lon="-1.87763">
        <ele>38</ele>
        <time>2015-12-05T15:04:03Z</time>
      </trkpt>
      <trkpt lat="47.32781" lon="-1.87758">
        <ele>38</ele>
        <time>2015-12-05T15:04:04Z</time>
      </trkpt>
      <trkpt lat="47.32779" lon="-1.87752">
        <ele>37</ele>
        <time>2015-12-05T15:04:05Z</time>
      </trkpt>
      <trkpt lat="47.32778" lon="-1.87747">
        <ele>39</ele>
        <time>2015-12-05T15:04:06Z</time>
      </trkpt>
      <trkpt lat="47.32776" lon="-1.87742">
        <ele>39</ele>
        <time>2015-12-05T15:04:07Z</time>
      </trkpt>
      <trkpt lat="47.32775" lon="-1.87737">
        <ele>39</ele>
        <time>2015-12-05T15:04:08Z</time>
      </trkpt>
      <trkpt lat="47.32773" lon="-1.87732">
        <ele>39</ele>
        <time>2015-12-05T15:04:09Z</time>
      </trkpt>
      <trkpt lat="47.32772" lon="-1.87727">
        <ele>40</ele>
        <time>2015-12-05T15:04:10Z</time>
      </trkpt>
      <trkpt lat="47.3277" lon="-1.87723">
        <ele>40</ele>
        <time>2015-12-05T15:04:11Z</time>
      </trkpt>
      <trkpt lat="47.32769" lon="-1.87719">
        <ele>40</ele>
        <time>2015-12-05T15:04:12Z</time>
      </trkpt>
      <trkpt lat="47.32767" lon="-1.87714">
        <ele>40</ele>
        <time>2015-12-05T15:04:13Z</time>
      </trkpt>
      <trkpt lat="47.32765" lon="-1.87709">
        <ele>40</ele>
        <time>2015-12-05T15:04:14Z</time>
      </trkpt>
      <trkpt lat="47.32764" lon="-1.87704">
        <ele>40</ele>
        <time>2015-12-05T15:04:15Z</time>
      </trkpt>
      <trkpt lat="47.32762" lon="-1.877">
        <ele>40</ele>
        <time>2015-12-05T15:04:16Z</time>
      </trkpt>
      <trkpt lat="47.3276" lon="-1.87692">
        <ele>40</ele>
        <time>2015-12-05T15:04:18Z</time>
      </trkpt>
      <trkpt lat="47.32759" lon="-1.87688">
        <ele>40</ele>
        <time>2015-12-05T15:04:19Z</time>
      </trkpt>
      <trkpt lat="47.32757" lon="-1.87683">
        <ele>40</ele>
        <time>2015-12-05T15:04:20Z</time>
      </trkpt>
      <trkpt lat="47.32756" lon="-1.87678">
        <ele>40</ele>
        <time>2015-12-05T15:04:21Z</time>
      </trkpt>
      <trkpt lat="47.32754" lon="-1.87674">
        <ele>40</ele>
        <time>2015-12-05T15:04:22Z</time>
      </trkpt>
      <trkpt lat="47.32752" lon="-1.8767">
        <ele>40</ele>
        <time>2015-12-05T15:04:23Z</time>
      </trkpt>
      <trkpt lat="47.32751" lon="-1.87665">
        <ele>40</ele>
        <time>2015-12-05T15:04:24Z</time>
      </trkpt>
      <trkpt lat="47.32748" lon="-1.87661">
        <ele>40</ele>
        <time>2015-12-05T15:04:25Z</time>
      </trkpt>
      <trkpt lat="47.32747" lon="-1.87657">
        <ele>39</ele>
        <time>2015-12-05T15:04:26Z</time>
      </trkpt>
      <trkpt lat="47.32745" lon="-1.87652">
        <ele>39</ele>
        <time>2015-12-05T15:04:27Z</time>
      </trkpt>
      <trkpt lat="47.32744" lon="-1.87644">
        <ele>39</ele>
        <time>2015-12-05T15:04:28Z</time>
      </trkpt>
      <trkpt lat="47.32742" lon="-1.87639">
        <ele>39</ele>
        <time>2015-12-05T15:04:29Z</time>
      </trkpt>
      <trkpt lat="47.32741" lon="-1.87635">
        <ele>39</ele>
        <time>2015-12-05T15:04:30Z</time>
      </trkpt>
      <trkpt lat="47.3274" lon="-1.87628">
        <ele>39</ele>
        <time>2015-12-05T15:04:31Z</time>
      </trkpt>
      <trkpt lat="47.32739" lon="-1.87623">
        <ele>39</ele>
        <time>2015-12-05T15:04:32Z</time>
      </trkpt>
      <trkpt lat="47.32738" lon="-1.87618">
        <ele>39</ele>
        <time>2015-12-05T15:04:33Z</time>
      </trkpt>
      <trkpt lat="47.32737" lon="-1.87613">
        <ele>40</ele>
        <time>2015-12-05T15:04:34Z</time>
      </trkpt>
      <trkpt lat="47.32736" lon="-1.87609">
        <ele>40</ele>
        <time>2015-12-05T15:04:35Z</time>
      </trkpt>
      <trkpt lat="47.32736" lon="-1.87604">
        <ele>40</ele>
        <time>2015-12-05T15:04:36Z</time>
      </trkpt>
      <trkpt lat="47.32734" lon="-1.87598">
        <ele>40</ele>
        <time>2015-12-05T15:04:37Z</time>
      </trkpt>
      <trkpt lat="47.32733" lon="-1.87594">
        <ele>41</ele>
        <time>2015-12-05T15:04:38Z</time>
      </trkpt>
      <trkpt lat="47.32732" lon="-1.87589">
        <ele>41</ele>
        <time>2015-12-05T15:04:39Z</time>
      </trkpt>
      <trkpt lat="47.32732" lon="-1.87584">
        <ele>41</ele>
        <time>2015-12-05T15:04:40Z</time>
      </trkpt>
      <trkpt lat="47.32731" lon="-1.87579">
        <ele>43</ele>
        <time>2015-12-05T15:04:41Z</time>
      </trkpt>
      <trkpt lat="47.32731" lon="-1.87574">
        <ele>43</ele>
        <time>2015-12-05T15:04:42Z</time>
      </trkpt>
      <trkpt lat="47.32731" lon="-1.87569">
        <ele>43</ele>
        <time>2015-12-05T15:04:43Z</time>
      </trkpt>
      <trkpt lat="47.3273" lon="-1.87564">
        <ele>44</ele>
        <time>2015-12-05T15:04:44Z</time>
      </trkpt>
      <trkpt lat="47.32729" lon="-1.87559">
        <ele>44</ele>
        <time>2015-12-05T15:04:45Z</time>
      </trkpt>
      <trkpt lat="47.32729" lon="-1.87555">
        <ele>44</ele>
        <time>2015-12-05T15:04:46Z</time>
      </trkpt>
      <trkpt lat="47.32728" lon="-1.8755">
        <ele>44</ele>
        <time>2015-12-05T15:04:47Z</time>
      </trkpt>
      <trkpt lat="47.32728" lon="-1.87545">
        <ele>44</ele>
        <time>2015-12-05T15:04:48Z</time>
      </trkpt>
      <trkpt lat="47.32728" lon="-1.87541">
        <ele>44</ele>
        <time>2015-12-05T15:04:49Z</time>
      </trkpt>
      <trkpt lat="47.32728" lon="-1.87536">
        <ele>45</ele>
        <time>2015-12-05T15:04:50Z</time>
      </trkpt>
      <trkpt lat="47.3273" lon="-1.87533">
        <ele>45</ele>
        <time>2015-12-05T15:04:52Z</time>
      </trkpt>
      <trkpt lat="47.32731" lon="-1.87528">
        <ele>45</ele>
        <time>2015-12-05T15:04:54Z</time>
      </trkpt>
      <trkpt lat="47.32733" lon="-1.87522">
        <ele>46</ele>
        <time>2015-12-05T15:04:56Z</time>
      </trkpt>
      <trkpt lat="47.32735" lon="-1.87516">
        <ele>47</ele>
        <time>2015-12-05T15:04:58Z</time>
      </trkpt>
      <trkpt lat="47.32738" lon="-1.87511">
        <ele>48</ele>
        <time>2015-12-05T15:05:00Z</time>
      </trkpt>
      <trkpt lat="47.32741" lon="-1.8751">
        <ele>48</ele>
        <time>2015-12-05T15:05:02Z</time>
      </trkpt>
      <trkpt lat="47.32745" lon="-1.8751">
        <ele>49</ele>
        <time>2015-12-05T15:05:04Z</time>
      </trkpt>
      <trkpt lat="47.32748" lon="-1.87512">
        <ele>49</ele>
        <time>2015-12-05T15:05:06Z</time>
      </trkpt>
      <trkpt lat="47.32751" lon="-1.87516">
        <ele>51</ele>
        <time>2015-12-05T15:05:08Z</time>
      </trkpt>
      <trkpt lat="47.32753" lon="-1.87521">
        <ele>51</ele>
        <time>2015-12-05T15:05:10Z</time>
      </trkpt>
      <trkpt lat="47.32757" lon="-1.87525">
        <ele>51</ele>
        <time>2015-12-05T15:05:12Z</time>
      </trkpt>
      <trkpt lat="47.3276" lon="-1.87529">
        <ele>51</ele>
        <time>2015-12-05T15:05:14Z</time>
      </trkpt>
      <trkpt lat="47.32764" lon="-1.87534">
        <ele>50</ele>
        <time>2015-12-05T15:05:16Z</time>
      </trkpt>
      <trkpt lat="47.32768" lon="-1.87538">
        <ele>50</ele>
        <time>2015-12-05T15:05:18Z</time>
      </trkpt>
      <trkpt lat="47.32773" lon="-1.87541">
        <ele>50</ele>
        <time>2015-12-05T15:05:20Z</time>
      </trkpt>
      <trkpt lat="47.32776" lon="-1.87541">
        <ele>50</ele>
        <time>2015-12-05T15:05:21Z</time>
      </trkpt>
      <trkpt lat="47.32781" lon="-1.87544">
        <ele>50</ele>
        <time>2015-12-05T15:05:23Z</time>
      </trkpt>
      <trkpt lat="47.32784" lon="-1.87546">
        <ele>50</ele>
        <time>2015-12-05T15:05:24Z</time>
      </trkpt>
      <trkpt lat="47.32787" lon="-1.87548">
        <ele>50</ele>
        <time>2015-12-05T15:05:25Z</time>
      </trkpt>
      <trkpt lat="47.3279" lon="-1.87549">
        <ele>50</ele>
        <time>2015-12-05T15:05:26Z</time>
      </trkpt>
      <trkpt lat="47.32792" lon="-1.87551">
        <ele>50</ele>
        <time>2015-12-05T15:05:27Z</time>
      </trkpt>
      <trkpt lat="47.32795" lon="-1.87553">
        <ele>51</ele>
        <time>2015-12-05T15:05:28Z</time>
      </trkpt>
      <trkpt lat="47.32798" lon="-1.87554">
        <ele>51</ele>
        <time>2015-12-05T15:05:29Z</time>
      </trkpt>
      <trkpt lat="47.32801" lon="-1.87556">
        <ele>51</ele>
        <time>2015-12-05T15:05:30Z</time>
      </trkpt>
      <trkpt lat="47.32805" lon="-1.87559">
        <ele>51</ele>
        <time>2015-12-05T15:05:32Z</time>
      </trkpt>
      <trkpt lat="47.32809" lon="-1.87563">
        <ele>51</ele>
        <time>2015-12-05T15:05:33Z</time>
      </trkpt>
      <trkpt lat="47.32811" lon="-1.87566">
        <ele>51</ele>
        <time>2015-12-05T15:05:34Z</time>
      </trkpt>
      <trkpt lat="47.32815" lon="-1.8757">
        <ele>51</ele>
        <time>2015-12-05T15:05:36Z</time>
      </trkpt>
      <trkpt lat="47.32818" lon="-1.87575">
        <ele>51</ele>
        <time>2015-12-05T15:05:37Z</time>
      </trkpt>
      <trkpt lat="47.32821" lon="-1.87581">
        <ele>51</ele>
        <time>2015-12-05T15:05:39Z</time>
      </trkpt>
      <trkpt lat="47.32824" lon="-1.87586">
        <ele>50</ele>
        <time>2015-12-05T15:05:40Z</time>
      </trkpt>
      <trkpt lat="47.32827" lon="-1.87593">
        <ele>50</ele>
        <time>2015-12-05T15:05:41Z</time>
      </trkpt>
      <trkpt lat="47.3283" lon="-1.87599">
        <ele>49</ele>
        <time>2015-12-05T15:05:42Z</time>
      </trkpt>
      <trkpt lat="47.32833" lon="-1.87604">
        <ele>49</ele>
        <time>2015-12-05T15:05:43Z</time>
      </trkpt>
      <trkpt lat="47.32837" lon="-1.87609">
        <ele>52</ele>
        <time>2015-12-05T15:05:44Z</time>
      </trkpt>
      <trkpt lat="47.3284" lon="-1.87614">
        <ele>52</ele>
        <time>2015-12-05T15:05:45Z</time>
      </trkpt>
      <trkpt lat="47.32843" lon="-1.87617">
        <ele>52</ele>
        <time>2015-12-05T15:05:46Z</time>
      </trkpt>
      <trkpt lat="47.32846" lon="-1.87621">
        <ele>52</ele>
        <time>2015-12-05T15:05:47Z</time>
      </trkpt>
      <trkpt lat="47.32851" lon="-1.87625">
        <ele>52</ele>
        <time>2015-12-05T15:05:48Z</time>
      </trkpt>
      <trkpt lat="47.32855" lon="-1.87627">
        <ele>52</ele>
        <time>2015-12-05T15:05:49Z</time>
      </trkpt>
      <trkpt lat="47.32864" lon="-1.87627">
        <ele>52</ele>
        <time>2015-12-05T15:05:51Z</time>
      </trkpt>
      <trkpt lat="47.32869" lon="-1.87626">
        <ele>52</ele>
        <time>2015-12-05T15:05:52Z</time>
      </trkpt>
      <trkpt lat="47.32873" lon="-1.87625">
        <ele>53</ele>
        <time>2015-12-05T15:05:53Z</time>
      </trkpt>
      <trkpt lat="47.32877" lon="-1.87623">
        <ele>53</ele>
        <time>2015-12-05T15:05:54Z</time>
      </trkpt>
      <trkpt lat="47.32881" lon="-1.87621">
        <ele>53</ele>
        <time>2015-12-05T15:05:55Z</time>
      </trkpt>
      <trkpt lat="47.32885" lon="-1.87618">
        <ele>53</ele>
        <time>2015-12-05T15:05:56Z</time>
      </trkpt>
      <trkpt lat="47.32889" lon="-1.87616">
        <ele>53</ele>
        <time>2015-12-05T15:05:57Z</time>
      </trkpt>
      <trkpt lat="47.32892" lon="-1.87614">
        <ele>54</ele>
        <time>2015-12-05T15:05:58Z</time>
      </trkpt>
      <trkpt lat="47.32897" lon="-1.87612">
        <ele>54</ele>
        <time>2015-12-05T15:05:59Z</time>
      </trkpt>
      <trkpt lat="47.32901" lon="-1.8761">
        <ele>54</ele>
        <time>2015-12-05T15:06:00Z</time>
      </trkpt>
      <trkpt lat="47.32904" lon="-1.87609">
        <ele>54</ele>
        <time>2015-12-05T15:06:01Z</time>
      </trkpt>
      <trkpt lat="47.32908" lon="-1.87607">
        <ele>54</ele>
        <time>2015-12-05T15:06:02Z</time>
      </trkpt>
      <trkpt lat="47.32912" lon="-1.87606">
        <ele>55</ele>
        <time>2015-12-05T15:06:03Z</time>
      </trkpt>
      <trkpt lat="47.32917" lon="-1.87609">
        <ele>58</ele>
        <time>2015-12-05T15:06:05Z</time>
      </trkpt>
      <trkpt lat="47.32923" lon="-1.87617">
        <ele>58</ele>
        <time>2015-12-05T15:06:07Z</time>
      </trkpt>
      <trkpt lat="47.32926" lon="-1.87622">
        <ele>58</ele>
        <time>2015-12-05T15:06:08Z</time>
      </trkpt>
      <trkpt lat="47.32929" lon="-1.87626">
        <ele>58</ele>
        <time>2015-12-05T15:06:09Z</time>
      </trkpt>
      <trkpt lat="47.32932" lon="-1.8763">
        <ele>58</ele>
        <time>2015-12-05T15:06:10Z</time>
      </trkpt>
      <trkpt lat="47.32934" lon="-1.87634">
        <ele>58</ele>
        <time>2015-12-05T15:06:11Z</time>
      </trkpt>
      <trkpt lat="47.32937" lon="-1.87638">
        <ele>58</ele>
        <time>2015-12-05T15:06:12Z</time>
      </trkpt>
      <trkpt lat="47.3294" lon="-1.87643">
        <ele>58</ele>
        <time>2015-12-05T15:06:13Z</time>
      </trkpt>
      <trkpt lat="47.32943" lon="-1.87646">
        <ele>58</ele>
        <time>2015-12-05T15:06:14Z</time>
      </trkpt>
      <trkpt lat="47.32946" lon="-1.8765">
        <ele>58</ele>
        <time>2015-12-05T15:06:15Z</time>
      </trkpt>
      <trkpt lat="47.32949" lon="-1.87652">
        <ele>58</ele>
        <time>2015-12-05T15:06:16Z</time>
      </trkpt>
      <trkpt lat="47.32952" lon="-1.87655">
        <ele>58</ele>
        <time>2015-12-05T15:06:17Z</time>
      </trkpt>
      <trkpt lat="47.32956" lon="-1.87656">
        <ele>58</ele>
        <time>2015-12-05T15:06:18Z</time>
      </trkpt>
      <trkpt lat="47.32959" lon="-1.87657">
        <ele>58</ele>
        <time>2015-12-05T15:06:19Z</time>
      </trkpt>
      <trkpt lat="47.32962" lon="-1.87656">
        <ele>59</ele>
        <time>2015-12-05T15:06:20Z</time>
      </trkpt>
      <trkpt lat="47.32965" lon="-1.87655">
        <ele>59</ele>
        <time>2015-12-05T15:06:21Z</time>
      </trkpt>
      <trkpt lat="47.32969" lon="-1.87653">
        <ele>59</ele>
        <time>2015-12-05T15:06:22Z</time>
      </trkpt>
      <trkpt lat="47.32972" lon="-1.87651">
        <ele>59</ele>
        <time>2015-12-05T15:06:23Z</time>
      </trkpt>
      <trkpt lat="47.32975" lon="-1.87648">
        <ele>59</ele>
        <time>2015-12-05T15:06:24Z</time>
      </trkpt>
      <trkpt lat="47.32978" lon="-1.87645">
        <ele>59</ele>
        <time>2015-12-05T15:06:25Z</time>
      </trkpt>
      <trkpt lat="47.3298" lon="-1.87642">
        <ele>59</ele>
        <time>2015-12-05T15:06:26Z</time>
      </trkpt>
      <trkpt lat="47.32983" lon="-1.87639">
        <ele>59</ele>
        <time>2015-12-05T15:06:27Z</time>
      </trkpt>
      <trkpt lat="47.32986" lon="-1.87636">
        <ele>59</ele>
        <time>2015-12-05T15:06:28Z</time>
      </trkpt>
      <trkpt lat="47.32989" lon="-1.87633">
        <ele>59</ele>
        <time>2015-12-05T15:06:29Z</time>
      </trkpt>
      <trkpt lat="47.32991" lon="-1.87631">
        <ele>59</ele>
        <time>2015-12-05T15:06:30Z</time>
      </trkpt>
      <trkpt lat="47.32994" lon="-1.87629">
        <ele>59</ele>
        <time>2015-12-05T15:06:31Z</time>
      </trkpt>
      <trkpt lat="47.32997" lon="-1.87627">
        <ele>59</ele>
        <time>2015-12-05T15:06:32Z</time>
      </trkpt>
      <trkpt lat="47.33" lon="-1.87626">
        <ele>59</ele>
        <time>2015-12-05T15:06:33Z</time>
      </trkpt>
      <trkpt lat="47.33003" lon="-1.87624">
        <ele>61</ele>
        <time>2015-12-05T15:06:34Z</time>
      </trkpt>
      <trkpt lat="47.33007" lon="-1.87622">
        <ele>61</ele>
        <time>2015-12-05T15:06:35Z</time>
      </trkpt>
      <trkpt lat="47.3301" lon="-1.8762">
        <ele>61</ele>
        <time>2015-12-05T15:06:36Z</time>
      </trkpt>
      <trkpt lat="47.33014" lon="-1.87618">
        <ele>62</ele>
        <time>2015-12-05T15:06:37Z</time>
      </trkpt>
      <trkpt lat="47.33018" lon="-1.87617">
        <ele>62</ele>
        <time>2015-12-05T15:06:38Z</time>
      </trkpt>
      <trkpt lat="47.33022" lon="-1.87615">
        <ele>62</ele>
        <time>2015-12-05T15:06:39Z</time>
      </trkpt>
      <trkpt lat="47.33029" lon="-1.87618">
        <ele>62</ele>
        <time>2015-12-05T15:06:40Z</time>
      </trkpt>
      <trkpt lat="47.33033" lon="-1.8762">
        <ele>62</ele>
        <time>2015-12-05T15:06:41Z</time>
      </trkpt>
      <trkpt lat="47.33038" lon="-1.87624">
        <ele>62</ele>
        <time>2015-12-05T15:06:42Z</time>
      </trkpt>
      <trkpt lat="47.33041" lon="-1.87628">
        <ele>62</ele>
        <time>2015-12-05T15:06:43Z</time>
      </trkpt>
      <trkpt lat="47.33045" lon="-1.87632">
        <ele>62</ele>
        <time>2015-12-05T15:06:44Z</time>
      </trkpt>
      <trkpt lat="47.33049" lon="-1.87636">
        <ele>62</ele>
        <time>2015-12-05T15:06:45Z</time>
      </trkpt>
      <trkpt lat="47.33052" lon="-1.87639">
        <ele>62</ele>
        <time>2015-12-05T15:06:46Z</time>
      </trkpt>
      <trkpt lat="47.33056" lon="-1.87643">
        <ele>62</ele>
        <time>2015-12-05T15:06:47Z</time>
      </trkpt>
      <trkpt lat="47.33059" lon="-1.87647">
        <ele>62</ele>
        <time>2015-12-05T15:06:48Z</time>
      </trkpt>
      <trkpt lat="47.33062" lon="-1.87651">
        <ele>62</ele>
        <time>2015-12-05T15:06:49Z</time>
      </trkpt>
      <trkpt lat="47.33065" lon="-1.87654">
        <ele>62</ele>
        <time>2015-12-05T15:06:50Z</time>
      </trkpt>
      <trkpt lat="47.33068" lon="-1.87658">
        <ele>62</ele>
        <time>2015-12-05T15:06:51Z</time>
      </trkpt>
      <trkpt lat="47.33071" lon="-1.87662">
        <ele>62</ele>
        <time>2015-12-05T15:06:52Z</time>
      </trkpt>
      <trkpt lat="47.33076" lon="-1.87668">
        <ele>63</ele>
        <time>2015-12-05T15:06:54Z</time>
      </trkpt>
      <trkpt lat="47.33079" lon="-1.87672">
        <ele>63</ele>
        <time>2015-12-05T15:06:55Z</time>
      </trkpt>
      <trkpt lat="47.33082" lon="-1.87674">
        <ele>63</ele>
        <time>2015-12-05T15:06:57Z</time>
      </trkpt>
      <trkpt lat="47.33084" lon="-1.87676">
        <ele>64</ele>
        <time>2015-12-05T15:06:58Z</time>
      </trkpt>
      <trkpt lat="47.33088" lon="-1.87682">
        <ele>64</ele>
        <time>2015-12-05T15:07:00Z</time>
      </trkpt>
      <trkpt lat="47.3309" lon="-1.87685">
        <ele>64</ele>
        <time>2015-12-05T15:07:01Z</time>
      </trkpt>
      <trkpt lat="47.33093" lon="-1.87691">
        <ele>65</ele>
        <time>2015-12-05T15:07:03Z</time>
      </trkpt>
      <trkpt lat="47.33095" lon="-1.87694">
        <ele>65</ele>
        <time>2015-12-05T15:07:04Z</time>
      </trkpt>
      <trkpt lat="47.33097" lon="-1.87697">
        <ele>65</ele>
        <time>2015-12-05T15:07:05Z</time>
      </trkpt>
      <trkpt lat="47.331" lon="-1.877">
        <ele>65</ele>
        <time>2015-12-05T15:07:06Z</time>
      </trkpt>
      <trkpt lat="47.33102" lon="-1.87703">
        <ele>65</ele>
        <time>2015-12-05T15:07:07Z</time>
      </trkpt>
      <trkpt lat="47.33104" lon="-1.87706">
        <ele>65</ele>
        <time>2015-12-05T15:07:08Z</time>
      </trkpt>
      <trkpt lat="47.33107" lon="-1.87708">
        <ele>65</ele>
        <time>2015-12-05T15:07:09Z</time>
      </trkpt>
      <trkpt lat="47.33108" lon="-1.87712">
        <ele>65</ele>
        <time>2015-12-05T15:07:10Z</time>
      </trkpt>
      <trkpt lat="47.33111" lon="-1.87715">
        <ele>66</ele>
        <time>2015-12-05T15:07:11Z</time>
      </trkpt>
      <trkpt lat="47.33114" lon="-1.87718">
        <ele>66</ele>
        <time>2015-12-05T15:07:13Z</time>
      </trkpt>
      <trkpt lat="47.33116" lon="-1.87721">
        <ele>66</ele>
        <time>2015-12-05T15:07:14Z</time>
      </trkpt>
      <trkpt lat="47.33119" lon="-1.87724">
        <ele>66</ele>
        <time>2015-12-05T15:07:15Z</time>
      </trkpt>
      <trkpt lat="47.33121" lon="-1.87726">
        <ele>66</ele>
        <time>2015-12-05T15:07:16Z</time>
      </trkpt>
      <trkpt lat="47.33124" lon="-1.87728">
        <ele>66</ele>
        <time>2015-12-05T15:07:17Z</time>
      </trkpt>
      <trkpt lat="47.33127" lon="-1.8773">
        <ele>66</ele>
        <time>2015-12-05T15:07:18Z</time>
      </trkpt>
      <trkpt lat="47.3313" lon="-1.87731">
        <ele>66</ele>
        <time>2015-12-05T15:07:19Z</time>
      </trkpt>
      <trkpt lat="47.33133" lon="-1.87732">
        <ele>66</ele>
        <time>2015-12-05T15:07:20Z</time>
      </trkpt>
      <trkpt lat="47.33136" lon="-1.87733">
        <ele>66</ele>
        <time>2015-12-05T15:07:21Z</time>
      </trkpt>
      <trkpt lat="47.33139" lon="-1.87733">
        <ele>66</ele>
        <time>2015-12-05T15:07:22Z</time>
      </trkpt>
      <trkpt lat="47.33142" lon="-1.87734">
        <ele>66</ele>
        <time>2015-12-05T15:07:23Z</time>
      </trkpt>
      <trkpt lat="47.33145" lon="-1.87734">
        <ele>66</ele>
        <time>2015-12-05T15:07:24Z</time>
      </trkpt>
      <trkpt lat="47.33149" lon="-1.87734">
        <ele>66</ele>
        <time>2015-12-05T15:07:25Z</time>
      </trkpt>
      <trkpt lat="47.33152" lon="-1.87734">
        <ele>67</ele>
        <time>2015-12-05T15:07:26Z</time>
      </trkpt>
      <trkpt lat="47.33155" lon="-1.87734">
        <ele>67</ele>
        <time>2015-12-05T15:07:27Z</time>
      </trkpt>
      <trkpt lat="47.33159" lon="-1.87732">
        <ele>67</ele>
        <time>2015-12-05T15:07:28Z</time>
      </trkpt>
      <trkpt lat="47.33161" lon="-1.87732">
        <ele>67</ele>
        <time>2015-12-05T15:07:29Z</time>
      </trkpt>
      <trkpt lat="47.33165" lon="-1.87733">
        <ele>67</ele>
        <time>2015-12-05T15:07:30Z</time>
      </trkpt>
      <trkpt lat="47.33168" lon="-1.87736">
        <ele>67</ele>
        <time>2015-12-05T15:07:31Z</time>
      </trkpt>
      <trkpt lat="47.33172" lon="-1.87739">
        <ele>67</ele>
        <time>2015-12-05T15:07:32Z</time>
      </trkpt>
      <trkpt lat="47.33175" lon="-1.87742">
        <ele>67</ele>
        <time>2015-12-05T15:07:33Z</time>
      </trkpt>
      <trkpt lat="47.33178" lon="-1.87743">
        <ele>67</ele>
        <time>2015-12-05T15:07:34Z</time>
      </trkpt>
      <trkpt lat="47.33182" lon="-1.87746">
        <ele>67</ele>
        <time>2015-12-05T15:07:35Z</time>
      </trkpt>
      <trkpt lat="47.33185" lon="-1.87748">
        <ele>67</ele>
        <time>2015-12-05T15:07:36Z</time>
      </trkpt>
      <trkpt lat="47.33187" lon="-1.87749">
        <ele>67</ele>
        <time>2015-12-05T15:07:37Z</time>
      </trkpt>
      <trkpt lat="47.33191" lon="-1.87746">
        <ele>67</ele>
        <time>2015-12-05T15:07:39Z</time>
      </trkpt>
      <trkpt lat="47.33194" lon="-1.87746">
        <ele>67</ele>
        <time>2015-12-05T15:07:40Z</time>
      </trkpt>
      <trkpt lat="47.33198" lon="-1.87747">
        <ele>67</ele>
        <time>2015-12-05T15:07:41Z</time>
      </trkpt>
      <trkpt lat="47.33201" lon="-1.87747">
        <ele>67</ele>
        <time>2015-12-05T15:07:42Z</time>
      </trkpt>
      <trkpt lat="47.33204" lon="-1.87746">
        <ele>67</ele>
        <time>2015-12-05T15:07:43Z</time>
      </trkpt>
      <trkpt lat="47.33208" lon="-1.8775">
        <ele>67</ele>
        <time>2015-12-05T15:07:44Z</time>
      </trkpt>
      <trkpt lat="47.33211" lon="-1.87749">
        <ele>67</ele>
        <time>2015-12-05T15:07:45Z</time>
      </trkpt>
      <trkpt lat="47.33215" lon="-1.87749">
        <ele>67</ele>
        <time>2015-12-05T15:07:46Z</time>
      </trkpt>
      <trkpt lat="47.33219" lon="-1.87748">
        <ele>67</ele>
        <time>2015-12-05T15:07:47Z</time>
      </trkpt>
      <trkpt lat="47.33223" lon="-1.87746">
        <ele>67</ele>
        <time>2015-12-05T15:07:48Z</time>
      </trkpt>
      <trkpt lat="47.33228" lon="-1.87744">
        <ele>67</ele>
        <time>2015-12-05T15:07:49Z</time>
      </trkpt>
      <trkpt lat="47.33241" lon="-1.87742">
        <ele>67</ele>
        <time>2015-12-05T15:07:50Z</time>
      </trkpt>
      <trkpt lat="47.33247" lon="-1.8774">
        <ele>68</ele>
        <time>2015-12-05T15:07:51Z</time>
      </trkpt>
      <trkpt lat="47.3326" lon="-1.87736">
        <ele>66</ele>
        <time>2015-12-05T15:07:53Z</time>
      </trkpt>
      <trkpt lat="47.33267" lon="-1.87736">
        <ele>66</ele>
        <time>2015-12-05T15:07:54Z</time>
      </trkpt>
      <trkpt lat="47.33275" lon="-1.8774">
        <ele>65</ele>
        <time>2015-12-05T15:07:56Z</time>
      </trkpt>
      <trkpt lat="47.33278" lon="-1.87738">
        <ele>65</ele>
        <time>2015-12-05T15:07:57Z</time>
      </trkpt>
      <trkpt lat="47.33283" lon="-1.87735">
        <ele>65</ele>
        <time>2015-12-05T15:07:58Z</time>
      </trkpt>
      <trkpt lat="47.33289" lon="-1.87731">
        <ele>65</ele>
        <time>2015-12-05T15:07:59Z</time>
      </trkpt>
      <trkpt lat="47.33295" lon="-1.8773">
        <ele>64</ele>
        <time>2015-12-05T15:08:00Z</time>
      </trkpt>
      <trkpt lat="47.33301" lon="-1.87729">
        <ele>64</ele>
        <time>2015-12-05T15:08:01Z</time>
      </trkpt>
      <trkpt lat="47.33305" lon="-1.87725">
        <ele>64</ele>
        <time>2015-12-05T15:08:02Z</time>
      </trkpt>
      <trkpt lat="47.3331" lon="-1.87721">
        <ele>64</ele>
        <time>2015-12-05T15:08:03Z</time>
      </trkpt>
      <trkpt lat="47.33314" lon="-1.87722">
        <ele>64</ele>
        <time>2015-12-05T15:08:04Z</time>
      </trkpt>
      <trkpt lat="47.33319" lon="-1.8772">
        <ele>64</ele>
        <time>2015-12-05T15:08:05Z</time>
      </trkpt>
      <trkpt lat="47.33322" lon="-1.87718">
        <ele>64</ele>
        <time>2015-12-05T15:08:06Z</time>
      </trkpt>
      <trkpt lat="47.33325" lon="-1.87722">
        <ele>63</ele>
        <time>2015-12-05T15:08:07Z</time>
      </trkpt>
      <trkpt lat="47.33329" lon="-1.87724">
        <ele>63</ele>
        <time>2015-12-05T15:08:08Z</time>
      </trkpt>
      <trkpt lat="47.33332" lon="-1.87725">
        <ele>63</ele>
        <time>2015-12-05T15:08:09Z</time>
      </trkpt>
      <trkpt lat="47.33339" lon="-1.87726">
        <ele>62</ele>
        <time>2015-12-05T15:08:10Z</time>
      </trkpt>
      <trkpt lat="47.33344" lon="-1.87727">
        <ele>62</ele>
        <time>2015-12-05T15:08:11Z</time>
      </trkpt>
      <trkpt lat="47.33351" lon="-1.8773">
        <ele>62</ele>
        <time>2015-12-05T15:08:12Z</time>
      </trkpt>
      <trkpt lat="47.3336" lon="-1.87737">
        <ele>62</ele>
        <time>2015-12-05T15:08:13Z</time>
      </trkpt>
      <trkpt lat="47.33365" lon="-1.87743">
        <ele>62</ele>
        <time>2015-12-05T15:08:14Z</time>
      </trkpt>
      <trkpt lat="47.33369" lon="-1.87749">
        <ele>62</ele>
        <time>2015-12-05T15:08:15Z</time>
      </trkpt>
      <trkpt lat="47.33372" lon="-1.87754">
        <ele>61</ele>
        <time>2015-12-05T15:08:16Z</time>
      </trkpt>
      <trkpt lat="47.33375" lon="-1.87759">
        <ele>61</ele>
        <time>2015-12-05T15:08:17Z</time>
      </trkpt>
      <trkpt lat="47.33378" lon="-1.87764">
        <ele>61</ele>
        <time>2015-12-05T15:08:18Z</time>
      </trkpt>
      <trkpt lat="47.33382" lon="-1.87773">
        <ele>61</ele>
        <time>2015-12-05T15:08:19Z</time>
      </trkpt>
      <trkpt lat="47.33384" lon="-1.87779">
        <ele>61</ele>
        <time>2015-12-05T15:08:20Z</time>
      </trkpt>
      <trkpt lat="47.33386" lon="-1.87785">
        <ele>61</ele>
        <time>2015-12-05T15:08:21Z</time>
      </trkpt>
      <trkpt lat="47.33386" lon="-1.87791">
        <ele>61</ele>
        <time>2015-12-05T15:08:22Z</time>
      </trkpt>
      <trkpt lat="47.33386" lon="-1.87797">
        <ele>62</ele>
        <time>2015-12-05T15:08:23Z</time>
      </trkpt>
      <trkpt lat="47.33385" lon="-1.87803">
        <ele>62</ele>
        <time>2015-12-05T15:08:24Z</time>
      </trkpt>
      <trkpt lat="47.33384" lon="-1.87809">
        <ele>62</ele>
        <time>2015-12-05T15:08:25Z</time>
      </trkpt>
      <trkpt lat="47.33384" lon="-1.87815">
        <ele>62</ele>
        <time>2015-12-05T15:08:26Z</time>
      </trkpt>
      <trkpt lat="47.33384" lon="-1.87821">
        <ele>62</ele>
        <time>2015-12-05T15:08:27Z</time>
      </trkpt>
      <trkpt lat="47.33384" lon="-1.87826">
        <ele>62</ele>
        <time>2015-12-05T15:08:28Z</time>
      </trkpt>
      <trkpt lat="47.33382" lon="-1.8783">
        <ele>62</ele>
        <time>2015-12-05T15:08:29Z</time>
      </trkpt>
      <trkpt lat="47.33382" lon="-1.87835">
        <ele>63</ele>
        <time>2015-12-05T15:08:32Z</time>
      </trkpt>
      <trkpt lat="47.33382" lon="-1.87842">
        <ele>63</ele>
        <time>2015-12-05T15:08:34Z</time>
      </trkpt>
      <trkpt lat="47.33382" lon="-1.87847">
        <ele>63</ele>
        <time>2015-12-05T15:08:35Z</time>
      </trkpt>
      <trkpt lat="47.33382" lon="-1.87851">
        <ele>63</ele>
        <time>2015-12-05T15:08:36Z</time>
      </trkpt>
      <trkpt lat="47.33382" lon="-1.87856">
        <ele>63</ele>
        <time>2015-12-05T15:08:37Z</time>
      </trkpt>
      <trkpt lat="47.33383" lon="-1.8786">
        <ele>63</ele>
        <time>2015-12-05T15:08:38Z</time>
      </trkpt>
      <trkpt lat="47.33383" lon="-1.87864">
        <ele>63</ele>
        <time>2015-12-05T15:08:39Z</time>
      </trkpt>
      <trkpt lat="47.33383" lon="-1.87871">
        <ele>63</ele>
        <time>2015-12-05T15:08:41Z</time>
      </trkpt>
      <trkpt lat="47.33384" lon="-1.87875">
        <ele>63</ele>
        <time>2015-12-05T15:08:42Z</time>
      </trkpt>
      <trkpt lat="47.33385" lon="-1.8788">
        <ele>63</ele>
        <time>2015-12-05T15:08:43Z</time>
      </trkpt>
      <trkpt lat="47.33386" lon="-1.87884">
        <ele>63</ele>
        <time>2015-12-05T15:08:44Z</time>
      </trkpt>
      <trkpt lat="47.33387" lon="-1.87893">
        <ele>63</ele>
        <time>2015-12-05T15:08:46Z</time>
      </trkpt>
      <trkpt lat="47.33388" lon="-1.87899">
        <ele>64</ele>
        <time>2015-12-05T15:08:48Z</time>
      </trkpt>
      <trkpt lat="47.3339" lon="-1.87904">
        <ele>64</ele>
        <time>2015-12-05T15:08:50Z</time>
      </trkpt>
      <trkpt lat="47.3339" lon="-1.8791">
        <ele>64</ele>
        <time>2015-12-05T15:08:52Z</time>
      </trkpt>
      <trkpt lat="47.3339" lon="-1.87914">
        <ele>64</ele>
        <time>2015-12-05T15:08:53Z</time>
      </trkpt>
      <trkpt lat="47.33391" lon="-1.87919">
        <ele>65</ele>
        <time>2015-12-05T15:08:54Z</time>
      </trkpt>
      <trkpt lat="47.33391" lon="-1.87923">
        <ele>65</ele>
        <time>2015-12-05T15:08:55Z</time>
      </trkpt>
      <trkpt lat="47.33392" lon="-1.87927">
        <ele>65</ele>
        <time>2015-12-05T15:08:56Z</time>
      </trkpt>
      <trkpt lat="47.33394" lon="-1.87935">
        <ele>65</ele>
        <time>2015-12-05T15:08:58Z</time>
      </trkpt>
      <trkpt lat="47.33395" lon="-1.87942">
        <ele>65</ele>
        <time>2015-12-05T15:09:00Z</time>
      </trkpt>
      <trkpt lat="47.33396" lon="-1.87948">
        <ele>65</ele>
        <time>2015-12-05T15:09:02Z</time>
      </trkpt>
      <trkpt lat="47.33396" lon="-1.87955">
        <ele>65</ele>
        <time>2015-12-05T15:09:04Z</time>
      </trkpt>
      <trkpt lat="47.33397" lon="-1.87962">
        <ele>65</ele>
        <time>2015-12-05T15:09:06Z</time>
      </trkpt>
      <trkpt lat="47.33397" lon="-1.8797">
        <ele>65</ele>
        <time>2015-12-05T15:09:08Z</time>
      </trkpt>
      <trkpt lat="47.33398" lon="-1.87974">
        <ele>65</ele>
        <time>2015-12-05T15:09:09Z</time>
      </trkpt>
      <trkpt lat="47.33399" lon="-1.8798">
        <ele>65</ele>
        <time>2015-12-05T15:09:10Z</time>
      </trkpt>
      <trkpt lat="47.33401" lon="-1.87986">
        <ele>65</ele>
        <time>2015-12-05T15:09:12Z</time>
      </trkpt>
      <trkpt lat="47.33401" lon="-1.87993">
        <ele>65</ele>
        <time>2015-12-05T15:09:13Z</time>
      </trkpt>
      <trkpt lat="47.33402" lon="-1.88">
        <ele>66</ele>
        <time>2015-12-05T15:09:15Z</time>
      </trkpt>
      <trkpt lat="47.33403" lon="-1.8801">
        <ele>65</ele>
        <time>2015-12-05T15:09:16Z</time>
      </trkpt>
      <trkpt lat="47.33404" lon="-1.88014">
        <ele>65</ele>
        <time>2015-12-05T15:09:17Z</time>
      </trkpt>
      <trkpt lat="47.33404" lon="-1.88019">
        <ele>65</ele>
        <time>2015-12-05T15:09:18Z</time>
      </trkpt>
      <trkpt lat="47.33406" lon="-1.88028">
        <ele>65</ele>
        <time>2015-12-05T15:09:19Z</time>
      </trkpt>
      <trkpt lat="47.33407" lon="-1.88035">
        <ele>65</ele>
        <time>2015-12-05T15:09:20Z</time>
      </trkpt>
      <trkpt lat="47.33408" lon="-1.88042">
        <ele>65</ele>
        <time>2015-12-05T15:09:21Z</time>
      </trkpt>
      <trkpt lat="47.33409" lon="-1.88048">
        <ele>65</ele>
        <time>2015-12-05T15:09:22Z</time>
      </trkpt>
      <trkpt lat="47.3341" lon="-1.88053">
        <ele>65</ele>
        <time>2015-12-05T15:09:23Z</time>
      </trkpt>
      <trkpt lat="47.33409" lon="-1.88059">
        <ele>65</ele>
        <time>2015-12-05T15:09:24Z</time>
      </trkpt>
      <trkpt lat="47.33408" lon="-1.88064">
        <ele>64</ele>
        <time>2015-12-05T15:09:25Z</time>
      </trkpt>
      <trkpt lat="47.33405" lon="-1.88067">
        <ele>64</ele>
        <time>2015-12-05T15:09:26Z</time>
      </trkpt>
      <trkpt lat="47.33402" lon="-1.88068">
        <ele>64</ele>
        <time>2015-12-05T15:09:27Z</time>
      </trkpt>
      <trkpt lat="47.33398" lon="-1.88067">
        <ele>64</ele>
        <time>2015-12-05T15:09:28Z</time>
      </trkpt>
      <trkpt lat="47.33395" lon="-1.88067">
        <ele>65</ele>
        <time>2015-12-05T15:09:29Z</time>
      </trkpt>
      <trkpt lat="47.33391" lon="-1.88066">
        <ele>65</ele>
        <time>2015-12-05T15:09:30Z</time>
      </trkpt>
      <trkpt lat="47.33388" lon="-1.88066">
        <ele>65</ele>
        <time>2015-12-05T15:09:31Z</time>
      </trkpt>
      <trkpt lat="47.33385" lon="-1.88067">
        <ele>65</ele>
        <time>2015-12-05T15:09:32Z</time>
      </trkpt>
      <trkpt lat="47.33381" lon="-1.88068">
        <ele>65</ele>
        <time>2015-12-05T15:09:33Z</time>
      </trkpt>
      <trkpt lat="47.33378" lon="-1.88069">
        <ele>65</ele>
        <time>2015-12-05T15:09:34Z</time>
      </trkpt>
      <trkpt lat="47.33375" lon="-1.8807">
        <ele>65</ele>
        <time>2015-12-05T15:09:35Z</time>
      </trkpt>
      <trkpt lat="47.33371" lon="-1.8807">
        <ele>65</ele>
        <time>2015-12-05T15:09:36Z</time>
      </trkpt>
      <trkpt lat="47.33364" lon="-1.88073">
        <ele>64</ele>
        <time>2015-12-05T15:09:37Z</time>
      </trkpt>
      <trkpt lat="47.3336" lon="-1.88073">
        <ele>64</ele>
        <time>2015-12-05T15:09:38Z</time>
      </trkpt>
      <trkpt lat="47.33356" lon="-1.88073">
        <ele>64</ele>
        <time>2015-12-05T15:09:39Z</time>
      </trkpt>
      <trkpt lat="47.33352" lon="-1.88073">
        <ele>64</ele>
        <time>2015-12-05T15:09:40Z</time>
      </trkpt>
      <trkpt lat="47.33346" lon="-1.88073">
        <ele>64</ele>
        <time>2015-12-05T15:09:41Z</time>
      </trkpt>
      <trkpt lat="47.33342" lon="-1.88074">
        <ele>64</ele>
        <time>2015-12-05T15:09:42Z</time>
      </trkpt>
      <trkpt lat="47.33337" lon="-1.88074">
        <ele>64</ele>
        <time>2015-12-05T15:09:43Z</time>
      </trkpt>
      <trkpt lat="47.33332" lon="-1.88075">
        <ele>63</ele>
        <time>2015-12-05T15:09:44Z</time>
      </trkpt>
      <trkpt lat="47.33327" lon="-1.88074">
        <ele>63</ele>
        <time>2015-12-05T15:09:45Z</time>
      </trkpt>
      <trkpt lat="47.33323" lon="-1.88076">
        <ele>63</ele>
        <time>2015-12-05T15:09:46Z</time>
      </trkpt>
      <trkpt lat="47.33318" lon="-1.88077">
        <ele>62</ele>
        <time>2015-12-05T15:09:47Z</time>
      </trkpt>
      <trkpt lat="47.33314" lon="-1.88078">
        <ele>62</ele>
        <time>2015-12-05T15:09:48Z</time>
      </trkpt>
      <trkpt lat="47.3331" lon="-1.88082">
        <ele>62</ele>
        <time>2015-12-05T15:09:49Z</time>
      </trkpt>
      <trkpt lat="47.33307" lon="-1.88088">
        <ele>61</ele>
        <time>2015-12-05T15:09:50Z</time>
      </trkpt>
      <trkpt lat="47.33303" lon="-1.88093">
        <ele>60</ele>
        <time>2015-12-05T15:09:51Z</time>
      </trkpt>
      <trkpt lat="47.33299" lon="-1.88099">
        <ele>60</ele>
        <time>2015-12-05T15:09:52Z</time>
      </trkpt>
      <trkpt lat="47.33299" lon="-1.88104">
        <ele>60</ele>
        <time>2015-12-05T15:09:53Z</time>
      </trkpt>
      <trkpt lat="47.33297" lon="-1.8811">
        <ele>60</ele>
        <time>2015-12-05T15:09:54Z</time>
      </trkpt>
      <trkpt lat="47.33294" lon="-1.88116">
        <ele>60</ele>
        <time>2015-12-05T15:09:55Z</time>
      </trkpt>
      <trkpt lat="47.3329" lon="-1.88122">
        <ele>59</ele>
        <time>2015-12-05T15:09:56Z</time>
      </trkpt>
      <trkpt lat="47.33286" lon="-1.88128">
        <ele>59</ele>
        <time>2015-12-05T15:09:57Z</time>
      </trkpt>
      <trkpt lat="47.33283" lon="-1.88134">
        <ele>59</ele>
        <time>2015-12-05T15:09:58Z</time>
      </trkpt>
      <trkpt lat="47.33279" lon="-1.88138">
        <ele>59</ele>
        <time>2015-12-05T15:09:59Z</time>
      </trkpt>
      <trkpt lat="47.33276" lon="-1.88144">
        <ele>59</ele>
        <time>2015-12-05T15:10:00Z</time>
      </trkpt>
      <trkpt lat="47.33273" lon="-1.88149">
        <ele>59</ele>
        <time>2015-12-05T15:10:01Z</time>
      </trkpt>
      <trkpt lat="47.33272" lon="-1.8816">
        <ele>59</ele>
        <time>2015-12-05T15:10:02Z</time>
      </trkpt>
      <trkpt lat="47.33271" lon="-1.8817">
        <ele>58</ele>
        <time>2015-12-05T15:10:03Z</time>
      </trkpt>
      <trkpt lat="47.33272" lon="-1.88178">
        <ele>58</ele>
        <time>2015-12-05T15:10:04Z</time>
      </trkpt>
      <trkpt lat="47.33273" lon="-1.88186">
        <ele>58</ele>
        <time>2015-12-05T15:10:05Z</time>
      </trkpt>
      <trkpt lat="47.33273" lon="-1.88194">
        <ele>59</ele>
        <time>2015-12-05T15:10:06Z</time>
      </trkpt>
      <trkpt lat="47.33271" lon="-1.88204">
        <ele>59</ele>
        <time>2015-12-05T15:10:07Z</time>
      </trkpt>
      <trkpt lat="47.33277" lon="-1.88217">
        <ele>59</ele>
        <time>2015-12-05T15:10:08Z</time>
      </trkpt>
      <trkpt lat="47.33279" lon="-1.88224">
        <ele>59</ele>
        <time>2015-12-05T15:10:09Z</time>
      </trkpt>
      <trkpt lat="47.33282" lon="-1.88232">
        <ele>59</ele>
        <time>2015-12-05T15:10:10Z</time>
      </trkpt>
      <trkpt lat="47.33288" lon="-1.88237">
        <ele>59</ele>
        <time>2015-12-05T15:10:11Z</time>
      </trkpt>
      <trkpt lat="47.33287" lon="-1.88244">
        <ele>59</ele>
        <time>2015-12-05T15:10:12Z</time>
      </trkpt>
      <trkpt lat="47.33286" lon="-1.8825">
        <ele>59</ele>
        <time>2015-12-05T15:10:13Z</time>
      </trkpt>
      <trkpt lat="47.33291" lon="-1.88254">
        <ele>59</ele>
        <time>2015-12-05T15:10:14Z</time>
      </trkpt>
      <trkpt lat="47.33294" lon="-1.88259">
        <ele>60</ele>
        <time>2015-12-05T15:10:15Z</time>
      </trkpt>
      <trkpt lat="47.33292" lon="-1.88264">
        <ele>60</ele>
        <time>2015-12-05T15:10:16Z</time>
      </trkpt>
      <trkpt lat="47.33291" lon="-1.88269">
        <ele>60</ele>
        <time>2015-12-05T15:10:17Z</time>
      </trkpt>
      <trkpt lat="47.33292" lon="-1.88274">
        <ele>60</ele>
        <time>2015-12-05T15:10:18Z</time>
      </trkpt>
      <trkpt lat="47.33293" lon="-1.88281">
        <ele>60</ele>
        <time>2015-12-05T15:10:19Z</time>
      </trkpt>
      <trkpt lat="47.33293" lon="-1.88287">
        <ele>60</ele>
        <time>2015-12-05T15:10:20Z</time>
      </trkpt>
      <trkpt lat="47.33294" lon="-1.88294">
        <ele>60</ele>
        <time>2015-12-05T15:10:21Z</time>
      </trkpt>
      <trkpt lat="47.33297" lon="-1.883">
        <ele>60</ele>
        <time>2015-12-05T15:10:22Z</time>
      </trkpt>
      <trkpt lat="47.33299" lon="-1.88306">
        <ele>60</ele>
        <time>2015-12-05T15:10:23Z</time>
      </trkpt>
      <trkpt lat="47.33301" lon="-1.88313">
        <ele>60</ele>
        <time>2015-12-05T15:10:24Z</time>
      </trkpt>
      <trkpt lat="47.33304" lon="-1.88319">
        <ele>60</ele>
        <time>2015-12-05T15:10:25Z</time>
      </trkpt>
      <trkpt lat="47.33307" lon="-1.88326">
        <ele>60</ele>
        <time>2015-12-05T15:10:26Z</time>
      </trkpt>
      <trkpt lat="47.33308" lon="-1.88333">
        <ele>60</ele>
        <time>2015-12-05T15:10:27Z</time>
      </trkpt>
      <trkpt lat="47.33309" lon="-1.8834">
        <ele>60</ele>
        <time>2015-12-05T15:10:28Z</time>
      </trkpt>
      <trkpt lat="47.3331" lon="-1.88346">
        <ele>60</ele>
        <time>2015-12-05T15:10:29Z</time>
      </trkpt>
      <trkpt lat="47.333" lon="-1.88347">
        <ele>59</ele>
        <time>2015-12-05T15:10:30Z</time>
      </trkpt>
      <trkpt lat="47.33296" lon="-1.88352">
        <ele>59</ele>
        <time>2015-12-05T15:10:31Z</time>
      </trkpt>
      <trkpt lat="47.33293" lon="-1.88356">
        <ele>59</ele>
        <time>2015-12-05T15:10:32Z</time>
      </trkpt>
      <trkpt lat="47.33292" lon="-1.88365">
        <ele>59</ele>
        <time>2015-12-05T15:10:33Z</time>
      </trkpt>
      <trkpt lat="47.33291" lon="-1.88376">
        <ele>59</ele>
        <time>2015-12-05T15:10:34Z</time>
      </trkpt>
      <trkpt lat="47.3329" lon="-1.88386">
        <ele>59</ele>
        <time>2015-12-05T15:10:35Z</time>
      </trkpt>
      <trkpt lat="47.33287" lon="-1.88395">
        <ele>59</ele>
        <time>2015-12-05T15:10:36Z</time>
      </trkpt>
      <trkpt lat="47.33286" lon="-1.88404">
        <ele>59</ele>
        <time>2015-12-05T15:10:37Z</time>
      </trkpt>
      <trkpt lat="47.33284" lon="-1.88413">
        <ele>59</ele>
        <time>2015-12-05T15:10:38Z</time>
      </trkpt>
      <trkpt lat="47.33273" lon="-1.88424">
        <ele>57</ele>
        <time>2015-12-05T15:10:39Z</time>
      </trkpt>
      <trkpt lat="47.33268" lon="-1.88432">
        <ele>57</ele>
        <time>2015-12-05T15:10:40Z</time>
      </trkpt>
      <trkpt lat="47.33263" lon="-1.8844">
        <ele>57</ele>
        <time>2015-12-05T15:10:41Z</time>
      </trkpt>
      <trkpt lat="47.33259" lon="-1.88448">
        <ele>57</ele>
        <time>2015-12-05T15:10:42Z</time>
      </trkpt>
      <trkpt lat="47.33253" lon="-1.88455">
        <ele>57</ele>
        <time>2015-12-05T15:10:43Z</time>
      </trkpt>
      <trkpt lat="47.33248" lon="-1.88462">
        <ele>56</ele>
        <time>2015-12-05T15:10:44Z</time>
      </trkpt>
      <trkpt lat="47.33242" lon="-1.88469">
        <ele>55</ele>
        <time>2015-12-05T15:10:45Z</time>
      </trkpt>
      <trkpt lat="47.33236" lon="-1.88476">
        <ele>55</ele>
        <time>2015-12-05T15:10:46Z</time>
      </trkpt>
      <trkpt lat="47.3323" lon="-1.88483">
        <ele>55</ele>
        <time>2015-12-05T15:10:47Z</time>
      </trkpt>
      <trkpt lat="47.33225" lon="-1.88488">
        <ele>55</ele>
        <time>2015-12-05T15:10:48Z</time>
      </trkpt>
      <trkpt lat="47.3322" lon="-1.88492">
        <ele>55</ele>
        <time>2015-12-05T15:10:49Z</time>
      </trkpt>
      <trkpt lat="47.33215" lon="-1.88497">
        <ele>54</ele>
        <time>2015-12-05T15:10:50Z</time>
      </trkpt>
      <trkpt lat="47.33212" lon="-1.88505">
        <ele>52</ele>
        <time>2015-12-05T15:10:51Z</time>
      </trkpt>
      <trkpt lat="47.33219" lon="-1.88514">
        <ele>52</ele>
        <time>2015-12-05T15:10:52Z</time>
      </trkpt>
      <trkpt lat="47.33222" lon="-1.8852">
        <ele>52</ele>
        <time>2015-12-05T15:10:53Z</time>
      </trkpt>
      <trkpt lat="47.33224" lon="-1.88526">
        <ele>52</ele>
        <time>2015-12-05T15:10:54Z</time>
      </trkpt>
      <trkpt lat="47.33226" lon="-1.88538">
        <ele>51</ele>
        <time>2015-12-05T15:10:55Z</time>
      </trkpt>
      <trkpt lat="47.33231" lon="-1.88546">
        <ele>51</ele>
        <time>2015-12-05T15:10:56Z</time>
      </trkpt>
      <trkpt lat="47.33235" lon="-1.88553">
        <ele>51</ele>
        <time>2015-12-05T15:10:57Z</time>
      </trkpt>
      <trkpt lat="47.33241" lon="-1.88549">
        <ele>51</ele>
        <time>2015-12-05T15:10:58Z</time>
      </trkpt>
      <trkpt lat="47.33245" lon="-1.88553">
        <ele>51</ele>
        <time>2015-12-05T15:11:00Z</time>
      </trkpt>
      <trkpt lat="47.33248" lon="-1.88548">
        <ele>52</ele>
        <time>2015-12-05T15:11:02Z</time>
      </trkpt>
      <trkpt lat="47.33251" lon="-1.88545">
        <ele>54</ele>
        <time>2015-12-05T15:11:04Z</time>
      </trkpt>
      <trkpt lat="47.33261" lon="-1.8854">
        <ele>54</ele>
        <time>2015-12-05T15:11:06Z</time>
      </trkpt>
      <trkpt lat="47.33264" lon="-1.88538">
        <ele>54</ele>
        <time>2015-12-05T15:11:07Z</time>
      </trkpt>
      <trkpt lat="47.33268" lon="-1.88537">
        <ele>54</ele>
        <time>2015-12-05T15:11:08Z</time>
      </trkpt>
      <trkpt lat="47.33265" lon="-1.88545">
        <ele>54</ele>
        <time>2015-12-05T15:11:09Z</time>
      </trkpt>
      <trkpt lat="47.3327" lon="-1.88549">
        <ele>54</ele>
        <time>2015-12-05T15:11:10Z</time>
      </trkpt>
      <trkpt lat="47.33273" lon="-1.88553">
        <ele>54</ele>
        <time>2015-12-05T15:11:11Z</time>
      </trkpt>
      <trkpt lat="47.33277" lon="-1.88557">
        <ele>54</ele>
        <time>2015-12-05T15:11:13Z</time>
      </trkpt>
      <trkpt lat="47.3328" lon="-1.88559">
        <ele>54</ele>
        <time>2015-12-05T15:11:14Z</time>
      </trkpt>
      <trkpt lat="47.33283" lon="-1.8856">
        <ele>54</ele>
        <time>2015-12-05T15:11:15Z</time>
      </trkpt>
      <trkpt lat="47.33287" lon="-1.8856">
        <ele>54</ele>
        <time>2015-12-05T15:11:17Z</time>
      </trkpt>
      <trkpt lat="47.33291" lon="-1.88558">
        <ele>54</ele>
        <time>2015-12-05T15:11:19Z</time>
      </trkpt>
      <trkpt lat="47.33294" lon="-1.88555">
        <ele>54</ele>
        <time>2015-12-05T15:11:20Z</time>
      </trkpt>
      <trkpt lat="47.33296" lon="-1.88554">
        <ele>54</ele>
        <time>2015-12-05T15:11:21Z</time>
      </trkpt>
      <trkpt lat="47.33299" lon="-1.88552">
        <ele>54</ele>
        <time>2015-12-05T15:11:22Z</time>
      </trkpt>
      <trkpt lat="47.33302" lon="-1.88551">
        <ele>54</ele>
        <time>2015-12-05T15:11:23Z</time>
      </trkpt>
      <trkpt lat="47.33305" lon="-1.8855">
        <ele>54</ele>
        <time>2015-12-05T15:11:24Z</time>
      </trkpt>
      <trkpt lat="47.33311" lon="-1.88549">
        <ele>54</ele>
        <time>2015-12-05T15:11:26Z</time>
      </trkpt>
      <trkpt lat="47.33314" lon="-1.88549">
        <ele>54</ele>
        <time>2015-12-05T15:11:27Z</time>
      </trkpt>
      <trkpt lat="47.33317" lon="-1.88552">
        <ele>54</ele>
        <time>2015-12-05T15:11:28Z</time>
      </trkpt>
      <trkpt lat="47.33321" lon="-1.88557">
        <ele>54</ele>
        <time>2015-12-05T15:11:30Z</time>
      </trkpt>
      <trkpt lat="47.33323" lon="-1.88563">
        <ele>54</ele>
        <time>2015-12-05T15:11:31Z</time>
      </trkpt>
      <trkpt lat="47.33325" lon="-1.88568">
        <ele>54</ele>
        <time>2015-12-05T15:11:32Z</time>
      </trkpt>
      <trkpt lat="47.33327" lon="-1.88573">
        <ele>54</ele>
        <time>2015-12-05T15:11:33Z</time>
      </trkpt>
      <trkpt lat="47.33329" lon="-1.88578">
        <ele>54</ele>
        <time>2015-12-05T15:11:34Z</time>
      </trkpt>
      <trkpt lat="47.33331" lon="-1.88583">
        <ele>54</ele>
        <time>2015-12-05T15:11:35Z</time>
      </trkpt>
      <trkpt lat="47.33333" lon="-1.88587">
        <ele>54</ele>
        <time>2015-12-05T15:11:36Z</time>
      </trkpt>
      <trkpt lat="47.33335" lon="-1.88592">
        <ele>54</ele>
        <time>2015-12-05T15:11:37Z</time>
      </trkpt>
      <trkpt lat="47.33337" lon="-1.88597">
        <ele>53</ele>
        <time>2015-12-05T15:11:38Z</time>
      </trkpt>
      <trkpt lat="47.33339" lon="-1.88602">
        <ele>53</ele>
        <time>2015-12-05T15:11:39Z</time>
      </trkpt>
      <trkpt lat="47.3334" lon="-1.88607">
        <ele>53</ele>
        <time>2015-12-05T15:11:40Z</time>
      </trkpt>
      <trkpt lat="47.33342" lon="-1.88611">
        <ele>53</ele>
        <time>2015-12-05T15:11:41Z</time>
      </trkpt>
      <trkpt lat="47.33344" lon="-1.88616">
        <ele>53</ele>
        <time>2015-12-05T15:11:42Z</time>
      </trkpt>
      <trkpt lat="47.33346" lon="-1.88621">
        <ele>53</ele>
        <time>2015-12-05T15:11:43Z</time>
      </trkpt>
      <trkpt lat="47.33348" lon="-1.88626">
        <ele>53</ele>
        <time>2015-12-05T15:11:44Z</time>
      </trkpt>
      <trkpt lat="47.33356" lon="-1.88633">
        <ele>53</ele>
        <time>2015-12-05T15:11:45Z</time>
      </trkpt>
      <trkpt lat="47.33358" lon="-1.8864">
        <ele>53</ele>
        <time>2015-12-05T15:11:46Z</time>
      </trkpt>
      <trkpt lat="47.3336" lon="-1.88647">
        <ele>53</ele>
        <time>2015-12-05T15:11:47Z</time>
      </trkpt>
      <trkpt lat="47.33363" lon="-1.88654">
        <ele>53</ele>
        <time>2015-12-05T15:11:48Z</time>
      </trkpt>
      <trkpt lat="47.33366" lon="-1.88657">
        <ele>52</ele>
        <time>2015-12-05T15:11:49Z</time>
      </trkpt>
      <trkpt lat="47.3337" lon="-1.88665">
        <ele>52</ele>
        <time>2015-12-05T15:11:50Z</time>
      </trkpt>
      <trkpt lat="47.33372" lon="-1.88673">
        <ele>51</ele>
        <time>2015-12-05T15:11:51Z</time>
      </trkpt>
      <trkpt lat="47.3337" lon="-1.88679">
        <ele>51</ele>
        <time>2015-12-05T15:11:52Z</time>
      </trkpt>
      <trkpt lat="47.33375" lon="-1.88686">
        <ele>51</ele>
        <time>2015-12-05T15:11:53Z</time>
      </trkpt>
      <trkpt lat="47.33379" lon="-1.88693">
        <ele>51</ele>
        <time>2015-12-05T15:11:54Z</time>
      </trkpt>
      <trkpt lat="47.33382" lon="-1.88699">
        <ele>51</ele>
        <time>2015-12-05T15:11:55Z</time>
      </trkpt>
      <trkpt lat="47.33386" lon="-1.88706">
        <ele>51</ele>
        <time>2015-12-05T15:11:57Z</time>
      </trkpt>
      <trkpt lat="47.33389" lon="-1.88712">
        <ele>51</ele>
        <time>2015-12-05T15:11:59Z</time>
      </trkpt>
      <trkpt lat="47.33389" lon="-1.88721">
        <ele>50</ele>
        <time>2015-12-05T15:12:00Z</time>
      </trkpt>
      <trkpt lat="47.33394" lon="-1.88726">
        <ele>50</ele>
        <time>2015-12-05T15:12:02Z</time>
      </trkpt>
      <trkpt lat="47.33398" lon="-1.88728">
        <ele>50</ele>
        <time>2015-12-05T15:12:04Z</time>
      </trkpt>
      <trkpt lat="47.33405" lon="-1.88719">
        <ele>50</ele>
        <time>2015-12-05T15:12:06Z</time>
      </trkpt>
      <trkpt lat="47.33409" lon="-1.88717">
        <ele>50</ele>
        <time>2015-12-05T15:12:07Z</time>
      </trkpt>
      <trkpt lat="47.33413" lon="-1.88714">
        <ele>51</ele>
        <time>2015-12-05T15:12:08Z</time>
      </trkpt>
      <trkpt lat="47.33416" lon="-1.8871">
        <ele>51</ele>
        <time>2015-12-05T15:12:09Z</time>
      </trkpt>
      <trkpt lat="47.3342" lon="-1.88706">
        <ele>49</ele>
        <time>2015-12-05T15:12:10Z</time>
      </trkpt>
      <trkpt lat="47.33424" lon="-1.88708">
        <ele>49</ele>
        <time>2015-12-05T15:12:12Z</time>
      </trkpt>
      <trkpt lat="47.33429" lon="-1.88713">
        <ele>49</ele>
        <time>2015-12-05T15:12:14Z</time>
      </trkpt>
      <trkpt lat="47.33431" lon="-1.88717">
        <ele>49</ele>
        <time>2015-12-05T15:12:15Z</time>
      </trkpt>
      <trkpt lat="47.33434" lon="-1.88722">
        <ele>49</ele>
        <time>2015-12-05T15:12:16Z</time>
      </trkpt>
      <trkpt lat="47.33438" lon="-1.88726">
        <ele>49</ele>
        <time>2015-12-05T15:12:17Z</time>
      </trkpt>
      <trkpt lat="47.33441" lon="-1.88731">
        <ele>49</ele>
        <time>2015-12-05T15:12:18Z</time>
      </trkpt>
      <trkpt lat="47.33444" lon="-1.8874">
        <ele>49</ele>
        <time>2015-12-05T15:12:19Z</time>
      </trkpt>
      <trkpt lat="47.33451" lon="-1.8875">
        <ele>48</ele>
        <time>2015-12-05T15:12:20Z</time>
      </trkpt>
      <trkpt lat="47.33455" lon="-1.88757">
        <ele>47</ele>
        <time>2015-12-05T15:12:21Z</time>
      </trkpt>
      <trkpt lat="47.33459" lon="-1.88763">
        <ele>46</ele>
        <time>2015-12-05T15:12:22Z</time>
      </trkpt>
      <trkpt lat="47.33462" lon="-1.88765">
        <ele>46</ele>
        <time>2015-12-05T15:12:23Z</time>
      </trkpt>
      <trkpt lat="47.33465" lon="-1.88761">
        <ele>46</ele>
        <time>2015-12-05T15:12:24Z</time>
      </trkpt>
      <trkpt lat="47.33468" lon="-1.88756">
        <ele>46</ele>
        <time>2015-12-05T15:12:25Z</time>
      </trkpt>
      <trkpt lat="47.3347" lon="-1.8875">
        <ele>46</ele>
        <time>2015-12-05T15:12:26Z</time>
      </trkpt>
      <trkpt lat="47.33472" lon="-1.88745">
        <ele>48</ele>
        <time>2015-12-05T15:12:27Z</time>
      </trkpt>
      <trkpt lat="47.33474" lon="-1.88741">
        <ele>48</ele>
        <time>2015-12-05T15:12:28Z</time>
      </trkpt>
      <trkpt lat="47.33478" lon="-1.88738">
        <ele>48</ele>
        <time>2015-12-05T15:12:30Z</time>
      </trkpt>
      <trkpt lat="47.33481" lon="-1.88734">
        <ele>48</ele>
        <time>2015-12-05T15:12:32Z</time>
      </trkpt>
      <trkpt lat="47.33479" lon="-1.88738">
        <ele>48</ele>
        <time>2015-12-05T15:12:42Z</time>
      </trkpt>
      <trkpt lat="47.33486" lon="-1.88731">
        <ele>47</ele>
        <time>2015-12-05T15:14:00Z</time>
      </trkpt>
      <trkpt lat="47.33483" lon="-1.88729">
        <ele>48</ele>
        <time>2015-12-05T15:14:01Z</time>
      </trkpt>
      <trkpt lat="47.33485" lon="-1.88724">
        <ele>48</ele>
        <time>2015-12-05T15:14:04Z</time>
      </trkpt>
      <trkpt lat="47.33486" lon="-1.8872">
        <ele>48</ele>
        <time>2015-12-05T15:14:06Z</time>
      </trkpt>
      <trkpt lat="47.33489" lon="-1.88715">
        <ele>48</ele>
        <time>2015-12-05T15:14:09Z</time>
      </trkpt>
      <trkpt lat="47.33488" lon="-1.88709">
        <ele>48</ele>
        <time>2015-12-05T15:14:11Z</time>
      </trkpt>
      <trkpt lat="47.3349" lon="-1.88706">
        <ele>48</ele>
        <time>2015-12-05T15:14:13Z</time>
      </trkpt>
      <trkpt lat="47.33493" lon="-1.88701">
        <ele>48</ele>
        <time>2015-12-05T15:14:14Z</time>
      </trkpt>
      <trkpt lat="47.33495" lon="-1.88696">
        <ele>48</ele>
        <time>2015-12-05T15:14:15Z</time>
      </trkpt>
      <trkpt lat="47.33498" lon="-1.88691">
        <ele>48</ele>
        <time>2015-12-05T15:14:17Z</time>
      </trkpt>
      <trkpt lat="47.33499" lon="-1.88683">
        <ele>48</ele>
        <time>2015-12-05T15:14:18Z</time>
      </trkpt>
      <trkpt lat="47.335" lon="-1.88678">
        <ele>48</ele>
        <time>2015-12-05T15:14:19Z</time>
      </trkpt>
      <trkpt lat="47.33502" lon="-1.88677">
        <ele>48</ele>
        <time>2015-12-05T15:14:20Z</time>
      </trkpt>
      <trkpt lat="47.33505" lon="-1.88673">
        <ele>48</ele>
        <time>2015-12-05T15:14:21Z</time>
      </trkpt>
      <trkpt lat="47.33507" lon="-1.88669">
        <ele>48</ele>
        <time>2015-12-05T15:14:23Z</time>
      </trkpt>
      <trkpt lat="47.33508" lon="-1.88664">
        <ele>49</ele>
        <time>2015-12-05T15:14:24Z</time>
      </trkpt>
      <trkpt lat="47.33512" lon="-1.88655">
        <ele>50</ele>
        <time>2015-12-05T15:14:26Z</time>
      </trkpt>
      <trkpt lat="47.33515" lon="-1.8865">
        <ele>50</ele>
        <time>2015-12-05T15:14:28Z</time>
      </trkpt>
      <trkpt lat="47.33516" lon="-1.88655">
        <ele>50</ele>
        <time>2015-12-05T15:14:29Z</time>
      </trkpt>
      <trkpt lat="47.33515" lon="-1.88649">
        <ele>51</ele>
        <time>2015-12-05T15:14:31Z</time>
      </trkpt>
      <trkpt lat="47.33521" lon="-1.88646">
        <ele>51</ele>
        <time>2015-12-05T15:14:33Z</time>
      </trkpt>
      <trkpt lat="47.33524" lon="-1.88644">
        <ele>51</ele>
        <time>2015-12-05T15:14:35Z</time>
      </trkpt>
      <trkpt lat="47.33529" lon="-1.88635">
        <ele>52</ele>
        <time>2015-12-05T15:14:37Z</time>
      </trkpt>
      <trkpt lat="47.33532" lon="-1.88631">
        <ele>52</ele>
        <time>2015-12-05T15:14:39Z</time>
      </trkpt>
      <trkpt lat="47.33548" lon="-1.88638">
        <ele>53</ele>
        <time>2015-12-05T15:14:41Z</time>
      </trkpt>
      <trkpt lat="47.33551" lon="-1.88633">
        <ele>53</ele>
        <time>2015-12-05T15:14:42Z</time>
      </trkpt>
      <trkpt lat="47.33553" lon="-1.88629">
        <ele>53</ele>
        <time>2015-12-05T15:14:43Z</time>
      </trkpt>
      <trkpt lat="47.33555" lon="-1.88624">
        <ele>53</ele>
        <time>2015-12-05T15:14:44Z</time>
      </trkpt>
      <trkpt lat="47.33557" lon="-1.8862">
        <ele>53</ele>
        <time>2015-12-05T15:14:45Z</time>
      </trkpt>
      <trkpt lat="47.33561" lon="-1.88614">
        <ele>53</ele>
        <time>2015-12-05T15:14:47Z</time>
      </trkpt>
      <trkpt lat="47.33563" lon="-1.8861">
        <ele>53</ele>
        <time>2015-12-05T15:14:48Z</time>
      </trkpt>
      <trkpt lat="47.33565" lon="-1.88607">
        <ele>53</ele>
        <time>2015-12-05T15:14:49Z</time>
      </trkpt>
      <trkpt lat="47.33568" lon="-1.88602">
        <ele>53</ele>
        <time>2015-12-05T15:14:51Z</time>
      </trkpt>
      <trkpt lat="47.33571" lon="-1.88597">
        <ele>53</ele>
        <time>2015-12-05T15:14:53Z</time>
      </trkpt>
      <trkpt lat="47.33573" lon="-1.88592">
        <ele>53</ele>
        <time>2015-12-05T15:14:55Z</time>
      </trkpt>
      <trkpt lat="47.33575" lon="-1.88589">
        <ele>53</ele>
        <time>2015-12-05T15:14:56Z</time>
      </trkpt>
      <trkpt lat="47.33578" lon="-1.88584">
        <ele>53</ele>
        <time>2015-12-05T15:14:58Z</time>
      </trkpt>
      <trkpt lat="47.3358" lon="-1.88581">
        <ele>53</ele>
        <time>2015-12-05T15:14:59Z</time>
      </trkpt>
      <trkpt lat="47.33583" lon="-1.88579">
        <ele>53</ele>
        <time>2015-12-05T15:15:00Z</time>
      </trkpt>
      <trkpt lat="47.33586" lon="-1.88572">
        <ele>55</ele>
        <time>2015-12-05T15:15:02Z</time>
      </trkpt>
      <trkpt lat="47.33588" lon="-1.88569">
        <ele>55</ele>
        <time>2015-12-05T15:15:03Z</time>
      </trkpt>
      <trkpt lat="47.33591" lon="-1.88564">
        <ele>56</ele>
        <time>2015-12-05T15:15:05Z</time>
      </trkpt>
      <trkpt lat="47.33594" lon="-1.88562">
        <ele>56</ele>
        <time>2015-12-05T15:15:06Z</time>
      </trkpt>
      <trkpt lat="47.33596" lon="-1.88557">
        <ele>56</ele>
        <time>2015-12-05T15:15:08Z</time>
      </trkpt>
      <trkpt lat="47.33596" lon="-1.88551">
        <ele>56</ele>
        <time>2015-12-05T15:15:09Z</time>
      </trkpt>
      <trkpt lat="47.33597" lon="-1.88546">
        <ele>57</ele>
        <time>2015-12-05T15:15:11Z</time>
      </trkpt>
      <trkpt lat="47.33598" lon="-1.8854">
        <ele>57</ele>
        <time>2015-12-05T15:15:12Z</time>
      </trkpt>
      <trkpt lat="47.33599" lon="-1.88536">
        <ele>57</ele>
        <time>2015-12-05T15:15:13Z</time>
      </trkpt>
      <trkpt lat="47.336" lon="-1.88531">
        <ele>57</ele>
        <time>2015-12-05T15:15:15Z</time>
      </trkpt>
      <trkpt lat="47.33601" lon="-1.88524">
        <ele>57</ele>
        <time>2015-12-05T15:15:17Z</time>
      </trkpt>
      <trkpt lat="47.33603" lon="-1.88517">
        <ele>57</ele>
        <time>2015-12-05T15:15:19Z</time>
      </trkpt>
      <trkpt lat="47.33604" lon="-1.88513">
        <ele>57</ele>
        <time>2015-12-05T15:15:20Z</time>
      </trkpt>
      <trkpt lat="47.33606" lon="-1.88508">
        <ele>57</ele>
        <time>2015-12-05T15:15:22Z</time>
      </trkpt>
      <trkpt lat="47.33607" lon="-1.88501">
        <ele>57</ele>
        <time>2015-12-05T15:15:23Z</time>
      </trkpt>
      <trkpt lat="47.33608" lon="-1.88495">
        <ele>57</ele>
        <time>2015-12-05T15:15:24Z</time>
      </trkpt>
      <trkpt lat="47.33608" lon="-1.88488">
        <ele>57</ele>
        <time>2015-12-05T15:15:25Z</time>
      </trkpt>
      <trkpt lat="47.33607" lon="-1.88482">
        <ele>57</ele>
        <time>2015-12-05T15:15:26Z</time>
      </trkpt>
      <trkpt lat="47.33607" lon="-1.88475">
        <ele>57</ele>
        <time>2015-12-05T15:15:27Z</time>
      </trkpt>
      <trkpt lat="47.33606" lon="-1.88469">
        <ele>57</ele>
        <time>2015-12-05T15:15:28Z</time>
      </trkpt>
      <trkpt lat="47.33604" lon="-1.88464">
        <ele>57</ele>
        <time>2015-12-05T15:15:29Z</time>
      </trkpt>
      <trkpt lat="47.33602" lon="-1.8846">
        <ele>57</ele>
        <time>2015-12-05T15:15:30Z</time>
      </trkpt>
      <trkpt lat="47.336" lon="-1.88455">
        <ele>57</ele>
        <time>2015-12-05T15:15:31Z</time>
      </trkpt>
      <trkpt lat="47.33598" lon="-1.8845">
        <ele>57</ele>
        <time>2015-12-05T15:15:32Z</time>
      </trkpt>
      <trkpt lat="47.33597" lon="-1.88445">
        <ele>57</ele>
        <time>2015-12-05T15:15:33Z</time>
      </trkpt>
      <trkpt lat="47.33595" lon="-1.88437">
        <ele>57</ele>
        <time>2015-12-05T15:15:35Z</time>
      </trkpt>
      <trkpt lat="47.33593" lon="-1.88431">
        <ele>57</ele>
        <time>2015-12-05T15:15:36Z</time>
      </trkpt>
      <trkpt lat="47.33591" lon="-1.88424">
        <ele>56</ele>
        <time>2015-12-05T15:15:38Z</time>
      </trkpt>
      <trkpt lat="47.33591" lon="-1.88417">
        <ele>56</ele>
        <time>2015-12-05T15:15:39Z</time>
      </trkpt>
      <trkpt lat="47.33589" lon="-1.8841">
        <ele>56</ele>
        <time>2015-12-05T15:15:41Z</time>
      </trkpt>
      <trkpt lat="47.33591" lon="-1.88402">
        <ele>57</ele>
        <time>2015-12-05T15:15:42Z</time>
      </trkpt>
      <trkpt lat="47.33592" lon="-1.88395">
        <ele>57</ele>
        <time>2015-12-05T15:15:43Z</time>
      </trkpt>
      <trkpt lat="47.33594" lon="-1.88389">
        <ele>58</ele>
        <time>2015-12-05T15:15:44Z</time>
      </trkpt>
      <trkpt lat="47.33595" lon="-1.88382">
        <ele>58</ele>
        <time>2015-12-05T15:15:46Z</time>
      </trkpt>
      <trkpt lat="47.33598" lon="-1.88373">
        <ele>58</ele>
        <time>2015-12-05T15:15:47Z</time>
      </trkpt>
      <trkpt lat="47.33599" lon="-1.88369">
        <ele>58</ele>
        <time>2015-12-05T15:15:48Z</time>
      </trkpt>
      <trkpt lat="47.33599" lon="-1.88364">
        <ele>58</ele>
        <time>2015-12-05T15:15:49Z</time>
      </trkpt>
      <trkpt lat="47.33602" lon="-1.88355">
        <ele>58</ele>
        <time>2015-12-05T15:15:51Z</time>
      </trkpt>
      <trkpt lat="47.33604" lon="-1.8835">
        <ele>58</ele>
        <time>2015-12-05T15:15:52Z</time>
      </trkpt>
      <trkpt lat="47.33607" lon="-1.88345">
        <ele>58</ele>
        <time>2015-12-05T15:15:53Z</time>
      </trkpt>
      <trkpt lat="47.3361" lon="-1.88343">
        <ele>58</ele>
        <time>2015-12-05T15:15:54Z</time>
      </trkpt>
      <trkpt lat="47.33614" lon="-1.88339">
        <ele>59</ele>
        <time>2015-12-05T15:15:56Z</time>
      </trkpt>
      <trkpt lat="47.33617" lon="-1.88336">
        <ele>59</ele>
        <time>2015-12-05T15:15:57Z</time>
      </trkpt>
      <trkpt lat="47.33619" lon="-1.88332">
        <ele>60</ele>
        <time>2015-12-05T15:15:58Z</time>
      </trkpt>
      <trkpt lat="47.33622" lon="-1.88327">
        <ele>60</ele>
        <time>2015-12-05T15:16:00Z</time>
      </trkpt>
      <trkpt lat="47.33627" lon="-1.8832">
        <ele>60</ele>
        <time>2015-12-05T15:16:01Z</time>
      </trkpt>
      <trkpt lat="47.33629" lon="-1.88317">
        <ele>60</ele>
        <time>2015-12-05T15:16:02Z</time>
      </trkpt>
      <trkpt lat="47.33633" lon="-1.88313">
        <ele>60</ele>
        <time>2015-12-05T15:16:03Z</time>
      </trkpt>
      <trkpt lat="47.33636" lon="-1.88311">
        <ele>60</ele>
        <time>2015-12-05T15:16:04Z</time>
      </trkpt>
      <trkpt lat="47.33642" lon="-1.88309">
        <ele>60</ele>
        <time>2015-12-05T15:16:05Z</time>
      </trkpt>
      <trkpt lat="47.33646" lon="-1.88307">
        <ele>60</ele>
        <time>2015-12-05T15:16:06Z</time>
      </trkpt>
      <trkpt lat="47.3365" lon="-1.88304">
        <ele>60</ele>
        <time>2015-12-05T15:16:07Z</time>
      </trkpt>
      <trkpt lat="47.33653" lon="-1.88301">
        <ele>60</ele>
        <time>2015-12-05T15:16:08Z</time>
      </trkpt>
      <trkpt lat="47.33656" lon="-1.88299">
        <ele>60</ele>
        <time>2015-12-05T15:16:09Z</time>
      </trkpt>
      <trkpt lat="47.33658" lon="-1.88297">
        <ele>60</ele>
        <time>2015-12-05T15:16:10Z</time>
      </trkpt>
      <trkpt lat="47.33663" lon="-1.88293">
        <ele>60</ele>
        <time>2015-12-05T15:16:11Z</time>
      </trkpt>
      <trkpt lat="47.33666" lon="-1.8829">
        <ele>60</ele>
        <time>2015-12-05T15:16:12Z</time>
      </trkpt>
      <trkpt lat="47.33668" lon="-1.88288">
        <ele>62</ele>
        <time>2015-12-05T15:16:13Z</time>
      </trkpt>
      <trkpt lat="47.33672" lon="-1.88286">
        <ele>62</ele>
        <time>2015-12-05T15:16:14Z</time>
      </trkpt>
      <trkpt lat="47.33675" lon="-1.88284">
        <ele>62</ele>
        <time>2015-12-05T15:16:15Z</time>
      </trkpt>
      <trkpt lat="47.33677" lon="-1.88281">
        <ele>62</ele>
        <time>2015-12-05T15:16:16Z</time>
      </trkpt>
      <trkpt lat="47.33681" lon="-1.88276">
        <ele>61</ele>
        <time>2015-12-05T15:16:17Z</time>
      </trkpt>
      <trkpt lat="47.33683" lon="-1.88273">
        <ele>61</ele>
        <time>2015-12-05T15:16:18Z</time>
      </trkpt>
      <trkpt lat="47.33689" lon="-1.88266">
        <ele>62</ele>
        <time>2015-12-05T15:16:20Z</time>
      </trkpt>
      <trkpt lat="47.33691" lon="-1.88264">
        <ele>62</ele>
        <time>2015-12-05T15:16:21Z</time>
      </trkpt>
      <trkpt lat="47.33694" lon="-1.88261">
        <ele>62</ele>
        <time>2015-12-05T15:16:22Z</time>
      </trkpt>
      <trkpt lat="47.33698" lon="-1.88258">
        <ele>62</ele>
        <time>2015-12-05T15:16:23Z</time>
      </trkpt>
      <trkpt lat="47.33701" lon="-1.88256">
        <ele>62</ele>
        <time>2015-12-05T15:16:24Z</time>
      </trkpt>
      <trkpt lat="47.33706" lon="-1.88252">
        <ele>62</ele>
        <time>2015-12-05T15:16:26Z</time>
      </trkpt>
      <trkpt lat="47.33709" lon="-1.8825">
        <ele>62</ele>
        <time>2015-12-05T15:16:27Z</time>
      </trkpt>
      <trkpt lat="47.33713" lon="-1.88245">
        <ele>63</ele>
        <time>2015-12-05T15:16:29Z</time>
      </trkpt>
      <trkpt lat="47.33717" lon="-1.88242">
        <ele>63</ele>
        <time>2015-12-05T15:16:30Z</time>
      </trkpt>
      <trkpt lat="47.33721" lon="-1.88238">
        <ele>63</ele>
        <time>2015-12-05T15:16:32Z</time>
      </trkpt>
      <trkpt lat="47.33724" lon="-1.88239">
        <ele>63</ele>
        <time>2015-12-05T15:16:33Z</time>
      </trkpt>
      <trkpt lat="47.33727" lon="-1.88238">
        <ele>63</ele>
        <time>2015-12-05T15:16:34Z</time>
      </trkpt>
      <trkpt lat="47.3373" lon="-1.88237">
        <ele>63</ele>
        <time>2015-12-05T15:16:35Z</time>
      </trkpt>
      <trkpt lat="47.33734" lon="-1.88236">
        <ele>63</ele>
        <time>2015-12-05T15:16:37Z</time>
      </trkpt>
      <trkpt lat="47.33737" lon="-1.88234">
        <ele>63</ele>
        <time>2015-12-05T15:16:38Z</time>
      </trkpt>
      <trkpt lat="47.33742" lon="-1.88232">
        <ele>63</ele>
        <time>2015-12-05T15:16:40Z</time>
      </trkpt>
      <trkpt lat="47.33746" lon="-1.8823">
        <ele>63</ele>
        <time>2015-12-05T15:16:42Z</time>
      </trkpt>
      <trkpt lat="47.3375" lon="-1.88228">
        <ele>63</ele>
        <time>2015-12-05T15:16:44Z</time>
      </trkpt>
      <trkpt lat="47.33753" lon="-1.88226">
        <ele>64</ele>
        <time>2015-12-05T15:16:45Z</time>
      </trkpt>
      <trkpt lat="47.33757" lon="-1.88224">
        <ele>64</ele>
        <time>2015-12-05T15:16:47Z</time>
      </trkpt>
      <trkpt lat="47.33761" lon="-1.88222">
        <ele>64</ele>
        <time>2015-12-05T15:16:48Z</time>
      </trkpt>
      <trkpt lat="47.33764" lon="-1.88221">
        <ele>64</ele>
        <time>2015-12-05T15:16:49Z</time>
      </trkpt>
      <trkpt lat="47.33768" lon="-1.88219">
        <ele>64</ele>
        <time>2015-12-05T15:16:51Z</time>
      </trkpt>
      <trkpt lat="47.33772" lon="-1.88216">
        <ele>64</ele>
        <time>2015-12-05T15:16:52Z</time>
      </trkpt>
      <trkpt lat="47.33775" lon="-1.88213">
        <ele>64</ele>
        <time>2015-12-05T15:16:53Z</time>
      </trkpt>
      <trkpt lat="47.33785" lon="-1.88202">
        <ele>64</ele>
        <time>2015-12-05T15:16:55Z</time>
      </trkpt>
      <trkpt lat="47.3379" lon="-1.88198">
        <ele>64</ele>
        <time>2015-12-05T15:16:56Z</time>
      </trkpt>
      <trkpt lat="47.33799" lon="-1.8819">
        <ele>64</ele>
        <time>2015-12-05T15:16:57Z</time>
      </trkpt>
      <trkpt lat="47.33803" lon="-1.88186">
        <ele>64</ele>
        <time>2015-12-05T15:16:58Z</time>
      </trkpt>
      <trkpt lat="47.33805" lon="-1.8818">
        <ele>64</ele>
        <time>2015-12-05T15:16:59Z</time>
      </trkpt>
      <trkpt lat="47.33809" lon="-1.88178">
        <ele>64</ele>
        <time>2015-12-05T15:17:00Z</time>
      </trkpt>
      <trkpt lat="47.33812" lon="-1.88176">
        <ele>64</ele>
        <time>2015-12-05T15:17:01Z</time>
      </trkpt>
      <trkpt lat="47.33815" lon="-1.8818">
        <ele>64</ele>
        <time>2015-12-05T15:17:03Z</time>
      </trkpt>
      <trkpt lat="47.3382" lon="-1.88174">
        <ele>63</ele>
        <time>2015-12-05T15:17:04Z</time>
      </trkpt>
      <trkpt lat="47.33823" lon="-1.88172">
        <ele>63</ele>
        <time>2015-12-05T15:17:05Z</time>
      </trkpt>
      <trkpt lat="47.33826" lon="-1.8817">
        <ele>63</ele>
        <time>2015-12-05T15:17:06Z</time>
      </trkpt>
      <trkpt lat="47.3383" lon="-1.88166">
        <ele>63</ele>
        <time>2015-12-05T15:17:07Z</time>
      </trkpt>
      <trkpt lat="47.33834" lon="-1.88164">
        <ele>63</ele>
        <time>2015-12-05T15:17:08Z</time>
      </trkpt>
      <trkpt lat="47.33837" lon="-1.88162">
        <ele>63</ele>
        <time>2015-12-05T15:17:09Z</time>
      </trkpt>
      <trkpt lat="47.33841" lon="-1.88162">
        <ele>63</ele>
        <time>2015-12-05T15:17:10Z</time>
      </trkpt>
      <trkpt lat="47.33843" lon="-1.88161">
        <ele>64</ele>
        <time>2015-12-05T15:17:11Z</time>
      </trkpt>
      <trkpt lat="47.33846" lon="-1.8816">
        <ele>64</ele>
        <time>2015-12-05T15:17:12Z</time>
      </trkpt>
      <trkpt lat="47.33851" lon="-1.88156">
        <ele>64</ele>
        <time>2015-12-05T15:17:14Z</time>
      </trkpt>
      <trkpt lat="47.33856" lon="-1.88151">
        <ele>64</ele>
        <time>2015-12-05T15:17:15Z</time>
      </trkpt>
      <trkpt lat="47.33858" lon="-1.88148">
        <ele>64</ele>
        <time>2015-12-05T15:17:16Z</time>
      </trkpt>
      <trkpt lat="47.33861" lon="-1.88145">
        <ele>64</ele>
        <time>2015-12-05T15:17:17Z</time>
      </trkpt>
      <trkpt lat="47.33864" lon="-1.8814">
        <ele>64</ele>
        <time>2015-12-05T15:17:18Z</time>
      </trkpt>
      <trkpt lat="47.33867" lon="-1.88138">
        <ele>64</ele>
        <time>2015-12-05T15:17:19Z</time>
      </trkpt>
      <trkpt lat="47.33869" lon="-1.88135">
        <ele>64</ele>
        <time>2015-12-05T15:17:20Z</time>
      </trkpt>
      <trkpt lat="47.33872" lon="-1.88132">
        <ele>64</ele>
        <time>2015-12-05T15:17:21Z</time>
      </trkpt>
      <trkpt lat="47.33875" lon="-1.88127">
        <ele>64</ele>
        <time>2015-12-05T15:17:22Z</time>
      </trkpt>
      <trkpt lat="47.33881" lon="-1.88121">
        <ele>64</ele>
        <time>2015-12-05T15:17:23Z</time>
      </trkpt>
      <trkpt lat="47.33884" lon="-1.88118">
        <ele>64</ele>
        <time>2015-12-05T15:17:24Z</time>
      </trkpt>
      <trkpt lat="47.33888" lon="-1.88116">
        <ele>64</ele>
        <time>2015-12-05T15:17:26Z</time>
      </trkpt>
      <trkpt lat="47.33891" lon="-1.88109">
        <ele>64</ele>
        <time>2015-12-05T15:17:27Z</time>
      </trkpt>
      <trkpt lat="47.33895" lon="-1.88104">
        <ele>64</ele>
        <time>2015-12-05T15:17:29Z</time>
      </trkpt>
      <trkpt lat="47.33899" lon="-1.88102">
        <ele>64</ele>
        <time>2015-12-05T15:17:30Z</time>
      </trkpt>
      <trkpt lat="47.33902" lon="-1.88098">
        <ele>64</ele>
        <time>2015-12-05T15:17:32Z</time>
      </trkpt>
      <trkpt lat="47.33907" lon="-1.88084">
        <ele>64</ele>
        <time>2015-12-05T15:17:33Z</time>
      </trkpt>
      <trkpt lat="47.33909" lon="-1.88079">
        <ele>64</ele>
        <time>2015-12-05T15:17:34Z</time>
      </trkpt>
      <trkpt lat="47.3391" lon="-1.88073">
        <ele>64</ele>
        <time>2015-12-05T15:17:35Z</time>
      </trkpt>
      <trkpt lat="47.33911" lon="-1.88064">
        <ele>65</ele>
        <time>2015-12-05T15:17:36Z</time>
      </trkpt>
      <trkpt lat="47.33909" lon="-1.8806">
        <ele>65</ele>
        <time>2015-12-05T15:17:37Z</time>
      </trkpt>
      <trkpt lat="47.33907" lon="-1.88056">
        <ele>65</ele>
        <time>2015-12-05T15:17:38Z</time>
      </trkpt>
      <trkpt lat="47.33904" lon="-1.88054">
        <ele>65</ele>
        <time>2015-12-05T15:17:39Z</time>
      </trkpt>
      <trkpt lat="47.33901" lon="-1.88052">
        <ele>65</ele>
        <time>2015-12-05T15:17:40Z</time>
      </trkpt>
      <trkpt lat="47.33899" lon="-1.88049">
        <ele>65</ele>
        <time>2015-12-05T15:17:41Z</time>
      </trkpt>
      <trkpt lat="47.339" lon="-1.88038">
        <ele>65</ele>
        <time>2015-12-05T15:17:42Z</time>
      </trkpt>
      <trkpt lat="47.33898" lon="-1.88034">
        <ele>65</ele>
        <time>2015-12-05T15:17:43Z</time>
      </trkpt>
      <trkpt lat="47.33895" lon="-1.88031">
        <ele>65</ele>
        <time>2015-12-05T15:17:44Z</time>
      </trkpt>
      <trkpt lat="47.33903" lon="-1.88019">
        <ele>65</ele>
        <time>2015-12-05T15:17:45Z</time>
      </trkpt>
      <trkpt lat="47.33905" lon="-1.88013">
        <ele>65</ele>
        <time>2015-12-05T15:17:46Z</time>
      </trkpt>
      <trkpt lat="47.33907" lon="-1.88009">
        <ele>65</ele>
        <time>2015-12-05T15:17:47Z</time>
      </trkpt>
      <trkpt lat="47.3391" lon="-1.88006">
        <ele>65</ele>
        <time>2015-12-05T15:17:48Z</time>
      </trkpt>
      <trkpt lat="47.33914" lon="-1.88002">
        <ele>65</ele>
        <time>2015-12-05T15:17:49Z</time>
      </trkpt>
      <trkpt lat="47.33917" lon="-1.87998">
        <ele>65</ele>
        <time>2015-12-05T15:17:50Z</time>
      </trkpt>
      <trkpt lat="47.3392" lon="-1.87995">
        <ele>65</ele>
        <time>2015-12-05T15:17:51Z</time>
      </trkpt>
      <trkpt lat="47.33923" lon="-1.87992">
        <ele>65</ele>
        <time>2015-12-05T15:17:52Z</time>
      </trkpt>
      <trkpt lat="47.33926" lon="-1.87991">
        <ele>65</ele>
        <time>2015-12-05T15:17:53Z</time>
      </trkpt>
      <trkpt lat="47.33928" lon="-1.87987">
        <ele>65</ele>
        <time>2015-12-05T15:17:54Z</time>
      </trkpt>
      <trkpt lat="47.3393" lon="-1.87984">
        <ele>65</ele>
        <time>2015-12-05T15:17:55Z</time>
      </trkpt>
      <trkpt lat="47.33934" lon="-1.87979">
        <ele>66</ele>
        <time>2015-12-05T15:17:56Z</time>
      </trkpt>
      <trkpt lat="47.33937" lon="-1.87972">
        <ele>66</ele>
        <time>2015-12-05T15:17:57Z</time>
      </trkpt>
      <trkpt lat="47.3394" lon="-1.87967">
        <ele>66</ele>
        <time>2015-12-05T15:17:58Z</time>
      </trkpt>
      <trkpt lat="47.33941" lon="-1.87964">
        <ele>66</ele>
        <time>2015-12-05T15:17:59Z</time>
      </trkpt>
      <trkpt lat="47.33945" lon="-1.87957">
        <ele>66</ele>
        <time>2015-12-05T15:18:01Z</time>
      </trkpt>
      <trkpt lat="47.33948" lon="-1.87958">
        <ele>66</ele>
        <time>2015-12-05T15:18:02Z</time>
      </trkpt>
      <trkpt lat="47.33951" lon="-1.87962">
        <ele>66</ele>
        <time>2015-12-05T15:18:03Z</time>
      </trkpt>
      <trkpt lat="47.33954" lon="-1.87968">
        <ele>66</ele>
        <time>2015-12-05T15:18:04Z</time>
      </trkpt>
      <trkpt lat="47.33956" lon="-1.87973">
        <ele>66</ele>
        <time>2015-12-05T15:18:05Z</time>
      </trkpt>
      <trkpt lat="47.33958" lon="-1.87979">
        <ele>66</ele>
        <time>2015-12-05T15:18:06Z</time>
      </trkpt>
      <trkpt lat="47.3396" lon="-1.87984">
        <ele>66</ele>
        <time>2015-12-05T15:18:07Z</time>
      </trkpt>
      <trkpt lat="47.33962" lon="-1.8799">
        <ele>66</ele>
        <time>2015-12-05T15:18:08Z</time>
      </trkpt>
      <trkpt lat="47.33963" lon="-1.87995">
        <ele>65</ele>
        <time>2015-12-05T15:18:09Z</time>
      </trkpt>
      <trkpt lat="47.33965" lon="-1.88001">
        <ele>65</ele>
        <time>2015-12-05T15:18:10Z</time>
      </trkpt>
      <trkpt lat="47.33967" lon="-1.88009">
        <ele>65</ele>
        <time>2015-12-05T15:18:12Z</time>
      </trkpt>
      <trkpt lat="47.33968" lon="-1.88014">
        <ele>65</ele>
        <time>2015-12-05T15:18:13Z</time>
      </trkpt>
      <trkpt lat="47.33969" lon="-1.88019">
        <ele>65</ele>
        <time>2015-12-05T15:18:14Z</time>
      </trkpt>
      <trkpt lat="47.33968" lon="-1.88026">
        <ele>65</ele>
        <time>2015-12-05T15:18:16Z</time>
      </trkpt>
      <trkpt lat="47.33967" lon="-1.88031">
        <ele>65</ele>
        <time>2015-12-05T15:18:17Z</time>
      </trkpt>
      <trkpt lat="47.33964" lon="-1.88033">
        <ele>65</ele>
        <time>2015-12-05T15:18:18Z</time>
      </trkpt>
      <trkpt lat="47.33962" lon="-1.88037">
        <ele>65</ele>
        <time>2015-12-05T15:18:19Z</time>
      </trkpt>
      <trkpt lat="47.33959" lon="-1.8804">
        <ele>65</ele>
        <time>2015-12-05T15:18:20Z</time>
      </trkpt>
      <trkpt lat="47.33957" lon="-1.88044">
        <ele>65</ele>
        <time>2015-12-05T15:18:21Z</time>
      </trkpt>
      <trkpt lat="47.33954" lon="-1.88047">
        <ele>65</ele>
        <time>2015-12-05T15:18:22Z</time>
      </trkpt>
      <trkpt lat="47.33952" lon="-1.88051">
        <ele>65</ele>
        <time>2015-12-05T15:18:23Z</time>
      </trkpt>
      <trkpt lat="47.3395" lon="-1.88054">
        <ele>65</ele>
        <time>2015-12-05T15:18:24Z</time>
      </trkpt>
      <trkpt lat="47.33947" lon="-1.8806">
        <ele>65</ele>
        <time>2015-12-05T15:18:25Z</time>
      </trkpt>
      <trkpt lat="47.33945" lon="-1.88065">
        <ele>65</ele>
        <time>2015-12-05T15:18:26Z</time>
      </trkpt>
      <trkpt lat="47.33944" lon="-1.88069">
        <ele>65</ele>
        <time>2015-12-05T15:18:27Z</time>
      </trkpt>
      <trkpt lat="47.33942" lon="-1.88078">
        <ele>65</ele>
        <time>2015-12-05T15:18:28Z</time>
      </trkpt>
      <trkpt lat="47.33941" lon="-1.8809">
        <ele>65</ele>
        <time>2015-12-05T15:18:29Z</time>
      </trkpt>
      <trkpt lat="47.33942" lon="-1.88096">
        <ele>65</ele>
        <time>2015-12-05T15:18:30Z</time>
      </trkpt>
      <trkpt lat="47.33942" lon="-1.88102">
        <ele>65</ele>
        <time>2015-12-05T15:18:31Z</time>
      </trkpt>
      <trkpt lat="47.33943" lon="-1.88108">
        <ele>66</ele>
        <time>2015-12-05T15:18:32Z</time>
      </trkpt>
      <trkpt lat="47.33943" lon="-1.88114">
        <ele>66</ele>
        <time>2015-12-05T15:18:33Z</time>
      </trkpt>
      <trkpt lat="47.33945" lon="-1.8812">
        <ele>66</ele>
        <time>2015-12-05T15:18:34Z</time>
      </trkpt>
      <trkpt lat="47.33946" lon="-1.88127">
        <ele>66</ele>
        <time>2015-12-05T15:18:35Z</time>
      </trkpt>
      <trkpt lat="47.33947" lon="-1.88134">
        <ele>66</ele>
        <time>2015-12-05T15:18:36Z</time>
      </trkpt>
      <trkpt lat="47.33948" lon="-1.88141">
        <ele>66</ele>
        <time>2015-12-05T15:18:37Z</time>
      </trkpt>
      <trkpt lat="47.33949" lon="-1.88148">
        <ele>66</ele>
        <time>2015-12-05T15:18:38Z</time>
      </trkpt>
      <trkpt lat="47.3395" lon="-1.88156">
        <ele>66</ele>
        <time>2015-12-05T15:18:39Z</time>
      </trkpt>
      <trkpt lat="47.33948" lon="-1.88163">
        <ele>66</ele>
        <time>2015-12-05T15:18:40Z</time>
      </trkpt>
      <trkpt lat="47.33947" lon="-1.88169">
        <ele>67</ele>
        <time>2015-12-05T15:18:41Z</time>
      </trkpt>
      <trkpt lat="47.33947" lon="-1.88175">
        <ele>67</ele>
        <time>2015-12-05T15:18:42Z</time>
      </trkpt>
      <trkpt lat="47.33948" lon="-1.88183">
        <ele>67</ele>
        <time>2015-12-05T15:18:43Z</time>
      </trkpt>
      <trkpt lat="47.33948" lon="-1.8819">
        <ele>67</ele>
        <time>2015-12-05T15:18:44Z</time>
      </trkpt>
      <trkpt lat="47.33948" lon="-1.88198">
        <ele>67</ele>
        <time>2015-12-05T15:18:45Z</time>
      </trkpt>
      <trkpt lat="47.33948" lon="-1.88204">
        <ele>67</ele>
        <time>2015-12-05T15:18:46Z</time>
      </trkpt>
      <trkpt lat="47.33948" lon="-1.88211">
        <ele>67</ele>
        <time>2015-12-05T15:18:47Z</time>
      </trkpt>
      <trkpt lat="47.33948" lon="-1.88217">
        <ele>67</ele>
        <time>2015-12-05T15:18:48Z</time>
      </trkpt>
      <trkpt lat="47.33948" lon="-1.88224">
        <ele>67</ele>
        <time>2015-12-05T15:18:49Z</time>
      </trkpt>
      <trkpt lat="47.33948" lon="-1.8823">
        <ele>67</ele>
        <time>2015-12-05T15:18:50Z</time>
      </trkpt>
      <trkpt lat="47.33948" lon="-1.88238">
        <ele>67</ele>
        <time>2015-12-05T15:18:51Z</time>
      </trkpt>
      <trkpt lat="47.33948" lon="-1.88244">
        <ele>68</ele>
        <time>2015-12-05T15:18:52Z</time>
      </trkpt>
      <trkpt lat="47.33949" lon="-1.88251">
        <ele>68</ele>
        <time>2015-12-05T15:18:53Z</time>
      </trkpt>
      <trkpt lat="47.33949" lon="-1.88257">
        <ele>68</ele>
        <time>2015-12-05T15:18:54Z</time>
      </trkpt>
      <trkpt lat="47.33949" lon="-1.88264">
        <ele>68</ele>
        <time>2015-12-05T15:18:55Z</time>
      </trkpt>
      <trkpt lat="47.33949" lon="-1.88272">
        <ele>68</ele>
        <time>2015-12-05T15:18:56Z</time>
      </trkpt>
      <trkpt lat="47.33949" lon="-1.88279">
        <ele>68</ele>
        <time>2015-12-05T15:18:57Z</time>
      </trkpt>
      <trkpt lat="47.3395" lon="-1.88286">
        <ele>68</ele>
        <time>2015-12-05T15:18:58Z</time>
      </trkpt>
      <trkpt lat="47.33951" lon="-1.88293">
        <ele>68</ele>
        <time>2015-12-05T15:18:59Z</time>
      </trkpt>
      <trkpt lat="47.33951" lon="-1.883">
        <ele>68</ele>
        <time>2015-12-05T15:19:00Z</time>
      </trkpt>
      <trkpt lat="47.33952" lon="-1.88308">
        <ele>68</ele>
        <time>2015-12-05T15:19:01Z</time>
      </trkpt>
      <trkpt lat="47.33951" lon="-1.88314">
        <ele>68</ele>
        <time>2015-12-05T15:19:02Z</time>
      </trkpt>
      <trkpt lat="47.33952" lon="-1.88321">
        <ele>68</ele>
        <time>2015-12-05T15:19:03Z</time>
      </trkpt>
      <trkpt lat="47.33952" lon="-1.88326">
        <ele>68</ele>
        <time>2015-12-05T15:19:04Z</time>
      </trkpt>
      <trkpt lat="47.33953" lon="-1.88332">
        <ele>68</ele>
        <time>2015-12-05T15:19:05Z</time>
      </trkpt>
      <trkpt lat="47.33954" lon="-1.88339">
        <ele>68</ele>
        <time>2015-12-05T15:19:06Z</time>
      </trkpt>
      <trkpt lat="47.33952" lon="-1.88343">
        <ele>68</ele>
        <time>2015-12-05T15:19:07Z</time>
      </trkpt>
      <trkpt lat="47.33953" lon="-1.88348">
        <ele>68</ele>
        <time>2015-12-05T15:19:08Z</time>
      </trkpt>
      <trkpt lat="47.33952" lon="-1.88353">
        <ele>68</ele>
        <time>2015-12-05T15:19:09Z</time>
      </trkpt>
      <trkpt lat="47.33952" lon="-1.88358">
        <ele>68</ele>
        <time>2015-12-05T15:19:10Z</time>
      </trkpt>
      <trkpt lat="47.33954" lon="-1.88363">
        <ele>68</ele>
        <time>2015-12-05T15:19:11Z</time>
      </trkpt>
      <trkpt lat="47.33954" lon="-1.88368">
        <ele>68</ele>
        <time>2015-12-05T15:19:12Z</time>
      </trkpt>
      <trkpt lat="47.33954" lon="-1.88372">
        <ele>68</ele>
        <time>2015-12-05T15:19:13Z</time>
      </trkpt>
      <trkpt lat="47.3395" lon="-1.88374">
        <ele>68</ele>
        <time>2015-12-05T15:19:14Z</time>
      </trkpt>
      <trkpt lat="47.33947" lon="-1.88378">
        <ele>68</ele>
        <time>2015-12-05T15:19:15Z</time>
      </trkpt>
      <trkpt lat="47.33944" lon="-1.88381">
        <ele>68</ele>
        <time>2015-12-05T15:19:16Z</time>
      </trkpt>
      <trkpt lat="47.33941" lon="-1.88388">
        <ele>68</ele>
        <time>2015-12-05T15:19:18Z</time>
      </trkpt>
      <trkpt lat="47.33939" lon="-1.88391">
        <ele>68</ele>
        <time>2015-12-05T15:19:19Z</time>
      </trkpt>
      <trkpt lat="47.33941" lon="-1.88397">
        <ele>68</ele>
        <time>2015-12-05T15:19:20Z</time>
      </trkpt>
      <trkpt lat="47.33941" lon="-1.88401">
        <ele>68</ele>
        <time>2015-12-05T15:19:21Z</time>
      </trkpt>
      <trkpt lat="47.33942" lon="-1.88407">
        <ele>68</ele>
        <time>2015-12-05T15:19:22Z</time>
      </trkpt>
      <trkpt lat="47.33943" lon="-1.88413">
        <ele>68</ele>
        <time>2015-12-05T15:19:23Z</time>
      </trkpt>
      <trkpt lat="47.33943" lon="-1.88418">
        <ele>68</ele>
        <time>2015-12-05T15:19:24Z</time>
      </trkpt>
      <trkpt lat="47.33944" lon="-1.88426">
        <ele>69</ele>
        <time>2015-12-05T15:19:25Z</time>
      </trkpt>
      <trkpt lat="47.33945" lon="-1.88432">
        <ele>69</ele>
        <time>2015-12-05T15:19:26Z</time>
      </trkpt>
      <trkpt lat="47.33946" lon="-1.88438">
        <ele>69</ele>
        <time>2015-12-05T15:19:27Z</time>
      </trkpt>
      <trkpt lat="47.33947" lon="-1.88445">
        <ele>69</ele>
        <time>2015-12-05T15:19:28Z</time>
      </trkpt>
      <trkpt lat="47.33948" lon="-1.88452">
        <ele>69</ele>
        <time>2015-12-05T15:19:29Z</time>
      </trkpt>
      <trkpt lat="47.33949" lon="-1.88459">
        <ele>69</ele>
        <time>2015-12-05T15:19:30Z</time>
      </trkpt>
      <trkpt lat="47.3395" lon="-1.88465">
        <ele>69</ele>
        <time>2015-12-05T15:19:31Z</time>
      </trkpt>
      <trkpt lat="47.33951" lon="-1.88473">
        <ele>69</ele>
        <time>2015-12-05T15:19:32Z</time>
      </trkpt>
      <trkpt lat="47.33951" lon="-1.88479">
        <ele>69</ele>
        <time>2015-12-05T15:19:33Z</time>
      </trkpt>
      <trkpt lat="47.33952" lon="-1.88486">
        <ele>69</ele>
        <time>2015-12-05T15:19:34Z</time>
      </trkpt>
      <trkpt lat="47.33953" lon="-1.88494">
        <ele>69</ele>
        <time>2015-12-05T15:19:35Z</time>
      </trkpt>
      <trkpt lat="47.33954" lon="-1.88502">
        <ele>68</ele>
        <time>2015-12-05T15:19:36Z</time>
      </trkpt>
      <trkpt lat="47.33954" lon="-1.88511">
        <ele>68</ele>
        <time>2015-12-05T15:19:37Z</time>
      </trkpt>
      <trkpt lat="47.33955" lon="-1.88519">
        <ele>68</ele>
        <time>2015-12-05T15:19:38Z</time>
      </trkpt>
      <trkpt lat="47.33956" lon="-1.88527">
        <ele>68</ele>
        <time>2015-12-05T15:19:39Z</time>
      </trkpt>
      <trkpt lat="47.33959" lon="-1.8854">
        <ele>68</ele>
        <time>2015-12-05T15:19:40Z</time>
      </trkpt>
      <trkpt lat="47.3396" lon="-1.88548">
        <ele>68</ele>
        <time>2015-12-05T15:19:41Z</time>
      </trkpt>
      <trkpt lat="47.33961" lon="-1.88556">
        <ele>68</ele>
        <time>2015-12-05T15:19:42Z</time>
      </trkpt>
      <trkpt lat="47.33962" lon="-1.88564">
        <ele>68</ele>
        <time>2015-12-05T15:19:43Z</time>
      </trkpt>
      <trkpt lat="47.33963" lon="-1.88573">
        <ele>68</ele>
        <time>2015-12-05T15:19:44Z</time>
      </trkpt>
      <trkpt lat="47.33965" lon="-1.88582">
        <ele>68</ele>
        <time>2015-12-05T15:19:45Z</time>
      </trkpt>
      <trkpt lat="47.33966" lon="-1.88591">
        <ele>66</ele>
        <time>2015-12-05T15:19:46Z</time>
      </trkpt>
      <trkpt lat="47.33967" lon="-1.88599">
        <ele>66</ele>
        <time>2015-12-05T15:19:47Z</time>
      </trkpt>
      <trkpt lat="47.33968" lon="-1.88608">
        <ele>66</ele>
        <time>2015-12-05T15:19:48Z</time>
      </trkpt>
      <trkpt lat="47.33969" lon="-1.88615">
        <ele>66</ele>
        <time>2015-12-05T15:19:49Z</time>
      </trkpt>
      <trkpt lat="47.3397" lon="-1.88624">
        <ele>66</ele>
        <time>2015-12-05T15:19:50Z</time>
      </trkpt>
      <trkpt lat="47.33971" lon="-1.88634">
        <ele>66</ele>
        <time>2015-12-05T15:19:51Z</time>
      </trkpt>
      <trkpt lat="47.3397" lon="-1.88644">
        <ele>66</ele>
        <time>2015-12-05T15:19:52Z</time>
      </trkpt>
      <trkpt lat="47.33972" lon="-1.88652">
        <ele>65</ele>
        <time>2015-12-05T15:19:53Z</time>
      </trkpt>
      <trkpt lat="47.33973" lon="-1.88661">
        <ele>65</ele>
        <time>2015-12-05T15:19:54Z</time>
      </trkpt>
      <trkpt lat="47.33974" lon="-1.88671">
        <ele>65</ele>
        <time>2015-12-05T15:19:55Z</time>
      </trkpt>
      <trkpt lat="47.33975" lon="-1.8868">
        <ele>65</ele>
        <time>2015-12-05T15:19:56Z</time>
      </trkpt>
      <trkpt lat="47.33976" lon="-1.88691">
        <ele>65</ele>
        <time>2015-12-05T15:19:57Z</time>
      </trkpt>
      <trkpt lat="47.33978" lon="-1.88699">
        <ele>65</ele>
        <time>2015-12-05T15:19:58Z</time>
      </trkpt>
      <trkpt lat="47.33979" lon="-1.88709">
        <ele>64</ele>
        <time>2015-12-05T15:19:59Z</time>
      </trkpt>
      <trkpt lat="47.33981" lon="-1.88719">
        <ele>64</ele>
        <time>2015-12-05T15:20:00Z</time>
      </trkpt>
      <trkpt lat="47.33982" lon="-1.88728">
        <ele>64</ele>
        <time>2015-12-05T15:20:01Z</time>
      </trkpt>
      <trkpt lat="47.33982" lon="-1.88734">
        <ele>64</ele>
        <time>2015-12-05T15:20:02Z</time>
      </trkpt>
      <trkpt lat="47.33984" lon="-1.88743">
        <ele>64</ele>
        <time>2015-12-05T15:20:03Z</time>
      </trkpt>
      <trkpt lat="47.33985" lon="-1.88752">
        <ele>64</ele>
        <time>2015-12-05T15:20:04Z</time>
      </trkpt>
      <trkpt lat="47.33986" lon="-1.8876">
        <ele>64</ele>
        <time>2015-12-05T15:20:05Z</time>
      </trkpt>
      <trkpt lat="47.33987" lon="-1.88769">
        <ele>63</ele>
        <time>2015-12-05T15:20:06Z</time>
      </trkpt>
      <trkpt lat="47.33988" lon="-1.88779">
        <ele>63</ele>
        <time>2015-12-05T15:20:07Z</time>
      </trkpt>
      <trkpt lat="47.33988" lon="-1.88792">
        <ele>63</ele>
        <time>2015-12-05T15:20:08Z</time>
      </trkpt>
      <trkpt lat="47.33989" lon="-1.88803">
        <ele>63</ele>
        <time>2015-12-05T15:20:09Z</time>
      </trkpt>
      <trkpt lat="47.33991" lon="-1.88811">
        <ele>62</ele>
        <time>2015-12-05T15:20:10Z</time>
      </trkpt>
      <trkpt lat="47.33992" lon="-1.88821">
        <ele>62</ele>
        <time>2015-12-05T15:20:11Z</time>
      </trkpt>
      <trkpt lat="47.33993" lon="-1.8883">
        <ele>62</ele>
        <time>2015-12-05T15:20:12Z</time>
      </trkpt>
      <trkpt lat="47.33988" lon="-1.88841">
        <ele>61</ele>
        <time>2015-12-05T15:20:13Z</time>
      </trkpt>
      <trkpt lat="47.33986" lon="-1.8885">
        <ele>60</ele>
        <time>2015-12-05T15:20:14Z</time>
      </trkpt>
      <trkpt lat="47.33983" lon="-1.88859">
        <ele>60</ele>
        <time>2015-12-05T15:20:15Z</time>
      </trkpt>
      <trkpt lat="47.33974" lon="-1.88859">
        <ele>60</ele>
        <time>2015-12-05T15:20:16Z</time>
      </trkpt>
      <trkpt lat="47.33968" lon="-1.88864">
        <ele>60</ele>
        <time>2015-12-05T15:20:17Z</time>
      </trkpt>
      <trkpt lat="47.33961" lon="-1.8887">
        <ele>60</ele>
        <time>2015-12-05T15:20:18Z</time>
      </trkpt>
      <trkpt lat="47.33956" lon="-1.88877">
        <ele>60</ele>
        <time>2015-12-05T15:20:19Z</time>
      </trkpt>
      <trkpt lat="47.33952" lon="-1.88887">
        <ele>60</ele>
        <time>2015-12-05T15:20:20Z</time>
      </trkpt>
      <trkpt lat="47.33948" lon="-1.88896">
        <ele>60</ele>
        <time>2015-12-05T15:20:21Z</time>
      </trkpt>
      <trkpt lat="47.33943" lon="-1.88905">
        <ele>60</ele>
        <time>2015-12-05T15:20:22Z</time>
      </trkpt>
      <trkpt lat="47.33939" lon="-1.88914">
        <ele>60</ele>
        <time>2015-12-05T15:20:23Z</time>
      </trkpt>
      <trkpt lat="47.33934" lon="-1.88922">
        <ele>59</ele>
        <time>2015-12-05T15:20:24Z</time>
      </trkpt>
      <trkpt lat="47.33929" lon="-1.88929">
        <ele>59</ele>
        <time>2015-12-05T15:20:25Z</time>
      </trkpt>
      <trkpt lat="47.33924" lon="-1.88937">
        <ele>59</ele>
        <time>2015-12-05T15:20:26Z</time>
      </trkpt>
      <trkpt lat="47.33917" lon="-1.88943">
        <ele>59</ele>
        <time>2015-12-05T15:20:27Z</time>
      </trkpt>
      <trkpt lat="47.33912" lon="-1.88948">
        <ele>60</ele>
        <time>2015-12-05T15:20:28Z</time>
      </trkpt>
      <trkpt lat="47.33908" lon="-1.88955">
        <ele>60</ele>
        <time>2015-12-05T15:20:29Z</time>
      </trkpt>
      <trkpt lat="47.33903" lon="-1.88962">
        <ele>59</ele>
        <time>2015-12-05T15:20:30Z</time>
      </trkpt>
      <trkpt lat="47.33899" lon="-1.88971">
        <ele>59</ele>
        <time>2015-12-05T15:20:31Z</time>
      </trkpt>
      <trkpt lat="47.33895" lon="-1.88979">
        <ele>59</ele>
        <time>2015-12-05T15:20:32Z</time>
      </trkpt>
      <trkpt lat="47.33891" lon="-1.88987">
        <ele>59</ele>
        <time>2015-12-05T15:20:33Z</time>
      </trkpt>
      <trkpt lat="47.33892" lon="-1.88997">
        <ele>59</ele>
        <time>2015-12-05T15:20:34Z</time>
      </trkpt>
      <trkpt lat="47.3389" lon="-1.89008">
        <ele>59</ele>
        <time>2015-12-05T15:20:35Z</time>
      </trkpt>
      <trkpt lat="47.33888" lon="-1.89017">
        <ele>59</ele>
        <time>2015-12-05T15:20:36Z</time>
      </trkpt>
      <trkpt lat="47.33885" lon="-1.89025">
        <ele>59</ele>
        <time>2015-12-05T15:20:37Z</time>
      </trkpt>
      <trkpt lat="47.33883" lon="-1.89034">
        <ele>59</ele>
        <time>2015-12-05T15:20:38Z</time>
      </trkpt>
      <trkpt lat="47.33879" lon="-1.89042">
        <ele>59</ele>
        <time>2015-12-05T15:20:39Z</time>
      </trkpt>
      <trkpt lat="47.33875" lon="-1.89048">
        <ele>59</ele>
        <time>2015-12-05T15:20:40Z</time>
      </trkpt>
      <trkpt lat="47.33871" lon="-1.89055">
        <ele>59</ele>
        <time>2015-12-05T15:20:41Z</time>
      </trkpt>
      <trkpt lat="47.33866" lon="-1.89057">
        <ele>59</ele>
        <time>2015-12-05T15:20:42Z</time>
      </trkpt>
      <trkpt lat="47.33862" lon="-1.89062">
        <ele>59</ele>
        <time>2015-12-05T15:20:43Z</time>
      </trkpt>
      <trkpt lat="47.33857" lon="-1.89066">
        <ele>59</ele>
        <time>2015-12-05T15:20:44Z</time>
      </trkpt>
      <trkpt lat="47.33854" lon="-1.89066">
        <ele>59</ele>
        <time>2015-12-05T15:20:45Z</time>
      </trkpt>
      <trkpt lat="47.33852" lon="-1.89069">
        <ele>59</ele>
        <time>2015-12-05T15:20:46Z</time>
      </trkpt>
      <trkpt lat="47.33849" lon="-1.89076">
        <ele>59</ele>
        <time>2015-12-05T15:20:48Z</time>
      </trkpt>
      <trkpt lat="47.33848" lon="-1.8908">
        <ele>59</ele>
        <time>2015-12-05T15:20:49Z</time>
      </trkpt>
      <trkpt lat="47.3385" lon="-1.89084">
        <ele>60</ele>
        <time>2015-12-05T15:20:51Z</time>
      </trkpt>
      <trkpt lat="47.33851" lon="-1.89089">
        <ele>60</ele>
        <time>2015-12-05T15:20:52Z</time>
      </trkpt>
      <trkpt lat="47.33851" lon="-1.89094">
        <ele>60</ele>
        <time>2015-12-05T15:20:53Z</time>
      </trkpt>
      <trkpt lat="47.33854" lon="-1.89098">
        <ele>60</ele>
        <time>2015-12-05T15:20:54Z</time>
      </trkpt>
      <trkpt lat="47.33854" lon="-1.89103">
        <ele>60</ele>
        <time>2015-12-05T15:20:55Z</time>
      </trkpt>
      <trkpt lat="47.33854" lon="-1.89108">
        <ele>60</ele>
        <time>2015-12-05T15:20:56Z</time>
      </trkpt>
      <trkpt lat="47.33854" lon="-1.89112">
        <ele>60</ele>
        <time>2015-12-05T15:20:57Z</time>
      </trkpt>
      <trkpt lat="47.33854" lon="-1.89119">
        <ele>60</ele>
        <time>2015-12-05T15:20:58Z</time>
      </trkpt>
      <trkpt lat="47.33855" lon="-1.89125">
        <ele>60</ele>
        <time>2015-12-05T15:20:59Z</time>
      </trkpt>
      <trkpt lat="47.33858" lon="-1.89129">
        <ele>60</ele>
        <time>2015-12-05T15:21:00Z</time>
      </trkpt>
      <trkpt lat="47.3386" lon="-1.89135">
        <ele>60</ele>
        <time>2015-12-05T15:21:02Z</time>
      </trkpt>
      <trkpt lat="47.33858" lon="-1.89149">
        <ele>60</ele>
        <time>2015-12-05T15:21:04Z</time>
      </trkpt>
      <trkpt lat="47.33859" lon="-1.89154">
        <ele>60</ele>
        <time>2015-12-05T15:21:05Z</time>
      </trkpt>
      <trkpt lat="47.33859" lon="-1.89164">
        <ele>60</ele>
        <time>2015-12-05T15:21:07Z</time>
      </trkpt>
      <trkpt lat="47.33858" lon="-1.89169">
        <ele>60</ele>
        <time>2015-12-05T15:21:08Z</time>
      </trkpt>
      <trkpt lat="47.33857" lon="-1.89174">
        <ele>60</ele>
        <time>2015-12-05T15:21:09Z</time>
      </trkpt>
      <trkpt lat="47.33859" lon="-1.89181">
        <ele>60</ele>
        <time>2015-12-05T15:21:10Z</time>
      </trkpt>
      <trkpt lat="47.33858" lon="-1.89188">
        <ele>60</ele>
        <time>2015-12-05T15:21:11Z</time>
      </trkpt>
      <trkpt lat="47.33855" lon="-1.89194">
        <ele>60</ele>
        <time>2015-12-05T15:21:12Z</time>
      </trkpt>
      <trkpt lat="47.33854" lon="-1.89197">
        <ele>60</ele>
        <time>2015-12-05T15:21:13Z</time>
      </trkpt>
      <trkpt lat="47.33852" lon="-1.892">
        <ele>59</ele>
        <time>2015-12-05T15:21:14Z</time>
      </trkpt>
      <trkpt lat="47.33849" lon="-1.89204">
        <ele>59</ele>
        <time>2015-12-05T15:21:15Z</time>
      </trkpt>
      <trkpt lat="47.33852" lon="-1.89213">
        <ele>59</ele>
        <time>2015-12-05T15:21:16Z</time>
      </trkpt>
      <trkpt lat="47.33855" lon="-1.89222">
        <ele>59</ele>
        <time>2015-12-05T15:21:17Z</time>
      </trkpt>
      <trkpt lat="47.33857" lon="-1.89229">
        <ele>59</ele>
        <time>2015-12-05T15:21:18Z</time>
      </trkpt>
      <trkpt lat="47.33858" lon="-1.89236">
        <ele>59</ele>
        <time>2015-12-05T15:21:19Z</time>
      </trkpt>
      <trkpt lat="47.33838" lon="-1.89242">
        <ele>58</ele>
        <time>2015-12-05T15:21:21Z</time>
      </trkpt>
      <trkpt lat="47.33829" lon="-1.89245">
        <ele>57</ele>
        <time>2015-12-05T15:21:22Z</time>
      </trkpt>
      <trkpt lat="47.33822" lon="-1.89247">
        <ele>57</ele>
        <time>2015-12-05T15:21:23Z</time>
      </trkpt>
      <trkpt lat="47.33814" lon="-1.8925">
        <ele>55</ele>
        <time>2015-12-05T15:21:24Z</time>
      </trkpt>
      <trkpt lat="47.33808" lon="-1.89256">
        <ele>55</ele>
        <time>2015-12-05T15:21:25Z</time>
      </trkpt>
      <trkpt lat="47.33803" lon="-1.89264">
        <ele>55</ele>
        <time>2015-12-05T15:21:26Z</time>
      </trkpt>
      <trkpt lat="47.33797" lon="-1.89266">
        <ele>54</ele>
        <time>2015-12-05T15:21:27Z</time>
      </trkpt>
      <trkpt lat="47.33796" lon="-1.89276">
        <ele>54</ele>
        <time>2015-12-05T15:21:28Z</time>
      </trkpt>
      <trkpt lat="47.33795" lon="-1.89284">
        <ele>54</ele>
        <time>2015-12-05T15:21:29Z</time>
      </trkpt>
      <trkpt lat="47.33796" lon="-1.89288">
        <ele>54</ele>
        <time>2015-12-05T15:21:31Z</time>
      </trkpt>
      <trkpt lat="47.33796" lon="-1.89295">
        <ele>54</ele>
        <time>2015-12-05T15:21:33Z</time>
      </trkpt>
      <trkpt lat="47.33797" lon="-1.89299">
        <ele>54</ele>
        <time>2015-12-05T15:21:34Z</time>
      </trkpt>
      <trkpt lat="47.33795" lon="-1.89305">
        <ele>54</ele>
        <time>2015-12-05T15:21:35Z</time>
      </trkpt>
      <trkpt lat="47.3379" lon="-1.89308">
        <ele>54</ele>
        <time>2015-12-05T15:21:36Z</time>
      </trkpt>
      <trkpt lat="47.33788" lon="-1.89311">
        <ele>54</ele>
        <time>2015-12-05T15:21:37Z</time>
      </trkpt>
      <trkpt lat="47.33779" lon="-1.89311">
        <ele>53</ele>
        <time>2015-12-05T15:21:38Z</time>
      </trkpt>
      <trkpt lat="47.33773" lon="-1.89316">
        <ele>53</ele>
        <time>2015-12-05T15:21:39Z</time>
      </trkpt>
      <trkpt lat="47.33767" lon="-1.89319">
        <ele>52</ele>
        <time>2015-12-05T15:21:40Z</time>
      </trkpt>
      <trkpt lat="47.33761" lon="-1.89322">
        <ele>52</ele>
        <time>2015-12-05T15:21:41Z</time>
      </trkpt>
      <trkpt lat="47.33757" lon="-1.89324">
        <ele>52</ele>
        <time>2015-12-05T15:21:42Z</time>
      </trkpt>
      <trkpt lat="47.33751" lon="-1.89325">
        <ele>51</ele>
        <time>2015-12-05T15:21:43Z</time>
      </trkpt>
      <trkpt lat="47.33745" lon="-1.89325">
        <ele>50</ele>
        <time>2015-12-05T15:21:44Z</time>
      </trkpt>
      <trkpt lat="47.33739" lon="-1.89326">
        <ele>50</ele>
        <time>2015-12-05T15:21:45Z</time>
      </trkpt>
      <trkpt lat="47.33744" lon="-1.89328">
        <ele>50</ele>
        <time>2015-12-05T15:21:46Z</time>
      </trkpt>
      <trkpt lat="47.33742" lon="-1.89329">
        <ele>50</ele>
        <time>2015-12-05T15:21:47Z</time>
      </trkpt>
      <trkpt lat="47.3374" lon="-1.89333">
        <ele>49</ele>
        <time>2015-12-05T15:21:49Z</time>
      </trkpt>
      <trkpt lat="47.33739" lon="-1.89338">
        <ele>48</ele>
        <time>2015-12-05T15:21:51Z</time>
      </trkpt>
      <trkpt lat="47.33735" lon="-1.89342">
        <ele>48</ele>
        <time>2015-12-05T15:21:52Z</time>
      </trkpt>
      <trkpt lat="47.33734" lon="-1.89351">
        <ele>47</ele>
        <time>2015-12-05T15:21:54Z</time>
      </trkpt>
      <trkpt lat="47.33734" lon="-1.89356">
        <ele>47</ele>
        <time>2015-12-05T15:21:55Z</time>
      </trkpt>
      <trkpt lat="47.33734" lon="-1.89361">
        <ele>47</ele>
        <time>2015-12-05T15:21:57Z</time>
      </trkpt>
      <trkpt lat="47.33731" lon="-1.89367">
        <ele>46</ele>
        <time>2015-12-05T15:21:59Z</time>
      </trkpt>
      <trkpt lat="47.3373" lon="-1.89372">
        <ele>46</ele>
        <time>2015-12-05T15:22:01Z</time>
      </trkpt>
      <trkpt lat="47.33728" lon="-1.89379">
        <ele>46</ele>
        <time>2015-12-05T15:22:02Z</time>
      </trkpt>
      <trkpt lat="47.3373" lon="-1.89384">
        <ele>46</ele>
        <time>2015-12-05T15:22:03Z</time>
      </trkpt>
      <trkpt lat="47.33725" lon="-1.89392">
        <ele>46</ele>
        <time>2015-12-05T15:22:05Z</time>
      </trkpt>
      <trkpt lat="47.33725" lon="-1.89397">
        <ele>45</ele>
        <time>2015-12-05T15:22:06Z</time>
      </trkpt>
      <trkpt lat="47.33725" lon="-1.89404">
        <ele>45</ele>
        <time>2015-12-05T15:22:08Z</time>
      </trkpt>
      <trkpt lat="47.33722" lon="-1.8941">
        <ele>45</ele>
        <time>2015-12-05T15:22:10Z</time>
      </trkpt>
      <trkpt lat="47.33721" lon="-1.89413">
        <ele>45</ele>
        <time>2015-12-05T15:22:11Z</time>
      </trkpt>
      <trkpt lat="47.33719" lon="-1.89419">
        <ele>44</ele>
        <time>2015-12-05T15:22:13Z</time>
      </trkpt>
      <trkpt lat="47.33716" lon="-1.8942">
        <ele>43</ele>
        <time>2015-12-05T15:22:14Z</time>
      </trkpt>
      <trkpt lat="47.33713" lon="-1.8942">
        <ele>43</ele>
        <time>2015-12-05T15:22:15Z</time>
      </trkpt>
      <trkpt lat="47.3371" lon="-1.89421">
        <ele>43</ele>
        <time>2015-12-05T15:22:16Z</time>
      </trkpt>
      <trkpt lat="47.33702" lon="-1.89419">
        <ele>43</ele>
        <time>2015-12-05T15:22:17Z</time>
      </trkpt>
      <trkpt lat="47.33697" lon="-1.89418">
        <ele>42</ele>
        <time>2015-12-05T15:22:18Z</time>
      </trkpt>
      <trkpt lat="47.33692" lon="-1.89417">
        <ele>42</ele>
        <time>2015-12-05T15:22:19Z</time>
      </trkpt>
      <trkpt lat="47.33691" lon="-1.89424">
        <ele>42</ele>
        <time>2015-12-05T15:22:20Z</time>
      </trkpt>
      <trkpt lat="47.33689" lon="-1.89429">
        <ele>42</ele>
        <time>2015-12-05T15:22:21Z</time>
      </trkpt>
      <trkpt lat="47.33688" lon="-1.89433">
        <ele>42</ele>
        <time>2015-12-05T15:22:23Z</time>
      </trkpt>
      <trkpt lat="47.33686" lon="-1.89439">
        <ele>42</ele>
        <time>2015-12-05T15:22:25Z</time>
      </trkpt>
      <trkpt lat="47.3369" lon="-1.89434">
        <ele>42</ele>
        <time>2015-12-05T15:22:26Z</time>
      </trkpt>
      <trkpt lat="47.3369" lon="-1.89438">
        <ele>42</ele>
        <time>2015-12-05T15:22:29Z</time>
      </trkpt>
      <trkpt lat="47.33687" lon="-1.89438">
        <ele>42</ele>
        <time>2015-12-05T15:22:42Z</time>
      </trkpt>
      <trkpt lat="47.33684" lon="-1.8944">
        <ele>42</ele>
        <time>2015-12-05T15:22:48Z</time>
      </trkpt>
      <trkpt lat="47.33682" lon="-1.89443">
        <ele>42</ele>
        <time>2015-12-05T15:23:04Z</time>
      </trkpt>
      <trkpt lat="47.33673" lon="-1.89452">
        <ele>42</ele>
        <time>2015-12-05T15:23:44Z</time>
      </trkpt>
      <trkpt lat="47.3367" lon="-1.89455">
        <ele>42</ele>
        <time>2015-12-05T15:23:47Z</time>
      </trkpt>
      <trkpt lat="47.33669" lon="-1.89461">
        <ele>42</ele>
        <time>2015-12-05T15:23:52Z</time>
      </trkpt>
      <trkpt lat="47.3367" lon="-1.89465">
        <ele>42</ele>
        <time>2015-12-05T15:23:57Z</time>
      </trkpt>
      <trkpt lat="47.3367" lon="-1.8948">
        <ele>42</ele>
        <time>2015-12-05T15:24:08Z</time>
      </trkpt>
      <trkpt lat="47.3367" lon="-1.89484">
        <ele>42</ele>
        <time>2015-12-05T15:24:10Z</time>
      </trkpt>
      <trkpt lat="47.33671" lon="-1.89489">
        <ele>42</ele>
        <time>2015-12-05T15:24:12Z</time>
      </trkpt>
      <trkpt lat="47.33667" lon="-1.89492">
        <ele>42</ele>
        <time>2015-12-05T15:24:15Z</time>
      </trkpt>
      <trkpt lat="47.33662" lon="-1.89494">
        <ele>40</ele>
        <time>2015-12-05T15:24:18Z</time>
      </trkpt>
      <trkpt lat="47.33658" lon="-1.89496">
        <ele>40</ele>
        <time>2015-12-05T15:24:20Z</time>
      </trkpt>
      <trkpt lat="47.33652" lon="-1.89499">
        <ele>39</ele>
        <time>2015-12-05T15:24:22Z</time>
      </trkpt>
      <trkpt lat="47.33649" lon="-1.89501">
        <ele>39</ele>
        <time>2015-12-05T15:24:26Z</time>
      </trkpt>
      <trkpt lat="47.33645" lon="-1.89507">
        <ele>39</ele>
        <time>2015-12-05T15:24:41Z</time>
      </trkpt>
      <trkpt lat="47.33646" lon="-1.89514">
        <ele>38</ele>
        <time>2015-12-05T15:24:43Z</time>
      </trkpt>
      <trkpt lat="47.33646" lon="-1.89519">
        <ele>38</ele>
        <time>2015-12-05T15:24:45Z</time>
      </trkpt>
      <trkpt lat="47.33646" lon="-1.89524">
        <ele>38</ele>
        <time>2015-12-05T15:24:47Z</time>
      </trkpt>
      <trkpt lat="47.33646" lon="-1.89532">
        <ele>38</ele>
        <time>2015-12-05T15:24:50Z</time>
      </trkpt>
      <trkpt lat="47.33647" lon="-1.89536">
        <ele>38</ele>
        <time>2015-12-05T15:24:52Z</time>
      </trkpt>
      <trkpt lat="47.33648" lon="-1.89542">
        <ele>38</ele>
        <time>2015-12-05T15:24:54Z</time>
      </trkpt>
      <trkpt lat="47.3365" lon="-1.89547">
        <ele>39</ele>
        <time>2015-12-05T15:24:56Z</time>
      </trkpt>
      <trkpt lat="47.33651" lon="-1.89554">
        <ele>39</ele>
        <time>2015-12-05T15:24:58Z</time>
      </trkpt>
      <trkpt lat="47.33654" lon="-1.89562">
        <ele>39</ele>
        <time>2015-12-05T15:25:00Z</time>
      </trkpt>
      <trkpt lat="47.33656" lon="-1.89572">
        <ele>40</ele>
        <time>2015-12-05T15:25:03Z</time>
      </trkpt>
      <trkpt lat="47.33657" lon="-1.89577">
        <ele>41</ele>
        <time>2015-12-05T15:25:04Z</time>
      </trkpt>
      <trkpt lat="47.33659" lon="-1.89585">
        <ele>42</ele>
        <time>2015-12-05T15:25:06Z</time>
      </trkpt>
      <trkpt lat="47.3366" lon="-1.8959">
        <ele>41</ele>
        <time>2015-12-05T15:25:07Z</time>
      </trkpt>
      <trkpt lat="47.33661" lon="-1.89596">
        <ele>41</ele>
        <time>2015-12-05T15:25:08Z</time>
      </trkpt>
      <trkpt lat="47.33663" lon="-1.89604">
        <ele>40</ele>
        <time>2015-12-05T15:25:09Z</time>
      </trkpt>
      <trkpt lat="47.33665" lon="-1.89611">
        <ele>40</ele>
        <time>2015-12-05T15:25:10Z</time>
      </trkpt>
      <trkpt lat="47.33667" lon="-1.89618">
        <ele>45</ele>
        <time>2015-12-05T15:25:11Z</time>
      </trkpt>
      <trkpt lat="47.3367" lon="-1.89631">
        <ele>45</ele>
        <time>2015-12-05T15:25:13Z</time>
      </trkpt>
      <trkpt lat="47.33671" lon="-1.89638">
        <ele>45</ele>
        <time>2015-12-05T15:25:14Z</time>
      </trkpt>
      <trkpt lat="47.33672" lon="-1.89644">
        <ele>45</ele>
        <time>2015-12-05T15:25:15Z</time>
      </trkpt>
      <trkpt lat="47.33673" lon="-1.8965">
        <ele>44</ele>
        <time>2015-12-05T15:25:16Z</time>
      </trkpt>
      <trkpt lat="47.33674" lon="-1.89656">
        <ele>44</ele>
        <time>2015-12-05T15:25:17Z</time>
      </trkpt>
      <trkpt lat="47.33675" lon="-1.89662">
        <ele>44</ele>
        <time>2015-12-05T15:25:18Z</time>
      </trkpt>
      <trkpt lat="47.33676" lon="-1.89668">
        <ele>43</ele>
        <time>2015-12-05T15:25:19Z</time>
      </trkpt>
      <trkpt lat="47.33678" lon="-1.89674">
        <ele>43</ele>
        <time>2015-12-05T15:25:20Z</time>
      </trkpt>
      <trkpt lat="47.3368" lon="-1.8968">
        <ele>43</ele>
        <time>2015-12-05T15:25:21Z</time>
      </trkpt>
      <trkpt lat="47.33681" lon="-1.89685">
        <ele>44</ele>
        <time>2015-12-05T15:25:22Z</time>
      </trkpt>
      <trkpt lat="47.33682" lon="-1.89689">
        <ele>44</ele>
        <time>2015-12-05T15:25:23Z</time>
      </trkpt>
      <trkpt lat="47.33685" lon="-1.89695">
        <ele>44</ele>
        <time>2015-12-05T15:25:24Z</time>
      </trkpt>
      <trkpt lat="47.33688" lon="-1.89699">
        <ele>44</ele>
        <time>2015-12-05T15:25:25Z</time>
      </trkpt>
      <trkpt lat="47.33689" lon="-1.89703">
        <ele>44</ele>
        <time>2015-12-05T15:25:26Z</time>
      </trkpt>
      <trkpt lat="47.33694" lon="-1.89707">
        <ele>44</ele>
        <time>2015-12-05T15:25:27Z</time>
      </trkpt>
      <trkpt lat="47.33696" lon="-1.8971">
        <ele>44</ele>
        <time>2015-12-05T15:25:28Z</time>
      </trkpt>
      <trkpt lat="47.33699" lon="-1.89713">
        <ele>44</ele>
        <time>2015-12-05T15:25:29Z</time>
      </trkpt>
      <trkpt lat="47.33702" lon="-1.89717">
        <ele>44</ele>
        <time>2015-12-05T15:25:30Z</time>
      </trkpt>
      <trkpt lat="47.33705" lon="-1.89721">
        <ele>44</ele>
        <time>2015-12-05T15:25:31Z</time>
      </trkpt>
      <trkpt lat="47.33708" lon="-1.89723">
        <ele>44</ele>
        <time>2015-12-05T15:25:32Z</time>
      </trkpt>
      <trkpt lat="47.33711" lon="-1.89726">
        <ele>44</ele>
        <time>2015-12-05T15:25:33Z</time>
      </trkpt>
      <trkpt lat="47.33715" lon="-1.89728">
        <ele>44</ele>
        <time>2015-12-05T15:25:34Z</time>
      </trkpt>
      <trkpt lat="47.33719" lon="-1.8973">
        <ele>44</ele>
        <time>2015-12-05T15:25:35Z</time>
      </trkpt>
      <trkpt lat="47.33722" lon="-1.89731">
        <ele>45</ele>
        <time>2015-12-05T15:25:36Z</time>
      </trkpt>
      <trkpt lat="47.33725" lon="-1.89733">
        <ele>45</ele>
        <time>2015-12-05T15:25:37Z</time>
      </trkpt>
      <trkpt lat="47.33728" lon="-1.89734">
        <ele>45</ele>
        <time>2015-12-05T15:25:38Z</time>
      </trkpt>
      <trkpt lat="47.33731" lon="-1.89735">
        <ele>45</ele>
        <time>2015-12-05T15:25:39Z</time>
      </trkpt>
      <trkpt lat="47.33735" lon="-1.89735">
        <ele>45</ele>
        <time>2015-12-05T15:25:41Z</time>
      </trkpt>
      <trkpt lat="47.33739" lon="-1.89736">
        <ele>45</ele>
        <time>2015-12-05T15:25:43Z</time>
      </trkpt>
      <trkpt lat="47.33744" lon="-1.89736">
        <ele>45</ele>
        <time>2015-12-05T15:25:45Z</time>
      </trkpt>
      <trkpt lat="47.33746" lon="-1.89732">
        <ele>45</ele>
        <time>2015-12-05T15:25:46Z</time>
      </trkpt>
      <trkpt lat="47.3375" lon="-1.89729">
        <ele>45</ele>
        <time>2015-12-05T15:25:48Z</time>
      </trkpt>
      <trkpt lat="47.33753" lon="-1.89726">
        <ele>48</ele>
        <time>2015-12-05T15:25:49Z</time>
      </trkpt>
      <trkpt lat="47.33759" lon="-1.89724">
        <ele>48</ele>
        <time>2015-12-05T15:25:51Z</time>
      </trkpt>
      <trkpt lat="47.33764" lon="-1.89721">
        <ele>48</ele>
        <time>2015-12-05T15:25:53Z</time>
      </trkpt>
      <trkpt lat="47.33768" lon="-1.8972">
        <ele>48</ele>
        <time>2015-12-05T15:25:54Z</time>
      </trkpt>
      <trkpt lat="47.33771" lon="-1.89718">
        <ele>49</ele>
        <time>2015-12-05T15:25:55Z</time>
      </trkpt>
      <trkpt lat="47.33774" lon="-1.89716">
        <ele>49</ele>
        <time>2015-12-05T15:25:56Z</time>
      </trkpt>
      <trkpt lat="47.3378" lon="-1.89713">
        <ele>49</ele>
        <time>2015-12-05T15:25:58Z</time>
      </trkpt>
      <trkpt lat="47.33782" lon="-1.89711">
        <ele>49</ele>
        <time>2015-12-05T15:25:59Z</time>
      </trkpt>
      <trkpt lat="47.33785" lon="-1.89709">
        <ele>49</ele>
        <time>2015-12-05T15:26:00Z</time>
      </trkpt>
      <trkpt lat="47.33788" lon="-1.89707">
        <ele>49</ele>
        <time>2015-12-05T15:26:01Z</time>
      </trkpt>
      <trkpt lat="47.3379" lon="-1.89706">
        <ele>49</ele>
        <time>2015-12-05T15:26:02Z</time>
      </trkpt>
      <trkpt lat="47.33793" lon="-1.89703">
        <ele>49</ele>
        <time>2015-12-05T15:26:03Z</time>
      </trkpt>
      <trkpt lat="47.33797" lon="-1.89698">
        <ele>50</ele>
        <time>2015-12-05T15:26:05Z</time>
      </trkpt>
      <trkpt lat="47.338" lon="-1.89695">
        <ele>50</ele>
        <time>2015-12-05T15:26:23Z</time>
      </trkpt>
      <trkpt lat="47.33802" lon="-1.89691">
        <ele>50</ele>
        <time>2015-12-05T15:27:31Z</time>
      </trkpt>
      <trkpt lat="47.33804" lon="-1.89684">
        <ele>50</ele>
        <time>2015-12-05T15:27:33Z</time>
      </trkpt>
      <trkpt lat="47.33806" lon="-1.89677">
        <ele>50</ele>
        <time>2015-12-05T15:27:35Z</time>
      </trkpt>
      <trkpt lat="47.33808" lon="-1.89673">
        <ele>50</ele>
        <time>2015-12-05T15:27:36Z</time>
      </trkpt>
      <trkpt lat="47.3381" lon="-1.89669">
        <ele>50</ele>
        <time>2015-12-05T15:27:37Z</time>
      </trkpt>
      <trkpt lat="47.33811" lon="-1.89666">
        <ele>52</ele>
        <time>2015-12-05T15:27:38Z</time>
      </trkpt>
      <trkpt lat="47.33813" lon="-1.89662">
        <ele>52</ele>
        <time>2015-12-05T15:27:39Z</time>
      </trkpt>
      <trkpt lat="47.33814" lon="-1.89658">
        <ele>52</ele>
        <time>2015-12-05T15:27:40Z</time>
      </trkpt>
      <trkpt lat="47.33817" lon="-1.89655">
        <ele>52</ele>
        <time>2015-12-05T15:27:41Z</time>
      </trkpt>
      <trkpt lat="47.33819" lon="-1.89652">
        <ele>52</ele>
        <time>2015-12-05T15:27:42Z</time>
      </trkpt>
      <trkpt lat="47.33821" lon="-1.89649">
        <ele>52</ele>
        <time>2015-12-05T15:27:43Z</time>
      </trkpt>
      <trkpt lat="47.33825" lon="-1.89647">
        <ele>52</ele>
        <time>2015-12-05T15:27:44Z</time>
      </trkpt>
      <trkpt lat="47.33827" lon="-1.89644">
        <ele>52</ele>
        <time>2015-12-05T15:27:45Z</time>
      </trkpt>
      <trkpt lat="47.33829" lon="-1.89642">
        <ele>52</ele>
        <time>2015-12-05T15:27:46Z</time>
      </trkpt>
      <trkpt lat="47.33834" lon="-1.89643">
        <ele>53</ele>
        <time>2015-12-05T15:27:47Z</time>
      </trkpt>
      <trkpt lat="47.33837" lon="-1.89643">
        <ele>53</ele>
        <time>2015-12-05T15:27:48Z</time>
      </trkpt>
      <trkpt lat="47.3384" lon="-1.89642">
        <ele>53</ele>
        <time>2015-12-05T15:27:49Z</time>
      </trkpt>
      <trkpt lat="47.33847" lon="-1.89641">
        <ele>53</ele>
        <time>2015-12-05T15:27:51Z</time>
      </trkpt>
      <trkpt lat="47.3385" lon="-1.8964">
        <ele>53</ele>
        <time>2015-12-05T15:27:52Z</time>
      </trkpt>
      <trkpt lat="47.33853" lon="-1.89638">
        <ele>53</ele>
        <time>2015-12-05T15:27:53Z</time>
      </trkpt>
      <trkpt lat="47.33857" lon="-1.89638">
        <ele>54</ele>
        <time>2015-12-05T15:27:54Z</time>
      </trkpt>
      <trkpt lat="47.3386" lon="-1.89638">
        <ele>54</ele>
        <time>2015-12-05T15:27:55Z</time>
      </trkpt>
      <trkpt lat="47.33865" lon="-1.89636">
        <ele>54</ele>
        <time>2015-12-05T15:27:57Z</time>
      </trkpt>
      <trkpt lat="47.3387" lon="-1.89633">
        <ele>54</ele>
        <time>2015-12-05T15:27:59Z</time>
      </trkpt>
      <trkpt lat="47.33873" lon="-1.89632">
        <ele>54</ele>
        <time>2015-12-05T15:28:00Z</time>
      </trkpt>
      <trkpt lat="47.33879" lon="-1.8963">
        <ele>54</ele>
        <time>2015-12-05T15:28:02Z</time>
      </trkpt>
      <trkpt lat="47.33884" lon="-1.89629">
        <ele>54</ele>
        <time>2015-12-05T15:28:04Z</time>
      </trkpt>
      <trkpt lat="47.33887" lon="-1.89628">
        <ele>54</ele>
        <time>2015-12-05T15:28:05Z</time>
      </trkpt>
      <trkpt lat="47.3389" lon="-1.89627">
        <ele>54</ele>
        <time>2015-12-05T15:28:06Z</time>
      </trkpt>
      <trkpt lat="47.33893" lon="-1.89627">
        <ele>54</ele>
        <time>2015-12-05T15:28:07Z</time>
      </trkpt>
      <trkpt lat="47.33897" lon="-1.89626">
        <ele>54</ele>
        <time>2015-12-05T15:28:08Z</time>
      </trkpt>
      <trkpt lat="47.339" lon="-1.89625">
        <ele>55</ele>
        <time>2015-12-05T15:28:09Z</time>
      </trkpt>
      <trkpt lat="47.33903" lon="-1.89624">
        <ele>55</ele>
        <time>2015-12-05T15:28:10Z</time>
      </trkpt>
      <trkpt lat="47.33907" lon="-1.89623">
        <ele>55</ele>
        <time>2015-12-05T15:28:11Z</time>
      </trkpt>
      <trkpt lat="47.33909" lon="-1.89622">
        <ele>55</ele>
        <time>2015-12-05T15:28:12Z</time>
      </trkpt>
      <trkpt lat="47.33913" lon="-1.89622">
        <ele>55</ele>
        <time>2015-12-05T15:28:13Z</time>
      </trkpt>
      <trkpt lat="47.33918" lon="-1.89621">
        <ele>57</ele>
        <time>2015-12-05T15:28:15Z</time>
      </trkpt>
      <trkpt lat="47.33921" lon="-1.8962">
        <ele>57</ele>
        <time>2015-12-05T15:28:16Z</time>
      </trkpt>
      <trkpt lat="47.33923" lon="-1.89619">
        <ele>57</ele>
        <time>2015-12-05T15:28:17Z</time>
      </trkpt>
      <trkpt lat="47.33927" lon="-1.89619">
        <ele>57</ele>
        <time>2015-12-05T15:28:18Z</time>
      </trkpt>
      <trkpt lat="47.3393" lon="-1.89617">
        <ele>57</ele>
        <time>2015-12-05T15:28:19Z</time>
      </trkpt>
      <trkpt lat="47.33934" lon="-1.89616">
        <ele>57</ele>
        <time>2015-12-05T15:28:20Z</time>
      </trkpt>
      <trkpt lat="47.33938" lon="-1.89614">
        <ele>57</ele>
        <time>2015-12-05T15:28:22Z</time>
      </trkpt>
      <trkpt lat="47.33943" lon="-1.89612">
        <ele>58</ele>
        <time>2015-12-05T15:28:23Z</time>
      </trkpt>
      <trkpt lat="47.33947" lon="-1.8961">
        <ele>58</ele>
        <time>2015-12-05T15:28:24Z</time>
      </trkpt>
      <trkpt lat="47.3395" lon="-1.89609">
        <ele>58</ele>
        <time>2015-12-05T15:28:25Z</time>
      </trkpt>
      <trkpt lat="47.33955" lon="-1.89607">
        <ele>58</ele>
        <time>2015-12-05T15:28:27Z</time>
      </trkpt>
      <trkpt lat="47.33959" lon="-1.89605">
        <ele>58</ele>
        <time>2015-12-05T15:28:29Z</time>
      </trkpt>
      <trkpt lat="47.33963" lon="-1.89603">
        <ele>58</ele>
        <time>2015-12-05T15:28:31Z</time>
      </trkpt>
      <trkpt lat="47.3397" lon="-1.89601">
        <ele>58</ele>
        <time>2015-12-05T15:28:33Z</time>
      </trkpt>
      <trkpt lat="47.33974" lon="-1.89601">
        <ele>58</ele>
        <time>2015-12-05T15:28:34Z</time>
      </trkpt>
      <trkpt lat="47.33977" lon="-1.89601">
        <ele>58</ele>
        <time>2015-12-05T15:28:35Z</time>
      </trkpt>
      <trkpt lat="47.33981" lon="-1.89602">
        <ele>58</ele>
        <time>2015-12-05T15:28:36Z</time>
      </trkpt>
      <trkpt lat="47.33985" lon="-1.89602">
        <ele>58</ele>
        <time>2015-12-05T15:28:38Z</time>
      </trkpt>
      <trkpt lat="47.33989" lon="-1.89602">
        <ele>59</ele>
        <time>2015-12-05T15:28:40Z</time>
      </trkpt>
      <trkpt lat="47.33992" lon="-1.89602">
        <ele>59</ele>
        <time>2015-12-05T15:28:42Z</time>
      </trkpt>
      <trkpt lat="47.33995" lon="-1.896">
        <ele>59</ele>
        <time>2015-12-05T15:28:44Z</time>
      </trkpt>
      <trkpt lat="47.33999" lon="-1.89602">
        <ele>59</ele>
        <time>2015-12-05T15:28:45Z</time>
      </trkpt>
      <trkpt lat="47.34002" lon="-1.89602">
        <ele>61</ele>
        <time>2015-12-05T15:28:46Z</time>
      </trkpt>
      <trkpt lat="47.34006" lon="-1.89602">
        <ele>61</ele>
        <time>2015-12-05T15:28:47Z</time>
      </trkpt>
      <trkpt lat="47.34009" lon="-1.89601">
        <ele>61</ele>
        <time>2015-12-05T15:28:48Z</time>
      </trkpt>
      <trkpt lat="47.34012" lon="-1.89599">
        <ele>61</ele>
        <time>2015-12-05T15:28:49Z</time>
      </trkpt>
      <trkpt lat="47.34016" lon="-1.89597">
        <ele>61</ele>
        <time>2015-12-05T15:28:50Z</time>
      </trkpt>
      <trkpt lat="47.34019" lon="-1.89596">
        <ele>61</ele>
        <time>2015-12-05T15:28:51Z</time>
      </trkpt>
      <trkpt lat="47.34023" lon="-1.89596">
        <ele>61</ele>
        <time>2015-12-05T15:28:52Z</time>
      </trkpt>
      <trkpt lat="47.34027" lon="-1.89596">
        <ele>61</ele>
        <time>2015-12-05T15:28:53Z</time>
      </trkpt>
      <trkpt lat="47.3403" lon="-1.89597">
        <ele>61</ele>
        <time>2015-12-05T15:28:54Z</time>
      </trkpt>
      <trkpt lat="47.34034" lon="-1.89597">
        <ele>61</ele>
        <time>2015-12-05T15:28:56Z</time>
      </trkpt>
      <trkpt lat="47.34038" lon="-1.89596">
        <ele>62</ele>
        <time>2015-12-05T15:28:58Z</time>
      </trkpt>
      <trkpt lat="47.34043" lon="-1.89596">
        <ele>62</ele>
        <time>2015-12-05T15:29:00Z</time>
      </trkpt>
      <trkpt lat="47.34047" lon="-1.89596">
        <ele>62</ele>
        <time>2015-12-05T15:29:02Z</time>
      </trkpt>
      <trkpt lat="47.34051" lon="-1.89595">
        <ele>62</ele>
        <time>2015-12-05T15:29:04Z</time>
      </trkpt>
      <trkpt lat="47.34054" lon="-1.89594">
        <ele>62</ele>
        <time>2015-12-05T15:29:06Z</time>
      </trkpt>
      <trkpt lat="47.34058" lon="-1.89594">
        <ele>62</ele>
        <time>2015-12-05T15:29:08Z</time>
      </trkpt>
      <trkpt lat="47.34062" lon="-1.89593">
        <ele>62</ele>
        <time>2015-12-05T15:29:10Z</time>
      </trkpt>
      <trkpt lat="47.34066" lon="-1.89591">
        <ele>62</ele>
        <time>2015-12-05T15:29:12Z</time>
      </trkpt>
      <trkpt lat="47.34071" lon="-1.89588">
        <ele>63</ele>
        <time>2015-12-05T15:29:14Z</time>
      </trkpt>
      <trkpt lat="47.34074" lon="-1.89586">
        <ele>63</ele>
        <time>2015-12-05T15:29:16Z</time>
      </trkpt>
      <trkpt lat="47.34077" lon="-1.89584">
        <ele>63</ele>
        <time>2015-12-05T15:29:17Z</time>
      </trkpt>
      <trkpt lat="47.3408" lon="-1.89582">
        <ele>63</ele>
        <time>2015-12-05T15:29:19Z</time>
      </trkpt>
      <trkpt lat="47.34085" lon="-1.89578">
        <ele>63</ele>
        <time>2015-12-05T15:29:22Z</time>
      </trkpt>
      <trkpt lat="47.34087" lon="-1.89574">
        <ele>63</ele>
        <time>2015-12-05T15:29:24Z</time>
      </trkpt>
      <trkpt lat="47.3409" lon="-1.89569">
        <ele>63</ele>
        <time>2015-12-05T15:29:26Z</time>
      </trkpt>
      <trkpt lat="47.34092" lon="-1.89564">
        <ele>63</ele>
        <time>2015-12-05T15:29:28Z</time>
      </trkpt>
      <trkpt lat="47.34095" lon="-1.89558">
        <ele>63</ele>
        <time>2015-12-05T15:29:30Z</time>
      </trkpt>
      <trkpt lat="47.341" lon="-1.89551">
        <ele>63</ele>
        <time>2015-12-05T15:29:33Z</time>
      </trkpt>
      <trkpt lat="47.34102" lon="-1.89548">
        <ele>63</ele>
        <time>2015-12-05T15:29:34Z</time>
      </trkpt>
      <trkpt lat="47.34107" lon="-1.89541">
        <ele>63</ele>
        <time>2015-12-05T15:29:36Z</time>
      </trkpt>
      <trkpt lat="47.34109" lon="-1.89538">
        <ele>63</ele>
        <time>2015-12-05T15:29:37Z</time>
      </trkpt>
      <trkpt lat="47.34116" lon="-1.89531">
        <ele>63</ele>
        <time>2015-12-05T15:29:39Z</time>
      </trkpt>
      <trkpt lat="47.34118" lon="-1.89529">
        <ele>63</ele>
        <time>2015-12-05T15:29:40Z</time>
      </trkpt>
      <trkpt lat="47.34121" lon="-1.89526">
        <ele>63</ele>
        <time>2015-12-05T15:29:41Z</time>
      </trkpt>
      <trkpt lat="47.34137" lon="-1.89509">
        <ele>62</ele>
        <time>2015-12-05T15:29:43Z</time>
      </trkpt>
      <trkpt lat="47.34142" lon="-1.89504">
        <ele>62</ele>
        <time>2015-12-05T15:29:44Z</time>
      </trkpt>
      <trkpt lat="47.34146" lon="-1.895">
        <ele>62</ele>
        <time>2015-12-05T15:29:45Z</time>
      </trkpt>
      <trkpt lat="47.34151" lon="-1.89495">
        <ele>62</ele>
        <time>2015-12-05T15:29:46Z</time>
      </trkpt>
      <trkpt lat="47.34156" lon="-1.8949">
        <ele>62</ele>
        <time>2015-12-05T15:29:47Z</time>
      </trkpt>
      <trkpt lat="47.3416" lon="-1.89484">
        <ele>62</ele>
        <time>2015-12-05T15:29:48Z</time>
      </trkpt>
      <trkpt lat="47.34167" lon="-1.89479">
        <ele>62</ele>
        <time>2015-12-05T15:29:49Z</time>
      </trkpt>
      <trkpt lat="47.34172" lon="-1.89473">
        <ele>61</ele>
        <time>2015-12-05T15:29:50Z</time>
      </trkpt>
      <trkpt lat="47.34177" lon="-1.89466">
        <ele>61</ele>
        <time>2015-12-05T15:29:51Z</time>
      </trkpt>
      <trkpt lat="47.34183" lon="-1.8946">
        <ele>61</ele>
        <time>2015-12-05T15:29:52Z</time>
      </trkpt>
      <trkpt lat="47.34189" lon="-1.89454">
        <ele>61</ele>
        <time>2015-12-05T15:29:53Z</time>
      </trkpt>
      <trkpt lat="47.34197" lon="-1.8945">
        <ele>61</ele>
        <time>2015-12-05T15:29:54Z</time>
      </trkpt>
      <trkpt lat="47.34203" lon="-1.89446">
        <ele>61</ele>
        <time>2015-12-05T15:29:55Z</time>
      </trkpt>
      <trkpt lat="47.34209" lon="-1.89438">
        <ele>61</ele>
        <time>2015-12-05T15:29:56Z</time>
      </trkpt>
      <trkpt lat="47.34214" lon="-1.89433">
        <ele>61</ele>
        <time>2015-12-05T15:29:57Z</time>
      </trkpt>
      <trkpt lat="47.34219" lon="-1.89428">
        <ele>61</ele>
        <time>2015-12-05T15:29:58Z</time>
      </trkpt>
      <trkpt lat="47.34224" lon="-1.89423">
        <ele>61</ele>
        <time>2015-12-05T15:29:59Z</time>
      </trkpt>
      <trkpt lat="47.3423" lon="-1.89416">
        <ele>61</ele>
        <time>2015-12-05T15:30:00Z</time>
      </trkpt>
      <trkpt lat="47.34235" lon="-1.89414">
        <ele>61</ele>
        <time>2015-12-05T15:30:01Z</time>
      </trkpt>
      <trkpt lat="47.34238" lon="-1.89409">
        <ele>61</ele>
        <time>2015-12-05T15:30:02Z</time>
      </trkpt>
      <trkpt lat="47.34243" lon="-1.89404">
        <ele>61</ele>
        <time>2015-12-05T15:30:03Z</time>
      </trkpt>
      <trkpt lat="47.34247" lon="-1.894">
        <ele>61</ele>
        <time>2015-12-05T15:30:04Z</time>
      </trkpt>
      <trkpt lat="47.34252" lon="-1.89396">
        <ele>61</ele>
        <time>2015-12-05T15:30:05Z</time>
      </trkpt>
      <trkpt lat="47.34253" lon="-1.89386">
        <ele>61</ele>
        <time>2015-12-05T15:30:06Z</time>
      </trkpt>
      <trkpt lat="47.34257" lon="-1.89382">
        <ele>61</ele>
        <time>2015-12-05T15:30:07Z</time>
      </trkpt>
      <trkpt lat="47.3426" lon="-1.89379">
        <ele>61</ele>
        <time>2015-12-05T15:30:08Z</time>
      </trkpt>
      <trkpt lat="47.34263" lon="-1.89375">
        <ele>62</ele>
        <time>2015-12-05T15:30:09Z</time>
      </trkpt>
      <trkpt lat="47.34267" lon="-1.89371">
        <ele>62</ele>
        <time>2015-12-05T15:30:10Z</time>
      </trkpt>
      <trkpt lat="47.34273" lon="-1.89365">
        <ele>62</ele>
        <time>2015-12-05T15:30:12Z</time>
      </trkpt>
      <trkpt lat="47.34278" lon="-1.89359">
        <ele>62</ele>
        <time>2015-12-05T15:30:13Z</time>
      </trkpt>
      <trkpt lat="47.34281" lon="-1.89355">
        <ele>62</ele>
        <time>2015-12-05T15:30:14Z</time>
      </trkpt>
      <trkpt lat="47.34285" lon="-1.8935">
        <ele>62</ele>
        <time>2015-12-05T15:30:15Z</time>
      </trkpt>
      <trkpt lat="47.3429" lon="-1.89345">
        <ele>62</ele>
        <time>2015-12-05T15:30:16Z</time>
      </trkpt>
      <trkpt lat="47.34294" lon="-1.89341">
        <ele>62</ele>
        <time>2015-12-05T15:30:17Z</time>
      </trkpt>
      <trkpt lat="47.34297" lon="-1.89336">
        <ele>62</ele>
        <time>2015-12-05T15:30:18Z</time>
      </trkpt>
      <trkpt lat="47.34302" lon="-1.89333">
        <ele>63</ele>
        <time>2015-12-05T15:30:19Z</time>
      </trkpt>
      <trkpt lat="47.34304" lon="-1.89326">
        <ele>63</ele>
        <time>2015-12-05T15:30:20Z</time>
      </trkpt>
      <trkpt lat="47.34308" lon="-1.89322">
        <ele>63</ele>
        <time>2015-12-05T15:30:21Z</time>
      </trkpt>
      <trkpt lat="47.34312" lon="-1.89318">
        <ele>63</ele>
        <time>2015-12-05T15:30:22Z</time>
      </trkpt>
      <trkpt lat="47.34315" lon="-1.89313">
        <ele>63</ele>
        <time>2015-12-05T15:30:23Z</time>
      </trkpt>
      <trkpt lat="47.34319" lon="-1.89309">
        <ele>63</ele>
        <time>2015-12-05T15:30:24Z</time>
      </trkpt>
      <trkpt lat="47.34323" lon="-1.89302">
        <ele>63</ele>
        <time>2015-12-05T15:30:25Z</time>
      </trkpt>
      <trkpt lat="47.34327" lon="-1.89297">
        <ele>63</ele>
        <time>2015-12-05T15:30:26Z</time>
      </trkpt>
      <trkpt lat="47.3433" lon="-1.89292">
        <ele>63</ele>
        <time>2015-12-05T15:30:27Z</time>
      </trkpt>
      <trkpt lat="47.34334" lon="-1.89285">
        <ele>64</ele>
        <time>2015-12-05T15:30:28Z</time>
      </trkpt>
      <trkpt lat="47.34339" lon="-1.8928">
        <ele>64</ele>
        <time>2015-12-05T15:30:29Z</time>
      </trkpt>
      <trkpt lat="47.34342" lon="-1.89276">
        <ele>64</ele>
        <time>2015-12-05T15:30:30Z</time>
      </trkpt>
      <trkpt lat="47.34346" lon="-1.89272">
        <ele>64</ele>
        <time>2015-12-05T15:30:31Z</time>
      </trkpt>
      <trkpt lat="47.34349" lon="-1.89267">
        <ele>64</ele>
        <time>2015-12-05T15:30:32Z</time>
      </trkpt>
      <trkpt lat="47.34354" lon="-1.89262">
        <ele>64</ele>
        <time>2015-12-05T15:30:33Z</time>
      </trkpt>
      <trkpt lat="47.34359" lon="-1.89257">
        <ele>65</ele>
        <time>2015-12-05T15:30:34Z</time>
      </trkpt>
      <trkpt lat="47.34363" lon="-1.89255">
        <ele>65</ele>
        <time>2015-12-05T15:30:35Z</time>
      </trkpt>
      <trkpt lat="47.34365" lon="-1.89248">
        <ele>65</ele>
        <time>2015-12-05T15:30:36Z</time>
      </trkpt>
      <trkpt lat="47.34369" lon="-1.89243">
        <ele>65</ele>
        <time>2015-12-05T15:30:37Z</time>
      </trkpt>
      <trkpt lat="47.34373" lon="-1.89238">
        <ele>65</ele>
        <time>2015-12-05T15:30:38Z</time>
      </trkpt>
      <trkpt lat="47.34377" lon="-1.89239">
        <ele>65</ele>
        <time>2015-12-05T15:30:39Z</time>
      </trkpt>
      <trkpt lat="47.34379" lon="-1.89232">
        <ele>65</ele>
        <time>2015-12-05T15:30:40Z</time>
      </trkpt>
      <trkpt lat="47.34382" lon="-1.89228">
        <ele>66</ele>
        <time>2015-12-05T15:30:41Z</time>
      </trkpt>
      <trkpt lat="47.34385" lon="-1.89223">
        <ele>66</ele>
        <time>2015-12-05T15:30:42Z</time>
      </trkpt>
      <trkpt lat="47.34389" lon="-1.89219">
        <ele>66</ele>
        <time>2015-12-05T15:30:43Z</time>
      </trkpt>
      <trkpt lat="47.34392" lon="-1.89215">
        <ele>66</ele>
        <time>2015-12-05T15:30:44Z</time>
      </trkpt>
      <trkpt lat="47.34394" lon="-1.8921">
        <ele>66</ele>
        <time>2015-12-05T15:30:45Z</time>
      </trkpt>
      <trkpt lat="47.34398" lon="-1.89212">
        <ele>66</ele>
        <time>2015-12-05T15:30:46Z</time>
      </trkpt>
      <trkpt lat="47.34401" lon="-1.89209">
        <ele>66</ele>
        <time>2015-12-05T15:30:47Z</time>
      </trkpt>
      <trkpt lat="47.34404" lon="-1.89207">
        <ele>66</ele>
        <time>2015-12-05T15:30:48Z</time>
      </trkpt>
      <trkpt lat="47.34408" lon="-1.892">
        <ele>66</ele>
        <time>2015-12-05T15:30:49Z</time>
      </trkpt>
      <trkpt lat="47.34411" lon="-1.89199">
        <ele>66</ele>
        <time>2015-12-05T15:30:50Z</time>
      </trkpt>
      <trkpt lat="47.34415" lon="-1.89196">
        <ele>66</ele>
        <time>2015-12-05T15:30:51Z</time>
      </trkpt>
      <trkpt lat="47.34418" lon="-1.89193">
        <ele>68</ele>
        <time>2015-12-05T15:30:52Z</time>
      </trkpt>
      <trkpt lat="47.34421" lon="-1.89189">
        <ele>68</ele>
        <time>2015-12-05T15:30:53Z</time>
      </trkpt>
      <trkpt lat="47.34424" lon="-1.89185">
        <ele>68</ele>
        <time>2015-12-05T15:30:54Z</time>
      </trkpt>
      <trkpt lat="47.34426" lon="-1.89178">
        <ele>68</ele>
        <time>2015-12-05T15:30:55Z</time>
      </trkpt>
      <trkpt lat="47.34429" lon="-1.89173">
        <ele>68</ele>
        <time>2015-12-05T15:30:56Z</time>
      </trkpt>
      <trkpt lat="47.34432" lon="-1.89169">
        <ele>68</ele>
        <time>2015-12-05T15:30:57Z</time>
      </trkpt>
      <trkpt lat="47.34434" lon="-1.89164">
        <ele>69</ele>
        <time>2015-12-05T15:30:58Z</time>
      </trkpt>
      <trkpt lat="47.34436" lon="-1.89158">
        <ele>69</ele>
        <time>2015-12-05T15:30:59Z</time>
      </trkpt>
      <trkpt lat="47.34438" lon="-1.89154">
        <ele>69</ele>
        <time>2015-12-05T15:31:00Z</time>
      </trkpt>
      <trkpt lat="47.3444" lon="-1.89148">
        <ele>69</ele>
        <time>2015-12-05T15:31:01Z</time>
      </trkpt>
      <trkpt lat="47.34442" lon="-1.89144">
        <ele>69</ele>
        <time>2015-12-05T15:31:02Z</time>
      </trkpt>
      <trkpt lat="47.34445" lon="-1.89139">
        <ele>69</ele>
        <time>2015-12-05T15:31:03Z</time>
      </trkpt>
      <trkpt lat="47.34448" lon="-1.89134">
        <ele>69</ele>
        <time>2015-12-05T15:31:04Z</time>
      </trkpt>
      <trkpt lat="47.34451" lon="-1.89131">
        <ele>69</ele>
        <time>2015-12-05T15:31:05Z</time>
      </trkpt>
      <trkpt lat="47.34454" lon="-1.89126">
        <ele>69</ele>
        <time>2015-12-05T15:31:06Z</time>
      </trkpt>
      <trkpt lat="47.34457" lon="-1.89122">
        <ele>69</ele>
        <time>2015-12-05T15:31:07Z</time>
      </trkpt>
      <trkpt lat="47.3446" lon="-1.8912">
        <ele>69</ele>
        <time>2015-12-05T15:31:08Z</time>
      </trkpt>
      <trkpt lat="47.34464" lon="-1.89118">
        <ele>69</ele>
        <time>2015-12-05T15:31:09Z</time>
      </trkpt>
      <trkpt lat="47.34468" lon="-1.89116">
        <ele>69</ele>
        <time>2015-12-05T15:31:10Z</time>
      </trkpt>
      <trkpt lat="47.34472" lon="-1.89114">
        <ele>69</ele>
        <time>2015-12-05T15:31:11Z</time>
      </trkpt>
      <trkpt lat="47.34476" lon="-1.89112">
        <ele>69</ele>
        <time>2015-12-05T15:31:12Z</time>
      </trkpt>
      <trkpt lat="47.34479" lon="-1.8911">
        <ele>69</ele>
        <time>2015-12-05T15:31:13Z</time>
      </trkpt>
      <trkpt lat="47.34483" lon="-1.89108">
        <ele>69</ele>
        <time>2015-12-05T15:31:14Z</time>
      </trkpt>
      <trkpt lat="47.34487" lon="-1.89107">
        <ele>69</ele>
        <time>2015-12-05T15:31:15Z</time>
      </trkpt>
      <trkpt lat="47.34491" lon="-1.89105">
        <ele>69</ele>
        <time>2015-12-05T15:31:16Z</time>
      </trkpt>
      <trkpt lat="47.34495" lon="-1.89104">
        <ele>69</ele>
        <time>2015-12-05T15:31:17Z</time>
      </trkpt>
      <trkpt lat="47.34498" lon="-1.89102">
        <ele>70</ele>
        <time>2015-12-05T15:31:18Z</time>
      </trkpt>
      <trkpt lat="47.34502" lon="-1.891">
        <ele>71</ele>
        <time>2015-12-05T15:31:19Z</time>
      </trkpt>
      <trkpt lat="47.34506" lon="-1.89099">
        <ele>71</ele>
        <time>2015-12-05T15:31:20Z</time>
      </trkpt>
      <trkpt lat="47.3451" lon="-1.89098">
        <ele>71</ele>
        <time>2015-12-05T15:31:21Z</time>
      </trkpt>
      <trkpt lat="47.34514" lon="-1.89096">
        <ele>71</ele>
        <time>2015-12-05T15:31:22Z</time>
      </trkpt>
      <trkpt lat="47.34518" lon="-1.89096">
        <ele>71</ele>
        <time>2015-12-05T15:31:23Z</time>
      </trkpt>
      <trkpt lat="47.34522" lon="-1.89096">
        <ele>71</ele>
        <time>2015-12-05T15:31:24Z</time>
      </trkpt>
      <trkpt lat="47.34526" lon="-1.89095">
        <ele>71</ele>
        <time>2015-12-05T15:31:25Z</time>
      </trkpt>
      <trkpt lat="47.3453" lon="-1.89094">
        <ele>71</ele>
        <time>2015-12-05T15:31:26Z</time>
      </trkpt>
      <trkpt lat="47.34534" lon="-1.89093">
        <ele>71</ele>
        <time>2015-12-05T15:31:27Z</time>
      </trkpt>
      <trkpt lat="47.34537" lon="-1.89092">
        <ele>71</ele>
        <time>2015-12-05T15:31:28Z</time>
      </trkpt>
      <trkpt lat="47.34541" lon="-1.89091">
        <ele>71</ele>
        <time>2015-12-05T15:31:29Z</time>
      </trkpt>
      <trkpt lat="47.34545" lon="-1.8909">
        <ele>71</ele>
        <time>2015-12-05T15:31:30Z</time>
      </trkpt>
      <trkpt lat="47.34548" lon="-1.8909">
        <ele>71</ele>
        <time>2015-12-05T15:31:31Z</time>
      </trkpt>
      <trkpt lat="47.34552" lon="-1.8909">
        <ele>71</ele>
        <time>2015-12-05T15:31:32Z</time>
      </trkpt>
      <trkpt lat="47.34556" lon="-1.89089">
        <ele>71</ele>
        <time>2015-12-05T15:31:33Z</time>
      </trkpt>
      <trkpt lat="47.3456" lon="-1.89087">
        <ele>71</ele>
        <time>2015-12-05T15:31:35Z</time>
      </trkpt>
      <trkpt lat="47.34564" lon="-1.89087">
        <ele>72</ele>
        <time>2015-12-05T15:31:36Z</time>
      </trkpt>
      <trkpt lat="47.34567" lon="-1.89086">
        <ele>72</ele>
        <time>2015-12-05T15:31:37Z</time>
      </trkpt>
      <trkpt lat="47.3457" lon="-1.89087">
        <ele>72</ele>
        <time>2015-12-05T15:31:38Z</time>
      </trkpt>
      <trkpt lat="47.34574" lon="-1.89087">
        <ele>72</ele>
        <time>2015-12-05T15:31:39Z</time>
      </trkpt>
      <trkpt lat="47.34578" lon="-1.89087">
        <ele>72</ele>
        <time>2015-12-05T15:31:40Z</time>
      </trkpt>
      <trkpt lat="47.34582" lon="-1.89088">
        <ele>72</ele>
        <time>2015-12-05T15:31:41Z</time>
      </trkpt>
      <trkpt lat="47.34585" lon="-1.89088">
        <ele>72</ele>
        <time>2015-12-05T15:31:42Z</time>
      </trkpt>
      <trkpt lat="47.34588" lon="-1.89087">
        <ele>72</ele>
        <time>2015-12-05T15:31:43Z</time>
      </trkpt>
      <trkpt lat="47.34591" lon="-1.89087">
        <ele>72</ele>
        <time>2015-12-05T15:31:44Z</time>
      </trkpt>
      <trkpt lat="47.34595" lon="-1.89087">
        <ele>73</ele>
        <time>2015-12-05T15:31:45Z</time>
      </trkpt>
      <trkpt lat="47.34599" lon="-1.89085">
        <ele>73</ele>
        <time>2015-12-05T15:31:47Z</time>
      </trkpt>
      <trkpt lat="47.34602" lon="-1.89084">
        <ele>73</ele>
        <time>2015-12-05T15:31:48Z</time>
      </trkpt>
      <trkpt lat="47.34604" lon="-1.89083">
        <ele>73</ele>
        <time>2015-12-05T15:31:49Z</time>
      </trkpt>
      <trkpt lat="47.34607" lon="-1.89083">
        <ele>73</ele>
        <time>2015-12-05T15:31:50Z</time>
      </trkpt>
      <trkpt lat="47.3461" lon="-1.89082">
        <ele>73</ele>
        <time>2015-12-05T15:31:51Z</time>
      </trkpt>
      <trkpt lat="47.34613" lon="-1.89081">
        <ele>73</ele>
        <time>2015-12-05T15:31:52Z</time>
      </trkpt>
      <trkpt lat="47.34616" lon="-1.89081">
        <ele>73</ele>
        <time>2015-12-05T15:31:53Z</time>
      </trkpt>
      <trkpt lat="47.34619" lon="-1.89081">
        <ele>73</ele>
        <time>2015-12-05T15:31:54Z</time>
      </trkpt>
      <trkpt lat="47.34622" lon="-1.8908">
        <ele>73</ele>
        <time>2015-12-05T15:31:55Z</time>
      </trkpt>
      <trkpt lat="47.34625" lon="-1.89079">
        <ele>73</ele>
        <time>2015-12-05T15:31:56Z</time>
      </trkpt>
      <trkpt lat="47.34629" lon="-1.89081">
        <ele>73</ele>
        <time>2015-12-05T15:31:57Z</time>
      </trkpt>
      <trkpt lat="47.34631" lon="-1.89081">
        <ele>73</ele>
        <time>2015-12-05T15:31:58Z</time>
      </trkpt>
      <trkpt lat="47.34634" lon="-1.89081">
        <ele>73</ele>
        <time>2015-12-05T15:31:59Z</time>
      </trkpt>
      <trkpt lat="47.34637" lon="-1.89082">
        <ele>73</ele>
        <time>2015-12-05T15:32:00Z</time>
      </trkpt>
      <trkpt lat="47.34643" lon="-1.8908">
        <ele>73</ele>
        <time>2015-12-05T15:32:02Z</time>
      </trkpt>
      <trkpt lat="47.3465" lon="-1.89077">
        <ele>73</ele>
        <time>2015-12-05T15:32:06Z</time>
      </trkpt>
      <trkpt lat="47.34653" lon="-1.89076">
        <ele>73</ele>
        <time>2015-12-05T15:32:09Z</time>
      </trkpt>
      <trkpt lat="47.34656" lon="-1.89074">
        <ele>73</ele>
        <time>2015-12-05T15:32:11Z</time>
      </trkpt>
      <trkpt lat="47.3466" lon="-1.89072">
        <ele>74</ele>
        <time>2015-12-05T15:32:12Z</time>
      </trkpt>
      <trkpt lat="47.34664" lon="-1.89073">
        <ele>74</ele>
        <time>2015-12-05T15:32:13Z</time>
      </trkpt>
      <trkpt lat="47.34668" lon="-1.89072">
        <ele>74</ele>
        <time>2015-12-05T15:32:14Z</time>
      </trkpt>
      <trkpt lat="47.34671" lon="-1.89071">
        <ele>74</ele>
        <time>2015-12-05T15:32:15Z</time>
      </trkpt>
      <trkpt lat="47.34675" lon="-1.89069">
        <ele>74</ele>
        <time>2015-12-05T15:32:16Z</time>
      </trkpt>
      <trkpt lat="47.34677" lon="-1.89067">
        <ele>74</ele>
        <time>2015-12-05T15:32:17Z</time>
      </trkpt>
      <trkpt lat="47.3468" lon="-1.89065">
        <ele>74</ele>
        <time>2015-12-05T15:32:18Z</time>
      </trkpt>
      <trkpt lat="47.34684" lon="-1.89065">
        <ele>74</ele>
        <time>2015-12-05T15:32:19Z</time>
      </trkpt>
      <trkpt lat="47.34687" lon="-1.89065">
        <ele>74</ele>
        <time>2015-12-05T15:32:20Z</time>
      </trkpt>
      <trkpt lat="47.3469" lon="-1.89064">
        <ele>74</ele>
        <time>2015-12-05T15:32:21Z</time>
      </trkpt>
      <trkpt lat="47.34694" lon="-1.89066">
        <ele>74</ele>
        <time>2015-12-05T15:32:22Z</time>
      </trkpt>
      <trkpt lat="47.34698" lon="-1.89066">
        <ele>75</ele>
        <time>2015-12-05T15:32:23Z</time>
      </trkpt>
      <trkpt lat="47.34701" lon="-1.89066">
        <ele>75</ele>
        <time>2015-12-05T15:32:24Z</time>
      </trkpt>
      <trkpt lat="47.34705" lon="-1.89066">
        <ele>75</ele>
        <time>2015-12-05T15:32:25Z</time>
      </trkpt>
      <trkpt lat="47.3471" lon="-1.89066">
        <ele>75</ele>
        <time>2015-12-05T15:32:26Z</time>
      </trkpt>
      <trkpt lat="47.34713" lon="-1.89066">
        <ele>75</ele>
        <time>2015-12-05T15:32:27Z</time>
      </trkpt>
      <trkpt lat="47.34716" lon="-1.89066">
        <ele>75</ele>
        <time>2015-12-05T15:32:28Z</time>
      </trkpt>
      <trkpt lat="47.34721" lon="-1.89068">
        <ele>75</ele>
        <time>2015-12-05T15:32:29Z</time>
      </trkpt>
      <trkpt lat="47.34725" lon="-1.89068">
        <ele>75</ele>
        <time>2015-12-05T15:32:30Z</time>
      </trkpt>
      <trkpt lat="47.34729" lon="-1.89068">
        <ele>75</ele>
        <time>2015-12-05T15:32:31Z</time>
      </trkpt>
      <trkpt lat="47.34732" lon="-1.89068">
        <ele>75</ele>
        <time>2015-12-05T15:32:32Z</time>
      </trkpt>
      <trkpt lat="47.34736" lon="-1.89068">
        <ele>75</ele>
        <time>2015-12-05T15:32:33Z</time>
      </trkpt>
      <trkpt lat="47.3474" lon="-1.89067">
        <ele>75</ele>
        <time>2015-12-05T15:32:34Z</time>
      </trkpt>
      <trkpt lat="47.34743" lon="-1.89067">
        <ele>75</ele>
        <time>2015-12-05T15:32:35Z</time>
      </trkpt>
      <trkpt lat="47.34747" lon="-1.89067">
        <ele>75</ele>
        <time>2015-12-05T15:32:36Z</time>
      </trkpt>
      <trkpt lat="47.3475" lon="-1.89066">
        <ele>76</ele>
        <time>2015-12-05T15:32:37Z</time>
      </trkpt>
      <trkpt lat="47.34753" lon="-1.89066">
        <ele>76</ele>
        <time>2015-12-05T15:32:38Z</time>
      </trkpt>
      <trkpt lat="47.34756" lon="-1.89065">
        <ele>76</ele>
        <time>2015-12-05T15:32:39Z</time>
      </trkpt>
      <trkpt lat="47.3476" lon="-1.89063">
        <ele>76</ele>
        <time>2015-12-05T15:32:40Z</time>
      </trkpt>
      <trkpt lat="47.34763" lon="-1.89062">
        <ele>76</ele>
        <time>2015-12-05T15:32:41Z</time>
      </trkpt>
      <trkpt lat="47.34766" lon="-1.89061">
        <ele>76</ele>
        <time>2015-12-05T15:32:42Z</time>
      </trkpt>
      <trkpt lat="47.34772" lon="-1.8906">
        <ele>77</ele>
        <time>2015-12-05T15:32:43Z</time>
      </trkpt>
      <trkpt lat="47.34775" lon="-1.89059">
        <ele>77</ele>
        <time>2015-12-05T15:32:44Z</time>
      </trkpt>
      <trkpt lat="47.34778" lon="-1.89059">
        <ele>77</ele>
        <time>2015-12-05T15:32:45Z</time>
      </trkpt>
      <trkpt lat="47.34783" lon="-1.89058">
        <ele>77</ele>
        <time>2015-12-05T15:32:46Z</time>
      </trkpt>
      <trkpt lat="47.34786" lon="-1.89057">
        <ele>77</ele>
        <time>2015-12-05T15:32:47Z</time>
      </trkpt>
      <trkpt lat="47.3479" lon="-1.89057">
        <ele>77</ele>
        <time>2015-12-05T15:32:48Z</time>
      </trkpt>
      <trkpt lat="47.34795" lon="-1.89058">
        <ele>77</ele>
        <time>2015-12-05T15:32:49Z</time>
      </trkpt>
      <trkpt lat="47.34799" lon="-1.89057">
        <ele>77</ele>
        <time>2015-12-05T15:32:50Z</time>
      </trkpt>
      <trkpt lat="47.34803" lon="-1.89057">
        <ele>77</ele>
        <time>2015-12-05T15:32:51Z</time>
      </trkpt>
      <trkpt lat="47.34806" lon="-1.89057">
        <ele>77</ele>
        <time>2015-12-05T15:32:52Z</time>
      </trkpt>
      <trkpt lat="47.34809" lon="-1.89056">
        <ele>77</ele>
        <time>2015-12-05T15:32:53Z</time>
      </trkpt>
      <trkpt lat="47.34812" lon="-1.89058">
        <ele>77</ele>
        <time>2015-12-05T15:32:54Z</time>
      </trkpt>
      <trkpt lat="47.34815" lon="-1.89058">
        <ele>77</ele>
        <time>2015-12-05T15:32:55Z</time>
      </trkpt>
      <trkpt lat="47.34818" lon="-1.89058">
        <ele>77</ele>
        <time>2015-12-05T15:32:56Z</time>
      </trkpt>
      <trkpt lat="47.34821" lon="-1.89064">
        <ele>78</ele>
        <time>2015-12-05T15:32:57Z</time>
      </trkpt>
      <trkpt lat="47.34824" lon="-1.8907">
        <ele>78</ele>
        <time>2015-12-05T15:32:59Z</time>
      </trkpt>
      <trkpt lat="47.34825" lon="-1.89077">
        <ele>78</ele>
        <time>2015-12-05T15:33:01Z</time>
      </trkpt>
      <trkpt lat="47.34827" lon="-1.89085">
        <ele>79</ele>
        <time>2015-12-05T15:33:03Z</time>
      </trkpt>
      <trkpt lat="47.34827" lon="-1.89092">
        <ele>79</ele>
        <time>2015-12-05T15:33:05Z</time>
      </trkpt>
      <trkpt lat="47.34828" lon="-1.89099">
        <ele>78</ele>
        <time>2015-12-05T15:33:06Z</time>
      </trkpt>
      <trkpt lat="47.34829" lon="-1.89106">
        <ele>78</ele>
        <time>2015-12-05T15:33:08Z</time>
      </trkpt>
      <trkpt lat="47.34829" lon="-1.89113">
        <ele>78</ele>
        <time>2015-12-05T15:33:09Z</time>
      </trkpt>
      <trkpt lat="47.34829" lon="-1.8912">
        <ele>78</ele>
        <time>2015-12-05T15:33:11Z</time>
      </trkpt>
      <trkpt lat="47.3483" lon="-1.89126">
        <ele>78</ele>
        <time>2015-12-05T15:33:12Z</time>
      </trkpt>
      <trkpt lat="47.3483" lon="-1.8913">
        <ele>78</ele>
        <time>2015-12-05T15:33:13Z</time>
      </trkpt>
      <trkpt lat="47.34831" lon="-1.89135">
        <ele>78</ele>
        <time>2015-12-05T15:33:14Z</time>
      </trkpt>
      <trkpt lat="47.34831" lon="-1.89142">
        <ele>79</ele>
        <time>2015-12-05T15:33:16Z</time>
      </trkpt>
      <trkpt lat="47.34831" lon="-1.89148">
        <ele>79</ele>
        <time>2015-12-05T15:33:17Z</time>
      </trkpt>
      <trkpt lat="47.34832" lon="-1.89153">
        <ele>79</ele>
        <time>2015-12-05T15:33:18Z</time>
      </trkpt>
      <trkpt lat="47.34832" lon="-1.89158">
        <ele>79</ele>
        <time>2015-12-05T15:33:19Z</time>
      </trkpt>
      <trkpt lat="47.34832" lon="-1.89165">
        <ele>80</ele>
        <time>2015-12-05T15:33:21Z</time>
      </trkpt>
      <trkpt lat="47.34832" lon="-1.89173">
        <ele>80</ele>
        <time>2015-12-05T15:33:22Z</time>
      </trkpt>
      <trkpt lat="47.34832" lon="-1.89178">
        <ele>79</ele>
        <time>2015-12-05T15:33:23Z</time>
      </trkpt>
      <trkpt lat="47.34833" lon="-1.89189">
        <ele>79</ele>
        <time>2015-12-05T15:33:25Z</time>
      </trkpt>
      <trkpt lat="47.34833" lon="-1.89194">
        <ele>79</ele>
        <time>2015-12-05T15:33:26Z</time>
      </trkpt>
      <trkpt lat="47.34832" lon="-1.89199">
        <ele>79</ele>
        <time>2015-12-05T15:33:27Z</time>
      </trkpt>
      <trkpt lat="47.34832" lon="-1.89204">
        <ele>79</ele>
        <time>2015-12-05T15:33:28Z</time>
      </trkpt>
      <trkpt lat="47.34831" lon="-1.89208">
        <ele>79</ele>
        <time>2015-12-05T15:33:29Z</time>
      </trkpt>
      <trkpt lat="47.3483" lon="-1.89214">
        <ele>79</ele>
        <time>2015-12-05T15:33:30Z</time>
      </trkpt>
      <trkpt lat="47.3483" lon="-1.89218">
        <ele>79</ele>
        <time>2015-12-05T15:33:31Z</time>
      </trkpt>
      <trkpt lat="47.34831" lon="-1.89225">
        <ele>79</ele>
        <time>2015-12-05T15:33:33Z</time>
      </trkpt>
      <trkpt lat="47.3483" lon="-1.89234">
        <ele>79</ele>
        <time>2015-12-05T15:33:35Z</time>
      </trkpt>
      <trkpt lat="47.3483" lon="-1.89239">
        <ele>79</ele>
        <time>2015-12-05T15:33:36Z</time>
      </trkpt>
      <trkpt lat="47.3483" lon="-1.89247">
        <ele>80</ele>
        <time>2015-12-05T15:33:38Z</time>
      </trkpt>
      <trkpt lat="47.3483" lon="-1.89254">
        <ele>80</ele>
        <time>2015-12-05T15:33:39Z</time>
      </trkpt>
      <trkpt lat="47.34831" lon="-1.8926">
        <ele>79</ele>
        <time>2015-12-05T15:33:40Z</time>
      </trkpt>
      <trkpt lat="47.34831" lon="-1.89265">
        <ele>79</ele>
        <time>2015-12-05T15:33:41Z</time>
      </trkpt>
      <trkpt lat="47.34832" lon="-1.89269">
        <ele>79</ele>
        <time>2015-12-05T15:33:42Z</time>
      </trkpt>
      <trkpt lat="47.34832" lon="-1.89277">
        <ele>79</ele>
        <time>2015-12-05T15:33:43Z</time>
      </trkpt>
      <trkpt lat="47.34832" lon="-1.89283">
        <ele>79</ele>
        <time>2015-12-05T15:33:44Z</time>
      </trkpt>
      <trkpt lat="47.34832" lon="-1.89289">
        <ele>79</ele>
        <time>2015-12-05T15:33:45Z</time>
      </trkpt>
      <trkpt lat="47.34832" lon="-1.89296">
        <ele>79</ele>
        <time>2015-12-05T15:33:46Z</time>
      </trkpt>
      <trkpt lat="47.34832" lon="-1.893">
        <ele>79</ele>
        <time>2015-12-05T15:33:47Z</time>
      </trkpt>
      <trkpt lat="47.34832" lon="-1.89305">
        <ele>79</ele>
        <time>2015-12-05T15:33:48Z</time>
      </trkpt>
      <trkpt lat="47.34833" lon="-1.89311">
        <ele>79</ele>
        <time>2015-12-05T15:33:49Z</time>
      </trkpt>
      <trkpt lat="47.34834" lon="-1.89316">
        <ele>80</ele>
        <time>2015-12-05T15:33:50Z</time>
      </trkpt>
      <trkpt lat="47.34835" lon="-1.89321">
        <ele>80</ele>
        <time>2015-12-05T15:33:51Z</time>
      </trkpt>
      <trkpt lat="47.34836" lon="-1.89325">
        <ele>79</ele>
        <time>2015-12-05T15:33:52Z</time>
      </trkpt>
      <trkpt lat="47.34838" lon="-1.89328">
        <ele>79</ele>
        <time>2015-12-05T15:33:53Z</time>
      </trkpt>
      <trkpt lat="47.34841" lon="-1.89329">
        <ele>80</ele>
        <time>2015-12-05T15:33:54Z</time>
      </trkpt>
      <trkpt lat="47.34844" lon="-1.8933">
        <ele>80</ele>
        <time>2015-12-05T15:33:55Z</time>
      </trkpt>
      <trkpt lat="47.34847" lon="-1.89332">
        <ele>80</ele>
        <time>2015-12-05T15:33:56Z</time>
      </trkpt>
      <trkpt lat="47.34847" lon="-1.89328">
        <ele>80</ele>
        <time>2015-12-05T15:33:57Z</time>
      </trkpt>
      <trkpt lat="47.34853" lon="-1.89325">
        <ele>80</ele>
        <time>2015-12-05T15:33:59Z</time>
      </trkpt>
      <trkpt lat="47.34856" lon="-1.89322">
        <ele>80</ele>
        <time>2015-12-05T15:34:01Z</time>
      </trkpt>
      <trkpt lat="47.34861" lon="-1.89319">
        <ele>80</ele>
        <time>2015-12-05T15:34:03Z</time>
      </trkpt>
      <trkpt lat="47.34866" lon="-1.89321">
        <ele>80</ele>
        <time>2015-12-05T15:34:05Z</time>
      </trkpt>
      <trkpt lat="47.34871" lon="-1.89328">
        <ele>80</ele>
        <time>2015-12-05T15:34:07Z</time>
      </trkpt>
      <trkpt lat="47.34872" lon="-1.89334">
        <ele>80</ele>
        <time>2015-12-05T15:34:08Z</time>
      </trkpt>
      <trkpt lat="47.34873" lon="-1.89348">
        <ele>80</ele>
        <time>2015-12-05T15:34:10Z</time>
      </trkpt>
      <trkpt lat="47.34873" lon="-1.89354">
        <ele>80</ele>
        <time>2015-12-05T15:34:11Z</time>
      </trkpt>
      <trkpt lat="47.34874" lon="-1.89361">
        <ele>80</ele>
        <time>2015-12-05T15:34:12Z</time>
      </trkpt>
      <trkpt lat="47.34873" lon="-1.89367">
        <ele>80</ele>
        <time>2015-12-05T15:34:13Z</time>
      </trkpt>
      <trkpt lat="47.34875" lon="-1.89375">
        <ele>80</ele>
        <time>2015-12-05T15:34:14Z</time>
      </trkpt>
      <trkpt lat="47.34875" lon="-1.89382">
        <ele>80</ele>
        <time>2015-12-05T15:34:15Z</time>
      </trkpt>
      <trkpt lat="47.34878" lon="-1.89393">
        <ele>80</ele>
        <time>2015-12-05T15:34:16Z</time>
      </trkpt>
      <trkpt lat="47.34878" lon="-1.894">
        <ele>80</ele>
        <time>2015-12-05T15:34:17Z</time>
      </trkpt>
      <trkpt lat="47.34878" lon="-1.89407">
        <ele>80</ele>
        <time>2015-12-05T15:34:18Z</time>
      </trkpt>
      <trkpt lat="47.34879" lon="-1.89415">
        <ele>80</ele>
        <time>2015-12-05T15:34:19Z</time>
      </trkpt>
      <trkpt lat="47.34879" lon="-1.89421">
        <ele>81</ele>
        <time>2015-12-05T15:34:20Z</time>
      </trkpt>
      <trkpt lat="47.3488" lon="-1.89428">
        <ele>81</ele>
        <time>2015-12-05T15:34:21Z</time>
      </trkpt>
      <trkpt lat="47.34879" lon="-1.89435">
        <ele>81</ele>
        <time>2015-12-05T15:34:22Z</time>
      </trkpt>
      <trkpt lat="47.34878" lon="-1.89443">
        <ele>81</ele>
        <time>2015-12-05T15:34:23Z</time>
      </trkpt>
      <trkpt lat="47.34878" lon="-1.8945">
        <ele>81</ele>
        <time>2015-12-05T15:34:24Z</time>
      </trkpt>
      <trkpt lat="47.34879" lon="-1.89456">
        <ele>81</ele>
        <time>2015-12-05T15:34:25Z</time>
      </trkpt>
      <trkpt lat="47.34876" lon="-1.89466">
        <ele>81</ele>
        <time>2015-12-05T15:34:26Z</time>
      </trkpt>
      <trkpt lat="47.34876" lon="-1.89472">
        <ele>81</ele>
        <time>2015-12-05T15:34:27Z</time>
      </trkpt>
      <trkpt lat="47.34875" lon="-1.89478">
        <ele>81</ele>
        <time>2015-12-05T15:34:28Z</time>
      </trkpt>
      <trkpt lat="47.34877" lon="-1.89484">
        <ele>81</ele>
        <time>2015-12-05T15:34:29Z</time>
      </trkpt>
      <trkpt lat="47.34879" lon="-1.89492">
        <ele>81</ele>
        <time>2015-12-05T15:34:30Z</time>
      </trkpt>
      <trkpt lat="47.34879" lon="-1.89499">
        <ele>81</ele>
        <time>2015-12-05T15:34:31Z</time>
      </trkpt>
      <trkpt lat="47.34878" lon="-1.89507">
        <ele>81</ele>
        <time>2015-12-05T15:34:32Z</time>
      </trkpt>
      <trkpt lat="47.34878" lon="-1.89514">
        <ele>81</ele>
        <time>2015-12-05T15:34:33Z</time>
      </trkpt>
      <trkpt lat="47.34879" lon="-1.89521">
        <ele>80</ele>
        <time>2015-12-05T15:34:34Z</time>
      </trkpt>
      <trkpt lat="47.3488" lon="-1.89529">
        <ele>80</ele>
        <time>2015-12-05T15:34:35Z</time>
      </trkpt>
      <trkpt lat="47.34881" lon="-1.89536">
        <ele>80</ele>
        <time>2015-12-05T15:34:36Z</time>
      </trkpt>
      <trkpt lat="47.34881" lon="-1.89544">
        <ele>80</ele>
        <time>2015-12-05T15:34:37Z</time>
      </trkpt>
      <trkpt lat="47.3488" lon="-1.89551">
        <ele>80</ele>
        <time>2015-12-05T15:34:38Z</time>
      </trkpt>
      <trkpt lat="47.34881" lon="-1.89559">
        <ele>80</ele>
        <time>2015-12-05T15:34:39Z</time>
      </trkpt>
      <trkpt lat="47.34881" lon="-1.89567">
        <ele>80</ele>
        <time>2015-12-05T15:34:40Z</time>
      </trkpt>
      <trkpt lat="47.3488" lon="-1.89574">
        <ele>80</ele>
        <time>2015-12-05T15:34:41Z</time>
      </trkpt>
      <trkpt lat="47.3488" lon="-1.89581">
        <ele>80</ele>
        <time>2015-12-05T15:34:42Z</time>
      </trkpt>
      <trkpt lat="47.34881" lon="-1.89589">
        <ele>80</ele>
        <time>2015-12-05T15:34:43Z</time>
      </trkpt>
      <trkpt lat="47.34881" lon="-1.89596">
        <ele>80</ele>
        <time>2015-12-05T15:34:44Z</time>
      </trkpt>
      <trkpt lat="47.3488" lon="-1.89604">
        <ele>80</ele>
        <time>2015-12-05T15:34:45Z</time>
      </trkpt>
      <trkpt lat="47.3488" lon="-1.8961">
        <ele>80</ele>
        <time>2015-12-05T15:34:46Z</time>
      </trkpt>
      <trkpt lat="47.3488" lon="-1.89616">
        <ele>80</ele>
        <time>2015-12-05T15:34:47Z</time>
      </trkpt>
      <trkpt lat="47.3488" lon="-1.89623">
        <ele>80</ele>
        <time>2015-12-05T15:34:48Z</time>
      </trkpt>
      <trkpt lat="47.3488" lon="-1.89629">
        <ele>80</ele>
        <time>2015-12-05T15:34:49Z</time>
      </trkpt>
      <trkpt lat="47.3488" lon="-1.89635">
        <ele>80</ele>
        <time>2015-12-05T15:34:50Z</time>
      </trkpt>
      <trkpt lat="47.3488" lon="-1.89642">
        <ele>80</ele>
        <time>2015-12-05T15:34:51Z</time>
      </trkpt>
      <trkpt lat="47.34881" lon="-1.89648">
        <ele>80</ele>
        <time>2015-12-05T15:34:52Z</time>
      </trkpt>
      <trkpt lat="47.34881" lon="-1.89654">
        <ele>80</ele>
        <time>2015-12-05T15:34:53Z</time>
      </trkpt>
      <trkpt lat="47.34882" lon="-1.89658">
        <ele>80</ele>
        <time>2015-12-05T15:34:54Z</time>
      </trkpt>
      <trkpt lat="47.34883" lon="-1.89662">
        <ele>80</ele>
        <time>2015-12-05T15:34:55Z</time>
      </trkpt>
      <trkpt lat="47.34884" lon="-1.89667">
        <ele>80</ele>
        <time>2015-12-05T15:34:56Z</time>
      </trkpt>
      <trkpt lat="47.34884" lon="-1.89671">
        <ele>80</ele>
        <time>2015-12-05T15:34:57Z</time>
      </trkpt>
      <trkpt lat="47.34885" lon="-1.89676">
        <ele>80</ele>
        <time>2015-12-05T15:34:58Z</time>
      </trkpt>
      <trkpt lat="47.34886" lon="-1.89682">
        <ele>80</ele>
        <time>2015-12-05T15:34:59Z</time>
      </trkpt>
      <trkpt lat="47.34886" lon="-1.89687">
        <ele>80</ele>
        <time>2015-12-05T15:35:00Z</time>
      </trkpt>
      <trkpt lat="47.34887" lon="-1.89699">
        <ele>79</ele>
        <time>2015-12-05T15:35:02Z</time>
      </trkpt>
      <trkpt lat="47.34887" lon="-1.89709">
        <ele>79</ele>
        <time>2015-12-05T15:35:03Z</time>
      </trkpt>
      <trkpt lat="47.34887" lon="-1.89717">
        <ele>79</ele>
        <time>2015-12-05T15:35:04Z</time>
      </trkpt>
      <trkpt lat="47.34887" lon="-1.89726">
        <ele>79</ele>
        <time>2015-12-05T15:35:05Z</time>
      </trkpt>
      <trkpt lat="47.34887" lon="-1.89734">
        <ele>79</ele>
        <time>2015-12-05T15:35:06Z</time>
      </trkpt>
      <trkpt lat="47.34887" lon="-1.89742">
        <ele>79</ele>
        <time>2015-12-05T15:35:07Z</time>
      </trkpt>
      <trkpt lat="47.34887" lon="-1.89749">
        <ele>79</ele>
        <time>2015-12-05T15:35:08Z</time>
      </trkpt>
      <trkpt lat="47.34887" lon="-1.89759">
        <ele>77</ele>
        <time>2015-12-05T15:35:10Z</time>
      </trkpt>
      <trkpt lat="47.34887" lon="-1.89767">
        <ele>77</ele>
        <time>2015-12-05T15:35:11Z</time>
      </trkpt>
      <trkpt lat="47.34884" lon="-1.89771">
        <ele>77</ele>
        <time>2015-12-05T15:35:12Z</time>
      </trkpt>
      <trkpt lat="47.34884" lon="-1.8978">
        <ele>77</ele>
        <time>2015-12-05T15:35:13Z</time>
      </trkpt>
      <trkpt lat="47.34886" lon="-1.8979">
        <ele>77</ele>
        <time>2015-12-05T15:35:14Z</time>
      </trkpt>
      <trkpt lat="47.34885" lon="-1.898">
        <ele>77</ele>
        <time>2015-12-05T15:35:15Z</time>
      </trkpt>
      <trkpt lat="47.34885" lon="-1.89807">
        <ele>77</ele>
        <time>2015-12-05T15:35:16Z</time>
      </trkpt>
      <trkpt lat="47.34884" lon="-1.89815">
        <ele>77</ele>
        <time>2015-12-05T15:35:17Z</time>
      </trkpt>
      <trkpt lat="47.34884" lon="-1.89823">
        <ele>77</ele>
        <time>2015-12-05T15:35:18Z</time>
      </trkpt>
      <trkpt lat="47.34881" lon="-1.89832">
        <ele>77</ele>
        <time>2015-12-05T15:35:19Z</time>
      </trkpt>
      <trkpt lat="47.34879" lon="-1.89841">
        <ele>76</ele>
        <time>2015-12-05T15:35:20Z</time>
      </trkpt>
      <trkpt lat="47.34877" lon="-1.89846">
        <ele>76</ele>
        <time>2015-12-05T15:35:21Z</time>
      </trkpt>
      <trkpt lat="47.34875" lon="-1.89853">
        <ele>76</ele>
        <time>2015-12-05T15:35:22Z</time>
      </trkpt>
      <trkpt lat="47.34874" lon="-1.89859">
        <ele>76</ele>
        <time>2015-12-05T15:35:23Z</time>
      </trkpt>
      <trkpt lat="47.34872" lon="-1.89865">
        <ele>76</ele>
        <time>2015-12-05T15:35:24Z</time>
      </trkpt>
      <trkpt lat="47.34869" lon="-1.89871">
        <ele>76</ele>
        <time>2015-12-05T15:35:25Z</time>
      </trkpt>
      <trkpt lat="47.34866" lon="-1.89872">
        <ele>76</ele>
        <time>2015-12-05T15:35:26Z</time>
      </trkpt>
      <trkpt lat="47.34864" lon="-1.89878">
        <ele>76</ele>
        <time>2015-12-05T15:35:27Z</time>
      </trkpt>
      <trkpt lat="47.34862" lon="-1.89887">
        <ele>76</ele>
        <time>2015-12-05T15:35:28Z</time>
      </trkpt>
      <trkpt lat="47.34861" lon="-1.89897">
        <ele>76</ele>
        <time>2015-12-05T15:35:29Z</time>
      </trkpt>
      <trkpt lat="47.34859" lon="-1.89903">
        <ele>76</ele>
        <time>2015-12-05T15:35:30Z</time>
      </trkpt>
      <trkpt lat="47.34857" lon="-1.8991">
        <ele>76</ele>
        <time>2015-12-05T15:35:31Z</time>
      </trkpt>
      <trkpt lat="47.3486" lon="-1.89913">
        <ele>76</ele>
        <time>2015-12-05T15:35:32Z</time>
      </trkpt>
      <trkpt lat="47.34858" lon="-1.89919">
        <ele>75</ele>
        <time>2015-12-05T15:35:33Z</time>
      </trkpt>
      <trkpt lat="47.34856" lon="-1.89928">
        <ele>75</ele>
        <time>2015-12-05T15:35:34Z</time>
      </trkpt>
      <trkpt lat="47.34855" lon="-1.89935">
        <ele>75</ele>
        <time>2015-12-05T15:35:35Z</time>
      </trkpt>
      <trkpt lat="47.34854" lon="-1.89943">
        <ele>75</ele>
        <time>2015-12-05T15:35:36Z</time>
      </trkpt>
      <trkpt lat="47.34854" lon="-1.89952">
        <ele>75</ele>
        <time>2015-12-05T15:35:37Z</time>
      </trkpt>
      <trkpt lat="47.34853" lon="-1.8996">
        <ele>75</ele>
        <time>2015-12-05T15:35:38Z</time>
      </trkpt>
      <trkpt lat="47.34852" lon="-1.89968">
        <ele>74</ele>
        <time>2015-12-05T15:35:39Z</time>
      </trkpt>
      <trkpt lat="47.34853" lon="-1.89974">
        <ele>74</ele>
        <time>2015-12-05T15:35:40Z</time>
      </trkpt>
      <trkpt lat="47.34854" lon="-1.89981">
        <ele>74</ele>
        <time>2015-12-05T15:35:41Z</time>
      </trkpt>
      <trkpt lat="47.34855" lon="-1.89987">
        <ele>74</ele>
        <time>2015-12-05T15:35:42Z</time>
      </trkpt>
      <trkpt lat="47.34855" lon="-1.89994">
        <ele>74</ele>
        <time>2015-12-05T15:35:43Z</time>
      </trkpt>
      <trkpt lat="47.3486" lon="-1.90002">
        <ele>73</ele>
        <time>2015-12-05T15:35:44Z</time>
      </trkpt>
      <trkpt lat="47.34862" lon="-1.90008">
        <ele>73</ele>
        <time>2015-12-05T15:35:45Z</time>
      </trkpt>
      <trkpt lat="47.34869" lon="-1.90016">
        <ele>72</ele>
        <time>2015-12-05T15:35:46Z</time>
      </trkpt>
      <trkpt lat="47.34872" lon="-1.90022">
        <ele>72</ele>
        <time>2015-12-05T15:35:47Z</time>
      </trkpt>
      <trkpt lat="47.34874" lon="-1.90029">
        <ele>72</ele>
        <time>2015-12-05T15:35:48Z</time>
      </trkpt>
      <trkpt lat="47.34878" lon="-1.90029">
        <ele>72</ele>
        <time>2015-12-05T15:35:49Z</time>
      </trkpt>
      <trkpt lat="47.34881" lon="-1.90035">
        <ele>72</ele>
        <time>2015-12-05T15:35:50Z</time>
      </trkpt>
      <trkpt lat="47.34883" lon="-1.90042">
        <ele>72</ele>
        <time>2015-12-05T15:35:51Z</time>
      </trkpt>
      <trkpt lat="47.34886" lon="-1.90051">
        <ele>72</ele>
        <time>2015-12-05T15:35:52Z</time>
      </trkpt>
      <trkpt lat="47.34888" lon="-1.90058">
        <ele>72</ele>
        <time>2015-12-05T15:35:53Z</time>
      </trkpt>
      <trkpt lat="47.34891" lon="-1.90065">
        <ele>71</ele>
        <time>2015-12-05T15:35:54Z</time>
      </trkpt>
      <trkpt lat="47.34896" lon="-1.90078">
        <ele>71</ele>
        <time>2015-12-05T15:35:55Z</time>
      </trkpt>
      <trkpt lat="47.34897" lon="-1.90086">
        <ele>70</ele>
        <time>2015-12-05T15:35:56Z</time>
      </trkpt>
      <trkpt lat="47.34899" lon="-1.90098">
        <ele>70</ele>
        <time>2015-12-05T15:35:57Z</time>
      </trkpt>
      <trkpt lat="47.34901" lon="-1.90107">
        <ele>70</ele>
        <time>2015-12-05T15:35:58Z</time>
      </trkpt>
      <trkpt lat="47.34905" lon="-1.90118">
        <ele>70</ele>
        <time>2015-12-05T15:35:59Z</time>
      </trkpt>
      <trkpt lat="47.34908" lon="-1.90129">
        <ele>70</ele>
        <time>2015-12-05T15:36:00Z</time>
      </trkpt>
      <trkpt lat="47.34913" lon="-1.90137">
        <ele>70</ele>
        <time>2015-12-05T15:36:01Z</time>
      </trkpt>
      <trkpt lat="47.34916" lon="-1.90144">
        <ele>70</ele>
        <time>2015-12-05T15:36:02Z</time>
      </trkpt>
      <trkpt lat="47.34921" lon="-1.90153">
        <ele>70</ele>
        <time>2015-12-05T15:36:03Z</time>
      </trkpt>
      <trkpt lat="47.34925" lon="-1.90162">
        <ele>70</ele>
        <time>2015-12-05T15:36:04Z</time>
      </trkpt>
      <trkpt lat="47.34929" lon="-1.90171">
        <ele>70</ele>
        <time>2015-12-05T15:36:05Z</time>
      </trkpt>
      <trkpt lat="47.34933" lon="-1.90178">
        <ele>71</ele>
        <time>2015-12-05T15:36:06Z</time>
      </trkpt>
      <trkpt lat="47.34937" lon="-1.90187">
        <ele>71</ele>
        <time>2015-12-05T15:36:07Z</time>
      </trkpt>
      <trkpt lat="47.34938" lon="-1.90194">
        <ele>71</ele>
        <time>2015-12-05T15:36:08Z</time>
      </trkpt>
      <trkpt lat="47.34942" lon="-1.90202">
        <ele>71</ele>
        <time>2015-12-05T15:36:09Z</time>
      </trkpt>
      <trkpt lat="47.34942" lon="-1.90206">
        <ele>71</ele>
        <time>2015-12-05T15:36:10Z</time>
      </trkpt>
      <trkpt lat="47.34945" lon="-1.90215">
        <ele>71</ele>
        <time>2015-12-05T15:36:11Z</time>
      </trkpt>
      <trkpt lat="47.34948" lon="-1.90223">
        <ele>71</ele>
        <time>2015-12-05T15:36:12Z</time>
      </trkpt>
      <trkpt lat="47.34952" lon="-1.90234">
        <ele>71</ele>
        <time>2015-12-05T15:36:13Z</time>
      </trkpt>
      <trkpt lat="47.34956" lon="-1.9024">
        <ele>71</ele>
        <time>2015-12-05T15:36:14Z</time>
      </trkpt>
      <trkpt lat="47.3496" lon="-1.90248">
        <ele>71</ele>
        <time>2015-12-05T15:36:15Z</time>
      </trkpt>
      <trkpt lat="47.34963" lon="-1.90256">
        <ele>71</ele>
        <time>2015-12-05T15:36:16Z</time>
      </trkpt>
      <trkpt lat="47.34964" lon="-1.90261">
        <ele>71</ele>
        <time>2015-12-05T15:36:17Z</time>
      </trkpt>
      <trkpt lat="47.34968" lon="-1.9027">
        <ele>71</ele>
        <time>2015-12-05T15:36:18Z</time>
      </trkpt>
      <trkpt lat="47.34973" lon="-1.9028">
        <ele>71</ele>
        <time>2015-12-05T15:36:19Z</time>
      </trkpt>
      <trkpt lat="47.34976" lon="-1.90288">
        <ele>71</ele>
        <time>2015-12-05T15:36:20Z</time>
      </trkpt>
      <trkpt lat="47.34979" lon="-1.90294">
        <ele>71</ele>
        <time>2015-12-05T15:36:21Z</time>
      </trkpt>
      <trkpt lat="47.34982" lon="-1.90301">
        <ele>71</ele>
        <time>2015-12-05T15:36:22Z</time>
      </trkpt>
      <trkpt lat="47.34986" lon="-1.9031">
        <ele>72</ele>
        <time>2015-12-05T15:36:23Z</time>
      </trkpt>
      <trkpt lat="47.3499" lon="-1.90318">
        <ele>72</ele>
        <time>2015-12-05T15:36:24Z</time>
      </trkpt>
      <trkpt lat="47.34993" lon="-1.90327">
        <ele>72</ele>
        <time>2015-12-05T15:36:25Z</time>
      </trkpt>
      <trkpt lat="47.34997" lon="-1.90335">
        <ele>73</ele>
        <time>2015-12-05T15:36:26Z</time>
      </trkpt>
      <trkpt lat="47.35001" lon="-1.90346">
        <ele>73</ele>
        <time>2015-12-05T15:36:27Z</time>
      </trkpt>
      <trkpt lat="47.35004" lon="-1.90354">
        <ele>74</ele>
        <time>2015-12-05T15:36:28Z</time>
      </trkpt>
      <trkpt lat="47.35008" lon="-1.90362">
        <ele>74</ele>
        <time>2015-12-05T15:36:29Z</time>
      </trkpt>
      <trkpt lat="47.35011" lon="-1.90369">
        <ele>74</ele>
        <time>2015-12-05T15:36:30Z</time>
      </trkpt>
      <trkpt lat="47.35015" lon="-1.90383">
        <ele>74</ele>
        <time>2015-12-05T15:36:31Z</time>
      </trkpt>
      <trkpt lat="47.3502" lon="-1.90389">
        <ele>74</ele>
        <time>2015-12-05T15:36:32Z</time>
      </trkpt>
      <trkpt lat="47.35023" lon="-1.90396">
        <ele>74</ele>
        <time>2015-12-05T15:36:33Z</time>
      </trkpt>
      <trkpt lat="47.35026" lon="-1.90403">
        <ele>74</ele>
        <time>2015-12-05T15:36:34Z</time>
      </trkpt>
      <trkpt lat="47.35031" lon="-1.90405">
        <ele>74</ele>
        <time>2015-12-05T15:36:35Z</time>
      </trkpt>
      <trkpt lat="47.35033" lon="-1.90412">
        <ele>74</ele>
        <time>2015-12-05T15:36:36Z</time>
      </trkpt>
      <trkpt lat="47.35035" lon="-1.90418">
        <ele>74</ele>
        <time>2015-12-05T15:36:37Z</time>
      </trkpt>
      <trkpt lat="47.35042" lon="-1.90433">
        <ele>74</ele>
        <time>2015-12-05T15:36:38Z</time>
      </trkpt>
      <trkpt lat="47.35038" lon="-1.9044">
        <ele>74</ele>
        <time>2015-12-05T15:36:39Z</time>
      </trkpt>
      <trkpt lat="47.35041" lon="-1.90449">
        <ele>74</ele>
        <time>2015-12-05T15:36:40Z</time>
      </trkpt>
      <trkpt lat="47.35042" lon="-1.90459">
        <ele>74</ele>
        <time>2015-12-05T15:36:41Z</time>
      </trkpt>
      <trkpt lat="47.35045" lon="-1.90468">
        <ele>74</ele>
        <time>2015-12-05T15:36:42Z</time>
      </trkpt>
      <trkpt lat="47.35048" lon="-1.90477">
        <ele>74</ele>
        <time>2015-12-05T15:36:43Z</time>
      </trkpt>
      <trkpt lat="47.35048" lon="-1.90487">
        <ele>74</ele>
        <time>2015-12-05T15:36:45Z</time>
      </trkpt>
      <trkpt lat="47.3505" lon="-1.90496">
        <ele>73</ele>
        <time>2015-12-05T15:36:46Z</time>
      </trkpt>
      <trkpt lat="47.35051" lon="-1.90502">
        <ele>72</ele>
        <time>2015-12-05T15:36:47Z</time>
      </trkpt>
      <trkpt lat="47.35054" lon="-1.90513">
        <ele>72</ele>
        <time>2015-12-05T15:36:48Z</time>
      </trkpt>
      <trkpt lat="47.35056" lon="-1.90524">
        <ele>72</ele>
        <time>2015-12-05T15:36:49Z</time>
      </trkpt>
      <trkpt lat="47.3506" lon="-1.90535">
        <ele>72</ele>
        <time>2015-12-05T15:36:50Z</time>
      </trkpt>
      <trkpt lat="47.3506" lon="-1.90546">
        <ele>72</ele>
        <time>2015-12-05T15:36:51Z</time>
      </trkpt>
      <trkpt lat="47.35061" lon="-1.90557">
        <ele>72</ele>
        <time>2015-12-05T15:36:52Z</time>
      </trkpt>
      <trkpt lat="47.3506" lon="-1.90568">
        <ele>72</ele>
        <time>2015-12-05T15:36:53Z</time>
      </trkpt>
      <trkpt lat="47.35061" lon="-1.90578">
        <ele>72</ele>
        <time>2015-12-05T15:36:54Z</time>
      </trkpt>
      <trkpt lat="47.3506" lon="-1.90589">
        <ele>71</ele>
        <time>2015-12-05T15:36:55Z</time>
      </trkpt>
      <trkpt lat="47.3506" lon="-1.906">
        <ele>71</ele>
        <time>2015-12-05T15:36:56Z</time>
      </trkpt>
      <trkpt lat="47.35061" lon="-1.90611">
        <ele>70</ele>
        <time>2015-12-05T15:36:57Z</time>
      </trkpt>
      <trkpt lat="47.35061" lon="-1.90622">
        <ele>70</ele>
        <time>2015-12-05T15:36:58Z</time>
      </trkpt>
      <trkpt lat="47.35062" lon="-1.90634">
        <ele>70</ele>
        <time>2015-12-05T15:36:59Z</time>
      </trkpt>
      <trkpt lat="47.35062" lon="-1.90645">
        <ele>70</ele>
        <time>2015-12-05T15:37:00Z</time>
      </trkpt>
      <trkpt lat="47.35062" lon="-1.90656">
        <ele>70</ele>
        <time>2015-12-05T15:37:01Z</time>
      </trkpt>
      <trkpt lat="47.35059" lon="-1.90664">
        <ele>70</ele>
        <time>2015-12-05T15:37:02Z</time>
      </trkpt>
      <trkpt lat="47.35059" lon="-1.90675">
        <ele>69</ele>
        <time>2015-12-05T15:37:03Z</time>
      </trkpt>
      <trkpt lat="47.35058" lon="-1.90689">
        <ele>68</ele>
        <time>2015-12-05T15:37:04Z</time>
      </trkpt>
      <trkpt lat="47.35058" lon="-1.90701">
        <ele>68</ele>
        <time>2015-12-05T15:37:05Z</time>
      </trkpt>
      <trkpt lat="47.35057" lon="-1.9071">
        <ele>68</ele>
        <time>2015-12-05T15:37:06Z</time>
      </trkpt>
      <trkpt lat="47.35056" lon="-1.90721">
        <ele>68</ele>
        <time>2015-12-05T15:37:07Z</time>
      </trkpt>
      <trkpt lat="47.35056" lon="-1.90732">
        <ele>67</ele>
        <time>2015-12-05T15:37:08Z</time>
      </trkpt>
      <trkpt lat="47.35061" lon="-1.90747">
        <ele>67</ele>
        <time>2015-12-05T15:37:09Z</time>
      </trkpt>
      <trkpt lat="47.35065" lon="-1.90756">
        <ele>66</ele>
        <time>2015-12-05T15:37:10Z</time>
      </trkpt>
      <trkpt lat="47.35069" lon="-1.90768">
        <ele>66</ele>
        <time>2015-12-05T15:37:11Z</time>
      </trkpt>
      <trkpt lat="47.35073" lon="-1.90781">
        <ele>66</ele>
        <time>2015-12-05T15:37:12Z</time>
      </trkpt>
      <trkpt lat="47.35077" lon="-1.90792">
        <ele>65</ele>
        <time>2015-12-05T15:37:13Z</time>
      </trkpt>
      <trkpt lat="47.35081" lon="-1.90802">
        <ele>65</ele>
        <time>2015-12-05T15:37:14Z</time>
      </trkpt>
      <trkpt lat="47.35085" lon="-1.90814">
        <ele>65</ele>
        <time>2015-12-05T15:37:15Z</time>
      </trkpt>
      <trkpt lat="47.35089" lon="-1.90825">
        <ele>65</ele>
        <time>2015-12-05T15:37:16Z</time>
      </trkpt>
      <trkpt lat="47.35099" lon="-1.9084">
        <ele>65</ele>
        <time>2015-12-05T15:37:17Z</time>
      </trkpt>
      <trkpt lat="47.35102" lon="-1.9085">
        <ele>65</ele>
        <time>2015-12-05T15:37:18Z</time>
      </trkpt>
      <trkpt lat="47.35105" lon="-1.90862">
        <ele>65</ele>
        <time>2015-12-05T15:37:19Z</time>
      </trkpt>
      <trkpt lat="47.3511" lon="-1.90873">
        <ele>65</ele>
        <time>2015-12-05T15:37:20Z</time>
      </trkpt>
      <trkpt lat="47.35114" lon="-1.90884">
        <ele>65</ele>
        <time>2015-12-05T15:37:21Z</time>
      </trkpt>
      <trkpt lat="47.35114" lon="-1.90891">
        <ele>65</ele>
        <time>2015-12-05T15:37:22Z</time>
      </trkpt>
      <trkpt lat="47.35116" lon="-1.90899">
        <ele>65</ele>
        <time>2015-12-05T15:37:23Z</time>
      </trkpt>
      <trkpt lat="47.35118" lon="-1.90908">
        <ele>65</ele>
        <time>2015-12-05T15:37:24Z</time>
      </trkpt>
      <trkpt lat="47.35123" lon="-1.90922">
        <ele>65</ele>
        <time>2015-12-05T15:37:25Z</time>
      </trkpt>
      <trkpt lat="47.35126" lon="-1.90933">
        <ele>65</ele>
        <time>2015-12-05T15:37:26Z</time>
      </trkpt>
      <trkpt lat="47.35129" lon="-1.90947">
        <ele>65</ele>
        <time>2015-12-05T15:37:27Z</time>
      </trkpt>
      <trkpt lat="47.35132" lon="-1.90958">
        <ele>65</ele>
        <time>2015-12-05T15:37:28Z</time>
      </trkpt>
      <trkpt lat="47.35135" lon="-1.90969">
        <ele>64</ele>
        <time>2015-12-05T15:37:29Z</time>
      </trkpt>
      <trkpt lat="47.35139" lon="-1.90981">
        <ele>64</ele>
        <time>2015-12-05T15:37:30Z</time>
      </trkpt>
      <trkpt lat="47.35143" lon="-1.90991">
        <ele>64</ele>
        <time>2015-12-05T15:37:31Z</time>
      </trkpt>
      <trkpt lat="47.35146" lon="-1.91002">
        <ele>64</ele>
        <time>2015-12-05T15:37:32Z</time>
      </trkpt>
      <trkpt lat="47.3515" lon="-1.91015">
        <ele>64</ele>
        <time>2015-12-05T15:37:33Z</time>
      </trkpt>
      <trkpt lat="47.35154" lon="-1.91023">
        <ele>64</ele>
        <time>2015-12-05T15:37:34Z</time>
      </trkpt>
      <trkpt lat="47.35158" lon="-1.91033">
        <ele>64</ele>
        <time>2015-12-05T15:37:35Z</time>
      </trkpt>
      <trkpt lat="47.35162" lon="-1.91042">
        <ele>64</ele>
        <time>2015-12-05T15:37:36Z</time>
      </trkpt>
      <trkpt lat="47.35165" lon="-1.9105">
        <ele>64</ele>
        <time>2015-12-05T15:37:37Z</time>
      </trkpt>
      <trkpt lat="47.3517" lon="-1.91057">
        <ele>64</ele>
        <time>2015-12-05T15:37:38Z</time>
      </trkpt>
      <trkpt lat="47.35175" lon="-1.91066">
        <ele>64</ele>
        <time>2015-12-05T15:37:39Z</time>
      </trkpt>
      <trkpt lat="47.35179" lon="-1.91074">
        <ele>64</ele>
        <time>2015-12-05T15:37:40Z</time>
      </trkpt>
      <trkpt lat="47.35183" lon="-1.91082">
        <ele>64</ele>
        <time>2015-12-05T15:37:41Z</time>
      </trkpt>
      <trkpt lat="47.35188" lon="-1.9109">
        <ele>65</ele>
        <time>2015-12-05T15:37:42Z</time>
      </trkpt>
      <trkpt lat="47.35193" lon="-1.91098">
        <ele>65</ele>
        <time>2015-12-05T15:37:43Z</time>
      </trkpt>
      <trkpt lat="47.35198" lon="-1.91105">
        <ele>65</ele>
        <time>2015-12-05T15:37:44Z</time>
      </trkpt>
      <trkpt lat="47.35201" lon="-1.91113">
        <ele>65</ele>
        <time>2015-12-05T15:37:45Z</time>
      </trkpt>
      <trkpt lat="47.35206" lon="-1.91121">
        <ele>65</ele>
        <time>2015-12-05T15:37:46Z</time>
      </trkpt>
      <trkpt lat="47.35211" lon="-1.91129">
        <ele>65</ele>
        <time>2015-12-05T15:37:47Z</time>
      </trkpt>
      <trkpt lat="47.35215" lon="-1.91136">
        <ele>65</ele>
        <time>2015-12-05T15:37:48Z</time>
      </trkpt>
      <trkpt lat="47.3522" lon="-1.91145">
        <ele>65</ele>
        <time>2015-12-05T15:37:49Z</time>
      </trkpt>
      <trkpt lat="47.35225" lon="-1.91151">
        <ele>65</ele>
        <time>2015-12-05T15:37:50Z</time>
      </trkpt>
      <trkpt lat="47.3523" lon="-1.91159">
        <ele>65</ele>
        <time>2015-12-05T15:37:51Z</time>
      </trkpt>
      <trkpt lat="47.35235" lon="-1.91168">
        <ele>64</ele>
        <time>2015-12-05T15:37:52Z</time>
      </trkpt>
      <trkpt lat="47.35239" lon="-1.91175">
        <ele>64</ele>
        <time>2015-12-05T15:37:53Z</time>
      </trkpt>
      <trkpt lat="47.35244" lon="-1.91184">
        <ele>64</ele>
        <time>2015-12-05T15:37:54Z</time>
      </trkpt>
      <trkpt lat="47.35249" lon="-1.91192">
        <ele>64</ele>
        <time>2015-12-05T15:37:55Z</time>
      </trkpt>
      <trkpt lat="47.35254" lon="-1.91199">
        <ele>64</ele>
        <time>2015-12-05T15:37:56Z</time>
      </trkpt>
      <trkpt lat="47.35259" lon="-1.91207">
        <ele>64</ele>
        <time>2015-12-05T15:37:57Z</time>
      </trkpt>
      <trkpt lat="47.35264" lon="-1.91214">
        <ele>64</ele>
        <time>2015-12-05T15:37:58Z</time>
      </trkpt>
      <trkpt lat="47.35269" lon="-1.91221">
        <ele>64</ele>
        <time>2015-12-05T15:37:59Z</time>
      </trkpt>
      <trkpt lat="47.35275" lon="-1.91228">
        <ele>63</ele>
        <time>2015-12-05T15:38:00Z</time>
      </trkpt>
      <trkpt lat="47.35281" lon="-1.91233">
        <ele>63</ele>
        <time>2015-12-05T15:38:01Z</time>
      </trkpt>
      <trkpt lat="47.35287" lon="-1.9124">
        <ele>63</ele>
        <time>2015-12-05T15:38:02Z</time>
      </trkpt>
      <trkpt lat="47.35295" lon="-1.91246">
        <ele>63</ele>
        <time>2015-12-05T15:38:03Z</time>
      </trkpt>
      <trkpt lat="47.35302" lon="-1.91252">
        <ele>63</ele>
        <time>2015-12-05T15:38:04Z</time>
      </trkpt>
      <trkpt lat="47.35308" lon="-1.91257">
        <ele>63</ele>
        <time>2015-12-05T15:38:05Z</time>
      </trkpt>
      <trkpt lat="47.35315" lon="-1.91262">
        <ele>63</ele>
        <time>2015-12-05T15:38:06Z</time>
      </trkpt>
      <trkpt lat="47.35322" lon="-1.91268">
        <ele>63</ele>
        <time>2015-12-05T15:38:07Z</time>
      </trkpt>
      <trkpt lat="47.35328" lon="-1.91268">
        <ele>63</ele>
        <time>2015-12-05T15:38:08Z</time>
      </trkpt>
      <trkpt lat="47.35334" lon="-1.91265">
        <ele>64</ele>
        <time>2015-12-05T15:38:09Z</time>
      </trkpt>
      <trkpt lat="47.3534" lon="-1.91262">
        <ele>63</ele>
        <time>2015-12-05T15:38:10Z</time>
      </trkpt>
      <trkpt lat="47.35346" lon="-1.91257">
        <ele>64</ele>
        <time>2015-12-05T15:38:11Z</time>
      </trkpt>
      <trkpt lat="47.35351" lon="-1.91253">
        <ele>64</ele>
        <time>2015-12-05T15:38:12Z</time>
      </trkpt>
      <trkpt lat="47.35356" lon="-1.91248">
        <ele>64</ele>
        <time>2015-12-05T15:38:13Z</time>
      </trkpt>
      <trkpt lat="47.3536" lon="-1.91243">
        <ele>64</ele>
        <time>2015-12-05T15:38:14Z</time>
      </trkpt>
      <trkpt lat="47.35365" lon="-1.91239">
        <ele>64</ele>
        <time>2015-12-05T15:38:15Z</time>
      </trkpt>
      <trkpt lat="47.3537" lon="-1.91235">
        <ele>64</ele>
        <time>2015-12-05T15:38:16Z</time>
      </trkpt>
      <trkpt lat="47.35374" lon="-1.91231">
        <ele>64</ele>
        <time>2015-12-05T15:38:17Z</time>
      </trkpt>
      <trkpt lat="47.35379" lon="-1.91228">
        <ele>64</ele>
        <time>2015-12-05T15:38:18Z</time>
      </trkpt>
      <trkpt lat="47.35384" lon="-1.91223">
        <ele>65</ele>
        <time>2015-12-05T15:38:19Z</time>
      </trkpt>
      <trkpt lat="47.35388" lon="-1.9122">
        <ele>65</ele>
        <time>2015-12-05T15:38:20Z</time>
      </trkpt>
      <trkpt lat="47.35394" lon="-1.91214">
        <ele>65</ele>
        <time>2015-12-05T15:38:22Z</time>
      </trkpt>
      <trkpt lat="47.35398" lon="-1.9121">
        <ele>65</ele>
        <time>2015-12-05T15:38:23Z</time>
      </trkpt>
      <trkpt lat="47.35401" lon="-1.91208">
        <ele>65</ele>
        <time>2015-12-05T15:38:24Z</time>
      </trkpt>
      <trkpt lat="47.35405" lon="-1.91205">
        <ele>65</ele>
        <time>2015-12-05T15:38:25Z</time>
      </trkpt>
      <trkpt lat="47.35408" lon="-1.91199">
        <ele>65</ele>
        <time>2015-12-05T15:38:26Z</time>
      </trkpt>
      <trkpt lat="47.35411" lon="-1.91191">
        <ele>65</ele>
        <time>2015-12-05T15:38:27Z</time>
      </trkpt>
      <trkpt lat="47.35412" lon="-1.91186">
        <ele>65</ele>
        <time>2015-12-05T15:38:28Z</time>
      </trkpt>
      <trkpt lat="47.35418" lon="-1.91179">
        <ele>66</ele>
        <time>2015-12-05T15:38:29Z</time>
      </trkpt>
      <trkpt lat="47.35421" lon="-1.91173">
        <ele>66</ele>
        <time>2015-12-05T15:38:30Z</time>
      </trkpt>
      <trkpt lat="47.35424" lon="-1.91168">
        <ele>66</ele>
        <time>2015-12-05T15:38:31Z</time>
      </trkpt>
      <trkpt lat="47.35427" lon="-1.91163">
        <ele>67</ele>
        <time>2015-12-05T15:38:32Z</time>
      </trkpt>
      <trkpt lat="47.3543" lon="-1.91159">
        <ele>67</ele>
        <time>2015-12-05T15:38:33Z</time>
      </trkpt>
      <trkpt lat="47.35432" lon="-1.91154">
        <ele>67</ele>
        <time>2015-12-05T15:38:35Z</time>
      </trkpt>
      <trkpt lat="47.35436" lon="-1.9115">
        <ele>67</ele>
        <time>2015-12-05T15:38:36Z</time>
      </trkpt>
      <trkpt lat="47.35438" lon="-1.91146">
        <ele>67</ele>
        <time>2015-12-05T15:38:37Z</time>
      </trkpt>
      <trkpt lat="47.35438" lon="-1.91142">
        <ele>67</ele>
        <time>2015-12-05T15:38:38Z</time>
      </trkpt>
      <trkpt lat="47.35446" lon="-1.91137">
        <ele>67</ele>
        <time>2015-12-05T15:38:39Z</time>
      </trkpt>
      <trkpt lat="47.35449" lon="-1.91133">
        <ele>67</ele>
        <time>2015-12-05T15:38:40Z</time>
      </trkpt>
      <trkpt lat="47.35454" lon="-1.9113">
        <ele>67</ele>
        <time>2015-12-05T15:38:41Z</time>
      </trkpt>
      <trkpt lat="47.35458" lon="-1.91131">
        <ele>67</ele>
        <time>2015-12-05T15:38:42Z</time>
      </trkpt>
      <trkpt lat="47.35461" lon="-1.91128">
        <ele>67</ele>
        <time>2015-12-05T15:38:43Z</time>
      </trkpt>
      <trkpt lat="47.35465" lon="-1.91124">
        <ele>68</ele>
        <time>2015-12-05T15:38:44Z</time>
      </trkpt>
      <trkpt lat="47.35469" lon="-1.91122">
        <ele>68</ele>
        <time>2015-12-05T15:38:46Z</time>
      </trkpt>
      <trkpt lat="47.35475" lon="-1.91116">
        <ele>68</ele>
        <time>2015-12-05T15:38:47Z</time>
      </trkpt>
      <trkpt lat="47.35479" lon="-1.91111">
        <ele>68</ele>
        <time>2015-12-05T15:38:48Z</time>
      </trkpt>
      <trkpt lat="47.35483" lon="-1.91107">
        <ele>68</ele>
        <time>2015-12-05T15:38:49Z</time>
      </trkpt>
      <trkpt lat="47.35488" lon="-1.91102">
        <ele>68</ele>
        <time>2015-12-05T15:38:50Z</time>
      </trkpt>
      <trkpt lat="47.35493" lon="-1.911">
        <ele>68</ele>
        <time>2015-12-05T15:38:51Z</time>
      </trkpt>
      <trkpt lat="47.35495" lon="-1.91097">
        <ele>68</ele>
        <time>2015-12-05T15:38:52Z</time>
      </trkpt>
      <trkpt lat="47.35498" lon="-1.91095">
        <ele>68</ele>
        <time>2015-12-05T15:38:53Z</time>
      </trkpt>
      <trkpt lat="47.35502" lon="-1.91096">
        <ele>69</ele>
        <time>2015-12-05T15:38:54Z</time>
      </trkpt>
      <trkpt lat="47.35505" lon="-1.91093">
        <ele>69</ele>
        <time>2015-12-05T15:38:55Z</time>
      </trkpt>
      <trkpt lat="47.35508" lon="-1.91091">
        <ele>69</ele>
        <time>2015-12-05T15:38:56Z</time>
      </trkpt>
      <trkpt lat="47.35511" lon="-1.91084">
        <ele>69</ele>
        <time>2015-12-05T15:38:57Z</time>
      </trkpt>
      <trkpt lat="47.35516" lon="-1.91078">
        <ele>69</ele>
        <time>2015-12-05T15:38:58Z</time>
      </trkpt>
      <trkpt lat="47.35519" lon="-1.91074">
        <ele>69</ele>
        <time>2015-12-05T15:38:59Z</time>
      </trkpt>
      <trkpt lat="47.35524" lon="-1.91071">
        <ele>69</ele>
        <time>2015-12-05T15:39:00Z</time>
      </trkpt>
      <trkpt lat="47.35531" lon="-1.91065">
        <ele>69</ele>
        <time>2015-12-05T15:39:02Z</time>
      </trkpt>
      <trkpt lat="47.35535" lon="-1.91061">
        <ele>69</ele>
        <time>2015-12-05T15:39:03Z</time>
      </trkpt>
      <trkpt lat="47.3554" lon="-1.91055">
        <ele>69</ele>
        <time>2015-12-05T15:39:04Z</time>
      </trkpt>
      <trkpt lat="47.35542" lon="-1.9105">
        <ele>69</ele>
        <time>2015-12-05T15:39:05Z</time>
      </trkpt>
      <trkpt lat="47.35545" lon="-1.91045">
        <ele>69</ele>
        <time>2015-12-05T15:39:06Z</time>
      </trkpt>
      <trkpt lat="47.35547" lon="-1.91039">
        <ele>69</ele>
        <time>2015-12-05T15:39:07Z</time>
      </trkpt>
      <trkpt lat="47.35549" lon="-1.91033">
        <ele>69</ele>
        <time>2015-12-05T15:39:08Z</time>
      </trkpt>
      <trkpt lat="47.35552" lon="-1.91028">
        <ele>69</ele>
        <time>2015-12-05T15:39:09Z</time>
      </trkpt>
      <trkpt lat="47.35554" lon="-1.91023">
        <ele>69</ele>
        <time>2015-12-05T15:39:10Z</time>
      </trkpt>
      <trkpt lat="47.35558" lon="-1.91012">
        <ele>69</ele>
        <time>2015-12-05T15:39:12Z</time>
      </trkpt>
      <trkpt lat="47.3556" lon="-1.91008">
        <ele>69</ele>
        <time>2015-12-05T15:39:13Z</time>
      </trkpt>
      <trkpt lat="47.35562" lon="-1.91003">
        <ele>69</ele>
        <time>2015-12-05T15:39:14Z</time>
      </trkpt>
      <trkpt lat="47.35565" lon="-1.90997">
        <ele>69</ele>
        <time>2015-12-05T15:39:15Z</time>
      </trkpt>
      <trkpt lat="47.35567" lon="-1.90992">
        <ele>69</ele>
        <time>2015-12-05T15:39:16Z</time>
      </trkpt>
      <trkpt lat="47.35569" lon="-1.90986">
        <ele>70</ele>
        <time>2015-12-05T15:39:17Z</time>
      </trkpt>
      <trkpt lat="47.35571" lon="-1.90981">
        <ele>70</ele>
        <time>2015-12-05T15:39:18Z</time>
      </trkpt>
      <trkpt lat="47.35574" lon="-1.90975">
        <ele>70</ele>
        <time>2015-12-05T15:39:19Z</time>
      </trkpt>
      <trkpt lat="47.35578" lon="-1.90965">
        <ele>70</ele>
        <time>2015-12-05T15:39:20Z</time>
      </trkpt>
      <trkpt lat="47.3558" lon="-1.90959">
        <ele>70</ele>
        <time>2015-12-05T15:39:21Z</time>
      </trkpt>
      <trkpt lat="47.35584" lon="-1.90955">
        <ele>70</ele>
        <time>2015-12-05T15:39:22Z</time>
      </trkpt>
      <trkpt lat="47.35587" lon="-1.90951">
        <ele>70</ele>
        <time>2015-12-05T15:39:23Z</time>
      </trkpt>
      <trkpt lat="47.3559" lon="-1.90947">
        <ele>70</ele>
        <time>2015-12-05T15:39:24Z</time>
      </trkpt>
      <trkpt lat="47.35597" lon="-1.90945">
        <ele>70</ele>
        <time>2015-12-05T15:39:26Z</time>
      </trkpt>
      <trkpt lat="47.35601" lon="-1.9094">
        <ele>70</ele>
        <time>2015-12-05T15:39:27Z</time>
      </trkpt>
      <trkpt lat="47.35608" lon="-1.90934">
        <ele>70</ele>
        <time>2015-12-05T15:39:28Z</time>
      </trkpt>
      <trkpt lat="47.35611" lon="-1.90931">
        <ele>70</ele>
        <time>2015-12-05T15:39:29Z</time>
      </trkpt>
      <trkpt lat="47.35614" lon="-1.90926">
        <ele>70</ele>
        <time>2015-12-05T15:39:30Z</time>
      </trkpt>
      <trkpt lat="47.35617" lon="-1.90923">
        <ele>70</ele>
        <time>2015-12-05T15:39:31Z</time>
      </trkpt>
      <trkpt lat="47.3562" lon="-1.90918">
        <ele>70</ele>
        <time>2015-12-05T15:39:32Z</time>
      </trkpt>
      <trkpt lat="47.35623" lon="-1.90914">
        <ele>71</ele>
        <time>2015-12-05T15:39:33Z</time>
      </trkpt>
      <trkpt lat="47.35626" lon="-1.9091">
        <ele>71</ele>
        <time>2015-12-05T15:39:34Z</time>
      </trkpt>
      <trkpt lat="47.3563" lon="-1.90905">
        <ele>71</ele>
        <time>2015-12-05T15:39:36Z</time>
      </trkpt>
      <trkpt lat="47.35631" lon="-1.90901">
        <ele>71</ele>
        <time>2015-12-05T15:39:37Z</time>
      </trkpt>
      <trkpt lat="47.35637" lon="-1.909">
        <ele>71</ele>
        <time>2015-12-05T15:39:38Z</time>
      </trkpt>
      <trkpt lat="47.3564" lon="-1.90892">
        <ele>71</ele>
        <time>2015-12-05T15:39:39Z</time>
      </trkpt>
      <trkpt lat="47.35642" lon="-1.90888">
        <ele>71</ele>
        <time>2015-12-05T15:39:40Z</time>
      </trkpt>
      <trkpt lat="47.35644" lon="-1.90883">
        <ele>71</ele>
        <time>2015-12-05T15:39:41Z</time>
      </trkpt>
      <trkpt lat="47.35646" lon="-1.9088">
        <ele>72</ele>
        <time>2015-12-05T15:39:42Z</time>
      </trkpt>
      <trkpt lat="47.35648" lon="-1.90875">
        <ele>72</ele>
        <time>2015-12-05T15:39:43Z</time>
      </trkpt>
      <trkpt lat="47.3565" lon="-1.9087">
        <ele>72</ele>
        <time>2015-12-05T15:39:44Z</time>
      </trkpt>
      <trkpt lat="47.35653" lon="-1.90867">
        <ele>72</ele>
        <time>2015-12-05T15:39:45Z</time>
      </trkpt>
      <trkpt lat="47.35654" lon="-1.90863">
        <ele>72</ele>
        <time>2015-12-05T15:39:46Z</time>
      </trkpt>
      <trkpt lat="47.35656" lon="-1.9086">
        <ele>72</ele>
        <time>2015-12-05T15:39:47Z</time>
      </trkpt>
      <trkpt lat="47.35658" lon="-1.90856">
        <ele>72</ele>
        <time>2015-12-05T15:39:48Z</time>
      </trkpt>
      <trkpt lat="47.35659" lon="-1.90853">
        <ele>72</ele>
        <time>2015-12-05T15:39:49Z</time>
      </trkpt>
      <trkpt lat="47.35661" lon="-1.9085">
        <ele>72</ele>
        <time>2015-12-05T15:39:50Z</time>
      </trkpt>
      <trkpt lat="47.35663" lon="-1.90846">
        <ele>72</ele>
        <time>2015-12-05T15:39:51Z</time>
      </trkpt>
      <trkpt lat="47.35665" lon="-1.90842">
        <ele>73</ele>
        <time>2015-12-05T15:39:52Z</time>
      </trkpt>
      <trkpt lat="47.35667" lon="-1.90839">
        <ele>73</ele>
        <time>2015-12-05T15:39:53Z</time>
      </trkpt>
      <trkpt lat="47.35668" lon="-1.90835">
        <ele>73</ele>
        <time>2015-12-05T15:39:54Z</time>
      </trkpt>
      <trkpt lat="47.35671" lon="-1.90832">
        <ele>73</ele>
        <time>2015-12-05T15:39:55Z</time>
      </trkpt>
      <trkpt lat="47.35672" lon="-1.90829">
        <ele>73</ele>
        <time>2015-12-05T15:39:56Z</time>
      </trkpt>
      <trkpt lat="47.35674" lon="-1.90825">
        <ele>73</ele>
        <time>2015-12-05T15:39:57Z</time>
      </trkpt>
      <trkpt lat="47.35676" lon="-1.90822">
        <ele>73</ele>
        <time>2015-12-05T15:39:58Z</time>
      </trkpt>
      <trkpt lat="47.35677" lon="-1.90817">
        <ele>73</ele>
        <time>2015-12-05T15:39:59Z</time>
      </trkpt>
      <trkpt lat="47.35677" lon="-1.90812">
        <ele>73</ele>
        <time>2015-12-05T15:40:00Z</time>
      </trkpt>
      <trkpt lat="47.35679" lon="-1.90803">
        <ele>73</ele>
        <time>2015-12-05T15:40:02Z</time>
      </trkpt>
      <trkpt lat="47.3568" lon="-1.90799">
        <ele>74</ele>
        <time>2015-12-05T15:40:03Z</time>
      </trkpt>
      <trkpt lat="47.3568" lon="-1.90795">
        <ele>74</ele>
        <time>2015-12-05T15:40:04Z</time>
      </trkpt>
      <trkpt lat="47.3568" lon="-1.90791">
        <ele>74</ele>
        <time>2015-12-05T15:40:05Z</time>
      </trkpt>
      <trkpt lat="47.35681" lon="-1.90785">
        <ele>74</ele>
        <time>2015-12-05T15:40:06Z</time>
      </trkpt>
      <trkpt lat="47.35681" lon="-1.90781">
        <ele>74</ele>
        <time>2015-12-05T15:40:07Z</time>
      </trkpt>
      <trkpt lat="47.35681" lon="-1.90777">
        <ele>74</ele>
        <time>2015-12-05T15:40:08Z</time>
      </trkpt>
      <trkpt lat="47.35682" lon="-1.90771">
        <ele>74</ele>
        <time>2015-12-05T15:40:09Z</time>
      </trkpt>
      <trkpt lat="47.35684" lon="-1.90764">
        <ele>74</ele>
        <time>2015-12-05T15:40:11Z</time>
      </trkpt>
      <trkpt lat="47.35687" lon="-1.90758">
        <ele>74</ele>
        <time>2015-12-05T15:40:12Z</time>
      </trkpt>
      <trkpt lat="47.35689" lon="-1.90754">
        <ele>74</ele>
        <time>2015-12-05T15:40:13Z</time>
      </trkpt>
      <trkpt lat="47.35692" lon="-1.90752">
        <ele>74</ele>
        <time>2015-12-05T15:40:14Z</time>
      </trkpt>
      <trkpt lat="47.35694" lon="-1.9075">
        <ele>75</ele>
        <time>2015-12-05T15:40:15Z</time>
      </trkpt>
      <trkpt lat="47.35698" lon="-1.90748">
        <ele>75</ele>
        <time>2015-12-05T15:40:16Z</time>
      </trkpt>
      <trkpt lat="47.35701" lon="-1.90748">
        <ele>75</ele>
        <time>2015-12-05T15:40:17Z</time>
      </trkpt>
      <trkpt lat="47.35705" lon="-1.90748">
        <ele>75</ele>
        <time>2015-12-05T15:40:18Z</time>
      </trkpt>
      <trkpt lat="47.35708" lon="-1.90748">
        <ele>75</ele>
        <time>2015-12-05T15:40:19Z</time>
      </trkpt>
      <trkpt lat="47.35711" lon="-1.90748">
        <ele>75</ele>
        <time>2015-12-05T15:40:20Z</time>
      </trkpt>
      <trkpt lat="47.35714" lon="-1.90748">
        <ele>75</ele>
        <time>2015-12-05T15:40:21Z</time>
      </trkpt>
      <trkpt lat="47.35717" lon="-1.9075">
        <ele>75</ele>
        <time>2015-12-05T15:40:22Z</time>
      </trkpt>
      <trkpt lat="47.3572" lon="-1.9075">
        <ele>74</ele>
        <time>2015-12-05T15:40:23Z</time>
      </trkpt>
      <trkpt lat="47.35723" lon="-1.9075">
        <ele>75</ele>
        <time>2015-12-05T15:40:24Z</time>
      </trkpt>
      <trkpt lat="47.35726" lon="-1.90748">
        <ele>75</ele>
        <time>2015-12-05T15:40:25Z</time>
      </trkpt>
      <trkpt lat="47.3573" lon="-1.90747">
        <ele>75</ele>
        <time>2015-12-05T15:40:26Z</time>
      </trkpt>
      <trkpt lat="47.35733" lon="-1.90746">
        <ele>75</ele>
        <time>2015-12-05T15:40:27Z</time>
      </trkpt>
      <trkpt lat="47.35738" lon="-1.90746">
        <ele>75</ele>
        <time>2015-12-05T15:40:28Z</time>
      </trkpt>
      <trkpt lat="47.35742" lon="-1.90746">
        <ele>75</ele>
        <time>2015-12-05T15:40:29Z</time>
      </trkpt>
      <trkpt lat="47.35745" lon="-1.90746">
        <ele>74</ele>
        <time>2015-12-05T15:40:30Z</time>
      </trkpt>
      <trkpt lat="47.35748" lon="-1.90745">
        <ele>74</ele>
        <time>2015-12-05T15:40:31Z</time>
      </trkpt>
      <trkpt lat="47.35752" lon="-1.90745">
        <ele>75</ele>
        <time>2015-12-05T15:40:32Z</time>
      </trkpt>
      <trkpt lat="47.35756" lon="-1.90744">
        <ele>75</ele>
        <time>2015-12-05T15:40:33Z</time>
      </trkpt>
      <trkpt lat="47.35759" lon="-1.90744">
        <ele>75</ele>
        <time>2015-12-05T15:40:34Z</time>
      </trkpt>
      <trkpt lat="47.35765" lon="-1.90743">
        <ele>75</ele>
        <time>2015-12-05T15:40:35Z</time>
      </trkpt>
      <trkpt lat="47.35769" lon="-1.90742">
        <ele>76</ele>
        <time>2015-12-05T15:40:36Z</time>
      </trkpt>
      <trkpt lat="47.35772" lon="-1.9074">
        <ele>76</ele>
        <time>2015-12-05T15:40:37Z</time>
      </trkpt>
      <trkpt lat="47.35775" lon="-1.90738">
        <ele>76</ele>
        <time>2015-12-05T15:40:38Z</time>
      </trkpt>
      <trkpt lat="47.35778" lon="-1.90736">
        <ele>76</ele>
        <time>2015-12-05T15:40:39Z</time>
      </trkpt>
      <trkpt lat="47.35782" lon="-1.90733">
        <ele>76</ele>
        <time>2015-12-05T15:40:40Z</time>
      </trkpt>
      <trkpt lat="47.35785" lon="-1.90731">
        <ele>76</ele>
        <time>2015-12-05T15:40:41Z</time>
      </trkpt>
      <trkpt lat="47.35788" lon="-1.90729">
        <ele>76</ele>
        <time>2015-12-05T15:40:42Z</time>
      </trkpt>
      <trkpt lat="47.35791" lon="-1.90727">
        <ele>77</ele>
        <time>2015-12-05T15:40:43Z</time>
      </trkpt>
      <trkpt lat="47.35793" lon="-1.90723">
        <ele>77</ele>
        <time>2015-12-05T15:40:44Z</time>
      </trkpt>
      <trkpt lat="47.35792" lon="-1.90719">
        <ele>77</ele>
        <time>2015-12-05T15:40:45Z</time>
      </trkpt>
      <trkpt lat="47.3579" lon="-1.90711">
        <ele>77</ele>
        <time>2015-12-05T15:40:47Z</time>
      </trkpt>
      <trkpt lat="47.35789" lon="-1.90708">
        <ele>77</ele>
        <time>2015-12-05T15:40:48Z</time>
      </trkpt>
      <trkpt lat="47.35786" lon="-1.90701">
        <ele>77</ele>
        <time>2015-12-05T15:40:50Z</time>
      </trkpt>
      <trkpt lat="47.35784" lon="-1.90697">
        <ele>77</ele>
        <time>2015-12-05T15:40:51Z</time>
      </trkpt>
      <trkpt lat="47.35784" lon="-1.90691">
        <ele>77</ele>
        <time>2015-12-05T15:40:52Z</time>
      </trkpt>
      <trkpt lat="47.35783" lon="-1.90687">
        <ele>77</ele>
        <time>2015-12-05T15:40:53Z</time>
      </trkpt>
      <trkpt lat="47.35782" lon="-1.90683">
        <ele>77</ele>
        <time>2015-12-05T15:40:54Z</time>
      </trkpt>
      <trkpt lat="47.35783" lon="-1.90674">
        <ele>77</ele>
        <time>2015-12-05T15:40:55Z</time>
      </trkpt>
      <trkpt lat="47.35783" lon="-1.9067">
        <ele>77</ele>
        <time>2015-12-05T15:40:56Z</time>
      </trkpt>
      <trkpt lat="47.35783" lon="-1.90665">
        <ele>78</ele>
        <time>2015-12-05T15:40:57Z</time>
      </trkpt>
      <trkpt lat="47.35788" lon="-1.9066">
        <ele>78</ele>
        <time>2015-12-05T15:40:58Z</time>
      </trkpt>
      <trkpt lat="47.35791" lon="-1.90656">
        <ele>78</ele>
        <time>2015-12-05T15:40:59Z</time>
      </trkpt>
      <trkpt lat="47.35793" lon="-1.90652">
        <ele>78</ele>
        <time>2015-12-05T15:41:00Z</time>
      </trkpt>
      <trkpt lat="47.35796" lon="-1.90648">
        <ele>78</ele>
        <time>2015-12-05T15:41:01Z</time>
      </trkpt>
      <trkpt lat="47.35799" lon="-1.90642">
        <ele>78</ele>
        <time>2015-12-05T15:41:02Z</time>
      </trkpt>
      <trkpt lat="47.35801" lon="-1.90638">
        <ele>78</ele>
        <time>2015-12-05T15:41:03Z</time>
      </trkpt>
      <trkpt lat="47.35803" lon="-1.90635">
        <ele>78</ele>
        <time>2015-12-05T15:41:04Z</time>
      </trkpt>
      <trkpt lat="47.35807" lon="-1.90631">
        <ele>78</ele>
        <time>2015-12-05T15:41:05Z</time>
      </trkpt>
      <trkpt lat="47.35811" lon="-1.90628">
        <ele>78</ele>
        <time>2015-12-05T15:41:06Z</time>
      </trkpt>
      <trkpt lat="47.35813" lon="-1.90625">
        <ele>79</ele>
        <time>2015-12-05T15:41:07Z</time>
      </trkpt>
      <trkpt lat="47.35816" lon="-1.9062">
        <ele>79</ele>
        <time>2015-12-05T15:41:08Z</time>
      </trkpt>
      <trkpt lat="47.35819" lon="-1.90616">
        <ele>79</ele>
        <time>2015-12-05T15:41:09Z</time>
      </trkpt>
      <trkpt lat="47.35822" lon="-1.90612">
        <ele>79</ele>
        <time>2015-12-05T15:41:10Z</time>
      </trkpt>
      <trkpt lat="47.35825" lon="-1.90608">
        <ele>79</ele>
        <time>2015-12-05T15:41:11Z</time>
      </trkpt>
      <trkpt lat="47.35828" lon="-1.90604">
        <ele>79</ele>
        <time>2015-12-05T15:41:12Z</time>
      </trkpt>
      <trkpt lat="47.35832" lon="-1.90601">
        <ele>79</ele>
        <time>2015-12-05T15:41:13Z</time>
      </trkpt>
      <trkpt lat="47.35835" lon="-1.90597">
        <ele>79</ele>
        <time>2015-12-05T15:41:14Z</time>
      </trkpt>
      <trkpt lat="47.35839" lon="-1.90592">
        <ele>79</ele>
        <time>2015-12-05T15:41:15Z</time>
      </trkpt>
      <trkpt lat="47.35847" lon="-1.90583">
        <ele>78</ele>
        <time>2015-12-05T15:41:16Z</time>
      </trkpt>
      <trkpt lat="47.3585" lon="-1.90578">
        <ele>78</ele>
        <time>2015-12-05T15:41:17Z</time>
      </trkpt>
      <trkpt lat="47.35854" lon="-1.90573">
        <ele>78</ele>
        <time>2015-12-05T15:41:18Z</time>
      </trkpt>
      <trkpt lat="47.35857" lon="-1.90567">
        <ele>77</ele>
        <time>2015-12-05T15:41:19Z</time>
      </trkpt>
      <trkpt lat="47.35861" lon="-1.90555">
        <ele>77</ele>
        <time>2015-12-05T15:41:20Z</time>
      </trkpt>
      <trkpt lat="47.35865" lon="-1.90547">
        <ele>77</ele>
        <time>2015-12-05T15:41:21Z</time>
      </trkpt>
      <trkpt lat="47.35868" lon="-1.90539">
        <ele>77</ele>
        <time>2015-12-05T15:41:22Z</time>
      </trkpt>
      <trkpt lat="47.35872" lon="-1.90534">
        <ele>77</ele>
        <time>2015-12-05T15:41:23Z</time>
      </trkpt>
      <trkpt lat="47.35875" lon="-1.90529">
        <ele>77</ele>
        <time>2015-12-05T15:41:24Z</time>
      </trkpt>
      <trkpt lat="47.35878" lon="-1.90523">
        <ele>76</ele>
        <time>2015-12-05T15:41:25Z</time>
      </trkpt>
      <trkpt lat="47.35881" lon="-1.90515">
        <ele>76</ele>
        <time>2015-12-05T15:41:26Z</time>
      </trkpt>
      <trkpt lat="47.35886" lon="-1.90509">
        <ele>76</ele>
        <time>2015-12-05T15:41:27Z</time>
      </trkpt>
      <trkpt lat="47.3589" lon="-1.90502">
        <ele>76</ele>
        <time>2015-12-05T15:41:28Z</time>
      </trkpt>
      <trkpt lat="47.35895" lon="-1.90496">
        <ele>75</ele>
        <time>2015-12-05T15:41:29Z</time>
      </trkpt>
      <trkpt lat="47.35898" lon="-1.90489">
        <ele>75</ele>
        <time>2015-12-05T15:41:30Z</time>
      </trkpt>
      <trkpt lat="47.35901" lon="-1.90481">
        <ele>75</ele>
        <time>2015-12-05T15:41:31Z</time>
      </trkpt>
      <trkpt lat="47.35904" lon="-1.90474">
        <ele>75</ele>
        <time>2015-12-05T15:41:32Z</time>
      </trkpt>
      <trkpt lat="47.35911" lon="-1.90465">
        <ele>75</ele>
        <time>2015-12-05T15:41:33Z</time>
      </trkpt>
      <trkpt lat="47.35915" lon="-1.90455">
        <ele>75</ele>
        <time>2015-12-05T15:41:34Z</time>
      </trkpt>
      <trkpt lat="47.35919" lon="-1.90447">
        <ele>73</ele>
        <time>2015-12-05T15:41:35Z</time>
      </trkpt>
      <trkpt lat="47.35922" lon="-1.90437">
        <ele>73</ele>
        <time>2015-12-05T15:41:36Z</time>
      </trkpt>
      <trkpt lat="47.35929" lon="-1.90432">
        <ele>73</ele>
        <time>2015-12-05T15:41:37Z</time>
      </trkpt>
      <trkpt lat="47.35932" lon="-1.9042">
        <ele>73</ele>
        <time>2015-12-05T15:41:38Z</time>
      </trkpt>
      <trkpt lat="47.35935" lon="-1.90411">
        <ele>73</ele>
        <time>2015-12-05T15:41:39Z</time>
      </trkpt>
      <trkpt lat="47.35939" lon="-1.90402">
        <ele>73</ele>
        <time>2015-12-05T15:41:40Z</time>
      </trkpt>
      <trkpt lat="47.35945" lon="-1.90393">
        <ele>72</ele>
        <time>2015-12-05T15:41:41Z</time>
      </trkpt>
      <trkpt lat="47.3595" lon="-1.90383">
        <ele>72</ele>
        <time>2015-12-05T15:41:42Z</time>
      </trkpt>
      <trkpt lat="47.35954" lon="-1.90373">
        <ele>72</ele>
        <time>2015-12-05T15:41:43Z</time>
      </trkpt>
      <trkpt lat="47.35959" lon="-1.90364">
        <ele>72</ele>
        <time>2015-12-05T15:41:44Z</time>
      </trkpt>
      <trkpt lat="47.35959" lon="-1.90351">
        <ele>72</ele>
        <time>2015-12-05T15:41:45Z</time>
      </trkpt>
      <trkpt lat="47.35963" lon="-1.90339">
        <ele>72</ele>
        <time>2015-12-05T15:41:46Z</time>
      </trkpt>
      <trkpt lat="47.35966" lon="-1.90329">
        <ele>73</ele>
        <time>2015-12-05T15:41:47Z</time>
      </trkpt>
      <trkpt lat="47.35971" lon="-1.90322">
        <ele>73</ele>
        <time>2015-12-05T15:41:48Z</time>
      </trkpt>
      <trkpt lat="47.35975" lon="-1.90313">
        <ele>73</ele>
        <time>2015-12-05T15:41:49Z</time>
      </trkpt>
      <trkpt lat="47.35979" lon="-1.90305">
        <ele>73</ele>
        <time>2015-12-05T15:41:50Z</time>
      </trkpt>
      <trkpt lat="47.35983" lon="-1.90293">
        <ele>73</ele>
        <time>2015-12-05T15:41:52Z</time>
      </trkpt>
      <trkpt lat="47.35989" lon="-1.90286">
        <ele>73</ele>
        <time>2015-12-05T15:41:53Z</time>
      </trkpt>
      <trkpt lat="47.35994" lon="-1.9028">
        <ele>73</ele>
        <time>2015-12-05T15:41:54Z</time>
      </trkpt>
      <trkpt lat="47.35998" lon="-1.90274">
        <ele>73</ele>
        <time>2015-12-05T15:41:55Z</time>
      </trkpt>
      <trkpt lat="47.36004" lon="-1.9027">
        <ele>74</ele>
        <time>2015-12-05T15:41:56Z</time>
      </trkpt>
      <trkpt lat="47.36007" lon="-1.90266">
        <ele>74</ele>
        <time>2015-12-05T15:41:57Z</time>
      </trkpt>
      <trkpt lat="47.3601" lon="-1.90261">
        <ele>74</ele>
        <time>2015-12-05T15:41:58Z</time>
      </trkpt>
      <trkpt lat="47.36017" lon="-1.90255">
        <ele>75</ele>
        <time>2015-12-05T15:42:00Z</time>
      </trkpt>
      <trkpt lat="47.36022" lon="-1.90249">
        <ele>76</ele>
        <time>2015-12-05T15:42:01Z</time>
      </trkpt>
      <trkpt lat="47.36025" lon="-1.90245">
        <ele>76</ele>
        <time>2015-12-05T15:42:02Z</time>
      </trkpt>
      <trkpt lat="47.36027" lon="-1.90242">
        <ele>76</ele>
        <time>2015-12-05T15:42:03Z</time>
      </trkpt>
      <trkpt lat="47.36032" lon="-1.90239">
        <ele>77</ele>
        <time>2015-12-05T15:42:04Z</time>
      </trkpt>
      <trkpt lat="47.36035" lon="-1.90233">
        <ele>77</ele>
        <time>2015-12-05T15:42:05Z</time>
      </trkpt>
      <trkpt lat="47.36038" lon="-1.90228">
        <ele>77</ele>
        <time>2015-12-05T15:42:07Z</time>
      </trkpt>
      <trkpt lat="47.36044" lon="-1.90227">
        <ele>77</ele>
        <time>2015-12-05T15:42:08Z</time>
      </trkpt>
      <trkpt lat="47.36047" lon="-1.90224">
        <ele>77</ele>
        <time>2015-12-05T15:42:10Z</time>
      </trkpt>
      <trkpt lat="47.36052" lon="-1.9022">
        <ele>77</ele>
        <time>2015-12-05T15:42:13Z</time>
      </trkpt>
      <trkpt lat="47.36055" lon="-1.90218">
        <ele>78</ele>
        <time>2015-12-05T15:42:15Z</time>
      </trkpt>
      <trkpt lat="47.36056" lon="-1.90211">
        <ele>78</ele>
        <time>2015-12-05T15:42:17Z</time>
      </trkpt>
      <trkpt lat="47.36057" lon="-1.90206">
        <ele>78</ele>
        <time>2015-12-05T15:42:19Z</time>
      </trkpt>
      <trkpt lat="47.3606" lon="-1.902">
        <ele>78</ele>
        <time>2015-12-05T15:42:21Z</time>
      </trkpt>
      <trkpt lat="47.36062" lon="-1.90196">
        <ele>78</ele>
        <time>2015-12-05T15:42:23Z</time>
      </trkpt>
      <trkpt lat="47.36065" lon="-1.90195">
        <ele>78</ele>
        <time>2015-12-05T15:42:25Z</time>
      </trkpt>
      <trkpt lat="47.36067" lon="-1.90192">
        <ele>78</ele>
        <time>2015-12-05T15:42:26Z</time>
      </trkpt>
      <trkpt lat="47.3607" lon="-1.90187">
        <ele>78</ele>
        <time>2015-12-05T15:42:28Z</time>
      </trkpt>
      <trkpt lat="47.36072" lon="-1.90184">
        <ele>79</ele>
        <time>2015-12-05T15:42:29Z</time>
      </trkpt>
      <trkpt lat="47.36075" lon="-1.9018">
        <ele>79</ele>
        <time>2015-12-05T15:42:30Z</time>
      </trkpt>
      <trkpt lat="47.36077" lon="-1.90177">
        <ele>79</ele>
        <time>2015-12-05T15:42:31Z</time>
      </trkpt>
      <trkpt lat="47.36079" lon="-1.90174">
        <ele>79</ele>
        <time>2015-12-05T15:42:32Z</time>
      </trkpt>
      <trkpt lat="47.36083" lon="-1.9017">
        <ele>80</ele>
        <time>2015-12-05T15:42:33Z</time>
      </trkpt>
      <trkpt lat="47.36086" lon="-1.90169">
        <ele>80</ele>
        <time>2015-12-05T15:42:34Z</time>
      </trkpt>
      <trkpt lat="47.36089" lon="-1.90167">
        <ele>80</ele>
        <time>2015-12-05T15:42:35Z</time>
      </trkpt>
      <trkpt lat="47.36091" lon="-1.90164">
        <ele>79</ele>
        <time>2015-12-05T15:42:36Z</time>
      </trkpt>
      <trkpt lat="47.36095" lon="-1.90164">
        <ele>79</ele>
        <time>2015-12-05T15:42:37Z</time>
      </trkpt>
      <trkpt lat="47.361" lon="-1.90161">
        <ele>79</ele>
        <time>2015-12-05T15:42:39Z</time>
      </trkpt>
      <trkpt lat="47.36103" lon="-1.90158">
        <ele>79</ele>
        <time>2015-12-05T15:42:40Z</time>
      </trkpt>
      <trkpt lat="47.36107" lon="-1.90157">
        <ele>79</ele>
        <time>2015-12-05T15:42:41Z</time>
      </trkpt>
      <trkpt lat="47.36112" lon="-1.90157">
        <ele>78</ele>
        <time>2015-12-05T15:42:42Z</time>
      </trkpt>
      <trkpt lat="47.36117" lon="-1.90155">
        <ele>78</ele>
        <time>2015-12-05T15:42:43Z</time>
      </trkpt>
      <trkpt lat="47.36123" lon="-1.90157">
        <ele>78</ele>
        <time>2015-12-05T15:42:44Z</time>
      </trkpt>
      <trkpt lat="47.3613" lon="-1.9016">
        <ele>78</ele>
        <time>2015-12-05T15:42:45Z</time>
      </trkpt>
      <trkpt lat="47.36136" lon="-1.90162">
        <ele>78</ele>
        <time>2015-12-05T15:42:46Z</time>
      </trkpt>
      <trkpt lat="47.36143" lon="-1.90163">
        <ele>77</ele>
        <time>2015-12-05T15:42:47Z</time>
      </trkpt>
      <trkpt lat="47.36151" lon="-1.90165">
        <ele>77</ele>
        <time>2015-12-05T15:42:48Z</time>
      </trkpt>
      <trkpt lat="47.36159" lon="-1.90168">
        <ele>76</ele>
        <time>2015-12-05T15:42:49Z</time>
      </trkpt>
      <trkpt lat="47.36167" lon="-1.90172">
        <ele>75</ele>
        <time>2015-12-05T15:42:50Z</time>
      </trkpt>
      <trkpt lat="47.36174" lon="-1.90176">
        <ele>75</ele>
        <time>2015-12-05T15:42:51Z</time>
      </trkpt>
      <trkpt lat="47.36181" lon="-1.90178">
        <ele>74</ele>
        <time>2015-12-05T15:42:52Z</time>
      </trkpt>
      <trkpt lat="47.36189" lon="-1.90182">
        <ele>74</ele>
        <time>2015-12-05T15:42:53Z</time>
      </trkpt>
      <trkpt lat="47.36196" lon="-1.90186">
        <ele>73</ele>
        <time>2015-12-05T15:42:54Z</time>
      </trkpt>
      <trkpt lat="47.36203" lon="-1.9019">
        <ele>73</ele>
        <time>2015-12-05T15:42:55Z</time>
      </trkpt>
      <trkpt lat="47.3621" lon="-1.90196">
        <ele>73</ele>
        <time>2015-12-05T15:42:56Z</time>
      </trkpt>
      <trkpt lat="47.36216" lon="-1.90202">
        <ele>73</ele>
        <time>2015-12-05T15:42:57Z</time>
      </trkpt>
      <trkpt lat="47.36223" lon="-1.90208">
        <ele>72</ele>
        <time>2015-12-05T15:42:58Z</time>
      </trkpt>
      <trkpt lat="47.36228" lon="-1.90218">
        <ele>72</ele>
        <time>2015-12-05T15:42:59Z</time>
      </trkpt>
      <trkpt lat="47.36234" lon="-1.90226">
        <ele>72</ele>
        <time>2015-12-05T15:43:00Z</time>
      </trkpt>
      <trkpt lat="47.36239" lon="-1.90233">
        <ele>71</ele>
        <time>2015-12-05T15:43:01Z</time>
      </trkpt>
      <trkpt lat="47.36244" lon="-1.90244">
        <ele>71</ele>
        <time>2015-12-05T15:43:02Z</time>
      </trkpt>
      <trkpt lat="47.3625" lon="-1.90252">
        <ele>70</ele>
        <time>2015-12-05T15:43:03Z</time>
      </trkpt>
      <trkpt lat="47.36255" lon="-1.90261">
        <ele>70</ele>
        <time>2015-12-05T15:43:04Z</time>
      </trkpt>
      <trkpt lat="47.3626" lon="-1.90269">
        <ele>70</ele>
        <time>2015-12-05T15:43:05Z</time>
      </trkpt>
      <trkpt lat="47.36267" lon="-1.90278">
        <ele>70</ele>
        <time>2015-12-05T15:43:06Z</time>
      </trkpt>
      <trkpt lat="47.36273" lon="-1.90287">
        <ele>70</ele>
        <time>2015-12-05T15:43:07Z</time>
      </trkpt>
      <trkpt lat="47.36278" lon="-1.90295">
        <ele>70</ele>
        <time>2015-12-05T15:43:08Z</time>
      </trkpt>
      <trkpt lat="47.36285" lon="-1.90306">
        <ele>70</ele>
        <time>2015-12-05T15:43:09Z</time>
      </trkpt>
      <trkpt lat="47.36291" lon="-1.90315">
        <ele>70</ele>
        <time>2015-12-05T15:43:10Z</time>
      </trkpt>
      <trkpt lat="47.36297" lon="-1.90325">
        <ele>70</ele>
        <time>2015-12-05T15:43:11Z</time>
      </trkpt>
      <trkpt lat="47.36304" lon="-1.90336">
        <ele>70</ele>
        <time>2015-12-05T15:43:12Z</time>
      </trkpt>
      <trkpt lat="47.3631" lon="-1.90345">
        <ele>70</ele>
        <time>2015-12-05T15:43:13Z</time>
      </trkpt>
      <trkpt lat="47.36316" lon="-1.90355">
        <ele>70</ele>
        <time>2015-12-05T15:43:14Z</time>
      </trkpt>
      <trkpt lat="47.3632" lon="-1.90363">
        <ele>70</ele>
        <time>2015-12-05T15:43:15Z</time>
      </trkpt>
      <trkpt lat="47.36325" lon="-1.90372">
        <ele>70</ele>
        <time>2015-12-05T15:43:16Z</time>
      </trkpt>
      <trkpt lat="47.36332" lon="-1.9038">
        <ele>70</ele>
        <time>2015-12-05T15:43:17Z</time>
      </trkpt>
      <trkpt lat="47.36338" lon="-1.9039">
        <ele>69</ele>
        <time>2015-12-05T15:43:18Z</time>
      </trkpt>
      <trkpt lat="47.36344" lon="-1.90399">
        <ele>69</ele>
        <time>2015-12-05T15:43:19Z</time>
      </trkpt>
      <trkpt lat="47.3635" lon="-1.90408">
        <ele>68</ele>
        <time>2015-12-05T15:43:20Z</time>
      </trkpt>
      <trkpt lat="47.36356" lon="-1.90417">
        <ele>69</ele>
        <time>2015-12-05T15:43:21Z</time>
      </trkpt>
      <trkpt lat="47.36362" lon="-1.90425">
        <ele>68</ele>
        <time>2015-12-05T15:43:22Z</time>
      </trkpt>
      <trkpt lat="47.36368" lon="-1.90434">
        <ele>68</ele>
        <time>2015-12-05T15:43:23Z</time>
      </trkpt>
      <trkpt lat="47.36374" lon="-1.90444">
        <ele>68</ele>
        <time>2015-12-05T15:43:24Z</time>
      </trkpt>
      <trkpt lat="47.36379" lon="-1.90452">
        <ele>68</ele>
        <time>2015-12-05T15:43:25Z</time>
      </trkpt>
      <trkpt lat="47.36385" lon="-1.9046">
        <ele>68</ele>
        <time>2015-12-05T15:43:26Z</time>
      </trkpt>
      <trkpt lat="47.36389" lon="-1.90469">
        <ele>67</ele>
        <time>2015-12-05T15:43:27Z</time>
      </trkpt>
      <trkpt lat="47.36395" lon="-1.90477">
        <ele>67</ele>
        <time>2015-12-05T15:43:28Z</time>
      </trkpt>
      <trkpt lat="47.364" lon="-1.90485">
        <ele>67</ele>
        <time>2015-12-05T15:43:29Z</time>
      </trkpt>
      <trkpt lat="47.36402" lon="-1.9049">
        <ele>67</ele>
        <time>2015-12-05T15:43:30Z</time>
      </trkpt>
      <trkpt lat="47.36407" lon="-1.90497">
        <ele>67</ele>
        <time>2015-12-05T15:43:31Z</time>
      </trkpt>
      <trkpt lat="47.36412" lon="-1.90504">
        <ele>67</ele>
        <time>2015-12-05T15:43:32Z</time>
      </trkpt>
      <trkpt lat="47.36417" lon="-1.90513">
        <ele>67</ele>
        <time>2015-12-05T15:43:33Z</time>
      </trkpt>
      <trkpt lat="47.36422" lon="-1.9052">
        <ele>67</ele>
        <time>2015-12-05T15:43:34Z</time>
      </trkpt>
      <trkpt lat="47.36427" lon="-1.90528">
        <ele>67</ele>
        <time>2015-12-05T15:43:35Z</time>
      </trkpt>
      <trkpt lat="47.36433" lon="-1.90536">
        <ele>67</ele>
        <time>2015-12-05T15:43:36Z</time>
      </trkpt>
      <trkpt lat="47.36437" lon="-1.90544">
        <ele>67</ele>
        <time>2015-12-05T15:43:37Z</time>
      </trkpt>
      <trkpt lat="47.36442" lon="-1.90552">
        <ele>67</ele>
        <time>2015-12-05T15:43:38Z</time>
      </trkpt>
      <trkpt lat="47.36447" lon="-1.9056">
        <ele>67</ele>
        <time>2015-12-05T15:43:39Z</time>
      </trkpt>
      <trkpt lat="47.36452" lon="-1.90567">
        <ele>67</ele>
        <time>2015-12-05T15:43:40Z</time>
      </trkpt>
      <trkpt lat="47.36457" lon="-1.90575">
        <ele>67</ele>
        <time>2015-12-05T15:43:41Z</time>
      </trkpt>
      <trkpt lat="47.36462" lon="-1.90582">
        <ele>67</ele>
        <time>2015-12-05T15:43:42Z</time>
      </trkpt>
      <trkpt lat="47.36467" lon="-1.9059">
        <ele>66</ele>
        <time>2015-12-05T15:43:43Z</time>
      </trkpt>
      <trkpt lat="47.36472" lon="-1.90598">
        <ele>66</ele>
        <time>2015-12-05T15:43:44Z</time>
      </trkpt>
      <trkpt lat="47.36477" lon="-1.90606">
        <ele>66</ele>
        <time>2015-12-05T15:43:45Z</time>
      </trkpt>
      <trkpt lat="47.36481" lon="-1.90614">
        <ele>66</ele>
        <time>2015-12-05T15:43:46Z</time>
      </trkpt>
      <trkpt lat="47.36485" lon="-1.90621">
        <ele>66</ele>
        <time>2015-12-05T15:43:47Z</time>
      </trkpt>
      <trkpt lat="47.36489" lon="-1.90629">
        <ele>66</ele>
        <time>2015-12-05T15:43:48Z</time>
      </trkpt>
      <trkpt lat="47.36494" lon="-1.90638">
        <ele>67</ele>
        <time>2015-12-05T15:43:49Z</time>
      </trkpt>
      <trkpt lat="47.36499" lon="-1.90645">
        <ele>67</ele>
        <time>2015-12-05T15:43:50Z</time>
      </trkpt>
      <trkpt lat="47.36503" lon="-1.90653">
        <ele>69</ele>
        <time>2015-12-05T15:43:51Z</time>
      </trkpt>
      <trkpt lat="47.36508" lon="-1.90662">
        <ele>69</ele>
        <time>2015-12-05T15:43:52Z</time>
      </trkpt>
      <trkpt lat="47.36512" lon="-1.9067">
        <ele>70</ele>
        <time>2015-12-05T15:43:53Z</time>
      </trkpt>
      <trkpt lat="47.36516" lon="-1.90678">
        <ele>71</ele>
        <time>2015-12-05T15:43:54Z</time>
      </trkpt>
      <trkpt lat="47.36519" lon="-1.90684">
        <ele>72</ele>
        <time>2015-12-05T15:43:55Z</time>
      </trkpt>
      <trkpt lat="47.36521" lon="-1.90689">
        <ele>72</ele>
        <time>2015-12-05T15:43:56Z</time>
      </trkpt>
      <trkpt lat="47.36524" lon="-1.90697">
        <ele>73</ele>
        <time>2015-12-05T15:43:57Z</time>
      </trkpt>
      <trkpt lat="47.36528" lon="-1.90705">
        <ele>73</ele>
        <time>2015-12-05T15:43:58Z</time>
      </trkpt>
      <trkpt lat="47.36528" lon="-1.9071">
        <ele>73</ele>
        <time>2015-12-05T15:43:59Z</time>
      </trkpt>
      <trkpt lat="47.36531" lon="-1.90717">
        <ele>73</ele>
        <time>2015-12-05T15:44:00Z</time>
      </trkpt>
      <trkpt lat="47.36534" lon="-1.90723">
        <ele>73</ele>
        <time>2015-12-05T15:44:01Z</time>
      </trkpt>
      <trkpt lat="47.36538" lon="-1.9073">
        <ele>74</ele>
        <time>2015-12-05T15:44:02Z</time>
      </trkpt>
      <trkpt lat="47.3654" lon="-1.90736">
        <ele>74</ele>
        <time>2015-12-05T15:44:03Z</time>
      </trkpt>
      <trkpt lat="47.36543" lon="-1.90742">
        <ele>74</ele>
        <time>2015-12-05T15:44:04Z</time>
      </trkpt>
      <trkpt lat="47.36546" lon="-1.90747">
        <ele>75</ele>
        <time>2015-12-05T15:44:05Z</time>
      </trkpt>
      <trkpt lat="47.36548" lon="-1.90751">
        <ele>76</ele>
        <time>2015-12-05T15:44:06Z</time>
      </trkpt>
      <trkpt lat="47.3655" lon="-1.90755">
        <ele>76</ele>
        <time>2015-12-05T15:44:07Z</time>
      </trkpt>
      <trkpt lat="47.36552" lon="-1.9076">
        <ele>77</ele>
        <time>2015-12-05T15:44:08Z</time>
      </trkpt>
      <trkpt lat="47.36554" lon="-1.90764">
        <ele>77</ele>
        <time>2015-12-05T15:44:09Z</time>
      </trkpt>
      <trkpt lat="47.36556" lon="-1.90769">
        <ele>77</ele>
        <time>2015-12-05T15:44:10Z</time>
      </trkpt>
      <trkpt lat="47.36558" lon="-1.90773">
        <ele>77</ele>
        <time>2015-12-05T15:44:11Z</time>
      </trkpt>
      <trkpt lat="47.3656" lon="-1.90778">
        <ele>77</ele>
        <time>2015-12-05T15:44:12Z</time>
      </trkpt>
      <trkpt lat="47.36562" lon="-1.90783">
        <ele>77</ele>
        <time>2015-12-05T15:44:13Z</time>
      </trkpt>
      <trkpt lat="47.36564" lon="-1.90788">
        <ele>77</ele>
        <time>2015-12-05T15:44:14Z</time>
      </trkpt>
      <trkpt lat="47.36564" lon="-1.90792">
        <ele>77</ele>
        <time>2015-12-05T15:44:15Z</time>
      </trkpt>
      <trkpt lat="47.36563" lon="-1.90796">
        <ele>77</ele>
        <time>2015-12-05T15:44:16Z</time>
      </trkpt>
      <trkpt lat="47.36565" lon="-1.90801">
        <ele>77</ele>
        <time>2015-12-05T15:44:17Z</time>
      </trkpt>
      <trkpt lat="47.36565" lon="-1.90807">
        <ele>78</ele>
        <time>2015-12-05T15:44:18Z</time>
      </trkpt>
      <trkpt lat="47.36564" lon="-1.90812">
        <ele>78</ele>
        <time>2015-12-05T15:44:19Z</time>
      </trkpt>
      <trkpt lat="47.36562" lon="-1.90822">
        <ele>78</ele>
        <time>2015-12-05T15:44:22Z</time>
      </trkpt>
      <trkpt lat="47.36559" lon="-1.90827">
        <ele>78</ele>
        <time>2015-12-05T15:44:23Z</time>
      </trkpt>
      <trkpt lat="47.36561" lon="-1.90836">
        <ele>79</ele>
        <time>2015-12-05T15:44:24Z</time>
      </trkpt>
      <trkpt lat="47.36561" lon="-1.90843">
        <ele>78</ele>
        <time>2015-12-05T15:44:26Z</time>
      </trkpt>
      <trkpt lat="47.36564" lon="-1.90856">
        <ele>78</ele>
        <time>2015-12-05T15:44:27Z</time>
      </trkpt>
      <trkpt lat="47.36563" lon="-1.90864">
        <ele>78</ele>
        <time>2015-12-05T15:44:28Z</time>
      </trkpt>
      <trkpt lat="47.36563" lon="-1.90871">
        <ele>78</ele>
        <time>2015-12-05T15:44:29Z</time>
      </trkpt>
      <trkpt lat="47.36564" lon="-1.90877">
        <ele>78</ele>
        <time>2015-12-05T15:44:30Z</time>
      </trkpt>
      <trkpt lat="47.36565" lon="-1.90883">
        <ele>78</ele>
        <time>2015-12-05T15:44:32Z</time>
      </trkpt>
      <trkpt lat="47.36567" lon="-1.90889">
        <ele>78</ele>
        <time>2015-12-05T15:44:34Z</time>
      </trkpt>
      <trkpt lat="47.36571" lon="-1.909">
        <ele>78</ele>
        <time>2015-12-05T15:44:35Z</time>
      </trkpt>
      <trkpt lat="47.36573" lon="-1.90905">
        <ele>79</ele>
        <time>2015-12-05T15:44:36Z</time>
      </trkpt>
      <trkpt lat="47.36575" lon="-1.90911">
        <ele>79</ele>
        <time>2015-12-05T15:44:37Z</time>
      </trkpt>
      <trkpt lat="47.36577" lon="-1.90916">
        <ele>79</ele>
        <time>2015-12-05T15:44:38Z</time>
      </trkpt>
      <trkpt lat="47.36579" lon="-1.90921">
        <ele>79</ele>
        <time>2015-12-05T15:44:39Z</time>
      </trkpt>
      <trkpt lat="47.36581" lon="-1.90927">
        <ele>79</ele>
        <time>2015-12-05T15:44:40Z</time>
      </trkpt>
      <trkpt lat="47.36583" lon="-1.90932">
        <ele>78</ele>
        <time>2015-12-05T15:44:41Z</time>
      </trkpt>
      <trkpt lat="47.36585" lon="-1.90937">
        <ele>80</ele>
        <time>2015-12-05T15:44:42Z</time>
      </trkpt>
      <trkpt lat="47.36588" lon="-1.90943">
        <ele>80</ele>
        <time>2015-12-05T15:44:43Z</time>
      </trkpt>
      <trkpt lat="47.36591" lon="-1.90949">
        <ele>80</ele>
        <time>2015-12-05T15:44:44Z</time>
      </trkpt>
      <trkpt lat="47.36594" lon="-1.90955">
        <ele>80</ele>
        <time>2015-12-05T15:44:45Z</time>
      </trkpt>
      <trkpt lat="47.36596" lon="-1.90959">
        <ele>80</ele>
        <time>2015-12-05T15:44:46Z</time>
      </trkpt>
      <trkpt lat="47.36598" lon="-1.90964">
        <ele>80</ele>
        <time>2015-12-05T15:44:47Z</time>
      </trkpt>
      <trkpt lat="47.366" lon="-1.90969">
        <ele>80</ele>
        <time>2015-12-05T15:44:48Z</time>
      </trkpt>
      <trkpt lat="47.36601" lon="-1.90975">
        <ele>80</ele>
        <time>2015-12-05T15:44:49Z</time>
      </trkpt>
      <trkpt lat="47.36603" lon="-1.90981">
        <ele>80</ele>
        <time>2015-12-05T15:44:50Z</time>
      </trkpt>
      <trkpt lat="47.36605" lon="-1.90985">
        <ele>80</ele>
        <time>2015-12-05T15:44:51Z</time>
      </trkpt>
      <trkpt lat="47.36607" lon="-1.9099">
        <ele>80</ele>
        <time>2015-12-05T15:44:52Z</time>
      </trkpt>
      <trkpt lat="47.36609" lon="-1.90995">
        <ele>80</ele>
        <time>2015-12-05T15:44:53Z</time>
      </trkpt>
      <trkpt lat="47.3661" lon="-1.91">
        <ele>80</ele>
        <time>2015-12-05T15:44:54Z</time>
      </trkpt>
      <trkpt lat="47.36611" lon="-1.91004">
        <ele>79</ele>
        <time>2015-12-05T15:44:55Z</time>
      </trkpt>
      <trkpt lat="47.36613" lon="-1.91007">
        <ele>79</ele>
        <time>2015-12-05T15:44:56Z</time>
      </trkpt>
      <trkpt lat="47.36616" lon="-1.91012">
        <ele>79</ele>
        <time>2015-12-05T15:44:58Z</time>
      </trkpt>
      <trkpt lat="47.36618" lon="-1.91015">
        <ele>79</ele>
        <time>2015-12-05T15:44:59Z</time>
      </trkpt>
      <trkpt lat="47.36621" lon="-1.91009">
        <ele>79</ele>
        <time>2015-12-05T15:45:00Z</time>
      </trkpt>
      <trkpt lat="47.36624" lon="-1.91007">
        <ele>79</ele>
        <time>2015-12-05T15:45:01Z</time>
      </trkpt>
      <trkpt lat="47.36627" lon="-1.91006">
        <ele>79</ele>
        <time>2015-12-05T15:45:02Z</time>
      </trkpt>
      <trkpt lat="47.36629" lon="-1.91">
        <ele>80</ele>
        <time>2015-12-05T15:45:03Z</time>
      </trkpt>
      <trkpt lat="47.36632" lon="-1.90996">
        <ele>80</ele>
        <time>2015-12-05T15:45:04Z</time>
      </trkpt>
      <trkpt lat="47.36635" lon="-1.90993">
        <ele>80</ele>
        <time>2015-12-05T15:45:05Z</time>
      </trkpt>
      <trkpt lat="47.36638" lon="-1.90991">
        <ele>80</ele>
        <time>2015-12-05T15:45:06Z</time>
      </trkpt>
      <trkpt lat="47.36642" lon="-1.90991">
        <ele>81</ele>
        <time>2015-12-05T15:45:07Z</time>
      </trkpt>
      <trkpt lat="47.36645" lon="-1.9099">
        <ele>81</ele>
        <time>2015-12-05T15:45:08Z</time>
      </trkpt>
      <trkpt lat="47.36649" lon="-1.90989">
        <ele>81</ele>
        <time>2015-12-05T15:45:09Z</time>
      </trkpt>
      <trkpt lat="47.36652" lon="-1.90988">
        <ele>81</ele>
        <time>2015-12-05T15:45:10Z</time>
      </trkpt>
      <trkpt lat="47.36655" lon="-1.90988">
        <ele>81</ele>
        <time>2015-12-05T15:45:11Z</time>
      </trkpt>
      <trkpt lat="47.36661" lon="-1.9099">
        <ele>81</ele>
        <time>2015-12-05T15:45:12Z</time>
      </trkpt>
      <trkpt lat="47.36665" lon="-1.90991">
        <ele>81</ele>
        <time>2015-12-05T15:45:13Z</time>
      </trkpt>
      <trkpt lat="47.36669" lon="-1.90991">
        <ele>81</ele>
        <time>2015-12-05T15:45:14Z</time>
      </trkpt>
      <trkpt lat="47.36673" lon="-1.90992">
        <ele>81</ele>
        <time>2015-12-05T15:45:15Z</time>
      </trkpt>
      <trkpt lat="47.36676" lon="-1.90991">
        <ele>81</ele>
        <time>2015-12-05T15:45:16Z</time>
      </trkpt>
      <trkpt lat="47.36681" lon="-1.9099">
        <ele>82</ele>
        <time>2015-12-05T15:45:17Z</time>
      </trkpt>
      <trkpt lat="47.36685" lon="-1.90989">
        <ele>82</ele>
        <time>2015-12-05T15:45:18Z</time>
      </trkpt>
      <trkpt lat="47.36689" lon="-1.90989">
        <ele>82</ele>
        <time>2015-12-05T15:45:19Z</time>
      </trkpt>
      <trkpt lat="47.36693" lon="-1.90988">
        <ele>82</ele>
        <time>2015-12-05T15:45:20Z</time>
      </trkpt>
      <trkpt lat="47.36697" lon="-1.90988">
        <ele>82</ele>
        <time>2015-12-05T15:45:21Z</time>
      </trkpt>
      <trkpt lat="47.36701" lon="-1.90988">
        <ele>82</ele>
        <time>2015-12-05T15:45:22Z</time>
      </trkpt>
      <trkpt lat="47.36705" lon="-1.90993">
        <ele>82</ele>
        <time>2015-12-05T15:45:23Z</time>
      </trkpt>
      <trkpt lat="47.3671" lon="-1.90996">
        <ele>82</ele>
        <time>2015-12-05T15:45:24Z</time>
      </trkpt>
      <trkpt lat="47.36715" lon="-1.91">
        <ele>82</ele>
        <time>2015-12-05T15:45:25Z</time>
      </trkpt>
      <trkpt lat="47.3672" lon="-1.91003">
        <ele>82</ele>
        <time>2015-12-05T15:45:26Z</time>
      </trkpt>
      <trkpt lat="47.36725" lon="-1.91007">
        <ele>82</ele>
        <time>2015-12-05T15:45:27Z</time>
      </trkpt>
      <trkpt lat="47.36727" lon="-1.91016">
        <ele>82</ele>
        <time>2015-12-05T15:45:28Z</time>
      </trkpt>
      <trkpt lat="47.3673" lon="-1.91022">
        <ele>82</ele>
        <time>2015-12-05T15:45:29Z</time>
      </trkpt>
      <trkpt lat="47.36734" lon="-1.91026">
        <ele>82</ele>
        <time>2015-12-05T15:45:30Z</time>
      </trkpt>
      <trkpt lat="47.36737" lon="-1.91033">
        <ele>82</ele>
        <time>2015-12-05T15:45:31Z</time>
      </trkpt>
      <trkpt lat="47.3674" lon="-1.9104">
        <ele>82</ele>
        <time>2015-12-05T15:45:32Z</time>
      </trkpt>
      <trkpt lat="47.36744" lon="-1.91046">
        <ele>82</ele>
        <time>2015-12-05T15:45:33Z</time>
      </trkpt>
      <trkpt lat="47.36747" lon="-1.91051">
        <ele>82</ele>
        <time>2015-12-05T15:45:34Z</time>
      </trkpt>
      <trkpt lat="47.3675" lon="-1.91059">
        <ele>82</ele>
        <time>2015-12-05T15:45:35Z</time>
      </trkpt>
      <trkpt lat="47.36753" lon="-1.91064">
        <ele>82</ele>
        <time>2015-12-05T15:45:36Z</time>
      </trkpt>
      <trkpt lat="47.36756" lon="-1.9107">
        <ele>82</ele>
        <time>2015-12-05T15:45:37Z</time>
      </trkpt>
      <trkpt lat="47.36759" lon="-1.91076">
        <ele>82</ele>
        <time>2015-12-05T15:45:38Z</time>
      </trkpt>
      <trkpt lat="47.36761" lon="-1.91085">
        <ele>82</ele>
        <time>2015-12-05T15:45:39Z</time>
      </trkpt>
      <trkpt lat="47.36765" lon="-1.91092">
        <ele>82</ele>
        <time>2015-12-05T15:45:40Z</time>
      </trkpt>
      <trkpt lat="47.36767" lon="-1.91099">
        <ele>82</ele>
        <time>2015-12-05T15:45:41Z</time>
      </trkpt>
      <trkpt lat="47.36769" lon="-1.91106">
        <ele>82</ele>
        <time>2015-12-05T15:45:42Z</time>
      </trkpt>
      <trkpt lat="47.36772" lon="-1.91113">
        <ele>82</ele>
        <time>2015-12-05T15:45:43Z</time>
      </trkpt>
      <trkpt lat="47.36775" lon="-1.91117">
        <ele>82</ele>
        <time>2015-12-05T15:45:44Z</time>
      </trkpt>
      <trkpt lat="47.36778" lon="-1.91124">
        <ele>82</ele>
        <time>2015-12-05T15:45:45Z</time>
      </trkpt>
      <trkpt lat="47.3678" lon="-1.91131">
        <ele>82</ele>
        <time>2015-12-05T15:45:46Z</time>
      </trkpt>
      <trkpt lat="47.36782" lon="-1.91138">
        <ele>82</ele>
        <time>2015-12-05T15:45:48Z</time>
      </trkpt>
      <trkpt lat="47.36784" lon="-1.91148">
        <ele>82</ele>
        <time>2015-12-05T15:45:49Z</time>
      </trkpt>
      <trkpt lat="47.36786" lon="-1.91154">
        <ele>82</ele>
        <time>2015-12-05T15:45:50Z</time>
      </trkpt>
      <trkpt lat="47.36788" lon="-1.9116">
        <ele>82</ele>
        <time>2015-12-05T15:45:51Z</time>
      </trkpt>
      <trkpt lat="47.36791" lon="-1.91177">
        <ele>81</ele>
        <time>2015-12-05T15:45:52Z</time>
      </trkpt>
      <trkpt lat="47.36793" lon="-1.91187">
        <ele>81</ele>
        <time>2015-12-05T15:45:53Z</time>
      </trkpt>
      <trkpt lat="47.36795" lon="-1.91195">
        <ele>81</ele>
        <time>2015-12-05T15:45:54Z</time>
      </trkpt>
      <trkpt lat="47.36796" lon="-1.91198">
        <ele>81</ele>
        <time>2015-12-05T15:45:55Z</time>
      </trkpt>
      <trkpt lat="47.36802" lon="-1.91211">
        <ele>80</ele>
        <time>2015-12-05T15:45:56Z</time>
      </trkpt>
      <trkpt lat="47.36806" lon="-1.9122">
        <ele>80</ele>
        <time>2015-12-05T15:45:57Z</time>
      </trkpt>
      <trkpt lat="47.36809" lon="-1.9123">
        <ele>80</ele>
        <time>2015-12-05T15:45:58Z</time>
      </trkpt>
      <trkpt lat="47.36813" lon="-1.91237">
        <ele>79</ele>
        <time>2015-12-05T15:45:59Z</time>
      </trkpt>
      <trkpt lat="47.36818" lon="-1.91245">
        <ele>79</ele>
        <time>2015-12-05T15:46:00Z</time>
      </trkpt>
      <trkpt lat="47.36826" lon="-1.91256">
        <ele>77</ele>
        <time>2015-12-05T15:46:01Z</time>
      </trkpt>
      <trkpt lat="47.36831" lon="-1.91266">
        <ele>77</ele>
        <time>2015-12-05T15:46:02Z</time>
      </trkpt>
      <trkpt lat="47.36834" lon="-1.91274">
        <ele>77</ele>
        <time>2015-12-05T15:46:03Z</time>
      </trkpt>
      <trkpt lat="47.36838" lon="-1.91282">
        <ele>77</ele>
        <time>2015-12-05T15:46:04Z</time>
      </trkpt>
      <trkpt lat="47.36842" lon="-1.9129">
        <ele>77</ele>
        <time>2015-12-05T15:46:05Z</time>
      </trkpt>
      <trkpt lat="47.36846" lon="-1.91301">
        <ele>77</ele>
        <time>2015-12-05T15:46:06Z</time>
      </trkpt>
      <trkpt lat="47.3685" lon="-1.91309">
        <ele>77</ele>
        <time>2015-12-05T15:46:07Z</time>
      </trkpt>
      <trkpt lat="47.36854" lon="-1.91318">
        <ele>76</ele>
        <time>2015-12-05T15:46:08Z</time>
      </trkpt>
      <trkpt lat="47.36853" lon="-1.91327">
        <ele>76</ele>
        <time>2015-12-05T15:46:09Z</time>
      </trkpt>
      <trkpt lat="47.36856" lon="-1.91337">
        <ele>76</ele>
        <time>2015-12-05T15:46:10Z</time>
      </trkpt>
      <trkpt lat="47.36859" lon="-1.91346">
        <ele>76</ele>
        <time>2015-12-05T15:46:11Z</time>
      </trkpt>
      <trkpt lat="47.36862" lon="-1.91355">
        <ele>76</ele>
        <time>2015-12-05T15:46:12Z</time>
      </trkpt>
      <trkpt lat="47.36865" lon="-1.91364">
        <ele>76</ele>
        <time>2015-12-05T15:46:13Z</time>
      </trkpt>
      <trkpt lat="47.36867" lon="-1.91372">
        <ele>76</ele>
        <time>2015-12-05T15:46:14Z</time>
      </trkpt>
      <trkpt lat="47.36868" lon="-1.91381">
        <ele>76</ele>
        <time>2015-12-05T15:46:15Z</time>
      </trkpt>
      <trkpt lat="47.36871" lon="-1.9139">
        <ele>77</ele>
        <time>2015-12-05T15:46:16Z</time>
      </trkpt>
      <trkpt lat="47.36873" lon="-1.91399">
        <ele>77</ele>
        <time>2015-12-05T15:46:17Z</time>
      </trkpt>
      <trkpt lat="47.36875" lon="-1.91405">
        <ele>77</ele>
        <time>2015-12-05T15:46:18Z</time>
      </trkpt>
      <trkpt lat="47.36877" lon="-1.91415">
        <ele>77</ele>
        <time>2015-12-05T15:46:19Z</time>
      </trkpt>
      <trkpt lat="47.36879" lon="-1.91423">
        <ele>77</ele>
        <time>2015-12-05T15:46:20Z</time>
      </trkpt>
      <trkpt lat="47.36881" lon="-1.91433">
        <ele>78</ele>
        <time>2015-12-05T15:46:21Z</time>
      </trkpt>
      <trkpt lat="47.36883" lon="-1.91441">
        <ele>78</ele>
        <time>2015-12-05T15:46:22Z</time>
      </trkpt>
      <trkpt lat="47.36887" lon="-1.91454">
        <ele>78</ele>
        <time>2015-12-05T15:46:23Z</time>
      </trkpt>
      <trkpt lat="47.36888" lon="-1.91463">
        <ele>78</ele>
        <time>2015-12-05T15:46:24Z</time>
      </trkpt>
      <trkpt lat="47.3689" lon="-1.91471">
        <ele>78</ele>
        <time>2015-12-05T15:46:25Z</time>
      </trkpt>
      <trkpt lat="47.36892" lon="-1.9148">
        <ele>78</ele>
        <time>2015-12-05T15:46:26Z</time>
      </trkpt>
      <trkpt lat="47.36894" lon="-1.91489">
        <ele>78</ele>
        <time>2015-12-05T15:46:27Z</time>
      </trkpt>
      <trkpt lat="47.36895" lon="-1.91498">
        <ele>78</ele>
        <time>2015-12-05T15:46:28Z</time>
      </trkpt>
      <trkpt lat="47.36896" lon="-1.91505">
        <ele>79</ele>
        <time>2015-12-05T15:46:29Z</time>
      </trkpt>
      <trkpt lat="47.36897" lon="-1.91515">
        <ele>79</ele>
        <time>2015-12-05T15:46:30Z</time>
      </trkpt>
      <trkpt lat="47.36898" lon="-1.91523">
        <ele>79</ele>
        <time>2015-12-05T15:46:31Z</time>
      </trkpt>
      <trkpt lat="47.369" lon="-1.91532">
        <ele>79</ele>
        <time>2015-12-05T15:46:32Z</time>
      </trkpt>
      <trkpt lat="47.36901" lon="-1.9154">
        <ele>79</ele>
        <time>2015-12-05T15:46:33Z</time>
      </trkpt>
      <trkpt lat="47.36903" lon="-1.91549">
        <ele>79</ele>
        <time>2015-12-05T15:46:34Z</time>
      </trkpt>
      <trkpt lat="47.36904" lon="-1.91558">
        <ele>79</ele>
        <time>2015-12-05T15:46:35Z</time>
      </trkpt>
      <trkpt lat="47.36904" lon="-1.91566">
        <ele>79</ele>
        <time>2015-12-05T15:46:36Z</time>
      </trkpt>
      <trkpt lat="47.36905" lon="-1.91575">
        <ele>80</ele>
        <time>2015-12-05T15:46:37Z</time>
      </trkpt>
      <trkpt lat="47.36907" lon="-1.91581">
        <ele>80</ele>
        <time>2015-12-05T15:46:38Z</time>
      </trkpt>
      <trkpt lat="47.36909" lon="-1.9159">
        <ele>80</ele>
        <time>2015-12-05T15:46:39Z</time>
      </trkpt>
      <trkpt lat="47.36912" lon="-1.91598">
        <ele>80</ele>
        <time>2015-12-05T15:46:40Z</time>
      </trkpt>
      <trkpt lat="47.36914" lon="-1.91605">
        <ele>80</ele>
        <time>2015-12-05T15:46:41Z</time>
      </trkpt>
      <trkpt lat="47.36912" lon="-1.91617">
        <ele>80</ele>
        <time>2015-12-05T15:46:43Z</time>
      </trkpt>
      <trkpt lat="47.36913" lon="-1.91624">
        <ele>80</ele>
        <time>2015-12-05T15:46:44Z</time>
      </trkpt>
      <trkpt lat="47.36913" lon="-1.91631">
        <ele>80</ele>
        <time>2015-12-05T15:46:45Z</time>
      </trkpt>
      <trkpt lat="47.36914" lon="-1.91639">
        <ele>80</ele>
        <time>2015-12-05T15:46:46Z</time>
      </trkpt>
      <trkpt lat="47.36914" lon="-1.91646">
        <ele>80</ele>
        <time>2015-12-05T15:46:47Z</time>
      </trkpt>
      <trkpt lat="47.36914" lon="-1.91654">
        <ele>79</ele>
        <time>2015-12-05T15:46:48Z</time>
      </trkpt>
      <trkpt lat="47.36913" lon="-1.91663">
        <ele>79</ele>
        <time>2015-12-05T15:46:49Z</time>
      </trkpt>
      <trkpt lat="47.36913" lon="-1.91672">
        <ele>79</ele>
        <time>2015-12-05T15:46:50Z</time>
      </trkpt>
      <trkpt lat="47.36914" lon="-1.91679">
        <ele>80</ele>
        <time>2015-12-05T15:46:51Z</time>
      </trkpt>
      <trkpt lat="47.36914" lon="-1.91686">
        <ele>80</ele>
        <time>2015-12-05T15:46:52Z</time>
      </trkpt>
      <trkpt lat="47.36914" lon="-1.91693">
        <ele>80</ele>
        <time>2015-12-05T15:46:53Z</time>
      </trkpt>
      <trkpt lat="47.36914" lon="-1.917">
        <ele>80</ele>
        <time>2015-12-05T15:46:54Z</time>
      </trkpt>
      <trkpt lat="47.36915" lon="-1.91704">
        <ele>80</ele>
        <time>2015-12-05T15:46:55Z</time>
      </trkpt>
      <trkpt lat="47.36915" lon="-1.9171">
        <ele>80</ele>
        <time>2015-12-05T15:46:56Z</time>
      </trkpt>
      <trkpt lat="47.36915" lon="-1.91716">
        <ele>80</ele>
        <time>2015-12-05T15:46:57Z</time>
      </trkpt>
      <trkpt lat="47.3691" lon="-1.91724">
        <ele>81</ele>
        <time>2015-12-05T15:46:58Z</time>
      </trkpt>
      <trkpt lat="47.3691" lon="-1.91731">
        <ele>81</ele>
        <time>2015-12-05T15:46:59Z</time>
      </trkpt>
      <trkpt lat="47.3691" lon="-1.91738">
        <ele>81</ele>
        <time>2015-12-05T15:47:00Z</time>
      </trkpt>
      <trkpt lat="47.36905" lon="-1.91739">
        <ele>81</ele>
        <time>2015-12-05T15:47:01Z</time>
      </trkpt>
      <trkpt lat="47.36906" lon="-1.91751">
        <ele>81</ele>
        <time>2015-12-05T15:47:03Z</time>
      </trkpt>
      <trkpt lat="47.36903" lon="-1.91756">
        <ele>81</ele>
        <time>2015-12-05T15:47:04Z</time>
      </trkpt>
      <trkpt lat="47.36904" lon="-1.91765">
        <ele>81</ele>
        <time>2015-12-05T15:47:05Z</time>
      </trkpt>
      <trkpt lat="47.36904" lon="-1.91774">
        <ele>81</ele>
        <time>2015-12-05T15:47:06Z</time>
      </trkpt>
      <trkpt lat="47.36905" lon="-1.91783">
        <ele>81</ele>
        <time>2015-12-05T15:47:07Z</time>
      </trkpt>
      <trkpt lat="47.36905" lon="-1.91787">
        <ele>81</ele>
        <time>2015-12-05T15:47:08Z</time>
      </trkpt>
      <trkpt lat="47.36904" lon="-1.91795">
        <ele>82</ele>
        <time>2015-12-05T15:47:09Z</time>
      </trkpt>
      <trkpt lat="47.36903" lon="-1.91803">
        <ele>82</ele>
        <time>2015-12-05T15:47:10Z</time>
      </trkpt>
      <trkpt lat="47.36903" lon="-1.9181">
        <ele>82</ele>
        <time>2015-12-05T15:47:11Z</time>
      </trkpt>
      <trkpt lat="47.36903" lon="-1.91819">
        <ele>82</ele>
        <time>2015-12-05T15:47:12Z</time>
      </trkpt>
      <trkpt lat="47.36903" lon="-1.91825">
        <ele>82</ele>
        <time>2015-12-05T15:47:13Z</time>
      </trkpt>
      <trkpt lat="47.36902" lon="-1.91832">
        <ele>82</ele>
        <time>2015-12-05T15:47:14Z</time>
      </trkpt>
      <trkpt lat="47.369" lon="-1.91837">
        <ele>82</ele>
        <time>2015-12-05T15:47:15Z</time>
      </trkpt>
      <trkpt lat="47.36904" lon="-1.91847">
        <ele>82</ele>
        <time>2015-12-05T15:47:16Z</time>
      </trkpt>
      <trkpt lat="47.36901" lon="-1.91853">
        <ele>82</ele>
        <time>2015-12-05T15:47:17Z</time>
      </trkpt>
      <trkpt lat="47.36901" lon="-1.91859">
        <ele>82</ele>
        <time>2015-12-05T15:47:18Z</time>
      </trkpt>
      <trkpt lat="47.36898" lon="-1.91871">
        <ele>81</ele>
        <time>2015-12-05T15:47:19Z</time>
      </trkpt>
      <trkpt lat="47.36897" lon="-1.91879">
        <ele>81</ele>
        <time>2015-12-05T15:47:20Z</time>
      </trkpt>
      <trkpt lat="47.36897" lon="-1.91886">
        <ele>81</ele>
        <time>2015-12-05T15:47:21Z</time>
      </trkpt>
      <trkpt lat="47.36896" lon="-1.91894">
        <ele>81</ele>
        <time>2015-12-05T15:47:22Z</time>
      </trkpt>
      <trkpt lat="47.36896" lon="-1.91902">
        <ele>81</ele>
        <time>2015-12-05T15:47:23Z</time>
      </trkpt>
      <trkpt lat="47.36896" lon="-1.9191">
        <ele>82</ele>
        <time>2015-12-05T15:47:24Z</time>
      </trkpt>
      <trkpt lat="47.36898" lon="-1.91921">
        <ele>81</ele>
        <time>2015-12-05T15:47:25Z</time>
      </trkpt>
      <trkpt lat="47.36899" lon="-1.91931">
        <ele>81</ele>
        <time>2015-12-05T15:47:26Z</time>
      </trkpt>
      <trkpt lat="47.36896" lon="-1.91935">
        <ele>81</ele>
        <time>2015-12-05T15:47:27Z</time>
      </trkpt>
      <trkpt lat="47.36895" lon="-1.9194">
        <ele>81</ele>
        <time>2015-12-05T15:47:28Z</time>
      </trkpt>
      <trkpt lat="47.36894" lon="-1.91946">
        <ele>80</ele>
        <time>2015-12-05T15:47:29Z</time>
      </trkpt>
      <trkpt lat="47.3689" lon="-1.91958">
        <ele>80</ele>
        <time>2015-12-05T15:47:30Z</time>
      </trkpt>
      <trkpt lat="47.3689" lon="-1.91965">
        <ele>80</ele>
        <time>2015-12-05T15:47:31Z</time>
      </trkpt>
      <trkpt lat="47.3689" lon="-1.91972">
        <ele>80</ele>
        <time>2015-12-05T15:47:32Z</time>
      </trkpt>
      <trkpt lat="47.36893" lon="-1.91988">
        <ele>80</ele>
        <time>2015-12-05T15:47:33Z</time>
      </trkpt>
      <trkpt lat="47.36896" lon="-1.91997">
        <ele>80</ele>
        <time>2015-12-05T15:47:34Z</time>
      </trkpt>
      <trkpt lat="47.36898" lon="-1.92007">
        <ele>80</ele>
        <time>2015-12-05T15:47:35Z</time>
      </trkpt>
      <trkpt lat="47.36886" lon="-1.92018">
        <ele>80</ele>
        <time>2015-12-05T15:47:36Z</time>
      </trkpt>
      <trkpt lat="47.36884" lon="-1.92031">
        <ele>79</ele>
        <time>2015-12-05T15:47:37Z</time>
      </trkpt>
      <trkpt lat="47.36881" lon="-1.9204">
        <ele>79</ele>
        <time>2015-12-05T15:47:38Z</time>
      </trkpt>
      <trkpt lat="47.3688" lon="-1.92051">
        <ele>79</ele>
        <time>2015-12-05T15:47:39Z</time>
      </trkpt>
      <trkpt lat="47.36878" lon="-1.92063">
        <ele>79</ele>
        <time>2015-12-05T15:47:40Z</time>
      </trkpt>
      <trkpt lat="47.36875" lon="-1.92076">
        <ele>79</ele>
        <time>2015-12-05T15:47:41Z</time>
      </trkpt>
      <trkpt lat="47.36877" lon="-1.92087">
        <ele>79</ele>
        <time>2015-12-05T15:47:42Z</time>
      </trkpt>
      <trkpt lat="47.36876" lon="-1.92096">
        <ele>79</ele>
        <time>2015-12-05T15:47:43Z</time>
      </trkpt>
      <trkpt lat="47.36876" lon="-1.92109">
        <ele>79</ele>
        <time>2015-12-05T15:47:44Z</time>
      </trkpt>
      <trkpt lat="47.36876" lon="-1.92117">
        <ele>79</ele>
        <time>2015-12-05T15:47:45Z</time>
      </trkpt>
      <trkpt lat="47.36875" lon="-1.92126">
        <ele>79</ele>
        <time>2015-12-05T15:47:46Z</time>
      </trkpt>
      <trkpt lat="47.36875" lon="-1.92134">
        <ele>79</ele>
        <time>2015-12-05T15:47:47Z</time>
      </trkpt>
      <trkpt lat="47.36879" lon="-1.92145">
        <ele>79</ele>
        <time>2015-12-05T15:47:48Z</time>
      </trkpt>
      <trkpt lat="47.36881" lon="-1.92155">
        <ele>79</ele>
        <time>2015-12-05T15:47:49Z</time>
      </trkpt>
      <trkpt lat="47.36882" lon="-1.92163">
        <ele>79</ele>
        <time>2015-12-05T15:47:50Z</time>
      </trkpt>
      <trkpt lat="47.3688" lon="-1.92166">
        <ele>79</ele>
        <time>2015-12-05T15:47:51Z</time>
      </trkpt>
      <trkpt lat="47.36878" lon="-1.92172">
        <ele>79</ele>
        <time>2015-12-05T15:47:52Z</time>
      </trkpt>
      <trkpt lat="47.36878" lon="-1.92176">
        <ele>79</ele>
        <time>2015-12-05T15:47:53Z</time>
      </trkpt>
      <trkpt lat="47.36878" lon="-1.92181">
        <ele>79</ele>
        <time>2015-12-05T15:47:54Z</time>
      </trkpt>
      <trkpt lat="47.36876" lon="-1.9219">
        <ele>79</ele>
        <time>2015-12-05T15:47:55Z</time>
      </trkpt>
      <trkpt lat="47.36875" lon="-1.92193">
        <ele>79</ele>
        <time>2015-12-05T15:47:56Z</time>
      </trkpt>
      <trkpt lat="47.36872" lon="-1.92198">
        <ele>79</ele>
        <time>2015-12-05T15:47:58Z</time>
      </trkpt>
      <trkpt lat="47.36876" lon="-1.92209">
        <ele>79</ele>
        <time>2015-12-05T15:47:59Z</time>
      </trkpt>
      <trkpt lat="47.36878" lon="-1.92216">
        <ele>79</ele>
        <time>2015-12-05T15:48:00Z</time>
      </trkpt>
      <trkpt lat="47.36878" lon="-1.92223">
        <ele>79</ele>
        <time>2015-12-05T15:48:01Z</time>
      </trkpt>
      <trkpt lat="47.36879" lon="-1.92231">
        <ele>79</ele>
        <time>2015-12-05T15:48:02Z</time>
      </trkpt>
      <trkpt lat="47.3688" lon="-1.92236">
        <ele>79</ele>
        <time>2015-12-05T15:48:03Z</time>
      </trkpt>
      <trkpt lat="47.3688" lon="-1.92242">
        <ele>79</ele>
        <time>2015-12-05T15:48:04Z</time>
      </trkpt>
      <trkpt lat="47.36887" lon="-1.9227">
        <ele>80</ele>
        <time>2015-12-05T15:48:06Z</time>
      </trkpt>
      <trkpt lat="47.36888" lon="-1.92277">
        <ele>80</ele>
        <time>2015-12-05T15:48:07Z</time>
      </trkpt>
      <trkpt lat="47.36888" lon="-1.92284">
        <ele>80</ele>
        <time>2015-12-05T15:48:08Z</time>
      </trkpt>
      <trkpt lat="47.36887" lon="-1.9229">
        <ele>80</ele>
        <time>2015-12-05T15:48:09Z</time>
      </trkpt>
      <trkpt lat="47.36889" lon="-1.92296">
        <ele>80</ele>
        <time>2015-12-05T15:48:10Z</time>
      </trkpt>
      <trkpt lat="47.3689" lon="-1.92303">
        <ele>80</ele>
        <time>2015-12-05T15:48:11Z</time>
      </trkpt>
      <trkpt lat="47.36891" lon="-1.9231">
        <ele>80</ele>
        <time>2015-12-05T15:48:12Z</time>
      </trkpt>
      <trkpt lat="47.36891" lon="-1.92318">
        <ele>80</ele>
        <time>2015-12-05T15:48:13Z</time>
      </trkpt>
      <trkpt lat="47.36892" lon="-1.92325">
        <ele>80</ele>
        <time>2015-12-05T15:48:14Z</time>
      </trkpt>
      <trkpt lat="47.36893" lon="-1.92332">
        <ele>80</ele>
        <time>2015-12-05T15:48:15Z</time>
      </trkpt>
      <trkpt lat="47.36895" lon="-1.92339">
        <ele>81</ele>
        <time>2015-12-05T15:48:16Z</time>
      </trkpt>
      <trkpt lat="47.36893" lon="-1.92348">
        <ele>80</ele>
        <time>2015-12-05T15:48:17Z</time>
      </trkpt>
      <trkpt lat="47.36894" lon="-1.92355">
        <ele>80</ele>
        <time>2015-12-05T15:48:18Z</time>
      </trkpt>
      <trkpt lat="47.36895" lon="-1.92363">
        <ele>80</ele>
        <time>2015-12-05T15:48:19Z</time>
      </trkpt>
      <trkpt lat="47.36895" lon="-1.9237">
        <ele>80</ele>
        <time>2015-12-05T15:48:20Z</time>
      </trkpt>
      <trkpt lat="47.36896" lon="-1.92378">
        <ele>80</ele>
        <time>2015-12-05T15:48:21Z</time>
      </trkpt>
      <trkpt lat="47.36893" lon="-1.92385">
        <ele>80</ele>
        <time>2015-12-05T15:48:22Z</time>
      </trkpt>
      <trkpt lat="47.36894" lon="-1.92393">
        <ele>80</ele>
        <time>2015-12-05T15:48:23Z</time>
      </trkpt>
      <trkpt lat="47.36895" lon="-1.92401">
        <ele>80</ele>
        <time>2015-12-05T15:48:24Z</time>
      </trkpt>
      <trkpt lat="47.36896" lon="-1.92408">
        <ele>80</ele>
        <time>2015-12-05T15:48:25Z</time>
      </trkpt>
      <trkpt lat="47.36896" lon="-1.92415">
        <ele>80</ele>
        <time>2015-12-05T15:48:26Z</time>
      </trkpt>
      <trkpt lat="47.36896" lon="-1.92422">
        <ele>80</ele>
        <time>2015-12-05T15:48:27Z</time>
      </trkpt>
      <trkpt lat="47.36895" lon="-1.92427">
        <ele>80</ele>
        <time>2015-12-05T15:48:28Z</time>
      </trkpt>
      <trkpt lat="47.36895" lon="-1.92434">
        <ele>80</ele>
        <time>2015-12-05T15:48:29Z</time>
      </trkpt>
      <trkpt lat="47.36894" lon="-1.92439">
        <ele>80</ele>
        <time>2015-12-05T15:48:30Z</time>
      </trkpt>
      <trkpt lat="47.36892" lon="-1.92445">
        <ele>80</ele>
        <time>2015-12-05T15:48:31Z</time>
      </trkpt>
      <trkpt lat="47.36888" lon="-1.92451">
        <ele>80</ele>
        <time>2015-12-05T15:48:32Z</time>
      </trkpt>
      <trkpt lat="47.36886" lon="-1.92456">
        <ele>80</ele>
        <time>2015-12-05T15:48:33Z</time>
      </trkpt>
      <trkpt lat="47.36884" lon="-1.92462">
        <ele>80</ele>
        <time>2015-12-05T15:48:34Z</time>
      </trkpt>
      <trkpt lat="47.3688" lon="-1.92466">
        <ele>80</ele>
        <time>2015-12-05T15:48:35Z</time>
      </trkpt>
      <trkpt lat="47.36875" lon="-1.92471">
        <ele>80</ele>
        <time>2015-12-05T15:48:36Z</time>
      </trkpt>
      <trkpt lat="47.36872" lon="-1.92476">
        <ele>79</ele>
        <time>2015-12-05T15:48:37Z</time>
      </trkpt>
      <trkpt lat="47.36872" lon="-1.9248">
        <ele>79</ele>
        <time>2015-12-05T15:48:38Z</time>
      </trkpt>
      <trkpt lat="47.36865" lon="-1.92485">
        <ele>79</ele>
        <time>2015-12-05T15:48:39Z</time>
      </trkpt>
      <trkpt lat="47.36861" lon="-1.9249">
        <ele>79</ele>
        <time>2015-12-05T15:48:40Z</time>
      </trkpt>
      <trkpt lat="47.36858" lon="-1.92495">
        <ele>79</ele>
        <time>2015-12-05T15:48:41Z</time>
      </trkpt>
      <trkpt lat="47.36852" lon="-1.925">
        <ele>79</ele>
        <time>2015-12-05T15:48:42Z</time>
      </trkpt>
      <trkpt lat="47.36847" lon="-1.92501">
        <ele>79</ele>
        <time>2015-12-05T15:48:43Z</time>
      </trkpt>
      <trkpt lat="47.36843" lon="-1.92504">
        <ele>79</ele>
        <time>2015-12-05T15:48:44Z</time>
      </trkpt>
      <trkpt lat="47.36839" lon="-1.92509">
        <ele>79</ele>
        <time>2015-12-05T15:48:45Z</time>
      </trkpt>
      <trkpt lat="47.36836" lon="-1.92512">
        <ele>79</ele>
        <time>2015-12-05T15:48:46Z</time>
      </trkpt>
      <trkpt lat="47.36833" lon="-1.92516">
        <ele>79</ele>
        <time>2015-12-05T15:48:47Z</time>
      </trkpt>
      <trkpt lat="47.3683" lon="-1.9252">
        <ele>79</ele>
        <time>2015-12-05T15:48:48Z</time>
      </trkpt>
      <trkpt lat="47.36824" lon="-1.92517">
        <ele>79</ele>
        <time>2015-12-05T15:48:49Z</time>
      </trkpt>
      <trkpt lat="47.36819" lon="-1.92517">
        <ele>79</ele>
        <time>2015-12-05T15:48:50Z</time>
      </trkpt>
      <trkpt lat="47.36814" lon="-1.92518">
        <ele>79</ele>
        <time>2015-12-05T15:48:51Z</time>
      </trkpt>
      <trkpt lat="47.3681" lon="-1.92516">
        <ele>79</ele>
        <time>2015-12-05T15:48:52Z</time>
      </trkpt>
      <trkpt lat="47.36808" lon="-1.92515">
        <ele>79</ele>
        <time>2015-12-05T15:48:53Z</time>
      </trkpt>
      <trkpt lat="47.36799" lon="-1.92514">
        <ele>79</ele>
        <time>2015-12-05T15:48:55Z</time>
      </trkpt>
      <trkpt lat="47.36795" lon="-1.92514">
        <ele>79</ele>
        <time>2015-12-05T15:48:56Z</time>
      </trkpt>
      <trkpt lat="47.3679" lon="-1.92513">
        <ele>79</ele>
        <time>2015-12-05T15:48:57Z</time>
      </trkpt>
      <trkpt lat="47.36784" lon="-1.92512">
        <ele>79</ele>
        <time>2015-12-05T15:48:58Z</time>
      </trkpt>
      <trkpt lat="47.36777" lon="-1.92511">
        <ele>79</ele>
        <time>2015-12-05T15:48:59Z</time>
      </trkpt>
      <trkpt lat="47.36772" lon="-1.9251">
        <ele>79</ele>
        <time>2015-12-05T15:49:00Z</time>
      </trkpt>
      <trkpt lat="47.36768" lon="-1.92509">
        <ele>79</ele>
        <time>2015-12-05T15:49:01Z</time>
      </trkpt>
      <trkpt lat="47.36764" lon="-1.92506">
        <ele>79</ele>
        <time>2015-12-05T15:49:02Z</time>
      </trkpt>
      <trkpt lat="47.36759" lon="-1.92504">
        <ele>79</ele>
        <time>2015-12-05T15:49:03Z</time>
      </trkpt>
      <trkpt lat="47.36755" lon="-1.92502">
        <ele>79</ele>
        <time>2015-12-05T15:49:04Z</time>
      </trkpt>
      <trkpt lat="47.36751" lon="-1.92501">
        <ele>79</ele>
        <time>2015-12-05T15:49:05Z</time>
      </trkpt>
      <trkpt lat="47.36748" lon="-1.925">
        <ele>79</ele>
        <time>2015-12-05T15:49:06Z</time>
      </trkpt>
      <trkpt lat="47.36744" lon="-1.92499">
        <ele>79</ele>
        <time>2015-12-05T15:49:07Z</time>
      </trkpt>
      <trkpt lat="47.3674" lon="-1.925">
        <ele>79</ele>
        <time>2015-12-05T15:49:08Z</time>
      </trkpt>
      <trkpt lat="47.36736" lon="-1.92499">
        <ele>78</ele>
        <time>2015-12-05T15:49:09Z</time>
      </trkpt>
      <trkpt lat="47.36732" lon="-1.92498">
        <ele>78</ele>
        <time>2015-12-05T15:49:10Z</time>
      </trkpt>
      <trkpt lat="47.36727" lon="-1.92502">
        <ele>79</ele>
        <time>2015-12-05T15:49:12Z</time>
      </trkpt>
      <trkpt lat="47.3672" lon="-1.92504">
        <ele>79</ele>
        <time>2015-12-05T15:49:14Z</time>
      </trkpt>
      <trkpt lat="47.36712" lon="-1.92508">
        <ele>79</ele>
        <time>2015-12-05T15:49:16Z</time>
      </trkpt>
      <trkpt lat="47.36706" lon="-1.92511">
        <ele>79</ele>
        <time>2015-12-05T15:49:17Z</time>
      </trkpt>
      <trkpt lat="47.36702" lon="-1.92513">
        <ele>79</ele>
        <time>2015-12-05T15:49:18Z</time>
      </trkpt>
      <trkpt lat="47.36698" lon="-1.92515">
        <ele>79</ele>
        <time>2015-12-05T15:49:19Z</time>
      </trkpt>
      <trkpt lat="47.36692" lon="-1.92518">
        <ele>79</ele>
        <time>2015-12-05T15:49:20Z</time>
      </trkpt>
      <trkpt lat="47.36688" lon="-1.92521">
        <ele>79</ele>
        <time>2015-12-05T15:49:21Z</time>
      </trkpt>
      <trkpt lat="47.36683" lon="-1.92523">
        <ele>79</ele>
        <time>2015-12-05T15:49:22Z</time>
      </trkpt>
      <trkpt lat="47.36679" lon="-1.92525">
        <ele>79</ele>
        <time>2015-12-05T15:49:23Z</time>
      </trkpt>
      <trkpt lat="47.36675" lon="-1.9253">
        <ele>79</ele>
        <time>2015-12-05T15:49:24Z</time>
      </trkpt>
      <trkpt lat="47.36669" lon="-1.92533">
        <ele>79</ele>
        <time>2015-12-05T15:49:25Z</time>
      </trkpt>
      <trkpt lat="47.36665" lon="-1.92535">
        <ele>78</ele>
        <time>2015-12-05T15:49:26Z</time>
      </trkpt>
      <trkpt lat="47.36661" lon="-1.92535">
        <ele>78</ele>
        <time>2015-12-05T15:49:27Z</time>
      </trkpt>
      <trkpt lat="47.36657" lon="-1.92537">
        <ele>78</ele>
        <time>2015-12-05T15:49:28Z</time>
      </trkpt>
      <trkpt lat="47.36653" lon="-1.92538">
        <ele>78</ele>
        <time>2015-12-05T15:49:29Z</time>
      </trkpt>
      <trkpt lat="47.36648" lon="-1.92539">
        <ele>77</ele>
        <time>2015-12-05T15:49:30Z</time>
      </trkpt>
      <trkpt lat="47.36644" lon="-1.9254">
        <ele>77</ele>
        <time>2015-12-05T15:49:31Z</time>
      </trkpt>
      <trkpt lat="47.3664" lon="-1.92541">
        <ele>77</ele>
        <time>2015-12-05T15:49:32Z</time>
      </trkpt>
      <trkpt lat="47.36635" lon="-1.92545">
        <ele>77</ele>
        <time>2015-12-05T15:49:33Z</time>
      </trkpt>
      <trkpt lat="47.36632" lon="-1.9255">
        <ele>77</ele>
        <time>2015-12-05T15:49:34Z</time>
      </trkpt>
      <trkpt lat="47.36629" lon="-1.92555">
        <ele>77</ele>
        <time>2015-12-05T15:49:35Z</time>
      </trkpt>
      <trkpt lat="47.36626" lon="-1.92561">
        <ele>77</ele>
        <time>2015-12-05T15:49:36Z</time>
      </trkpt>
      <trkpt lat="47.36627" lon="-1.92568">
        <ele>77</ele>
        <time>2015-12-05T15:49:37Z</time>
      </trkpt>
      <trkpt lat="47.36625" lon="-1.92575">
        <ele>77</ele>
        <time>2015-12-05T15:49:38Z</time>
      </trkpt>
      <trkpt lat="47.36624" lon="-1.92582">
        <ele>77</ele>
        <time>2015-12-05T15:49:39Z</time>
      </trkpt>
      <trkpt lat="47.36619" lon="-1.92592">
        <ele>76</ele>
        <time>2015-12-05T15:49:41Z</time>
      </trkpt>
      <trkpt lat="47.36617" lon="-1.92598">
        <ele>76</ele>
        <time>2015-12-05T15:49:42Z</time>
      </trkpt>
      <trkpt lat="47.36613" lon="-1.92604">
        <ele>76</ele>
        <time>2015-12-05T15:49:43Z</time>
      </trkpt>
      <trkpt lat="47.36611" lon="-1.92611">
        <ele>76</ele>
        <time>2015-12-05T15:49:44Z</time>
      </trkpt>
      <trkpt lat="47.36609" lon="-1.92617">
        <ele>76</ele>
        <time>2015-12-05T15:49:45Z</time>
      </trkpt>
      <trkpt lat="47.36608" lon="-1.92625">
        <ele>75</ele>
        <time>2015-12-05T15:49:46Z</time>
      </trkpt>
      <trkpt lat="47.36605" lon="-1.92631">
        <ele>75</ele>
        <time>2015-12-05T15:49:47Z</time>
      </trkpt>
      <trkpt lat="47.36604" lon="-1.92639">
        <ele>75</ele>
        <time>2015-12-05T15:49:48Z</time>
      </trkpt>
      <trkpt lat="47.36604" lon="-1.92646">
        <ele>75</ele>
        <time>2015-12-05T15:49:49Z</time>
      </trkpt>
      <trkpt lat="47.36602" lon="-1.92655">
        <ele>74</ele>
        <time>2015-12-05T15:49:50Z</time>
      </trkpt>
      <trkpt lat="47.36602" lon="-1.92662">
        <ele>74</ele>
        <time>2015-12-05T15:49:51Z</time>
      </trkpt>
      <trkpt lat="47.366" lon="-1.92671">
        <ele>73</ele>
        <time>2015-12-05T15:49:52Z</time>
      </trkpt>
      <trkpt lat="47.366" lon="-1.92679">
        <ele>73</ele>
        <time>2015-12-05T15:49:53Z</time>
      </trkpt>
      <trkpt lat="47.36599" lon="-1.92688">
        <ele>74</ele>
        <time>2015-12-05T15:49:54Z</time>
      </trkpt>
      <trkpt lat="47.36598" lon="-1.92696">
        <ele>74</ele>
        <time>2015-12-05T15:49:55Z</time>
      </trkpt>
      <trkpt lat="47.36598" lon="-1.92705">
        <ele>74</ele>
        <time>2015-12-05T15:49:56Z</time>
      </trkpt>
      <trkpt lat="47.36597" lon="-1.92714">
        <ele>74</ele>
        <time>2015-12-05T15:49:57Z</time>
      </trkpt>
      <trkpt lat="47.36599" lon="-1.92719">
        <ele>74</ele>
        <time>2015-12-05T15:49:58Z</time>
      </trkpt>
      <trkpt lat="47.36599" lon="-1.92728">
        <ele>74</ele>
        <time>2015-12-05T15:49:59Z</time>
      </trkpt>
      <trkpt lat="47.36599" lon="-1.92736">
        <ele>74</ele>
        <time>2015-12-05T15:50:00Z</time>
      </trkpt>
      <trkpt lat="47.36596" lon="-1.92743">
        <ele>73</ele>
        <time>2015-12-05T15:50:01Z</time>
      </trkpt>
      <trkpt lat="47.36593" lon="-1.92751">
        <ele>73</ele>
        <time>2015-12-05T15:50:02Z</time>
      </trkpt>
      <trkpt lat="47.36588" lon="-1.92755">
        <ele>73</ele>
        <time>2015-12-05T15:50:03Z</time>
      </trkpt>
      <trkpt lat="47.36571" lon="-1.92758">
        <ele>72</ele>
        <time>2015-12-05T15:50:06Z</time>
      </trkpt>
      <trkpt lat="47.36564" lon="-1.92757">
        <ele>72</ele>
        <time>2015-12-05T15:50:07Z</time>
      </trkpt>
      <trkpt lat="47.36557" lon="-1.9276">
        <ele>72</ele>
        <time>2015-12-05T15:50:08Z</time>
      </trkpt>
      <trkpt lat="47.36551" lon="-1.92761">
        <ele>71</ele>
        <time>2015-12-05T15:50:09Z</time>
      </trkpt>
      <trkpt lat="47.36547" lon="-1.92764">
        <ele>71</ele>
        <time>2015-12-05T15:50:10Z</time>
      </trkpt>
      <trkpt lat="47.36541" lon="-1.92764">
        <ele>71</ele>
        <time>2015-12-05T15:50:11Z</time>
      </trkpt>
      <trkpt lat="47.36535" lon="-1.92765">
        <ele>71</ele>
        <time>2015-12-05T15:50:12Z</time>
      </trkpt>
      <trkpt lat="47.36529" lon="-1.9276">
        <ele>71</ele>
        <time>2015-12-05T15:50:13Z</time>
      </trkpt>
      <trkpt lat="47.36524" lon="-1.92759">
        <ele>71</ele>
        <time>2015-12-05T15:50:14Z</time>
      </trkpt>
      <trkpt lat="47.36518" lon="-1.92757">
        <ele>71</ele>
        <time>2015-12-05T15:50:15Z</time>
      </trkpt>
      <trkpt lat="47.36507" lon="-1.92764">
        <ele>71</ele>
        <time>2015-12-05T15:50:16Z</time>
      </trkpt>
      <trkpt lat="47.36504" lon="-1.92767">
        <ele>71</ele>
        <time>2015-12-05T15:50:17Z</time>
      </trkpt>
      <trkpt lat="47.36499" lon="-1.92769">
        <ele>70</ele>
        <time>2015-12-05T15:50:18Z</time>
      </trkpt>
      <trkpt lat="47.36493" lon="-1.92774">
        <ele>70</ele>
        <time>2015-12-05T15:50:19Z</time>
      </trkpt>
      <trkpt lat="47.36495" lon="-1.92789">
        <ele>69</ele>
        <time>2015-12-05T15:50:20Z</time>
      </trkpt>
      <trkpt lat="47.36493" lon="-1.92797">
        <ele>69</ele>
        <time>2015-12-05T15:50:21Z</time>
      </trkpt>
      <trkpt lat="47.36491" lon="-1.92804">
        <ele>69</ele>
        <time>2015-12-05T15:50:22Z</time>
      </trkpt>
      <trkpt lat="47.36493" lon="-1.92806">
        <ele>69</ele>
        <time>2015-12-05T15:50:23Z</time>
      </trkpt>
      <trkpt lat="47.36492" lon="-1.92812">
        <ele>69</ele>
        <time>2015-12-05T15:50:24Z</time>
      </trkpt>
      <trkpt lat="47.36491" lon="-1.92819">
        <ele>69</ele>
        <time>2015-12-05T15:50:25Z</time>
      </trkpt>
      <trkpt lat="47.3649" lon="-1.92827">
        <ele>69</ele>
        <time>2015-12-05T15:50:26Z</time>
      </trkpt>
      <trkpt lat="47.36482" lon="-1.92831">
        <ele>69</ele>
        <time>2015-12-05T15:50:27Z</time>
      </trkpt>
      <trkpt lat="47.36477" lon="-1.92839">
        <ele>68</ele>
        <time>2015-12-05T15:50:28Z</time>
      </trkpt>
      <trkpt lat="47.36469" lon="-1.92843">
        <ele>67</ele>
        <time>2015-12-05T15:50:29Z</time>
      </trkpt>
      <trkpt lat="47.36464" lon="-1.92847">
        <ele>67</ele>
        <time>2015-12-05T15:50:30Z</time>
      </trkpt>
      <trkpt lat="47.36458" lon="-1.92852">
        <ele>67</ele>
        <time>2015-12-05T15:50:31Z</time>
      </trkpt>
      <trkpt lat="47.36458" lon="-1.92858">
        <ele>67</ele>
        <time>2015-12-05T15:50:32Z</time>
      </trkpt>
      <trkpt lat="47.36455" lon="-1.92862">
        <ele>67</ele>
        <time>2015-12-05T15:50:33Z</time>
      </trkpt>
      <trkpt lat="47.36453" lon="-1.92868">
        <ele>67</ele>
        <time>2015-12-05T15:50:35Z</time>
      </trkpt>
      <trkpt lat="47.3645" lon="-1.92871">
        <ele>67</ele>
        <time>2015-12-05T15:50:36Z</time>
      </trkpt>
      <trkpt lat="47.36448" lon="-1.92876">
        <ele>67</ele>
        <time>2015-12-05T15:50:37Z</time>
      </trkpt>
      <trkpt lat="47.36446" lon="-1.92884">
        <ele>67</ele>
        <time>2015-12-05T15:50:38Z</time>
      </trkpt>
      <trkpt lat="47.36444" lon="-1.9289">
        <ele>66</ele>
        <time>2015-12-05T15:50:39Z</time>
      </trkpt>
      <trkpt lat="47.36441" lon="-1.92896">
        <ele>66</ele>
        <time>2015-12-05T15:50:40Z</time>
      </trkpt>
      <trkpt lat="47.36433" lon="-1.92904">
        <ele>66</ele>
        <time>2015-12-05T15:50:41Z</time>
      </trkpt>
      <trkpt lat="47.3643" lon="-1.92911">
        <ele>66</ele>
        <time>2015-12-05T15:50:42Z</time>
      </trkpt>
      <trkpt lat="47.36428" lon="-1.92918">
        <ele>65</ele>
        <time>2015-12-05T15:50:43Z</time>
      </trkpt>
      <trkpt lat="47.36425" lon="-1.92924">
        <ele>65</ele>
        <time>2015-12-05T15:50:44Z</time>
      </trkpt>
      <trkpt lat="47.36422" lon="-1.92931">
        <ele>65</ele>
        <time>2015-12-05T15:50:45Z</time>
      </trkpt>
      <trkpt lat="47.36418" lon="-1.92937">
        <ele>65</ele>
        <time>2015-12-05T15:50:46Z</time>
      </trkpt>
      <trkpt lat="47.36417" lon="-1.92941">
        <ele>65</ele>
        <time>2015-12-05T15:50:47Z</time>
      </trkpt>
      <trkpt lat="47.36413" lon="-1.92945">
        <ele>65</ele>
        <time>2015-12-05T15:50:48Z</time>
      </trkpt>
      <trkpt lat="47.3641" lon="-1.92947">
        <ele>65</ele>
        <time>2015-12-05T15:50:49Z</time>
      </trkpt>
      <trkpt lat="47.36405" lon="-1.92947">
        <ele>65</ele>
        <time>2015-12-05T15:50:50Z</time>
      </trkpt>
      <trkpt lat="47.36399" lon="-1.92947">
        <ele>65</ele>
        <time>2015-12-05T15:50:51Z</time>
      </trkpt>
      <trkpt lat="47.36394" lon="-1.92949">
        <ele>65</ele>
        <time>2015-12-05T15:50:52Z</time>
      </trkpt>
      <trkpt lat="47.36388" lon="-1.9295">
        <ele>65</ele>
        <time>2015-12-05T15:50:53Z</time>
      </trkpt>
      <trkpt lat="47.36382" lon="-1.92949">
        <ele>65</ele>
        <time>2015-12-05T15:50:54Z</time>
      </trkpt>
      <trkpt lat="47.36376" lon="-1.9295">
        <ele>65</ele>
        <time>2015-12-05T15:50:55Z</time>
      </trkpt>
      <trkpt lat="47.3637" lon="-1.92952">
        <ele>66</ele>
        <time>2015-12-05T15:50:56Z</time>
      </trkpt>
      <trkpt lat="47.36365" lon="-1.92953">
        <ele>66</ele>
        <time>2015-12-05T15:50:57Z</time>
      </trkpt>
      <trkpt lat="47.36358" lon="-1.92955">
        <ele>66</ele>
        <time>2015-12-05T15:50:58Z</time>
      </trkpt>
      <trkpt lat="47.36352" lon="-1.92958">
        <ele>66</ele>
        <time>2015-12-05T15:50:59Z</time>
      </trkpt>
      <trkpt lat="47.36346" lon="-1.92961">
        <ele>66</ele>
        <time>2015-12-05T15:51:00Z</time>
      </trkpt>
      <trkpt lat="47.3634" lon="-1.92966">
        <ele>66</ele>
        <time>2015-12-05T15:51:01Z</time>
      </trkpt>
      <trkpt lat="47.36335" lon="-1.9297">
        <ele>66</ele>
        <time>2015-12-05T15:51:02Z</time>
      </trkpt>
      <trkpt lat="47.36329" lon="-1.92975">
        <ele>65</ele>
        <time>2015-12-05T15:51:03Z</time>
      </trkpt>
      <trkpt lat="47.36325" lon="-1.92983">
        <ele>65</ele>
        <time>2015-12-05T15:51:04Z</time>
      </trkpt>
      <trkpt lat="47.36321" lon="-1.92988">
        <ele>65</ele>
        <time>2015-12-05T15:51:05Z</time>
      </trkpt>
      <trkpt lat="47.36316" lon="-1.92997">
        <ele>65</ele>
        <time>2015-12-05T15:51:06Z</time>
      </trkpt>
      <trkpt lat="47.36311" lon="-1.93005">
        <ele>64</ele>
        <time>2015-12-05T15:51:07Z</time>
      </trkpt>
      <trkpt lat="47.36304" lon="-1.93016">
        <ele>64</ele>
        <time>2015-12-05T15:51:09Z</time>
      </trkpt>
      <trkpt lat="47.36298" lon="-1.93024">
        <ele>63</ele>
        <time>2015-12-05T15:51:10Z</time>
      </trkpt>
      <trkpt lat="47.36292" lon="-1.93032">
        <ele>63</ele>
        <time>2015-12-05T15:51:11Z</time>
      </trkpt>
      <trkpt lat="47.36287" lon="-1.9304">
        <ele>63</ele>
        <time>2015-12-05T15:51:12Z</time>
      </trkpt>
      <trkpt lat="47.36281" lon="-1.93048">
        <ele>62</ele>
        <time>2015-12-05T15:51:13Z</time>
      </trkpt>
      <trkpt lat="47.36276" lon="-1.93056">
        <ele>62</ele>
        <time>2015-12-05T15:51:14Z</time>
      </trkpt>
      <trkpt lat="47.36271" lon="-1.93063">
        <ele>62</ele>
        <time>2015-12-05T15:51:15Z</time>
      </trkpt>
      <trkpt lat="47.36266" lon="-1.93071">
        <ele>62</ele>
        <time>2015-12-05T15:51:16Z</time>
      </trkpt>
      <trkpt lat="47.36262" lon="-1.93078">
        <ele>61</ele>
        <time>2015-12-05T15:51:17Z</time>
      </trkpt>
      <trkpt lat="47.36257" lon="-1.93086">
        <ele>60</ele>
        <time>2015-12-05T15:51:18Z</time>
      </trkpt>
      <trkpt lat="47.36252" lon="-1.93095">
        <ele>60</ele>
        <time>2015-12-05T15:51:19Z</time>
      </trkpt>
      <trkpt lat="47.36247" lon="-1.93103">
        <ele>58</ele>
        <time>2015-12-05T15:51:20Z</time>
      </trkpt>
      <trkpt lat="47.36243" lon="-1.93111">
        <ele>57</ele>
        <time>2015-12-05T15:51:21Z</time>
      </trkpt>
      <trkpt lat="47.36241" lon="-1.93117">
        <ele>57</ele>
        <time>2015-12-05T15:51:22Z</time>
      </trkpt>
      <trkpt lat="47.36238" lon="-1.93127">
        <ele>57</ele>
        <time>2015-12-05T15:51:23Z</time>
      </trkpt>
      <trkpt lat="47.36237" lon="-1.93137">
        <ele>57</ele>
        <time>2015-12-05T15:51:24Z</time>
      </trkpt>
      <trkpt lat="47.36233" lon="-1.93148">
        <ele>57</ele>
        <time>2015-12-05T15:51:25Z</time>
      </trkpt>
      <trkpt lat="47.36228" lon="-1.93158">
        <ele>56</ele>
        <time>2015-12-05T15:51:26Z</time>
      </trkpt>
      <trkpt lat="47.36222" lon="-1.93171">
        <ele>56</ele>
        <time>2015-12-05T15:51:27Z</time>
      </trkpt>
      <trkpt lat="47.36213" lon="-1.93184">
        <ele>56</ele>
        <time>2015-12-05T15:51:28Z</time>
      </trkpt>
      <trkpt lat="47.36212" lon="-1.93197">
        <ele>56</ele>
        <time>2015-12-05T15:51:29Z</time>
      </trkpt>
      <trkpt lat="47.36208" lon="-1.9321">
        <ele>55</ele>
        <time>2015-12-05T15:51:30Z</time>
      </trkpt>
      <trkpt lat="47.36204" lon="-1.93222">
        <ele>55</ele>
        <time>2015-12-05T15:51:31Z</time>
      </trkpt>
      <trkpt lat="47.362" lon="-1.93233">
        <ele>55</ele>
        <time>2015-12-05T15:51:32Z</time>
      </trkpt>
      <trkpt lat="47.36196" lon="-1.93245">
        <ele>55</ele>
        <time>2015-12-05T15:51:33Z</time>
      </trkpt>
      <trkpt lat="47.36194" lon="-1.93254">
        <ele>55</ele>
        <time>2015-12-05T15:51:34Z</time>
      </trkpt>
      <trkpt lat="47.36192" lon="-1.93264">
        <ele>55</ele>
        <time>2015-12-05T15:51:35Z</time>
      </trkpt>
      <trkpt lat="47.36191" lon="-1.93275">
        <ele>56</ele>
        <time>2015-12-05T15:51:36Z</time>
      </trkpt>
      <trkpt lat="47.3619" lon="-1.93285">
        <ele>56</ele>
        <time>2015-12-05T15:51:37Z</time>
      </trkpt>
      <trkpt lat="47.36189" lon="-1.93294">
        <ele>56</ele>
        <time>2015-12-05T15:51:38Z</time>
      </trkpt>
      <trkpt lat="47.36186" lon="-1.93305">
        <ele>56</ele>
        <time>2015-12-05T15:51:39Z</time>
      </trkpt>
      <trkpt lat="47.36183" lon="-1.93314">
        <ele>55</ele>
        <time>2015-12-05T15:51:40Z</time>
      </trkpt>
      <trkpt lat="47.36183" lon="-1.93324">
        <ele>55</ele>
        <time>2015-12-05T15:51:41Z</time>
      </trkpt>
      <trkpt lat="47.36182" lon="-1.93333">
        <ele>56</ele>
        <time>2015-12-05T15:51:42Z</time>
      </trkpt>
      <trkpt lat="47.36181" lon="-1.93344">
        <ele>56</ele>
        <time>2015-12-05T15:51:43Z</time>
      </trkpt>
      <trkpt lat="47.36178" lon="-1.93354">
        <ele>56</ele>
        <time>2015-12-05T15:51:44Z</time>
      </trkpt>
      <trkpt lat="47.36174" lon="-1.93359">
        <ele>56</ele>
        <time>2015-12-05T15:51:45Z</time>
      </trkpt>
      <trkpt lat="47.36172" lon="-1.93368">
        <ele>56</ele>
        <time>2015-12-05T15:51:46Z</time>
      </trkpt>
      <trkpt lat="47.36169" lon="-1.93376">
        <ele>57</ele>
        <time>2015-12-05T15:51:47Z</time>
      </trkpt>
      <trkpt lat="47.36159" lon="-1.93388">
        <ele>55</ele>
        <time>2015-12-05T15:51:48Z</time>
      </trkpt>
      <trkpt lat="47.36157" lon="-1.93396">
        <ele>55</ele>
        <time>2015-12-05T15:51:49Z</time>
      </trkpt>
      <trkpt lat="47.36156" lon="-1.93405">
        <ele>55</ele>
        <time>2015-12-05T15:51:50Z</time>
      </trkpt>
      <trkpt lat="47.36154" lon="-1.93414">
        <ele>55</ele>
        <time>2015-12-05T15:51:51Z</time>
      </trkpt>
      <trkpt lat="47.36153" lon="-1.93422">
        <ele>56</ele>
        <time>2015-12-05T15:51:52Z</time>
      </trkpt>
      <trkpt lat="47.36155" lon="-1.93428">
        <ele>56</ele>
        <time>2015-12-05T15:51:53Z</time>
      </trkpt>
      <trkpt lat="47.36153" lon="-1.93435">
        <ele>56</ele>
        <time>2015-12-05T15:51:54Z</time>
      </trkpt>
      <trkpt lat="47.36151" lon="-1.93443">
        <ele>56</ele>
        <time>2015-12-05T15:51:55Z</time>
      </trkpt>
      <trkpt lat="47.3615" lon="-1.93447">
        <ele>56</ele>
        <time>2015-12-05T15:51:56Z</time>
      </trkpt>
      <trkpt lat="47.36146" lon="-1.93453">
        <ele>56</ele>
        <time>2015-12-05T15:51:57Z</time>
      </trkpt>
      <trkpt lat="47.36144" lon="-1.93458">
        <ele>56</ele>
        <time>2015-12-05T15:51:58Z</time>
      </trkpt>
      <trkpt lat="47.3614" lon="-1.93456">
        <ele>56</ele>
        <time>2015-12-05T15:51:59Z</time>
      </trkpt>
      <trkpt lat="47.36135" lon="-1.93456">
        <ele>56</ele>
        <time>2015-12-05T15:52:00Z</time>
      </trkpt>
      <trkpt lat="47.36131" lon="-1.93455">
        <ele>56</ele>
        <time>2015-12-05T15:52:01Z</time>
      </trkpt>
      <trkpt lat="47.36136" lon="-1.93465">
        <ele>56</ele>
        <time>2015-12-05T15:52:02Z</time>
      </trkpt>
      <trkpt lat="47.36134" lon="-1.9347">
        <ele>56</ele>
        <time>2015-12-05T15:52:03Z</time>
      </trkpt>
      <trkpt lat="47.36133" lon="-1.93476">
        <ele>56</ele>
        <time>2015-12-05T15:52:04Z</time>
      </trkpt>
      <trkpt lat="47.36132" lon="-1.93482">
        <ele>56</ele>
        <time>2015-12-05T15:52:05Z</time>
      </trkpt>
      <trkpt lat="47.36127" lon="-1.93486">
        <ele>56</ele>
        <time>2015-12-05T15:52:06Z</time>
      </trkpt>
      <trkpt lat="47.36124" lon="-1.93488">
        <ele>56</ele>
        <time>2015-12-05T15:52:07Z</time>
      </trkpt>
      <trkpt lat="47.36121" lon="-1.93491">
        <ele>56</ele>
        <time>2015-12-05T15:52:08Z</time>
      </trkpt>
      <trkpt lat="47.36113" lon="-1.93489">
        <ele>55</ele>
        <time>2015-12-05T15:52:10Z</time>
      </trkpt>
      <trkpt lat="47.36109" lon="-1.9349">
        <ele>55</ele>
        <time>2015-12-05T15:52:11Z</time>
      </trkpt>
      <trkpt lat="47.36103" lon="-1.93492">
        <ele>55</ele>
        <time>2015-12-05T15:52:13Z</time>
      </trkpt>
      <trkpt lat="47.361" lon="-1.93492">
        <ele>55</ele>
        <time>2015-12-05T15:52:14Z</time>
      </trkpt>
      <trkpt lat="47.36096" lon="-1.93492">
        <ele>55</ele>
        <time>2015-12-05T15:52:16Z</time>
      </trkpt>
      <trkpt lat="47.36077" lon="-1.93496">
        <ele>54</ele>
        <time>2015-12-05T15:52:18Z</time>
      </trkpt>
      <trkpt lat="47.3607" lon="-1.93497">
        <ele>54</ele>
        <time>2015-12-05T15:52:19Z</time>
      </trkpt>
      <trkpt lat="47.36064" lon="-1.93498">
        <ele>54</ele>
        <time>2015-12-05T15:52:20Z</time>
      </trkpt>
      <trkpt lat="47.36057" lon="-1.93498">
        <ele>54</ele>
        <time>2015-12-05T15:52:21Z</time>
      </trkpt>
      <trkpt lat="47.36051" lon="-1.93499">
        <ele>53</ele>
        <time>2015-12-05T15:52:22Z</time>
      </trkpt>
      <trkpt lat="47.36045" lon="-1.93499">
        <ele>53</ele>
        <time>2015-12-05T15:52:23Z</time>
      </trkpt>
      <trkpt lat="47.36038" lon="-1.935">
        <ele>53</ele>
        <time>2015-12-05T15:52:24Z</time>
      </trkpt>
      <trkpt lat="47.36033" lon="-1.93501">
        <ele>53</ele>
        <time>2015-12-05T15:52:25Z</time>
      </trkpt>
      <trkpt lat="47.36026" lon="-1.93503">
        <ele>53</ele>
        <time>2015-12-05T15:52:26Z</time>
      </trkpt>
      <trkpt lat="47.36019" lon="-1.93505">
        <ele>53</ele>
        <time>2015-12-05T15:52:27Z</time>
      </trkpt>
      <trkpt lat="47.36013" lon="-1.93506">
        <ele>53</ele>
        <time>2015-12-05T15:52:28Z</time>
      </trkpt>
      <trkpt lat="47.36007" lon="-1.93508">
        <ele>53</ele>
        <time>2015-12-05T15:52:29Z</time>
      </trkpt>
      <trkpt lat="47.36004" lon="-1.93516">
        <ele>53</ele>
        <time>2015-12-05T15:52:30Z</time>
      </trkpt>
      <trkpt lat="47.35999" lon="-1.93521">
        <ele>52</ele>
        <time>2015-12-05T15:52:31Z</time>
      </trkpt>
      <trkpt lat="47.35994" lon="-1.93527">
        <ele>53</ele>
        <time>2015-12-05T15:52:32Z</time>
      </trkpt>
      <trkpt lat="47.35993" lon="-1.93536">
        <ele>53</ele>
        <time>2015-12-05T15:52:33Z</time>
      </trkpt>
      <trkpt lat="47.35995" lon="-1.93545">
        <ele>53</ele>
        <time>2015-12-05T15:52:34Z</time>
      </trkpt>
      <trkpt lat="47.35995" lon="-1.9355">
        <ele>53</ele>
        <time>2015-12-05T15:52:35Z</time>
      </trkpt>
      <trkpt lat="47.35994" lon="-1.93558">
        <ele>53</ele>
        <time>2015-12-05T15:52:37Z</time>
      </trkpt>
      <trkpt lat="47.35994" lon="-1.93563">
        <ele>53</ele>
        <time>2015-12-05T15:52:38Z</time>
      </trkpt>
      <trkpt lat="47.35995" lon="-1.93577">
        <ele>52</ele>
        <time>2015-12-05T15:52:39Z</time>
      </trkpt>
      <trkpt lat="47.35995" lon="-1.93585">
        <ele>52</ele>
        <time>2015-12-05T15:52:40Z</time>
      </trkpt>
      <trkpt lat="47.35995" lon="-1.93592">
        <ele>53</ele>
        <time>2015-12-05T15:52:41Z</time>
      </trkpt>
      <trkpt lat="47.35995" lon="-1.936">
        <ele>53</ele>
        <time>2015-12-05T15:52:42Z</time>
      </trkpt>
      <trkpt lat="47.35998" lon="-1.9361">
        <ele>53</ele>
        <time>2015-12-05T15:52:43Z</time>
      </trkpt>
      <trkpt lat="47.35996" lon="-1.93618">
        <ele>54</ele>
        <time>2015-12-05T15:52:44Z</time>
      </trkpt>
      <trkpt lat="47.35996" lon="-1.93625">
        <ele>54</ele>
        <time>2015-12-05T15:52:45Z</time>
      </trkpt>
      <trkpt lat="47.35996" lon="-1.93632">
        <ele>54</ele>
        <time>2015-12-05T15:52:46Z</time>
      </trkpt>
      <trkpt lat="47.35985" lon="-1.93636">
        <ele>54</ele>
        <time>2015-12-05T15:52:47Z</time>
      </trkpt>
      <trkpt lat="47.35981" lon="-1.93639">
        <ele>54</ele>
        <time>2015-12-05T15:52:48Z</time>
      </trkpt>
      <trkpt lat="47.35978" lon="-1.9364">
        <ele>54</ele>
        <time>2015-12-05T15:52:49Z</time>
      </trkpt>
      <trkpt lat="47.35973" lon="-1.9364">
        <ele>54</ele>
        <time>2015-12-05T15:52:50Z</time>
      </trkpt>
      <trkpt lat="47.35967" lon="-1.93638">
        <ele>54</ele>
        <time>2015-12-05T15:52:52Z</time>
      </trkpt>
      <trkpt lat="47.35962" lon="-1.93639">
        <ele>54</ele>
        <time>2015-12-05T15:52:53Z</time>
      </trkpt>
      <trkpt lat="47.35957" lon="-1.9364">
        <ele>54</ele>
        <time>2015-12-05T15:52:54Z</time>
      </trkpt>
      <trkpt lat="47.3595" lon="-1.93637">
        <ele>54</ele>
        <time>2015-12-05T15:52:55Z</time>
      </trkpt>
      <trkpt lat="47.35944" lon="-1.93639">
        <ele>54</ele>
        <time>2015-12-05T15:52:56Z</time>
      </trkpt>
      <trkpt lat="47.35939" lon="-1.9364">
        <ele>54</ele>
        <time>2015-12-05T15:52:57Z</time>
      </trkpt>
      <trkpt lat="47.35936" lon="-1.93644">
        <ele>54</ele>
        <time>2015-12-05T15:52:58Z</time>
      </trkpt>
      <trkpt lat="47.35931" lon="-1.93645">
        <ele>54</ele>
        <time>2015-12-05T15:52:59Z</time>
      </trkpt>
      <trkpt lat="47.35926" lon="-1.93645">
        <ele>54</ele>
        <time>2015-12-05T15:53:00Z</time>
      </trkpt>
      <trkpt lat="47.35921" lon="-1.93648">
        <ele>55</ele>
        <time>2015-12-05T15:53:01Z</time>
      </trkpt>
      <trkpt lat="47.35917" lon="-1.93649">
        <ele>55</ele>
        <time>2015-12-05T15:53:02Z</time>
      </trkpt>
      <trkpt lat="47.35913" lon="-1.9365">
        <ele>56</ele>
        <time>2015-12-05T15:53:03Z</time>
      </trkpt>
      <trkpt lat="47.3591" lon="-1.93648">
        <ele>56</ele>
        <time>2015-12-05T15:53:04Z</time>
      </trkpt>
      <trkpt lat="47.35905" lon="-1.9365">
        <ele>56</ele>
        <time>2015-12-05T15:53:05Z</time>
      </trkpt>
      <trkpt lat="47.359" lon="-1.93656">
        <ele>56</ele>
        <time>2015-12-05T15:53:06Z</time>
      </trkpt>
      <trkpt lat="47.35896" lon="-1.93657">
        <ele>56</ele>
        <time>2015-12-05T15:53:07Z</time>
      </trkpt>
      <trkpt lat="47.35892" lon="-1.93657">
        <ele>56</ele>
        <time>2015-12-05T15:53:08Z</time>
      </trkpt>
      <trkpt lat="47.35887" lon="-1.93655">
        <ele>56</ele>
        <time>2015-12-05T15:53:09Z</time>
      </trkpt>
      <trkpt lat="47.35884" lon="-1.93651">
        <ele>57</ele>
        <time>2015-12-05T15:53:10Z</time>
      </trkpt>
      <trkpt lat="47.35879" lon="-1.9365">
        <ele>57</ele>
        <time>2015-12-05T15:53:11Z</time>
      </trkpt>
      <trkpt lat="47.35874" lon="-1.93648">
        <ele>57</ele>
        <time>2015-12-05T15:53:12Z</time>
      </trkpt>
      <trkpt lat="47.35871" lon="-1.93648">
        <ele>57</ele>
        <time>2015-12-05T15:53:13Z</time>
      </trkpt>
      <trkpt lat="47.35867" lon="-1.9365">
        <ele>57</ele>
        <time>2015-12-05T15:53:14Z</time>
      </trkpt>
      <trkpt lat="47.35862" lon="-1.93651">
        <ele>57</ele>
        <time>2015-12-05T15:53:15Z</time>
      </trkpt>
      <trkpt lat="47.35858" lon="-1.93652">
        <ele>57</ele>
        <time>2015-12-05T15:53:16Z</time>
      </trkpt>
      <trkpt lat="47.35854" lon="-1.93654">
        <ele>58</ele>
        <time>2015-12-05T15:53:17Z</time>
      </trkpt>
      <trkpt lat="47.3585" lon="-1.93655">
        <ele>58</ele>
        <time>2015-12-05T15:53:18Z</time>
      </trkpt>
      <trkpt lat="47.35846" lon="-1.93656">
        <ele>58</ele>
        <time>2015-12-05T15:53:19Z</time>
      </trkpt>
      <trkpt lat="47.35841" lon="-1.93657">
        <ele>58</ele>
        <time>2015-12-05T15:53:20Z</time>
      </trkpt>
      <trkpt lat="47.35837" lon="-1.93658">
        <ele>58</ele>
        <time>2015-12-05T15:53:21Z</time>
      </trkpt>
      <trkpt lat="47.35832" lon="-1.93659">
        <ele>59</ele>
        <time>2015-12-05T15:53:22Z</time>
      </trkpt>
      <trkpt lat="47.3583" lon="-1.93662">
        <ele>59</ele>
        <time>2015-12-05T15:53:23Z</time>
      </trkpt>
      <trkpt lat="47.35827" lon="-1.93663">
        <ele>59</ele>
        <time>2015-12-05T15:53:24Z</time>
      </trkpt>
      <trkpt lat="47.35823" lon="-1.93665">
        <ele>59</ele>
        <time>2015-12-05T15:53:25Z</time>
      </trkpt>
      <trkpt lat="47.35819" lon="-1.93666">
        <ele>59</ele>
        <time>2015-12-05T15:53:26Z</time>
      </trkpt>
      <trkpt lat="47.35811" lon="-1.93666">
        <ele>59</ele>
        <time>2015-12-05T15:53:28Z</time>
      </trkpt>
      <trkpt lat="47.35807" lon="-1.93669">
        <ele>59</ele>
        <time>2015-12-05T15:53:29Z</time>
      </trkpt>
      <trkpt lat="47.35803" lon="-1.9367">
        <ele>59</ele>
        <time>2015-12-05T15:53:30Z</time>
      </trkpt>
      <trkpt lat="47.35801" lon="-1.93675">
        <ele>59</ele>
        <time>2015-12-05T15:53:32Z</time>
      </trkpt>
      <trkpt lat="47.35801" lon="-1.93682">
        <ele>59</ele>
        <time>2015-12-05T15:53:34Z</time>
      </trkpt>
      <trkpt lat="47.35803" lon="-1.93688">
        <ele>59</ele>
        <time>2015-12-05T15:53:35Z</time>
      </trkpt>
      <trkpt lat="47.35805" lon="-1.93692">
        <ele>59</ele>
        <time>2015-12-05T15:53:36Z</time>
      </trkpt>
      <trkpt lat="47.35806" lon="-1.93696">
        <ele>59</ele>
        <time>2015-12-05T15:53:37Z</time>
      </trkpt>
      <trkpt lat="47.35807" lon="-1.937">
        <ele>59</ele>
        <time>2015-12-05T15:53:38Z</time>
      </trkpt>
      <trkpt lat="47.3581" lon="-1.937">
        <ele>59</ele>
        <time>2015-12-05T15:53:44Z</time>
      </trkpt>
      <trkpt lat="47.35813" lon="-1.937">
        <ele>59</ele>
        <time>2015-12-05T15:53:59Z</time>
      </trkpt>
      <trkpt lat="47.35816" lon="-1.937">
        <ele>59</ele>
        <time>2015-12-05T15:54:02Z</time>
      </trkpt>
      <trkpt lat="47.35819" lon="-1.93701">
        <ele>59</ele>
        <time>2015-12-05T15:54:05Z</time>
      </trkpt>
      <trkpt lat="47.35822" lon="-1.937">
        <ele>59</ele>
        <time>2015-12-05T15:54:11Z</time>
      </trkpt>
      <trkpt lat="47.35822" lon="-1.93704">
        <ele>59</ele>
        <time>2015-12-05T15:54:17Z</time>
      </trkpt>
    </trkseg>
  </trk>
</gpx>